<?xml version='1.0' encoding='UTF-8'?><gpx version="1.1" creator="JPX - https://github.com/jenetics/jpx" xmlns="http://www.topografix.com/GPX/1/1"><trk><trkseg><trkpt lat="43.438798612368394" lon="5.852508303780783"><ele>362.16666666666663</ele><time>2026-05-01T11:35:57Z</time></trkpt><trkpt lat="43.43883904632873" lon="5.852363435072391"><ele>363.3333333333333</ele><time>2026-05-01T11:35:59Z</time></trkpt><trkpt lat="43.43885765810322" lon="5.852260315225579"><ele>364.5</ele><time>2026-05-01T11:36:00Z</time></trkpt><trkpt lat="43.43888701655247" lon="5.852174322156719"><ele>365.6666666666667</ele><time>2026-05-01T11:36:01Z</time></trkpt><trkpt lat="43.43890821925164" lon="5.852069241331416"><ele>366.83333333333337</ele><time>2026-05-01T11:36:02Z</time></trkpt><trkpt lat="43.43893172569008" lon="5.8519874519654485"><ele>368.0</ele><time>2026-05-01T11:36:03Z</time></trkpt><trkpt lat="43.43902127716363" lon="5.85199735048338"><ele>368.0</ele><time>2026-05-01T11:36:06Z</time></trkpt><trkpt lat="43.43913098867258" lon="5.852077829319251"><ele>368.0</ele><time>2026-05-01T11:36:08Z</time></trkpt><trkpt lat="43.439214052981626" lon="5.852137634831916"><ele>368.0</ele><time>2026-05-01T11:36:09Z</time></trkpt><trkpt lat="43.439302501190085" lon="5.852172278998686"><ele>368.0</ele><time>2026-05-01T11:36:10Z</time></trkpt><trkpt lat="43.43937603990551" lon="5.8522307511166884"><ele>368.0</ele><time>2026-05-01T11:36:11Z</time></trkpt><trkpt lat="43.43945890441186" lon="5.852283284135745"><ele>368.0</ele><time>2026-05-01T11:36:12Z</time></trkpt><trkpt lat="43.439529949187" lon="5.852330736483713"><ele>368.0</ele><time>2026-05-01T11:36:13Z</time></trkpt><trkpt lat="43.43959468564238" lon="5.85237282274252"><ele>368.0</ele><time>2026-05-01T11:36:14Z</time></trkpt><trkpt lat="43.439656005085055" lon="5.8524114303403465"><ele>368.0</ele><time>2026-05-01T11:36:15Z</time></trkpt><trkpt lat="43.439756513877406" lon="5.852474988979585"><ele>368.0</ele><time>2026-05-01T11:36:17Z</time></trkpt><trkpt lat="43.439858674388" lon="5.852517644389721"><ele>368.0</ele><time>2026-05-01T11:36:19Z</time></trkpt><trkpt lat="43.43991197154932" lon="5.852571249551517"><ele>365.59999999999997</ele><time>2026-05-01T11:36:20Z</time></trkpt><trkpt lat="43.43998871971389" lon="5.8526775297462"><ele>363.2</ele><time>2026-05-01T11:36:22Z</time></trkpt><trkpt lat="43.44002228983541" lon="5.852785718960741"><ele>360.8</ele><time>2026-05-01T11:36:24Z</time></trkpt><trkpt lat="43.43998792663232" lon="5.852875463770425"><ele>358.4</ele><time>2026-05-01T11:36:25Z</time></trkpt><trkpt lat="43.43998163259219" lon="5.852974618770303"><ele>356.0</ele><time>2026-05-01T11:36:26Z</time></trkpt><trkpt lat="43.43998419827991" lon="5.853132601492661"><ele>356.0</ele><time>2026-05-01T11:36:27Z</time></trkpt><trkpt lat="43.43997072879282" lon="5.8533075671436485"><ele>356.0</ele><time>2026-05-01T11:36:28Z</time></trkpt><trkpt lat="43.439975950543456" lon="5.853445116297842"><ele>356.0</ele><time>2026-05-01T11:36:29Z</time></trkpt><trkpt lat="43.439995992911356" lon="5.853541695475237"><ele>356.0</ele><time>2026-05-01T11:36:30Z</time></trkpt><trkpt lat="43.44002874079025" lon="5.853687446990925"><ele>356.0</ele><time>2026-05-01T11:36:32Z</time></trkpt><trkpt lat="43.44001493822128" lon="5.853875047895153"><ele>355.0</ele><time>2026-05-01T11:36:34Z</time></trkpt><trkpt lat="43.439988591598365" lon="5.853983302931374"><ele>354.0</ele><time>2026-05-01T11:36:35Z</time></trkpt><trkpt lat="43.43995351332352" lon="5.85411099896494"><ele>353.0</ele><time>2026-05-01T11:36:36Z</time></trkpt><trkpt lat="43.43992222647798" lon="5.854257504538182"><ele>352.0</ele><time>2026-05-01T11:36:37Z</time></trkpt><trkpt lat="43.43991089158253" lon="5.8543900324308495"><ele>351.0</ele><time>2026-05-01T11:36:38Z</time></trkpt><trkpt lat="43.439913174639024" lon="5.854510570518488"><ele>350.6</ele><time>2026-05-01T11:36:39Z</time></trkpt><trkpt lat="43.43991943357804" lon="5.8546265068335055"><ele>350.20000000000005</ele><time>2026-05-01T11:36:40Z</time></trkpt><trkpt lat="43.43991946755469" lon="5.854734261445981"><ele>349.79999999999995</ele><time>2026-05-01T11:36:41Z</time></trkpt><trkpt lat="43.4399202423958" lon="5.854839695944889"><ele>349.4</ele><time>2026-05-01T11:36:42Z</time></trkpt><trkpt lat="43.439911992638606" lon="5.854940453151896"><ele>349.0</ele><time>2026-05-01T11:36:43Z</time></trkpt><trkpt lat="43.43985972243032" lon="5.855120162654387"><ele>347.5</ele><time>2026-05-01T11:36:44.999Z</time></trkpt><trkpt lat="43.43982206116398" lon="5.855285468742309"><ele>346.0</ele><time>2026-05-01T11:36:46.999Z</time></trkpt><trkpt lat="43.439786916626346" lon="5.85543418026492"><ele>344.5</ele><time>2026-05-01T11:36:48.999Z</time></trkpt><trkpt lat="43.43975988013681" lon="5.85551305781117"><ele>343.0</ele><time>2026-05-01T11:36:50.999Z</time></trkpt><trkpt lat="43.43988326144367" lon="5.855639262415529"><ele>343.0</ele><time>2026-05-01T11:36:53.999Z</time></trkpt><trkpt lat="43.439924499887155" lon="5.855722093677825"><ele>343.0</ele><time>2026-05-01T11:36:54.999Z</time></trkpt><trkpt lat="43.439952911793235" lon="5.855828746601712"><ele>343.0</ele><time>2026-05-01T11:36:55.999Z</time></trkpt><trkpt lat="43.43997650611739" lon="5.8559613006459355"><ele>343.0</ele><time>2026-05-01T11:36:56.999Z</time></trkpt><trkpt lat="43.43999526656758" lon="5.856088895863486"><ele>343.0</ele><time>2026-05-01T11:36:57.999Z</time></trkpt><trkpt lat="43.44000951022304" lon="5.856189018114623"><ele>343.0</ele><time>2026-05-01T11:36:58.999Z</time></trkpt><trkpt lat="43.440022111156175" lon="5.856288686801883"><ele>342.57142857142856</ele><time>2026-05-01T11:36:59.999Z</time></trkpt><trkpt lat="43.440051750659165" lon="5.856365549409737"><ele>342.1428571428571</ele><time>2026-05-01T11:37:00.999Z</time></trkpt><trkpt lat="43.44009905331295" lon="5.856427536220202"><ele>341.7142857142857</ele><time>2026-05-01T11:37:01.999Z</time></trkpt><trkpt lat="43.44014029589329" lon="5.856502534094843"><ele>341.2857142857143</ele><time>2026-05-01T11:37:02.999Z</time></trkpt><trkpt lat="43.44019188927903" lon="5.856585942061703"><ele>340.85714285714283</ele><time>2026-05-01T11:37:03.999Z</time></trkpt><trkpt lat="43.440241522118036" lon="5.856666180532323"><ele>340.42857142857144</ele><time>2026-05-01T11:37:04.999Z</time></trkpt><trkpt lat="43.44029266052075" lon="5.85674498154843"><ele>340.0</ele><time>2026-05-01T11:37:05.999Z</time></trkpt><trkpt lat="43.44037046406618" lon="5.856825335763992"><ele>340.0</ele><time>2026-05-01T11:37:07.999Z</time></trkpt><trkpt lat="43.44041870012701" lon="5.8569288371581685"><ele>340.0</ele><time>2026-05-01T11:37:10.999Z</time></trkpt><trkpt lat="43.440406985208256" lon="5.857157717094611"><ele>340.0</ele><time>2026-05-01T11:37:12.999Z</time></trkpt><trkpt lat="43.44044721030555" lon="5.857238831942507"><ele>340.0</ele><time>2026-05-01T11:37:13.999Z</time></trkpt><trkpt lat="43.44050819275021" lon="5.857321082854621"><ele>340.0</ele><time>2026-05-01T11:37:14.999Z</time></trkpt><trkpt lat="43.44056107090173" lon="5.857404328385934"><ele>340.0</ele><time>2026-05-01T11:37:15.999Z</time></trkpt><trkpt lat="43.44062703524003" lon="5.857517477786791"><ele>340.0</ele><time>2026-05-01T11:37:17.999Z</time></trkpt><trkpt lat="43.440672870707566" lon="5.857583529096987"><ele>340.0</ele><time>2026-05-01T11:37:18.999Z</time></trkpt><trkpt lat="43.44074597448016" lon="5.857648825625483"><ele>340.0</ele><time>2026-05-01T11:37:20.999Z</time></trkpt><trkpt lat="43.44078815770601" lon="5.8577285063428475"><ele>340.0</ele><time>2026-05-01T11:37:22.999Z</time></trkpt><trkpt lat="43.440855060950796" lon="5.85773374574963"><ele>340.0</ele><time>2026-05-01T11:37:23.999Z</time></trkpt><trkpt lat="43.440924724287356" lon="5.857710107857787"><ele>340.0</ele><time>2026-05-01T11:37:24.999Z</time></trkpt><trkpt lat="43.4409760765882" lon="5.857813715333715"><ele>340.0</ele><time>2026-05-01T11:37:25.999Z</time></trkpt><trkpt lat="43.441085930366974" lon="5.8578415993470525"><ele>340.0</ele><time>2026-05-01T11:37:27.999Z</time></trkpt><trkpt lat="43.441171777800015" lon="5.857881032826183"><ele>340.0</ele><time>2026-05-01T11:37:28.999Z</time></trkpt><trkpt lat="43.44128948044594" lon="5.857900177179185"><ele>340.0</ele><time>2026-05-01T11:37:29.999Z</time></trkpt><trkpt lat="43.44140036227429" lon="5.857931277700882"><ele>338.8</ele><time>2026-05-01T11:37:30.999Z</time></trkpt><trkpt lat="43.44149716968285" lon="5.857947230322185"><ele>337.6</ele><time>2026-05-01T11:37:31.999Z</time></trkpt><trkpt lat="43.44159113415107" lon="5.857972434567334"><ele>336.4</ele><time>2026-05-01T11:37:32.999Z</time></trkpt><trkpt lat="43.441687224092284" lon="5.857980890998495"><ele>335.2</ele><time>2026-05-01T11:37:34Z</time></trkpt><trkpt lat="43.44178039973098" lon="5.857996211560177"><ele>334.0</ele><time>2026-05-01T11:37:35Z</time></trkpt><trkpt lat="43.44186819032268" lon="5.858012479022067"><ele>334.0</ele><time>2026-05-01T11:37:36Z</time></trkpt><trkpt lat="43.441947001254945" lon="5.8580513710217685"><ele>334.0</ele><time>2026-05-01T11:37:37Z</time></trkpt><trkpt lat="43.44202356290907" lon="5.858079662879713"><ele>334.0</ele><time>2026-05-01T11:37:38Z</time></trkpt><trkpt lat="43.442094746196275" lon="5.858103285648324"><ele>334.0</ele><time>2026-05-01T11:37:39Z</time></trkpt><trkpt lat="43.442199566895624" lon="5.858139109878671"><ele>334.0</ele><time>2026-05-01T11:37:41Z</time></trkpt><trkpt lat="43.442302647859" lon="5.8581773571013445"><ele>333.5</ele><time>2026-05-01T11:37:43Z</time></trkpt><trkpt lat="43.44236993089639" lon="5.858203535027042"><ele>333.0</ele><time>2026-05-01T11:37:44Z</time></trkpt><trkpt lat="43.44246052320387" lon="5.858241534067396"><ele>332.5</ele><time>2026-05-01T11:37:45Z</time></trkpt><trkpt lat="43.44252665650841" lon="5.858270065139653"><ele>332.0</ele><time>2026-05-01T11:37:46Z</time></trkpt><trkpt lat="43.44263067332473" lon="5.858321071542237"><ele>331.5</ele><time>2026-05-01T11:37:48Z</time></trkpt><trkpt lat="43.44271034084819" lon="5.858365002883461"><ele>331.0</ele><time>2026-05-01T11:37:50Z</time></trkpt><trkpt lat="43.442791668350374" lon="5.858412812858007"><ele>331.0</ele><time>2026-05-01T11:37:52Z</time></trkpt><trkpt lat="43.44287076506002" lon="5.858445789875337"><ele>331.0</ele><time>2026-05-01T11:37:54Z</time></trkpt><trkpt lat="43.44294644143825" lon="5.858505737959129"><ele>331.0</ele><time>2026-05-01T11:37:55Z</time></trkpt><trkpt lat="43.44305157556682" lon="5.858550317416185"><ele>331.0</ele><time>2026-05-01T11:37:56Z</time></trkpt><trkpt lat="43.44315296039753" lon="5.858632967621669"><ele>331.0</ele><time>2026-05-01T11:37:57Z</time></trkpt><trkpt lat="43.4432477683288" lon="5.858666182001365"><ele>330.0</ele><time>2026-05-01T11:37:58Z</time></trkpt><trkpt lat="43.44333432864346" lon="5.8587283629812354"><ele>329.0</ele><time>2026-05-01T11:37:59Z</time></trkpt><trkpt lat="43.44344482472261" lon="5.858791518135232"><ele>328.0</ele><time>2026-05-01T11:38:00Z</time></trkpt><trkpt lat="43.44359928285068" lon="5.858842398209222"><ele>327.0</ele><time>2026-05-01T11:38:01Z</time></trkpt><trkpt lat="43.443744904495254" lon="5.858903164259078"><ele>326.25</ele><time>2026-05-01T11:38:02Z</time></trkpt><trkpt lat="43.44387161425514" lon="5.8589761734914285"><ele>325.5</ele><time>2026-05-01T11:38:03Z</time></trkpt><trkpt lat="43.44398455311528" lon="5.859044305509865"><ele>324.75</ele><time>2026-05-01T11:38:04Z</time></trkpt><trkpt lat="43.44409219162613" lon="5.859112089043402"><ele>324.0</ele><time>2026-05-01T11:38:05Z</time></trkpt><trkpt lat="43.44417949787595" lon="5.859174010096033"><ele>324.0</ele><time>2026-05-01T11:38:06Z</time></trkpt><trkpt lat="43.444237250339135" lon="5.859232465847809"><ele>324.0</ele><time>2026-05-01T11:38:07Z</time></trkpt><trkpt lat="43.44425088595256" lon="5.859332876808638"><ele>324.0</ele><time>2026-05-01T11:38:09Z</time></trkpt><trkpt lat="43.44429246576583" lon="5.859449701808663"><ele>324.0</ele><time>2026-05-01T11:39:43Z</time></trkpt><trkpt lat="43.44435924034072" lon="5.859515848065111"><ele>324.0</ele><time>2026-05-01T11:39:44Z</time></trkpt><trkpt lat="43.44442814436802" lon="5.8595737379444985"><ele>324.0</ele><time>2026-05-01T11:39:45Z</time></trkpt><trkpt lat="43.444530654187695" lon="5.859625219554411"><ele>323.5</ele><time>2026-05-01T11:39:46Z</time></trkpt><trkpt lat="43.44464077756142" lon="5.859668483804363"><ele>323.0</ele><time>2026-05-01T11:39:47Z</time></trkpt><trkpt lat="43.444770141103405" lon="5.8597107651363265"><ele>322.5</ele><time>2026-05-01T11:39:48Z</time></trkpt><trkpt lat="43.44491592858703" lon="5.85976066150558"><ele>322.0</ele><time>2026-05-01T11:39:49Z</time></trkpt><trkpt lat="43.445061634258316" lon="5.859813208168635"><ele>322.0</ele><time>2026-05-01T11:39:50Z</time></trkpt><trkpt lat="43.44521841799231" lon="5.859865707703168"><ele>322.0</ele><time>2026-05-01T11:39:51Z</time></trkpt><trkpt lat="43.44539753568607" lon="5.859927704371468"><ele>322.0</ele><time>2026-05-01T11:39:52Z</time></trkpt><trkpt lat="43.445584062647555" lon="5.859997015697598"><ele>321.0</ele><time>2026-05-01T11:39:53Z</time></trkpt><trkpt lat="43.445757828838396" lon="5.860063214464941"><ele>320.0</ele><time>2026-05-01T11:39:54Z</time></trkpt><trkpt lat="43.44591223617885" lon="5.860119160490996"><ele>319.0</ele><time>2026-05-01T11:39:55Z</time></trkpt><trkpt lat="43.446062984781975" lon="5.860172271863089"><ele>318.66666666666663</ele><time>2026-05-01T11:39:56Z</time></trkpt><trkpt lat="43.446214563255225" lon="5.860225032488384"><ele>318.3333333333333</ele><time>2026-05-01T11:39:57Z</time></trkpt><trkpt lat="43.4463587700826" lon="5.8602783172273405"><ele>318.0</ele><time>2026-05-01T11:39:58Z</time></trkpt><trkpt lat="43.4465033506211" lon="5.860333504101941"><ele>318.0</ele><time>2026-05-01T11:39:59Z</time></trkpt><trkpt lat="43.4466359151732" lon="5.860386080740291"><ele>318.0</ele><time>2026-05-01T11:40:00Z</time></trkpt><trkpt lat="43.44677323803586" lon="5.860435439646489"><ele>318.0</ele><time>2026-05-01T11:40:01Z</time></trkpt><trkpt lat="43.446922726823466" lon="5.860496836776313"><ele>318.0</ele><time>2026-05-01T11:40:02Z</time></trkpt><trkpt lat="43.44709413813132" lon="5.860563507835424"><ele>317.0</ele><time>2026-05-01T11:40:03Z</time></trkpt><trkpt lat="43.44725681636369" lon="5.860627997035587"><ele>316.0</ele><time>2026-05-01T11:40:04Z</time></trkpt><trkpt lat="43.44740418847467" lon="5.8606864842187445"><ele>315.0</ele><time>2026-05-01T11:40:05Z</time></trkpt><trkpt lat="43.44754499547999" lon="5.860740354059993"><ele>315.0</ele><time>2026-05-01T11:40:06Z</time></trkpt><trkpt lat="43.44768031695571" lon="5.860782002480454"><ele>315.0</ele><time>2026-05-01T11:40:07Z</time></trkpt><trkpt lat="43.44781292310705" lon="5.860801639433423"><ele>315.0</ele><time>2026-05-01T11:40:08Z</time></trkpt><trkpt lat="43.44793823430396" lon="5.860806166823755"><ele>315.0</ele><time>2026-05-01T11:40:09Z</time></trkpt><trkpt lat="43.448047874228166" lon="5.860806594239352"><ele>314.4</ele><time>2026-05-01T11:40:10Z</time></trkpt><trkpt lat="43.44813298998812" lon="5.860812300137908"><ele>313.8</ele><time>2026-05-01T11:40:11Z</time></trkpt><trkpt lat="43.4482409883487" lon="5.860903749591307"><ele>313.2</ele><time>2026-05-01T11:40:13Z</time></trkpt><trkpt lat="43.44827099247589" lon="5.860994002452356"><ele>312.6</ele><time>2026-05-01T11:40:14Z</time></trkpt><trkpt lat="43.448294918563434" lon="5.861118062817348"><ele>312.0</ele><time>2026-05-01T11:40:15Z</time></trkpt><trkpt lat="43.44832845332239" lon="5.8612432213864345"><ele>311.8</ele><time>2026-05-01T11:40:16Z</time></trkpt><trkpt lat="43.448385045419485" lon="5.861335749946482"><ele>311.6</ele><time>2026-05-01T11:40:17Z</time></trkpt><trkpt lat="43.44842495157931" lon="5.861432785406201"><ele>311.40000000000003</ele><time>2026-05-01T11:40:18Z</time></trkpt><trkpt lat="43.44835388483211" lon="5.861616182723325"><ele>311.2</ele><time>2026-05-01T11:40:20Z</time></trkpt><trkpt lat="43.44829100757268" lon="5.86169525697104"><ele>311.0</ele><time>2026-05-01T11:40:21Z</time></trkpt><trkpt lat="43.44823431176185" lon="5.861768289865496"><ele>311.1666666666667</ele><time>2026-05-01T11:40:22Z</time></trkpt><trkpt lat="43.44817528465681" lon="5.8618452182636585"><ele>311.33333333333337</ele><time>2026-05-01T11:40:23Z</time></trkpt><trkpt lat="43.44810273055415" lon="5.861922069070064"><ele>311.5</ele><time>2026-05-01T11:40:24Z</time></trkpt><trkpt lat="43.44805023260038" lon="5.862002875174123"><ele>311.6666666666667</ele><time>2026-05-01T11:40:25Z</time></trkpt><trkpt lat="43.448043522081925" lon="5.862114298162037"><ele>311.8333333333333</ele><time>2026-05-01T11:40:26Z</time></trkpt><trkpt lat="43.44809199220734" lon="5.862201124821943"><ele>312.0</ele><time>2026-05-01T11:40:27Z</time></trkpt><trkpt lat="43.44816990805628" lon="5.8622683792456245"><ele>312.0</ele><time>2026-05-01T11:40:28Z</time></trkpt><trkpt lat="43.448250056672585" lon="5.862336575125232"><ele>312.0</ele><time>2026-05-01T11:40:29Z</time></trkpt><trkpt lat="43.44834282398859" lon="5.862445687298609"><ele>312.0</ele><time>2026-05-01T11:40:30Z</time></trkpt><trkpt lat="43.44841656635948" lon="5.86256358290947"><ele>312.0</ele><time>2026-05-01T11:40:31Z</time></trkpt><trkpt lat="43.448471944540266" lon="5.8626776882880165"><ele>312.0</ele><time>2026-05-01T11:40:32Z</time></trkpt><trkpt lat="43.448503959047706" lon="5.862777935471216"><ele>311.4</ele><time>2026-05-01T11:40:33Z</time></trkpt><trkpt lat="43.448524361425726" lon="5.862868118476625"><ele>310.79999999999995</ele><time>2026-05-01T11:40:34Z</time></trkpt><trkpt lat="43.4485586388022" lon="5.862966084785407"><ele>310.2</ele><time>2026-05-01T11:40:35Z</time></trkpt><trkpt lat="43.44862727624033" lon="5.863069461908404"><ele>309.59999999999997</ele><time>2026-05-01T11:40:36Z</time></trkpt><trkpt lat="43.448719637939625" lon="5.863178098364168"><ele>309.0</ele><time>2026-05-01T11:40:37Z</time></trkpt><trkpt lat="43.448822476118224" lon="5.863272967498576"><ele>309.0</ele><time>2026-05-01T11:40:38Z</time></trkpt><trkpt lat="43.44891524854028" lon="5.8633352325824015"><ele>309.0</ele><time>2026-05-01T11:40:39Z</time></trkpt><trkpt lat="43.44900049608648" lon="5.8633798459004005"><ele>309.0</ele><time>2026-05-01T11:40:40Z</time></trkpt><trkpt lat="43.449071232165714" lon="5.863422536407204"><ele>309.0</ele><time>2026-05-01T11:40:40.999Z</time></trkpt><trkpt lat="43.44913852021484" lon="5.863465196969598"><ele>309.0</ele><time>2026-05-01T11:40:41.999Z</time></trkpt><trkpt lat="43.44920166688653" lon="5.863507327902059"><ele>309.0</ele><time>2026-05-01T11:40:42.999Z</time></trkpt><trkpt lat="43.44926896993678" lon="5.863549908305524"><ele>308.6666666666667</ele><time>2026-05-01T11:40:43.999Z</time></trkpt><trkpt lat="43.44933886724412" lon="5.863593042908805"><ele>308.3333333333333</ele><time>2026-05-01T11:40:44.999Z</time></trkpt><trkpt lat="43.44941528136458" lon="5.863641802798189"><ele>308.0</ele><time>2026-05-01T11:40:45.999Z</time></trkpt><trkpt lat="43.44949312737463" lon="5.863689861141385"><ele>307.66666666666663</ele><time>2026-05-01T11:40:46.999Z</time></trkpt><trkpt lat="43.449566755669146" lon="5.863743519532253"><ele>307.3333333333333</ele><time>2026-05-01T11:40:47.999Z</time></trkpt><trkpt lat="43.449637041301564" lon="5.8637964605299215"><ele>307.0</ele><time>2026-05-01T11:40:48.999Z</time></trkpt><trkpt lat="43.4496993431576" lon="5.863841850627851"><ele>306.8333333333333</ele><time>2026-05-01T11:40:49.999Z</time></trkpt><trkpt lat="43.44977230504265" lon="5.863894774177599"><ele>306.66666666666663</ele><time>2026-05-01T11:40:50.999Z</time></trkpt><trkpt lat="43.44983878938599" lon="5.863957763550885"><ele>306.5</ele><time>2026-05-01T11:40:51.999Z</time></trkpt><trkpt lat="43.44988498617909" lon="5.864037810390211"><ele>306.3333333333333</ele><time>2026-05-01T11:40:52.999Z</time></trkpt><trkpt lat="43.449913466397824" lon="5.864132206407891"><ele>306.1666666666667</ele><time>2026-05-01T11:40:53.999Z</time></trkpt><trkpt lat="43.44994160179821" lon="5.864232211225692"><ele>306.0</ele><time>2026-05-01T11:40:54.999Z</time></trkpt><trkpt lat="43.4499898487271" lon="5.864339884509914"><ele>305.8</ele><time>2026-05-01T11:40:55.999Z</time></trkpt><trkpt lat="43.450052440928125" lon="5.864439179494717"><ele>305.6</ele><time>2026-05-01T11:40:56.999Z</time></trkpt><trkpt lat="43.450117983426104" lon="5.864530497922184"><ele>305.4</ele><time>2026-05-01T11:40:57.999Z</time></trkpt><trkpt lat="43.45018076434891" lon="5.86461889737957"><ele>305.2</ele><time>2026-05-01T11:40:58.999Z</time></trkpt><trkpt lat="43.450254484492994" lon="5.864712090232927"><ele>305.0</ele><time>2026-05-01T11:40:59.999Z</time></trkpt><trkpt lat="43.45033634269744" lon="5.864819251595153"><ele>305.0</ele><time>2026-05-01T11:41:00.999Z</time></trkpt><trkpt lat="43.450417889815085" lon="5.8649393174763995"><ele>305.0</ele><time>2026-05-01T11:41:01.999Z</time></trkpt><trkpt lat="43.450494251366194" lon="5.865046677067764"><ele>305.0</ele><time>2026-05-01T11:41:02.999Z</time></trkpt><trkpt lat="43.450567284185894" lon="5.865136426037767"><ele>305.0</ele><time>2026-05-01T11:41:03.999Z</time></trkpt><trkpt lat="43.45063959200529" lon="5.865224164077095"><ele>305.0</ele><time>2026-05-01T11:41:04.999Z</time></trkpt><trkpt lat="43.45072171184749" lon="5.8652999680618505"><ele>304.8</ele><time>2026-05-01T11:41:05.999Z</time></trkpt><trkpt lat="43.45080859033929" lon="5.865373939778658"><ele>304.6</ele><time>2026-05-01T11:41:06.999Z</time></trkpt><trkpt lat="43.450896193694135" lon="5.865438373047815"><ele>304.4</ele><time>2026-05-01T11:41:07.999Z</time></trkpt><trkpt lat="43.45097628559253" lon="5.865499474833495"><ele>304.2</ele><time>2026-05-01T11:41:08.999Z</time></trkpt><trkpt lat="43.45104915497833" lon="5.865561074172589"><ele>304.0</ele><time>2026-05-01T11:41:09.999Z</time></trkpt><trkpt lat="43.451116665500116" lon="5.865623621604655"><ele>304.0</ele><time>2026-05-01T11:41:10.999Z</time></trkpt><trkpt lat="43.45117242525327" lon="5.865683886935521"><ele>304.0</ele><time>2026-05-01T11:41:11.999Z</time></trkpt><trkpt lat="43.45125031226287" lon="5.865805711878289"><ele>304.0</ele><time>2026-05-01T11:41:13.999Z</time></trkpt><trkpt lat="43.45127808505466" lon="5.865919058776888"><ele>304.0</ele><time>2026-05-01T11:41:15.999Z</time></trkpt><trkpt lat="43.45131928829814" lon="5.866024838432645"><ele>304.0</ele><time>2026-05-01T11:41:17.999Z</time></trkpt><trkpt lat="43.451400209506915" lon="5.866019255932477"><ele>304.0</ele><time>2026-05-01T11:41:19.999Z</time></trkpt><trkpt lat="43.45146240760736" lon="5.865950185002059"><ele>303.59999999999997</ele><time>2026-05-01T11:41:21.999Z</time></trkpt><trkpt lat="43.45152510924644" lon="5.8659245661584505"><ele>303.2</ele><time>2026-05-01T11:41:23.999Z</time></trkpt><trkpt lat="43.45161125759999" lon="5.865930214447946"><ele>302.79999999999995</ele><time>2026-05-01T11:41:24.999Z</time></trkpt><trkpt lat="43.45171258521896" lon="5.865998214126389"><ele>302.4</ele><time>2026-05-01T11:41:25.999Z</time></trkpt><trkpt lat="43.45183626564979" lon="5.8660740263325675"><ele>302.0</ele><time>2026-05-01T11:41:26.999Z</time></trkpt><trkpt lat="43.45195807829053" lon="5.866218717890847"><ele>301.33333333333337</ele><time>2026-05-01T11:41:27.999Z</time></trkpt><trkpt lat="43.452082294475005" lon="5.866367235043671"><ele>300.6666666666667</ele><time>2026-05-01T11:41:28.999Z</time></trkpt><trkpt lat="43.452221247348135" lon="5.866519713667723"><ele>300.0</ele><time>2026-05-01T11:41:29.999Z</time></trkpt><trkpt lat="43.452374841087114" lon="5.866659743727309"><ele>298.3333333333333</ele><time>2026-05-01T11:41:30.999Z</time></trkpt><trkpt lat="43.45252282112694" lon="5.86679234852486"><ele>296.66666666666663</ele><time>2026-05-01T11:41:31.999Z</time></trkpt><trkpt lat="43.45263940822848" lon="5.866932066615928"><ele>295.0</ele><time>2026-05-01T11:41:32.999Z</time></trkpt><trkpt lat="43.45273671633099" lon="5.867089959841502"><ele>295.0</ele><time>2026-05-01T11:41:33.999Z</time></trkpt><trkpt lat="43.45281660507562" lon="5.86722327433789"><ele>295.0</ele><time>2026-05-01T11:41:34.999Z</time></trkpt><trkpt lat="43.45289309480149" lon="5.867322434188394"><ele>295.0</ele><time>2026-05-01T11:41:35.999Z</time></trkpt><trkpt lat="43.45294567336866" lon="5.867391194776786"><ele>295.0</ele><time>2026-05-01T11:41:36.999Z</time></trkpt><trkpt lat="43.453000646040664" lon="5.867450502795259"><ele>295.0</ele><time>2026-05-01T11:41:38.999Z</time></trkpt><trkpt lat="43.45305959274007" lon="5.867566185803826"><ele>294.75</ele><time>2026-05-01T11:41:41.999Z</time></trkpt><trkpt lat="43.4531569186292" lon="5.867611833329153"><ele>294.5</ele><time>2026-05-01T11:41:42.999Z</time></trkpt><trkpt lat="43.45326399112443" lon="5.867647370120706"><ele>294.25</ele><time>2026-05-01T11:41:43.999Z</time></trkpt><trkpt lat="43.45337718181174" lon="5.867724720162812"><ele>294.0</ele><time>2026-05-01T11:41:44.999Z</time></trkpt><trkpt lat="43.453492083884704" lon="5.867825502868216"><ele>294.0</ele><time>2026-05-01T11:41:45.999Z</time></trkpt><trkpt lat="43.45360549874789" lon="5.867930089034806"><ele>294.0</ele><time>2026-05-01T11:41:46.999Z</time></trkpt><trkpt lat="43.453749980294" lon="5.868051335860979"><ele>294.0</ele><time>2026-05-01T11:41:47.999Z</time></trkpt><trkpt lat="43.453879035055756" lon="5.868160931456955"><ele>293.5</ele><time>2026-05-01T11:41:48.999Z</time></trkpt><trkpt lat="43.45399474837281" lon="5.868265395230769"><ele>293.0</ele><time>2026-05-01T11:41:49.999Z</time></trkpt><trkpt lat="43.45411233885935" lon="5.868384244032431"><ele>292.5</ele><time>2026-05-01T11:41:50.999Z</time></trkpt><trkpt lat="43.45422634229063" lon="5.868517573445146"><ele>292.0</ele><time>2026-05-01T11:41:51.999Z</time></trkpt><trkpt lat="43.45432873743979" lon="5.868650468251921"><ele>292.0</ele><time>2026-05-01T11:41:52.999Z</time></trkpt><trkpt lat="43.45442234309456" lon="5.8687749947782395"><ele>292.0</ele><time>2026-05-01T11:41:53.999Z</time></trkpt><trkpt lat="43.45450692996862" lon="5.868887592359742"><ele>292.0</ele><time>2026-05-01T11:41:54.999Z</time></trkpt><trkpt lat="43.45459025540561" lon="5.868995168227156"><ele>292.0</ele><time>2026-05-01T11:41:55.999Z</time></trkpt><trkpt lat="43.45466762585924" lon="5.869094332526705"><ele>291.75</ele><time>2026-05-01T11:41:56.999Z</time></trkpt><trkpt lat="43.45476096819696" lon="5.8692029264798755"><ele>291.5</ele><time>2026-05-01T11:41:57.999Z</time></trkpt><trkpt lat="43.4548597183374" lon="5.869314078839238"><ele>291.25</ele><time>2026-05-01T11:41:58.999Z</time></trkpt><trkpt lat="43.4549458512976" lon="5.869411973869204"><ele>291.0</ele><time>2026-05-01T11:41:59.999Z</time></trkpt><trkpt lat="43.455018047143405" lon="5.8694987835465335"><ele>291.0</ele><time>2026-05-01T11:42:00.999Z</time></trkpt><trkpt lat="43.45508116752388" lon="5.869579237717722"><ele>291.0</ele><time>2026-05-01T11:42:01.999Z</time></trkpt><trkpt lat="43.45514468247192" lon="5.869655882002089"><ele>291.0</ele><time>2026-05-01T11:42:03Z</time></trkpt><trkpt lat="43.455203262332084" lon="5.869726560961476"><ele>291.0</ele><time>2026-05-01T11:42:04Z</time></trkpt><trkpt lat="43.45526265449906" lon="5.869794885719091"><ele>291.0</ele><time>2026-05-01T11:42:05Z</time></trkpt><trkpt lat="43.45530216204638" lon="5.869872182614603"><ele>291.0</ele><time>2026-05-01T11:42:06Z</time></trkpt><trkpt lat="43.45532671532898" lon="5.869973648631402"><ele>291.0</ele><time>2026-05-01T11:42:07Z</time></trkpt><trkpt lat="43.45534324812168" lon="5.870079402946862"><ele>291.0</ele><time>2026-05-01T11:42:08Z</time></trkpt><trkpt lat="43.45535639482342" lon="5.870187383338802"><ele>291.0</ele><time>2026-05-01T11:42:09Z</time></trkpt><trkpt lat="43.4553800589909" lon="5.870295023615434"><ele>291.0</ele><time>2026-05-01T11:42:10Z</time></trkpt><trkpt lat="43.45540058029881" lon="5.870392091337645"><ele>291.0</ele><time>2026-05-01T11:42:11Z</time></trkpt><trkpt lat="43.455422550844766" lon="5.870482562145237"><ele>291.0</ele><time>2026-05-01T11:42:12Z</time></trkpt><trkpt lat="43.455457645892714" lon="5.870587551384026"><ele>291.0</ele><time>2026-05-01T11:42:13Z</time></trkpt><trkpt lat="43.4554952522851" lon="5.870684960480535"><ele>291.0</ele><time>2026-05-01T11:42:14Z</time></trkpt><trkpt lat="43.455531065082525" lon="5.870797318705086"><ele>291.0</ele><time>2026-05-01T11:42:15Z</time></trkpt><trkpt lat="43.455567237478746" lon="5.870905824036812"><ele>291.0</ele><time>2026-05-01T11:42:16Z</time></trkpt><trkpt lat="43.455601822126305" lon="5.871006399006527"><ele>291.0</ele><time>2026-05-01T11:42:17Z</time></trkpt><trkpt lat="43.4556325219438" lon="5.871103132696909"><ele>291.0</ele><time>2026-05-01T11:42:18Z</time></trkpt><trkpt lat="43.455677497016765" lon="5.871215870468341"><ele>291.0</ele><time>2026-05-01T11:42:19Z</time></trkpt><trkpt lat="43.455720841741844" lon="5.8713260558774545"><ele>291.0</ele><time>2026-05-01T11:42:20Z</time></trkpt><trkpt lat="43.45576171540995" lon="5.871438715306402"><ele>291.0</ele><time>2026-05-01T11:42:21Z</time></trkpt><trkpt lat="43.45579414305432" lon="5.871537730007485"><ele>291.0</ele><time>2026-05-01T11:42:22Z</time></trkpt><trkpt lat="43.455830043186936" lon="5.871646396587469"><ele>291.0</ele><time>2026-05-01T11:42:22.999Z</time></trkpt><trkpt lat="43.455869449214894" lon="5.87176673675617"><ele>291.0</ele><time>2026-05-01T11:42:23.999Z</time></trkpt><trkpt lat="43.45592286559332" lon="5.8719050281506755"><ele>291.0</ele><time>2026-05-01T11:42:24.999Z</time></trkpt><trkpt lat="43.45596804813093" lon="5.872016237096233"><ele>291.0</ele><time>2026-05-01T11:42:25.999Z</time></trkpt><trkpt lat="43.456025290592414" lon="5.872126916864267"><ele>291.0</ele><time>2026-05-01T11:42:26.999Z</time></trkpt><trkpt lat="43.456085519021556" lon="5.87223052837216"><ele>291.0</ele><time>2026-05-01T11:42:27.999Z</time></trkpt><trkpt lat="43.45615658155109" lon="5.872324945542805"><ele>291.0</ele><time>2026-05-01T11:42:28.999Z</time></trkpt><trkpt lat="43.45624834118303" lon="5.872430091402129"><ele>291.0</ele><time>2026-05-01T11:42:29.999Z</time></trkpt><trkpt lat="43.45636496125971" lon="5.872541267231008"><ele>291.0</ele><time>2026-05-01T11:42:30.999Z</time></trkpt><trkpt lat="43.45649799507067" lon="5.872691117796384"><ele>291.0</ele><time>2026-05-01T11:42:31.999Z</time></trkpt><trkpt lat="43.45665733964803" lon="5.8728090761194744"><ele>291.0</ele><time>2026-05-01T11:42:32.999Z</time></trkpt><trkpt lat="43.45680279835755" lon="5.87294102312958"><ele>291.0</ele><time>2026-05-01T11:42:33.999Z</time></trkpt><trkpt lat="43.45695647569842" lon="5.873083265413037"><ele>291.0</ele><time>2026-05-01T11:42:34.999Z</time></trkpt><trkpt lat="43.4571272177478" lon="5.8732345650659745"><ele>290.3333333333333</ele><time>2026-05-01T11:42:35.999Z</time></trkpt><trkpt lat="43.45730327476632" lon="5.873392027867523"><ele>289.66666666666663</ele><time>2026-05-01T11:42:36.999Z</time></trkpt><trkpt lat="43.457459706163036" lon="5.873532281742416"><ele>289.0</ele><time>2026-05-01T11:42:37.999Z</time></trkpt><trkpt lat="43.45760378524044" lon="5.873674878661299"><ele>289.0</ele><time>2026-05-01T11:42:38.999Z</time></trkpt><trkpt lat="43.45772559280507" lon="5.8738307088561434"><ele>289.0</ele><time>2026-05-01T11:42:39.999Z</time></trkpt><trkpt lat="43.45782101683515" lon="5.873999126294935"><ele>289.0</ele><time>2026-05-01T11:42:40.999Z</time></trkpt><trkpt lat="43.45791809421294" lon="5.874173879787298"><ele>289.75</ele><time>2026-05-01T11:42:41.999Z</time></trkpt><trkpt lat="43.45800275847735" lon="5.874320548806744"><ele>290.5</ele><time>2026-05-01T11:42:42.999Z</time></trkpt><trkpt lat="43.4581058367248" lon="5.874467160062286"><ele>291.25</ele><time>2026-05-01T11:42:43.999Z</time></trkpt><trkpt lat="43.45822690410968" lon="5.874608257040957"><ele>292.0</ele><time>2026-05-01T11:42:44.999Z</time></trkpt><trkpt lat="43.458365936174225" lon="5.874754212819899"><ele>292.0</ele><time>2026-05-01T11:42:45.999Z</time></trkpt><trkpt lat="43.458503517567905" lon="5.874902730049133"><ele>292.0</ele><time>2026-05-01T11:42:46.999Z</time></trkpt><trkpt lat="43.45865924807302" lon="5.875067580447922"><ele>292.0</ele><time>2026-05-01T11:42:47.999Z</time></trkpt><trkpt lat="43.458792533153826" lon="5.875222158115101"><ele>292.0</ele><time>2026-05-01T11:42:48.999Z</time></trkpt><trkpt lat="43.4589205163004" lon="5.8753605590033"><ele>292.0</ele><time>2026-05-01T11:42:49.999Z</time></trkpt><trkpt lat="43.45903729899494" lon="5.875491094982648"><ele>292.0</ele><time>2026-05-01T11:42:50.999Z</time></trkpt><trkpt lat="43.45914774321674" lon="5.8756192958098"><ele>292.0</ele><time>2026-05-01T11:42:51.999Z</time></trkpt><trkpt lat="43.459257487804194" lon="5.875743399683612"><ele>292.0</ele><time>2026-05-01T11:42:52.999Z</time></trkpt><trkpt lat="43.4593777227562" lon="5.875872259558744"><ele>292.0</ele><time>2026-05-01T11:42:53.999Z</time></trkpt><trkpt lat="43.45948747882775" lon="5.875983287319017"><ele>292.0</ele><time>2026-05-01T11:42:54.999Z</time></trkpt><trkpt lat="43.459592141569544" lon="5.876088404486367"><ele>293.0</ele><time>2026-05-01T11:42:55.999Z</time></trkpt><trkpt lat="43.45968857162346" lon="5.876172708361134"><ele>294.0</ele><time>2026-05-01T11:42:56.999Z</time></trkpt><trkpt lat="43.45977889937011" lon="5.876242210241254"><ele>295.0</ele><time>2026-05-01T11:42:57.999Z</time></trkpt><trkpt lat="43.459847315373594" lon="5.876282374428988"><ele>296.0</ele><time>2026-05-01T11:42:58.999Z</time></trkpt><trkpt lat="43.45994563733724" lon="5.876331738451609"><ele>297.0</ele><time>2026-05-01T11:43:00.999Z</time></trkpt><trkpt lat="43.4600086601162" lon="5.876341540391859"><ele>297.0</ele><time>2026-05-01T11:43:01.999Z</time></trkpt><trkpt lat="43.46010782530895" lon="5.87637928457831"><ele>297.0</ele><time>2026-05-01T11:43:02.999Z</time></trkpt><trkpt lat="43.46023450801865" lon="5.876407866892501"><ele>297.0</ele><time>2026-05-01T11:43:03.999Z</time></trkpt><trkpt lat="43.460325705909106" lon="5.87646445011326"><ele>297.0</ele><time>2026-05-01T11:43:04.999Z</time></trkpt><trkpt lat="43.46038087585016" lon="5.876563381485472"><ele>297.0</ele><time>2026-05-01T11:43:05.999Z</time></trkpt><trkpt lat="43.46043230109681" lon="5.876704887088186"><ele>297.8</ele><time>2026-05-01T11:43:06.999Z</time></trkpt><trkpt lat="43.46048475125559" lon="5.87685912746474"><ele>298.6</ele><time>2026-05-01T11:43:07.999Z</time></trkpt><trkpt lat="43.46055729804065" lon="5.8769725252505856"><ele>299.40000000000003</ele><time>2026-05-01T11:43:08.999Z</time></trkpt><trkpt lat="43.46059455881637" lon="5.877089470254614"><ele>300.2</ele><time>2026-05-01T11:43:09.999Z</time></trkpt><trkpt lat="43.460636623134995" lon="5.877237935671506"><ele>301.0</ele><time>2026-05-01T11:43:10.999Z</time></trkpt><trkpt lat="43.460679845385215" lon="5.877380285712283"><ele>301.0</ele><time>2026-05-01T11:43:11.999Z</time></trkpt><trkpt lat="43.4607122450257" lon="5.877508020235295"><ele>301.0</ele><time>2026-05-01T11:43:12.999Z</time></trkpt><trkpt lat="43.46074766883745" lon="5.8776216127885474"><ele>301.0</ele><time>2026-05-01T11:43:13.999Z</time></trkpt><trkpt lat="43.46078735399294" lon="5.877729009641307"><ele>301.0</ele><time>2026-05-01T11:43:14.999Z</time></trkpt><trkpt lat="43.4608258312929" lon="5.87782702628574"><ele>301.0</ele><time>2026-05-01T11:43:15.999Z</time></trkpt><trkpt lat="43.46085936206654" lon="5.877916108988616"><ele>301.0</ele><time>2026-05-01T11:43:16.999Z</time></trkpt><trkpt lat="43.46089385569296" lon="5.877998988029175"><ele>301.2</ele><time>2026-05-01T11:43:17.999Z</time></trkpt><trkpt lat="43.46095589043423" lon="5.878148205055805"><ele>301.40000000000003</ele><time>2026-05-01T11:43:19.999Z</time></trkpt><trkpt lat="43.46099177903537" lon="5.87823921641536"><ele>301.6</ele><time>2026-05-01T11:43:20.999Z</time></trkpt><trkpt lat="43.461027899583655" lon="5.878334139903267"><ele>301.8</ele><time>2026-05-01T11:43:21.999Z</time></trkpt><trkpt lat="43.461065488024666" lon="5.878438062290361"><ele>302.0</ele><time>2026-05-01T11:43:22.999Z</time></trkpt><trkpt lat="43.46111381349669" lon="5.878587709611268"><ele>303.0</ele><time>2026-05-01T11:43:23.999Z</time></trkpt><trkpt lat="43.46116040961294" lon="5.87875620053061"><ele>304.0</ele><time>2026-05-01T11:43:24.999Z</time></trkpt><trkpt lat="43.46120482655758" lon="5.878922245882004"><ele>305.0</ele><time>2026-05-01T11:43:25.999Z</time></trkpt><trkpt lat="43.46124660892908" lon="5.879077523553869"><ele>306.0</ele><time>2026-05-01T11:43:26.999Z</time></trkpt><trkpt lat="43.46129051487813" lon="5.879236453634362"><ele>306.25</ele><time>2026-05-01T11:43:27.999Z</time></trkpt><trkpt lat="43.46132791366046" lon="5.879401501999263"><ele>306.5</ele><time>2026-05-01T11:43:28.999Z</time></trkpt><trkpt lat="43.46135870410533" lon="5.879561290692646"><ele>306.75</ele><time>2026-05-01T11:43:29.999Z</time></trkpt><trkpt lat="43.46138831156723" lon="5.879725124372511"><ele>307.0</ele><time>2026-05-01T11:43:30.999Z</time></trkpt><trkpt lat="43.46141947268518" lon="5.879892313457296"><ele>307.0</ele><time>2026-05-01T11:43:31.999Z</time></trkpt><trkpt lat="43.46146431435827" lon="5.88009267426127"><ele>307.0</ele><time>2026-05-01T11:43:32.999Z</time></trkpt><trkpt lat="43.46150510585823" lon="5.880286271412508"><ele>307.0</ele><time>2026-05-01T11:43:33.999Z</time></trkpt><trkpt lat="43.46155185058441" lon="5.880453733454865"><ele>307.0</ele><time>2026-05-01T11:43:34.999Z</time></trkpt><trkpt lat="43.461598182643115" lon="5.880615659826071"><ele>307.75</ele><time>2026-05-01T11:43:35.999Z</time></trkpt><trkpt lat="43.46165585843288" lon="5.880780270372126"><ele>308.5</ele><time>2026-05-01T11:43:36.999Z</time></trkpt><trkpt lat="43.46171919152384" lon="5.880938687563477"><ele>309.25</ele><time>2026-05-01T11:43:37.999Z</time></trkpt><trkpt lat="43.461785566511196" lon="5.881095771061135"><ele>310.0</ele><time>2026-05-01T11:43:38.999Z</time></trkpt><trkpt lat="43.461858220389715" lon="5.881259377832745"><ele>310.0</ele><time>2026-05-01T11:43:39.999Z</time></trkpt><trkpt lat="43.46193507856974" lon="5.881430223169019"><ele>310.0</ele><time>2026-05-01T11:43:40.999Z</time></trkpt><trkpt lat="43.46200602501678" lon="5.881581771253883"><ele>310.0</ele><time>2026-05-01T11:43:41.999Z</time></trkpt><trkpt lat="43.46207634075004" lon="5.88172079785922"><ele>310.0</ele><time>2026-05-01T11:43:42.999Z</time></trkpt><trkpt lat="43.46215060695126" lon="5.881839819911953"><ele>310.6</ele><time>2026-05-01T11:43:43.999Z</time></trkpt><trkpt lat="43.462235171894925" lon="5.8819443194201355"><ele>311.2</ele><time>2026-05-01T11:43:44.999Z</time></trkpt><trkpt lat="43.46231643376038" lon="5.882040721772151"><ele>311.8</ele><time>2026-05-01T11:43:45.999Z</time></trkpt><trkpt lat="43.462389644569804" lon="5.882134766630484"><ele>312.4</ele><time>2026-05-01T11:43:46.999Z</time></trkpt><trkpt lat="43.46245458783865" lon="5.882228761397877"><ele>313.0</ele><time>2026-05-01T11:43:47.999Z</time></trkpt><trkpt lat="43.46252084440134" lon="5.882304869367192"><ele>313.0</ele><time>2026-05-01T11:43:48.999Z</time></trkpt><trkpt lat="43.46256451482945" lon="5.882402778532054"><ele>313.0</ele><time>2026-05-01T11:43:49.999Z</time></trkpt><trkpt lat="43.46262913205398" lon="5.882493442556773"><ele>313.0</ele><time>2026-05-01T11:43:50.999Z</time></trkpt><trkpt lat="43.46270968046089" lon="5.882590250860485"><ele>313.0</ele><time>2026-05-01T11:43:51.999Z</time></trkpt><trkpt lat="43.462789995745695" lon="5.882674092764218"><ele>313.0</ele><time>2026-05-01T11:43:52.999Z</time></trkpt><trkpt lat="43.46292698620276" lon="5.882661177058627"><ele>314.6</ele><time>2026-05-01T11:43:53.999Z</time></trkpt><trkpt lat="43.463016369788356" lon="5.882739203723292"><ele>316.20000000000005</ele><time>2026-05-01T11:43:54.999Z</time></trkpt><trkpt lat="43.46310855841012" lon="5.882806989629898"><ele>317.8</ele><time>2026-05-01T11:43:55.999Z</time></trkpt><trkpt lat="43.46320724075606" lon="5.882863214335891"><ele>319.40000000000003</ele><time>2026-05-01T11:43:56.999Z</time></trkpt><trkpt lat="43.46330938833706" lon="5.882906425599171"><ele>321.0</ele><time>2026-05-01T11:43:57.999Z</time></trkpt><trkpt lat="43.46340849284666" lon="5.882978032355646"><ele>321.0</ele><time>2026-05-01T11:43:58.999Z</time></trkpt><trkpt lat="43.463532498674816" lon="5.883052999738807"><ele>321.0</ele><time>2026-05-01T11:43:59.999Z</time></trkpt><trkpt lat="43.463667630921734" lon="5.8831301309515736"><ele>321.0</ele><time>2026-05-01T11:44:00.999Z</time></trkpt><trkpt lat="43.46381743929721" lon="5.883237990705402"><ele>321.3333333333333</ele><time>2026-05-01T11:44:01.999Z</time></trkpt><trkpt lat="43.46396170354479" lon="5.883337599825442"><ele>321.66666666666663</ele><time>2026-05-01T11:44:02.999Z</time></trkpt><trkpt lat="43.46411169415429" lon="5.883443366784721"><ele>322.0</ele><time>2026-05-01T11:44:03.999Z</time></trkpt><trkpt lat="43.464255949071394" lon="5.883557446078764"><ele>322.75</ele><time>2026-05-01T11:44:04.999Z</time></trkpt><trkpt lat="43.46438229633313" lon="5.883675174809127"><ele>323.5</ele><time>2026-05-01T11:44:05.999Z</time></trkpt><trkpt lat="43.464478759151646" lon="5.883808529294131"><ele>324.25</ele><time>2026-05-01T11:44:06.999Z</time></trkpt><trkpt lat="43.464562458825576" lon="5.883961848812904"><ele>325.0</ele><time>2026-05-01T11:44:07.999Z</time></trkpt><trkpt lat="43.464641363100405" lon="5.884141819894946"><ele>324.66666666666663</ele><time>2026-05-01T11:44:08.999Z</time></trkpt><trkpt lat="43.46472773244312" lon="5.884320146258437"><ele>324.3333333333333</ele><time>2026-05-01T11:44:09.999Z</time></trkpt><trkpt lat="43.464839883983444" lon="5.8845039726826025"><ele>324.0</ele><time>2026-05-01T11:44:10.999Z</time></trkpt><trkpt lat="43.464952274452955" lon="5.884666552655546"><ele>324.0</ele><time>2026-05-01T11:44:11.999Z</time></trkpt><trkpt lat="43.46507037941507" lon="5.8848219115282365"><ele>324.0</ele><time>2026-05-01T11:44:12.999Z</time></trkpt><trkpt lat="43.46517409378814" lon="5.884949912800614"><ele>324.0</ele><time>2026-05-01T11:44:13.999Z</time></trkpt><trkpt lat="43.46526107453932" lon="5.88508286986613"><ele>324.0</ele><time>2026-05-01T11:44:14.999Z</time></trkpt><trkpt lat="43.46534666689675" lon="5.885208358321269"><ele>324.3333333333333</ele><time>2026-05-01T11:44:15.999Z</time></trkpt><trkpt lat="43.465443815398345" lon="5.88535429153145"><ele>324.66666666666663</ele><time>2026-05-01T11:44:16.999Z</time></trkpt><trkpt lat="43.46554892108751" lon="5.885511851329863"><ele>325.0</ele><time>2026-05-01T11:44:17.999Z</time></trkpt><trkpt lat="43.46566277053128" lon="5.885677250726277"><ele>327.3333333333333</ele><time>2026-05-01T11:44:18.999Z</time></trkpt><trkpt lat="43.46576810084556" lon="5.88584112277674"><ele>329.6666666666667</ele><time>2026-05-01T11:44:19.999Z</time></trkpt><trkpt lat="43.46586854267958" lon="5.886032590472494"><ele>332.0</ele><time>2026-05-01T11:44:20.999Z</time></trkpt><trkpt lat="43.465962905589045" lon="5.886227285570061"><ele>332.6666666666667</ele><time>2026-05-01T11:44:21.999Z</time></trkpt><trkpt lat="43.46606057449589" lon="5.886415893455323"><ele>333.3333333333333</ele><time>2026-05-01T11:44:22.999Z</time></trkpt><trkpt lat="43.46615720760326" lon="5.88659261241699"><ele>334.0</ele><time>2026-05-01T11:44:23.999Z</time></trkpt><trkpt lat="43.46625185070943" lon="5.8867759049724135"><ele>336.66666666666663</ele><time>2026-05-01T11:44:24.999Z</time></trkpt><trkpt lat="43.46635100927809" lon="5.886972936234888"><ele>339.3333333333333</ele><time>2026-05-01T11:44:25.999Z</time></trkpt><trkpt lat="43.466444454845636" lon="5.887165458992594"><ele>342.0</ele><time>2026-05-01T11:44:26.999Z</time></trkpt><trkpt lat="43.466540795954806" lon="5.8873617240389216"><ele>342.0</ele><time>2026-05-01T11:44:27.999Z</time></trkpt><trkpt lat="43.4666270606269" lon="5.887541254346158"><ele>342.0</ele><time>2026-05-01T11:44:28.999Z</time></trkpt><trkpt lat="43.46670871114107" lon="5.887717249888104"><ele>342.0</ele><time>2026-05-01T11:44:29.999Z</time></trkpt><trkpt lat="43.466785742232084" lon="5.887886992903423"><ele>342.3333333333333</ele><time>2026-05-01T11:44:30.999Z</time></trkpt><trkpt lat="43.466864514034945" lon="5.888051917819725"><ele>342.66666666666663</ele><time>2026-05-01T11:44:31.999Z</time></trkpt><trkpt lat="43.466968120098784" lon="5.888249793778466"><ele>343.0</ele><time>2026-05-01T11:44:32.999Z</time></trkpt><trkpt lat="43.467063168657766" lon="5.888436047903075"><ele>344.5</ele><time>2026-05-01T11:44:33.999Z</time></trkpt><trkpt lat="43.46714516060071" lon="5.888613728777567"><ele>346.0</ele><time>2026-05-01T11:44:34.999Z</time></trkpt><trkpt lat="43.4672082109964" lon="5.888794498588621"><ele>347.5</ele><time>2026-05-01T11:44:35.999Z</time></trkpt><trkpt lat="43.46725621298205" lon="5.888989557004693"><ele>349.0</ele><time>2026-05-01T11:44:36.999Z</time></trkpt><trkpt lat="43.467297646635366" lon="5.889194817114142"><ele>350.3333333333333</ele><time>2026-05-01T11:44:37.999Z</time></trkpt><trkpt lat="43.46735480884897" lon="5.889393364815785"><ele>351.6666666666667</ele><time>2026-05-01T11:44:38.999Z</time></trkpt><trkpt lat="43.46743633867481" lon="5.889601020993622"><ele>353.0</ele><time>2026-05-01T11:44:39.999Z</time></trkpt><trkpt lat="43.46753469918747" lon="5.889789765620146"><ele>353.0</ele><time>2026-05-01T11:44:40.999Z</time></trkpt><trkpt lat="43.46763183571399" lon="5.889970964588719"><ele>353.0</ele><time>2026-05-01T11:44:41.999Z</time></trkpt><trkpt lat="43.46771294203519" lon="5.89013072859995"><ele>353.0</ele><time>2026-05-01T11:44:42.999Z</time></trkpt><trkpt lat="43.467788602051826" lon="5.890304979383735"><ele>354.33333333333337</ele><time>2026-05-01T11:44:43.999Z</time></trkpt><trkpt lat="43.467869178732144" lon="5.890495611064706"><ele>355.6666666666667</ele><time>2026-05-01T11:44:44.999Z</time></trkpt><trkpt lat="43.46794666615372" lon="5.890677766756464"><ele>357.0</ele><time>2026-05-01T11:44:45.999Z</time></trkpt><trkpt lat="43.46804109273579" lon="5.890852127420034"><ele>356.6666666666667</ele><time>2026-05-01T11:44:46.999Z</time></trkpt><trkpt lat="43.468146333251234" lon="5.891020581156156"><ele>356.33333333333337</ele><time>2026-05-01T11:44:47.999Z</time></trkpt><trkpt lat="43.46824598979906" lon="5.8911981902631245"><ele>356.0</ele><time>2026-05-01T11:44:48.999Z</time></trkpt><trkpt lat="43.468321210109025" lon="5.891369435838338"><ele>356.0</ele><time>2026-05-01T11:44:49.999Z</time></trkpt><trkpt lat="43.46837765879429" lon="5.891528677140885"><ele>356.0</ele><time>2026-05-01T11:44:50.999Z</time></trkpt><trkpt lat="43.468429015394676" lon="5.891676530589829"><ele>356.0</ele><time>2026-05-01T11:44:51.999Z</time></trkpt><trkpt lat="43.468475449901675" lon="5.89180354227572"><ele>356.0</ele><time>2026-05-01T11:44:52.999Z</time></trkpt><trkpt lat="43.46852835630257" lon="5.891925090850971"><ele>356.25</ele><time>2026-05-01T11:44:53.999Z</time></trkpt><trkpt lat="43.468595048413775" lon="5.892045759061803"><ele>356.5</ele><time>2026-05-01T11:44:54.999Z</time></trkpt><trkpt lat="43.46867534902827" lon="5.892182630741191"><ele>356.75</ele><time>2026-05-01T11:44:55.999Z</time></trkpt><trkpt lat="43.46876208026792" lon="5.892322529392446"><ele>357.0</ele><time>2026-05-01T11:44:56.999Z</time></trkpt><trkpt lat="43.46886415996105" lon="5.892450283454591"><ele>357.3333333333333</ele><time>2026-05-01T11:44:57.999Z</time></trkpt><trkpt lat="43.46899123126581" lon="5.89256377972185"><ele>357.66666666666663</ele><time>2026-05-01T11:44:58.999Z</time></trkpt><trkpt lat="43.469129682927026" lon="5.892688535224434"><ele>358.0</ele><time>2026-05-01T11:44:59.999Z</time></trkpt><trkpt lat="43.46923438654083" lon="5.892841435677673"><ele>358.25</ele><time>2026-05-01T11:45:00.999Z</time></trkpt><trkpt lat="43.469343759102344" lon="5.892953011511251"><ele>358.5</ele><time>2026-05-01T11:45:01.999Z</time></trkpt><trkpt lat="43.46942878920369" lon="5.893085006862343"><ele>358.75</ele><time>2026-05-01T11:45:02.999Z</time></trkpt><trkpt lat="43.46951896848008" lon="5.893217461164391"><ele>359.0</ele><time>2026-05-01T11:45:03.999Z</time></trkpt><trkpt lat="43.46961578823611" lon="5.893362327797872"><ele>358.75</ele><time>2026-05-01T11:45:04.999Z</time></trkpt><trkpt lat="43.46970939583029" lon="5.8935042661711465"><ele>358.5</ele><time>2026-05-01T11:45:05.999Z</time></trkpt><trkpt lat="43.46979309743244" lon="5.89362585670746"><ele>358.25</ele><time>2026-05-01T11:45:06.999Z</time></trkpt><trkpt lat="43.469877577781915" lon="5.893729397785723"><ele>358.0</ele><time>2026-05-01T11:45:07.999Z</time></trkpt><trkpt lat="43.46994925473155" lon="5.893839809725574"><ele>358.0</ele><time>2026-05-01T11:45:08.999Z</time></trkpt><trkpt lat="43.4700056629391" lon="5.893960719483719"><ele>358.0</ele><time>2026-05-01T11:45:09.999Z</time></trkpt><trkpt lat="43.47006114851561" lon="5.894080450578686"><ele>358.0</ele><time>2026-05-01T11:45:10.999Z</time></trkpt><trkpt lat="43.470114971716356" lon="5.894191993362151"><ele>358.0</ele><time>2026-05-01T11:45:11.999Z</time></trkpt><trkpt lat="43.47016728152797" lon="5.894297002157321"><ele>358.0</ele><time>2026-05-01T11:45:12.999Z</time></trkpt><trkpt lat="43.470214762466355" lon="5.894389689450851"><ele>357.79999999999995</ele><time>2026-05-01T11:45:13.999Z</time></trkpt><trkpt lat="43.4702578328919" lon="5.8945162540807985"><ele>357.6</ele><time>2026-05-01T11:45:15.999Z</time></trkpt><trkpt lat="43.47040021262095" lon="5.894436446379167"><ele>357.4</ele><time>2026-05-01T11:45:19.999Z</time></trkpt><trkpt lat="43.470463718353216" lon="5.894402588938797"><ele>357.20000000000005</ele><time>2026-05-01T11:45:20.999Z</time></trkpt><trkpt lat="43.470536724338075" lon="5.894377632536065"><ele>357.0</ele><time>2026-05-01T11:45:21.999Z</time></trkpt><trkpt lat="43.47060180188734" lon="5.894365368851955"><ele>358.6</ele><time>2026-05-01T11:45:22.999Z</time></trkpt><trkpt lat="43.47067104824689" lon="5.8943184969630815"><ele>360.20000000000005</ele><time>2026-05-01T11:45:23.999Z</time></trkpt><trkpt lat="43.4707401571028" lon="5.8943005898090695"><ele>361.8</ele><time>2026-05-01T11:45:24.999Z</time></trkpt><trkpt lat="43.470795759625936" lon="5.894219578440029"><ele>363.4</ele><time>2026-05-01T11:45:25.999Z</time></trkpt><trkpt lat="43.47089425362307" lon="5.8941936723377895"><ele>365.0</ele><time>2026-05-01T11:45:26.999Z</time></trkpt><trkpt lat="43.47101770492883" lon="5.894175899231872"><ele>365.25</ele><time>2026-05-01T11:45:27.999Z</time></trkpt><trkpt lat="43.47113314151565" lon="5.8941393397444735"><ele>365.5</ele><time>2026-05-01T11:45:28.999Z</time></trkpt><trkpt lat="43.47124876988367" lon="5.894094566685735"><ele>365.75</ele><time>2026-05-01T11:45:29.999Z</time></trkpt><trkpt lat="43.471403261535364" lon="5.894034676892065"><ele>366.0</ele><time>2026-05-01T11:45:30.999Z</time></trkpt><trkpt lat="43.4715343028442" lon="5.893991536099301"><ele>369.0</ele><time>2026-05-01T11:45:31.999Z</time></trkpt><trkpt lat="43.4716492688517" lon="5.893944558670737"><ele>372.0</ele><time>2026-05-01T11:45:32.999Z</time></trkpt><trkpt lat="43.471773701167976" lon="5.893887796558267"><ele>375.0</ele><time>2026-05-01T11:45:33.999Z</time></trkpt><trkpt lat="43.47189074691429" lon="5.893851483795165"><ele>378.0</ele><time>2026-05-01T11:45:34.999Z</time></trkpt><trkpt lat="43.47198160023279" lon="5.893821480891875"><ele>378.0</ele><time>2026-05-01T11:45:35.999Z</time></trkpt><trkpt lat="43.47204923932397" lon="5.893841254879687"><ele>378.0</ele><time>2026-05-01T11:45:36.999Z</time></trkpt><trkpt lat="43.47212203947858" lon="5.893914365821046"><ele>378.0</ele><time>2026-05-01T11:45:37.999Z</time></trkpt><trkpt lat="43.47218683329244" lon="5.8940038421361045"><ele>378.0</ele><time>2026-05-01T11:45:38.999Z</time></trkpt><trkpt lat="43.47225455818395" lon="5.89402601203229"><ele>378.0</ele><time>2026-05-01T11:45:39.999Z</time></trkpt><trkpt lat="43.47231697951821" lon="5.893991519383248"><ele>378.0</ele><time>2026-05-01T11:45:40.999Z</time></trkpt><trkpt lat="43.47236364633278" lon="5.893910174367982"><ele>378.25</ele><time>2026-05-01T11:45:41.999Z</time></trkpt><trkpt lat="43.472397427445586" lon="5.8937821718337675"><ele>378.5</ele><time>2026-05-01T11:45:42.999Z</time></trkpt><trkpt lat="43.472455485658784" lon="5.893659838003785"><ele>378.75</ele><time>2026-05-01T11:45:43.999Z</time></trkpt><trkpt lat="43.47255758662831" lon="5.893556446582825"><ele>379.0</ele><time>2026-05-01T11:45:44.999Z</time></trkpt><trkpt lat="43.47269193747665" lon="5.893497042960752"><ele>379.0</ele><time>2026-05-01T11:45:45.999Z</time></trkpt><trkpt lat="43.472836781010066" lon="5.893447219369527"><ele>379.0</ele><time>2026-05-01T11:45:46.999Z</time></trkpt><trkpt lat="43.473006639735345" lon="5.893390013550168"><ele>379.0</ele><time>2026-05-01T11:45:47.999Z</time></trkpt><trkpt lat="43.473163560871306" lon="5.893334876205688"><ele>378.0</ele><time>2026-05-01T11:45:48.999Z</time></trkpt><trkpt lat="43.47329977248786" lon="5.893268516350738"><ele>377.0</ele><time>2026-05-01T11:45:49.999Z</time></trkpt><trkpt lat="43.473429409975246" lon="5.893194565822148"><ele>376.0</ele><time>2026-05-01T11:45:50.999Z</time></trkpt><trkpt lat="43.473547602715335" lon="5.893134844599616"><ele>375.0</ele><time>2026-05-01T11:45:51.999Z</time></trkpt><trkpt lat="43.47367006366228" lon="5.893087094452461"><ele>374.5</ele><time>2026-05-01T11:45:52.999Z</time></trkpt><trkpt lat="43.47379313061068" lon="5.893031922596311"><ele>374.0</ele><time>2026-05-01T11:45:53.999Z</time></trkpt><trkpt lat="43.47390575114821" lon="5.8929578150737925"><ele>373.5</ele><time>2026-05-01T11:45:54.999Z</time></trkpt><trkpt lat="43.47403408441269" lon="5.89287643695859"><ele>373.0</ele><time>2026-05-01T11:45:55.999Z</time></trkpt><trkpt lat="43.47418231160651" lon="5.892815824650184"><ele>373.0</ele><time>2026-05-01T11:45:56.999Z</time></trkpt><trkpt lat="43.47431548535657" lon="5.8927649360935375"><ele>373.0</ele><time>2026-05-01T11:45:57.999Z</time></trkpt><trkpt lat="43.47443869737672" lon="5.892701398672644"><ele>373.0</ele><time>2026-05-01T11:45:58.999Z</time></trkpt><trkpt lat="43.47455603929259" lon="5.892638121844461"><ele>373.0</ele><time>2026-05-01T11:45:59.999Z</time></trkpt><trkpt lat="43.474664733019715" lon="5.892587609617964"><ele>371.4</ele><time>2026-05-01T11:46:00.999Z</time></trkpt><trkpt lat="43.47476278311164" lon="5.892539287717389"><ele>369.79999999999995</ele><time>2026-05-01T11:46:01.999Z</time></trkpt><trkpt lat="43.47485406846901" lon="5.892492095135087"><ele>368.2</ele><time>2026-05-01T11:46:02.999Z</time></trkpt><trkpt lat="43.47495568150664" lon="5.89244363152592"><ele>366.6</ele><time>2026-05-01T11:46:03.999Z</time></trkpt><trkpt lat="43.4750461746554" lon="5.892390647842239"><ele>365.0</ele><time>2026-05-01T11:46:04.999Z</time></trkpt><trkpt lat="43.47512999255777" lon="5.892336820534574"><ele>365.0</ele><time>2026-05-01T11:46:05.999Z</time></trkpt><trkpt lat="43.475233876192505" lon="5.892279365602813"><ele>365.0</ele><time>2026-05-01T11:46:06.999Z</time></trkpt><trkpt lat="43.47532865227474" lon="5.892233727386458"><ele>365.0</ele><time>2026-05-01T11:46:07.999Z</time></trkpt><trkpt lat="43.47545293465396" lon="5.892174036172374"><ele>365.0</ele><time>2026-05-01T11:46:08.999Z</time></trkpt><trkpt lat="43.475559800055336" lon="5.892121047054322"><ele>364.1666666666667</ele><time>2026-05-01T11:46:09.999Z</time></trkpt><trkpt lat="43.47566045765366" lon="5.8920765010359535"><ele>363.33333333333337</ele><time>2026-05-01T11:46:10.999Z</time></trkpt><trkpt lat="43.47573845171869" lon="5.892035762718101"><ele>362.5</ele><time>2026-05-01T11:46:11.999Z</time></trkpt><trkpt lat="43.4758193875601" lon="5.891994938885424"><ele>361.6666666666667</ele><time>2026-05-01T11:46:12.999Z</time></trkpt><trkpt lat="43.47588844854134" lon="5.891953730905127"><ele>360.8333333333333</ele><time>2026-05-01T11:46:13.999Z</time></trkpt><trkpt lat="43.475969914591786" lon="5.891937562494181"><ele>360.0</ele><time>2026-05-01T11:46:15.999Z</time></trkpt><trkpt lat="43.47594592833378" lon="5.8920212557839395"><ele>360.0</ele><time>2026-05-01T11:46:19.999Z</time></trkpt><trkpt lat="43.47591684549203" lon="5.892103378848449"><ele>360.0</ele><time>2026-05-01T11:46:30.999Z</time></trkpt><trkpt lat="43.475850957256604" lon="5.892217132951921"><ele>360.0</ele><time>2026-05-01T11:46:32.999Z</time></trkpt><trkpt lat="43.47582182186387" lon="5.892317759308275"><ele>360.0</ele><time>2026-05-01T11:46:33.999Z</time></trkpt><trkpt lat="43.4758540916109" lon="5.89244162631936"><ele>360.0</ele><time>2026-05-01T11:46:35.999Z</time></trkpt><trkpt lat="43.475879470973965" lon="5.892577628741967"><ele>360.0</ele><time>2026-05-01T11:46:38.999Z</time></trkpt><trkpt lat="43.475884258892314" lon="5.892738662985075"><ele>360.4</ele><time>2026-05-01T11:46:41.999Z</time></trkpt><trkpt lat="43.4758851665085" lon="5.892843357551021"><ele>360.8</ele><time>2026-05-01T11:46:42.999Z</time></trkpt><trkpt lat="43.47590327992796" lon="5.892947889094807"><ele>361.20000000000005</ele><time>2026-05-01T11:46:43.999Z</time></trkpt><trkpt lat="43.47587447899745" lon="5.89316883967412"><ele>361.6</ele><time>2026-05-01T11:46:45.999Z</time></trkpt><trkpt lat="43.475842168259526" lon="5.893291332314931"><ele>362.0</ele><time>2026-05-01T11:46:46.999Z</time></trkpt><trkpt lat="43.475779220647965" lon="5.893414486718028"><ele>363.0</ele><time>2026-05-01T11:46:47.999Z</time></trkpt><trkpt lat="43.47570732958568" lon="5.8935708112497345"><ele>364.0</ele><time>2026-05-01T11:46:48.999Z</time></trkpt><trkpt lat="43.47564225212776" lon="5.893703056394493"><ele>365.0</ele><time>2026-05-01T11:46:49.999Z</time></trkpt><trkpt lat="43.47559746578263" lon="5.893803776380102"><ele>366.0</ele><time>2026-05-01T11:46:50.999Z</time></trkpt><trkpt lat="43.475556402736785" lon="5.893931225212448"><ele>367.0</ele><time>2026-05-01T11:46:51.999Z</time></trkpt><trkpt lat="43.47548378422199" lon="5.894082826082429"><ele>367.5</ele><time>2026-05-01T11:46:52.999Z</time></trkpt><trkpt lat="43.475435165096776" lon="5.894189022862515"><ele>368.0</ele><time>2026-05-01T11:46:53.999Z</time></trkpt><trkpt lat="43.475417822921194" lon="5.8942795705122935"><ele>368.5</ele><time>2026-05-01T11:46:54.999Z</time></trkpt><trkpt lat="43.475389472246775" lon="5.89435942121139"><ele>369.0</ele><time>2026-05-01T11:46:55.999Z</time></trkpt><trkpt lat="43.4753042972531" lon="5.894472948314959"><ele>369.5</ele><time>2026-05-01T11:46:57.999Z</time></trkpt><trkpt lat="43.47527948564328" lon="5.894574708097401"><ele>370.0</ele><time>2026-05-01T11:46:58.999Z</time></trkpt><trkpt lat="43.475253388995895" lon="5.894712504234379"><ele>370.0</ele><time>2026-05-01T11:46:59.999Z</time></trkpt><trkpt lat="43.47521198509897" lon="5.894821634793522"><ele>370.0</ele><time>2026-05-01T11:47:00.999Z</time></trkpt><trkpt lat="43.47516433832196" lon="5.8948998821517185"><ele>370.0</ele><time>2026-05-01T11:47:01.999Z</time></trkpt><trkpt lat="43.475087895586576" lon="5.894986610964556"><ele>370.0</ele><time>2026-05-01T11:47:02.999Z</time></trkpt><trkpt lat="43.47503433602687" lon="5.895072555320588"><ele>370.0</ele><time>2026-05-01T11:47:03.999Z</time></trkpt><trkpt lat="43.47499866705155" lon="5.895148063903271"><ele>370.0</ele><time>2026-05-01T11:47:04.999Z</time></trkpt><trkpt lat="43.474981910241596" lon="5.895297188404475"><ele>370.4</ele><time>2026-05-01T11:47:06.999Z</time></trkpt><trkpt lat="43.47497844620386" lon="5.895390739022746"><ele>370.8</ele><time>2026-05-01T11:47:07.999Z</time></trkpt><trkpt lat="43.47504499657145" lon="5.895520260540709"><ele>371.20000000000005</ele><time>2026-05-01T11:47:09.999Z</time></trkpt><trkpt lat="43.47516126793656" lon="5.895588095091197"><ele>371.6</ele><time>2026-05-01T11:47:11.999Z</time></trkpt><trkpt lat="43.475214390684734" lon="5.895663940027864"><ele>372.0</ele><time>2026-05-01T11:47:12.999Z</time></trkpt><trkpt lat="43.47527226108332" lon="5.895754170765282"><ele>372.0</ele><time>2026-05-01T11:47:14.999Z</time></trkpt><trkpt lat="43.47534273835276" lon="5.895663426353762"><ele>372.0</ele><time>2026-05-01T11:47:26.999Z</time></trkpt><trkpt lat="43.47545293030255" lon="5.8956027703630385"><ele>372.0</ele><time>2026-05-01T11:47:28.999Z</time></trkpt><trkpt lat="43.47554133787861" lon="5.895615099297908"><ele>372.0</ele><time>2026-05-01T11:47:29.999Z</time></trkpt><trkpt lat="43.47564943464453" lon="5.895487491911225"><ele>372.0</ele><time>2026-05-01T11:47:31.999Z</time></trkpt><trkpt lat="43.47569498698419" lon="5.895415698422613"><ele>371.8333333333333</ele><time>2026-05-01T11:47:32.999Z</time></trkpt><trkpt lat="43.475731919533445" lon="5.895341557097"><ele>371.6666666666667</ele><time>2026-05-01T11:47:33.999Z</time></trkpt><trkpt lat="43.47574009216304" lon="5.895226784709864"><ele>371.5</ele><time>2026-05-01T11:47:34.999Z</time></trkpt><trkpt lat="43.475762366661634" lon="5.895134627678921"><ele>371.33333333333337</ele><time>2026-05-01T11:47:35.999Z</time></trkpt><trkpt lat="43.475816976129074" lon="5.895074829949853"><ele>371.1666666666667</ele><time>2026-05-01T11:47:36.999Z</time></trkpt><trkpt lat="43.47591071385545" lon="5.895005926847173"><ele>371.0</ele><time>2026-05-01T11:47:37.999Z</time></trkpt><trkpt lat="43.47604867913016" lon="5.894917212096361"><ele>371.0</ele><time>2026-05-01T11:47:38.999Z</time></trkpt><trkpt lat="43.4761459194356" lon="5.894844095886342"><ele>371.0</ele><time>2026-05-01T11:47:39.999Z</time></trkpt><trkpt lat="43.47621709507044" lon="5.894766355192513"><ele>371.0</ele><time>2026-05-01T11:47:40.999Z</time></trkpt><trkpt lat="43.47630138566844" lon="5.894659056599386"><ele>371.0</ele><time>2026-05-01T11:47:41.999Z</time></trkpt><trkpt lat="43.47636020498061" lon="5.8945866393819335"><ele>371.0</ele><time>2026-05-01T11:47:42.999Z</time></trkpt><trkpt lat="43.47641569717258" lon="5.894516678619193"><ele>371.0</ele><time>2026-05-01T11:47:43.999Z</time></trkpt><trkpt lat="43.47652224498406" lon="5.894459393594116"><ele>371.0</ele><time>2026-05-01T11:47:45.999Z</time></trkpt><trkpt lat="43.47657934618854" lon="5.894420449146675"><ele>371.0</ele><time>2026-05-01T11:47:46.999Z</time></trkpt><trkpt lat="43.47665190344234" lon="5.894333608961407"><ele>371.0</ele><time>2026-05-01T11:47:48.999Z</time></trkpt><trkpt lat="43.47675916315154" lon="5.894295301876586"><ele>371.0</ele><time>2026-05-01T11:47:50.999Z</time></trkpt><trkpt lat="43.476790461090594" lon="5.894143077382134"><ele>371.0</ele><time>2026-05-01T11:47:52.999Z</time></trkpt><trkpt lat="43.476800434996754" lon="5.89405676833354"><ele>371.0</ele><time>2026-05-01T11:47:53.999Z</time></trkpt><trkpt lat="43.476893053359255" lon="5.893942306993783"><ele>371.0</ele><time>2026-05-01T11:47:55.999Z</time></trkpt><trkpt lat="43.47694022051586" lon="5.893849614351808"><ele>371.0</ele><time>2026-05-01T11:47:56.999Z</time></trkpt><trkpt lat="43.47695541186844" lon="5.893764379588529"><ele>371.0</ele><time>2026-05-01T11:47:57.999Z</time></trkpt><trkpt lat="43.47702795017685" lon="5.893726083219097"><ele>371.0</ele><time>2026-05-01T11:47:59.999Z</time></trkpt><trkpt lat="43.47707348454291" lon="5.893809460600674"><ele>371.0</ele><time>2026-05-01T11:48:09.999Z</time></trkpt><trkpt lat="43.47712724429855" lon="5.893940937922835"><ele>371.0</ele><time>2026-05-01T11:48:12.999Z</time></trkpt><trkpt lat="43.47718351516917" lon="5.893980023254201"><ele>371.0</ele><time>2026-05-01T11:48:15.999Z</time></trkpt><trkpt lat="43.47724354307534" lon="5.8939379243591"><ele>371.0</ele><time>2026-05-01T11:48:17.999Z</time></trkpt><trkpt lat="43.4772831212941" lon="5.894014488992399"><ele>371.0</ele><time>2026-05-01T11:48:20.999Z</time></trkpt><trkpt lat="43.47733543204179" lon="5.894118756685239"><ele>371.0</ele><time>2026-05-01T11:48:25.999Z</time></trkpt><trkpt lat="43.47742048025364" lon="5.89427293945154"><ele>370.20000000000005</ele><time>2026-05-01T11:48:27.999Z</time></trkpt><trkpt lat="43.477459442039674" lon="5.894382940467789"><ele>369.40000000000003</ele><time>2026-05-01T11:48:29.999Z</time></trkpt><trkpt lat="43.47743269183258" lon="5.89449006185057"><ele>368.6</ele><time>2026-05-01T11:48:32.999Z</time></trkpt><trkpt lat="43.47746975820298" lon="5.894560502053336"><ele>367.8</ele><time>2026-05-01T11:48:34.999Z</time></trkpt><trkpt lat="43.47754747442551" lon="5.894647969919692"><ele>367.0</ele><time>2026-05-01T11:48:36.999Z</time></trkpt><trkpt lat="43.47767369305131" lon="5.8946429102665805"><ele>367.0</ele><time>2026-05-01T11:48:39.999Z</time></trkpt><trkpt lat="43.47775611553566" lon="5.89465170670903"><ele>367.0</ele><time>2026-05-01T11:48:41.999Z</time></trkpt><trkpt lat="43.47775254931778" lon="5.894751889732377"><ele>367.0</ele><time>2026-05-01T11:48:45.999Z</time></trkpt><trkpt lat="43.47772086390639" lon="5.894854634794656"><ele>367.0</ele><time>2026-05-01T11:48:48.999Z</time></trkpt><trkpt lat="43.477772590758605" lon="5.894918454673443"><ele>367.0</ele><time>2026-05-01T11:48:50.999Z</time></trkpt><trkpt lat="43.47782539077778" lon="5.894974544569801"><ele>367.0</ele><time>2026-05-01T11:48:53.999Z</time></trkpt><trkpt lat="43.47789393792961" lon="5.89499937085589"><ele>367.0</ele><time>2026-05-01T11:48:55.999Z</time></trkpt><trkpt lat="43.47796351332557" lon="5.895011289347213"><ele>365.0</ele><time>2026-05-01T11:48:57.999Z</time></trkpt><trkpt lat="43.478062819902995" lon="5.894974259246157"><ele>363.0</ele><time>2026-05-01T11:48:59.999Z</time></trkpt><trkpt lat="43.478132456730926" lon="5.894995830709579"><ele>361.0</ele><time>2026-05-01T11:49:01.999Z</time></trkpt><trkpt lat="43.478232318430614" lon="5.8949699923975585"><ele>359.0</ele><time>2026-05-01T11:49:03.999Z</time></trkpt><trkpt lat="43.478319174511704" lon="5.894921274995138"><ele>357.0</ele><time>2026-05-01T11:49:05.999Z</time></trkpt><trkpt lat="43.47839829272369" lon="5.894876665685053"><ele>357.0</ele><time>2026-05-01T11:49:07.999Z</time></trkpt><trkpt lat="43.47851661695095" lon="5.8948577175569765"><ele>357.0</ele><time>2026-05-01T11:49:09.999Z</time></trkpt><trkpt lat="43.4786150542618" lon="5.894841088462892"><ele>357.0</ele><time>2026-05-01T11:49:11.999Z</time></trkpt><trkpt lat="43.47872513383903" lon="5.89483287345863"><ele>357.0</ele><time>2026-05-01T11:49:13.999Z</time></trkpt><trkpt lat="43.47879799491538" lon="5.894768433800495"><ele>357.0</ele><time>2026-05-01T11:49:15.999Z</time></trkpt><trkpt lat="43.478866632393284" lon="5.894727625019595"><ele>355.20000000000005</ele><time>2026-05-01T11:49:17.999Z</time></trkpt><trkpt lat="43.47894515315137" lon="5.89478616852243"><ele>353.4</ele><time>2026-05-01T11:49:20.999Z</time></trkpt><trkpt lat="43.47906674501928" lon="5.894774559509699"><ele>351.6</ele><time>2026-05-01T11:49:22.999Z</time></trkpt><trkpt lat="43.47919572845492" lon="5.8947633603713845"><ele>349.79999999999995</ele><time>2026-05-01T11:49:24.999Z</time></trkpt><trkpt lat="43.47929134430299" lon="5.894735599234833"><ele>348.0</ele><time>2026-05-01T11:49:26.999Z</time></trkpt><trkpt lat="43.47935840166" lon="5.894711944305762"><ele>348.0</ele><time>2026-05-01T11:49:27.999Z</time></trkpt><trkpt lat="43.47946486407574" lon="5.89471447754529"><ele>348.0</ele><time>2026-05-01T11:49:29.999Z</time></trkpt><trkpt lat="43.479534826970614" lon="5.894711456879299"><ele>348.0</ele><time>2026-05-01T11:49:30.999Z</time></trkpt><trkpt lat="43.47964811297141" lon="5.89469308950266"><ele>348.0</ele><time>2026-05-01T11:49:32.999Z</time></trkpt><trkpt lat="43.47972263666847" lon="5.894736621869605"><ele>348.0</ele><time>2026-05-01T11:49:34.999Z</time></trkpt><trkpt lat="43.47983100250477" lon="5.89471172405828"><ele>345.4</ele><time>2026-05-01T11:49:36.999Z</time></trkpt><trkpt lat="43.47993329290661" lon="5.894765981002996"><ele>342.79999999999995</ele><time>2026-05-01T11:49:38.999Z</time></trkpt><trkpt lat="43.480012573079335" lon="5.894747088358851"><ele>340.2</ele><time>2026-05-01T11:49:40.999Z</time></trkpt><trkpt lat="43.48008852624222" lon="5.89470329051354"><ele>337.6</ele><time>2026-05-01T11:49:42.999Z</time></trkpt><trkpt lat="43.48016548688202" lon="5.8947155127172195"><ele>335.0</ele><time>2026-05-01T11:49:44.999Z</time></trkpt><trkpt lat="43.480264758103864" lon="5.894749121980836"><ele>335.0</ele><time>2026-05-01T11:49:46.999Z</time></trkpt><trkpt lat="43.48034105153707" lon="5.8947819698787765"><ele>335.0</ele><time>2026-05-01T11:49:47.999Z</time></trkpt><trkpt lat="43.48040925505747" lon="5.894822987947935"><ele>335.0</ele><time>2026-05-01T11:49:48.999Z</time></trkpt><trkpt lat="43.48047285214746" lon="5.894890567514906"><ele>335.0</ele><time>2026-05-01T11:49:50.999Z</time></trkpt><trkpt lat="43.480534158674864" lon="5.8949107440258075"><ele>335.0</ele><time>2026-05-01T11:49:53.999Z</time></trkpt><trkpt lat="43.48061378172027" lon="5.894918355166676"><ele>335.0</ele><time>2026-05-01T11:49:55.999Z</time></trkpt><trkpt lat="43.480696646957995" lon="5.894931362021908"><ele>332.4</ele><time>2026-05-01T11:49:57.999Z</time></trkpt><trkpt lat="43.48076737728486" lon="5.894855784561935"><ele>329.8</ele><time>2026-05-01T11:50:00.999Z</time></trkpt><trkpt lat="43.48086268868711" lon="5.8947632274052975"><ele>327.20000000000005</ele><time>2026-05-01T11:50:02.999Z</time></trkpt><trkpt lat="43.48093489859702" lon="5.894702789129288"><ele>324.6</ele><time>2026-05-01T11:50:03.999Z</time></trkpt><trkpt lat="43.48099921619205" lon="5.89467034110271"><ele>322.0</ele><time>2026-05-01T11:50:04.999Z</time></trkpt><trkpt lat="43.481084162948555" lon="5.8945676854434295"><ele>322.0</ele><time>2026-05-01T11:50:06.999Z</time></trkpt><trkpt lat="43.48115505719557" lon="5.8944901465675965"><ele>322.0</ele><time>2026-05-01T11:50:07.999Z</time></trkpt><trkpt lat="43.481265083273094" lon="5.894456353639507"><ele>322.0</ele><time>2026-05-01T11:50:09.999Z</time></trkpt><trkpt lat="43.481327015902714" lon="5.894417278633777"><ele>322.0</ele><time>2026-05-01T11:50:10.999Z</time></trkpt><trkpt lat="43.481428199152084" lon="5.894403435641357"><ele>322.0</ele><time>2026-05-01T11:50:12.999Z</time></trkpt><trkpt lat="43.48153103028589" lon="5.894357520568513"><ele>321.6</ele><time>2026-05-01T11:50:14.999Z</time></trkpt><trkpt lat="43.48164999315344" lon="5.894303488411698"><ele>321.20000000000005</ele><time>2026-05-01T11:50:16.999Z</time></trkpt><trkpt lat="43.48172712125739" lon="5.894267770806566"><ele>320.8</ele><time>2026-05-01T11:50:17.999Z</time></trkpt><trkpt lat="43.48182696427985" lon="5.89423883584644"><ele>320.4</ele><time>2026-05-01T11:50:19.999Z</time></trkpt><trkpt lat="43.481925843345344" lon="5.894163925149905"><ele>320.0</ele><time>2026-05-01T11:50:21.999Z</time></trkpt><trkpt lat="43.48203298913221" lon="5.894118968079015"><ele>318.6</ele><time>2026-05-01T11:50:23.999Z</time></trkpt><trkpt lat="43.482096226489666" lon="5.894130922974746"><ele>317.2</ele><time>2026-05-01T11:50:24.999Z</time></trkpt><trkpt lat="43.48217895423605" lon="5.894105336505462"><ele>315.8</ele><time>2026-05-01T11:50:26.999Z</time></trkpt><trkpt lat="43.48226562839507" lon="5.894107495384553"><ele>314.4</ele><time>2026-05-01T11:50:28.999Z</time></trkpt><trkpt lat="43.48238803568695" lon="5.89414627550078"><ele>313.0</ele><time>2026-05-01T11:50:30.999Z</time></trkpt><trkpt lat="43.482491247051314" lon="5.894182033094063"><ele>312.4</ele><time>2026-05-01T11:50:32.999Z</time></trkpt><trkpt lat="43.48253269541682" lon="5.894272428967494"><ele>311.8</ele><time>2026-05-01T11:50:54.999Z</time></trkpt><trkpt lat="43.4825782095489" lon="5.894341739404296"><ele>311.2</ele><time>2026-05-01T11:50:55.999Z</time></trkpt><trkpt lat="43.48269264585233" lon="5.894495519916607"><ele>310.6</ele><time>2026-05-01T11:50:57.999Z</time></trkpt><trkpt lat="43.48274446696536" lon="5.894584469196363"><ele>310.0</ele><time>2026-05-01T11:50:58.999Z</time></trkpt><trkpt lat="43.48280094053856" lon="5.894696162467714"><ele>310.0</ele><time>2026-05-01T11:50:59.999Z</time></trkpt><trkpt lat="43.48288787390407" lon="5.894775337240811"><ele>310.0</ele><time>2026-05-01T11:51:00.999Z</time></trkpt><trkpt lat="43.48297904023472" lon="5.894915062252615"><ele>310.0</ele><time>2026-05-01T11:51:01.999Z</time></trkpt><trkpt lat="43.483063199698094" lon="5.895049644866483"><ele>310.0</ele><time>2026-05-01T11:51:02.999Z</time></trkpt><trkpt lat="43.483134294361754" lon="5.895163780794835"><ele>308.0</ele><time>2026-05-01T11:51:03.999Z</time></trkpt><trkpt lat="43.48319395217348" lon="5.895276074653465"><ele>306.0</ele><time>2026-05-01T11:51:04.999Z</time></trkpt><trkpt lat="43.48325638863454" lon="5.895411835406008"><ele>304.0</ele><time>2026-05-01T11:51:05.999Z</time></trkpt><trkpt lat="43.483319788919665" lon="5.8955587486700205"><ele>302.0</ele><time>2026-05-01T11:51:06.999Z</time></trkpt><trkpt lat="43.48338202400778" lon="5.895681086568186"><ele>302.0</ele><time>2026-05-01T11:51:07.999Z</time></trkpt><trkpt lat="43.48343377982185" lon="5.8957998378368295"><ele>302.0</ele><time>2026-05-01T11:51:08.999Z</time></trkpt><trkpt lat="43.48349069932732" lon="5.895920158423305"><ele>302.0</ele><time>2026-05-01T11:51:09.999Z</time></trkpt><trkpt lat="43.48354913881342" lon="5.89602866836602"><ele>302.0</ele><time>2026-05-01T11:51:10.999Z</time></trkpt><trkpt lat="43.48360024524239" lon="5.896131889675294"><ele>302.0</ele><time>2026-05-01T11:51:11.999Z</time></trkpt><trkpt lat="43.48364522817804" lon="5.8962324486888065"><ele>302.33333333333337</ele><time>2026-05-01T11:51:12.999Z</time></trkpt><trkpt lat="43.483694034039594" lon="5.896333877437727"><ele>302.6666666666667</ele><time>2026-05-01T11:51:13.999Z</time></trkpt><trkpt lat="43.48373515556468" lon="5.896442237417335"><ele>303.0</ele><time>2026-05-01T11:51:14.999Z</time></trkpt><trkpt lat="43.48376837655645" lon="5.896557438857209"><ele>303.3333333333333</ele><time>2026-05-01T11:51:15.999Z</time></trkpt><trkpt lat="43.483793683197916" lon="5.896671470296398"><ele>303.66666666666663</ele><time>2026-05-01T11:51:16.999Z</time></trkpt><trkpt lat="43.48382024405926" lon="5.896780610416331"><ele>304.0</ele><time>2026-05-01T11:51:17.999Z</time></trkpt><trkpt lat="43.483848920694285" lon="5.896875854156124"><ele>301.4</ele><time>2026-05-01T11:51:18.999Z</time></trkpt><trkpt lat="43.48389827104231" lon="5.896972736981462"><ele>298.79999999999995</ele><time>2026-05-01T11:51:20.999Z</time></trkpt><trkpt lat="43.48393263495209" lon="5.896885598401682"><ele>296.20000000000005</ele><time>2026-05-01T11:51:26.999Z</time></trkpt><trkpt lat="43.48397109403711" lon="5.896776181148094"><ele>293.6</ele><time>2026-05-01T11:51:28.999Z</time></trkpt><trkpt lat="43.48403235586986" lon="5.896668420507926"><ele>291.0</ele><time>2026-05-01T11:51:29.999Z</time></trkpt><trkpt lat="43.484100249861044" lon="5.896553038395217"><ele>290.3333333333333</ele><time>2026-05-01T11:51:30.999Z</time></trkpt><trkpt lat="43.48415309194034" lon="5.89644603256956"><ele>289.6666666666667</ele><time>2026-05-01T11:51:31.999Z</time></trkpt><trkpt lat="43.48418631809202" lon="5.896360345098339"><ele>289.0</ele><time>2026-05-01T11:51:32.999Z</time></trkpt><trkpt lat="43.48424878476526" lon="5.896329993892643"><ele>288.33333333333337</ele><time>2026-05-01T11:51:34.999Z</time></trkpt><trkpt lat="43.484288235608226" lon="5.896442250944561"><ele>287.6666666666667</ele><time>2026-05-01T11:51:36.999Z</time></trkpt><trkpt lat="43.48431501312964" lon="5.896559858427073"><ele>287.0</ele><time>2026-05-01T11:51:37.999Z</time></trkpt><trkpt lat="43.48433886813715" lon="5.896721034635328"><ele>288.0</ele><time>2026-05-01T11:51:38.999Z</time></trkpt><trkpt lat="43.48436890395265" lon="5.896905456401576"><ele>289.0</ele><time>2026-05-01T11:51:39.999Z</time></trkpt><trkpt lat="43.48443172539114" lon="5.8970699436768195"><ele>290.0</ele><time>2026-05-01T11:51:40.999Z</time></trkpt><trkpt lat="43.484509242850336" lon="5.897202582657024"><ele>291.0</ele><time>2026-05-01T11:51:41.999Z</time></trkpt><trkpt lat="43.484618113057664" lon="5.897280004646596"><ele>288.25</ele><time>2026-05-01T11:51:42.999Z</time></trkpt><trkpt lat="43.48474145676123" lon="5.897329345292015"><ele>285.5</ele><time>2026-05-01T11:51:43.999Z</time></trkpt><trkpt lat="43.48485870074951" lon="5.897410013754908"><ele>282.75</ele><time>2026-05-01T11:51:44.999Z</time></trkpt><trkpt lat="43.48500015464833" lon="5.897485534185531"><ele>280.0</ele><time>2026-05-01T11:51:45.999Z</time></trkpt><trkpt lat="43.48514058094396" lon="5.897535047323981"><ele>280.5</ele><time>2026-05-01T11:51:46.999Z</time></trkpt><trkpt lat="43.4852609006205" lon="5.897627857563079"><ele>281.0</ele><time>2026-05-01T11:51:47.999Z</time></trkpt><trkpt lat="43.48537673238097" lon="5.897694472008345"><ele>281.5</ele><time>2026-05-01T11:51:48.999Z</time></trkpt><trkpt lat="43.48550161466306" lon="5.897806139133279"><ele>282.0</ele><time>2026-05-01T11:51:49.999Z</time></trkpt><trkpt lat="43.485643905125606" lon="5.8979397523797035"><ele>282.0</ele><time>2026-05-01T11:51:50.999Z</time></trkpt><trkpt lat="43.48580369005758" lon="5.8980371585701095"><ele>282.0</ele><time>2026-05-01T11:51:51.999Z</time></trkpt><trkpt lat="43.48593205980993" lon="5.8981875898461364"><ele>282.0</ele><time>2026-05-01T11:51:52.999Z</time></trkpt><trkpt lat="43.486063529551295" lon="5.8983158714936685"><ele>281.75</ele><time>2026-05-01T11:51:53.999Z</time></trkpt><trkpt lat="43.486178689820804" lon="5.898433055081754"><ele>281.5</ele><time>2026-05-01T11:51:54.999Z</time></trkpt><trkpt lat="43.48629183946769" lon="5.898548115640701"><ele>281.25</ele><time>2026-05-01T11:51:55.999Z</time></trkpt><trkpt lat="43.4864006683137" lon="5.898660112917322"><ele>281.0</ele><time>2026-05-01T11:51:56.999Z</time></trkpt><trkpt lat="43.48650511540977" lon="5.898768604171428"><ele>281.0</ele><time>2026-05-01T11:51:57.999Z</time></trkpt><trkpt lat="43.48659292069022" lon="5.898862116287936"><ele>281.0</ele><time>2026-05-01T11:51:58.999Z</time></trkpt><trkpt lat="43.486688320904136" lon="5.898960941189197"><ele>281.0</ele><time>2026-05-01T11:51:59.999Z</time></trkpt><trkpt lat="43.48677942927915" lon="5.899044196873903"><ele>281.0</ele><time>2026-05-01T11:52:00.999Z</time></trkpt><trkpt lat="43.486844686445004" lon="5.8991005505135075"><ele>281.0</ele><time>2026-05-01T11:52:01.999Z</time></trkpt><trkpt lat="43.48689920911646" lon="5.899153414591307"><ele>271.0</ele><time>2026-05-01T11:52:02.999Z</time></trkpt><trkpt lat="43.48767716262855" lon="5.898967759548534"><ele>271.0</ele><time>2026-05-01T11:52:23.999Z</time></trkpt><trkpt lat="43.487744382910215" lon="5.898955363022256"><ele>271.0</ele><time>2026-05-01T11:52:24.999Z</time></trkpt><trkpt lat="43.487802451891056" lon="5.899010014505427"><ele>271.0</ele><time>2026-05-01T11:52:25.999Z</time></trkpt><trkpt lat="43.48788656743108" lon="5.899132084695059"><ele>271.0</ele><time>2026-05-01T11:52:26.999Z</time></trkpt><trkpt lat="43.488009897748434" lon="5.899277121860353"><ele>271.0</ele><time>2026-05-01T11:52:27.999Z</time></trkpt><trkpt lat="43.48816701862831" lon="5.89944070758519"><ele>269.3333333333333</ele><time>2026-05-01T11:52:28.999Z</time></trkpt><trkpt lat="43.4883400862042" lon="5.899623166116184"><ele>267.6666666666667</ele><time>2026-05-01T11:52:29.999Z</time></trkpt><trkpt lat="43.488496319980584" lon="5.899793325904686"><ele>266.0</ele><time>2026-05-01T11:52:30.999Z</time></trkpt><trkpt lat="43.48864120355175" lon="5.89995318855905"><ele>266.6666666666667</ele><time>2026-05-01T11:52:31.999Z</time></trkpt><trkpt lat="43.48877087013241" lon="5.900096247757021"><ele>267.3333333333333</ele><time>2026-05-01T11:52:32.999Z</time></trkpt><trkpt lat="43.48889895920669" lon="5.900230960042543"><ele>268.0</ele><time>2026-05-01T11:52:33.999Z</time></trkpt><trkpt lat="43.489010914921906" lon="5.900350202343428"><ele>268.0</ele><time>2026-05-01T11:52:34.999Z</time></trkpt><trkpt lat="43.489118267376554" lon="5.900463966139054"><ele>268.0</ele><time>2026-05-01T11:52:35.999Z</time></trkpt><trkpt lat="43.48921479870086" lon="5.900564393134303"><ele>268.0</ele><time>2026-05-01T11:52:36.999Z</time></trkpt><trkpt lat="43.489297331208725" lon="5.900651418161652"><ele>268.0</ele><time>2026-05-01T11:52:37.999Z</time></trkpt><trkpt lat="43.48936392772508" lon="5.900711652122562"><ele>268.0</ele><time>2026-05-01T11:52:38.999Z</time></trkpt><trkpt lat="43.48947361270375" lon="5.900653391714703"><ele>268.0</ele><time>2026-05-01T11:52:40.999Z</time></trkpt><trkpt lat="43.48951338066008" lon="5.900573315523143"><ele>268.0</ele><time>2026-05-01T11:52:41.999Z</time></trkpt><trkpt lat="43.48955830086911" lon="5.900471260896119"><ele>268.0</ele><time>2026-05-01T11:52:42.999Z</time></trkpt><trkpt lat="43.48962744866172" lon="5.900400652581646"><ele>268.0</ele><time>2026-05-01T11:52:44.999Z</time></trkpt><trkpt lat="43.48966376237703" lon="5.900495263222065"><ele>268.0</ele><time>2026-05-01T11:52:47.999Z</time></trkpt><trkpt lat="43.489730919128405" lon="5.900488503994806"><ele>268.0</ele><time>2026-05-01T11:52:49.999Z</time></trkpt><trkpt lat="43.48983205644541" lon="5.900554597186958"><ele>268.4</ele><time>2026-05-01T11:52:51.999Z</time></trkpt><trkpt lat="43.48991233024865" lon="5.900660625159184"><ele>268.8</ele><time>2026-05-01T11:52:52.999Z</time></trkpt><trkpt lat="43.490012974722895" lon="5.900774983137468"><ele>269.2</ele><time>2026-05-01T11:52:53.999Z</time></trkpt><trkpt lat="43.49009795469179" lon="5.900857932354018"><ele>269.6</ele><time>2026-05-01T11:52:54.999Z</time></trkpt><trkpt lat="43.49016934371282" lon="5.900896505743912"><ele>270.0</ele><time>2026-05-01T11:52:56.999Z</time></trkpt><trkpt lat="43.4902173315423" lon="5.900813732568234"><ele>270.0</ele><time>2026-05-01T11:52:59.999Z</time></trkpt><trkpt lat="43.49026362688131" lon="5.900699511223979"><ele>270.0</ele><time>2026-05-01T11:53:16.999Z</time></trkpt><trkpt lat="43.49018645409359" lon="5.900579262581203"><ele>270.0</ele><time>2026-05-01T11:53:18.999Z</time></trkpt><trkpt lat="43.49012113681538" lon="5.900492814013565"><ele>270.0</ele><time>2026-05-01T11:53:19.999Z</time></trkpt><trkpt lat="43.490061958756876" lon="5.900430183902403"><ele>270.0</ele><time>2026-05-01T11:53:20.999Z</time></trkpt><trkpt lat="43.490014853409875" lon="5.900372460994235"><ele>270.0</ele><time>2026-05-01T11:53:21.999Z</time></trkpt><trkpt lat="43.490006181872545" lon="5.90027948686311"><ele>270.0</ele><time>2026-05-01T11:53:22.999Z</time></trkpt><trkpt lat="43.4900591613761" lon="5.90015623932146"><ele>270.0</ele><time>2026-05-01T11:53:23.999Z</time></trkpt><trkpt lat="43.49009104230986" lon="5.899979543446549"><ele>270.0</ele><time>2026-05-01T11:53:24.999Z</time></trkpt><trkpt lat="43.49010885286904" lon="5.89979246931665"><ele>270.0</ele><time>2026-05-01T11:53:25.999Z</time></trkpt><trkpt lat="43.49015015221452" lon="5.899567922033348"><ele>269.6666666666667</ele><time>2026-05-01T11:53:26.999Z</time></trkpt><trkpt lat="43.49019135187227" lon="5.8993540390529695"><ele>269.33333333333337</ele><time>2026-05-01T11:53:27.999Z</time></trkpt><trkpt lat="43.49023343163985" lon="5.8991095870934736"><ele>269.0</ele><time>2026-05-01T11:53:28.999Z</time></trkpt><trkpt lat="43.49027750901405" lon="5.898863871012512"><ele>269.33333333333337</ele><time>2026-05-01T11:53:29.999Z</time></trkpt><trkpt lat="43.490315902677615" lon="5.89867090469139"><ele>269.6666666666667</ele><time>2026-05-01T11:53:30.999Z</time></trkpt><trkpt lat="43.49035258612641" lon="5.8984657245132475"><ele>270.0</ele><time>2026-05-01T11:53:31.999Z</time></trkpt><trkpt lat="43.49038742064913" lon="5.898248692023888"><ele>269.0</ele><time>2026-05-01T11:53:32.999Z</time></trkpt><trkpt lat="43.49042548169141" lon="5.898043181912377"><ele>268.0</ele><time>2026-05-01T11:53:33.999Z</time></trkpt><trkpt lat="43.490456764771835" lon="5.897799676131746"><ele>267.0</ele><time>2026-05-01T11:53:34.999Z</time></trkpt><trkpt lat="43.490506279737474" lon="5.8975412563659635"><ele>267.0</ele><time>2026-05-01T11:53:35.999Z</time></trkpt><trkpt lat="43.49055013305148" lon="5.89732307831582"><ele>267.0</ele><time>2026-05-01T11:53:36.999Z</time></trkpt><trkpt lat="43.49059410752929" lon="5.897109383310828"><ele>267.0</ele><time>2026-05-01T11:53:37.999Z</time></trkpt><trkpt lat="43.490629575526384" lon="5.896868708249832"><ele>267.6666666666667</ele><time>2026-05-01T11:53:38.999Z</time></trkpt><trkpt lat="43.490663716718146" lon="5.896648896028345"><ele>268.33333333333337</ele><time>2026-05-01T11:53:39.999Z</time></trkpt><trkpt lat="43.4907011076691" lon="5.896444120938691"><ele>269.0</ele><time>2026-05-01T11:53:40.999Z</time></trkpt><trkpt lat="43.49073985554152" lon="5.896241501931448"><ele>269.0</ele><time>2026-05-01T11:53:41.999Z</time></trkpt><trkpt lat="43.49078599081346" lon="5.896044045905835"><ele>269.0</ele><time>2026-05-01T11:53:42.999Z</time></trkpt><trkpt lat="43.49084983860738" lon="5.8958239314428225"><ele>269.0</ele><time>2026-05-01T11:53:43.999Z</time></trkpt><trkpt lat="43.49092039638675" lon="5.895614766414316"><ele>269.6666666666667</ele><time>2026-05-01T11:53:44.999Z</time></trkpt><trkpt lat="43.49100729048516" lon="5.895393713982258"><ele>270.3333333333333</ele><time>2026-05-01T11:53:45.999Z</time></trkpt><trkpt lat="43.49110837228422" lon="5.8951663026197405"><ele>271.0</ele><time>2026-05-01T11:53:46.999Z</time></trkpt><trkpt lat="43.491205350100564" lon="5.894937989367682"><ele>271.0</ele><time>2026-05-01T11:53:47.999Z</time></trkpt><trkpt lat="43.491286369579825" lon="5.894730807387349"><ele>271.0</ele><time>2026-05-01T11:53:48.999Z</time></trkpt><trkpt lat="43.49136489688832" lon="5.894529246230535"><ele>271.0</ele><time>2026-05-01T11:53:49.999Z</time></trkpt><trkpt lat="43.49143655708182" lon="5.894367330446045"><ele>271.3333333333333</ele><time>2026-05-01T11:53:50.999Z</time></trkpt><trkpt lat="43.491509176026305" lon="5.894195188375101"><ele>271.6666666666667</ele><time>2026-05-01T11:53:51.999Z</time></trkpt><trkpt lat="43.49158427181523" lon="5.894004787854348"><ele>272.0</ele><time>2026-05-01T11:53:52.999Z</time></trkpt><trkpt lat="43.49166188890559" lon="5.8938196277692985"><ele>272.0</ele><time>2026-05-01T11:53:53.999Z</time></trkpt><trkpt lat="43.491735050002625" lon="5.893640997320209"><ele>272.0</ele><time>2026-05-01T11:53:54.999Z</time></trkpt><trkpt lat="43.49180051584292" lon="5.893483273761514"><ele>272.0</ele><time>2026-05-01T11:53:55.999Z</time></trkpt><trkpt lat="43.49185195690028" lon="5.89334217997202"><ele>272.0</ele><time>2026-05-01T11:53:56.999Z</time></trkpt><trkpt lat="43.491894528763204" lon="5.893195157577585"><ele>273.5</ele><time>2026-05-01T11:53:57.999Z</time></trkpt><trkpt lat="43.49193530637185" lon="5.893055586275308"><ele>275.0</ele><time>2026-05-01T11:53:58.999Z</time></trkpt><trkpt lat="43.491985907823015" lon="5.892887513068295"><ele>276.5</ele><time>2026-05-01T11:53:59.999Z</time></trkpt><trkpt lat="43.49206738916659" lon="5.892725765215946"><ele>278.0</ele><time>2026-05-01T11:54:00.999Z</time></trkpt><trkpt lat="43.49214045461904" lon="5.892598220535375"><ele>279.0</ele><time>2026-05-01T11:54:01.999Z</time></trkpt><trkpt lat="43.49222562540276" lon="5.892438068586637"><ele>280.0</ele><time>2026-05-01T11:54:02.999Z</time></trkpt><trkpt lat="43.49229915922534" lon="5.892264983386871"><ele>281.0</ele><time>2026-05-01T11:54:03.999Z</time></trkpt><trkpt lat="43.49238639815247" lon="5.8921058680780165"><ele>282.0</ele><time>2026-05-01T11:54:04.999Z</time></trkpt><trkpt lat="43.492474554649576" lon="5.891944075758918"><ele>282.0</ele><time>2026-05-01T11:54:05.999Z</time></trkpt><trkpt lat="43.492546723613984" lon="5.891815863389525"><ele>282.0</ele><time>2026-05-01T11:54:06.999Z</time></trkpt><trkpt lat="43.49261060695174" lon="5.891704341626569"><ele>282.0</ele><time>2026-05-01T11:54:07.999Z</time></trkpt><trkpt lat="43.49266497110672" lon="5.891614395916992"><ele>282.0</ele><time>2026-05-01T11:54:08.999Z</time></trkpt><trkpt lat="43.49271479902323" lon="5.89153070637698"><ele>282.0</ele><time>2026-05-01T11:54:09.999Z</time></trkpt><trkpt lat="43.49276095522692" lon="5.891460350684997"><ele>282.2</ele><time>2026-05-01T11:54:10.999Z</time></trkpt><trkpt lat="43.49281378327848" lon="5.891399883019358"><ele>282.4</ele><time>2026-05-01T11:54:12.999Z</time></trkpt><trkpt lat="43.49287150948173" lon="5.891324680373617"><ele>282.6</ele><time>2026-05-01T11:54:14.999Z</time></trkpt><trkpt lat="43.492927887723276" lon="5.8912389202408555"><ele>282.8</ele><time>2026-05-01T11:54:15.999Z</time></trkpt><trkpt lat="43.493045752609355" lon="5.891182711180894"><ele>283.0</ele><time>2026-05-01T11:54:16.999Z</time></trkpt><trkpt lat="43.4931419519172" lon="5.89105540150495"><ele>284.4</ele><time>2026-05-01T11:54:17.999Z</time></trkpt><trkpt lat="43.493248000852304" lon="5.89093476846004"><ele>285.8</ele><time>2026-05-01T11:54:18.999Z</time></trkpt><trkpt lat="43.493331998720656" lon="5.890851400372438"><ele>287.2</ele><time>2026-05-01T11:54:19.999Z</time></trkpt><trkpt lat="43.49340336317767" lon="5.8907773105519965"><ele>288.6</ele><time>2026-05-01T11:54:20.999Z</time></trkpt><trkpt lat="43.49346743354693" lon="5.890697079224983"><ele>290.0</ele><time>2026-05-01T11:54:21.999Z</time></trkpt><trkpt lat="43.49350897302161" lon="5.890623290870205"><ele>291.0</ele><time>2026-05-01T11:54:22.999Z</time></trkpt><trkpt lat="43.49354700685151" lon="5.890474808029569"><ele>292.0</ele><time>2026-05-01T11:54:24.999Z</time></trkpt><trkpt lat="43.493545664640166" lon="5.890364851807881"><ele>293.0</ele><time>2026-05-01T11:54:26.999Z</time></trkpt><trkpt lat="43.49346397565593" lon="5.8903196436174365"><ele>294.0</ele><time>2026-05-01T11:54:28.999Z</time></trkpt><trkpt lat="43.493476778214514" lon="5.8902138990878985"><ele>295.0</ele><time>2026-05-01T11:54:31.999Z</time></trkpt><trkpt lat="43.49338502163642" lon="5.890116213215631"><ele>297.25</ele><time>2026-05-01T11:54:33.999Z</time></trkpt><trkpt lat="43.49330355062066" lon="5.8900311842308835"><ele>299.5</ele><time>2026-05-01T11:54:34.999Z</time></trkpt><trkpt lat="43.49324565000658" lon="5.889933425998525"><ele>301.75</ele><time>2026-05-01T11:54:35.999Z</time></trkpt><trkpt lat="43.4931320401644" lon="5.889805809228854"><ele>304.0</ele><time>2026-05-01T11:54:37.999Z</time></trkpt><trkpt lat="43.49304692047986" lon="5.889695043423356"><ele>304.0</ele><time>2026-05-01T11:54:38.999Z</time></trkpt><trkpt lat="43.49299397281795" lon="5.889616713284407"><ele>304.0</ele><time>2026-05-01T11:54:39.999Z</time></trkpt><trkpt lat="43.49290644315241" lon="5.889482748568865"><ele>304.0</ele><time>2026-05-01T11:54:41.999Z</time></trkpt><trkpt lat="43.49286494988606" lon="5.889412449784909"><ele>304.0</ele><time>2026-05-01T11:54:42.999Z</time></trkpt><trkpt lat="43.4928012775817" lon="5.889355842410313"><ele>304.0</ele><time>2026-05-01T11:54:44.999Z</time></trkpt><trkpt lat="43.492860643691856" lon="5.8893001587343035"><ele>304.0</ele><time>2026-05-01T11:54:46.999Z</time></trkpt><trkpt lat="43.49296619689127" lon="5.8892846509440835"><ele>304.0</ele><time>2026-05-01T11:54:48.999Z</time></trkpt><trkpt lat="43.49306486790815" lon="5.889284839977566"><ele>304.0</ele><time>2026-05-01T11:54:51.999Z</time></trkpt><trkpt lat="43.493154815979594" lon="5.8892598140378976"><ele>304.0</ele><time>2026-05-01T11:54:53.999Z</time></trkpt><trkpt lat="43.493211964440505" lon="5.889218864672807"><ele>304.0</ele><time>2026-05-01T11:54:55Z</time></trkpt><trkpt lat="43.49328228923616" lon="5.889165288310489"><ele>304.0</ele><time>2026-05-01T11:54:57Z</time></trkpt><trkpt lat="43.49338972800122" lon="5.889108737840074"><ele>305.16666666666663</ele><time>2026-05-01T11:54:59Z</time></trkpt><trkpt lat="43.493470145528576" lon="5.8890785168424875"><ele>306.3333333333333</ele><time>2026-05-01T11:55:00Z</time></trkpt><trkpt lat="43.493534020492106" lon="5.889051752289177"><ele>307.5</ele><time>2026-05-01T11:55:01Z</time></trkpt><trkpt lat="43.49359032472489" lon="5.888987386458251"><ele>308.6666666666667</ele><time>2026-05-01T11:55:03Z</time></trkpt><trkpt lat="43.49357224192063" lon="5.888891365529274"><ele>309.83333333333337</ele><time>2026-05-01T11:55:05Z</time></trkpt><trkpt lat="43.49353198660091" lon="5.888785423242611"><ele>311.0</ele><time>2026-05-01T11:55:07.001Z</time></trkpt><trkpt lat="43.49349462710799" lon="5.888610909461533"><ele>311.0</ele><time>2026-05-01T11:55:09.001Z</time></trkpt><trkpt lat="43.49347040452392" lon="5.888506822328462"><ele>311.0</ele><time>2026-05-01T11:55:10.001Z</time></trkpt><trkpt lat="43.493447604945445" lon="5.888413744782635"><ele>311.0</ele><time>2026-05-01T11:55:11.001Z</time></trkpt><trkpt lat="43.493429918204235" lon="5.8883296959978715"><ele>311.0</ele><time>2026-05-01T11:55:12.001Z</time></trkpt><trkpt lat="43.49340885133797" lon="5.888244137401338"><ele>311.0</ele><time>2026-05-01T11:55:13.001Z</time></trkpt><trkpt lat="43.49337107858204" lon="5.8881053465242825"><ele>311.0</ele><time>2026-05-01T11:55:15.001Z</time></trkpt><trkpt lat="43.49334780476039" lon="5.88800909098443"><ele>311.6</ele><time>2026-05-01T11:55:16.001Z</time></trkpt><trkpt lat="43.49331586511381" lon="5.887855980399215"><ele>312.20000000000005</ele><time>2026-05-01T11:55:18.001Z</time></trkpt><trkpt lat="43.49335686128639" lon="5.887712853600433"><ele>312.79999999999995</ele><time>2026-05-01T11:55:19.001Z</time></trkpt><trkpt lat="43.49328777191251" lon="5.887600633902956"><ele>313.4</ele><time>2026-05-01T11:55:21.001Z</time></trkpt><trkpt lat="43.49322338630314" lon="5.887496920283537"><ele>314.0</ele><time>2026-05-01T11:55:23.001Z</time></trkpt><trkpt lat="43.493277380215545" lon="5.887583755053627"><ele>314.0</ele><time>2026-05-01T11:55:27.001Z</time></trkpt><trkpt lat="43.4933440059925" lon="5.88769197346099"><ele>314.0</ele><time>2026-05-01T11:55:29.001Z</time></trkpt><trkpt lat="43.49339831490603" lon="5.887780185732163"><ele>314.0</ele><time>2026-05-01T11:55:31.001Z</time></trkpt><trkpt lat="43.49347184704827" lon="5.887899621782726"><ele>314.0</ele><time>2026-05-01T11:55:33.001Z</time></trkpt><trkpt lat="43.49354963507944" lon="5.888025970511175"><ele>314.0</ele><time>2026-05-01T11:55:35.001Z</time></trkpt><trkpt lat="43.4936023945659" lon="5.888111666233624"><ele>314.0</ele><time>2026-05-01T11:55:36.001Z</time></trkpt><trkpt lat="43.49365445968468" lon="5.888196234016772"><ele>314.0</ele><time>2026-05-01T11:55:37.001Z</time></trkpt><trkpt lat="43.49371234068654" lon="5.8882915377417335"><ele>314.0</ele><time>2026-05-01T11:55:38.001Z</time></trkpt><trkpt lat="43.493764995849624" lon="5.888378004573192"><ele>314.0</ele><time>2026-05-01T11:55:39.001Z</time></trkpt><trkpt lat="43.493799206463564" lon="5.8885057906904485"><ele>314.0</ele><time>2026-05-01T11:55:40.001Z</time></trkpt><trkpt lat="43.493873398823375" lon="5.888625219687927"><ele>314.75</ele><time>2026-05-01T11:55:41.001Z</time></trkpt><trkpt lat="43.49396512117323" lon="5.888748990423927"><ele>315.5</ele><time>2026-05-01T11:55:42.001Z</time></trkpt><trkpt lat="43.4940729363094" lon="5.888844409944454"><ele>316.25</ele><time>2026-05-01T11:55:43.001Z</time></trkpt><trkpt lat="43.49418521024706" lon="5.888875071690137"><ele>317.0</ele><time>2026-05-01T11:55:44.001Z</time></trkpt><trkpt lat="43.49431804858144" lon="5.888933637713061"><ele>317.0</ele><time>2026-05-01T11:55:45.001Z</time></trkpt><trkpt lat="43.494437116576584" lon="5.888992342034728"><ele>317.0</ele><time>2026-05-01T11:55:46.001Z</time></trkpt><trkpt lat="43.494537120198316" lon="5.889034770662469"><ele>317.0</ele><time>2026-05-01T11:55:47.001Z</time></trkpt><trkpt lat="43.494615500821844" lon="5.8890197203369725"><ele>317.0</ele><time>2026-05-01T11:55:48.001Z</time></trkpt><trkpt lat="43.494668203268226" lon="5.88893315171665"><ele>317.0</ele><time>2026-05-01T11:55:49.001Z</time></trkpt><trkpt lat="43.49461694174491" lon="5.888700801540466"><ele>317.0</ele><time>2026-05-01T11:55:51.001Z</time></trkpt><trkpt lat="43.49452497733798" lon="5.888667630368585"><ele>317.0</ele><time>2026-05-01T11:55:52.001Z</time></trkpt><trkpt lat="43.49445415200052" lon="5.888589607260772"><ele>317.0</ele><time>2026-05-01T11:55:53.001Z</time></trkpt><trkpt lat="43.494382291858024" lon="5.888464234354562"><ele>317.0</ele><time>2026-05-01T11:55:54.001Z</time></trkpt><trkpt lat="43.49431888922497" lon="5.888290602260392"><ele>317.0</ele><time>2026-05-01T11:55:55.001Z</time></trkpt><trkpt lat="43.494272783256925" lon="5.888105408191077"><ele>319.6666666666667</ele><time>2026-05-01T11:55:56.001Z</time></trkpt><trkpt lat="43.49422603482535" lon="5.887896201778628"><ele>322.3333333333333</ele><time>2026-05-01T11:55:57.001Z</time></trkpt><trkpt lat="43.49418800111388" lon="5.8876839153263285"><ele>325.0</ele><time>2026-05-01T11:55:58.001Z</time></trkpt><trkpt lat="43.494153678434714" lon="5.887465013420698"><ele>326.75</ele><time>2026-05-01T11:55:59.001Z</time></trkpt><trkpt lat="43.494120730817315" lon="5.887264686063565"><ele>328.5</ele><time>2026-05-01T11:56:00.001Z</time></trkpt><trkpt lat="43.49408143703254" lon="5.88707660440461"><ele>330.25</ele><time>2026-05-01T11:56:01.001Z</time></trkpt><trkpt lat="43.49403574606395" lon="5.88690829526297"><ele>332.0</ele><time>2026-05-01T11:56:02.001Z</time></trkpt><trkpt lat="43.49397059693951" lon="5.886761946371791"><ele>333.75</ele><time>2026-05-01T11:56:03.001Z</time></trkpt><trkpt lat="43.49390267831744" lon="5.88664011839705"><ele>335.5</ele><time>2026-05-01T11:56:04.001Z</time></trkpt><trkpt lat="43.493866702188456" lon="5.886506097831549"><ele>337.25</ele><time>2026-05-01T11:56:05Z</time></trkpt><trkpt lat="43.49386850689942" lon="5.886325608161518"><ele>339.0</ele><time>2026-05-01T11:56:06.001Z</time></trkpt><trkpt lat="43.4938803979677" lon="5.8861232481914545"><ele>339.0</ele><time>2026-05-01T11:56:07Z</time></trkpt><trkpt lat="43.49389519649565" lon="5.885942549597172"><ele>339.0</ele><time>2026-05-01T11:56:08.001Z</time></trkpt><trkpt lat="43.493928761193516" lon="5.885801134230848"><ele>339.0</ele><time>2026-05-01T11:56:09.001Z</time></trkpt><trkpt lat="43.493989667302976" lon="5.885686915292761"><ele>339.0</ele><time>2026-05-01T11:56:10.001Z</time></trkpt><trkpt lat="43.49407507106526" lon="5.885589331519483"><ele>339.0</ele><time>2026-05-01T11:56:11Z</time></trkpt><trkpt lat="43.49419037458479" lon="5.88555251135798"><ele>339.0</ele><time>2026-05-01T11:56:12.001Z</time></trkpt><trkpt lat="43.49432585901598" lon="5.885491211689434"><ele>339.0</ele><time>2026-05-01T11:56:13.001Z</time></trkpt><trkpt lat="43.494464921766905" lon="5.885459564282018"><ele>339.0</ele><time>2026-05-01T11:56:14.001Z</time></trkpt><trkpt lat="43.494568196002604" lon="5.8853819484009104"><ele>341.75</ele><time>2026-05-01T11:56:15.001Z</time></trkpt><trkpt lat="43.49462597745424" lon="5.885252028965497"><ele>344.5</ele><time>2026-05-01T11:56:16Z</time></trkpt><trkpt lat="43.49464927413173" lon="5.8851038975721695"><ele>347.25</ele><time>2026-05-01T11:56:17Z</time></trkpt><trkpt lat="43.49464282509372" lon="5.884935232175675"><ele>350.0</ele><time>2026-05-01T11:56:18.001Z</time></trkpt><trkpt lat="43.49463731309826" lon="5.884751151431666"><ele>350.0</ele><time>2026-05-01T11:56:19Z</time></trkpt><trkpt lat="43.49464672765537" lon="5.884572059150089"><ele>350.0</ele><time>2026-05-01T11:56:20Z</time></trkpt><trkpt lat="43.49467744435436" lon="5.884407005318721"><ele>350.0</ele><time>2026-05-01T11:56:21Z</time></trkpt><trkpt lat="43.49473305283849" lon="5.884251404781614"><ele>350.0</ele><time>2026-05-01T11:56:22Z</time></trkpt><trkpt lat="43.494810584832635" lon="5.884112089387402"><ele>349.75</ele><time>2026-05-01T11:56:23Z</time></trkpt><trkpt lat="43.4949049113367" lon="5.883978390861999"><ele>349.5</ele><time>2026-05-01T11:56:24Z</time></trkpt><trkpt lat="43.4949936096164" lon="5.883853016060908"><ele>349.25</ele><time>2026-05-01T11:56:25Z</time></trkpt><trkpt lat="43.4950666631054" lon="5.883718907027762"><ele>349.0</ele><time>2026-05-01T11:56:26Z</time></trkpt><trkpt lat="43.495116937851776" lon="5.883569904712289"><ele>349.25</ele><time>2026-05-01T11:56:27Z</time></trkpt><trkpt lat="43.49513925121986" lon="5.8834108646981615"><ele>349.5</ele><time>2026-05-01T11:56:28Z</time></trkpt><trkpt lat="43.49514072001418" lon="5.88325005653091"><ele>349.75</ele><time>2026-05-01T11:56:29Z</time></trkpt><trkpt lat="43.495127550071146" lon="5.883090052760864"><ele>350.0</ele><time>2026-05-01T11:56:30Z</time></trkpt><trkpt lat="43.495118270650615" lon="5.8829066177571345"><ele>350.0</ele><time>2026-05-01T11:56:31Z</time></trkpt><trkpt lat="43.49511649194932" lon="5.882699090452169"><ele>350.0</ele><time>2026-05-01T11:56:32Z</time></trkpt><trkpt lat="43.49511749169249" lon="5.882470184608071"><ele>350.0</ele><time>2026-05-01T11:56:33Z</time></trkpt><trkpt lat="43.49511309507149" lon="5.88225550476364"><ele>351.0</ele><time>2026-05-01T11:56:34Z</time></trkpt><trkpt lat="43.495110201033846" lon="5.882068123447616"><ele>352.0</ele><time>2026-05-01T11:56:35Z</time></trkpt><trkpt lat="43.495104652336096" lon="5.881897689001189"><ele>353.0</ele><time>2026-05-01T11:56:36Z</time></trkpt><trkpt lat="43.49507035838494" lon="5.881747013975986"><ele>354.0</ele><time>2026-05-01T11:56:37Z</time></trkpt><trkpt lat="43.49500943833824" lon="5.8816195643603395"><ele>354.6</ele><time>2026-05-01T11:56:38Z</time></trkpt><trkpt lat="43.49494515729178" lon="5.881517742036617"><ele>355.2</ele><time>2026-05-01T11:56:39Z</time></trkpt><trkpt lat="43.49491112162465" lon="5.881429506383755"><ele>355.8</ele><time>2026-05-01T11:56:40Z</time></trkpt><trkpt lat="43.49494412989902" lon="5.88128755748448"><ele>356.40000000000003</ele><time>2026-05-01T11:56:42Z</time></trkpt><trkpt lat="43.49500670838802" lon="5.881297767213416"><ele>357.0</ele><time>2026-05-01T11:56:43Z</time></trkpt><trkpt lat="43.49506006201139" lon="5.8814770104381555"><ele>357.0</ele><time>2026-05-01T11:56:45Z</time></trkpt><trkpt lat="43.495100815059615" lon="5.8815869083732935"><ele>357.0</ele><time>2026-05-01T11:56:46Z</time></trkpt><trkpt lat="43.49515460124309" lon="5.881708380999368"><ele>357.0</ele><time>2026-05-01T11:56:47Z</time></trkpt><trkpt lat="43.49522369708193" lon="5.881798988260683"><ele>357.0</ele><time>2026-05-01T11:56:48Z</time></trkpt><trkpt lat="43.4952914367489" lon="5.881843985598938"><ele>357.0</ele><time>2026-05-01T11:56:49Z</time></trkpt><trkpt lat="43.495361420616675" lon="5.881843063596457"><ele>357.0</ele><time>2026-05-01T11:56:50Z</time></trkpt><trkpt lat="43.49541322436756" lon="5.881776069045644"><ele>358.6</ele><time>2026-05-01T11:56:51Z</time></trkpt><trkpt lat="43.49546137316831" lon="5.881675518231715"><ele>360.20000000000005</ele><time>2026-05-01T11:56:52Z</time></trkpt><trkpt lat="43.49551294187325" lon="5.881556740726735"><ele>361.8</ele><time>2026-05-01T11:56:53Z</time></trkpt><trkpt lat="43.49558668774328" lon="5.881431505453739"><ele>363.4</ele><time>2026-05-01T11:56:54Z</time></trkpt><trkpt lat="43.49565412850438" lon="5.881296825019407"><ele>365.0</ele><time>2026-05-01T11:56:55Z</time></trkpt><trkpt lat="43.49570761368964" lon="5.88115316566256"><ele>365.0</ele><time>2026-05-01T11:56:56Z</time></trkpt><trkpt lat="43.49575453390821" lon="5.880988682776051"><ele>365.0</ele><time>2026-05-01T11:56:57Z</time></trkpt><trkpt lat="43.49579059076672" lon="5.880847328169205"><ele>365.0</ele><time>2026-05-01T11:56:58Z</time></trkpt><trkpt lat="43.495865378254045" lon="5.880702344138908"><ele>365.0</ele><time>2026-05-01T11:56:59Z</time></trkpt><trkpt lat="43.495938935511" lon="5.880522282687559"><ele>364.5</ele><time>2026-05-01T11:57:00Z</time></trkpt><trkpt lat="43.49602542164691" lon="5.880355119854644"><ele>364.0</ele><time>2026-05-01T11:57:01Z</time></trkpt><trkpt lat="43.4960760200828" lon="5.880177256409995"><ele>363.5</ele><time>2026-05-01T11:57:02Z</time></trkpt><trkpt lat="43.49610203959484" lon="5.879978073088765"><ele>363.0</ele><time>2026-05-01T11:57:03Z</time></trkpt><trkpt lat="43.496135916516124" lon="5.879770166063395"><ele>363.0</ele><time>2026-05-01T11:57:04Z</time></trkpt><trkpt lat="43.49621431586566" lon="5.8795634960292045"><ele>363.0</ele><time>2026-05-01T11:57:05Z</time></trkpt><trkpt lat="43.49629657754855" lon="5.879352551350145"><ele>363.0</ele><time>2026-05-01T11:57:06Z</time></trkpt><trkpt lat="43.496358638893554" lon="5.879144524086029"><ele>363.0</ele><time>2026-05-01T11:57:07Z</time></trkpt><trkpt lat="43.49642097108291" lon="5.878957304789015"><ele>363.0</ele><time>2026-05-01T11:57:08Z</time></trkpt><trkpt lat="43.496469326109974" lon="5.878755176629095"><ele>363.0</ele><time>2026-05-01T11:57:09Z</time></trkpt><trkpt lat="43.49652540762201" lon="5.878522651425483"><ele>360.0</ele><time>2026-05-01T11:57:10Z</time></trkpt><trkpt lat="43.496584251084535" lon="5.8782950161387415"><ele>357.0</ele><time>2026-05-01T11:57:11Z</time></trkpt><trkpt lat="43.496637253870624" lon="5.878071759200298"><ele>354.0</ele><time>2026-05-01T11:57:12Z</time></trkpt><trkpt lat="43.49668510819483" lon="5.877882014867863"><ele>354.0</ele><time>2026-05-01T11:57:13Z</time></trkpt><trkpt lat="43.496731888882415" lon="5.877705977451005"><ele>354.0</ele><time>2026-05-01T11:57:14Z</time></trkpt><trkpt lat="43.49680244559314" lon="5.877556744840213"><ele>354.0</ele><time>2026-05-01T11:57:15Z</time></trkpt><trkpt lat="43.49686759409274" lon="5.877404670962252"><ele>354.0</ele><time>2026-05-01T11:57:16Z</time></trkpt><trkpt lat="43.496959500570114" lon="5.877295710054605"><ele>354.25</ele><time>2026-05-01T11:57:17Z</time></trkpt><trkpt lat="43.497081157930346" lon="5.877195517685432"><ele>354.5</ele><time>2026-05-01T11:57:18Z</time></trkpt><trkpt lat="43.49720588151819" lon="5.877119495585195"><ele>354.75</ele><time>2026-05-01T11:57:19Z</time></trkpt><trkpt lat="43.497340323903416" lon="5.87709383576595"><ele>355.0</ele><time>2026-05-01T11:57:20Z</time></trkpt><trkpt lat="43.49747035604272" lon="5.8771080574194485"><ele>355.0</ele><time>2026-05-01T11:57:21Z</time></trkpt><trkpt lat="43.49761767513285" lon="5.877161859397631"><ele>355.0</ele><time>2026-05-01T11:57:22Z</time></trkpt><trkpt lat="43.49778774585768" lon="5.877246150893663"><ele>355.0</ele><time>2026-05-01T11:57:23Z</time></trkpt><trkpt lat="43.49795811806639" lon="5.877350648545455"><ele>356.3333333333333</ele><time>2026-05-01T11:57:24Z</time></trkpt><trkpt lat="43.49813460830261" lon="5.877460748097285"><ele>357.6666666666667</ele><time>2026-05-01T11:57:25Z</time></trkpt><trkpt lat="43.49833161142582" lon="5.877602713490117"><ele>359.0</ele><time>2026-05-01T11:57:26Z</time></trkpt><trkpt lat="43.49851260922033" lon="5.877746567777991"><ele>359.0</ele><time>2026-05-01T11:57:27Z</time></trkpt><trkpt lat="43.49867839052257" lon="5.877873562774246"><ele>359.0</ele><time>2026-05-01T11:57:28Z</time></trkpt><trkpt lat="43.498837328331845" lon="5.8779975376320035"><ele>359.0</ele><time>2026-05-01T11:57:29Z</time></trkpt><trkpt lat="43.498981683931135" lon="5.87810732388958"><ele>355.75</ele><time>2026-05-01T11:57:30Z</time></trkpt><trkpt lat="43.49911428144476" lon="5.8781895820607115"><ele>352.5</ele><time>2026-05-01T11:57:31Z</time></trkpt><trkpt lat="43.4992537631002" lon="5.878219624237634"><ele>349.25</ele><time>2026-05-01T11:57:32Z</time></trkpt><trkpt lat="43.49940818586007" lon="5.878203440260931"><ele>346.0</ele><time>2026-05-01T11:57:33Z</time></trkpt><trkpt lat="43.49952249773828" lon="5.878191143585518"><ele>347.25</ele><time>2026-05-01T11:57:34Z</time></trkpt><trkpt lat="43.49964828398117" lon="5.878236952764832"><ele>348.5</ele><time>2026-05-01T11:57:35Z</time></trkpt><trkpt lat="43.49978560198516" lon="5.878303914949354"><ele>349.75</ele><time>2026-05-01T11:57:36Z</time></trkpt><trkpt lat="43.499936716290954" lon="5.878392011235556"><ele>351.0</ele><time>2026-05-01T11:57:37Z</time></trkpt><trkpt lat="43.50009590863158" lon="5.878487666640441"><ele>351.0</ele><time>2026-05-01T11:57:38Z</time></trkpt><trkpt lat="43.50025747494468" lon="5.878579273561129"><ele>351.0</ele><time>2026-05-01T11:57:39Z</time></trkpt><trkpt lat="43.500414266185174" lon="5.8786645826962625"><ele>351.0</ele><time>2026-05-01T11:57:40Z</time></trkpt><trkpt lat="43.50054785275017" lon="5.878731647110568"><ele>347.5</ele><time>2026-05-01T11:57:41Z</time></trkpt><trkpt lat="43.500672060927066" lon="5.878757961565717"><ele>344.0</ele><time>2026-05-01T11:57:42Z</time></trkpt><trkpt lat="43.500803182936295" lon="5.878746198367499"><ele>340.5</ele><time>2026-05-01T11:57:43Z</time></trkpt><trkpt lat="43.500930674642774" lon="5.878683461148803"><ele>337.0</ele><time>2026-05-01T11:57:44Z</time></trkpt><trkpt lat="43.501019388586975" lon="5.87848732795174"><ele>336.25</ele><time>2026-05-01T11:57:45Z</time></trkpt><trkpt lat="43.501140727978445" lon="5.878349938094754"><ele>335.5</ele><time>2026-05-01T11:57:46Z</time></trkpt><trkpt lat="43.5012790472255" lon="5.878275290505954"><ele>334.75</ele><time>2026-05-01T11:57:47Z</time></trkpt><trkpt lat="43.50140784010998" lon="5.878212393808759"><ele>334.0</ele><time>2026-05-01T11:57:48Z</time></trkpt><trkpt lat="43.50152791758744" lon="5.878141151952425"><ele>334.0</ele><time>2026-05-01T11:57:49Z</time></trkpt><trkpt lat="43.50162969674475" lon="5.878097003367413"><ele>334.0</ele><time>2026-05-01T11:57:50Z</time></trkpt><trkpt lat="43.50169114515533" lon="5.878072491237368"><ele>334.0</ele><time>2026-05-01T11:57:51Z</time></trkpt><trkpt lat="43.5017643470835" lon="5.878076432958913"><ele>334.0</ele><time>2026-05-01T11:57:53Z</time></trkpt><trkpt lat="43.50175634740851" lon="5.878237717726284"><ele>334.0</ele><time>2026-05-01T11:57:54Z</time></trkpt><trkpt lat="43.50178835646847" lon="5.878394439312616"><ele>333.5</ele><time>2026-05-01T11:57:56Z</time></trkpt><trkpt lat="43.50179682951508" lon="5.878491756812764"><ele>333.0</ele><time>2026-05-01T11:57:57Z</time></trkpt><trkpt lat="43.501815031949015" lon="5.878600743570942"><ele>332.5</ele><time>2026-05-01T11:57:58Z</time></trkpt><trkpt lat="43.50184099796794" lon="5.878715511642074"><ele>332.0</ele><time>2026-05-01T11:57:59Z</time></trkpt><trkpt lat="43.50187074610846" lon="5.878846024878505"><ele>331.5</ele><time>2026-05-01T11:58:00Z</time></trkpt><trkpt lat="43.50188938080899" lon="5.878963729634185"><ele>331.0</ele><time>2026-05-01T11:58:01Z</time></trkpt><trkpt lat="43.501906238164615" lon="5.879084819770457"><ele>331.0</ele><time>2026-05-01T11:58:02Z</time></trkpt><trkpt lat="43.501938201587066" lon="5.879195700475171"><ele>331.0</ele><time>2026-05-01T11:58:03Z</time></trkpt><trkpt lat="43.50199902758673" lon="5.879273527338419"><ele>331.0</ele><time>2026-05-01T11:58:04Z</time></trkpt><trkpt lat="43.50207685505979" lon="5.8793213567667015"><ele>331.0</ele><time>2026-05-01T11:58:05Z</time></trkpt><trkpt lat="43.5021660673053" lon="5.879373962714021"><ele>331.0</ele><time>2026-05-01T11:58:06Z</time></trkpt><trkpt lat="43.502266031592455" lon="5.879443756227251"><ele>330.25</ele><time>2026-05-01T11:58:07Z</time></trkpt><trkpt lat="43.502378643058464" lon="5.879528830721792"><ele>329.5</ele><time>2026-05-01T11:58:08Z</time></trkpt><trkpt lat="43.50249172248252" lon="5.879617003792668"><ele>328.75</ele><time>2026-05-01T11:58:09Z</time></trkpt><trkpt lat="43.50259508006133" lon="5.879699120345507"><ele>328.0</ele><time>2026-05-01T11:58:10Z</time></trkpt><trkpt lat="43.50269165762428" lon="5.879771394459672"><ele>328.0</ele><time>2026-05-01T11:58:11Z</time></trkpt><trkpt lat="43.50278091890971" lon="5.879838976901824"><ele>328.0</ele><time>2026-05-01T11:58:12Z</time></trkpt><trkpt lat="43.50285938418753" lon="5.879912773152236"><ele>328.0</ele><time>2026-05-01T11:58:13Z</time></trkpt><trkpt lat="43.50292660375187" lon="5.880006534463573"><ele>328.0</ele><time>2026-05-01T11:58:14Z</time></trkpt><trkpt lat="43.50297266114793" lon="5.880123168753031"><ele>328.0</ele><time>2026-05-01T11:58:15Z</time></trkpt><trkpt lat="43.503010200666544" lon="5.880270940136168"><ele>327.25</ele><time>2026-05-01T11:58:16Z</time></trkpt><trkpt lat="43.503047747204725" lon="5.880440670200232"><ele>326.5</ele><time>2026-05-01T11:58:17Z</time></trkpt><trkpt lat="43.50309045915315" lon="5.880622376398684"><ele>325.75</ele><time>2026-05-01T11:58:18Z</time></trkpt><trkpt lat="43.50312213646141" lon="5.8807895127613286"><ele>325.0</ele><time>2026-05-01T11:58:19Z</time></trkpt><trkpt lat="43.503154337645014" lon="5.880935435760948"><ele>324.75</ele><time>2026-05-01T11:58:20Z</time></trkpt><trkpt lat="43.50319173611684" lon="5.881088743068043"><ele>324.5</ele><time>2026-05-01T11:58:21Z</time></trkpt><trkpt lat="43.50323299352326" lon="5.88126448403956"><ele>324.25</ele><time>2026-05-01T11:58:22Z</time></trkpt><trkpt lat="43.50328082186678" lon="5.881472009411711"><ele>324.0</ele><time>2026-05-01T11:58:23Z</time></trkpt><trkpt lat="43.503323454256005" lon="5.8816749975510545"><ele>324.0</ele><time>2026-05-01T11:58:24Z</time></trkpt><trkpt lat="43.50335024970792" lon="5.88185806161783"><ele>324.0</ele><time>2026-05-01T11:58:25Z</time></trkpt><trkpt lat="43.503356070103116" lon="5.882029893504073"><ele>324.0</ele><time>2026-05-01T11:58:26Z</time></trkpt><trkpt lat="43.503334644720255" lon="5.88219061022111"><ele>324.0</ele><time>2026-05-01T11:58:27Z</time></trkpt><trkpt lat="43.50330025396171" lon="5.882358194856829"><ele>324.0</ele><time>2026-05-01T11:58:28Z</time></trkpt><trkpt lat="43.503264814045885" lon="5.882567364291072"><ele>324.0</ele><time>2026-05-01T11:58:29Z</time></trkpt><trkpt lat="43.5032471169006" lon="5.8827910216179475"><ele>324.0</ele><time>2026-05-01T11:58:30Z</time></trkpt><trkpt lat="43.50324612898771" lon="5.883010053719327"><ele>323.0</ele><time>2026-05-01T11:58:31Z</time></trkpt><trkpt lat="43.50323849809023" lon="5.88327874575609"><ele>322.0</ele><time>2026-05-01T11:58:32Z</time></trkpt><trkpt lat="43.50323174662718" lon="5.883535168616505"><ele>321.0</ele><time>2026-05-01T11:58:33Z</time></trkpt><trkpt lat="43.50323384451588" lon="5.883774257420135"><ele>321.0</ele><time>2026-05-01T11:58:34Z</time></trkpt><trkpt lat="43.50324014128336" lon="5.8840019183485515"><ele>321.0</ele><time>2026-05-01T11:58:35Z</time></trkpt><trkpt lat="43.50322054954523" lon="5.884221853489299"><ele>321.0</ele><time>2026-05-01T11:58:36Z</time></trkpt><trkpt lat="43.503237526395274" lon="5.884426299772423"><ele>320.3333333333333</ele><time>2026-05-01T11:58:37Z</time></trkpt><trkpt lat="43.503257130834484" lon="5.884620684065464"><ele>319.66666666666663</ele><time>2026-05-01T11:58:38Z</time></trkpt><trkpt lat="43.50327890949144" lon="5.884839739148777"><ele>319.0</ele><time>2026-05-01T11:58:39Z</time></trkpt><trkpt lat="43.50326446106845" lon="5.885084217078344"><ele>316.66666666666663</ele><time>2026-05-01T11:58:40Z</time></trkpt><trkpt lat="43.50325840279084" lon="5.885343709475687"><ele>314.3333333333333</ele><time>2026-05-01T11:58:41Z</time></trkpt><trkpt lat="43.503261566008256" lon="5.885567025071158"><ele>312.0</ele><time>2026-05-01T11:58:42Z</time></trkpt><trkpt lat="43.50325457331287" lon="5.8857592045547396"><ele>310.5</ele><time>2026-05-01T11:58:43Z</time></trkpt><trkpt lat="43.503249149687875" lon="5.885940393616833"><ele>309.0</ele><time>2026-05-01T11:58:44Z</time></trkpt><trkpt lat="43.5032584800826" lon="5.886112571909732"><ele>307.5</ele><time>2026-05-01T11:58:45Z</time></trkpt><trkpt lat="43.503295536054516" lon="5.886282057865845"><ele>306.0</ele><time>2026-05-01T11:58:46Z</time></trkpt><trkpt lat="43.50335337807283" lon="5.886429353854476"><ele>306.0</ele><time>2026-05-01T11:58:47Z</time></trkpt><trkpt lat="43.50340551427847" lon="5.886543080215972"><ele>306.0</ele><time>2026-05-01T11:58:48Z</time></trkpt><trkpt lat="43.503416322195704" lon="5.886631840361131"><ele>306.0</ele><time>2026-05-01T11:58:49Z</time></trkpt><trkpt lat="43.50344623904123" lon="5.886735871871784"><ele>306.0</ele><time>2026-05-01T11:58:51Z</time></trkpt><trkpt lat="43.50351994791756" lon="5.886493116783064"><ele>306.0</ele><time>2026-05-01T11:58:54Z</time></trkpt><trkpt lat="43.50374246751216" lon="5.886331956282355"><ele>307.40000000000003</ele><time>2026-05-01T11:59:04Z</time></trkpt><trkpt lat="43.50378861999064" lon="5.8862535861543845"><ele>308.8</ele><time>2026-05-01T11:59:05Z</time></trkpt><trkpt lat="43.50377794877799" lon="5.886160823256331"><ele>310.20000000000005</ele><time>2026-05-01T11:59:06Z</time></trkpt><trkpt lat="43.50384678436125" lon="5.886046925096514"><ele>311.6</ele><time>2026-05-01T11:59:07Z</time></trkpt><trkpt lat="43.50393074435249" lon="5.885913191195812"><ele>313.0</ele><time>2026-05-01T11:59:08Z</time></trkpt><trkpt lat="43.504030785921664" lon="5.885759809424161"><ele>313.0</ele><time>2026-05-01T11:59:09Z</time></trkpt><trkpt lat="43.504558289385315" lon="5.885985935505505"><ele>313.66666666666663</ele><time>2026-05-01T11:59:10Z</time></trkpt><trkpt lat="43.50470483572346" lon="5.885904456800444"><ele>314.3333333333333</ele><time>2026-05-01T11:59:11Z</time></trkpt><trkpt lat="43.504843055548584" lon="5.885803641480439"><ele>315.0</ele><time>2026-05-01T11:59:12Z</time></trkpt><trkpt lat="43.50497966464164" lon="5.885677354138991"><ele>315.0</ele><time>2026-05-01T11:59:13Z</time></trkpt><trkpt lat="43.5051040800233" lon="5.885552461417263"><ele>315.0</ele><time>2026-05-01T11:59:14Z</time></trkpt><trkpt lat="43.50520828840218" lon="5.885448741737967"><ele>315.0</ele><time>2026-05-01T11:59:15Z</time></trkpt><trkpt lat="43.50530578735359" lon="5.885342430790603"><ele>315.0</ele><time>2026-05-01T11:59:16Z</time></trkpt><trkpt lat="43.5053854843606" lon="5.885224078863183"><ele>316.0</ele><time>2026-05-01T11:59:17Z</time></trkpt><trkpt lat="43.505503584888096" lon="5.885133141903018"><ele>317.0</ele><time>2026-05-01T11:59:18Z</time></trkpt><trkpt lat="43.505582017516915" lon="5.885003923975214"><ele>318.0</ele><time>2026-05-01T11:59:19Z</time></trkpt><trkpt lat="43.50565068484369" lon="5.884907036247268"><ele>319.0</ele><time>2026-05-01T11:59:20Z</time></trkpt><trkpt lat="43.50571598155844" lon="5.88481231759709"><ele>319.0</ele><time>2026-05-01T11:59:21Z</time></trkpt><trkpt lat="43.50580401215846" lon="5.884722213260302"><ele>319.0</ele><time>2026-05-01T11:59:22Z</time></trkpt><trkpt lat="43.50591287019772" lon="5.884615828907429"><ele>319.0</ele><time>2026-05-01T11:59:23Z</time></trkpt><trkpt lat="43.50603040489786" lon="5.8845329711254495"><ele>319.0</ele><time>2026-05-01T11:59:24Z</time></trkpt><trkpt lat="43.50617453490323" lon="5.884599896491253"><ele>320.5</ele><time>2026-05-01T11:59:25Z</time></trkpt><trkpt lat="43.506273947090484" lon="5.884561499876497"><ele>322.0</ele><time>2026-05-01T11:59:26Z</time></trkpt><trkpt lat="43.506397107162016" lon="5.884449180628192"><ele>323.5</ele><time>2026-05-01T11:59:27Z</time></trkpt><trkpt lat="43.506519256872316" lon="5.884414219584915"><ele>325.0</ele><time>2026-05-01T11:59:28Z</time></trkpt><trkpt lat="43.506630214912484" lon="5.884378516755016"><ele>325.0</ele><time>2026-05-01T11:59:29Z</time></trkpt><trkpt lat="43.50673432172142" lon="5.884335555298944"><ele>325.0</ele><time>2026-05-01T11:59:30Z</time></trkpt><trkpt lat="43.50681820877575" lon="5.8842814600975215"><ele>325.0</ele><time>2026-05-01T11:59:31Z</time></trkpt><trkpt lat="43.50686965809854" lon="5.884204291260402"><ele>325.0</ele><time>2026-05-01T11:59:32Z</time></trkpt><trkpt lat="43.506907543315705" lon="5.884118086003707"><ele>325.0</ele><time>2026-05-01T11:59:33Z</time></trkpt><trkpt lat="43.506940758968746" lon="5.8840265071422175"><ele>325.0</ele><time>2026-05-01T11:59:37Z</time></trkpt><trkpt lat="43.506980283605614" lon="5.883941822866863"><ele>324.2</ele><time>2026-05-01T11:59:40Z</time></trkpt><trkpt lat="43.50705431658345" lon="5.883843475151402"><ele>323.4</ele><time>2026-05-01T11:59:42Z</time></trkpt><trkpt lat="43.50711923708016" lon="5.8837852146546235"><ele>322.6</ele><time>2026-05-01T11:59:44Z</time></trkpt><trkpt lat="43.50716160949135" lon="5.88370334037574"><ele>321.8</ele><time>2026-05-01T11:59:46Z</time></trkpt><trkpt lat="43.50722913604824" lon="5.883587550876421"><ele>321.0</ele><time>2026-05-01T11:59:48Z</time></trkpt><trkpt lat="43.50729086604196" lon="5.8834598396924"><ele>321.8</ele><time>2026-05-01T11:59:50Z</time></trkpt><trkpt lat="43.50733788688789" lon="5.883305350778699"><ele>322.6</ele><time>2026-05-01T11:59:52Z</time></trkpt><trkpt lat="43.507387407802526" lon="5.883201261195462"><ele>323.4</ele><time>2026-05-01T11:59:53Z</time></trkpt><trkpt lat="43.50744746078143" lon="5.883119536388837"><ele>324.2</ele><time>2026-05-01T11:59:54Z</time></trkpt><trkpt lat="43.50750581463694" lon="5.883028159691351"><ele>325.0</ele><time>2026-05-01T11:59:55Z</time></trkpt><trkpt lat="43.50761426936311" lon="5.88295200188086"><ele>325.0</ele><time>2026-05-01T11:59:56Z</time></trkpt><trkpt lat="43.50772036829763" lon="5.882904631592952"><ele>325.0</ele><time>2026-05-01T11:59:57Z</time></trkpt><trkpt lat="43.507804176216645" lon="5.882893726256279"><ele>325.0</ele><time>2026-05-01T11:59:58Z</time></trkpt><trkpt lat="43.50788923214882" lon="5.882923102462655"><ele>325.0</ele><time>2026-05-01T11:59:59Z</time></trkpt><trkpt lat="43.507960975257205" lon="5.88294648285161"><ele>325.0</ele><time>2026-05-01T12:00:00Z</time></trkpt><trkpt lat="43.508039745616806" lon="5.8830048325560895"><ele>325.0</ele><time>2026-05-01T12:00:01Z</time></trkpt><trkpt lat="43.50812286064231" lon="5.883103183493352"><ele>325.8</ele><time>2026-05-01T12:00:02Z</time></trkpt><trkpt lat="43.508202470687536" lon="5.8831714196377"><ele>326.6</ele><time>2026-05-01T12:00:03Z</time></trkpt><trkpt lat="43.508236311233425" lon="5.883272457140649"><ele>327.4</ele><time>2026-05-01T12:00:04Z</time></trkpt><trkpt lat="43.50819654958246" lon="5.883399436870566"><ele>328.2</ele><time>2026-05-01T12:00:05Z</time></trkpt><trkpt lat="43.508190396637545" lon="5.88354551320042"><ele>329.0</ele><time>2026-05-01T12:00:06Z</time></trkpt><trkpt lat="43.50817541920489" lon="5.883712072975702"><ele>329.0</ele><time>2026-05-01T12:00:07Z</time></trkpt><trkpt lat="43.508165708908805" lon="5.883858339610234"><ele>329.0</ele><time>2026-05-01T12:00:08Z</time></trkpt><trkpt lat="43.508192826653136" lon="5.883961688310663"><ele>329.0</ele><time>2026-05-01T12:00:09Z</time></trkpt><trkpt lat="43.508239849472425" lon="5.884053170048846"><ele>329.0</ele><time>2026-05-01T12:00:10Z</time></trkpt><trkpt lat="43.50831586229582" lon="5.884100051537857"><ele>329.0</ele><time>2026-05-01T12:00:11Z</time></trkpt><trkpt lat="43.508405447041675" lon="5.884155614536419"><ele>329.0</ele><time>2026-05-01T12:00:12Z</time></trkpt><trkpt lat="43.50846951932677" lon="5.8841993304066245"><ele>329.0</ele><time>2026-05-01T12:00:13Z</time></trkpt><trkpt lat="43.508559685306714" lon="5.884260844315946"><ele>329.0</ele><time>2026-05-01T12:00:15Z</time></trkpt><trkpt lat="43.50862201796179" lon="5.884282299100972"><ele>329.0</ele><time>2026-05-01T12:00:29Z</time></trkpt><trkpt lat="43.50874300785718" lon="5.884396221536795"><ele>329.0</ele><time>2026-05-01T12:00:31Z</time></trkpt><trkpt lat="43.50883229500522" lon="5.884473599372305"><ele>329.0</ele><time>2026-05-01T12:00:32Z</time></trkpt><trkpt lat="43.50894182534167" lon="5.884561187970675"><ele>331.79999999999995</ele><time>2026-05-01T12:00:33Z</time></trkpt><trkpt lat="43.50905051671822" lon="5.884639495390715"><ele>334.59999999999997</ele><time>2026-05-01T12:00:34Z</time></trkpt><trkpt lat="43.509115620960635" lon="5.884718962995822"><ele>337.4</ele><time>2026-05-01T12:00:35Z</time></trkpt><trkpt lat="43.509152676379315" lon="5.884813251142572"><ele>340.2</ele><time>2026-05-01T12:00:36Z</time></trkpt><trkpt lat="43.50920752910421" lon="5.8848923027499245"><ele>343.0</ele><time>2026-05-01T12:00:37Z</time></trkpt><trkpt lat="43.50928744287389" lon="5.8849635234400415"><ele>343.0</ele><time>2026-05-01T12:00:38Z</time></trkpt><trkpt lat="43.50938438076987" lon="5.8850038170692"><ele>343.0</ele><time>2026-05-01T12:00:39Z</time></trkpt><trkpt lat="43.50946218173817" lon="5.885025548127809"><ele>343.0</ele><time>2026-05-01T12:00:40Z</time></trkpt><trkpt lat="43.509565847033834" lon="5.8849972912295625"><ele>343.0</ele><time>2026-05-01T12:00:41Z</time></trkpt><trkpt lat="43.50969637434522" lon="5.884984250546566"><ele>343.0</ele><time>2026-05-01T12:00:42Z</time></trkpt><trkpt lat="43.50985316695737" lon="5.884970538667595"><ele>342.59999999999997</ele><time>2026-05-01T12:00:43Z</time></trkpt><trkpt lat="43.50997885833952" lon="5.884964035998104"><ele>342.2</ele><time>2026-05-01T12:00:44Z</time></trkpt><trkpt lat="43.510084410374375" lon="5.884970317237847"><ele>341.8</ele><time>2026-05-01T12:00:45Z</time></trkpt><trkpt lat="43.51017632990455" lon="5.884990426886432"><ele>341.4</ele><time>2026-05-01T12:00:46Z</time></trkpt><trkpt lat="43.510248326849364" lon="5.8850299659785295"><ele>341.0</ele><time>2026-05-01T12:00:47Z</time></trkpt><trkpt lat="43.51032537084946" lon="5.885072038588317"><ele>343.75</ele><time>2026-05-01T12:00:48Z</time></trkpt><trkpt lat="43.5104313066582" lon="5.885131217472757"><ele>346.5</ele><time>2026-05-01T12:00:49Z</time></trkpt><trkpt lat="43.51053989101154" lon="5.885216772744172"><ele>349.25</ele><time>2026-05-01T12:00:50Z</time></trkpt><trkpt lat="43.5106452234792" lon="5.8853084366746655"><ele>352.0</ele><time>2026-05-01T12:00:51Z</time></trkpt><trkpt lat="43.51073865255502" lon="5.88538272019225"><ele>352.0</ele><time>2026-05-01T12:00:52Z</time></trkpt><trkpt lat="43.51080781302694" lon="5.885444886649254"><ele>352.0</ele><time>2026-05-01T12:00:53Z</time></trkpt><trkpt lat="43.51087982519508" lon="5.885524992137099"><ele>352.0</ele><time>2026-05-01T12:00:54Z</time></trkpt><trkpt lat="43.51092647271006" lon="5.885664827640314"><ele>352.0</ele><time>2026-05-01T12:00:55Z</time></trkpt><trkpt lat="43.51096556276846" lon="5.885754259928963"><ele>352.0</ele><time>2026-05-01T12:00:56Z</time></trkpt><trkpt lat="43.511003794639215" lon="5.885863270492732"><ele>353.75</ele><time>2026-05-01T12:00:57Z</time></trkpt><trkpt lat="43.51101724738648" lon="5.885996665476936"><ele>355.5</ele><time>2026-05-01T12:00:58Z</time></trkpt><trkpt lat="43.511027859636094" lon="5.886175673339474"><ele>357.25</ele><time>2026-05-01T12:00:59Z</time></trkpt><trkpt lat="43.511008447345176" lon="5.8863457450241405"><ele>359.0</ele><time>2026-05-01T12:01:00Z</time></trkpt><trkpt lat="43.51099454107964" lon="5.8864961367454764"><ele>359.0</ele><time>2026-05-01T12:01:01Z</time></trkpt><trkpt lat="43.51098424364009" lon="5.886617027691714"><ele>359.0</ele><time>2026-05-01T12:01:02Z</time></trkpt><trkpt lat="43.511003754753276" lon="5.886715485625285"><ele>359.0</ele><time>2026-05-01T12:01:03Z</time></trkpt><trkpt lat="43.5110516175136" lon="5.8867824191111175"><ele>359.0</ele><time>2026-05-01T12:01:04Z</time></trkpt><trkpt lat="43.51113055155999" lon="5.886789284487115"><ele>359.0</ele><time>2026-05-01T12:01:05Z</time></trkpt><trkpt lat="43.511233614016845" lon="5.886771847608821"><ele>359.0</ele><time>2026-05-01T12:01:06Z</time></trkpt><trkpt lat="43.51132888716728" lon="5.886768878870388"><ele>359.4</ele><time>2026-05-01T12:01:07Z</time></trkpt><trkpt lat="43.511397852413346" lon="5.88680813195793"><ele>359.79999999999995</ele><time>2026-05-01T12:01:08Z</time></trkpt><trkpt lat="43.51147936507691" lon="5.886946237210343"><ele>360.20000000000005</ele><time>2026-05-01T12:01:10Z</time></trkpt><trkpt lat="43.51151589194507" lon="5.887055973984583"><ele>360.6</ele><time>2026-05-01T12:01:11Z</time></trkpt><trkpt lat="43.511551972156965" lon="5.887132855385361"><ele>361.0</ele><time>2026-05-01T12:01:12Z</time></trkpt><trkpt lat="43.511693054255" lon="5.8871082025664645"><ele>361.0</ele><time>2026-05-01T12:01:14Z</time></trkpt><trkpt lat="43.51179721742204" lon="5.8870725273769136"><ele>361.0</ele><time>2026-05-01T12:01:15Z</time></trkpt><trkpt lat="43.5119174406582" lon="5.887069472945408"><ele>361.0</ele><time>2026-05-01T12:01:16Z</time></trkpt><trkpt lat="43.51204086976809" lon="5.887094188945183"><ele>361.0</ele><time>2026-05-01T12:01:17Z</time></trkpt><trkpt lat="43.51215547072765" lon="5.887114406616749"><ele>360.4</ele><time>2026-05-01T12:01:18Z</time></trkpt><trkpt lat="43.51222195846911" lon="5.887115838328386"><ele>359.8</ele><time>2026-05-01T12:01:19Z</time></trkpt><trkpt lat="43.51231732957502" lon="5.887134691303131"><ele>359.2</ele><time>2026-05-01T12:01:21Z</time></trkpt><trkpt lat="43.51239502281695" lon="5.887118095234659"><ele>358.59999999999997</ele><time>2026-05-01T12:01:28Z</time></trkpt><trkpt lat="43.51244534145287" lon="5.887028717199514"><ele>358.0</ele><time>2026-05-01T12:01:31Z</time></trkpt><trkpt lat="43.51256783024607" lon="5.886952743864253"><ele>358.0</ele><time>2026-05-01T12:01:33Z</time></trkpt><trkpt lat="43.51269706523175" lon="5.8868729846345245"><ele>358.0</ele><time>2026-05-01T12:01:35Z</time></trkpt><trkpt lat="43.512800526895596" lon="5.886814099523642"><ele>358.0</ele><time>2026-05-01T12:01:36Z</time></trkpt><trkpt lat="43.51292266871743" lon="5.886763487727106"><ele>358.0</ele><time>2026-05-01T12:01:37Z</time></trkpt><trkpt lat="43.51301755769863" lon="5.88674888362509"><ele>359.59999999999997</ele><time>2026-05-01T12:01:38Z</time></trkpt><trkpt lat="43.51310115222473" lon="5.886753323178623"><ele>361.2</ele><time>2026-05-01T12:01:39Z</time></trkpt><trkpt lat="43.513189256679404" lon="5.886775425738535"><ele>362.8</ele><time>2026-05-01T12:01:40Z</time></trkpt><trkpt lat="43.51328106514778" lon="5.886827919981112"><ele>364.4</ele><time>2026-05-01T12:01:41Z</time></trkpt><trkpt lat="43.51338248895567" lon="5.886892932872559"><ele>366.0</ele><time>2026-05-01T12:01:42Z</time></trkpt><trkpt lat="43.513458138154306" lon="5.8869497584857005"><ele>366.0</ele><time>2026-05-01T12:01:43Z</time></trkpt><trkpt lat="43.51353399121552" lon="5.886970445773881"><ele>366.0</ele><time>2026-05-01T12:01:44Z</time></trkpt><trkpt lat="43.51362269351578" lon="5.886947294793198"><ele>366.0</ele><time>2026-05-01T12:01:45Z</time></trkpt><trkpt lat="43.51372820429839" lon="5.886878129101447"><ele>366.0</ele><time>2026-05-01T12:01:46Z</time></trkpt><trkpt lat="43.513823302093314" lon="5.8867706475068715"><ele>366.0</ele><time>2026-05-01T12:01:47Z</time></trkpt><trkpt lat="43.51390542608461" lon="5.886703345824303"><ele>368.25</ele><time>2026-05-01T12:01:48Z</time></trkpt><trkpt lat="43.5139955136844" lon="5.8866501981590185"><ele>370.5</ele><time>2026-05-01T12:01:49Z</time></trkpt><trkpt lat="43.514107262555825" lon="5.886600433600577"><ele>372.75</ele><time>2026-05-01T12:01:50Z</time></trkpt><trkpt lat="43.5142338316299" lon="5.886549217960425"><ele>375.0</ele><time>2026-05-01T12:01:51Z</time></trkpt><trkpt lat="43.514377643662215" lon="5.886480719657493"><ele>375.0</ele><time>2026-05-01T12:01:52Z</time></trkpt><trkpt lat="43.51449735687301" lon="5.886403374634224"><ele>375.0</ele><time>2026-05-01T12:01:53Z</time></trkpt><trkpt lat="43.51459121142512" lon="5.88633764643084"><ele>375.0</ele><time>2026-05-01T12:01:54Z</time></trkpt><trkpt lat="43.51468222274961" lon="5.886293066316072"><ele>375.0</ele><time>2026-05-01T12:01:55Z</time></trkpt><trkpt lat="43.51479675379592" lon="5.886261390639651"><ele>377.0</ele><time>2026-05-01T12:01:56Z</time></trkpt><trkpt lat="43.51490632214009" lon="5.886239563894376"><ele>379.0</ele><time>2026-05-01T12:01:57Z</time></trkpt><trkpt lat="43.51502029531904" lon="5.886214279749879"><ele>381.0</ele><time>2026-05-01T12:01:58Z</time></trkpt><trkpt lat="43.5151430595816" lon="5.8861643326528155"><ele>383.0</ele><time>2026-05-01T12:01:59Z</time></trkpt><trkpt lat="43.51525876171677" lon="5.886087595640069"><ele>383.0</ele><time>2026-05-01T12:02:00Z</time></trkpt><trkpt lat="43.515385612818754" lon="5.886020479847248"><ele>383.0</ele><time>2026-05-01T12:02:01Z</time></trkpt><trkpt lat="43.51550224376204" lon="5.885970180048538"><ele>383.0</ele><time>2026-05-01T12:02:02Z</time></trkpt><trkpt lat="43.51560114950991" lon="5.8859434976449805"><ele>383.0</ele><time>2026-05-01T12:02:03Z</time></trkpt><trkpt lat="43.51569645543761" lon="5.885903999804963"><ele>383.6666666666667</ele><time>2026-05-01T12:02:04Z</time></trkpt><trkpt lat="43.51577905344589" lon="5.8858524224927145"><ele>384.33333333333337</ele><time>2026-05-01T12:02:05Z</time></trkpt><trkpt lat="43.51585586938271" lon="5.885757027911833"><ele>385.0</ele><time>2026-05-01T12:02:06Z</time></trkpt><trkpt lat="43.5159235735829" lon="5.8856707399084875"><ele>385.6666666666667</ele><time>2026-05-01T12:02:07Z</time></trkpt><trkpt lat="43.51597837324528" lon="5.885616556180954"><ele>386.3333333333333</ele><time>2026-05-01T12:02:08Z</time></trkpt><trkpt lat="43.516061083061395" lon="5.885564303054877"><ele>387.0</ele><time>2026-05-01T12:02:09Z</time></trkpt><trkpt lat="43.51614622101469" lon="5.8855255276422564"><ele>388.0</ele><time>2026-05-01T12:02:10Z</time></trkpt><trkpt lat="43.51624044161609" lon="5.885488595617254"><ele>389.0</ele><time>2026-05-01T12:02:11Z</time></trkpt><trkpt lat="43.516351410875444" lon="5.885456058073365"><ele>390.0</ele><time>2026-05-01T12:02:12Z</time></trkpt><trkpt lat="43.51645553986613" lon="5.885434604823305"><ele>391.0</ele><time>2026-05-01T12:02:13Z</time></trkpt><trkpt lat="43.51655791095866" lon="5.885422920903588"><ele>392.0</ele><time>2026-05-01T12:02:14Z</time></trkpt><trkpt lat="43.51667954201775" lon="5.885435411343918"><ele>392.0</ele><time>2026-05-01T12:02:15Z</time></trkpt><trkpt lat="43.51679459721174" lon="5.885463866876617"><ele>392.0</ele><time>2026-05-01T12:02:16Z</time></trkpt><trkpt lat="43.51691082077402" lon="5.885496697981984"><ele>392.0</ele><time>2026-05-01T12:02:17Z</time></trkpt><trkpt lat="43.51701616458485" lon="5.885518525227729"><ele>392.0</ele><time>2026-05-01T12:02:18Z</time></trkpt><trkpt lat="43.517109310762336" lon="5.885533890515699"><ele>392.0</ele><time>2026-05-01T12:02:19Z</time></trkpt><trkpt lat="43.51720608127687" lon="5.885555032346703"><ele>393.20000000000005</ele><time>2026-05-01T12:02:20Z</time></trkpt><trkpt lat="43.517318199102576" lon="5.885571746335154"><ele>394.4</ele><time>2026-05-01T12:02:21Z</time></trkpt><trkpt lat="43.51743557550313" lon="5.885599975695541"><ele>395.6</ele><time>2026-05-01T12:02:22Z</time></trkpt><trkpt lat="43.517530297265836" lon="5.88563020876372"><ele>396.79999999999995</ele><time>2026-05-01T12:02:23Z</time></trkpt><trkpt lat="43.51761543896556" lon="5.885670224442991"><ele>398.0</ele><time>2026-05-01T12:02:24Z</time></trkpt><trkpt lat="43.517688636995054" lon="5.8856684260526295"><ele>397.99999999999994</ele><time>2026-05-01T12:02:25Z</time></trkpt><trkpt lat="43.51775583517779" lon="5.885637446002558"><ele>398.0</ele><time>2026-05-01T12:02:26Z</time></trkpt><trkpt lat="43.517828613062804" lon="5.885583416853542"><ele>398.0</ele><time>2026-05-01T12:02:27Z</time></trkpt><trkpt lat="43.51791920846919" lon="5.885515968480705"><ele>398.0</ele><time>2026-05-01T12:02:28Z</time></trkpt><trkpt lat="43.51798656460648" lon="5.8854892199865905"><ele>397.99999999999994</ele><time>2026-05-01T12:02:29Z</time></trkpt><trkpt lat="43.5180554904767" lon="5.885487488416411"><ele>398.0</ele><time>2026-05-01T12:02:30Z</time></trkpt><trkpt lat="43.51813532543358" lon="5.8855312155539865"><ele>399.0</ele><time>2026-05-01T12:02:31Z</time></trkpt><trkpt lat="43.51821908965884" lon="5.885591903567251"><ele>400.0</ele><time>2026-05-01T12:02:32Z</time></trkpt><trkpt lat="43.51832071563817" lon="5.885667944552137"><ele>401.0</ele><time>2026-05-01T12:02:33Z</time></trkpt><trkpt lat="43.51842821044013" lon="5.88575498713104"><ele>402.0</ele><time>2026-05-01T12:02:34Z</time></trkpt><trkpt lat="43.518525027656956" lon="5.885807586226011"><ele>403.0</ele><time>2026-05-01T12:02:35Z</time></trkpt><trkpt lat="43.518635792871606" lon="5.8858432003964"><ele>404.4</ele><time>2026-05-01T12:02:36Z</time></trkpt><trkpt lat="43.5187373543241" lon="5.885868966023427"><ele>405.79999999999995</ele><time>2026-05-01T12:02:37Z</time></trkpt><trkpt lat="43.51882977027332" lon="5.885888732432835"><ele>407.2</ele><time>2026-05-01T12:02:38Z</time></trkpt><trkpt lat="43.51891336554369" lon="5.885934633915263"><ele>408.6</ele><time>2026-05-01T12:02:39Z</time></trkpt><trkpt lat="43.519010556664675" lon="5.886000509226165"><ele>410.0</ele><time>2026-05-01T12:02:40Z</time></trkpt><trkpt lat="43.51912618166734" lon="5.886083934534396"><ele>410.2</ele><time>2026-05-01T12:02:41Z</time></trkpt><trkpt lat="43.5192272009215" lon="5.886126335214197"><ele>410.4</ele><time>2026-05-01T12:02:42Z</time></trkpt><trkpt lat="43.51931672795422" lon="5.886160336695437"><ele>410.6</ele><time>2026-05-01T12:02:43Z</time></trkpt><trkpt lat="43.519399334790016" lon="5.886228493834914"><ele>410.8</ele><time>2026-05-01T12:02:44Z</time></trkpt><trkpt lat="43.519480591071115" lon="5.886285734997022"><ele>411.0</ele><time>2026-05-01T12:02:45Z</time></trkpt><trkpt lat="43.519577949704356" lon="5.886339763530652"><ele>412.6</ele><time>2026-05-01T12:02:46Z</time></trkpt><trkpt lat="43.51967155817997" lon="5.886383084580423"><ele>414.20000000000005</ele><time>2026-05-01T12:02:47Z</time></trkpt><trkpt lat="43.51974995877624" lon="5.886418301663619"><ele>415.79999999999995</ele><time>2026-05-01T12:02:48Z</time></trkpt><trkpt lat="43.51987354847073" lon="5.886338367459798"><ele>417.4</ele><time>2026-05-01T12:02:50Z</time></trkpt><trkpt lat="43.51994192984097" lon="5.886277830471478"><ele>419.0</ele><time>2026-05-01T12:02:51Z</time></trkpt><trkpt lat="43.52001496549507" lon="5.886230570419835"><ele>419.0</ele><time>2026-05-01T12:02:52Z</time></trkpt><trkpt lat="43.52011746501953" lon="5.88619682331756"><ele>419.0</ele><time>2026-05-01T12:02:53Z</time></trkpt><trkpt lat="43.520190667782735" lon="5.886187871664162"><ele>419.0</ele><time>2026-05-01T12:02:54Z</time></trkpt><trkpt lat="43.52032951719425" lon="5.886185308173324"><ele>419.0</ele><time>2026-05-01T12:02:56Z</time></trkpt><trkpt lat="43.52042973387505" lon="5.88620882477387"><ele>419.0</ele><time>2026-05-01T12:02:57Z</time></trkpt><trkpt lat="43.52052376929366" lon="5.886238137190762"><ele>420.49999999999994</ele><time>2026-05-01T12:02:58Z</time></trkpt><trkpt lat="43.52059533046727" lon="5.8862724891305245"><ele>422.0</ele><time>2026-05-01T12:02:59Z</time></trkpt><trkpt lat="43.52066854414032" lon="5.886322218907362"><ele>423.5</ele><time>2026-05-01T12:03:00Z</time></trkpt><trkpt lat="43.52073953909486" lon="5.886360463822945"><ele>425.0</ele><time>2026-05-01T12:03:01Z</time></trkpt><trkpt lat="43.52080750604506" lon="5.8863512972435785"><ele>426.49999999999994</ele><time>2026-05-01T12:03:02Z</time></trkpt><trkpt lat="43.52087229547456" lon="5.886320868083671"><ele>428.0</ele><time>2026-05-01T12:03:03Z</time></trkpt><trkpt lat="43.52095912287037" lon="5.886281731450081"><ele>428.0</ele><time>2026-05-01T12:03:04Z</time></trkpt><trkpt lat="43.52104713221071" lon="5.886269977705588"><ele>427.99999999999994</ele><time>2026-05-01T12:03:05Z</time></trkpt><trkpt lat="43.521117979694196" lon="5.886299588705908"><ele>427.99999999999994</ele><time>2026-05-01T12:03:06Z</time></trkpt><trkpt lat="43.52122490487132" lon="5.886304939511057"><ele>428.0</ele><time>2026-05-01T12:03:07Z</time></trkpt><trkpt lat="43.5213293731085" lon="5.886287430214922"><ele>428.0</ele><time>2026-05-01T12:03:08Z</time></trkpt><trkpt lat="43.52142009266048" lon="5.886276266119073"><ele>430.2</ele><time>2026-05-01T12:03:09Z</time></trkpt><trkpt lat="43.52152485182503" lon="5.886285238939503"><ele>432.4</ele><time>2026-05-01T12:03:10Z</time></trkpt><trkpt lat="43.5216364017354" lon="5.8863024668899575"><ele>434.59999999999997</ele><time>2026-05-01T12:03:11Z</time></trkpt><trkpt lat="43.52174807491571" lon="5.886290581554298"><ele>436.79999999999995</ele><time>2026-05-01T12:03:12Z</time></trkpt><trkpt lat="43.521836849170526" lon="5.886290218336816"><ele>439.0</ele><time>2026-05-01T12:03:13Z</time></trkpt><trkpt lat="43.52193130969295" lon="5.88630962457188"><ele>439.0</ele><time>2026-05-01T12:03:14Z</time></trkpt><trkpt lat="43.522029416288824" lon="5.88633625330605"><ele>439.0</ele><time>2026-05-01T12:03:15Z</time></trkpt><trkpt lat="43.5221422494149" lon="5.886364221667671"><ele>439.0</ele><time>2026-05-01T12:03:16Z</time></trkpt><trkpt lat="43.522287298188715" lon="5.886384073152112"><ele>439.0</ele><time>2026-05-01T12:03:17Z</time></trkpt><trkpt lat="43.52243921609268" lon="5.886398753417399"><ele>440.79999999999995</ele><time>2026-05-01T12:03:18Z</time></trkpt><trkpt lat="43.52256060228476" lon="5.886412134470004"><ele>442.59999999999997</ele><time>2026-05-01T12:03:19Z</time></trkpt><trkpt lat="43.52267094144678" lon="5.886412613116186"><ele>444.4</ele><time>2026-05-01T12:03:20Z</time></trkpt><trkpt lat="43.5227646405369" lon="5.886403220505181"><ele>446.2</ele><time>2026-05-01T12:03:21Z</time></trkpt><trkpt lat="43.52283816762964" lon="5.886390989654758"><ele>448.0</ele><time>2026-05-01T12:03:22Z</time></trkpt><trkpt lat="43.52293968393652" lon="5.886328327631479"><ele>449.0</ele><time>2026-05-01T12:03:24Z</time></trkpt><trkpt lat="43.523034514573055" lon="5.886179836128901"><ele>449.99999999999994</ele><time>2026-05-01T12:03:26Z</time></trkpt><trkpt lat="43.52310460616251" lon="5.886074848217571"><ele>450.99999999999994</ele><time>2026-05-01T12:03:27Z</time></trkpt><trkpt lat="43.523180064797394" lon="5.886014738524773"><ele>452.0</ele><time>2026-05-01T12:03:28Z</time></trkpt><trkpt lat="43.523250092194566" lon="5.88599186352579"><ele>453.0</ele><time>2026-05-01T12:03:29Z</time></trkpt><trkpt lat="43.52333948392903" lon="5.8859145070529175"><ele>453.59999999999997</ele><time>2026-05-01T12:03:31Z</time></trkpt><trkpt lat="43.523355463449185" lon="5.885830327792926"><ele>454.19999999999993</ele><time>2026-05-01T12:03:32Z</time></trkpt><trkpt lat="43.52339278538826" lon="5.885713884166812"><ele>454.8</ele><time>2026-05-01T12:03:33Z</time></trkpt><trkpt lat="43.52345581209469" lon="5.8855862685616565"><ele>455.4</ele><time>2026-05-01T12:03:34Z</time></trkpt><trkpt lat="43.52357871466009" lon="5.88550934834032"><ele>456.0</ele><time>2026-05-01T12:03:36Z</time></trkpt><trkpt lat="43.523643971257144" lon="5.885420710520104"><ele>456.0</ele><time>2026-05-01T12:03:37Z</time></trkpt><trkpt lat="43.5236987086349" lon="5.8852857196523045"><ele>456.0</ele><time>2026-05-01T12:03:38Z</time></trkpt><trkpt lat="43.52374378498831" lon="5.885159872132401"><ele>456.0</ele><time>2026-05-01T12:03:39Z</time></trkpt><trkpt lat="43.52378496025214" lon="5.885087716951646"><ele>456.0</ele><time>2026-05-01T12:03:40Z</time></trkpt><trkpt lat="43.52384284838441" lon="5.885033705772768"><ele>456.0</ele><time>2026-05-01T12:03:41Z</time></trkpt><trkpt lat="43.52400175936299" lon="5.885021567344429"><ele>458.66666666666663</ele><time>2026-05-01T12:03:43Z</time></trkpt><trkpt lat="43.52414608281972" lon="5.885013459065183"><ele>461.3333333333333</ele><time>2026-05-01T12:03:44Z</time></trkpt><trkpt lat="43.52431070391504" lon="5.884991821787607"><ele>464.0</ele><time>2026-05-01T12:03:45Z</time></trkpt><trkpt lat="43.524483024338366" lon="5.884960141183767"><ele>464.0</ele><time>2026-05-01T12:03:46Z</time></trkpt><trkpt lat="43.52463377263614" lon="5.8849271052477965"><ele>464.0</ele><time>2026-05-01T12:03:47Z</time></trkpt><trkpt lat="43.524748742414765" lon="5.8848988937508535"><ele>464.0</ele><time>2026-05-01T12:03:48Z</time></trkpt><trkpt lat="43.52481460970574" lon="5.8848848191661585"><ele>464.0</ele><time>2026-05-01T12:03:49Z</time></trkpt><trkpt lat="43.52482697426367" lon="5.884975263046696"><ele>464.0</ele><time>2026-05-01T12:04:38Z</time></trkpt><trkpt lat="43.52477951693978" lon="5.885085824157065"><ele>463.8333333333333</ele><time>2026-05-01T12:04:41Z</time></trkpt><trkpt lat="43.52474698435409" lon="5.8851747712345395"><ele>463.66666666666663</ele><time>2026-05-01T12:04:43Z</time></trkpt><trkpt lat="43.52468512070584" lon="5.8851222272792505"><ele>463.5</ele><time>2026-05-01T12:04:46Z</time></trkpt><trkpt lat="43.52464382515299" lon="5.885245600004722"><ele>463.33333333333337</ele><time>2026-05-01T12:04:49Z</time></trkpt><trkpt lat="43.524572983797526" lon="5.885305329857412"><ele>463.1666666666667</ele><time>2026-05-01T12:04:51Z</time></trkpt><trkpt lat="43.52453645688459" lon="5.885419010889937"><ele>463.0</ele><time>2026-05-01T12:04:53Z</time></trkpt><trkpt lat="43.52453252452075" lon="5.885574870508434"><ele>463.00000000000006</ele><time>2026-05-01T12:04:55Z</time></trkpt><trkpt lat="43.524522816842364" lon="5.885699371323474"><ele>463.0</ele><time>2026-05-01T12:04:57Z</time></trkpt><trkpt lat="43.52454160331672" lon="5.885800001667757"><ele>463.0</ele><time>2026-05-01T12:04:59Z</time></trkpt><trkpt lat="43.524566355300244" lon="5.885925371979518"><ele>463.0</ele><time>2026-05-01T12:05:03Z</time></trkpt><trkpt lat="43.52458965279509" lon="5.886014516181724"><ele>463.00000000000006</ele><time>2026-05-01T12:05:05Z</time></trkpt><trkpt lat="43.524623755715865" lon="5.886114064443702"><ele>463.0</ele><time>2026-05-01T12:05:10Z</time></trkpt><trkpt lat="43.52462386951998" lon="5.886228990891608"><ele>462.50000000000006</ele><time>2026-05-01T12:05:13Z</time></trkpt><trkpt lat="43.52461690355016" lon="5.886343930484926"><ele>462.0</ele><time>2026-05-01T12:05:15Z</time></trkpt><trkpt lat="43.52465164650542" lon="5.886496678415196"><ele>461.5</ele><time>2026-05-01T12:05:18Z</time></trkpt><trkpt lat="43.524678215641714" lon="5.886611881859428"><ele>461.0</ele><time>2026-05-01T12:05:20Z</time></trkpt><trkpt lat="43.524709417637" lon="5.8866874216802305"><ele>460.50000000000006</ele><time>2026-05-01T12:05:22Z</time></trkpt><trkpt lat="43.52476080374182" lon="5.886784078156524"><ele>460.0</ele><time>2026-05-01T12:05:24Z</time></trkpt><trkpt lat="43.52472957765604" lon="5.886881876512193"><ele>459.1666666666667</ele><time>2026-05-01T12:05:28Z</time></trkpt><trkpt lat="43.52470135808458" lon="5.886998880993745"><ele>458.33333333333337</ele><time>2026-05-01T12:05:31Z</time></trkpt><trkpt lat="43.52463836234585" lon="5.887074368634635"><ele>457.5</ele><time>2026-05-01T12:05:33Z</time></trkpt><trkpt lat="43.52456067603627" lon="5.887099966651048"><ele>456.66666666666663</ele><time>2026-05-01T12:05:35Z</time></trkpt><trkpt lat="43.52453752211766" lon="5.887219625307537"><ele>455.8333333333333</ele><time>2026-05-01T12:05:38Z</time></trkpt><trkpt lat="43.52448505066173" lon="5.8873103215711815"><ele>455.0</ele><time>2026-05-01T12:05:40Z</time></trkpt><trkpt lat="43.524432751480575" lon="5.887381871388751"><ele>454.3333333333333</ele><time>2026-05-01T12:05:46Z</time></trkpt><trkpt lat="43.5243595519542" lon="5.887449733971245"><ele>453.66666666666663</ele><time>2026-05-01T12:05:48Z</time></trkpt><trkpt lat="43.52431417578428" lon="5.887538336419385"><ele>453.0</ele><time>2026-05-01T12:05:50Z</time></trkpt><trkpt lat="43.52422661233406" lon="5.887572226158803"><ele>452.33333333333337</ele><time>2026-05-01T12:05:52Z</time></trkpt><trkpt lat="43.52415815117641" lon="5.887562466542521"><ele>451.6666666666667</ele><time>2026-05-01T12:05:54Z</time></trkpt><trkpt lat="43.52408753029159" lon="5.887565822025846"><ele>451.0</ele><time>2026-05-01T12:05:58Z</time></trkpt><trkpt lat="43.52404039602319" lon="5.887639426595806"><ele>450.00000000000006</ele><time>2026-05-01T12:06:02Z</time></trkpt><trkpt lat="43.52397288160824" lon="5.887686721821054"><ele>449.0</ele><time>2026-05-01T12:06:04Z</time></trkpt><trkpt lat="43.52394892179289" lon="5.8878300360642015"><ele>448.0</ele><time>2026-05-01T12:06:06Z</time></trkpt><trkpt lat="43.52396267407384" lon="5.887920192294119"><ele>447.0</ele><time>2026-05-01T12:06:09Z</time></trkpt><trkpt lat="43.52394195433253" lon="5.88800823509938"><ele>446.00000000000006</ele><time>2026-05-01T12:06:15Z</time></trkpt><trkpt lat="43.523919481252655" lon="5.888110109107036"><ele>445.0</ele><time>2026-05-01T12:07:23Z</time></trkpt><trkpt lat="43.523861911944564" lon="5.888197815425057"><ele>445.00000000000006</ele><time>2026-05-01T12:07:26Z</time></trkpt><trkpt lat="43.52378265107757" lon="5.888205777951042"><ele>445.0</ele><time>2026-05-01T12:07:28Z</time></trkpt><trkpt lat="43.52371991058541" lon="5.888243162385537"><ele>445.0</ele><time>2026-05-01T12:07:30Z</time></trkpt><trkpt lat="43.52368084643854" lon="5.8883513667300065"><ele>445.0</ele><time>2026-05-01T12:07:33Z</time></trkpt><trkpt lat="43.52361699612681" lon="5.8884352565472895"><ele>445.00000000000006</ele><time>2026-05-01T12:07:36Z</time></trkpt><trkpt lat="43.523537824453015" lon="5.8884451672732165"><ele>445.0</ele><time>2026-05-01T12:07:38Z</time></trkpt><trkpt lat="43.52348900844771" lon="5.888543699322891"><ele>442.0</ele><time>2026-05-01T12:07:42Z</time></trkpt><trkpt lat="43.52344647644767" lon="5.888613121921802"><ele>439.0</ele><time>2026-05-01T12:07:45Z</time></trkpt><trkpt lat="43.52339959230956" lon="5.8887047297273005"><ele>436.0</ele><time>2026-05-01T12:07:47Z</time></trkpt><trkpt lat="43.52334462801951" lon="5.888792554812708"><ele>433.0</ele><time>2026-05-01T12:07:58Z</time></trkpt><trkpt lat="43.52327468274619" lon="5.88892381396871"><ele>430.0</ele><time>2026-05-01T12:08:01Z</time></trkpt><trkpt lat="43.52319401927252" lon="5.889066846437023"><ele>430.0</ele><time>2026-05-01T12:08:03Z</time></trkpt><trkpt lat="43.52310335674758" lon="5.889254926209686"><ele>430.0</ele><time>2026-05-01T12:08:05Z</time></trkpt><trkpt lat="43.52304561411083" lon="5.889345308617534"><ele>430.0</ele><time>2026-05-01T12:08:06Z</time></trkpt><trkpt lat="43.52296788827183" lon="5.889460798687185"><ele>430.0</ele><time>2026-05-01T12:08:08Z</time></trkpt><trkpt lat="43.52290759236775" lon="5.889500577762788"><ele>430.0</ele><time>2026-05-01T12:08:09Z</time></trkpt><trkpt lat="43.52285647661038" lon="5.889556713267858"><ele>428.0</ele><time>2026-05-01T12:08:10Z</time></trkpt><trkpt lat="43.52280980262472" lon="5.889634412921133"><ele>426.0</ele><time>2026-05-01T12:08:11Z</time></trkpt><trkpt lat="43.52276795257105" lon="5.8897709949783685"><ele>424.0</ele><time>2026-05-01T12:08:13Z</time></trkpt><trkpt lat="43.52270925669114" lon="5.889908792601102"><ele>422.0</ele><time>2026-05-01T12:08:15Z</time></trkpt><trkpt lat="43.52263788932179" lon="5.889975915443512"><ele>420.0</ele><time>2026-05-01T12:08:17Z</time></trkpt><trkpt lat="43.522572919923476" lon="5.890088289940489"><ele>421.75</ele><time>2026-05-01T12:08:41Z</time></trkpt><trkpt lat="43.522577076817534" lon="5.890180039352708"><ele>423.5</ele><time>2026-05-01T12:08:46Z</time></trkpt><trkpt lat="43.52274497273476" lon="5.89020297928049"><ele>425.25</ele><time>2026-05-01T12:08:48Z</time></trkpt><trkpt lat="43.522874929920484" lon="5.890224404441136"><ele>427.0</ele><time>2026-05-01T12:08:49Z</time></trkpt><trkpt lat="43.52300816200478" lon="5.890269858218193"><ele>427.40000000000003</ele><time>2026-05-01T12:08:50Z</time></trkpt><trkpt lat="43.523135245009435" lon="5.8903217111286095"><ele>427.80000000000007</ele><time>2026-05-01T12:08:51Z</time></trkpt><trkpt lat="43.523247548263484" lon="5.890368732383985"><ele>428.2</ele><time>2026-05-01T12:08:52Z</time></trkpt><trkpt lat="43.52334608174802" lon="5.89040889393798"><ele>428.6</ele><time>2026-05-01T12:08:53Z</time></trkpt><trkpt lat="43.52343145305869" lon="5.890417546353549"><ele>429.0</ele><time>2026-05-01T12:08:54Z</time></trkpt><trkpt lat="43.52352086529948" lon="5.8904255913717884"><ele>429.0</ele><time>2026-05-01T12:08:55Z</time></trkpt><trkpt lat="43.523610107677634" lon="5.890418470590823"><ele>429.0</ele><time>2026-05-01T12:08:56Z</time></trkpt><trkpt lat="43.52368374365197" lon="5.890374412095586"><ele>429.0</ele><time>2026-05-01T12:08:57Z</time></trkpt><trkpt lat="43.523785427780425" lon="5.890308288979913"><ele>429.0</ele><time>2026-05-01T12:08:58Z</time></trkpt><trkpt lat="43.52391659223404" lon="5.890229823562842"><ele>429.0</ele><time>2026-05-01T12:08:59Z</time></trkpt><trkpt lat="43.52404662681149" lon="5.890165184527306"><ele>429.25</ele><time>2026-05-01T12:09:00Z</time></trkpt><trkpt lat="43.52416652676923" lon="5.890114765418612"><ele>429.5</ele><time>2026-05-01T12:09:01Z</time></trkpt><trkpt lat="43.524294328364384" lon="5.8900533222412275"><ele>429.75</ele><time>2026-05-01T12:09:02Z</time></trkpt><trkpt lat="43.524409175693236" lon="5.889993503029875"><ele>430.0</ele><time>2026-05-01T12:09:03Z</time></trkpt><trkpt lat="43.52450392029634" lon="5.889937203529728"><ele>430.6</ele><time>2026-05-01T12:09:04Z</time></trkpt><trkpt lat="43.52460114703825" lon="5.889899843663554"><ele>431.2</ele><time>2026-05-01T12:09:05Z</time></trkpt><trkpt lat="43.5247172260792" lon="5.889865758403171"><ele>431.79999999999995</ele><time>2026-05-01T12:09:06Z</time></trkpt><trkpt lat="43.52481282327837" lon="5.889824300371452"><ele>432.4</ele><time>2026-05-01T12:09:07Z</time></trkpt><trkpt lat="43.524927938608684" lon="5.889756941521533"><ele>433.0</ele><time>2026-05-01T12:09:08Z</time></trkpt><trkpt lat="43.52504487786629" lon="5.889701323897018"><ele>433.0</ele><time>2026-05-01T12:09:09Z</time></trkpt><trkpt lat="43.52514001949006" lon="5.889646844486728"><ele>432.99999999999994</ele><time>2026-05-01T12:09:10Z</time></trkpt><trkpt lat="43.52522183151268" lon="5.889581863934493"><ele>432.99999999999994</ele><time>2026-05-01T12:09:11Z</time></trkpt><trkpt lat="43.525302840261695" lon="5.889509467787765"><ele>433.0</ele><time>2026-05-01T12:09:12Z</time></trkpt><trkpt lat="43.525364451679344" lon="5.889429955773663"><ele>433.0</ele><time>2026-05-01T12:09:13Z</time></trkpt><trkpt lat="43.52541627549253" lon="5.889358955197348"><ele>434.25</ele><time>2026-05-01T12:09:14Z</time></trkpt><trkpt lat="43.52549142645027" lon="5.8893001163537555"><ele>435.5</ele><time>2026-05-01T12:09:15Z</time></trkpt><trkpt lat="43.52560090676399" lon="5.889236796218085"><ele>436.75</ele><time>2026-05-01T12:09:16Z</time></trkpt><trkpt lat="43.52572142091026" lon="5.889163434338203"><ele>438.0</ele><time>2026-05-01T12:09:17Z</time></trkpt><trkpt lat="43.5258356684288" lon="5.88908286953022"><ele>438.0</ele><time>2026-05-01T12:09:18Z</time></trkpt><trkpt lat="43.52595353593828" lon="5.888982782490122"><ele>438.0</ele><time>2026-05-01T12:09:19Z</time></trkpt><trkpt lat="43.52604890108729" lon="5.888905863955602"><ele>438.0</ele><time>2026-05-01T12:09:20Z</time></trkpt><trkpt lat="43.52614998392709" lon="5.888816724774472"><ele>438.0</ele><time>2026-05-01T12:09:21Z</time></trkpt><trkpt lat="43.52626368916233" lon="5.888713515302766"><ele>439.2</ele><time>2026-05-01T12:09:22Z</time></trkpt><trkpt lat="43.526351031095416" lon="5.888643494736118"><ele>440.4</ele><time>2026-05-01T12:09:23Z</time></trkpt><trkpt lat="43.52639262000564" lon="5.888568355377194"><ele>441.59999999999997</ele><time>2026-05-01T12:09:24Z</time></trkpt><trkpt lat="43.526444134935325" lon="5.888447293016979"><ele>442.79999999999995</ele><time>2026-05-01T12:09:25Z</time></trkpt><trkpt lat="43.52650672786258" lon="5.888324067767795"><ele>444.0</ele><time>2026-05-01T12:09:26Z</time></trkpt><trkpt lat="43.52658005205773" lon="5.888248642270454"><ele>444.0</ele><time>2026-05-01T12:09:27Z</time></trkpt><trkpt lat="43.526653236826746" lon="5.888217585393757"><ele>444.0</ele><time>2026-05-01T12:09:28Z</time></trkpt><trkpt lat="43.5267216864624" lon="5.888204208252431"><ele>444.0</ele><time>2026-05-01T12:09:29Z</time></trkpt><trkpt lat="43.526837795555174" lon="5.888164216145694"><ele>444.0</ele><time>2026-05-01T12:09:30Z</time></trkpt><trkpt lat="43.52693136295478" lon="5.888121719542574"><ele>444.0</ele><time>2026-05-01T12:09:31Z</time></trkpt><trkpt lat="43.526996134955596" lon="5.888084397612942"><ele>444.0</ele><time>2026-05-01T12:09:32Z</time></trkpt><trkpt lat="43.52710462869062" lon="5.888000212390445"><ele>445.4</ele><time>2026-05-01T12:09:34Z</time></trkpt><trkpt lat="43.52717343682482" lon="5.887973792696805"><ele>446.79999999999995</ele><time>2026-05-01T12:09:35Z</time></trkpt><trkpt lat="43.52729821395855" lon="5.888040466609536"><ele>448.20000000000005</ele><time>2026-05-01T12:09:37Z</time></trkpt><trkpt lat="43.52739024400073" lon="5.888079297330462"><ele>449.6</ele><time>2026-05-01T12:09:38Z</time></trkpt><trkpt lat="43.52750611886579" lon="5.88811962370266"><ele>451.0</ele><time>2026-05-01T12:09:39Z</time></trkpt><trkpt lat="43.527591750267604" lon="5.888147795373022"><ele>451.0</ele><time>2026-05-01T12:09:40Z</time></trkpt><trkpt lat="43.52765875402491" lon="5.888205769459586"><ele>451.0</ele><time>2026-05-01T12:09:41Z</time></trkpt><trkpt lat="43.527743915269895" lon="5.888215649322088"><ele>451.0</ele><time>2026-05-01T12:09:42Z</time></trkpt><trkpt lat="43.5278668572654" lon="5.88821209146888"><ele>451.0</ele><time>2026-05-01T12:09:43Z</time></trkpt><trkpt lat="43.52798332926711" lon="5.888197795438256"><ele>451.0</ele><time>2026-05-01T12:09:44Z</time></trkpt><trkpt lat="43.52805420085614" lon="5.888184000734239"><ele>450.6</ele><time>2026-05-01T12:09:45Z</time></trkpt><trkpt lat="43.52811669123316" lon="5.8881141915626305"><ele>450.20000000000005</ele><time>2026-05-01T12:10:01Z</time></trkpt><trkpt lat="43.52819157748622" lon="5.887950222877018"><ele>449.79999999999995</ele><time>2026-05-01T12:10:03Z</time></trkpt><trkpt lat="43.52830504112407" lon="5.887887597476444"><ele>449.4</ele><time>2026-05-01T12:10:05Z</time></trkpt><trkpt lat="43.52837370163814" lon="5.887891163912371"><ele>449.0</ele><time>2026-05-01T12:10:06Z</time></trkpt><trkpt lat="43.528443030845445" lon="5.887906741345344"><ele>449.0</ele><time>2026-05-01T12:10:07Z</time></trkpt><trkpt lat="43.528561992109246" lon="5.88783717600649"><ele>449.0</ele><time>2026-05-01T12:10:09Z</time></trkpt><trkpt lat="43.52863254240667" lon="5.887778735610928"><ele>449.0</ele><time>2026-05-01T12:10:10Z</time></trkpt><trkpt lat="43.528707400426256" lon="5.88773210907978"><ele>449.0</ele><time>2026-05-01T12:10:11Z</time></trkpt><trkpt lat="43.52879893081445" lon="5.887709341798048"><ele>449.0</ele><time>2026-05-01T12:10:12Z</time></trkpt><trkpt lat="43.5289046408309" lon="5.8876950078323995"><ele>448.6</ele><time>2026-05-01T12:10:13Z</time></trkpt><trkpt lat="43.52901019280819" lon="5.88768324220512"><ele>448.2</ele><time>2026-05-01T12:10:14Z</time></trkpt><trkpt lat="43.52910661657665" lon="5.887679620210482"><ele>447.80000000000007</ele><time>2026-05-01T12:10:15Z</time></trkpt><trkpt lat="43.5292008749103" lon="5.887681136433507"><ele>447.40000000000003</ele><time>2026-05-01T12:10:16Z</time></trkpt><trkpt lat="43.52930600114113" lon="5.887663221608411"><ele>447.0</ele><time>2026-05-01T12:10:17Z</time></trkpt><trkpt lat="43.52940564035557" lon="5.88762717639056"><ele>447.0</ele><time>2026-05-01T12:10:18Z</time></trkpt><trkpt lat="43.52949948875085" lon="5.887613925140123"><ele>447.00000000000006</ele><time>2026-05-01T12:10:19Z</time></trkpt><trkpt lat="43.5295792321651" lon="5.887624841854789"><ele>447.00000000000006</ele><time>2026-05-01T12:10:20Z</time></trkpt><trkpt lat="43.52964243929917" lon="5.887661898742066"><ele>447.0</ele><time>2026-05-01T12:10:21Z</time></trkpt><trkpt lat="43.52972661110002" lon="5.887739742449276"><ele>447.0</ele><time>2026-05-01T12:10:22Z</time></trkpt><trkpt lat="43.529827460501046" lon="5.887785976245842"><ele>445.8</ele><time>2026-05-01T12:10:23Z</time></trkpt><trkpt lat="43.529923667192506" lon="5.887788960282264"><ele>444.6</ele><time>2026-05-01T12:10:24Z</time></trkpt><trkpt lat="43.53001563631132" lon="5.887787300279266"><ele>443.40000000000003</ele><time>2026-05-01T12:10:25Z</time></trkpt><trkpt lat="43.53009598514811" lon="5.887788358630562"><ele>442.20000000000005</ele><time>2026-05-01T12:10:26Z</time></trkpt><trkpt lat="43.5301919060694" lon="5.887796163170922"><ele>441.0</ele><time>2026-05-01T12:10:27Z</time></trkpt><trkpt lat="43.53027565905441" lon="5.887776375206472"><ele>441.0</ele><time>2026-05-01T12:10:28Z</time></trkpt><trkpt lat="43.530367057605275" lon="5.887744030803825"><ele>441.0</ele><time>2026-05-01T12:10:29Z</time></trkpt><trkpt lat="43.530455784898756" lon="5.88770972488665"><ele>441.0</ele><time>2026-05-01T12:10:30Z</time></trkpt><trkpt lat="43.53054537450471" lon="5.887689652230656"><ele>441.0</ele><time>2026-05-01T12:10:31Z</time></trkpt><trkpt lat="43.530617766296814" lon="5.8877016816043035"><ele>441.0</ele><time>2026-05-01T12:10:32Z</time></trkpt><trkpt lat="43.53067977454267" lon="5.887751703066708"><ele>441.0</ele><time>2026-05-01T12:10:33Z</time></trkpt><trkpt lat="43.53076690584349" lon="5.887803363466639"><ele>439.6</ele><time>2026-05-01T12:10:34Z</time></trkpt><trkpt lat="43.53085624094397" lon="5.88780771488396"><ele>438.20000000000005</ele><time>2026-05-01T12:10:35Z</time></trkpt><trkpt lat="43.53096760779279" lon="5.88776587332548"><ele>436.79999999999995</ele><time>2026-05-01T12:10:36Z</time></trkpt><trkpt lat="43.531086904617645" lon="5.887705168391327"><ele>435.4</ele><time>2026-05-01T12:10:37Z</time></trkpt><trkpt lat="43.53118193393635" lon="5.887654618277649"><ele>434.0</ele><time>2026-05-01T12:10:38Z</time></trkpt><trkpt lat="43.53125664944125" lon="5.887628425080022"><ele>433.49999999999994</ele><time>2026-05-01T12:10:39Z</time></trkpt><trkpt lat="43.53133387213901" lon="5.887618983433449"><ele>433.0</ele><time>2026-05-01T12:10:40Z</time></trkpt><trkpt lat="43.531409900084945" lon="5.8876001057328615"><ele>432.5</ele><time>2026-05-01T12:10:41Z</time></trkpt><trkpt lat="43.5314810555335" lon="5.88759782239581"><ele>432.0</ele><time>2026-05-01T12:10:42Z</time></trkpt><trkpt lat="43.53156313466895" lon="5.8876266932672205"><ele>431.49999999999994</ele><time>2026-05-01T12:10:43Z</time></trkpt><trkpt lat="43.53167264916159" lon="5.8876725207693985"><ele>431.0</ele><time>2026-05-01T12:10:44Z</time></trkpt><trkpt lat="43.53176550087673" lon="5.887713945378378"><ele>431.0</ele><time>2026-05-01T12:10:45Z</time></trkpt><trkpt lat="43.53185579186339" lon="5.88772104094454"><ele>431.0</ele><time>2026-05-01T12:10:46Z</time></trkpt><trkpt lat="43.53194580310157" lon="5.887707980220709"><ele>431.0</ele><time>2026-05-01T12:10:47Z</time></trkpt><trkpt lat="43.53205035069964" lon="5.887704456844222"><ele>431.0</ele><time>2026-05-01T12:10:48Z</time></trkpt><trkpt lat="43.53215288031718" lon="5.88771686980619"><ele>431.0</ele><time>2026-05-01T12:10:49Z</time></trkpt><trkpt lat="43.53222468426976" lon="5.887720675465567"><ele>428.99999999999994</ele><time>2026-05-01T12:10:50Z</time></trkpt><trkpt lat="43.5323293030607" lon="5.887710768606942"><ele>427.0</ele><time>2026-05-01T12:10:52Z</time></trkpt><trkpt lat="43.53237231101099" lon="5.887638234119947"><ele>425.0</ele><time>2026-05-01T12:10:55Z</time></trkpt><trkpt lat="43.53245501007224" lon="5.887542559772613"><ele>423.0</ele><time>2026-05-01T12:11:07Z</time></trkpt><trkpt lat="43.53251927353262" lon="5.887515453408903"><ele>420.99999999999994</ele><time>2026-05-01T12:11:08Z</time></trkpt><trkpt lat="43.532608616598544" lon="5.887488782590827"><ele>419.0</ele><time>2026-05-01T12:11:09Z</time></trkpt><trkpt lat="43.53267186918941" lon="5.887450341305665"><ele>417.4</ele><time>2026-05-01T12:11:10Z</time></trkpt><trkpt lat="43.532728086999775" lon="5.887389794915376"><ele>415.79999999999995</ele><time>2026-05-01T12:11:11Z</time></trkpt><trkpt lat="43.532764872270654" lon="5.88731163537429"><ele>414.20000000000005</ele><time>2026-05-01T12:11:12Z</time></trkpt><trkpt lat="43.53279799388046" lon="5.887136050043187"><ele>412.6</ele><time>2026-05-01T12:11:14Z</time></trkpt><trkpt lat="43.53279722037001" lon="5.887017667821951"><ele>411.0</ele><time>2026-05-01T12:11:15Z</time></trkpt><trkpt lat="43.53279435515769" lon="5.886858195084646"><ele>411.8333333333333</ele><time>2026-05-01T12:11:16Z</time></trkpt><trkpt lat="43.53282406936305" lon="5.886749656799592"><ele>412.66666666666663</ele><time>2026-05-01T12:11:17Z</time></trkpt><trkpt lat="43.532883663475985" lon="5.886701952636735"><ele>413.5</ele><time>2026-05-01T12:11:18Z</time></trkpt><trkpt lat="43.5329605880163" lon="5.886683399273857"><ele>414.3333333333333</ele><time>2026-05-01T12:11:19Z</time></trkpt><trkpt lat="43.53304721145556" lon="5.886687574159239"><ele>415.16666666666663</ele><time>2026-05-01T12:11:20Z</time></trkpt><trkpt lat="43.533132509110565" lon="5.886734847215491"><ele>416.0</ele><time>2026-05-01T12:11:21Z</time></trkpt><trkpt lat="43.533226053402004" lon="5.886831610609822"><ele>415.0</ele><time>2026-05-01T12:11:22Z</time></trkpt><trkpt lat="43.53331869028669" lon="5.8869313676596775"><ele>414.0</ele><time>2026-05-01T12:11:23Z</time></trkpt><trkpt lat="43.53343561396552" lon="5.886998996572684"><ele>413.0</ele><time>2026-05-01T12:11:24Z</time></trkpt><trkpt lat="43.53356319609507" lon="5.8870506556948055"><ele>412.0</ele><time>2026-05-01T12:11:25Z</time></trkpt><trkpt lat="43.5337235108298" lon="5.887092820826006"><ele>412.0</ele><time>2026-05-01T12:11:26Z</time></trkpt><trkpt lat="43.533868997885875" lon="5.88714617480231"><ele>412.0</ele><time>2026-05-01T12:11:27Z</time></trkpt><trkpt lat="43.533983382324514" lon="5.887209651324194"><ele>412.0</ele><time>2026-05-01T12:11:28Z</time></trkpt><trkpt lat="43.53410194490435" lon="5.887285240866819"><ele>412.0</ele><time>2026-05-01T12:11:29Z</time></trkpt><trkpt lat="43.53419978672354" lon="5.887332845694332"><ele>412.00000000000006</ele><time>2026-05-01T12:11:30Z</time></trkpt><trkpt lat="43.53428170307713" lon="5.88735953245424"><ele>412.0</ele><time>2026-05-01T12:11:31Z</time></trkpt><trkpt lat="43.53436487774633" lon="5.88737386126969"><ele>412.0</ele><time>2026-05-01T12:11:32Z</time></trkpt><trkpt lat="43.534433036576345" lon="5.88738037694068"><ele>412.0</ele><time>2026-05-01T12:11:33Z</time></trkpt><trkpt lat="43.53449682507205" lon="5.88737664406299"><ele>412.00000000000006</ele><time>2026-05-01T12:11:34Z</time></trkpt><trkpt lat="43.534446441150784" lon="5.887491351925898"><ele>412.0</ele><time>2026-05-01T12:11:51Z</time></trkpt><trkpt lat="43.534372028717065" lon="5.887560967994034"><ele>412.00000000000006</ele><time>2026-05-01T12:11:53Z</time></trkpt><trkpt lat="43.534273133908684" lon="5.887522654393732"><ele>412.0</ele><time>2026-05-01T12:11:55Z</time></trkpt><trkpt lat="43.53420771578537" lon="5.887518848598675"><ele>412.0</ele><time>2026-05-01T12:11:56Z</time></trkpt><trkpt lat="43.534137249929906" lon="5.887486846376018"><ele>412.0</ele><time>2026-05-01T12:11:57Z</time></trkpt><trkpt lat="43.53404908900244" lon="5.887417508385848"><ele>412.00000000000006</ele><time>2026-05-01T12:11:59Z</time></trkpt><trkpt lat="43.53397009457996" lon="5.887485773343893"><ele>412.0</ele><time>2026-05-01T12:12:01Z</time></trkpt><trkpt lat="43.53392670254831" lon="5.8875509811519136"><ele>412.00000000000006</ele><time>2026-05-01T12:12:02Z</time></trkpt><trkpt lat="43.533835562190816" lon="5.887540959356194"><ele>412.0</ele><time>2026-05-01T12:12:04Z</time></trkpt><trkpt lat="43.53376774698658" lon="5.8875158917767285"><ele>412.0</ele><time>2026-05-01T12:12:06Z</time></trkpt><trkpt lat="43.53370413101446" lon="5.887589980698567"><ele>412.0</ele><time>2026-05-01T12:12:09Z</time></trkpt><trkpt lat="43.53362100331574" lon="5.887574619728947"><ele>412.00000000000006</ele><time>2026-05-01T12:12:12Z</time></trkpt><trkpt lat="43.53357528870144" lon="5.8876653629903455"><ele>412.0</ele><time>2026-05-01T12:12:14Z</time></trkpt><trkpt lat="43.533500886777496" lon="5.887733073537882"><ele>411.00000000000006</ele><time>2026-05-01T12:12:17Z</time></trkpt><trkpt lat="43.53344832073384" lon="5.887791897685895"><ele>410.0</ele><time>2026-05-01T12:12:19Z</time></trkpt><trkpt lat="43.533426609617734" lon="5.887889759947422"><ele>409.0</ele><time>2026-05-01T12:12:21Z</time></trkpt><trkpt lat="43.53342212385145" lon="5.8880382493911165"><ele>408.0</ele><time>2026-05-01T12:12:23Z</time></trkpt><trkpt lat="43.533417932526675" lon="5.888166758054339"><ele>407.00000000000006</ele><time>2026-05-01T12:12:24Z</time></trkpt><trkpt lat="43.53340194944999" lon="5.888289145092679"><ele>406.0</ele><time>2026-05-01T12:12:25Z</time></trkpt><trkpt lat="43.53339335074883" lon="5.888416910239469"><ele>406.8</ele><time>2026-05-01T12:12:26Z</time></trkpt><trkpt lat="43.53339164749353" lon="5.888553737791021"><ele>407.6</ele><time>2026-05-01T12:12:27Z</time></trkpt><trkpt lat="43.53338197655428" lon="5.888687078176226"><ele>408.4</ele><time>2026-05-01T12:12:28Z</time></trkpt><trkpt lat="43.533377769027716" lon="5.888782645157447"><ele>409.2</ele><time>2026-05-01T12:12:29Z</time></trkpt><trkpt lat="43.533366059808664" lon="5.888931816816947"><ele>410.0</ele><time>2026-05-01T12:12:31Z</time></trkpt><trkpt lat="43.533370967137934" lon="5.889056057880587"><ele>409.99999999999994</ele><time>2026-05-01T12:12:32Z</time></trkpt><trkpt lat="43.53338337275125" lon="5.889194778535385"><ele>410.0</ele><time>2026-05-01T12:12:33Z</time></trkpt><trkpt lat="43.53339185839257" lon="5.889318365865079"><ele>410.0</ele><time>2026-05-01T12:12:34Z</time></trkpt><trkpt lat="43.533388431290504" lon="5.889428198926894"><ele>410.0</ele><time>2026-05-01T12:12:35Z</time></trkpt><trkpt lat="43.533385603618925" lon="5.889538431293502"><ele>409.99999999999994</ele><time>2026-05-01T12:12:36Z</time></trkpt><trkpt lat="43.53337220386729" lon="5.889663951050226"><ele>410.0</ele><time>2026-05-01T12:12:37Z</time></trkpt><trkpt lat="43.53333898394922" lon="5.889759049550018"><ele>410.66666666666663</ele><time>2026-05-01T12:12:38Z</time></trkpt><trkpt lat="43.5332968360362" lon="5.889878878008822"><ele>411.3333333333333</ele><time>2026-05-01T12:12:39Z</time></trkpt><trkpt lat="43.533257252891964" lon="5.890010225970017"><ele>412.0</ele><time>2026-05-01T12:12:40Z</time></trkpt><trkpt lat="43.53320894938263" lon="5.890083401010174"><ele>412.66666666666663</ele><time>2026-05-01T12:12:42Z</time></trkpt><trkpt lat="43.533149219738746" lon="5.8901346613364165"><ele>413.3333333333333</ele><time>2026-05-01T12:12:44Z</time></trkpt><trkpt lat="43.53307806009901" lon="5.890173463943048"><ele>414.0</ele><time>2026-05-01T12:12:46Z</time></trkpt><trkpt lat="43.53303076403285" lon="5.890233318053014"><ele>414.0</ele><time>2026-05-01T12:12:48Z</time></trkpt><trkpt lat="43.53294578957506" lon="5.8902262480389505"><ele>414.0</ele><time>2026-05-01T12:12:50Z</time></trkpt><trkpt lat="43.532904745157246" lon="5.8901533967542985"><ele>414.0</ele><time>2026-05-01T12:12:51Z</time></trkpt><trkpt lat="43.53287002927835" lon="5.890059489349526"><ele>414.0</ele><time>2026-05-01T12:12:52Z</time></trkpt><trkpt lat="43.53281876611088" lon="5.889989983472884"><ele>414.0</ele><time>2026-05-01T12:12:53Z</time></trkpt><trkpt lat="43.53273006566152" lon="5.890053123341294"><ele>414.0</ele><time>2026-05-01T12:12:55Z</time></trkpt><trkpt lat="43.53267247271746" lon="5.890126064709635"><ele>414.0</ele><time>2026-05-01T12:12:56Z</time></trkpt><trkpt lat="43.532608291008145" lon="5.890158649339472"><ele>414.0</ele><time>2026-05-01T12:12:57Z</time></trkpt><trkpt lat="43.53252480444734" lon="5.8901830897276755"><ele>414.0</ele><time>2026-05-01T12:12:58Z</time></trkpt><trkpt lat="43.53242484461048" lon="5.890241510703981"><ele>414.0</ele><time>2026-05-01T12:13:00Z</time></trkpt><trkpt lat="43.53232013300341" lon="5.89025123897898"><ele>414.0</ele><time>2026-05-01T12:13:02Z</time></trkpt><trkpt lat="43.532243665179436" lon="5.890384560855097"><ele>414.0</ele><time>2026-05-01T12:13:04Z</time></trkpt><trkpt lat="43.532180921777105" lon="5.890455595389637"><ele>414.0</ele><time>2026-05-01T12:13:05Z</time></trkpt><trkpt lat="43.53213457182701" lon="5.890529365855929"><ele>414.0</ele><time>2026-05-01T12:13:06Z</time></trkpt><trkpt lat="43.53208128867695" lon="5.890655118540841"><ele>414.0</ele><time>2026-05-01T12:13:08Z</time></trkpt><trkpt lat="43.532053643619214" lon="5.890813151463453"><ele>414.0</ele><time>2026-05-01T12:13:10Z</time></trkpt><trkpt lat="43.5319402529394" lon="5.890886566979659"><ele>414.1666666666667</ele><time>2026-05-01T12:13:12Z</time></trkpt><trkpt lat="43.53188898457762" lon="5.890946903283453"><ele>414.33333333333337</ele><time>2026-05-01T12:13:13Z</time></trkpt><trkpt lat="43.531830982976025" lon="5.891062106147447"><ele>414.5</ele><time>2026-05-01T12:13:14Z</time></trkpt><trkpt lat="43.53177570720901" lon="5.891172891176198"><ele>414.6666666666667</ele><time>2026-05-01T12:13:15Z</time></trkpt><trkpt lat="43.53171773237316" lon="5.891227901804041"><ele>414.83333333333337</ele><time>2026-05-01T12:13:16Z</time></trkpt><trkpt lat="43.53164541232404" lon="5.891239580897599"><ele>415.0</ele><time>2026-05-01T12:13:17Z</time></trkpt><trkpt lat="43.531579903249124" lon="5.89127271765226"><ele>415.00000000000006</ele><time>2026-05-01T12:13:18Z</time></trkpt><trkpt lat="43.531508110267175" lon="5.891320498998581"><ele>415.0</ele><time>2026-05-01T12:13:19Z</time></trkpt><trkpt lat="43.53144412328839" lon="5.891339398447939"><ele>415.0</ele><time>2026-05-01T12:13:20Z</time></trkpt><trkpt lat="43.53136133525754" lon="5.891447338838912"><ele>415.0</ele><time>2026-05-01T12:13:22Z</time></trkpt><trkpt lat="43.531253447902124" lon="5.89149835960522"><ele>415.00000000000006</ele><time>2026-05-01T12:13:24Z</time></trkpt><trkpt lat="43.531215579570684" lon="5.891567763051032"><ele>415.0</ele><time>2026-05-01T12:13:25Z</time></trkpt><trkpt lat="43.53117982846309" lon="5.891639264145864"><ele>414.2</ele><time>2026-05-01T12:13:27Z</time></trkpt><trkpt lat="43.53114173515254" lon="5.891737638208003"><ele>413.4</ele><time>2026-05-01T12:13:29Z</time></trkpt><trkpt lat="43.531071044684225" lon="5.891805508697223"><ele>412.6</ele><time>2026-05-01T12:13:31Z</time></trkpt><trkpt lat="43.53096046578322" lon="5.891867088674534"><ele>411.8</ele><time>2026-05-01T12:13:32Z</time></trkpt><trkpt lat="43.5308705111638" lon="5.891912897868394"><ele>411.0</ele><time>2026-05-01T12:13:33Z</time></trkpt><trkpt lat="43.530797782288325" lon="5.891954172384061"><ele>411.0</ele><time>2026-05-01T12:13:34Z</time></trkpt><trkpt lat="43.530720297499904" lon="5.891988119471589"><ele>411.0</ele><time>2026-05-01T12:13:36Z</time></trkpt><trkpt lat="43.53064748832688" lon="5.892060227246592"><ele>411.0</ele><time>2026-05-01T12:13:38Z</time></trkpt><trkpt lat="43.530573803331414" lon="5.892058042462197"><ele>411.0</ele><time>2026-05-01T12:13:39Z</time></trkpt><trkpt lat="43.53050173142057" lon="5.892071620729094"><ele>411.0</ele><time>2026-05-01T12:13:40Z</time></trkpt><trkpt lat="43.53042973125627" lon="5.892112035951593"><ele>411.0</ele><time>2026-05-01T12:13:41Z</time></trkpt><trkpt lat="43.53037155892027" lon="5.892163907591647"><ele>411.6666666666667</ele><time>2026-05-01T12:13:42Z</time></trkpt><trkpt lat="43.530306942132405" lon="5.892237241116687"><ele>412.33333333333337</ele><time>2026-05-01T12:13:43Z</time></trkpt><trkpt lat="43.530213865593055" lon="5.8923068239210235"><ele>413.0</ele><time>2026-05-01T12:13:44Z</time></trkpt><trkpt lat="43.53012974260617" lon="5.892340923448851"><ele>413.6666666666667</ele><time>2026-05-01T12:13:45Z</time></trkpt><trkpt lat="43.5300648845008" lon="5.892396302924607"><ele>414.33333333333337</ele><time>2026-05-01T12:13:46Z</time></trkpt><trkpt lat="43.53000456331885" lon="5.892471783569291"><ele>415.0</ele><time>2026-05-01T12:13:47Z</time></trkpt><trkpt lat="43.52994055129192" lon="5.892538874610628"><ele>413.0</ele><time>2026-05-01T12:13:48Z</time></trkpt><trkpt lat="43.529895048677176" lon="5.892605254243984"><ele>411.0</ele><time>2026-05-01T12:13:49Z</time></trkpt><trkpt lat="43.52987396581419" lon="5.892742331633974"><ele>409.0</ele><time>2026-05-01T12:13:51Z</time></trkpt><trkpt lat="43.52977011357258" lon="5.892845563300399"><ele>407.0</ele><time>2026-05-01T12:13:53Z</time></trkpt><trkpt lat="43.52971138080731" lon="5.892922186395746"><ele>405.0</ele><time>2026-05-01T12:13:54Z</time></trkpt><trkpt lat="43.5296393935924" lon="5.892970645794292"><ele>406.75</ele><time>2026-05-01T12:13:55Z</time></trkpt><trkpt lat="43.52953137285502" lon="5.893033810578776"><ele>408.5</ele><time>2026-05-01T12:13:56Z</time></trkpt><trkpt lat="43.52942097564763" lon="5.893099618798386"><ele>410.25</ele><time>2026-05-01T12:13:57Z</time></trkpt><trkpt lat="43.52933550571251" lon="5.893151755489752"><ele>412.0</ele><time>2026-05-01T12:13:58Z</time></trkpt><trkpt lat="43.52924924042295" lon="5.893269350438525"><ele>412.0</ele><time>2026-05-01T12:14:00Z</time></trkpt><trkpt lat="43.5291473554962" lon="5.8933813835639235"><ele>412.0</ele><time>2026-05-01T12:14:02Z</time></trkpt><trkpt lat="43.529075401732655" lon="5.8934355627720585"><ele>412.0</ele><time>2026-05-01T12:14:03Z</time></trkpt><trkpt lat="43.52899334598838" lon="5.89348963802409"><ele>412.0</ele><time>2026-05-01T12:14:04Z</time></trkpt><trkpt lat="43.52893339220151" lon="5.893539819502073"><ele>412.0</ele><time>2026-05-01T12:14:05Z</time></trkpt><trkpt lat="43.528818090011434" lon="5.893597895426264"><ele>409.40000000000003</ele><time>2026-05-01T12:14:07Z</time></trkpt><trkpt lat="43.528755159174686" lon="5.893634108537341"><ele>406.8</ele><time>2026-05-01T12:14:08Z</time></trkpt><trkpt lat="43.52867009920496" lon="5.893669207374021"><ele>404.2</ele><time>2026-05-01T12:14:09Z</time></trkpt><trkpt lat="43.528563752636614" lon="5.893723863584458"><ele>401.6</ele><time>2026-05-01T12:14:10Z</time></trkpt><trkpt lat="43.528464575728286" lon="5.893757520391006"><ele>399.0</ele><time>2026-05-01T12:14:11Z</time></trkpt><trkpt lat="43.528385124591786" lon="5.893807284263491"><ele>399.0</ele><time>2026-05-01T12:14:12Z</time></trkpt><trkpt lat="43.528300380903474" lon="5.893864659233882"><ele>399.0</ele><time>2026-05-01T12:14:13Z</time></trkpt><trkpt lat="43.528239398407386" lon="5.89389877866545"><ele>399.0</ele><time>2026-05-01T12:14:14Z</time></trkpt><trkpt lat="43.528200972518235" lon="5.894013666477744"><ele>399.0</ele><time>2026-05-01T12:14:17Z</time></trkpt><trkpt lat="43.52815157487078" lon="5.894096802560808"><ele>399.0</ele><time>2026-05-01T12:14:19Z</time></trkpt><trkpt lat="43.52813219070075" lon="5.894197036813172"><ele>399.0</ele><time>2026-05-01T12:14:21Z</time></trkpt><trkpt lat="43.52821444596485" lon="5.8942694675878355"><ele>396.5</ele><time>2026-05-01T12:14:25Z</time></trkpt><trkpt lat="43.52824287899174" lon="5.894365658301388"><ele>394.0</ele><time>2026-05-01T12:14:28Z</time></trkpt><trkpt lat="43.52824227125374" lon="5.894470625610327"><ele>391.5</ele><time>2026-05-01T12:14:30Z</time></trkpt><trkpt lat="43.528278604260045" lon="5.894547021933071"><ele>389.0</ele><time>2026-05-01T12:14:32Z</time></trkpt><trkpt lat="43.52831400872035" lon="5.894678223359605"><ele>386.5</ele><time>2026-05-01T12:14:35Z</time></trkpt><trkpt lat="43.52834545168899" lon="5.894780551612578"><ele>384.0</ele><time>2026-05-01T12:14:38Z</time></trkpt><trkpt lat="43.5284274141156" lon="5.894861143177299"><ele>384.0</ele><time>2026-05-01T12:14:40Z</time></trkpt><trkpt lat="43.528456073164186" lon="5.8949968770668315"><ele>384.0</ele><time>2026-05-01T12:14:42Z</time></trkpt><trkpt lat="43.52842576710313" lon="5.895099044919314"><ele>384.0</ele><time>2026-05-01T12:14:44Z</time></trkpt><trkpt lat="43.528374094775664" lon="5.895163648303536"><ele>384.0</ele><time>2026-05-01T12:14:46Z</time></trkpt><trkpt lat="43.528363474833796" lon="5.895264891483919"><ele>384.0</ele><time>2026-05-01T12:14:48Z</time></trkpt><trkpt lat="43.528374494189784" lon="5.895359256475948"><ele>384.0</ele><time>2026-05-01T12:14:49Z</time></trkpt><trkpt lat="43.5283792194082" lon="5.895459095425486"><ele>381.79999999999995</ele><time>2026-05-01T12:14:50Z</time></trkpt><trkpt lat="43.528338102074464" lon="5.895549470162544"><ele>379.59999999999997</ele><time>2026-05-01T12:14:52Z</time></trkpt><trkpt lat="43.52824548186752" lon="5.895654345017836"><ele>377.4</ele><time>2026-05-01T12:15:19Z</time></trkpt><trkpt lat="43.52816724650222" lon="5.895758985979049"><ele>375.2</ele><time>2026-05-01T12:15:20Z</time></trkpt><trkpt lat="43.52809068469904" lon="5.895850529116518"><ele>373.0</ele><time>2026-05-01T12:15:21Z</time></trkpt><trkpt lat="43.52801882704742" lon="5.895915560119359"><ele>372.3333333333333</ele><time>2026-05-01T12:15:22Z</time></trkpt><trkpt lat="43.5279573533901" lon="5.895983658622018"><ele>371.66666666666663</ele><time>2026-05-01T12:15:23Z</time></trkpt><trkpt lat="43.52790966759163" lon="5.896082948067638"><ele>371.0</ele><time>2026-05-01T12:15:24Z</time></trkpt><trkpt lat="43.52787479636964" lon="5.896199268386322"><ele>370.3333333333333</ele><time>2026-05-01T12:15:25Z</time></trkpt><trkpt lat="43.52784074628445" lon="5.896303493045083"><ele>369.6666666666667</ele><time>2026-05-01T12:15:26Z</time></trkpt><trkpt lat="43.527812545850544" lon="5.896420950839343"><ele>369.0</ele><time>2026-05-01T12:15:27Z</time></trkpt><trkpt lat="43.52776460219938" lon="5.896564739356811"><ele>369.0</ele><time>2026-05-01T12:15:28Z</time></trkpt><trkpt lat="43.527702753717705" lon="5.896711882786749"><ele>369.0</ele><time>2026-05-01T12:15:29Z</time></trkpt><trkpt lat="43.527597576064274" lon="5.896889659374188"><ele>369.0</ele><time>2026-05-01T12:15:30Z</time></trkpt><trkpt lat="43.52750476620296" lon="5.897026116064565"><ele>369.0</ele><time>2026-05-01T12:15:31Z</time></trkpt><trkpt lat="43.52743335835992" lon="5.8971349601883025"><ele>367.4</ele><time>2026-05-01T12:15:32Z</time></trkpt><trkpt lat="43.52739405596298" lon="5.897232890871478"><ele>365.79999999999995</ele><time>2026-05-01T12:15:33Z</time></trkpt><trkpt lat="43.52738610323711" lon="5.897413729340883"><ele>364.20000000000005</ele><time>2026-05-01T12:15:35Z</time></trkpt><trkpt lat="43.52739512466683" lon="5.897540118677054"><ele>362.6</ele><time>2026-05-01T12:15:36Z</time></trkpt><trkpt lat="43.527396773083794" lon="5.8976980971790125"><ele>361.0</ele><time>2026-05-01T12:15:37Z</time></trkpt><trkpt lat="43.52739658906679" lon="5.897811553398502"><ele>359.4</ele><time>2026-05-01T12:15:38Z</time></trkpt><trkpt lat="43.52736546813022" lon="5.897918372958029"><ele>357.8</ele><time>2026-05-01T12:15:40Z</time></trkpt><trkpt lat="43.52727259488692" lon="5.897952069327401"><ele>356.2</ele><time>2026-05-01T12:15:43Z</time></trkpt><trkpt lat="43.52722276776364" lon="5.8981394519189765"><ele>354.59999999999997</ele><time>2026-05-01T12:15:45Z</time></trkpt><trkpt lat="43.52719177390473" lon="5.8982407873262135"><ele>353.0</ele><time>2026-05-01T12:15:46Z</time></trkpt><trkpt lat="43.52714856412062" lon="5.898324132011798"><ele>352.79999999999995</ele><time>2026-05-01T12:15:47Z</time></trkpt><trkpt lat="43.52714033600295" lon="5.898489958987629"><ele>352.6</ele><time>2026-05-01T12:15:49Z</time></trkpt><trkpt lat="43.52712401208552" lon="5.89857976874667"><ele>352.4</ele><time>2026-05-01T12:15:51Z</time></trkpt><trkpt lat="43.526997824839086" lon="5.898602246211181"><ele>352.20000000000005</ele><time>2026-05-01T12:15:53Z</time></trkpt><trkpt lat="43.52689568411338" lon="5.898612506690325"><ele>352.0</ele><time>2026-05-01T12:15:55Z</time></trkpt><trkpt lat="43.526827781415236" lon="5.898651245022295"><ele>352.0</ele><time>2026-05-01T12:15:56Z</time></trkpt><trkpt lat="43.52676018831604" lon="5.898701035809222"><ele>352.0</ele><time>2026-05-01T12:15:57Z</time></trkpt><trkpt lat="43.5266912893641" lon="5.898784293501758"><ele>352.0</ele><time>2026-05-01T12:15:58Z</time></trkpt><trkpt lat="43.52663226448125" lon="5.898878913672713"><ele>352.0</ele><time>2026-05-01T12:15:59Z</time></trkpt><trkpt lat="43.52655694775709" lon="5.898934610930081"><ele>352.0</ele><time>2026-05-01T12:16:00Z</time></trkpt><trkpt lat="43.5264942934256" lon="5.8989667756044435"><ele>352.0</ele><time>2026-05-01T12:16:01Z</time></trkpt><trkpt lat="43.526431214702335" lon="5.898996113671704"><ele>352.0</ele><time>2026-05-01T12:16:02Z</time></trkpt><trkpt lat="43.526357974531145" lon="5.8989408052282934"><ele>352.0</ele><time>2026-05-01T12:16:04Z</time></trkpt><trkpt lat="43.526248858649154" lon="5.898875402274033"><ele>352.0</ele><time>2026-05-01T12:16:06Z</time></trkpt><trkpt lat="43.52616773059757" lon="5.898875523739249"><ele>352.0</ele><time>2026-05-01T12:16:07Z</time></trkpt><trkpt lat="43.526100459403004" lon="5.898876785920496"><ele>352.0</ele><time>2026-05-01T12:16:08Z</time></trkpt><trkpt lat="43.526027302125556" lon="5.8988504785563105"><ele>352.0</ele><time>2026-05-01T12:16:18Z</time></trkpt><trkpt lat="43.525919031503314" lon="5.898880130024738"><ele>352.40000000000003</ele><time>2026-05-01T12:16:20Z</time></trkpt><trkpt lat="43.525822154654755" lon="5.898944653882341"><ele>352.8</ele><time>2026-05-01T12:16:22Z</time></trkpt><trkpt lat="43.525722153022066" lon="5.89896305353385"><ele>353.2</ele><time>2026-05-01T12:16:25Z</time></trkpt><trkpt lat="43.52564716453164" lon="5.898970174209786"><ele>353.6</ele><time>2026-05-01T12:16:26Z</time></trkpt><trkpt lat="43.525617674890164" lon="5.8990712774341985"><ele>354.0</ele><time>2026-05-01T12:16:28Z</time></trkpt><trkpt lat="43.52552125116042" lon="5.899104706001563"><ele>354.0</ele><time>2026-05-01T12:16:30Z</time></trkpt><trkpt lat="43.5254495966294" lon="5.899104061751146"><ele>354.0</ele><time>2026-05-01T12:16:31Z</time></trkpt><trkpt lat="43.525341141293225" lon="5.899126924063882"><ele>354.0</ele><time>2026-05-01T12:16:33Z</time></trkpt><trkpt lat="43.52527542997713" lon="5.8991369148174195"><ele>354.0</ele><time>2026-05-01T12:16:36Z</time></trkpt><trkpt lat="43.52517564799466" lon="5.899147136654638"><ele>354.0</ele><time>2026-05-01T12:16:39Z</time></trkpt><trkpt lat="43.52510448030709" lon="5.899174174096093"><ele>354.0</ele><time>2026-05-01T12:16:40Z</time></trkpt><trkpt lat="43.52501464980087" lon="5.899158258480316"><ele>355.2</ele><time>2026-05-01T12:16:42Z</time></trkpt><trkpt lat="43.52490185020563" lon="5.899185058442416"><ele>356.4</ele><time>2026-05-01T12:16:44Z</time></trkpt><trkpt lat="43.52481400306616" lon="5.899195000047166"><ele>357.6</ele><time>2026-05-01T12:16:45Z</time></trkpt><trkpt lat="43.52471610885557" lon="5.899223942010569"><ele>358.8</ele><time>2026-05-01T12:16:46Z</time></trkpt><trkpt lat="43.52464380202797" lon="5.89925970384456"><ele>360.0</ele><time>2026-05-01T12:16:47Z</time></trkpt><trkpt lat="43.52454170142811" lon="5.899349630286473"><ele>362.6</ele><time>2026-05-01T12:16:49Z</time></trkpt><trkpt lat="43.52443063443565" lon="5.899464134738933"><ele>365.2</ele><time>2026-05-01T12:16:51Z</time></trkpt><trkpt lat="43.52435687121512" lon="5.899539264191291"><ele>367.79999999999995</ele><time>2026-05-01T12:16:52Z</time></trkpt><trkpt lat="43.524278729609684" lon="5.899600766859307"><ele>370.4</ele><time>2026-05-01T12:16:53Z</time></trkpt><trkpt lat="43.524200942819945" lon="5.899683490576755"><ele>373.0</ele><time>2026-05-01T12:16:55Z</time></trkpt><trkpt lat="43.524140816945625" lon="5.899747773890474"><ele>373.0</ele><time>2026-05-01T12:16:56Z</time></trkpt><trkpt lat="43.524055689667" lon="5.899796459747896"><ele>373.0</ele><time>2026-05-01T12:16:57Z</time></trkpt><trkpt lat="43.52397254310617" lon="5.899830966019918"><ele>373.0</ele><time>2026-05-01T12:16:58Z</time></trkpt><trkpt lat="43.52388523228177" lon="5.899869607439336"><ele>373.0</ele><time>2026-05-01T12:16:59Z</time></trkpt><trkpt lat="43.52378849456086" lon="5.899919906034293"><ele>373.0</ele><time>2026-05-01T12:17:00Z</time></trkpt><trkpt lat="43.52370710683587" lon="5.899971066854141"><ele>374.25</ele><time>2026-05-01T12:17:01Z</time></trkpt><trkpt lat="43.52364527941252" lon="5.900004278302211"><ele>375.5</ele><time>2026-05-01T12:17:02Z</time></trkpt><trkpt lat="43.52351848736869" lon="5.900120848222099"><ele>376.75</ele><time>2026-05-01T12:17:04Z</time></trkpt><trkpt lat="43.52341687266517" lon="5.900230075319384"><ele>378.0</ele><time>2026-05-01T12:17:05Z</time></trkpt><trkpt lat="43.52333780155022" lon="5.900329261677905"><ele>378.5</ele><time>2026-05-01T12:17:06Z</time></trkpt><trkpt lat="43.523279019321144" lon="5.900376995737217"><ele>379.0</ele><time>2026-05-01T12:17:07Z</time></trkpt><trkpt lat="43.52323180603511" lon="5.900466331672848"><ele>379.5</ele><time>2026-05-01T12:17:09Z</time></trkpt><trkpt lat="43.52310312967356" lon="5.900529027779041"><ele>380.0</ele><time>2026-05-01T12:17:11Z</time></trkpt><trkpt lat="43.52305183475018" lon="5.900583796597871"><ele>380.5</ele><time>2026-05-01T12:17:12Z</time></trkpt><trkpt lat="43.5229904579965" lon="5.90067175707508"><ele>381.0</ele><time>2026-05-01T12:17:13Z</time></trkpt><trkpt lat="43.52293279085207" lon="5.900760773645494"><ele>381.6</ele><time>2026-05-01T12:17:14Z</time></trkpt><trkpt lat="43.5228585951361" lon="5.900835120601587"><ele>382.20000000000005</ele><time>2026-05-01T12:17:15Z</time></trkpt><trkpt lat="43.52278908500222" lon="5.900911640134291"><ele>382.79999999999995</ele><time>2026-05-01T12:17:16Z</time></trkpt><trkpt lat="43.52272801231109" lon="5.900971812097537"><ele>383.4</ele><time>2026-05-01T12:17:17Z</time></trkpt><trkpt lat="43.5226662895555" lon="5.901029201841391"><ele>384.0</ele><time>2026-05-01T12:17:18Z</time></trkpt><trkpt lat="43.52257282165158" lon="5.901169127855945"><ele>384.4</ele><time>2026-05-01T12:17:20Z</time></trkpt><trkpt lat="43.522468144722886" lon="5.901257736657939"><ele>384.79999999999995</ele><time>2026-05-01T12:17:22Z</time></trkpt><trkpt lat="43.522419890002304" lon="5.901317312643824"><ele>385.20000000000005</ele><time>2026-05-01T12:17:23Z</time></trkpt><trkpt lat="43.52235551818388" lon="5.901399451301661"><ele>385.6</ele><time>2026-05-01T12:17:24Z</time></trkpt><trkpt lat="43.52221702243374" lon="5.901470486824406"><ele>386.0</ele><time>2026-05-01T12:17:26Z</time></trkpt><trkpt lat="43.52215091425627" lon="5.901484278663927"><ele>385.99999999999994</ele><time>2026-05-01T12:17:27Z</time></trkpt><trkpt lat="43.52207053454047" lon="5.90152656720256"><ele>386.0</ele><time>2026-05-01T12:17:28Z</time></trkpt><trkpt lat="43.521982631297554" lon="5.901557122094606"><ele>386.0</ele><time>2026-05-01T12:17:29Z</time></trkpt><trkpt lat="43.52190390764666" lon="5.901568648193182"><ele>386.0</ele><time>2026-05-01T12:17:30Z</time></trkpt><trkpt lat="43.52181898462303" lon="5.901679563468256"><ele>385.99999999999994</ele><time>2026-05-01T12:17:32Z</time></trkpt><trkpt lat="43.52177503899501" lon="5.901744072509746"><ele>386.0</ele><time>2026-05-01T12:17:33Z</time></trkpt><trkpt lat="43.52170501683716" lon="5.901801919078154"><ele>386.8</ele><time>2026-05-01T12:17:34Z</time></trkpt><trkpt lat="43.52161944918412" lon="5.901858248092439"><ele>387.6</ele><time>2026-05-01T12:17:35Z</time></trkpt><trkpt lat="43.52154461699747" lon="5.901927967638814"><ele>388.4</ele><time>2026-05-01T12:17:36Z</time></trkpt><trkpt lat="43.52145661014162" lon="5.901959825818163"><ele>389.2</ele><time>2026-05-01T12:17:37Z</time></trkpt><trkpt lat="43.52134282979995" lon="5.902005801329375"><ele>390.0</ele><time>2026-05-01T12:17:38Z</time></trkpt><trkpt lat="43.521219376171615" lon="5.902075692619536"><ele>390.75</ele><time>2026-05-01T12:17:39Z</time></trkpt><trkpt lat="43.52111340013154" lon="5.902130569817935"><ele>391.5</ele><time>2026-05-01T12:17:40Z</time></trkpt><trkpt lat="43.52100666751462" lon="5.902171779067296"><ele>392.25</ele><time>2026-05-01T12:17:41Z</time></trkpt><trkpt lat="43.52087388852376" lon="5.902221156496706"><ele>393.0</ele><time>2026-05-01T12:17:42Z</time></trkpt><trkpt lat="43.520753887337676" lon="5.9022708896813025"><ele>393.0</ele><time>2026-05-01T12:17:43Z</time></trkpt><trkpt lat="43.520655273922145" lon="5.902314489965044"><ele>393.0</ele><time>2026-05-01T12:17:44Z</time></trkpt><trkpt lat="43.52057103818538" lon="5.902360741943766"><ele>393.0</ele><time>2026-05-01T12:17:45Z</time></trkpt><trkpt lat="43.520491371162805" lon="5.902389517911267"><ele>393.0</ele><time>2026-05-01T12:17:46Z</time></trkpt><trkpt lat="43.520386559503564" lon="5.9024175303995765"><ele>393.0</ele><time>2026-05-01T12:17:47Z</time></trkpt><trkpt lat="43.5202548310506" lon="5.902480143089953"><ele>393.2</ele><time>2026-05-01T12:17:48Z</time></trkpt><trkpt lat="43.52014625678192" lon="5.902525732027412"><ele>393.4</ele><time>2026-05-01T12:17:49Z</time></trkpt><trkpt lat="43.520056075878884" lon="5.9025864274606095"><ele>393.59999999999997</ele><time>2026-05-01T12:17:50Z</time></trkpt><trkpt lat="43.51995799128967" lon="5.902648302885054"><ele>393.79999999999995</ele><time>2026-05-01T12:17:51Z</time></trkpt><trkpt lat="43.51989161691368" lon="5.902660083162435"><ele>394.0</ele><time>2026-05-01T12:17:52Z</time></trkpt><trkpt lat="43.51981404846641" lon="5.902650575356386"><ele>394.6</ele><time>2026-05-01T12:17:53Z</time></trkpt><trkpt lat="43.51969522488893" lon="5.9026429263114215"><ele>395.2</ele><time>2026-05-01T12:17:54Z</time></trkpt><trkpt lat="43.519574664587175" lon="5.902644534937067"><ele>395.8</ele><time>2026-05-01T12:17:55Z</time></trkpt><trkpt lat="43.51948210738006" lon="5.902659652400186"><ele>396.40000000000003</ele><time>2026-05-01T12:17:56Z</time></trkpt><trkpt lat="43.519409828020486" lon="5.902697423406455"><ele>397.0</ele><time>2026-05-01T12:17:57Z</time></trkpt><trkpt lat="43.51932555559312" lon="5.902755170727174"><ele>397.0</ele><time>2026-05-01T12:17:58Z</time></trkpt><trkpt lat="43.51921323984799" lon="5.902839557156599"><ele>397.0</ele><time>2026-05-01T12:17:59Z</time></trkpt><trkpt lat="43.51911973820879" lon="5.902906022214557"><ele>397.0</ele><time>2026-05-01T12:18:00Z</time></trkpt><trkpt lat="43.51901409494543" lon="5.902950711604137"><ele>397.0</ele><time>2026-05-01T12:18:01Z</time></trkpt><trkpt lat="43.51890820225278" lon="5.902982342108495"><ele>397.0</ele><time>2026-05-01T12:18:02Z</time></trkpt><trkpt lat="43.51880749240943" lon="5.9030063889725755"><ele>397.0</ele><time>2026-05-01T12:18:03Z</time></trkpt><trkpt lat="43.51872218276728" lon="5.90302711961254"><ele>397.0</ele><time>2026-05-01T12:18:04Z</time></trkpt><trkpt lat="43.518647897887305" lon="5.9030411453548055"><ele>397.0</ele><time>2026-05-01T12:18:05Z</time></trkpt><trkpt lat="43.518537043257005" lon="5.903049585201246"><ele>397.0</ele><time>2026-05-01T12:18:07Z</time></trkpt><trkpt lat="43.518408048435575" lon="5.903104720332291"><ele>396.83333333333337</ele><time>2026-05-01T12:18:09Z</time></trkpt><trkpt lat="43.51831493344515" lon="5.903114664311113"><ele>396.6666666666667</ele><time>2026-05-01T12:18:10Z</time></trkpt><trkpt lat="43.518235242474105" lon="5.903147777059708"><ele>396.5</ele><time>2026-05-01T12:18:11Z</time></trkpt><trkpt lat="43.518142413068865" lon="5.903190576308127"><ele>396.33333333333337</ele><time>2026-05-01T12:18:12Z</time></trkpt><trkpt lat="43.51807291964162" lon="5.903214799829952"><ele>396.1666666666667</ele><time>2026-05-01T12:18:13Z</time></trkpt><trkpt lat="43.51800138776064" lon="5.903236147219123"><ele>396.0</ele><time>2026-05-01T12:18:14Z</time></trkpt><trkpt lat="43.5179289495008" lon="5.903222437591313"><ele>396.3333333333333</ele><time>2026-05-01T12:18:15Z</time></trkpt><trkpt lat="43.51786584582072" lon="5.903197804856198"><ele>396.66666666666663</ele><time>2026-05-01T12:18:16Z</time></trkpt><trkpt lat="43.517801534423185" lon="5.903215744769886"><ele>397.0</ele><time>2026-05-01T12:18:17Z</time></trkpt><trkpt lat="43.5177245724506" lon="5.9032442044870885"><ele>397.3333333333333</ele><time>2026-05-01T12:18:18Z</time></trkpt><trkpt lat="43.51762453436342" lon="5.903264318528129"><ele>397.66666666666663</ele><time>2026-05-01T12:18:19Z</time></trkpt><trkpt lat="43.51751983980722" lon="5.903289572031974"><ele>398.0</ele><time>2026-05-01T12:18:20Z</time></trkpt><trkpt lat="43.51740379116025" lon="5.90331885694254"><ele>398.0</ele><time>2026-05-01T12:18:21Z</time></trkpt><trkpt lat="43.51730004762731" lon="5.903352316676631"><ele>398.0</ele><time>2026-05-01T12:18:22Z</time></trkpt><trkpt lat="43.517219227469084" lon="5.903396703638991"><ele>398.0</ele><time>2026-05-01T12:18:23Z</time></trkpt><trkpt lat="43.517139812802874" lon="5.90343504611144"><ele>398.0</ele><time>2026-05-01T12:18:24Z</time></trkpt><trkpt lat="43.517059158573694" lon="5.903493319429179"><ele>398.0</ele><time>2026-05-01T12:18:25Z</time></trkpt><trkpt lat="43.51698182657773" lon="5.90354655527853"><ele>397.59999999999997</ele><time>2026-05-01T12:18:26Z</time></trkpt><trkpt lat="43.51692305650587" lon="5.903621052691233"><ele>397.2</ele><time>2026-05-01T12:18:27Z</time></trkpt><trkpt lat="43.51686905697414" lon="5.903705048531521"><ele>396.8</ele><time>2026-05-01T12:18:29Z</time></trkpt><trkpt lat="43.51676525717752" lon="5.903680215959994"><ele>396.4</ele><time>2026-05-01T12:28:28.001Z</time></trkpt><trkpt lat="43.516644388027274" lon="5.903766143793613"><ele>396.0</ele><time>2026-05-01T12:28:30.001Z</time></trkpt><trkpt lat="43.51656480641507" lon="5.903814173914284"><ele>396.0</ele><time>2026-05-01T12:28:31.001Z</time></trkpt><trkpt lat="43.51647339083635" lon="5.903853896294371"><ele>396.0</ele><time>2026-05-01T12:28:32.001Z</time></trkpt><trkpt lat="43.51640031048936" lon="5.903874103199137"><ele>396.0</ele><time>2026-05-01T12:28:33.001Z</time></trkpt><trkpt lat="43.51630919819899" lon="5.903870002450675"><ele>396.0</ele><time>2026-05-01T12:28:34.001Z</time></trkpt><trkpt lat="43.516234896566324" lon="5.903884266005614"><ele>396.0</ele><time>2026-05-01T12:28:35.001Z</time></trkpt><trkpt lat="43.51616703335075" lon="5.9039086339783635"><ele>396.0</ele><time>2026-05-01T12:28:36.001Z</time></trkpt><trkpt lat="43.516033217693284" lon="5.903967582210195"><ele>395.0</ele><time>2026-05-01T12:28:38.001Z</time></trkpt><trkpt lat="43.51595178868246" lon="5.9040097195433665"><ele>394.0</ele><time>2026-05-01T12:28:39.001Z</time></trkpt><trkpt lat="43.51582093268658" lon="5.904020372824599"><ele>393.0</ele><time>2026-05-01T12:28:41.001Z</time></trkpt><trkpt lat="43.5157431739485" lon="5.904018088859174"><ele>392.0</ele><time>2026-05-01T12:28:42.001Z</time></trkpt><trkpt lat="43.51562244440492" lon="5.904115525136978"><ele>391.0</ele><time>2026-05-01T12:28:44.001Z</time></trkpt><trkpt lat="43.51553110305444" lon="5.90413872752878"><ele>391.0</ele><time>2026-05-01T12:28:45.001Z</time></trkpt><trkpt lat="43.51544140496126" lon="5.904136113661385"><ele>391.0</ele><time>2026-05-01T12:28:46.001Z</time></trkpt><trkpt lat="43.51532529892706" lon="5.90415718875964"><ele>391.0</ele><time>2026-05-01T12:28:47.001Z</time></trkpt><trkpt lat="43.51522491237971" lon="5.904200120290301"><ele>391.0</ele><time>2026-05-01T12:28:48.001Z</time></trkpt><trkpt lat="43.5151406309563" lon="5.904221449990488"><ele>391.0</ele><time>2026-05-01T12:28:49.001Z</time></trkpt><trkpt lat="43.51505612165833" lon="5.904207111879559"><ele>391.1666666666667</ele><time>2026-05-01T12:28:50.001Z</time></trkpt><trkpt lat="43.514988095066506" lon="5.904211783735291"><ele>391.33333333333337</ele><time>2026-05-01T12:28:51.001Z</time></trkpt><trkpt lat="43.514922934129174" lon="5.904250820946898"><ele>391.5</ele><time>2026-05-01T12:28:52.001Z</time></trkpt><trkpt lat="43.514819203500636" lon="5.904325198609007"><ele>391.66666666666663</ele><time>2026-05-01T12:28:53.001Z</time></trkpt><trkpt lat="43.514734552550884" lon="5.904352399819213"><ele>391.8333333333333</ele><time>2026-05-01T12:28:54.001Z</time></trkpt><trkpt lat="43.514647895010555" lon="5.904381370334397"><ele>392.0</ele><time>2026-05-01T12:28:55.001Z</time></trkpt><trkpt lat="43.514566006201335" lon="5.904416233242014"><ele>391.3333333333333</ele><time>2026-05-01T12:28:56.001Z</time></trkpt><trkpt lat="43.51447860798001" lon="5.904449813236379"><ele>390.66666666666663</ele><time>2026-05-01T12:28:57.001Z</time></trkpt><trkpt lat="43.51439642677985" lon="5.90451178161299"><ele>390.0</ele><time>2026-05-01T12:28:58.001Z</time></trkpt><trkpt lat="43.51432637207453" lon="5.904567568782449"><ele>389.33333333333337</ele><time>2026-05-01T12:28:59.001Z</time></trkpt><trkpt lat="43.51425107224079" lon="5.904643969611267"><ele>388.6666666666667</ele><time>2026-05-01T12:29:00.001Z</time></trkpt><trkpt lat="43.51417615255767" lon="5.904695967643333"><ele>388.0</ele><time>2026-05-01T12:29:01.001Z</time></trkpt><trkpt lat="43.514085092997554" lon="5.904751902360957"><ele>388.0</ele><time>2026-05-01T12:29:02.001Z</time></trkpt><trkpt lat="43.513998254941114" lon="5.904817800644613"><ele>388.0</ele><time>2026-05-01T12:29:03.001Z</time></trkpt><trkpt lat="43.51395302679453" lon="5.904900341245258"><ele>388.0</ele><time>2026-05-01T12:29:04.001Z</time></trkpt><trkpt lat="43.513908058381865" lon="5.905005063147044"><ele>388.0</ele><time>2026-05-01T12:29:05.001Z</time></trkpt><trkpt lat="43.51384382087466" lon="5.905142788010436"><ele>388.0</ele><time>2026-05-01T12:29:06.001Z</time></trkpt><trkpt lat="43.513767128920655" lon="5.905275298070532"><ele>388.33333333333337</ele><time>2026-05-01T12:29:07.001Z</time></trkpt><trkpt lat="43.51373807710136" lon="5.90535401071576"><ele>388.6666666666667</ele><time>2026-05-01T12:29:08.001Z</time></trkpt><trkpt lat="43.5137186292592" lon="5.905446753333888"><ele>389.0</ele><time>2026-05-01T12:29:09.001Z</time></trkpt><trkpt lat="43.51369710221345" lon="5.905543788881679"><ele>389.33333333333337</ele><time>2026-05-01T12:29:10.001Z</time></trkpt><trkpt lat="43.513653255375935" lon="5.905656643496371"><ele>389.6666666666667</ele><time>2026-05-01T12:29:11.001Z</time></trkpt><trkpt lat="43.51360385280119" lon="5.905750728357816"><ele>390.0</ele><time>2026-05-01T12:29:12.001Z</time></trkpt><trkpt lat="43.51354210475717" lon="5.905920750288385"><ele>390.0</ele><time>2026-05-01T12:29:14Z</time></trkpt><trkpt lat="43.51352837569674" lon="5.9060491799862245"><ele>390.0</ele><time>2026-05-01T12:29:15Z</time></trkpt><trkpt lat="43.5135179989563" lon="5.906207519144304"><ele>390.0</ele><time>2026-05-01T12:29:16Z</time></trkpt><trkpt lat="43.51349644909447" lon="5.9063242256216775"><ele>390.0</ele><time>2026-05-01T12:29:17Z</time></trkpt><trkpt lat="43.5134093791249" lon="5.906446283333905"><ele>390.0</ele><time>2026-05-01T12:29:19Z</time></trkpt><trkpt lat="43.513427304521144" lon="5.906541986235236"><ele>390.0</ele><time>2026-05-01T12:29:28Z</time></trkpt><trkpt lat="43.51343009995953" lon="5.906716519602587"><ele>390.0</ele><time>2026-05-01T12:29:30Z</time></trkpt><trkpt lat="43.513402963011785" lon="5.906858151915655"><ele>390.0</ele><time>2026-05-01T12:29:31Z</time></trkpt><trkpt lat="43.51335645051021" lon="5.906952919587669"><ele>390.0</ele><time>2026-05-01T12:29:32Z</time></trkpt><trkpt lat="43.51327901732039" lon="5.907061614430045"><ele>390.0</ele><time>2026-05-01T12:29:33Z</time></trkpt><trkpt lat="43.51317545574948" lon="5.9072113253459"><ele>388.25</ele><time>2026-05-01T12:29:34Z</time></trkpt><trkpt lat="43.51308035321517" lon="5.907364112489003"><ele>386.5</ele><time>2026-05-01T12:29:35Z</time></trkpt><trkpt lat="43.51299735453663" lon="5.907484266883474"><ele>384.75</ele><time>2026-05-01T12:29:36Z</time></trkpt><trkpt lat="43.51291735321335" lon="5.907585214814339"><ele>383.0</ele><time>2026-05-01T12:29:37Z</time></trkpt><trkpt lat="43.51284543783238" lon="5.907682059768374"><ele>382.79999999999995</ele><time>2026-05-01T12:29:38Z</time></trkpt><trkpt lat="43.51277210809737" lon="5.907791290905637"><ele>382.6</ele><time>2026-05-01T12:29:39Z</time></trkpt><trkpt lat="43.51272535095451" lon="5.907886128151273"><ele>382.4</ele><time>2026-05-01T12:29:40Z</time></trkpt><trkpt lat="43.51268929630381" lon="5.9080071322478105"><ele>382.20000000000005</ele><time>2026-05-01T12:29:41Z</time></trkpt><trkpt lat="43.5126687291464" lon="5.908128159908323"><ele>382.0</ele><time>2026-05-01T12:29:42Z</time></trkpt><trkpt lat="43.51263579712691" lon="5.908237775188691"><ele>382.0</ele><time>2026-05-01T12:29:43Z</time></trkpt><trkpt lat="43.51257645699217" lon="5.9083385839867955"><ele>382.0</ele><time>2026-05-01T12:29:44Z</time></trkpt><trkpt lat="43.512506542155094" lon="5.908409532851121"><ele>382.0</ele><time>2026-05-01T12:29:45Z</time></trkpt><trkpt lat="43.51244883112426" lon="5.9084958868759205"><ele>382.0</ele><time>2026-05-01T12:29:46Z</time></trkpt><trkpt lat="43.51240653549253" lon="5.908597374142531"><ele>382.0</ele><time>2026-05-01T12:29:47Z</time></trkpt><trkpt lat="43.51238560802981" lon="5.908704917555097"><ele>382.0</ele><time>2026-05-01T12:29:48Z</time></trkpt><trkpt lat="43.51238083691762" lon="5.908797075196509"><ele>380.5</ele><time>2026-05-01T12:29:49Z</time></trkpt><trkpt lat="43.5123821232788" lon="5.908903481285925"><ele>379.0</ele><time>2026-05-01T12:29:50Z</time></trkpt><trkpt lat="43.51239756726451" lon="5.9090208919510046"><ele>377.5</ele><time>2026-05-01T12:29:51Z</time></trkpt><trkpt lat="43.512426964598326" lon="5.909128238865103"><ele>376.0</ele><time>2026-05-01T12:29:52Z</time></trkpt><trkpt lat="43.512461163661" lon="5.9092299029636"><ele>374.5</ele><time>2026-05-01T12:29:53Z</time></trkpt><trkpt lat="43.5125034735593" lon="5.909338491705494"><ele>373.0</ele><time>2026-05-01T12:29:54Z</time></trkpt><trkpt lat="43.512559066024274" lon="5.909427217354431"><ele>371.5</ele><time>2026-05-01T12:29:55Z</time></trkpt><trkpt lat="43.51262315450385" lon="5.909527373869189"><ele>370.0</ele><time>2026-05-01T12:29:56Z</time></trkpt><trkpt lat="43.51267513588136" lon="5.9096199987841755"><ele>368.5</ele><time>2026-05-01T12:29:57.001Z</time></trkpt><trkpt lat="43.51270069742925" lon="5.909706239834592"><ele>367.0</ele><time>2026-05-01T12:29:58.001Z</time></trkpt><trkpt lat="43.51267127922313" lon="5.909846273903456"><ele>365.5</ele><time>2026-05-01T12:30:00.001Z</time></trkpt><trkpt lat="43.512720966198366" lon="5.909908111126746"><ele>364.0</ele><time>2026-05-01T12:30:08.001Z</time></trkpt><trkpt lat="43.51283628241927" lon="5.909856885538022"><ele>361.8333333333333</ele><time>2026-05-01T12:30:10.001Z</time></trkpt><trkpt lat="43.51291097485479" lon="5.909845064401827"><ele>359.66666666666663</ele><time>2026-05-01T12:30:11.001Z</time></trkpt><trkpt lat="43.51299891568119" lon="5.909777377329049"><ele>357.5</ele><time>2026-05-01T12:30:13.001Z</time></trkpt><trkpt lat="43.51302145172995" lon="5.909692547923344"><ele>355.3333333333333</ele><time>2026-05-01T12:30:14Z</time></trkpt><trkpt lat="43.513052901718815" lon="5.909589522665002"><ele>353.1666666666667</ele><time>2026-05-01T12:30:15Z</time></trkpt><trkpt lat="43.51309421507548" lon="5.909482900889642"><ele>351.0</ele><time>2026-05-01T12:30:16Z</time></trkpt><trkpt lat="43.51312223759244" lon="5.909401506341254"><ele>351.00000000000006</ele><time>2026-05-01T12:30:17Z</time></trkpt><trkpt lat="43.51315381760475" lon="5.909323317489699"><ele>351.0</ele><time>2026-05-01T12:30:18Z</time></trkpt><trkpt lat="43.51317797540217" lon="5.9092222295739445"><ele>351.0</ele><time>2026-05-01T12:30:19Z</time></trkpt><trkpt lat="43.51320378923019" lon="5.90914120827384"><ele>351.0</ele><time>2026-05-01T12:30:20Z</time></trkpt><trkpt lat="43.51321469931296" lon="5.909042579695498"><ele>351.0</ele><time>2026-05-01T12:30:21Z</time></trkpt><trkpt lat="43.51322049305914" lon="5.908951352771459"><ele>351.00000000000006</ele><time>2026-05-01T12:30:22Z</time></trkpt><trkpt lat="43.513237228553855" lon="5.908840685109018"><ele>351.0</ele><time>2026-05-01T12:30:23Z</time></trkpt><trkpt lat="43.51326294995974" lon="5.9087561596983456"><ele>352.0</ele><time>2026-05-01T12:30:24Z</time></trkpt><trkpt lat="43.513353798954896" lon="5.908634366096008"><ele>353.0</ele><time>2026-05-01T12:30:26Z</time></trkpt><trkpt lat="43.513408959683076" lon="5.90858637571312"><ele>354.0</ele><time>2026-05-01T12:30:27Z</time></trkpt><trkpt lat="43.51347028815178" lon="5.908540999117023"><ele>355.0</ele><time>2026-05-01T12:30:28Z</time></trkpt><trkpt lat="43.5135915660206" lon="5.908433177134144"><ele>356.0</ele><time>2026-05-01T12:30:30Z</time></trkpt><trkpt lat="43.51366418644357" lon="5.9083394087832195"><ele>357.6</ele><time>2026-05-01T12:30:31Z</time></trkpt><trkpt lat="43.51372215194602" lon="5.908268875894605"><ele>359.20000000000005</ele><time>2026-05-01T12:30:32Z</time></trkpt><trkpt lat="43.51381253640609" lon="5.908181172002027"><ele>360.79999999999995</ele><time>2026-05-01T12:30:34Z</time></trkpt><trkpt lat="43.51393256289873" lon="5.908144795313225"><ele>362.4</ele><time>2026-05-01T12:30:36Z</time></trkpt><trkpt lat="43.514016557628075" lon="5.908145577303407"><ele>364.0</ele><time>2026-05-01T12:30:37Z</time></trkpt><trkpt lat="43.514098052723476" lon="5.908137714211795"><ele>361.0</ele><time>2026-05-01T12:30:38Z</time></trkpt><trkpt lat="43.514168000888404" lon="5.9081511856556626"><ele>358.0</ele><time>2026-05-01T12:30:39Z</time></trkpt><trkpt lat="43.51424275988232" lon="5.90815733533008"><ele>355.0</ele><time>2026-05-01T12:30:40Z</time></trkpt><trkpt lat="43.51431912120913" lon="5.90815451776102"><ele>352.0</ele><time>2026-05-01T12:30:41Z</time></trkpt><trkpt lat="43.51438271990843" lon="5.908144921540378"><ele>349.0</ele><time>2026-05-01T12:30:42Z</time></trkpt><trkpt lat="43.51450254654336" lon="5.9081837613602355"><ele>346.0</ele><time>2026-05-01T12:30:44Z</time></trkpt><trkpt lat="43.514610853598775" lon="5.908236990209715"><ele>343.8</ele><time>2026-05-01T12:30:46Z</time></trkpt><trkpt lat="43.51467482612949" lon="5.90824500047801"><ele>341.6</ele><time>2026-05-01T12:30:47Z</time></trkpt><trkpt lat="43.51479508301832" lon="5.908314019792357"><ele>339.4</ele><time>2026-05-01T12:30:49Z</time></trkpt><trkpt lat="43.514861318603906" lon="5.908345491030757"><ele>337.2</ele><time>2026-05-01T12:30:50Z</time></trkpt><trkpt lat="43.514951430720245" lon="5.9084657238930465"><ele>335.0</ele><time>2026-05-01T12:30:52Z</time></trkpt><trkpt lat="43.51498706995278" lon="5.908592324956618"><ele>334.1666666666667</ele><time>2026-05-01T12:30:54Z</time></trkpt><trkpt lat="43.515010115976914" lon="5.908739053846387"><ele>333.33333333333337</ele><time>2026-05-01T12:30:56Z</time></trkpt><trkpt lat="43.5150434133488" lon="5.9088528859694"><ele>332.5</ele><time>2026-05-01T12:30:58Z</time></trkpt><trkpt lat="43.515113048520895" lon="5.908854008499728"><ele>331.6666666666667</ele><time>2026-05-01T12:31:11Z</time></trkpt><trkpt lat="43.5151774579404" lon="5.908837354183472"><ele>330.8333333333333</ele><time>2026-05-01T12:31:14Z</time></trkpt><trkpt lat="43.515251636394204" lon="5.908825939316295"><ele>330.0</ele><time>2026-05-01T12:31:17Z</time></trkpt><trkpt lat="43.51532289137752" lon="5.908846603913026"><ele>330.0</ele><time>2026-05-01T12:31:19Z</time></trkpt><trkpt lat="43.515369008652016" lon="5.908934298741149"><ele>330.0</ele><time>2026-05-01T12:31:26Z</time></trkpt><trkpt lat="43.51540325069085" lon="5.909015304980513"><ele>330.0</ele><time>2026-05-01T12:32:07Z</time></trkpt><trkpt lat="43.515450778485636" lon="5.909074689164249"><ele>330.0</ele><time>2026-05-01T12:32:10Z</time></trkpt><trkpt lat="43.515514506822065" lon="5.909114020004788"><ele>330.0</ele><time>2026-05-01T12:32:13Z</time></trkpt><trkpt lat="43.51558876434068" lon="5.909145284162114"><ele>330.0</ele><time>2026-05-01T12:32:16Z</time></trkpt><trkpt lat="43.51568486242178" lon="5.909172965901292"><ele>329.14285714285717</ele><time>2026-05-01T12:32:19Z</time></trkpt><trkpt lat="43.51575874753741" lon="5.9092164901165045"><ele>328.2857142857143</ele><time>2026-05-01T12:32:24Z</time></trkpt><trkpt lat="43.51582289547292" lon="5.909218266920058"><ele>327.42857142857144</ele><time>2026-05-01T12:32:29Z</time></trkpt><trkpt lat="43.51589556629037" lon="5.90918800658037"><ele>326.57142857142856</ele><time>2026-05-01T12:32:37Z</time></trkpt><trkpt lat="43.51596460882838" lon="5.909169594960564"><ele>325.7142857142857</ele><time>2026-05-01T12:32:39Z</time></trkpt><trkpt lat="43.51602754015347" lon="5.9091754576101945"><ele>324.8571428571429</ele><time>2026-05-01T12:32:55Z</time></trkpt><trkpt lat="43.51608954243217" lon="5.909237943160023"><ele>324.0</ele><time>2026-05-01T12:32:57Z</time></trkpt><trkpt lat="43.51614970228156" lon="5.9092965214842215"><ele>324.0</ele><time>2026-05-01T12:32:58Z</time></trkpt><trkpt lat="43.5162081026106" lon="5.9093896275713655"><ele>324.0</ele><time>2026-05-01T12:32:59Z</time></trkpt><trkpt lat="43.5162697821966" lon="5.909548693899993"><ele>324.0</ele><time>2026-05-01T12:33:01Z</time></trkpt><trkpt lat="43.51629267745251" lon="5.909672958174374"><ele>324.0</ele><time>2026-05-01T12:33:02Z</time></trkpt><trkpt lat="43.51628822271323" lon="5.909818705700736"><ele>324.0</ele><time>2026-05-01T12:33:04Z</time></trkpt><trkpt lat="43.51626352827746" lon="5.909908304957322"><ele>323.0</ele><time>2026-05-01T12:33:05Z</time></trkpt><trkpt lat="43.51625299622669" lon="5.909995347519246"><ele>322.0</ele><time>2026-05-01T12:33:06Z</time></trkpt><trkpt lat="43.51628905127976" lon="5.910122210749914"><ele>321.0</ele><time>2026-05-01T12:33:08Z</time></trkpt><trkpt lat="43.51629266831894" lon="5.910216684929343"><ele>320.0</ele><time>2026-05-01T12:33:09Z</time></trkpt><trkpt lat="43.51626564530731" lon="5.910322203146464"><ele>319.0</ele><time>2026-05-01T12:33:10Z</time></trkpt><trkpt lat="43.51621379266459" lon="5.910420250554992"><ele>318.0</ele><time>2026-05-01T12:33:11Z</time></trkpt><trkpt lat="43.516159283303956" lon="5.910509848181239"><ele>318.0</ele><time>2026-05-01T12:33:12Z</time></trkpt><trkpt lat="43.51609498963231" lon="5.910572920340421"><ele>318.0</ele><time>2026-05-01T12:33:13Z</time></trkpt><trkpt lat="43.51600354324304" lon="5.91064596754755"><ele>318.0</ele><time>2026-05-01T12:33:14Z</time></trkpt><trkpt lat="43.51591586026362" lon="5.910706295082474"><ele>318.0</ele><time>2026-05-01T12:33:15Z</time></trkpt><trkpt lat="43.51583961787567" lon="5.910751482202517"><ele>318.0</ele><time>2026-05-01T12:33:16Z</time></trkpt><trkpt lat="43.51576242790318" lon="5.910781048006192"><ele>318.0</ele><time>2026-05-01T12:33:17Z</time></trkpt><trkpt lat="43.51567302446497" lon="5.910806436959511"><ele>318.0</ele><time>2026-05-01T12:33:18Z</time></trkpt><trkpt lat="43.51560672595577" lon="5.910827333660158"><ele>318.0</ele><time>2026-05-01T12:33:19Z</time></trkpt><trkpt lat="43.51550830731538" lon="5.910749829805149"><ele>318.0</ele><time>2026-05-01T12:33:21Z</time></trkpt><trkpt lat="43.515427652635594" lon="5.910684481768716"><ele>318.0</ele><time>2026-05-01T12:33:22Z</time></trkpt><trkpt lat="43.51535583099135" lon="5.910652002755367"><ele>318.0</ele><time>2026-05-01T12:33:23Z</time></trkpt><trkpt lat="43.5152763044952" lon="5.910646374132328"><ele>318.0</ele><time>2026-05-01T12:33:24Z</time></trkpt><trkpt lat="43.515162908865015" lon="5.9106265580191995"><ele>317.2</ele><time>2026-05-01T12:33:25Z</time></trkpt><trkpt lat="43.51506494316133" lon="5.91059058154099"><ele>316.4</ele><time>2026-05-01T12:33:26Z</time></trkpt><trkpt lat="43.514985066777335" lon="5.910568455477765"><ele>315.59999999999997</ele><time>2026-05-01T12:33:27Z</time></trkpt><trkpt lat="43.514913301823825" lon="5.910566435653677"><ele>314.8</ele><time>2026-05-01T12:33:28Z</time></trkpt><trkpt lat="43.5147881542247" lon="5.9106262526728415"><ele>314.0</ele><time>2026-05-01T12:33:30Z</time></trkpt><trkpt lat="43.51470115954201" lon="5.910654988813557"><ele>314.0</ele><time>2026-05-01T12:33:32Z</time></trkpt><trkpt lat="43.514634322328945" lon="5.910706908160365"><ele>314.0</ele><time>2026-05-01T12:33:39Z</time></trkpt><trkpt lat="43.51453940558872" lon="5.910783599512055"><ele>314.0</ele><time>2026-05-01T12:33:41Z</time></trkpt><trkpt lat="43.51453583586373" lon="5.910888942088371"><ele>314.0</ele><time>2026-05-01T12:33:43Z</time></trkpt><trkpt lat="43.514537605841824" lon="5.9110186939946985"><ele>314.0</ele><time>2026-05-01T12:33:45Z</time></trkpt><trkpt lat="43.51452326801904" lon="5.911109775419391"><ele>314.0</ele><time>2026-05-01T12:33:46Z</time></trkpt><trkpt lat="43.514527773306774" lon="5.911243436112834"><ele>314.0</ele><time>2026-05-01T12:33:48Z</time></trkpt><trkpt lat="43.51460596268592" lon="5.911282280308711"><ele>314.0</ele><time>2026-05-01T12:33:53Z</time></trkpt><trkpt lat="43.51463687334264" lon="5.911360190396592"><ele>314.0</ele><time>2026-05-01T12:33:55Z</time></trkpt><trkpt lat="43.51466677588633" lon="5.911453948158664"><ele>314.0</ele><time>2026-05-01T12:33:59Z</time></trkpt><trkpt lat="43.514692847318294" lon="5.91157043725873"><ele>314.0</ele><time>2026-05-01T12:34:23Z</time></trkpt><trkpt lat="43.514750517251784" lon="5.911646470221308"><ele>314.0</ele><time>2026-05-01T12:34:25Z</time></trkpt><trkpt lat="43.51482744503866" lon="5.911627145321798"><ele>314.0</ele><time>2026-05-01T12:34:27Z</time></trkpt><trkpt lat="43.51490313930314" lon="5.911616536232185"><ele>314.0</ele><time>2026-05-01T12:34:29Z</time></trkpt><trkpt lat="43.514989177358146" lon="5.911619232652337"><ele>314.0</ele><time>2026-05-01T12:34:31Z</time></trkpt><trkpt lat="43.51507994114062" lon="5.91167240547383"><ele>314.0</ele><time>2026-05-01T12:34:33Z</time></trkpt><trkpt lat="43.51514564020171" lon="5.91171909205161"><ele>314.0</ele><time>2026-05-01T12:34:35Z</time></trkpt><trkpt lat="43.51522085938119" lon="5.9117437882252855"><ele>314.0</ele><time>2026-05-01T12:34:37Z</time></trkpt><trkpt lat="43.51529648768293" lon="5.91177299976417"><ele>313.6666666666667</ele><time>2026-05-01T12:34:39Z</time></trkpt><trkpt lat="43.515356119222986" lon="5.911802622672775"><ele>313.33333333333337</ele><time>2026-05-01T12:34:41Z</time></trkpt><trkpt lat="43.51540377444677" lon="5.911884044479091"><ele>313.0</ele><time>2026-05-01T12:34:44Z</time></trkpt><trkpt lat="43.515408235488046" lon="5.912004658428069"><ele>312.6666666666667</ele><time>2026-05-01T12:34:46Z</time></trkpt><trkpt lat="43.51543449019887" lon="5.912131557331786"><ele>312.3333333333333</ele><time>2026-05-01T12:34:48Z</time></trkpt><trkpt lat="43.51540346453246" lon="5.912218240720333"><ele>312.0</ele><time>2026-05-01T12:34:49Z</time></trkpt><trkpt lat="43.515425365330245" lon="5.9123551153914455"><ele>312.0</ele><time>2026-05-01T12:34:51Z</time></trkpt><trkpt lat="43.51541914777665" lon="5.912465131172308"><ele>312.0</ele><time>2026-05-01T12:34:53Z</time></trkpt><trkpt lat="43.515347523741454" lon="5.912560849488505"><ele>312.0</ele><time>2026-05-01T12:34:55Z</time></trkpt><trkpt lat="43.51525174561525" lon="5.912543061423814"><ele>312.0</ele><time>2026-05-01T12:34:57Z</time></trkpt><trkpt lat="43.51515219826399" lon="5.912588914806397"><ele>312.0</ele><time>2026-05-01T12:34:59Z</time></trkpt><trkpt lat="43.51506873494721" lon="5.912667891818634"><ele>314.0</ele><time>2026-05-01T12:35:01Z</time></trkpt><trkpt lat="43.51498590265068" lon="5.91274863986838"><ele>316.0</ele><time>2026-05-01T12:35:03Z</time></trkpt><trkpt lat="43.51491930497476" lon="5.91277349416278"><ele>318.0</ele><time>2026-05-01T12:35:04Z</time></trkpt><trkpt lat="43.51483786254847" lon="5.912771208448554"><ele>320.0</ele><time>2026-05-01T12:35:05Z</time></trkpt><trkpt lat="43.514761411941656" lon="5.9127852661969635"><ele>322.0</ele><time>2026-05-01T12:35:08Z</time></trkpt><trkpt lat="43.514704422010745" lon="5.9128802908473075"><ele>324.0</ele><time>2026-05-01T12:35:10Z</time></trkpt><trkpt lat="43.514637477493245" lon="5.912919642750546"><ele>321.8</ele><time>2026-05-01T12:35:12Z</time></trkpt><trkpt lat="43.51456243817781" lon="5.913042703839893"><ele>319.59999999999997</ele><time>2026-05-01T12:35:14Z</time></trkpt><trkpt lat="43.514482590109274" lon="5.913093853691048"><ele>317.4</ele><time>2026-05-01T12:35:16Z</time></trkpt><trkpt lat="43.51441361928887" lon="5.913097490041373"><ele>315.2</ele><time>2026-05-01T12:35:18Z</time></trkpt><trkpt lat="43.51434540568692" lon="5.913142417250835"><ele>313.0</ele><time>2026-05-01T12:35:22Z</time></trkpt><trkpt lat="43.514236366305454" lon="5.913142254147124"><ele>313.0</ele><time>2026-05-01T12:35:25Z</time></trkpt><trkpt lat="43.51413678558854" lon="5.913182182271142"><ele>313.0</ele><time>2026-05-01T12:35:27Z</time></trkpt><trkpt lat="43.51403261935499" lon="5.9132135170752695"><ele>313.0</ele><time>2026-05-01T12:35:29Z</time></trkpt><trkpt lat="43.513965807068814" lon="5.913229151056199"><ele>313.0</ele><time>2026-05-01T12:35:30Z</time></trkpt><trkpt lat="43.51390189525891" lon="5.913221804525455"><ele>313.0</ele><time>2026-05-01T12:35:32Z</time></trkpt><trkpt lat="43.51383623181503" lon="5.913239521383052"><ele>313.0</ele><time>2026-05-01T12:35:34Z</time></trkpt><trkpt lat="43.513729729705965" lon="5.9133021328521"><ele>313.0</ele><time>2026-05-01T12:35:36Z</time></trkpt><trkpt lat="43.513658033850966" lon="5.913436853391421"><ele>313.0</ele><time>2026-05-01T12:35:38Z</time></trkpt><trkpt lat="43.513642261448275" lon="5.913569763927798"><ele>313.0</ele><time>2026-05-01T12:35:40Z</time></trkpt><trkpt lat="43.51364750243935" lon="5.91369461955752"><ele>313.0</ele><time>2026-05-01T12:35:43Z</time></trkpt><trkpt lat="43.513630255948144" lon="5.913805353657224"><ele>313.0</ele><time>2026-05-01T12:35:45Z</time></trkpt><trkpt lat="43.51361398321562" lon="5.913893467522369"><ele>313.0</ele><time>2026-05-01T12:35:47Z</time></trkpt><trkpt lat="43.51363289969054" lon="5.914008087277766"><ele>313.0</ele><time>2026-05-01T12:35:48Z</time></trkpt><trkpt lat="43.51366489415647" lon="5.914105871464559"><ele>313.0</ele><time>2026-05-01T12:35:50Z</time></trkpt><trkpt lat="43.51370319996035" lon="5.9141809189654335"><ele>313.0</ele><time>2026-05-01T12:35:51Z</time></trkpt><trkpt lat="43.51373308007417" lon="5.914271428928653"><ele>313.0</ele><time>2026-05-01T12:35:52Z</time></trkpt><trkpt lat="43.51376145333106" lon="5.914348996065122"><ele>313.0</ele><time>2026-05-01T12:35:53Z</time></trkpt><trkpt lat="43.51374905152924" lon="5.9144865135218705"><ele>313.66666666666663</ele><time>2026-05-01T12:35:55Z</time></trkpt><trkpt lat="43.51372858974325" lon="5.914573400389527"><ele>314.3333333333333</ele><time>2026-05-01T12:35:56Z</time></trkpt><trkpt lat="43.513738362535925" lon="5.914700460805411"><ele>315.0</ele><time>2026-05-01T12:35:58Z</time></trkpt><trkpt lat="43.513762333905554" lon="5.914852475131097"><ele>315.6666666666667</ele><time>2026-05-01T12:35:59Z</time></trkpt><trkpt lat="43.51378012943734" lon="5.914954703218032"><ele>316.33333333333337</ele><time>2026-05-01T12:36:00Z</time></trkpt><trkpt lat="43.513791000995994" lon="5.915042567238499"><ele>317.0</ele><time>2026-05-01T12:36:01Z</time></trkpt><trkpt lat="43.513788696452345" lon="5.9151338007711765"><ele>315.6666666666667</ele><time>2026-05-01T12:36:02Z</time></trkpt><trkpt lat="43.51381100403845" lon="5.9152597441707755"><ele>314.33333333333337</ele><time>2026-05-01T12:36:18Z</time></trkpt><trkpt lat="43.51382471209066" lon="5.9153540483931355"><ele>313.0</ele><time>2026-05-01T12:36:19Z</time></trkpt><trkpt lat="43.51389809954084" lon="5.91543621547547"><ele>311.6666666666667</ele><time>2026-05-01T12:36:21Z</time></trkpt><trkpt lat="43.51393043517134" lon="5.915524279081704"><ele>310.3333333333333</ele><time>2026-05-01T12:36:23Z</time></trkpt><trkpt lat="43.51396435907663" lon="5.915601219589646"><ele>309.0</ele><time>2026-05-01T12:36:24Z</time></trkpt><trkpt lat="43.51400727787751" lon="5.9156653604499345"><ele>309.0</ele><time>2026-05-01T12:36:25Z</time></trkpt><trkpt lat="43.51403009508238" lon="5.9157595956841735"><ele>309.0</ele><time>2026-05-01T12:36:27Z</time></trkpt><trkpt lat="43.514019375589164" lon="5.915902335523134"><ele>309.0</ele><time>2026-05-01T12:36:29Z</time></trkpt><trkpt lat="43.51407065973941" lon="5.916002116413105"><ele>309.0</ele><time>2026-05-01T12:36:32Z</time></trkpt><trkpt lat="43.514069991331304" lon="5.916095659823439"><ele>309.0</ele><time>2026-05-01T12:36:34Z</time></trkpt><trkpt lat="43.51409017363184" lon="5.9162142828219455"><ele>309.0</ele><time>2026-05-01T12:36:38Z</time></trkpt><trkpt lat="43.51412292111223" lon="5.916297492038182"><ele>309.0</ele><time>2026-05-01T12:36:40Z</time></trkpt><trkpt lat="43.51415422391662" lon="5.916417112599567"><ele>309.0</ele><time>2026-05-01T12:36:42Z</time></trkpt><trkpt lat="43.51417504984586" lon="5.916531717038714"><ele>309.0</ele><time>2026-05-01T12:36:43Z</time></trkpt><trkpt lat="43.51421260793715" lon="5.916686022196888"><ele>309.0</ele><time>2026-05-01T12:36:44Z</time></trkpt><trkpt lat="43.51426846071756" lon="5.916870516710003"><ele>309.0</ele><time>2026-05-01T12:36:45Z</time></trkpt><trkpt lat="43.51433267918301" lon="5.917057529519617"><ele>310.25</ele><time>2026-05-01T12:36:46Z</time></trkpt><trkpt lat="43.51438952166186" lon="5.917242441734738"><ele>311.5</ele><time>2026-05-01T12:36:47Z</time></trkpt><trkpt lat="43.514440883631295" lon="5.917403009971063"><ele>312.75</ele><time>2026-05-01T12:36:48Z</time></trkpt><trkpt lat="43.5144931657195" lon="5.917529743548548"><ele>314.0</ele><time>2026-05-01T12:36:49Z</time></trkpt><trkpt lat="43.51452922410366" lon="5.917619464108445"><ele>312.33333333333337</ele><time>2026-05-01T12:36:50Z</time></trkpt><trkpt lat="43.51456385811504" lon="5.917774908534541"><ele>310.6666666666667</ele><time>2026-05-01T12:36:52Z</time></trkpt><trkpt lat="43.514594761483764" lon="5.917851153661269"><ele>309.0</ele><time>2026-05-01T12:36:54Z</time></trkpt><trkpt lat="43.514633624244645" lon="5.917948404747611"><ele>307.3333333333333</ele><time>2026-05-01T12:37:03Z</time></trkpt><trkpt lat="43.51458473708954" lon="5.918005269815226"><ele>305.66666666666663</ele><time>2026-05-01T12:37:15Z</time></trkpt><trkpt lat="43.51460545756922" lon="5.918107172828436"><ele>304.0</ele><time>2026-05-01T12:37:19Z</time></trkpt><trkpt lat="43.51468043755115" lon="5.918162894565814"><ele>304.0</ele><time>2026-05-01T12:37:21Z</time></trkpt><trkpt lat="43.51474232154093" lon="5.9182191710883245"><ele>304.0</ele><time>2026-05-01T12:37:24Z</time></trkpt><trkpt lat="43.51478673644176" lon="5.918305926757867"><ele>304.0</ele><time>2026-05-01T12:37:26Z</time></trkpt><trkpt lat="43.51485020124888" lon="5.918412580331835"><ele>304.0</ele><time>2026-05-01T12:37:28Z</time></trkpt><trkpt lat="43.51488451885254" lon="5.918488462585696"><ele>304.0</ele><time>2026-05-01T12:37:31Z</time></trkpt><trkpt lat="43.51497182390179" lon="5.918565263826926"><ele>304.0</ele><time>2026-05-01T12:37:34Z</time></trkpt><trkpt lat="43.51504170570409" lon="5.9186105153759305"><ele>304.16666666666663</ele><time>2026-05-01T12:37:36Z</time></trkpt><trkpt lat="43.51512875838689" lon="5.918664216463428"><ele>304.3333333333333</ele><time>2026-05-01T12:37:39Z</time></trkpt><trkpt lat="43.51516512589378" lon="5.918755640307608"><ele>304.5</ele><time>2026-05-01T12:37:42Z</time></trkpt><trkpt lat="43.51513594328121" lon="5.918850666725901"><ele>304.6666666666667</ele><time>2026-05-01T12:37:44Z</time></trkpt><trkpt lat="43.5151268466366" lon="5.918950653998371"><ele>304.83333333333337</ele><time>2026-05-01T12:37:46Z</time></trkpt><trkpt lat="43.51507187509087" lon="5.919039064051213"><ele>305.0</ele><time>2026-05-01T12:37:49Z</time></trkpt><trkpt lat="43.51510121982088" lon="5.919127159594502"><ele>304.6666666666667</ele><time>2026-05-01T12:37:51Z</time></trkpt><trkpt lat="43.515089147723124" lon="5.919241294002686"><ele>304.33333333333337</ele><time>2026-05-01T12:37:53Z</time></trkpt><trkpt lat="43.51501343073068" lon="5.9192949949396"><ele>304.0</ele><time>2026-05-01T12:37:55Z</time></trkpt><trkpt lat="43.51499550886979" lon="5.919410642432849"><ele>303.6666666666667</ele><time>2026-05-01T12:37:59Z</time></trkpt><trkpt lat="43.51490625640059" lon="5.919510314172509"><ele>303.3333333333333</ele><time>2026-05-01T12:38:02Z</time></trkpt><trkpt lat="43.51486103853875" lon="5.919576054974695"><ele>303.0</ele><time>2026-05-01T12:38:04Z</time></trkpt><trkpt lat="43.51486499648598" lon="5.919664442714038"><ele>303.0</ele><time>2026-05-01T12:38:06Z</time></trkpt><trkpt lat="43.51488815151867" lon="5.9197613911313764"><ele>303.0</ele><time>2026-05-01T12:38:08Z</time></trkpt><trkpt lat="43.51495050703241" lon="5.919815371814959"><ele>303.0</ele><time>2026-05-01T12:38:13Z</time></trkpt><trkpt lat="43.51497579319219" lon="5.9199454378925465"><ele>303.0</ele><time>2026-05-01T12:38:15Z</time></trkpt><trkpt lat="43.51500372288073" lon="5.920097365868983"><ele>303.0</ele><time>2026-05-01T12:38:17Z</time></trkpt><trkpt lat="43.515018594262884" lon="5.920211488149199"><ele>303.0</ele><time>2026-05-01T12:38:20Z</time></trkpt><trkpt lat="43.51502042007306" lon="5.92036764575306"><ele>303.1666666666667</ele><time>2026-05-01T12:38:22Z</time></trkpt><trkpt lat="43.51501900651923" lon="5.920481295025098"><ele>303.3333333333333</ele><time>2026-05-01T12:38:25Z</time></trkpt><trkpt lat="43.51503053723781" lon="5.920622982062784"><ele>303.5</ele><time>2026-05-01T12:38:28Z</time></trkpt><trkpt lat="43.515019879747186" lon="5.920722205112278"><ele>303.66666666666663</ele><time>2026-05-01T12:38:29Z</time></trkpt><trkpt lat="43.51499650679468" lon="5.920811749482502"><ele>303.8333333333333</ele><time>2026-05-01T12:38:32Z</time></trkpt><trkpt lat="43.51494503880201" lon="5.920862006040045"><ele>304.0</ele><time>2026-05-01T12:38:34Z</time></trkpt><trkpt lat="43.514960703736044" lon="5.9209843445251815"><ele>304.2</ele><time>2026-05-01T12:38:37Z</time></trkpt><trkpt lat="43.51499835620842" lon="5.921156128269798"><ele>304.4</ele><time>2026-05-01T12:38:39Z</time></trkpt><trkpt lat="43.51501819253871" lon="5.921251369013808"><ele>304.6</ele><time>2026-05-01T12:38:45Z</time></trkpt><trkpt lat="43.51505669637456" lon="5.921353254869645"><ele>304.8</ele><time>2026-05-01T12:38:47Z</time></trkpt><trkpt lat="43.51509405534101" lon="5.9214838006329895"><ele>305.0</ele><time>2026-05-01T12:38:49Z</time></trkpt><trkpt lat="43.51515304331567" lon="5.921584612524022"><ele>305.0</ele><time>2026-05-01T12:38:51Z</time></trkpt><trkpt lat="43.51518808951921" lon="5.92166351863436"><ele>305.0</ele><time>2026-05-01T12:38:52Z</time></trkpt><trkpt lat="43.515274757297085" lon="5.9218133973129135"><ele>305.0</ele><time>2026-05-01T12:38:54Z</time></trkpt><trkpt lat="43.515338897183376" lon="5.921936235888171"><ele>305.0</ele><time>2026-05-01T12:38:56Z</time></trkpt><trkpt lat="43.515379223783015" lon="5.922022627480265"><ele>305.0</ele><time>2026-05-01T12:38:58Z</time></trkpt><trkpt lat="43.51540493463659" lon="5.922115618847377"><ele>304.6</ele><time>2026-05-01T12:39:00Z</time></trkpt><trkpt lat="43.51541798503271" lon="5.922205151554761"><ele>304.2</ele><time>2026-05-01T12:39:03Z</time></trkpt><trkpt lat="43.51539080051852" lon="5.922367580394986"><ele>303.8</ele><time>2026-05-01T12:39:06Z</time></trkpt><trkpt lat="43.51538207492276" lon="5.9224693831270026"><ele>303.4</ele><time>2026-05-01T12:39:08Z</time></trkpt><trkpt lat="43.51530977560188" lon="5.922527046615585"><ele>303.0</ele><time>2026-05-01T12:39:11Z</time></trkpt><trkpt lat="43.515214796854856" lon="5.922453370167214"><ele>303.0</ele><time>2026-05-01T12:40:08Z</time></trkpt><trkpt lat="43.51514284995008" lon="5.922422012877021"><ele>303.0</ele><time>2026-05-01T12:40:09Z</time></trkpt><trkpt lat="43.51504421289132" lon="5.922390592559114"><ele>303.0</ele><time>2026-05-01T12:40:10Z</time></trkpt><trkpt lat="43.51492382153271" lon="5.922341780613292"><ele>303.0</ele><time>2026-05-01T12:40:11Z</time></trkpt><trkpt lat="43.514808958708876" lon="5.92228010023279"><ele>303.0</ele><time>2026-05-01T12:40:12Z</time></trkpt><trkpt lat="43.5146951591339" lon="5.922218656575203"><ele>303.0</ele><time>2026-05-01T12:40:13Z</time></trkpt><trkpt lat="43.5146071060265" lon="5.922187198887704"><ele>303.0</ele><time>2026-05-01T12:40:14Z</time></trkpt><trkpt lat="43.51453981479486" lon="5.922171738525"><ele>303.0</ele><time>2026-05-01T12:40:15Z</time></trkpt><trkpt lat="43.514472877133635" lon="5.922103359475334"><ele>303.0</ele><time>2026-05-01T12:40:16Z</time></trkpt><trkpt lat="43.51440052782747" lon="5.92216325970431"><ele>303.0</ele><time>2026-05-01T12:40:19Z</time></trkpt><trkpt lat="43.514410960163076" lon="5.922282592549958"><ele>303.0</ele><time>2026-05-01T12:40:22Z</time></trkpt><trkpt lat="43.5144064457029" lon="5.922408994236126"><ele>303.0</ele><time>2026-05-01T12:40:25Z</time></trkpt><trkpt lat="43.51437319977368" lon="5.922539880260174"><ele>303.0</ele><time>2026-05-01T12:40:28Z</time></trkpt><trkpt lat="43.514361736161796" lon="5.922636044624619"><ele>303.0</ele><time>2026-05-01T12:40:29Z</time></trkpt><trkpt lat="43.51436307038198" lon="5.922776944518169"><ele>303.0</ele><time>2026-05-01T12:40:30Z</time></trkpt><trkpt lat="43.514363008680704" lon="5.922935732089424"><ele>303.0</ele><time>2026-05-01T12:40:31Z</time></trkpt><trkpt lat="43.514351315800546" lon="5.9231488589015795"><ele>303.0</ele><time>2026-05-01T12:40:32Z</time></trkpt><trkpt lat="43.5143385484852" lon="5.923387036109551"><ele>303.0</ele><time>2026-05-01T12:40:33Z</time></trkpt><trkpt lat="43.51433072713969" lon="5.92364513397678"><ele>303.0</ele><time>2026-05-01T12:40:34Z</time></trkpt><trkpt lat="43.514352557236144" lon="5.923853855676334"><ele>302.5</ele><time>2026-05-01T12:40:35Z</time></trkpt><trkpt lat="43.51440840473992" lon="5.924035202658901"><ele>302.0</ele><time>2026-05-01T12:40:36Z</time></trkpt><trkpt lat="43.514487358656375" lon="5.924179966063957"><ele>301.5</ele><time>2026-05-01T12:40:37Z</time></trkpt><trkpt lat="43.514557789417324" lon="5.924307270290309"><ele>301.0</ele><time>2026-05-01T12:40:38Z</time></trkpt><trkpt lat="43.514641344699506" lon="5.9245043589885045"><ele>300.3333333333333</ele><time>2026-05-01T12:40:39Z</time></trkpt><trkpt lat="43.5147380287304" lon="5.924722548614198"><ele>299.6666666666667</ele><time>2026-05-01T12:40:40Z</time></trkpt><trkpt lat="43.51483887646176" lon="5.924906258502145"><ele>299.0</ele><time>2026-05-01T12:40:41Z</time></trkpt><trkpt lat="43.514956968291294" lon="5.9250774709645775"><ele>299.0</ele><time>2026-05-01T12:40:42Z</time></trkpt><trkpt lat="43.515070003140714" lon="5.92525429242044"><ele>299.0</ele><time>2026-05-01T12:40:43Z</time></trkpt><trkpt lat="43.5151683170925" lon="5.925418392902759"><ele>299.0</ele><time>2026-05-01T12:40:44Z</time></trkpt><trkpt lat="43.51527013705226" lon="5.9255621290854394"><ele>299.0</ele><time>2026-05-01T12:40:45Z</time></trkpt><trkpt lat="43.51538500031176" lon="5.925690733363951"><ele>299.0</ele><time>2026-05-01T12:40:46Z</time></trkpt><trkpt lat="43.515515511827374" lon="5.92582428337964"><ele>299.0</ele><time>2026-05-01T12:40:47Z</time></trkpt><trkpt lat="43.51563802307066" lon="5.925941520222551"><ele>299.25</ele><time>2026-05-01T12:40:48Z</time></trkpt><trkpt lat="43.51573874334101" lon="5.9260485658176965"><ele>299.5</ele><time>2026-05-01T12:40:49Z</time></trkpt><trkpt lat="43.51583114069702" lon="5.9261679046405344"><ele>299.75</ele><time>2026-05-01T12:40:50Z</time></trkpt><trkpt lat="43.51591710566191" lon="5.926277712454591"><ele>300.0</ele><time>2026-05-01T12:40:51Z</time></trkpt><trkpt lat="43.51601603586121" lon="5.926396398155588"><ele>300.0</ele><time>2026-05-01T12:40:52Z</time></trkpt><trkpt lat="43.51611688154957" lon="5.926508604925307"><ele>300.0</ele><time>2026-05-01T12:40:53Z</time></trkpt><trkpt lat="43.516199348253565" lon="5.926612201413542"><ele>300.0</ele><time>2026-05-01T12:40:54Z</time></trkpt><trkpt lat="43.51628510753191" lon="5.926688262154326"><ele>300.0</ele><time>2026-05-01T12:40:55Z</time></trkpt><trkpt lat="43.516378280274985" lon="5.926745599529354"><ele>300.0</ele><time>2026-05-01T12:40:56Z</time></trkpt><trkpt lat="43.51647841882685" lon="5.926767779610994"><ele>299.4</ele><time>2026-05-01T12:40:57Z</time></trkpt><trkpt lat="43.516571334500185" lon="5.926777533282337"><ele>298.8</ele><time>2026-05-01T12:40:58Z</time></trkpt><trkpt lat="43.51667355217632" lon="5.926781914700336"><ele>298.2</ele><time>2026-05-01T12:40:59Z</time></trkpt><trkpt lat="43.516774023576794" lon="5.926809736639263"><ele>297.6</ele><time>2026-05-01T12:41:00Z</time></trkpt><trkpt lat="43.51688352235393" lon="5.926849415795194"><ele>297.0</ele><time>2026-05-01T12:41:01Z</time></trkpt><trkpt lat="43.5170259325094" lon="5.926891230937945"><ele>296.0</ele><time>2026-05-01T12:41:02Z</time></trkpt><trkpt lat="43.51716550071797" lon="5.926931908340069"><ele>295.0</ele><time>2026-05-01T12:41:03Z</time></trkpt><trkpt lat="43.51729389315689" lon="5.926980713018267"><ele>294.0</ele><time>2026-05-01T12:41:04Z</time></trkpt><trkpt lat="43.51741780237492" lon="5.92701416650611"><ele>293.0</ele><time>2026-05-01T12:41:05Z</time></trkpt><trkpt lat="43.51753399150342" lon="5.9270362444106075"><ele>293.0</ele><time>2026-05-01T12:41:06Z</time></trkpt><trkpt lat="43.51764901354255" lon="5.9270670828724"><ele>293.0</ele><time>2026-05-01T12:41:07Z</time></trkpt><trkpt lat="43.51776074035318" lon="5.9271169123321235"><ele>293.0</ele><time>2026-05-01T12:41:08Z</time></trkpt><trkpt lat="43.51787877405185" lon="5.92718695977624"><ele>293.0</ele><time>2026-05-01T12:41:09Z</time></trkpt><trkpt lat="43.51801038168585" lon="5.92728071186566"><ele>291.75</ele><time>2026-05-01T12:41:10Z</time></trkpt><trkpt lat="43.518144133631765" lon="5.9273820294736455"><ele>290.5</ele><time>2026-05-01T12:41:11Z</time></trkpt><trkpt lat="43.51827118030177" lon="5.927456470165591"><ele>289.25</ele><time>2026-05-01T12:41:12Z</time></trkpt><trkpt lat="43.518386428281985" lon="5.927517836154155"><ele>288.0</ele><time>2026-05-01T12:41:13Z</time></trkpt><trkpt lat="43.51849224434104" lon="5.927585989528823"><ele>288.0</ele><time>2026-05-01T12:41:14Z</time></trkpt><trkpt lat="43.51859222675507" lon="5.927669328511633"><ele>288.0</ele><time>2026-05-01T12:41:15Z</time></trkpt><trkpt lat="43.51868238157261" lon="5.927755931046774"><ele>288.0</ele><time>2026-05-01T12:41:16Z</time></trkpt><trkpt lat="43.51876315407378" lon="5.927843166855967"><ele>288.0</ele><time>2026-05-01T12:41:17Z</time></trkpt><trkpt lat="43.518838782230006" lon="5.927931361550837"><ele>288.0</ele><time>2026-05-01T12:41:18Z</time></trkpt><trkpt lat="43.51890000914384" lon="5.928001814847476"><ele>287.0</ele><time>2026-05-01T12:41:19Z</time></trkpt><trkpt lat="43.51896097459346" lon="5.928046008065033"><ele>286.0</ele><time>2026-05-01T12:41:21Z</time></trkpt><trkpt lat="43.5189964308892" lon="5.92794412593183"><ele>285.0</ele><time>2026-05-01T12:41:28Z</time></trkpt><trkpt lat="43.519060824906774" lon="5.927764675353102"><ele>284.0</ele><time>2026-05-01T12:41:30Z</time></trkpt><trkpt lat="43.519096594529735" lon="5.927652702724725"><ele>283.0</ele><time>2026-05-01T12:41:31Z</time></trkpt><trkpt lat="43.5191366254028" lon="5.927554155840073"><ele>283.0</ele><time>2026-05-01T12:41:32Z</time></trkpt><trkpt lat="43.51920773033746" lon="5.927498778268052"><ele>283.0</ele><time>2026-05-01T12:41:33Z</time></trkpt><trkpt lat="43.519277058645486" lon="5.927475488922929"><ele>283.0</ele><time>2026-05-01T12:41:34Z</time></trkpt><trkpt lat="43.51935673513204" lon="5.9274681158494165"><ele>283.0</ele><time>2026-05-01T12:41:37Z</time></trkpt><trkpt lat="43.51938264369678" lon="5.927351087407084"><ele>283.0</ele><time>2026-05-01T12:41:39Z</time></trkpt><trkpt lat="43.51942511582714" lon="5.927211670451242"><ele>283.0</ele><time>2026-05-01T12:41:41Z</time></trkpt><trkpt lat="43.519466369987065" lon="5.927084228540153"><ele>283.0</ele><time>2026-05-01T12:41:42Z</time></trkpt><trkpt lat="43.519503029803786" lon="5.926944316119837"><ele>283.0</ele><time>2026-05-01T12:41:43Z</time></trkpt><trkpt lat="43.51955958871377" lon="5.926772441529792"><ele>283.0</ele><time>2026-05-01T12:41:44Z</time></trkpt><trkpt lat="43.51962096964689" lon="5.926573863950896"><ele>283.0</ele><time>2026-05-01T12:41:45Z</time></trkpt><trkpt lat="43.51968109890828" lon="5.926398954220327"><ele>283.0</ele><time>2026-05-01T12:41:46Z</time></trkpt><trkpt lat="43.51973989363044" lon="5.9262278887379525"><ele>283.0</ele><time>2026-05-01T12:41:47Z</time></trkpt><trkpt lat="43.51980249774494" lon="5.926037185035633"><ele>283.0</ele><time>2026-05-01T12:41:48Z</time></trkpt><trkpt lat="43.519870101256345" lon="5.925853403387911"><ele>283.0</ele><time>2026-05-01T12:41:49Z</time></trkpt><trkpt lat="43.519941922510576" lon="5.925661117824325"><ele>283.0</ele><time>2026-05-01T12:41:50Z</time></trkpt><trkpt lat="43.5200045869865" lon="5.925461317140412"><ele>283.0</ele><time>2026-05-01T12:41:51Z</time></trkpt><trkpt lat="43.52006178208391" lon="5.925268990840968"><ele>283.0</ele><time>2026-05-01T12:41:52Z</time></trkpt><trkpt lat="43.52012259355471" lon="5.925110539654812"><ele>283.0</ele><time>2026-05-01T12:41:53Z</time></trkpt><trkpt lat="43.520179313499845" lon="5.9249636016814105"><ele>284.0</ele><time>2026-05-01T12:41:54Z</time></trkpt><trkpt lat="43.52022040426116" lon="5.924805560541852"><ele>285.0</ele><time>2026-05-01T12:41:55Z</time></trkpt><trkpt lat="43.52028603340075" lon="5.924633913904269"><ele>286.0</ele><time>2026-05-01T12:41:56Z</time></trkpt><trkpt lat="43.52034572016419" lon="5.9244523533163616"><ele>287.0</ele><time>2026-05-01T12:41:57Z</time></trkpt><trkpt lat="43.520400563809666" lon="5.924267342971783"><ele>288.5</ele><time>2026-05-01T12:41:58Z</time></trkpt><trkpt lat="43.520470871740685" lon="5.924089593671128"><ele>290.0</ele><time>2026-05-01T12:41:59Z</time></trkpt><trkpt lat="43.52052248713886" lon="5.923936648425828"><ele>291.5</ele><time>2026-05-01T12:42:00Z</time></trkpt><trkpt lat="43.52056730529443" lon="5.923808012332198"><ele>293.0</ele><time>2026-05-01T12:42:01Z</time></trkpt><trkpt lat="43.52060294688387" lon="5.923660205775055"><ele>293.0</ele><time>2026-05-01T12:42:02Z</time></trkpt><trkpt lat="43.52065480210743" lon="5.923508176997736"><ele>293.0</ele><time>2026-05-01T12:42:03Z</time></trkpt><trkpt lat="43.520720675128935" lon="5.9233556140050645"><ele>293.0</ele><time>2026-05-01T12:42:04Z</time></trkpt><trkpt lat="43.52075270401977" lon="5.923216022914214"><ele>293.0</ele><time>2026-05-01T12:42:05Z</time></trkpt><trkpt lat="43.52079716186488" lon="5.92311358594314"><ele>293.0</ele><time>2026-05-01T12:42:06Z</time></trkpt><trkpt lat="43.52081050709583" lon="5.923019585994328"><ele>294.5</ele><time>2026-05-01T12:42:07Z</time></trkpt><trkpt lat="43.520966295770215" lon="5.922919629258567"><ele>296.0</ele><time>2026-05-01T12:42:10Z</time></trkpt><trkpt lat="43.52104345575234" lon="5.922965083419174"><ele>297.5</ele><time>2026-05-01T12:42:11Z</time></trkpt><trkpt lat="43.52113825566306" lon="5.92300915777466"><ele>299.0</ele><time>2026-05-01T12:42:12Z</time></trkpt><trkpt lat="43.52126379754459" lon="5.92304690503116"><ele>300.25</ele><time>2026-05-01T12:42:13Z</time></trkpt><trkpt lat="43.52139502268715" lon="5.9230783982742015"><ele>301.5</ele><time>2026-05-01T12:42:14Z</time></trkpt><trkpt lat="43.52151407820359" lon="5.9231027700987795"><ele>302.75</ele><time>2026-05-01T12:42:15Z</time></trkpt><trkpt lat="43.52164400441752" lon="5.923128781720541"><ele>304.0</ele><time>2026-05-01T12:42:16Z</time></trkpt><trkpt lat="43.52175315832156" lon="5.9231531206639065"><ele>304.0</ele><time>2026-05-01T12:42:17Z</time></trkpt><trkpt lat="43.52184878978703" lon="5.923174444364762"><ele>304.0</ele><time>2026-05-01T12:42:18Z</time></trkpt><trkpt lat="43.52193485502299" lon="5.923190961507254"><ele>304.0</ele><time>2026-05-01T12:42:19Z</time></trkpt><trkpt lat="43.52203676131088" lon="5.92320907121738"><ele>304.0</ele><time>2026-05-01T12:42:20Z</time></trkpt><trkpt lat="43.522103994624786" lon="5.9232096861625765"><ele>304.0</ele><time>2026-05-01T12:42:21Z</time></trkpt><trkpt lat="43.52221020916875" lon="5.923208246643451"><ele>304.0</ele><time>2026-05-01T12:42:22Z</time></trkpt><trkpt lat="43.5223527010776" lon="5.923207677336428"><ele>304.0</ele><time>2026-05-01T12:42:23Z</time></trkpt><trkpt lat="43.522452474672754" lon="5.923210163904302"><ele>304.0</ele><time>2026-05-01T12:42:24Z</time></trkpt><trkpt lat="43.522523578691576" lon="5.9232119360035735"><ele>304.0</ele><time>2026-05-01T12:42:25Z</time></trkpt><trkpt lat="43.52298881670257" lon="5.924007545417427"><ele>304.0</ele><time>2026-05-01T12:42:30Z</time></trkpt><trkpt lat="43.52305889213405" lon="5.924032294320233"><ele>304.0</ele><time>2026-05-01T12:42:31Z</time></trkpt><trkpt lat="43.52312742053143" lon="5.9240361830776465"><ele>304.0</ele><time>2026-05-01T12:42:32Z</time></trkpt><trkpt lat="43.52319227582829" lon="5.924043292201121"><ele>304.0</ele><time>2026-05-01T12:42:33Z</time></trkpt><trkpt lat="43.523301743505435" lon="5.924072961619837"><ele>304.0</ele><time>2026-05-01T12:42:35Z</time></trkpt><trkpt lat="43.52339419147005" lon="5.924138900173836"><ele>304.0</ele><time>2026-05-01T12:42:37Z</time></trkpt><trkpt lat="43.52348269560283" lon="5.924182692561538"><ele>304.0</ele><time>2026-05-01T12:42:39Z</time></trkpt><trkpt lat="43.52354418663118" lon="5.924243909731485"><ele>304.0</ele><time>2026-05-01T12:42:41Z</time></trkpt><trkpt lat="43.52360931687519" lon="5.924289039513008"><ele>304.0</ele><time>2026-05-01T12:42:44Z</time></trkpt><trkpt lat="43.523527275570345" lon="5.924183408134397"><ele>304.0</ele><time>2026-05-01T12:42:48Z</time></trkpt><trkpt lat="43.52346093109376" lon="5.924158825311433"><ele>304.0</ele><time>2026-05-01T12:42:49Z</time></trkpt><trkpt lat="43.52340139795302" lon="5.92412980807326"><ele>304.0</ele><time>2026-05-01T12:42:50Z</time></trkpt><trkpt lat="43.523335011930655" lon="5.924101840914149"><ele>304.0</ele><time>2026-05-01T12:42:51Z</time></trkpt><trkpt lat="43.52326011647944" lon="5.924070570448279"><ele>304.0</ele><time>2026-05-01T12:42:52Z</time></trkpt><trkpt lat="43.52316506678777" lon="5.924044320498598"><ele>304.0</ele><time>2026-05-01T12:42:53Z</time></trkpt><trkpt lat="43.52308383138321" lon="5.924030542209987"><ele>304.0</ele><time>2026-05-01T12:42:54Z</time></trkpt><trkpt lat="43.523008197796685" lon="5.924019001280939"><ele>304.0</ele><time>2026-05-01T12:42:55Z</time></trkpt><trkpt lat="43.52294122661008" lon="5.923993849816677"><ele>304.0</ele><time>2026-05-01T12:42:56Z</time></trkpt><trkpt lat="43.52287645803872" lon="5.923947398257342"><ele>303.0</ele><time>2026-05-01T12:42:57Z</time></trkpt><trkpt lat="43.52280165952684" lon="5.923893042499417"><ele>302.0</ele><time>2026-05-01T12:42:58Z</time></trkpt><trkpt lat="43.52272568027953" lon="5.923829402632785"><ele>301.0</ele><time>2026-05-01T12:42:59Z</time></trkpt><trkpt lat="43.52265137315347" lon="5.923764972419003"><ele>300.0</ele><time>2026-05-01T12:43:00Z</time></trkpt><trkpt lat="43.52258371511048" lon="5.923714577395285"><ele>299.0</ele><time>2026-05-01T12:43:01Z</time></trkpt><trkpt lat="43.5225183110202" lon="5.9236731681606205"><ele>298.0</ele><time>2026-05-01T12:43:02Z</time></trkpt><trkpt lat="43.522432871310585" lon="5.923633423607207"><ele>298.0</ele><time>2026-05-01T12:43:04Z</time></trkpt><trkpt lat="43.52234296385635" lon="5.923607468303855"><ele>298.0</ele><time>2026-05-01T12:43:06Z</time></trkpt><trkpt lat="43.52226915254933" lon="5.923596127799825"><ele>298.0</ele><time>2026-05-01T12:43:07Z</time></trkpt><trkpt lat="43.52216272678941" lon="5.923588788141962"><ele>298.0</ele><time>2026-05-01T12:43:08Z</time></trkpt><trkpt lat="43.522041708840526" lon="5.923572551225322"><ele>298.0</ele><time>2026-05-01T12:43:09Z</time></trkpt><trkpt lat="43.521926548190216" lon="5.923567219925681"><ele>297.0</ele><time>2026-05-01T12:43:10Z</time></trkpt><trkpt lat="43.52183426654781" lon="5.923565396000605"><ele>296.0</ele><time>2026-05-01T12:43:11Z</time></trkpt><trkpt lat="43.5217549376519" lon="5.923550398206859"><ele>295.0</ele><time>2026-05-01T12:43:12Z</time></trkpt><trkpt lat="43.521653452283296" lon="5.923487873151173"><ele>294.0</ele><time>2026-05-01T12:43:13Z</time></trkpt><trkpt lat="43.521535436282214" lon="5.923389555471847"><ele>293.0</ele><time>2026-05-01T12:43:14Z</time></trkpt><trkpt lat="43.5213854854649" lon="5.923292506082548"><ele>294.5</ele><time>2026-05-01T12:43:15Z</time></trkpt><trkpt lat="43.52124907220131" lon="5.923205112348264"><ele>296.0</ele><time>2026-05-01T12:43:16Z</time></trkpt><trkpt lat="43.52113864799928" lon="5.92313872968542"><ele>297.5</ele><time>2026-05-01T12:43:17Z</time></trkpt><trkpt lat="43.52108369479898" lon="5.922925502001146"><ele>299.0</ele><time>2026-05-01T12:43:18Z</time></trkpt><trkpt lat="43.52100761217342" lon="5.9228833912858"><ele>299.0</ele><time>2026-05-01T12:43:19Z</time></trkpt><trkpt lat="43.52093800338834" lon="5.922837593574284"><ele>299.0</ele><time>2026-05-01T12:43:20Z</time></trkpt><trkpt lat="43.52078108388057" lon="5.923066930471447"><ele>299.0</ele><time>2026-05-01T12:43:23Z</time></trkpt><trkpt lat="43.52075529052621" lon="5.9231567553499325"><ele>299.0</ele><time>2026-05-01T12:43:24Z</time></trkpt><trkpt lat="43.52072929971831" lon="5.923268441075239"><ele>297.5</ele><time>2026-05-01T12:43:25Z</time></trkpt><trkpt lat="43.520668236960134" lon="5.9234044306898905"><ele>296.0</ele><time>2026-05-01T12:43:26Z</time></trkpt><trkpt lat="43.52060386635895" lon="5.923597474106022"><ele>294.5</ele><time>2026-05-01T12:43:27Z</time></trkpt><trkpt lat="43.52053755299044" lon="5.923787447746194"><ele>293.0</ele><time>2026-05-01T12:43:28Z</time></trkpt><trkpt lat="43.520479078644094" lon="5.9239560488938965"><ele>293.0</ele><time>2026-05-01T12:43:29Z</time></trkpt><trkpt lat="43.520437963405136" lon="5.924126472917899"><ele>293.0</ele><time>2026-05-01T12:43:30Z</time></trkpt><trkpt lat="43.5203899588435" lon="5.924270942628081"><ele>293.0</ele><time>2026-05-01T12:43:31Z</time></trkpt><trkpt lat="43.52032852004746" lon="5.924421909686589"><ele>293.0</ele><time>2026-05-01T12:43:32Z</time></trkpt><trkpt lat="43.520270818017856" lon="5.924602821832129"><ele>291.5</ele><time>2026-05-01T12:43:33Z</time></trkpt><trkpt lat="43.52021348692092" lon="5.924768350167428"><ele>290.0</ele><time>2026-05-01T12:43:34Z</time></trkpt><trkpt lat="43.5201670584028" lon="5.924949008388871"><ele>288.5</ele><time>2026-05-01T12:43:35Z</time></trkpt><trkpt lat="43.52010165040221" lon="5.925122325647325"><ele>287.0</ele><time>2026-05-01T12:43:36Z</time></trkpt><trkpt lat="43.52004293120562" lon="5.925294063071145"><ele>286.0</ele><time>2026-05-01T12:43:37Z</time></trkpt><trkpt lat="43.51998793256373" lon="5.925462272233663"><ele>285.0</ele><time>2026-05-01T12:43:38Z</time></trkpt><trkpt lat="43.51992680244369" lon="5.92564598021141"><ele>284.0</ele><time>2026-05-01T12:43:39Z</time></trkpt><trkpt lat="43.519854839235684" lon="5.925855786481601"><ele>283.0</ele><time>2026-05-01T12:43:40Z</time></trkpt><trkpt lat="43.51977415283576" lon="5.92606329751787"><ele>283.0</ele><time>2026-05-01T12:43:41Z</time></trkpt><trkpt lat="43.51972003505499" lon="5.926262279100175"><ele>283.0</ele><time>2026-05-01T12:43:42Z</time></trkpt><trkpt lat="43.51965642984228" lon="5.92642917304524"><ele>283.0</ele><time>2026-05-01T12:43:43Z</time></trkpt><trkpt lat="43.51959812600038" lon="5.926586547033362"><ele>283.0</ele><time>2026-05-01T12:43:44Z</time></trkpt><trkpt lat="43.519545291348244" lon="5.926741797974672"><ele>283.0</ele><time>2026-05-01T12:43:45Z</time></trkpt><trkpt lat="43.519508663999176" lon="5.926894769708151"><ele>283.0</ele><time>2026-05-01T12:43:46Z</time></trkpt><trkpt lat="43.51945636996583" lon="5.927030164269367"><ele>283.0</ele><time>2026-05-01T12:43:47Z</time></trkpt><trkpt lat="43.51941501794812" lon="5.927163301218601"><ele>283.0</ele><time>2026-05-01T12:43:48Z</time></trkpt><trkpt lat="43.51937877192054" lon="5.927280766893339"><ele>283.0</ele><time>2026-05-01T12:43:49Z</time></trkpt><trkpt lat="43.51935102920458" lon="5.927363038295989"><ele>283.0</ele><time>2026-05-01T12:43:50Z</time></trkpt><trkpt lat="43.51944423310318" lon="5.927462627606743"><ele>283.0</ele><time>2026-05-01T12:43:54Z</time></trkpt><trkpt lat="43.519514386101996" lon="5.927451442887918"><ele>283.0</ele><time>2026-05-01T12:43:55Z</time></trkpt><trkpt lat="43.519605291896085" lon="5.927439042719148"><ele>283.0</ele><time>2026-05-01T12:43:56Z</time></trkpt><trkpt lat="43.519701616929794" lon="5.927437721083131"><ele>283.0</ele><time>2026-05-01T12:43:57Z</time></trkpt><trkpt lat="43.51980566316299" lon="5.927436618358536"><ele>282.25</ele><time>2026-05-01T12:43:58Z</time></trkpt><trkpt lat="43.51992898798144" lon="5.9274346117572785"><ele>281.5</ele><time>2026-05-01T12:43:59Z</time></trkpt><trkpt lat="43.52005376178872" lon="5.927429746050388"><ele>280.75</ele><time>2026-05-01T12:44:00Z</time></trkpt><trkpt lat="43.52017994887929" lon="5.927415422555394"><ele>280.0</ele><time>2026-05-01T12:44:01Z</time></trkpt><trkpt lat="43.52031264675461" lon="5.927399442561879"><ele>280.8</ele><time>2026-05-01T12:44:02Z</time></trkpt><trkpt lat="43.52043732350844" lon="5.927391997481711"><ele>281.6</ele><time>2026-05-01T12:44:03Z</time></trkpt><trkpt lat="43.520547556640324" lon="5.927381836444465"><ele>282.4</ele><time>2026-05-01T12:44:04Z</time></trkpt><trkpt lat="43.52065291491185" lon="5.9273695097171775"><ele>283.2</ele><time>2026-05-01T12:44:05Z</time></trkpt><trkpt lat="43.52074884849384" lon="5.927354162543312"><ele>284.0</ele><time>2026-05-01T12:44:06Z</time></trkpt><trkpt lat="43.52084512892372" lon="5.9273392006191346"><ele>284.0</ele><time>2026-05-01T12:44:07Z</time></trkpt><trkpt lat="43.5209393651139" lon="5.927322366880128"><ele>284.0</ele><time>2026-05-01T12:44:08Z</time></trkpt><trkpt lat="43.52102678614453" lon="5.927310270135698"><ele>284.0</ele><time>2026-05-01T12:44:09Z</time></trkpt><trkpt lat="43.521102841665694" lon="5.927307653098157"><ele>284.0</ele><time>2026-05-01T12:44:10Z</time></trkpt><trkpt lat="43.521168561179564" lon="5.9273130057294035"><ele>284.0</ele><time>2026-05-01T12:44:11Z</time></trkpt><trkpt lat="43.52127449367613" lon="5.92732433979589"><ele>284.0</ele><time>2026-05-01T12:44:13Z</time></trkpt><trkpt lat="43.52135997138996" lon="5.92732458052701"><ele>285.0</ele><time>2026-05-01T12:44:15Z</time></trkpt><trkpt lat="43.5214437650265" lon="5.927323440104656"><ele>286.0</ele><time>2026-05-01T12:44:16Z</time></trkpt><trkpt lat="43.52153768162041" lon="5.927320087726815"><ele>287.0</ele><time>2026-05-01T12:44:17Z</time></trkpt><trkpt lat="43.52166482002518" lon="5.9273143750924895"><ele>288.0</ele><time>2026-05-01T12:44:18Z</time></trkpt><trkpt lat="43.521800997929795" lon="5.927301091647718"><ele>289.0</ele><time>2026-05-01T12:44:19Z</time></trkpt><trkpt lat="43.52189603044816" lon="5.927293594070959"><ele>289.0</ele><time>2026-05-01T12:44:20Z</time></trkpt><trkpt lat="43.52198205273705" lon="5.927287236036311"><ele>289.0</ele><time>2026-05-01T12:44:21Z</time></trkpt><trkpt lat="43.522079668127525" lon="5.9272800211371806"><ele>289.0</ele><time>2026-05-01T12:44:22Z</time></trkpt><trkpt lat="43.52215915661895" lon="5.92727345838771"><ele>289.0</ele><time>2026-05-01T12:44:23Z</time></trkpt><trkpt lat="43.52224619953808" lon="5.927266309918803"><ele>289.0</ele><time>2026-05-01T12:44:24Z</time></trkpt><trkpt lat="43.52234433865136" lon="5.927260050120248"><ele>289.0</ele><time>2026-05-01T12:44:25Z</time></trkpt><trkpt lat="43.52243638619247" lon="5.92725417886829"><ele>290.0</ele><time>2026-05-01T12:44:26Z</time></trkpt><trkpt lat="43.52252738776353" lon="5.927251845063877"><ele>291.0</ele><time>2026-05-01T12:44:27Z</time></trkpt><trkpt lat="43.522640532007834" lon="5.927248484838814"><ele>292.0</ele><time>2026-05-01T12:44:28Z</time></trkpt><trkpt lat="43.52275724502002" lon="5.927239262501035"><ele>293.0</ele><time>2026-05-01T12:44:29Z</time></trkpt><trkpt lat="43.522838773615916" lon="5.927229411125412"><ele>294.0</ele><time>2026-05-01T12:44:30Z</time></trkpt><trkpt lat="43.52290606448777" lon="5.927220387801927"><ele>294.6666666666667</ele><time>2026-05-01T12:44:31Z</time></trkpt><trkpt lat="43.52297668918987" lon="5.92720994681263"><ele>295.3333333333333</ele><time>2026-05-01T12:44:32Z</time></trkpt><trkpt lat="43.52305116239668" lon="5.927198936871325"><ele>296.0</ele><time>2026-05-01T12:44:34Z</time></trkpt><trkpt lat="43.5231314566845" lon="5.927176539675411"><ele>296.66666666666663</ele><time>2026-05-01T12:44:38Z</time></trkpt><trkpt lat="43.52321778805934" lon="5.927165515197906"><ele>297.3333333333333</ele><time>2026-05-01T12:44:39Z</time></trkpt><trkpt lat="43.52330166959016" lon="5.92714647909183"><ele>298.0</ele><time>2026-05-01T12:44:40Z</time></trkpt><trkpt lat="43.52339373945783" lon="5.927115635690683"><ele>298.0</ele><time>2026-05-01T12:44:41Z</time></trkpt><trkpt lat="43.523494204524056" lon="5.927119806024527"><ele>298.0</ele><time>2026-05-01T12:44:42Z</time></trkpt><trkpt lat="43.52357896907233" lon="5.9271007514547795"><ele>298.0</ele><time>2026-05-01T12:44:43Z</time></trkpt><trkpt lat="43.52365476374919" lon="5.92711113799429"><ele>298.0</ele><time>2026-05-01T12:44:44Z</time></trkpt><trkpt lat="43.523730408124166" lon="5.9271071344938395"><ele>298.0</ele><time>2026-05-01T12:44:45Z</time></trkpt><trkpt lat="43.52381071852268" lon="5.927077654411382"><ele>298.0</ele><time>2026-05-01T12:44:46Z</time></trkpt><trkpt lat="43.52388218077122" lon="5.927018679924691"><ele>298.6</ele><time>2026-05-01T12:44:47Z</time></trkpt><trkpt lat="43.52394647102125" lon="5.92691995678743"><ele>299.20000000000005</ele><time>2026-05-01T12:44:48Z</time></trkpt><trkpt lat="43.52400320938454" lon="5.926795553729158"><ele>299.8</ele><time>2026-05-01T12:44:49Z</time></trkpt><trkpt lat="43.52406838986423" lon="5.926686833175346"><ele>300.40000000000003</ele><time>2026-05-01T12:44:50Z</time></trkpt><trkpt lat="43.52412339692425" lon="5.9265595045759625"><ele>301.0</ele><time>2026-05-01T12:44:51Z</time></trkpt><trkpt lat="43.52418246425033" lon="5.926422778408164"><ele>301.0</ele><time>2026-05-01T12:44:52Z</time></trkpt><trkpt lat="43.52423682937535" lon="5.926296276448855"><ele>301.0</ele><time>2026-05-01T12:44:53Z</time></trkpt><trkpt lat="43.524269504777166" lon="5.926172654282415"><ele>301.0</ele><time>2026-05-01T12:44:54Z</time></trkpt><trkpt lat="43.52432161460466" lon="5.926072974313985"><ele>301.0</ele><time>2026-05-01T12:44:55Z</time></trkpt><trkpt lat="43.52435616782632" lon="5.925974548365469"><ele>301.0</ele><time>2026-05-01T12:44:56Z</time></trkpt><trkpt lat="43.524408796681925" lon="5.925904140768206"><ele>301.0</ele><time>2026-05-01T12:44:57Z</time></trkpt><trkpt lat="43.52448550412511" lon="5.9258837216842135"><ele>301.2</ele><time>2026-05-01T12:44:58Z</time></trkpt><trkpt lat="43.52458034600206" lon="5.925920333192409"><ele>301.40000000000003</ele><time>2026-05-01T12:44:59Z</time></trkpt><trkpt lat="43.52467210456444" lon="5.92598367239904"><ele>301.6</ele><time>2026-05-01T12:45:00Z</time></trkpt><trkpt lat="43.524768933769494" lon="5.926052060977292"><ele>301.8</ele><time>2026-05-01T12:45:01Z</time></trkpt><trkpt lat="43.524859504989365" lon="5.92612214873203"><ele>302.0</ele><time>2026-05-01T12:45:02Z</time></trkpt><trkpt lat="43.5249531508511" lon="5.926190735423048"><ele>302.0</ele><time>2026-05-01T12:45:03Z</time></trkpt><trkpt lat="43.52504142942377" lon="5.926245388056649"><ele>302.0</ele><time>2026-05-01T12:45:04Z</time></trkpt><trkpt lat="43.52512600009308" lon="5.926297372794724"><ele>302.0</ele><time>2026-05-01T12:45:05Z</time></trkpt><trkpt lat="43.52521539100574" lon="5.92635797417499"><ele>302.0</ele><time>2026-05-01T12:45:06Z</time></trkpt><trkpt lat="43.52531253405064" lon="5.926432977688156"><ele>302.0</ele><time>2026-05-01T12:45:07Z</time></trkpt><trkpt lat="43.525423022677735" lon="5.926513120621367"><ele>302.0</ele><time>2026-05-01T12:45:08Z</time></trkpt><trkpt lat="43.52553382031062" lon="5.926596359654042"><ele>302.0</ele><time>2026-05-01T12:45:09Z</time></trkpt><trkpt lat="43.5256464411495" lon="5.926685292414688"><ele>302.0</ele><time>2026-05-01T12:45:10Z</time></trkpt><trkpt lat="43.52575569787606" lon="5.926759685465044"><ele>302.0</ele><time>2026-05-01T12:45:11Z</time></trkpt><trkpt lat="43.52585401252872" lon="5.926821015339431"><ele>302.0</ele><time>2026-05-01T12:45:12Z</time></trkpt><trkpt lat="43.52594680460634" lon="5.926885460174852"><ele>302.0</ele><time>2026-05-01T12:45:13Z</time></trkpt><trkpt lat="43.52603721278217" lon="5.92693958126715"><ele>302.0</ele><time>2026-05-01T12:45:14Z</time></trkpt><trkpt lat="43.52612840650824" lon="5.926991559700459"><ele>302.0</ele><time>2026-05-01T12:45:15Z</time></trkpt><trkpt lat="43.52622151674883" lon="5.927045316981192"><ele>302.0</ele><time>2026-05-01T12:45:16Z</time></trkpt><trkpt lat="43.526316207870785" lon="5.927093526080954"><ele>302.4</ele><time>2026-05-01T12:45:17Z</time></trkpt><trkpt lat="43.52640821594032" lon="5.927132353236284"><ele>302.79999999999995</ele><time>2026-05-01T12:45:18Z</time></trkpt><trkpt lat="43.52649900127546" lon="5.927168520664002"><ele>303.2</ele><time>2026-05-01T12:45:19Z</time></trkpt><trkpt lat="43.526604535333" lon="5.927211381593828"><ele>303.59999999999997</ele><time>2026-05-01T12:45:20Z</time></trkpt><trkpt lat="43.52672814858037" lon="5.927267888114535"><ele>304.0</ele><time>2026-05-01T12:45:21Z</time></trkpt><trkpt lat="43.52685705600372" lon="5.927331851117538"><ele>304.0</ele><time>2026-05-01T12:45:22Z</time></trkpt><trkpt lat="43.526991811849804" lon="5.927403130014235"><ele>304.0</ele><time>2026-05-01T12:45:23Z</time></trkpt><trkpt lat="43.527118629073584" lon="5.92747853428976"><ele>304.0</ele><time>2026-05-01T12:45:24Z</time></trkpt><trkpt lat="43.527241203787234" lon="5.927551125405874"><ele>304.0</ele><time>2026-05-01T12:45:25Z</time></trkpt><trkpt lat="43.52735634462801" lon="5.927615471459246"><ele>303.25</ele><time>2026-05-01T12:45:26Z</time></trkpt><trkpt lat="43.52748059402581" lon="5.92767953857453"><ele>302.5</ele><time>2026-05-01T12:45:27Z</time></trkpt><trkpt lat="43.52762098213159" lon="5.927742131947119"><ele>301.75</ele><time>2026-05-01T12:45:28Z</time></trkpt><trkpt lat="43.52776345363552" lon="5.927806688061306"><ele>301.0</ele><time>2026-05-01T12:45:29Z</time></trkpt><trkpt lat="43.52789897025292" lon="5.927869701840849"><ele>300.5</ele><time>2026-05-01T12:45:30Z</time></trkpt><trkpt lat="43.528024477803555" lon="5.9279349831430945"><ele>300.0</ele><time>2026-05-01T12:45:31Z</time></trkpt><trkpt lat="43.52814579819878" lon="5.928000834462096"><ele>299.5</ele><time>2026-05-01T12:45:32Z</time></trkpt><trkpt lat="43.52826004563742" lon="5.9280570993681545"><ele>299.0</ele><time>2026-05-01T12:45:33Z</time></trkpt><trkpt lat="43.528368263889355" lon="5.9281151482658725"><ele>299.0</ele><time>2026-05-01T12:45:34Z</time></trkpt><trkpt lat="43.52845980405762" lon="5.92818466692501"><ele>299.0</ele><time>2026-05-01T12:45:35Z</time></trkpt><trkpt lat="43.52855559224923" lon="5.928211775955935"><ele>299.0</ele><time>2026-05-01T12:45:36Z</time></trkpt><trkpt lat="43.5286227185548" lon="5.9282767926768765"><ele>299.0</ele><time>2026-05-01T12:45:38Z</time></trkpt><trkpt lat="43.52868782847591" lon="5.928305463874142"><ele>299.0</ele><time>2026-05-01T12:45:45Z</time></trkpt><trkpt lat="43.52878443949219" lon="5.928345322644778"><ele>299.4</ele><time>2026-05-01T12:45:47Z</time></trkpt><trkpt lat="43.52886335117613" lon="5.928372605813182"><ele>299.79999999999995</ele><time>2026-05-01T12:45:48Z</time></trkpt><trkpt lat="43.52895226935202" lon="5.928433859141225"><ele>300.20000000000005</ele><time>2026-05-01T12:45:49Z</time></trkpt><trkpt lat="43.5290486274866" lon="5.928485679566606"><ele>300.6</ele><time>2026-05-01T12:45:50Z</time></trkpt><trkpt lat="43.52917357770649" lon="5.928530212198831"><ele>301.0</ele><time>2026-05-01T12:45:51Z</time></trkpt><trkpt lat="43.52930461874975" lon="5.928609702219407"><ele>301.0</ele><time>2026-05-01T12:45:52Z</time></trkpt><trkpt lat="43.52942625776481" lon="5.92867519229929"><ele>301.0</ele><time>2026-05-01T12:45:53Z</time></trkpt><trkpt lat="43.52955462462065" lon="5.928745676649794"><ele>301.0</ele><time>2026-05-01T12:45:54Z</time></trkpt><trkpt lat="43.52969146057545" lon="5.9288141011341775"><ele>301.0</ele><time>2026-05-01T12:45:55Z</time></trkpt><trkpt lat="43.52980448861621" lon="5.928899236381306"><ele>301.6</ele><time>2026-05-01T12:45:56Z</time></trkpt><trkpt lat="43.52991079361571" lon="5.928962273838637"><ele>302.20000000000005</ele><time>2026-05-01T12:45:57Z</time></trkpt><trkpt lat="43.53000330798195" lon="5.928998169336566"><ele>302.79999999999995</ele><time>2026-05-01T12:45:58Z</time></trkpt><trkpt lat="43.53006721312627" lon="5.9290329400005914"><ele>303.4</ele><time>2026-05-01T12:45:59Z</time></trkpt><trkpt lat="43.53013559040753" lon="5.92906957169443"><ele>304.0</ele><time>2026-05-01T12:46:01Z</time></trkpt><trkpt lat="43.53019261169451" lon="5.928863551215623"><ele>304.0</ele><time>2026-05-01T12:46:02Z</time></trkpt><trkpt lat="43.53020532460235" lon="5.928763411268302"><ele>304.0</ele><time>2026-05-01T12:46:03Z</time></trkpt><trkpt lat="43.53022070283877" lon="5.928652966646479"><ele>304.0</ele><time>2026-05-01T12:46:04Z</time></trkpt><trkpt lat="43.530256872142914" lon="5.928495837290027"><ele>304.0</ele><time>2026-05-01T12:46:05Z</time></trkpt><trkpt lat="43.530301173789816" lon="5.928326909524806"><ele>304.0</ele><time>2026-05-01T12:46:06Z</time></trkpt><trkpt lat="43.530337510432425" lon="5.928203974027343"><ele>306.0</ele><time>2026-05-01T12:46:07Z</time></trkpt><trkpt lat="43.530417275073575" lon="5.928108648206375"><ele>308.0</ele><time>2026-05-01T12:46:09Z</time></trkpt><trkpt lat="43.53054571964116" lon="5.928133428754664"><ele>310.0</ele><time>2026-05-01T12:46:11Z</time></trkpt><trkpt lat="43.53062853230166" lon="5.9281777604802395"><ele>312.0</ele><time>2026-05-01T12:46:12Z</time></trkpt><trkpt lat="43.530740284930616" lon="5.928216170857085"><ele>314.0</ele><time>2026-05-01T12:46:13Z</time></trkpt><trkpt lat="43.53083159380421" lon="5.92822043546745"><ele>314.0</ele><time>2026-05-01T12:46:14Z</time></trkpt><trkpt lat="43.53090493652805" lon="5.9282263044577865"><ele>314.0</ele><time>2026-05-01T12:46:15Z</time></trkpt><trkpt lat="43.53097939971973" lon="5.928224533943462"><ele>314.0</ele><time>2026-05-01T12:46:16Z</time></trkpt><trkpt lat="43.531111954057224" lon="5.928267682536435"><ele>314.0</ele><time>2026-05-01T12:46:18Z</time></trkpt><trkpt lat="43.53117523462153" lon="5.92833241696345"><ele>314.0</ele><time>2026-05-01T12:46:19Z</time></trkpt><trkpt lat="43.531241034721255" lon="5.928414491931044"><ele>315.33333333333337</ele><time>2026-05-01T12:46:20Z</time></trkpt><trkpt lat="43.531310306750136" lon="5.92845125385841"><ele>316.6666666666667</ele><time>2026-05-01T12:46:21Z</time></trkpt><trkpt lat="43.531365502404114" lon="5.928498761375139"><ele>318.0</ele><time>2026-05-01T12:46:22Z</time></trkpt><trkpt lat="43.53141526002466" lon="5.928585515576671"><ele>319.3333333333333</ele><time>2026-05-01T12:46:23Z</time></trkpt><trkpt lat="43.53146330746284" lon="5.928677837977846"><ele>320.66666666666663</ele><time>2026-05-01T12:46:24Z</time></trkpt><trkpt lat="43.53150535223174" lon="5.928771876107192"><ele>322.0</ele><time>2026-05-01T12:46:25Z</time></trkpt><trkpt lat="43.53154933869353" lon="5.928889114765865"><ele>322.0</ele><time>2026-05-01T12:46:26Z</time></trkpt><trkpt lat="43.53161052735697" lon="5.929050281142035"><ele>322.0</ele><time>2026-05-01T12:46:27Z</time></trkpt><trkpt lat="43.53168306104356" lon="5.929231250785115"><ele>322.0</ele><time>2026-05-01T12:46:28Z</time></trkpt><trkpt lat="43.53174254826138" lon="5.929381278429057"><ele>322.0</ele><time>2026-05-01T12:46:29Z</time></trkpt><trkpt lat="43.53178622725927" lon="5.929512292462601"><ele>321.3333333333333</ele><time>2026-05-01T12:46:30Z</time></trkpt><trkpt lat="43.53180558462894" lon="5.929633376862848"><ele>320.66666666666663</ele><time>2026-05-01T12:46:31Z</time></trkpt><trkpt lat="43.53180047206724" lon="5.929762930766033"><ele>320.0</ele><time>2026-05-01T12:46:32Z</time></trkpt><trkpt lat="43.531787106183685" lon="5.9298509729015025"><ele>319.3333333333333</ele><time>2026-05-01T12:46:33Z</time></trkpt><trkpt lat="43.531821799403644" lon="5.929936218717932"><ele>318.6666666666667</ele><time>2026-05-01T12:46:34Z</time></trkpt><trkpt lat="43.5318288698764" lon="5.930052968272558"><ele>318.0</ele><time>2026-05-01T12:46:36Z</time></trkpt><trkpt lat="43.53180211548368" lon="5.930142457208561"><ele>317.3333333333333</ele><time>2026-05-01T12:46:37Z</time></trkpt><trkpt lat="43.531797379146305" lon="5.930253522676758"><ele>316.6666666666667</ele><time>2026-05-01T12:46:38Z</time></trkpt><trkpt lat="43.53179209884934" lon="5.93037734366475"><ele>316.0</ele><time>2026-05-01T12:46:39Z</time></trkpt><trkpt lat="43.531817156909845" lon="5.930498114321102"><ele>315.33333333333337</ele><time>2026-05-01T12:46:40Z</time></trkpt><trkpt lat="43.53184512935323" lon="5.930583917733174"><ele>314.6666666666667</ele><time>2026-05-01T12:46:41Z</time></trkpt><trkpt lat="43.53188773217107" lon="5.930661770841051"><ele>314.0</ele><time>2026-05-01T12:46:42Z</time></trkpt><trkpt lat="43.531937227410246" lon="5.930739256606066"><ele>314.0</ele><time>2026-05-01T12:46:43Z</time></trkpt><trkpt lat="43.53202960662141" lon="5.930790375510783"><ele>314.0</ele><time>2026-05-01T12:46:44Z</time></trkpt><trkpt lat="43.53211901976498" lon="5.930855100803909"><ele>314.0</ele><time>2026-05-01T12:46:45Z</time></trkpt><trkpt lat="43.53219125287439" lon="5.930910436014989"><ele>314.0</ele><time>2026-05-01T12:46:46Z</time></trkpt><trkpt lat="43.53225044166235" lon="5.930950087782169"><ele>314.0</ele><time>2026-05-01T12:46:47Z</time></trkpt><trkpt lat="43.532370335134" lon="5.930796419395518"><ele>314.8</ele><time>2026-05-01T12:46:54Z</time></trkpt><trkpt lat="43.53243439031027" lon="5.9306962540198445"><ele>315.59999999999997</ele><time>2026-05-01T13:03:08Z</time></trkpt><trkpt lat="43.53245946011954" lon="5.930511240504417"><ele>316.4</ele><time>2026-05-01T13:03:10Z</time></trkpt><trkpt lat="43.53248092197178" lon="5.930403795408544"><ele>317.2</ele><time>2026-05-01T13:03:11Z</time></trkpt><trkpt lat="43.53249252188262" lon="5.930291905124471"><ele>318.0</ele><time>2026-05-01T13:03:12Z</time></trkpt><trkpt lat="43.53248914598323" lon="5.930194788230317"><ele>318.0</ele><time>2026-05-01T13:03:13Z</time></trkpt><trkpt lat="43.53249874644606" lon="5.930085202212138"><ele>318.0</ele><time>2026-05-01T13:03:14Z</time></trkpt><trkpt lat="43.532531926390924" lon="5.929965116654443"><ele>318.0</ele><time>2026-05-01T13:03:15Z</time></trkpt><trkpt lat="43.532556201292735" lon="5.929873277668405"><ele>318.0</ele><time>2026-05-01T13:03:16Z</time></trkpt><trkpt lat="43.53260798625393" lon="5.929727838472015"><ele>318.0</ele><time>2026-05-01T13:03:18Z</time></trkpt><trkpt lat="43.53264996948337" lon="5.929598913804102"><ele>319.4</ele><time>2026-05-01T13:03:19Z</time></trkpt><trkpt lat="43.53266968892712" lon="5.929510850767083"><ele>320.8</ele><time>2026-05-01T13:03:20Z</time></trkpt><trkpt lat="43.53273562364655" lon="5.929385558550298"><ele>322.2</ele><time>2026-05-01T13:03:22Z</time></trkpt><trkpt lat="43.532818008021806" lon="5.929331024188222"><ele>323.6</ele><time>2026-05-01T13:03:24Z</time></trkpt><trkpt lat="43.53294692993859" lon="5.92928032406436"><ele>325.0</ele><time>2026-05-01T13:03:26Z</time></trkpt><trkpt lat="43.53304078571012" lon="5.929189393127315"><ele>326.5</ele><time>2026-05-01T13:03:28Z</time></trkpt><trkpt lat="43.53312692196008" lon="5.9291629845068465"><ele>328.0</ele><time>2026-05-01T13:03:30Z</time></trkpt><trkpt lat="43.533177259639125" lon="5.929107740549905"><ele>329.5</ele><time>2026-05-01T13:03:33Z</time></trkpt><trkpt lat="43.53320666631663" lon="5.929024019725816"><ele>331.0</ele><time>2026-05-01T13:03:35Z</time></trkpt><trkpt lat="43.53320001473804" lon="5.928924182037073"><ele>332.5</ele><time>2026-05-01T13:03:37Z</time></trkpt><trkpt lat="43.53320025022578" lon="5.92879847799189"><ele>334.0</ele><time>2026-05-01T13:03:39Z</time></trkpt><trkpt lat="43.53320171700759" lon="5.928689997145232"><ele>334.0</ele><time>2026-05-01T13:03:40Z</time></trkpt><trkpt lat="43.53321947479765" lon="5.92856683328204"><ele>334.0</ele><time>2026-05-01T13:03:41Z</time></trkpt><trkpt lat="43.53321415324893" lon="5.928471825256671"><ele>334.0</ele><time>2026-05-01T13:03:42Z</time></trkpt><trkpt lat="43.53321353738511" lon="5.92832309022786"><ele>334.0</ele><time>2026-05-01T13:03:44Z</time></trkpt><trkpt lat="43.533236087363086" lon="5.928203601331376"><ele>334.0</ele><time>2026-05-01T13:03:45Z</time></trkpt><trkpt lat="43.53325474200581" lon="5.928064790660157"><ele>334.5</ele><time>2026-05-01T13:03:46Z</time></trkpt><trkpt lat="43.53327973531125" lon="5.927953692876798"><ele>335.0</ele><time>2026-05-01T13:03:47Z</time></trkpt><trkpt lat="43.533309838295246" lon="5.9278697241775085"><ele>335.5</ele><time>2026-05-01T13:03:48Z</time></trkpt><trkpt lat="43.533343219622324" lon="5.927774173439025"><ele>336.0</ele><time>2026-05-01T13:03:49Z</time></trkpt><trkpt lat="43.53336164562305" lon="5.9276870656047"><ele>336.5</ele><time>2026-05-01T13:03:50Z</time></trkpt><trkpt lat="43.53343570079223" lon="5.9275826839729495"><ele>337.0</ele><time>2026-05-01T13:03:52Z</time></trkpt><trkpt lat="43.5334932243824" lon="5.927516107670178"><ele>338.5</ele><time>2026-05-01T13:03:53Z</time></trkpt><trkpt lat="43.53354299213138" lon="5.927452830606529"><ele>340.0</ele><time>2026-05-01T13:03:54Z</time></trkpt><trkpt lat="43.53360652430877" lon="5.9273874006884135"><ele>341.5</ele><time>2026-05-01T13:03:55Z</time></trkpt><trkpt lat="43.53366372167671" lon="5.927327844048056"><ele>343.0</ele><time>2026-05-01T13:03:56Z</time></trkpt><trkpt lat="43.53372419988899" lon="5.927210396688021"><ele>344.5</ele><time>2026-05-01T13:03:58Z</time></trkpt><trkpt lat="43.53378737878752" lon="5.92707643046358"><ele>346.0</ele><time>2026-05-01T13:04:00Z</time></trkpt><trkpt lat="43.53381116951401" lon="5.926990912357811"><ele>347.0</ele><time>2026-05-01T13:04:01Z</time></trkpt><trkpt lat="43.533856011278125" lon="5.926885210675225"><ele>348.0</ele><time>2026-05-01T13:04:03Z</time></trkpt><trkpt lat="43.53387270694197" lon="5.926729704373558"><ele>349.0</ele><time>2026-05-01T13:04:05Z</time></trkpt><trkpt lat="43.53392861372338" lon="5.926687842372145"><ele>350.0</ele><time>2026-05-01T13:04:12Z</time></trkpt><trkpt lat="43.5339735799194" lon="5.9266009345535915"><ele>351.0</ele><time>2026-05-01T13:04:15Z</time></trkpt><trkpt lat="43.534031981351056" lon="5.926535925121137"><ele>352.0</ele><time>2026-05-01T13:04:16Z</time></trkpt><trkpt lat="43.53417643510719" lon="5.926465569092532"><ele>352.0</ele><time>2026-05-01T13:04:18Z</time></trkpt><trkpt lat="43.53427876248069" lon="5.926416427115123"><ele>352.0</ele><time>2026-05-01T13:04:19Z</time></trkpt><trkpt lat="43.5343570057764" lon="5.92636642289578"><ele>352.0</ele><time>2026-05-01T13:04:20Z</time></trkpt><trkpt lat="43.53441010175553" lon="5.926314782901778"><ele>352.0</ele><time>2026-05-01T13:04:21Z</time></trkpt><trkpt lat="43.534469258337516" lon="5.926267800942203"><ele>352.0</ele><time>2026-05-01T13:04:22Z</time></trkpt><trkpt lat="43.53454441486249" lon="5.926188813575579"><ele>352.0</ele><time>2026-05-01T13:04:24Z</time></trkpt><trkpt lat="43.53456740909073" lon="5.926039275448567"><ele>352.7142857142857</ele><time>2026-05-01T13:04:27Z</time></trkpt><trkpt lat="43.53458301713808" lon="5.925952759062681"><ele>353.42857142857144</ele><time>2026-05-01T13:04:28Z</time></trkpt><trkpt lat="43.534594918069075" lon="5.925833895628854"><ele>354.1428571428571</ele><time>2026-05-01T13:04:29Z</time></trkpt><trkpt lat="43.53461524912091" lon="5.925733756930842"><ele>354.8571428571429</ele><time>2026-05-01T13:04:30Z</time></trkpt><trkpt lat="43.53464277665099" lon="5.925652893932127"><ele>355.57142857142856</ele><time>2026-05-01T13:04:31Z</time></trkpt><trkpt lat="43.5346622450524" lon="5.925561762068568"><ele>356.2857142857143</ele><time>2026-05-01T13:04:32Z</time></trkpt><trkpt lat="43.53472783166543" lon="5.925510487831931"><ele>357.0</ele><time>2026-05-01T13:04:34Z</time></trkpt><trkpt lat="43.53484458212445" lon="5.925540951705702"><ele>357.0</ele><time>2026-05-01T13:04:36Z</time></trkpt><trkpt lat="43.53490524565962" lon="5.925583354179975"><ele>357.0</ele><time>2026-05-01T13:04:37Z</time></trkpt><trkpt lat="43.53500255043493" lon="5.925604129378823"><ele>357.0</ele><time>2026-05-01T13:04:39Z</time></trkpt><trkpt lat="43.535101865753916" lon="5.925615867567298"><ele>357.0</ele><time>2026-05-01T13:04:41Z</time></trkpt><trkpt lat="43.53518846858139" lon="5.925578980164272"><ele>357.0</ele><time>2026-05-01T13:04:43Z</time></trkpt><trkpt lat="43.53529366323682" lon="5.925481194854373"><ele>357.0</ele><time>2026-05-01T13:04:45Z</time></trkpt><trkpt lat="43.53535360411663" lon="5.925372518407258"><ele>357.0</ele><time>2026-05-01T13:04:47Z</time></trkpt><trkpt lat="43.53540332529315" lon="5.925236260088886"><ele>357.0</ele><time>2026-05-01T13:04:49Z</time></trkpt><trkpt lat="43.535423675415835" lon="5.925115482612413"><ele>357.0</ele><time>2026-05-01T13:04:50Z</time></trkpt><trkpt lat="43.53545355297285" lon="5.925007651042907"><ele>357.0</ele><time>2026-05-01T13:04:51Z</time></trkpt><trkpt lat="43.53548558531388" lon="5.924880281757931"><ele>359.20000000000005</ele><time>2026-05-01T13:04:52Z</time></trkpt><trkpt lat="43.53549986807337" lon="5.924728191560837"><ele>361.4</ele><time>2026-05-01T13:04:54Z</time></trkpt><trkpt lat="43.53556339116054" lon="5.92462569018594"><ele>363.6</ele><time>2026-05-01T13:04:56Z</time></trkpt><trkpt lat="43.53565735988481" lon="5.9246137591951"><ele>365.79999999999995</ele><time>2026-05-01T13:04:58Z</time></trkpt><trkpt lat="43.535751216089146" lon="5.92457785854978"><ele>368.0</ele><time>2026-05-01T13:04:59Z</time></trkpt><trkpt lat="43.53581911671704" lon="5.924565811974759"><ele>368.0</ele><time>2026-05-01T13:05:00Z</time></trkpt><trkpt lat="43.53589652539337" lon="5.924543462086166"><ele>368.0</ele><time>2026-05-01T13:05:01Z</time></trkpt><trkpt lat="43.535957496264146" lon="5.92450082030754"><ele>368.0</ele><time>2026-05-01T13:05:02Z</time></trkpt><trkpt lat="43.53604433851545" lon="5.924483181947541"><ele>368.0</ele><time>2026-05-01T13:05:04Z</time></trkpt><trkpt lat="43.536111494253554" lon="5.924472104864766"><ele>368.0</ele><time>2026-05-01T13:05:06Z</time></trkpt><trkpt lat="43.53617054499189" lon="5.924407240841865"><ele>368.0</ele><time>2026-05-01T13:05:09Z</time></trkpt><trkpt lat="43.536224417068105" lon="5.924287973946069"><ele>370.2</ele><time>2026-05-01T13:05:11Z</time></trkpt><trkpt lat="43.536303427344066" lon="5.9241861269996265"><ele>372.4</ele><time>2026-05-01T13:05:13Z</time></trkpt><trkpt lat="43.536358254016626" lon="5.924032477895912"><ele>374.59999999999997</ele><time>2026-05-01T13:05:15Z</time></trkpt><trkpt lat="43.53639975329075" lon="5.923954325220872"><ele>376.79999999999995</ele><time>2026-05-01T13:05:16Z</time></trkpt><trkpt lat="43.53646856347036" lon="5.92382542626041"><ele>379.0</ele><time>2026-05-01T13:05:18Z</time></trkpt><trkpt lat="43.53650701435867" lon="5.923741928954488"><ele>379.0</ele><time>2026-05-01T13:05:19Z</time></trkpt><trkpt lat="43.536539238858815" lon="5.923645750553568"><ele>379.0</ele><time>2026-05-01T13:05:20Z</time></trkpt><trkpt lat="43.53658004434438" lon="5.923553742484801"><ele>379.0</ele><time>2026-05-01T13:05:21Z</time></trkpt><trkpt lat="43.536639968357285" lon="5.923412900618792"><ele>379.0</ele><time>2026-05-01T13:05:23Z</time></trkpt><trkpt lat="43.536712490631004" lon="5.923351787234576"><ele>379.0</ele><time>2026-05-01T13:05:25Z</time></trkpt><trkpt lat="43.536823114731156" lon="5.92326190156916"><ele>378.8333333333333</ele><time>2026-05-01T13:05:27Z</time></trkpt><trkpt lat="43.53686353897851" lon="5.923189743438529"><ele>378.66666666666663</ele><time>2026-05-01T13:05:28Z</time></trkpt><trkpt lat="43.536940989511216" lon="5.923100293423513"><ele>378.5</ele><time>2026-05-01T13:05:30Z</time></trkpt><trkpt lat="43.53697840341238" lon="5.922990265590316"><ele>378.3333333333333</ele><time>2026-05-01T13:05:33Z</time></trkpt><trkpt lat="43.53697061058057" lon="5.9228837656244675"><ele>378.1666666666667</ele><time>2026-05-01T13:05:35Z</time></trkpt><trkpt lat="43.536992571885776" lon="5.922781180429902"><ele>378.0</ele><time>2026-05-01T13:05:36Z</time></trkpt><trkpt lat="43.537018474375756" lon="5.922647195675366"><ele>378.8333333333333</ele><time>2026-05-01T13:05:38Z</time></trkpt><trkpt lat="43.53711500458993" lon="5.92253441640114"><ele>379.6666666666667</ele><time>2026-05-01T13:05:40Z</time></trkpt><trkpt lat="43.53718022569552" lon="5.922454782958866"><ele>380.5</ele><time>2026-05-01T13:05:41Z</time></trkpt><trkpt lat="43.53723372899449" lon="5.922397570517549"><ele>381.33333333333337</ele><time>2026-05-01T13:05:42Z</time></trkpt><trkpt lat="43.537296346147464" lon="5.922332168860768"><ele>382.1666666666667</ele><time>2026-05-01T13:05:43Z</time></trkpt><trkpt lat="43.537358950115596" lon="5.922264682407863"><ele>383.0</ele><time>2026-05-01T13:05:44Z</time></trkpt><trkpt lat="43.53741423336692" lon="5.922220723680032"><ele>383.0</ele><time>2026-05-01T13:05:45Z</time></trkpt><trkpt lat="43.53747860936127" lon="5.922158622712796"><ele>383.0</ele><time>2026-05-01T13:05:46Z</time></trkpt><trkpt lat="43.53755401163007" lon="5.92204564291411"><ele>383.0</ele><time>2026-05-01T13:05:48Z</time></trkpt><trkpt lat="43.53763579110176" lon="5.92190605539646"><ele>383.0</ele><time>2026-05-01T13:05:50Z</time></trkpt><trkpt lat="43.53767947306267" lon="5.921835642015684"><ele>383.0</ele><time>2026-05-01T13:05:51Z</time></trkpt><trkpt lat="43.53776585281723" lon="5.921791767951155"><ele>383.79999999999995</ele><time>2026-05-01T13:05:53Z</time></trkpt><trkpt lat="43.53791450404654" lon="5.921750519524188"><ele>384.6</ele><time>2026-05-01T13:05:55Z</time></trkpt><trkpt lat="43.53798896174817" lon="5.921734058618662"><ele>385.4</ele><time>2026-05-01T13:05:56Z</time></trkpt><trkpt lat="43.5380639085666" lon="5.921732068255711"><ele>386.20000000000005</ele><time>2026-05-01T13:05:57Z</time></trkpt><trkpt lat="43.53815579450361" lon="5.9217261906300545"><ele>387.0</ele><time>2026-05-01T13:05:58Z</time></trkpt><trkpt lat="43.53824466692012" lon="5.921695191615282"><ele>387.0</ele><time>2026-05-01T13:06:00Z</time></trkpt><trkpt lat="43.538332374743405" lon="5.921681372797733"><ele>387.0</ele><time>2026-05-01T13:06:02Z</time></trkpt><trkpt lat="43.53841721018772" lon="5.921625289477582"><ele>387.0</ele><time>2026-05-01T13:06:04Z</time></trkpt><trkpt lat="43.538522021702406" lon="5.921536623985154"><ele>387.0</ele><time>2026-05-01T13:06:06Z</time></trkpt><trkpt lat="43.538612313013815" lon="5.921463005353587"><ele>387.0</ele><time>2026-05-01T13:06:08Z</time></trkpt><trkpt lat="43.53867393819996" lon="5.921387889592439"><ele>388.0</ele><time>2026-05-01T13:06:10Z</time></trkpt><trkpt lat="43.538737111211944" lon="5.921280143832546"><ele>389.0</ele><time>2026-05-01T13:06:12Z</time></trkpt><trkpt lat="43.53876936376661" lon="5.921205470853563"><ele>390.0</ele><time>2026-05-01T13:06:14Z</time></trkpt><trkpt lat="43.53878336680468" lon="5.921083386519877"><ele>391.0</ele><time>2026-05-01T13:06:16Z</time></trkpt><trkpt lat="43.53876718469905" lon="5.920981352772884"><ele>392.0</ele><time>2026-05-01T13:06:18Z</time></trkpt><trkpt lat="43.538725762887616" lon="5.920839624942952"><ele>393.0</ele><time>2026-05-01T13:06:20Z</time></trkpt><trkpt lat="43.53868273219412" lon="5.920710185667944"><ele>393.0</ele><time>2026-05-01T13:06:22Z</time></trkpt><trkpt lat="43.538708531477596" lon="5.920591558710801"><ele>393.0</ele><time>2026-05-01T13:06:24Z</time></trkpt><trkpt lat="43.538760484594896" lon="5.920475324654601"><ele>393.0</ele><time>2026-05-01T13:06:26Z</time></trkpt><trkpt lat="43.53882121279991" lon="5.920379152541028"><ele>393.0</ele><time>2026-05-01T13:06:28Z</time></trkpt><trkpt lat="43.538896352927765" lon="5.920261667375321"><ele>393.0</ele><time>2026-05-01T13:06:30Z</time></trkpt><trkpt lat="43.538941514091135" lon="5.920154505748167"><ele>394.0</ele><time>2026-05-01T13:06:32Z</time></trkpt><trkpt lat="43.5389821172875" lon="5.920055263863505"><ele>395.0</ele><time>2026-05-01T13:06:34Z</time></trkpt><trkpt lat="43.53902023835795" lon="5.919939939758735"><ele>396.0</ele><time>2026-05-01T13:06:36Z</time></trkpt><trkpt lat="43.53905099507808" lon="5.919812969818954"><ele>397.0</ele><time>2026-05-01T13:06:38Z</time></trkpt><trkpt lat="43.53908383095715" lon="5.9196658680616006"><ele>398.0</ele><time>2026-05-01T13:06:40Z</time></trkpt><trkpt lat="43.53908836762943" lon="5.919515789433215"><ele>398.0</ele><time>2026-05-01T13:06:42Z</time></trkpt><trkpt lat="43.539121007999405" lon="5.919427378303006"><ele>398.0</ele><time>2026-05-01T13:06:43Z</time></trkpt><trkpt lat="43.53914416643281" lon="5.919290012086149"><ele>398.0</ele><time>2026-05-01T13:06:45Z</time></trkpt><trkpt lat="43.539224172047625" lon="5.919189294425069"><ele>398.0</ele><time>2026-05-01T13:06:48Z</time></trkpt><trkpt lat="43.53928942829389" lon="5.919090706873013"><ele>398.0</ele><time>2026-05-01T13:06:50Z</time></trkpt><trkpt lat="43.53936091090963" lon="5.918972196762851"><ele>398.59999999999997</ele><time>2026-05-01T13:06:52Z</time></trkpt><trkpt lat="43.539403612139665" lon="5.91881066891411"><ele>399.2</ele><time>2026-05-01T13:06:54Z</time></trkpt><trkpt lat="43.5394142666894" lon="5.918709121510228"><ele>399.8</ele><time>2026-05-01T13:06:56Z</time></trkpt><trkpt lat="43.53941760357864" lon="5.918586809259248"><ele>400.4</ele><time>2026-05-01T13:06:58Z</time></trkpt><trkpt lat="43.539421684921585" lon="5.918473858946797"><ele>401.0</ele><time>2026-05-01T13:07:00Z</time></trkpt><trkpt lat="43.53945560739678" lon="5.918336149695346"><ele>401.8333333333333</ele><time>2026-05-01T13:07:02Z</time></trkpt><trkpt lat="43.53944848379899" lon="5.918230288942134"><ele>402.66666666666663</ele><time>2026-05-01T13:07:04Z</time></trkpt><trkpt lat="43.53945424578653" lon="5.918138416894882"><ele>403.5</ele><time>2026-05-01T13:07:05Z</time></trkpt><trkpt lat="43.53943064086819" lon="5.918023675002904"><ele>404.33333333333337</ele><time>2026-05-01T13:07:07Z</time></trkpt><trkpt lat="43.53937920529066" lon="5.917898895304642"><ele>405.1666666666667</ele><time>2026-05-01T13:07:10Z</time></trkpt><trkpt lat="43.53932794645598" lon="5.917817600868881"><ele>406.0</ele><time>2026-05-01T13:07:12Z</time></trkpt><trkpt lat="43.53926051328039" lon="5.917709187633592"><ele>406.00000000000006</ele><time>2026-05-01T13:07:14Z</time></trkpt><trkpt lat="43.539242435962834" lon="5.917620623605086"><ele>406.0</ele><time>2026-05-01T13:07:16Z</time></trkpt><trkpt lat="43.53920186268164" lon="5.917505634877269"><ele>406.0</ele><time>2026-05-01T13:07:18Z</time></trkpt><trkpt lat="43.539162759005876" lon="5.917414488738218"><ele>406.0</ele><time>2026-05-01T13:07:20Z</time></trkpt><trkpt lat="43.53909484485936" lon="5.917352747753301"><ele>406.00000000000006</ele><time>2026-05-01T13:07:22Z</time></trkpt><trkpt lat="43.53900109860194" lon="5.917338522237498"><ele>406.0</ele><time>2026-05-01T13:07:25Z</time></trkpt><trkpt lat="43.53891781504134" lon="5.917295037572512"><ele>406.20000000000005</ele><time>2026-05-01T13:07:27Z</time></trkpt><trkpt lat="43.538848011385724" lon="5.91725294467242"><ele>406.40000000000003</ele><time>2026-05-01T13:07:29Z</time></trkpt><trkpt lat="43.53877992441539" lon="5.917194436595296"><ele>406.6</ele><time>2026-05-01T13:07:31Z</time></trkpt><trkpt lat="43.53872791279163" lon="5.91703012490164"><ele>406.8</ele><time>2026-05-01T13:07:33Z</time></trkpt><trkpt lat="43.53869193304363" lon="5.9169220458527025"><ele>407.0</ele><time>2026-05-01T13:07:35Z</time></trkpt><trkpt lat="43.538650460162756" lon="5.9167885006025935"><ele>408.99999999999994</ele><time>2026-05-01T13:07:37Z</time></trkpt><trkpt lat="43.538598190930976" lon="5.9167086134761275"><ele>411.0</ele><time>2026-05-01T13:07:38Z</time></trkpt><trkpt lat="43.538561433097136" lon="5.916586087882682"><ele>413.0</ele><time>2026-05-01T13:07:40Z</time></trkpt><trkpt lat="43.53855124469986" lon="5.916499026634479"><ele>415.0</ele><time>2026-05-01T13:07:41Z</time></trkpt><trkpt lat="43.538541676432786" lon="5.916404049848923"><ele>416.99999999999994</ele><time>2026-05-01T13:07:42Z</time></trkpt><trkpt lat="43.538547757691404" lon="5.9162552380842195"><ele>419.0</ele><time>2026-05-01T13:07:44Z</time></trkpt><trkpt lat="43.5385806033431" lon="5.916131543663793"><ele>419.0</ele><time>2026-05-01T13:07:46Z</time></trkpt><trkpt lat="43.53864349049411" lon="5.916046516258599"><ele>419.0</ele><time>2026-05-01T13:07:48Z</time></trkpt><trkpt lat="43.53874023618493" lon="5.915969598257847"><ele>419.0</ele><time>2026-05-01T13:07:50Z</time></trkpt><trkpt lat="43.538812654027154" lon="5.915930325118724"><ele>419.0</ele><time>2026-05-01T13:07:51Z</time></trkpt><trkpt lat="43.53889515882548" lon="5.915899345291431"><ele>419.0</ele><time>2026-05-01T13:07:53Z</time></trkpt><trkpt lat="43.53900697782925" lon="5.915810788777166"><ele>419.0</ele><time>2026-05-01T13:07:55Z</time></trkpt><trkpt lat="43.53909310830141" lon="5.9157310557769"><ele>419.0</ele><time>2026-05-01T13:07:57Z</time></trkpt><trkpt lat="43.53915882876804" lon="5.915643579366213"><ele>419.0</ele><time>2026-05-01T13:07:59Z</time></trkpt><trkpt lat="43.539208541287714" lon="5.915516185719258"><ele>419.0</ele><time>2026-05-01T13:08:01Z</time></trkpt><trkpt lat="43.53925162089922" lon="5.9153946285503505"><ele>419.0</ele><time>2026-05-01T13:08:03Z</time></trkpt><trkpt lat="43.539267712559464" lon="5.9153046041292034"><ele>419.0</ele><time>2026-05-01T13:08:04Z</time></trkpt><trkpt lat="43.539282365467685" lon="5.915138104392049"><ele>419.0</ele><time>2026-05-01T13:08:06Z</time></trkpt><trkpt lat="43.53933073087543" lon="5.914989814708886"><ele>419.0</ele><time>2026-05-01T13:08:08Z</time></trkpt><trkpt lat="43.53934559033286" lon="5.914872599145988"><ele>419.0</ele><time>2026-05-01T13:08:10Z</time></trkpt><trkpt lat="43.53937685305976" lon="5.914772706645705"><ele>419.0</ele><time>2026-05-01T13:08:12Z</time></trkpt><trkpt lat="43.539419506413175" lon="5.914697215591689"><ele>419.4</ele><time>2026-05-01T13:08:14Z</time></trkpt><trkpt lat="43.53948134061533" lon="5.914623239863137"><ele>419.79999999999995</ele><time>2026-05-01T13:08:16Z</time></trkpt><trkpt lat="43.53957012698622" lon="5.914522223994584"><ele>420.20000000000005</ele><time>2026-05-01T13:08:18Z</time></trkpt><trkpt lat="43.53966534850853" lon="5.91443818131013"><ele>420.6</ele><time>2026-05-01T13:08:20Z</time></trkpt><trkpt lat="43.539730019125045" lon="5.9143746067571445"><ele>421.0</ele><time>2026-05-01T13:08:21Z</time></trkpt><trkpt lat="43.53983256763043" lon="5.9142815935249375"><ele>421.6</ele><time>2026-05-01T13:08:23Z</time></trkpt><trkpt lat="43.53992063710531" lon="5.914193287141975"><ele>422.20000000000005</ele><time>2026-05-01T13:08:25Z</time></trkpt><trkpt lat="43.540016272493524" lon="5.914113122768782"><ele>422.79999999999995</ele><time>2026-05-01T13:08:27Z</time></trkpt><trkpt lat="43.54009653701757" lon="5.914063076116131"><ele>423.4</ele><time>2026-05-01T13:08:29Z</time></trkpt><trkpt lat="43.54019487598925" lon="5.913991788599586"><ele>424.0</ele><time>2026-05-01T13:08:31Z</time></trkpt><trkpt lat="43.540281036585846" lon="5.913895834870066"><ele>424.0</ele><time>2026-05-01T13:08:33Z</time></trkpt><trkpt lat="43.54035887563869" lon="5.913843041398304"><ele>424.0</ele><time>2026-05-01T13:08:35Z</time></trkpt><trkpt lat="43.5404178736272" lon="5.9138118001178155"><ele>424.0</ele><time>2026-05-01T13:08:37Z</time></trkpt><trkpt lat="43.54047585303173" lon="5.913756149859687"><ele>424.0</ele><time>2026-05-01T13:08:39Z</time></trkpt><trkpt lat="43.540566844016325" lon="5.9137422236869375"><ele>424.0</ele><time>2026-05-01T13:08:41Z</time></trkpt><trkpt lat="43.54069201466983" lon="5.913636277814852"><ele>424.75</ele><time>2026-05-01T13:08:43Z</time></trkpt><trkpt lat="43.540768532457044" lon="5.9135455112654105"><ele>425.5</ele><time>2026-05-01T13:08:45Z</time></trkpt><trkpt lat="43.54088602159029" lon="5.9134654492239545"><ele>426.25</ele><time>2026-05-01T13:08:47Z</time></trkpt><trkpt lat="43.540985626764616" lon="5.91339612699296"><ele>427.0</ele><time>2026-05-01T13:08:49Z</time></trkpt><trkpt lat="43.54108914867081" lon="5.913347182477739"><ele>427.0</ele><time>2026-05-01T13:08:51Z</time></trkpt><trkpt lat="43.541182056945324" lon="5.913320677448597"><ele>427.00000000000006</ele><time>2026-05-01T13:08:53Z</time></trkpt><trkpt lat="43.541266090476924" lon="5.91325649034813"><ele>427.00000000000006</ele><time>2026-05-01T13:08:55Z</time></trkpt><trkpt lat="43.54137794839684" lon="5.9131840419082575"><ele>427.0</ele><time>2026-05-01T13:08:57Z</time></trkpt><trkpt lat="43.541450743743034" lon="5.913129810860712"><ele>427.0</ele><time>2026-05-01T13:08:58Z</time></trkpt><trkpt lat="43.54155259154659" lon="5.9130744959480195"><ele>427.50000000000006</ele><time>2026-05-01T13:09:00Z</time></trkpt><trkpt lat="43.541633248723386" lon="5.913019863509294"><ele>428.0</ele><time>2026-05-01T13:09:02Z</time></trkpt><trkpt lat="43.54169882437322" lon="5.912974961222272"><ele>428.5</ele><time>2026-05-01T13:09:04Z</time></trkpt><trkpt lat="43.54173078319526" lon="5.9129001230980425"><ele>429.0</ele><time>2026-05-01T13:09:07Z</time></trkpt><trkpt lat="43.54180324831003" lon="5.912826180875408"><ele>429.50000000000006</ele><time>2026-05-01T13:14:15Z</time></trkpt><trkpt lat="43.54183278086925" lon="5.912748674486099"><ele>430.0</ele><time>2026-05-01T13:14:16Z</time></trkpt><trkpt lat="43.541882850318146" lon="5.912648768961118"><ele>430.0</ele><time>2026-05-01T13:14:17Z</time></trkpt><trkpt lat="43.541934451948784" lon="5.912581964633051"><ele>430.0</ele><time>2026-05-01T13:14:18Z</time></trkpt><trkpt lat="43.54199756641895" lon="5.912465841081201"><ele>430.0</ele><time>2026-05-01T13:14:19Z</time></trkpt><trkpt lat="43.542055207545815" lon="5.912345360057079"><ele>430.0</ele><time>2026-05-01T13:14:20Z</time></trkpt><trkpt lat="43.5421117020566" lon="5.9122241897262455"><ele>430.0</ele><time>2026-05-01T13:14:21Z</time></trkpt><trkpt lat="43.542148275351984" lon="5.9120770164185545"><ele>431.1666666666667</ele><time>2026-05-01T13:14:22Z</time></trkpt><trkpt lat="43.5421832199994" lon="5.911969328594018"><ele>432.33333333333337</ele><time>2026-05-01T13:14:23Z</time></trkpt><trkpt lat="43.542225024865594" lon="5.911898069775612"><ele>433.5</ele><time>2026-05-01T13:14:24Z</time></trkpt><trkpt lat="43.542292448134475" lon="5.911829097067696"><ele>434.66666666666663</ele><time>2026-05-01T13:14:25Z</time></trkpt><trkpt lat="43.54232797770619" lon="5.911703681628171"><ele>435.8333333333333</ele><time>2026-05-01T13:14:26Z</time></trkpt><trkpt lat="43.54238063355123" lon="5.911611106216138"><ele>437.0</ele><time>2026-05-01T13:14:27Z</time></trkpt><trkpt lat="43.542445898812026" lon="5.911487236898589"><ele>437.0</ele><time>2026-05-01T13:14:28Z</time></trkpt><trkpt lat="43.5424923503018" lon="5.911395044315007"><ele>437.00000000000006</ele><time>2026-05-01T13:14:29Z</time></trkpt><trkpt lat="43.542546014391654" lon="5.911286819434271"><ele>437.00000000000006</ele><time>2026-05-01T13:14:30Z</time></trkpt><trkpt lat="43.542603444393414" lon="5.911141845570583"><ele>437.0</ele><time>2026-05-01T13:14:31Z</time></trkpt><trkpt lat="43.54263191001821" lon="5.91098760083874"><ele>437.0</ele><time>2026-05-01T13:14:32Z</time></trkpt><trkpt lat="43.54267897060965" lon="5.910850785506873"><ele>438.0</ele><time>2026-05-01T13:14:33Z</time></trkpt><trkpt lat="43.54269433736542" lon="5.910759025038363"><ele>439.0</ele><time>2026-05-01T13:14:34Z</time></trkpt><trkpt lat="43.543049934868456" lon="5.910817937227804"><ele>440.0</ele><time>2026-05-01T13:14:35Z</time></trkpt><trkpt lat="43.54310992862685" lon="5.910673159197375"><ele>440.5</ele><time>2026-05-01T13:14:36Z</time></trkpt><trkpt lat="43.5431667601665" lon="5.910524925057839"><ele>441.0</ele><time>2026-05-01T13:14:37Z</time></trkpt><trkpt lat="43.54322820374149" lon="5.910397732992599"><ele>441.5</ele><time>2026-05-01T13:14:38Z</time></trkpt><trkpt lat="43.543309906977036" lon="5.910266253521261"><ele>442.0</ele><time>2026-05-01T13:14:39Z</time></trkpt><trkpt lat="43.54341822308892" lon="5.91009171185926"><ele>442.0</ele><time>2026-05-01T13:14:40Z</time></trkpt><trkpt lat="43.54351339567379" lon="5.909937213118101"><ele>442.0</ele><time>2026-05-01T13:14:41Z</time></trkpt><trkpt lat="43.54358946942219" lon="5.90977792189797"><ele>442.0</ele><time>2026-05-01T13:14:42Z</time></trkpt><trkpt lat="43.543662661698015" lon="5.909592130666538"><ele>442.0</ele><time>2026-05-01T13:14:43Z</time></trkpt><trkpt lat="43.5437252413337" lon="5.909390352551977"><ele>442.25</ele><time>2026-05-01T13:14:44Z</time></trkpt><trkpt lat="43.54379308794087" lon="5.909229189574811"><ele>442.5</ele><time>2026-05-01T13:14:45Z</time></trkpt><trkpt lat="43.54385497279353" lon="5.909068875317776"><ele>442.75</ele><time>2026-05-01T13:14:46Z</time></trkpt><trkpt lat="43.543926004440614" lon="5.9089316044129445"><ele>443.0</ele><time>2026-05-01T13:14:47Z</time></trkpt><trkpt lat="43.54400903375934" lon="5.908796931292221"><ele>442.99999999999994</ele><time>2026-05-01T13:14:48Z</time></trkpt><trkpt lat="43.54406806144098" lon="5.908676732899275"><ele>443.0</ele><time>2026-05-01T13:14:49Z</time></trkpt><trkpt lat="43.544094652714996" lon="5.9085668246260905"><ele>443.0</ele><time>2026-05-01T13:14:50Z</time></trkpt><trkpt lat="43.544120710951816" lon="5.908477298929622"><ele>443.0</ele><time>2026-05-01T13:14:51Z</time></trkpt><trkpt lat="43.544206967613825" lon="5.908382025319104"><ele>442.99999999999994</ele><time>2026-05-01T13:14:53Z</time></trkpt><trkpt lat="43.54427950434051" lon="5.908355928993311"><ele>443.0</ele><time>2026-05-01T13:14:54Z</time></trkpt><trkpt lat="43.544396017208435" lon="5.90831596175262"><ele>443.2</ele><time>2026-05-01T13:14:55Z</time></trkpt><trkpt lat="43.544499446306354" lon="5.908267808879187"><ele>443.4</ele><time>2026-05-01T13:14:56Z</time></trkpt><trkpt lat="43.54458738756398" lon="5.908242713048558"><ele>443.59999999999997</ele><time>2026-05-01T13:14:57Z</time></trkpt><trkpt lat="43.54467614266408" lon="5.908207976333266"><ele>443.79999999999995</ele><time>2026-05-01T13:14:58Z</time></trkpt><trkpt lat="43.544776509489864" lon="5.908159697874387"><ele>444.0</ele><time>2026-05-01T13:14:59Z</time></trkpt><trkpt lat="43.54488537330088" lon="5.908106543187311"><ele>443.5</ele><time>2026-05-01T13:15:00Z</time></trkpt><trkpt lat="43.545008690993576" lon="5.908068719159067"><ele>443.0</ele><time>2026-05-01T13:15:01Z</time></trkpt><trkpt lat="43.54514835895599" lon="5.908039567915953"><ele>442.5</ele><time>2026-05-01T13:15:02Z</time></trkpt><trkpt lat="43.545273631610314" lon="5.908012092587754"><ele>442.0</ele><time>2026-05-01T13:15:03Z</time></trkpt><trkpt lat="43.54540865741328" lon="5.907969943670104"><ele>441.0</ele><time>2026-05-01T13:15:04Z</time></trkpt><trkpt lat="43.545546205544085" lon="5.907918622782153"><ele>440.0</ele><time>2026-05-01T13:15:05Z</time></trkpt><trkpt lat="43.54566510587429" lon="5.90787578835078"><ele>439.0</ele><time>2026-05-01T13:15:06Z</time></trkpt><trkpt lat="43.54577904949042" lon="5.907819077318956"><ele>438.0</ele><time>2026-05-01T13:15:07Z</time></trkpt><trkpt lat="43.54589022025331" lon="5.907749980095133"><ele>438.0</ele><time>2026-05-01T13:15:08Z</time></trkpt><trkpt lat="43.54601419819126" lon="5.907670485701064"><ele>438.0</ele><time>2026-05-01T13:15:09Z</time></trkpt><trkpt lat="43.54614549289143" lon="5.907595508914679"><ele>438.0</ele><time>2026-05-01T13:15:10Z</time></trkpt><trkpt lat="43.54626821367355" lon="5.9075342278359315"><ele>438.0</ele><time>2026-05-01T13:15:11Z</time></trkpt><trkpt lat="43.54638353982033" lon="5.907476765303678"><ele>438.5</ele><time>2026-05-01T13:15:12Z</time></trkpt><trkpt lat="43.5464865254209" lon="5.907414608168169"><ele>439.0</ele><time>2026-05-01T13:15:13Z</time></trkpt><trkpt lat="43.5465976340731" lon="5.907357601664158"><ele>439.5</ele><time>2026-05-01T13:15:14Z</time></trkpt><trkpt lat="43.54672207681057" lon="5.907306089139845"><ele>440.0</ele><time>2026-05-01T13:15:15Z</time></trkpt><trkpt lat="43.546846110417505" lon="5.9072618113815745"><ele>440.0</ele><time>2026-05-01T13:15:16Z</time></trkpt><trkpt lat="43.54696271840414" lon="5.907212697214147"><ele>440.0</ele><time>2026-05-01T13:15:17Z</time></trkpt><trkpt lat="43.54706987371485" lon="5.90716522689637"><ele>440.0</ele><time>2026-05-01T13:15:18Z</time></trkpt><trkpt lat="43.547170398098515" lon="5.907128665477545"><ele>440.0</ele><time>2026-05-01T13:15:19Z</time></trkpt><trkpt lat="43.547268084989" lon="5.907096024265396"><ele>440.0</ele><time>2026-05-01T13:15:20Z</time></trkpt><trkpt lat="43.547372512454096" lon="5.90706933361551"><ele>439.16666666666663</ele><time>2026-05-01T13:15:21Z</time></trkpt><trkpt lat="43.54746565802927" lon="5.907049256349217"><ele>438.3333333333333</ele><time>2026-05-01T13:15:22Z</time></trkpt><trkpt lat="43.54755027539309" lon="5.907007242364703"><ele>437.5</ele><time>2026-05-01T13:15:23Z</time></trkpt><trkpt lat="43.54762661641172" lon="5.906963311658624"><ele>436.66666666666663</ele><time>2026-05-01T13:15:24Z</time></trkpt><trkpt lat="43.547698741978785" lon="5.9069487082334415"><ele>435.8333333333333</ele><time>2026-05-01T13:15:26Z</time></trkpt><trkpt lat="43.54774204237973" lon="5.907018342440834"><ele>435.0</ele><time>2026-05-01T13:15:35Z</time></trkpt><trkpt lat="43.547793370909304" lon="5.907070511627773"><ele>435.0</ele><time>2026-05-01T13:15:36Z</time></trkpt><trkpt lat="43.54785964371394" lon="5.907160824368373"><ele>435.0</ele><time>2026-05-01T13:15:37Z</time></trkpt><trkpt lat="43.54793974336364" lon="5.907260827798992"><ele>435.0</ele><time>2026-05-01T13:15:38Z</time></trkpt><trkpt lat="43.54804121961616" lon="5.907373148666097"><ele>435.0</ele><time>2026-05-01T13:15:39Z</time></trkpt><trkpt lat="43.54815012247135" lon="5.907507396050128"><ele>436.0</ele><time>2026-05-01T13:15:40Z</time></trkpt><trkpt lat="43.548263353571286" lon="5.907654263396659"><ele>437.0</ele><time>2026-05-01T13:15:41Z</time></trkpt><trkpt lat="43.54836321978425" lon="5.907808369397527"><ele>438.0</ele><time>2026-05-01T13:15:42Z</time></trkpt><trkpt lat="43.548467125348616" lon="5.907968655313993"><ele>438.0</ele><time>2026-05-01T13:15:43Z</time></trkpt><trkpt lat="43.5485610662797" lon="5.908116055430173"><ele>437.99999999999994</ele><time>2026-05-01T13:15:44Z</time></trkpt><trkpt lat="43.5486375497034" lon="5.908254959216931"><ele>437.99999999999994</ele><time>2026-05-01T13:15:45Z</time></trkpt><trkpt lat="43.54869988402597" lon="5.908361138975793"><ele>438.0</ele><time>2026-05-01T13:15:46Z</time></trkpt><trkpt lat="43.54876479529165" lon="5.908429478583071"><ele>438.0</ele><time>2026-05-01T13:15:47Z</time></trkpt><trkpt lat="43.548859016107336" lon="5.908478186570213"><ele>437.25</ele><time>2026-05-01T13:15:48Z</time></trkpt><trkpt lat="43.54899137314441" lon="5.9085335052117545"><ele>436.5</ele><time>2026-05-01T13:15:49Z</time></trkpt><trkpt lat="43.54912018130274" lon="5.9085925456827715"><ele>435.75</ele><time>2026-05-01T13:15:50Z</time></trkpt><trkpt lat="43.54922069577762" lon="5.908652893997819"><ele>435.0</ele><time>2026-05-01T13:15:51Z</time></trkpt><trkpt lat="43.54929896566496" lon="5.90870874732553"><ele>435.0</ele><time>2026-05-01T13:15:52Z</time></trkpt><trkpt lat="43.54936537206241" lon="5.908776664749845"><ele>435.0</ele><time>2026-05-01T13:15:53Z</time></trkpt><trkpt lat="43.54941311598907" lon="5.908852437315394"><ele>435.0</ele><time>2026-05-01T13:15:54Z</time></trkpt><trkpt lat="43.549455591313716" lon="5.908919894821548"><ele>435.0</ele><time>2026-05-01T13:15:55Z</time></trkpt><trkpt lat="43.549549085297464" lon="5.908949939100674"><ele>435.0</ele><time>2026-05-01T13:15:57Z</time></trkpt><trkpt lat="43.54964610722016" lon="5.9089273846754615"><ele>435.0</ele><time>2026-05-01T13:15:59Z</time></trkpt><trkpt lat="43.549700256040225" lon="5.909009735216274"><ele>434.8</ele><time>2026-05-01T13:16:00Z</time></trkpt><trkpt lat="43.54976953805471" lon="5.90911132198422"><ele>434.6</ele><time>2026-05-01T13:16:01Z</time></trkpt><trkpt lat="43.54985795699687" lon="5.909218656859753"><ele>434.4</ele><time>2026-05-01T13:16:02Z</time></trkpt><trkpt lat="43.5499290268278" lon="5.909317137697755"><ele>434.2</ele><time>2026-05-01T13:16:03Z</time></trkpt><trkpt lat="43.5499981368431" lon="5.909376622885733"><ele>434.0</ele><time>2026-05-01T13:16:04Z</time></trkpt><trkpt lat="43.55010145204386" lon="5.909420363001988"><ele>435.0</ele><time>2026-05-01T13:16:05Z</time></trkpt><trkpt lat="43.55023861582745" lon="5.909459317784339"><ele>436.0</ele><time>2026-05-01T13:16:06Z</time></trkpt><trkpt lat="43.55036183087552" lon="5.9095201982092895"><ele>437.0</ele><time>2026-05-01T13:16:07Z</time></trkpt><trkpt lat="43.55045917013164" lon="5.909594668499364"><ele>438.0</ele><time>2026-05-01T13:16:08Z</time></trkpt><trkpt lat="43.55056824587394" lon="5.909630801597791"><ele>438.75</ele><time>2026-05-01T13:16:09Z</time></trkpt><trkpt lat="43.5506781369663" lon="5.909643308674783"><ele>439.5</ele><time>2026-05-01T13:16:10Z</time></trkpt><trkpt lat="43.55082424370833" lon="5.909640190917498"><ele>440.25</ele><time>2026-05-01T13:16:11Z</time></trkpt><trkpt lat="43.550977815118344" lon="5.909615469655653"><ele>441.0</ele><time>2026-05-01T13:16:12Z</time></trkpt><trkpt lat="43.55111018005231" lon="5.9095958262535655"><ele>441.4</ele><time>2026-05-01T13:16:13Z</time></trkpt><trkpt lat="43.55120802673102" lon="5.909606371423983"><ele>441.8</ele><time>2026-05-01T13:16:14Z</time></trkpt><trkpt lat="43.55129315654978" lon="5.909621083564195"><ele>442.19999999999993</ele><time>2026-05-01T13:16:15Z</time></trkpt><trkpt lat="43.55141344120446" lon="5.909621286121234"><ele>442.59999999999997</ele><time>2026-05-01T13:16:16Z</time></trkpt><trkpt lat="43.55150132160656" lon="5.909615847774821"><ele>443.0</ele><time>2026-05-01T13:16:17Z</time></trkpt><trkpt lat="43.55160886177823" lon="5.90970219231172"><ele>443.0</ele><time>2026-05-01T13:16:19Z</time></trkpt><trkpt lat="43.55167643180046" lon="5.909786339674781"><ele>442.99999999999994</ele><time>2026-05-01T13:16:20Z</time></trkpt><trkpt lat="43.551779138382315" lon="5.9098721008667"><ele>442.99999999999994</ele><time>2026-05-01T13:16:21Z</time></trkpt><trkpt lat="43.5518916310553" lon="5.909916162027585"><ele>443.0</ele><time>2026-05-01T13:16:22Z</time></trkpt><trkpt lat="43.55199882868432" lon="5.909948462239713"><ele>443.0</ele><time>2026-05-01T13:16:23Z</time></trkpt><trkpt lat="43.55207040074323" lon="5.909987644810279"><ele>442.59999999999997</ele><time>2026-05-01T13:16:24Z</time></trkpt><trkpt lat="43.55215007887543" lon="5.910062366663551"><ele>442.19999999999993</ele><time>2026-05-01T13:16:25Z</time></trkpt><trkpt lat="43.55222765012895" lon="5.910151418259875"><ele>441.8</ele><time>2026-05-01T13:16:26Z</time></trkpt><trkpt lat="43.552302901377594" lon="5.910245086105032"><ele>441.4</ele><time>2026-05-01T13:16:27Z</time></trkpt><trkpt lat="43.55235805289334" lon="5.91034261262635"><ele>441.0</ele><time>2026-05-01T13:16:28Z</time></trkpt><trkpt lat="43.55242694602621" lon="5.9104758524242875"><ele>441.0</ele><time>2026-05-01T13:16:29Z</time></trkpt><trkpt lat="43.5525077983686" lon="5.910575825459254"><ele>441.0</ele><time>2026-05-01T13:16:30Z</time></trkpt><trkpt lat="43.552585179823744" lon="5.910632943730626"><ele>441.0</ele><time>2026-05-01T13:16:31Z</time></trkpt><trkpt lat="43.552648945841376" lon="5.91070808271821"><ele>441.0</ele><time>2026-05-01T13:16:32Z</time></trkpt><trkpt lat="43.55270347507348" lon="5.9108091586631915"><ele>441.0</ele><time>2026-05-01T13:16:33Z</time></trkpt><trkpt lat="43.55277880753616" lon="5.910910095849638"><ele>440.20000000000005</ele><time>2026-05-01T13:16:34Z</time></trkpt><trkpt lat="43.55287903126882" lon="5.910992807014052"><ele>439.40000000000003</ele><time>2026-05-01T13:16:35Z</time></trkpt><trkpt lat="43.55296662499093" lon="5.91106886246388"><ele>438.6</ele><time>2026-05-01T13:16:36Z</time></trkpt><trkpt lat="43.553043373292084" lon="5.911159751653538"><ele>437.8</ele><time>2026-05-01T13:16:37Z</time></trkpt><trkpt lat="43.553117106542466" lon="5.911232711789364"><ele>437.0</ele><time>2026-05-01T13:16:38Z</time></trkpt><trkpt lat="43.553190274727775" lon="5.911276220011427"><ele>437.0</ele><time>2026-05-01T13:16:39Z</time></trkpt><trkpt lat="43.55328684916424" lon="5.911353786090319"><ele>437.00000000000006</ele><time>2026-05-01T13:16:40Z</time></trkpt><trkpt lat="43.553374175538686" lon="5.911441871558965"><ele>437.00000000000006</ele><time>2026-05-01T13:16:41Z</time></trkpt><trkpt lat="43.55345980410173" lon="5.911543338590187"><ele>437.0</ele><time>2026-05-01T13:16:42Z</time></trkpt><trkpt lat="43.55353845069965" lon="5.911648976520343"><ele>437.0</ele><time>2026-05-01T13:16:43Z</time></trkpt><trkpt lat="43.55361299258757" lon="5.9117759943029276"><ele>436.6</ele><time>2026-05-01T13:16:44Z</time></trkpt><trkpt lat="43.55367470154363" lon="5.911896999898129"><ele>436.20000000000005</ele><time>2026-05-01T13:16:45Z</time></trkpt><trkpt lat="43.553744666920466" lon="5.911997581440822"><ele>435.8</ele><time>2026-05-01T13:16:46Z</time></trkpt><trkpt lat="43.55384263278214" lon="5.912092832096083"><ele>435.4</ele><time>2026-05-01T13:16:47Z</time></trkpt><trkpt lat="43.553931643639004" lon="5.9121642810337045"><ele>435.0</ele><time>2026-05-01T13:16:48Z</time></trkpt><trkpt lat="43.55402392854724" lon="5.912225891667148"><ele>434.8</ele><time>2026-05-01T13:16:49Z</time></trkpt><trkpt lat="43.554087450024944" lon="5.912272153302206"><ele>434.6</ele><time>2026-05-01T13:16:50Z</time></trkpt><trkpt lat="43.55416215949547" lon="5.9123532444073845"><ele>434.4</ele><time>2026-05-01T13:16:52Z</time></trkpt><trkpt lat="43.554220801702996" lon="5.912388841657695"><ele>434.2</ele><time>2026-05-01T13:17:07Z</time></trkpt><trkpt lat="43.55430616525314" lon="5.91223495482051"><ele>434.0</ele><time>2026-05-01T13:17:09Z</time></trkpt><trkpt lat="43.55438029345023" lon="5.912128257745973"><ele>434.0</ele><time>2026-05-01T13:17:10Z</time></trkpt><trkpt lat="43.55447218693719" lon="5.912010444314084"><ele>434.0</ele><time>2026-05-01T13:17:11Z</time></trkpt><trkpt lat="43.554564885132045" lon="5.911876716466742"><ele>434.0</ele><time>2026-05-01T13:17:12Z</time></trkpt><trkpt lat="43.554662207997396" lon="5.91173074418192"><ele>434.0</ele><time>2026-05-01T13:17:13Z</time></trkpt><trkpt lat="43.554775092414395" lon="5.911570034132008"><ele>434.75</ele><time>2026-05-01T13:17:14Z</time></trkpt><trkpt lat="43.55488783400401" lon="5.911416643648304"><ele>435.5</ele><time>2026-05-01T13:17:15Z</time></trkpt><trkpt lat="43.55498590469139" lon="5.911279026742533"><ele>436.25</ele><time>2026-05-01T13:17:16Z</time></trkpt><trkpt lat="43.555064062654985" lon="5.911139204138936"><ele>437.0</ele><time>2026-05-01T13:17:17Z</time></trkpt><trkpt lat="43.555120558544836" lon="5.910989484263012"><ele>436.6</ele><time>2026-05-01T13:17:18Z</time></trkpt><trkpt lat="43.55516780185968" lon="5.910862200087978"><ele>436.20000000000005</ele><time>2026-05-01T13:17:19Z</time></trkpt><trkpt lat="43.55521377795772" lon="5.910744190907921"><ele>435.8</ele><time>2026-05-01T13:17:20Z</time></trkpt><trkpt lat="43.555271745664626" lon="5.91065163528926"><ele>435.4</ele><time>2026-05-01T13:17:21Z</time></trkpt><trkpt lat="43.5553422220407" lon="5.910563807872481"><ele>435.0</ele><time>2026-05-01T13:17:22Z</time></trkpt><trkpt lat="43.55542260575521" lon="5.9104818547307705"><ele>435.8333333333333</ele><time>2026-05-01T13:17:23Z</time></trkpt><trkpt lat="43.55549453567047" lon="5.91040404549457"><ele>436.66666666666663</ele><time>2026-05-01T13:17:24Z</time></trkpt><trkpt lat="43.55554939767973" lon="5.910325935299143"><ele>437.5</ele><time>2026-05-01T13:17:25Z</time></trkpt><trkpt lat="43.55559827784779" lon="5.910261065632546"><ele>438.3333333333333</ele><time>2026-05-01T13:17:26Z</time></trkpt><trkpt lat="43.55566338567904" lon="5.910218844969161"><ele>439.16666666666663</ele><time>2026-05-01T13:17:27Z</time></trkpt><trkpt lat="43.5557423189446" lon="5.91018818968958"><ele>440.0</ele><time>2026-05-01T13:17:28Z</time></trkpt><trkpt lat="43.555813739018944" lon="5.910160273399865"><ele>440.0</ele><time>2026-05-01T13:17:29Z</time></trkpt><trkpt lat="43.5559576173675" lon="5.910149624520971"><ele>440.0</ele><time>2026-05-01T13:17:31Z</time></trkpt><trkpt lat="43.556045406125165" lon="5.910112444213563"><ele>440.0</ele><time>2026-05-01T13:17:32Z</time></trkpt><trkpt lat="43.5561201465289" lon="5.910041171292942"><ele>440.0</ele><time>2026-05-01T13:17:34Z</time></trkpt><trkpt lat="43.5561889000658" lon="5.910006121478935"><ele>440.0</ele><time>2026-05-01T13:17:36Z</time></trkpt><trkpt lat="43.55627359526945" lon="5.9100157755265155"><ele>439.99999999999994</ele><time>2026-05-01T13:17:39Z</time></trkpt><trkpt lat="43.55627152003497" lon="5.91010818559108"><ele>440.0</ele><time>2026-05-01T13:17:41Z</time></trkpt><trkpt lat="43.55619311463927" lon="5.910106973065909"><ele>440.0</ele><time>2026-05-01T13:17:45Z</time></trkpt><trkpt lat="43.556096476000256" lon="5.910102216016653"><ele>440.0</ele><time>2026-05-01T13:17:50Z</time></trkpt><trkpt lat="43.55602951563689" lon="5.9100981815871565"><ele>439.99999999999994</ele><time>2026-05-01T13:17:52Z</time></trkpt><trkpt lat="43.5559353006243" lon="5.910161282217996"><ele>440.0</ele><time>2026-05-01T13:17:54Z</time></trkpt><trkpt lat="43.555870872598405" lon="5.910168830255981"><ele>440.0</ele><time>2026-05-01T13:17:55Z</time></trkpt><trkpt lat="43.55575476048113" lon="5.910171322796662"><ele>440.0</ele><time>2026-05-01T13:17:57Z</time></trkpt><trkpt lat="43.55567171631716" lon="5.910232574453008"><ele>440.0</ele><time>2026-05-01T13:17:58Z</time></trkpt><trkpt lat="43.55557364328538" lon="5.910299343178855"><ele>440.0</ele><time>2026-05-01T13:17:59Z</time></trkpt><trkpt lat="43.55549707160134" lon="5.91037936140833"><ele>440.0</ele><time>2026-05-01T13:18:00Z</time></trkpt><trkpt lat="43.55542975275464" lon="5.910488122405768"><ele>439.25</ele><time>2026-05-01T13:18:01Z</time></trkpt><trkpt lat="43.55533308480581" lon="5.910617096707237"><ele>438.5</ele><time>2026-05-01T13:18:02Z</time></trkpt><trkpt lat="43.55524036329232" lon="5.910725035382603"><ele>437.75</ele><time>2026-05-01T13:18:03Z</time></trkpt><trkpt lat="43.55516693932278" lon="5.910832599981819"><ele>437.0</ele><time>2026-05-01T13:18:04Z</time></trkpt><trkpt lat="43.55511471951418" lon="5.910955784973858"><ele>437.0</ele><time>2026-05-01T13:18:05Z</time></trkpt><trkpt lat="43.55506988202005" lon="5.911097117483346"><ele>437.0</ele><time>2026-05-01T13:18:06Z</time></trkpt><trkpt lat="43.554999571845705" lon="5.911253070933377"><ele>437.0</ele><time>2026-05-01T13:18:07Z</time></trkpt><trkpt lat="43.55491648395261" lon="5.911381952500484"><ele>437.0</ele><time>2026-05-01T13:18:08Z</time></trkpt><trkpt lat="43.55482155642147" lon="5.911505063789458"><ele>437.0</ele><time>2026-05-01T13:18:09Z</time></trkpt><trkpt lat="43.554714646952384" lon="5.911632489585101"><ele>437.0</ele><time>2026-05-01T13:18:10Z</time></trkpt><trkpt lat="43.55459690255617" lon="5.911799120793289"><ele>437.0</ele><time>2026-05-01T13:18:11Z</time></trkpt><trkpt lat="43.554493951743" lon="5.911954607698436"><ele>436.40000000000003</ele><time>2026-05-01T13:18:12Z</time></trkpt><trkpt lat="43.55441740888198" lon="5.91208522065648"><ele>435.80000000000007</ele><time>2026-05-01T13:18:13Z</time></trkpt><trkpt lat="43.55433820885969" lon="5.9121927937907035"><ele>435.2</ele><time>2026-05-01T13:18:14Z</time></trkpt><trkpt lat="43.55426124883548" lon="5.9122919899370885"><ele>434.6</ele><time>2026-05-01T13:18:15Z</time></trkpt><trkpt lat="43.55420412769002" lon="5.9124068770342095"><ele>434.0</ele><time>2026-05-01T13:18:16Z</time></trkpt><trkpt lat="43.554142392114244" lon="5.9125460532722665"><ele>434.79999999999995</ele><time>2026-05-01T13:18:16.999Z</time></trkpt><trkpt lat="43.5540730186851" lon="5.9126647959302865"><ele>435.59999999999997</ele><time>2026-05-01T13:18:17.999Z</time></trkpt><trkpt lat="43.553991122537695" lon="5.912766640881745"><ele>436.4</ele><time>2026-05-01T13:18:19Z</time></trkpt><trkpt lat="43.55390118102285" lon="5.912837657298854"><ele>437.2</ele><time>2026-05-01T13:18:20Z</time></trkpt><trkpt lat="43.55378977079705" lon="5.912884602572036"><ele>438.0</ele><time>2026-05-01T13:18:21Z</time></trkpt><trkpt lat="43.55367541953639" lon="5.912942112991445"><ele>438.0</ele><time>2026-05-01T13:18:22Z</time></trkpt><trkpt lat="43.553579283313994" lon="5.91302831308501"><ele>438.0</ele><time>2026-05-01T13:18:23Z</time></trkpt><trkpt lat="43.55347603765034" lon="5.913154459863712"><ele>438.0</ele><time>2026-05-01T13:18:24Z</time></trkpt><trkpt lat="43.55335849687255" lon="5.913307248443234"><ele>438.0</ele><time>2026-05-01T13:18:25Z</time></trkpt><trkpt lat="43.553250118511485" lon="5.913453651093484"><ele>439.33333333333337</ele><time>2026-05-01T13:18:26Z</time></trkpt><trkpt lat="43.55315152198252" lon="5.913613758597713"><ele>440.6666666666667</ele><time>2026-05-01T13:18:27Z</time></trkpt><trkpt lat="43.5530635547434" lon="5.913794516977359"><ele>442.0</ele><time>2026-05-01T13:18:28Z</time></trkpt><trkpt lat="43.552982818474675" lon="5.913990733427896"><ele>442.0</ele><time>2026-05-01T13:18:29Z</time></trkpt><trkpt lat="43.55289651697744" lon="5.914204741209217"><ele>442.0</ele><time>2026-05-01T13:18:30Z</time></trkpt><trkpt lat="43.55281474625204" lon="5.914395226973234"><ele>442.0</ele><time>2026-05-01T13:18:31Z</time></trkpt><trkpt lat="43.55275640773426" lon="5.914531754946376"><ele>441.8</ele><time>2026-05-01T13:18:32Z</time></trkpt><trkpt lat="43.55270835829622" lon="5.914643469160696"><ele>441.6</ele><time>2026-05-01T13:18:33Z</time></trkpt><trkpt lat="43.5526641838993" lon="5.9147525533262275"><ele>441.40000000000003</ele><time>2026-05-01T13:18:34Z</time></trkpt><trkpt lat="43.55263516950144" lon="5.914882107020837"><ele>441.20000000000005</ele><time>2026-05-01T13:18:35Z</time></trkpt><trkpt lat="43.55258628218808" lon="5.915060835536037"><ele>441.0</ele><time>2026-05-01T13:18:36Z</time></trkpt><trkpt lat="43.552530682649305" lon="5.915229614100065"><ele>441.0</ele><time>2026-05-01T13:18:37Z</time></trkpt><trkpt lat="43.55247774488229" lon="5.91537159093116"><ele>441.0</ele><time>2026-05-01T13:18:38Z</time></trkpt><trkpt lat="43.55243849026587" lon="5.91550939820948"><ele>441.0</ele><time>2026-05-01T13:18:39Z</time></trkpt><trkpt lat="43.5523966648992" lon="5.9156408777655365"><ele>441.0</ele><time>2026-05-01T13:18:40Z</time></trkpt><trkpt lat="43.55233373402682" lon="5.915776706538234"><ele>441.0</ele><time>2026-05-01T13:18:41Z</time></trkpt><trkpt lat="43.552262261197036" lon="5.91592470551119"><ele>441.0</ele><time>2026-05-01T13:18:42Z</time></trkpt><trkpt lat="43.55221382119496" lon="5.9160813176603115"><ele>441.0</ele><time>2026-05-01T13:18:43Z</time></trkpt><trkpt lat="43.55217748263479" lon="5.9162289180766905"><ele>441.0</ele><time>2026-05-01T13:18:44Z</time></trkpt><trkpt lat="43.55212828744623" lon="5.916355111269774"><ele>441.0</ele><time>2026-05-01T13:18:45Z</time></trkpt><trkpt lat="43.55207156248942" lon="5.916477713504129"><ele>441.0</ele><time>2026-05-01T13:18:46Z</time></trkpt><trkpt lat="43.55202292972793" lon="5.916638988716643"><ele>439.0</ele><time>2026-05-01T13:18:47Z</time></trkpt><trkpt lat="43.55197750867445" lon="5.916819348325356"><ele>437.0</ele><time>2026-05-01T13:18:48Z</time></trkpt><trkpt lat="43.55193305521129" lon="5.916961816643391"><ele>435.0</ele><time>2026-05-01T13:18:49Z</time></trkpt><trkpt lat="43.55189628572289" lon="5.917066981859166"><ele>433.0</ele><time>2026-05-01T13:18:50Z</time></trkpt><trkpt lat="43.55185127812129" lon="5.9171360663147645"><ele>431.0</ele><time>2026-05-01T13:18:51Z</time></trkpt><trkpt lat="43.551785018261576" lon="5.917191959669939"><ele>431.0</ele><time>2026-05-01T13:18:52Z</time></trkpt><trkpt lat="43.5517468405618" lon="5.917264078905949"><ele>431.0</ele><time>2026-05-01T13:18:53Z</time></trkpt><trkpt lat="43.55173237910895" lon="5.917378876695404"><ele>431.0</ele><time>2026-05-01T13:18:54Z</time></trkpt><trkpt lat="43.55171666816828" lon="5.91750423448567"><ele>431.0</ele><time>2026-05-01T13:18:55Z</time></trkpt><trkpt lat="43.55171850234534" lon="5.917662040090265"><ele>431.0</ele><time>2026-05-01T13:18:56Z</time></trkpt><trkpt lat="43.5517185105846" lon="5.91781579764538"><ele>431.20000000000005</ele><time>2026-05-01T13:18:57Z</time></trkpt><trkpt lat="43.55171837542571" lon="5.917957324299994"><ele>431.40000000000003</ele><time>2026-05-01T13:18:58Z</time></trkpt><trkpt lat="43.551715962984524" lon="5.918079772629825"><ele>431.6</ele><time>2026-05-01T13:18:59Z</time></trkpt><trkpt lat="43.55169812347774" lon="5.918214934008618"><ele>431.8</ele><time>2026-05-01T13:19:00Z</time></trkpt><trkpt lat="43.551658035082106" lon="5.918360370343658"><ele>432.0</ele><time>2026-05-01T13:19:01Z</time></trkpt><trkpt lat="43.551609037362205" lon="5.918510040683467"><ele>432.8</ele><time>2026-05-01T13:19:02Z</time></trkpt><trkpt lat="43.55155464961995" lon="5.918648322686774"><ele>433.6</ele><time>2026-05-01T13:19:03Z</time></trkpt><trkpt lat="43.551514750403314" lon="5.918801104829327"><ele>434.40000000000003</ele><time>2026-05-01T13:19:04Z</time></trkpt><trkpt lat="43.55147737216928" lon="5.91894244827691"><ele>435.20000000000005</ele><time>2026-05-01T13:19:05Z</time></trkpt><trkpt lat="43.55141484644321" lon="5.919057212321629"><ele>436.0</ele><time>2026-05-01T13:19:06Z</time></trkpt><trkpt lat="43.551331881529855" lon="5.919134398536145"><ele>436.0</ele><time>2026-05-01T13:19:07Z</time></trkpt><trkpt lat="43.5512411474613" lon="5.919202048576241"><ele>436.0</ele><time>2026-05-01T13:19:08Z</time></trkpt><trkpt lat="43.55115279781816" lon="5.919320181435386"><ele>436.0</ele><time>2026-05-01T13:19:09Z</time></trkpt><trkpt lat="43.55108425786511" lon="5.919444838292202"><ele>436.0</ele><time>2026-05-01T13:19:10Z</time></trkpt><trkpt lat="43.551027982455935" lon="5.919542835927182"><ele>436.0</ele><time>2026-05-01T13:19:11Z</time></trkpt><trkpt lat="43.55100160433366" lon="5.919630161472644"><ele>436.4</ele><time>2026-05-01T13:19:12Z</time></trkpt><trkpt lat="43.55099972705466" lon="5.91972614829171"><ele>436.8</ele><time>2026-05-01T13:19:13Z</time></trkpt><trkpt lat="43.55101371303064" lon="5.9198562004584705"><ele>437.19999999999993</ele><time>2026-05-01T13:19:14Z</time></trkpt><trkpt lat="43.551008085562806" lon="5.91999665473478"><ele>437.59999999999997</ele><time>2026-05-01T13:19:15Z</time></trkpt><trkpt lat="43.55095149779135" lon="5.920138158857976"><ele>438.0</ele><time>2026-05-01T13:19:16Z</time></trkpt><trkpt lat="43.55088743755252" lon="5.9203065995108535"><ele>438.0</ele><time>2026-05-01T13:19:17Z</time></trkpt><trkpt lat="43.55083414677797" lon="5.920451269539991"><ele>437.99999999999994</ele><time>2026-05-01T13:19:18Z</time></trkpt><trkpt lat="43.55080196526181" lon="5.920545558705723"><ele>437.99999999999994</ele><time>2026-05-01T13:19:19Z</time></trkpt><trkpt lat="43.55077692817926" lon="5.920661283803883"><ele>438.0</ele><time>2026-05-01T13:19:21Z</time></trkpt><trkpt lat="43.55084353005698" lon="5.920750747614371"><ele>438.0</ele><time>2026-05-01T13:19:23Z</time></trkpt><trkpt lat="43.55089441380023" lon="5.920828884462795"><ele>438.4</ele><time>2026-05-01T13:19:25Z</time></trkpt><trkpt lat="43.55086620918438" lon="5.920964345311687"><ele>438.79999999999995</ele><time>2026-05-01T13:19:27Z</time></trkpt><trkpt lat="43.55093530940988" lon="5.921026602795676"><ele>439.2</ele><time>2026-05-01T13:19:29Z</time></trkpt><trkpt lat="43.55100971076993" lon="5.921028078795121"><ele>439.6</ele><time>2026-05-01T13:19:30Z</time></trkpt><trkpt lat="43.5511090749628" lon="5.921047085880192"><ele>440.0</ele><time>2026-05-01T13:19:31Z</time></trkpt><trkpt lat="43.55119618746154" lon="5.9211056595432"><ele>440.16666666666663</ele><time>2026-05-01T13:19:32Z</time></trkpt><trkpt lat="43.5512622225304" lon="5.92117315873715"><ele>440.3333333333333</ele><time>2026-05-01T13:19:33Z</time></trkpt><trkpt lat="43.55131052361412" lon="5.921245322068411"><ele>440.5</ele><time>2026-05-01T13:19:34Z</time></trkpt><trkpt lat="43.55133341591419" lon="5.92133258283539"><ele>440.66666666666663</ele><time>2026-05-01T13:19:35Z</time></trkpt><trkpt lat="43.55133746879958" lon="5.921445716872587"><ele>440.8333333333333</ele><time>2026-05-01T13:19:36Z</time></trkpt><trkpt lat="43.55131912364849" lon="5.921549157978744"><ele>441.0</ele><time>2026-05-01T13:19:37Z</time></trkpt><trkpt lat="43.55128489919884" lon="5.921685475113858"><ele>440.75</ele><time>2026-05-01T13:19:38Z</time></trkpt><trkpt lat="43.551248762498396" lon="5.921855100815463"><ele>440.5</ele><time>2026-05-01T13:19:39Z</time></trkpt><trkpt lat="43.55121553342714" lon="5.922013483385856"><ele>440.25</ele><time>2026-05-01T13:19:40Z</time></trkpt><trkpt lat="43.551172469690194" lon="5.922152066561464"><ele>440.0</ele><time>2026-05-01T13:19:41Z</time></trkpt><trkpt lat="43.5511168240072" lon="5.9222830885450355"><ele>440.0</ele><time>2026-05-01T13:19:42Z</time></trkpt><trkpt lat="43.5510545947541" lon="5.922393902459738"><ele>440.0</ele><time>2026-05-01T13:19:43Z</time></trkpt><trkpt lat="43.55099436249092" lon="5.922488522279603"><ele>440.0</ele><time>2026-05-01T13:19:44Z</time></trkpt><trkpt lat="43.5509319251783" lon="5.922675088373146"><ele>440.0</ele><time>2026-05-01T13:19:46Z</time></trkpt><trkpt lat="43.55090420763502" lon="5.9227859758411885"><ele>440.0</ele><time>2026-05-01T13:19:47Z</time></trkpt><trkpt lat="43.55086623443333" lon="5.9229153557858005"><ele>439.6</ele><time>2026-05-01T13:19:48Z</time></trkpt><trkpt lat="43.55081745384013" lon="5.923054711206088"><ele>439.2</ele><time>2026-05-01T13:19:49Z</time></trkpt><trkpt lat="43.55077669081563" lon="5.923177864590122"><ele>438.79999999999995</ele><time>2026-05-01T13:19:50Z</time></trkpt><trkpt lat="43.55075624053436" lon="5.923297017305718"><ele>438.4</ele><time>2026-05-01T13:19:51Z</time></trkpt><trkpt lat="43.550752256477566" lon="5.923453899034936"><ele>438.0</ele><time>2026-05-01T13:19:52Z</time></trkpt><trkpt lat="43.55075154389061" lon="5.923595413978668"><ele>437.79999999999995</ele><time>2026-05-01T13:19:53Z</time></trkpt><trkpt lat="43.55076716445475" lon="5.9237202534347"><ele>437.59999999999997</ele><time>2026-05-01T13:19:54Z</time></trkpt><trkpt lat="43.55077371955822" lon="5.9238089954161035"><ele>437.40000000000003</ele><time>2026-05-01T13:19:55Z</time></trkpt><trkpt lat="43.55071837077134" lon="5.923925849866199"><ele>437.20000000000005</ele><time>2026-05-01T13:19:57Z</time></trkpt><trkpt lat="43.55067216563318" lon="5.923997903750431"><ele>437.0</ele><time>2026-05-01T13:19:58Z</time></trkpt><trkpt lat="43.55068019623926" lon="5.924204038927934"><ele>436.8</ele><time>2026-05-01T13:20:00Z</time></trkpt><trkpt lat="43.55066588389386" lon="5.924309811617748"><ele>436.6</ele><time>2026-05-01T13:20:01Z</time></trkpt><trkpt lat="43.55062041917915" lon="5.924442178339015"><ele>436.40000000000003</ele><time>2026-05-01T13:20:02Z</time></trkpt><trkpt lat="43.55058306775378" lon="5.924590052696055"><ele>436.20000000000005</ele><time>2026-05-01T13:20:03Z</time></trkpt><trkpt lat="43.55054213803517" lon="5.9247187398983145"><ele>436.0</ele><time>2026-05-01T13:20:04Z</time></trkpt><trkpt lat="43.55048348249171" lon="5.924815393437907"><ele>436.00000000000006</ele><time>2026-05-01T13:20:05Z</time></trkpt><trkpt lat="43.550417654991676" lon="5.924887263749453"><ele>436.0</ele><time>2026-05-01T13:20:06Z</time></trkpt><trkpt lat="43.55036489513521" lon="5.92498303151374"><ele>436.0</ele><time>2026-05-01T13:20:07Z</time></trkpt><trkpt lat="43.55033066515383" lon="5.925098793683893"><ele>436.0</ele><time>2026-05-01T13:20:08Z</time></trkpt><trkpt lat="43.550298143842134" lon="5.925189721317321"><ele>436.00000000000006</ele><time>2026-05-01T13:20:09Z</time></trkpt><trkpt lat="43.550243784616896" lon="5.925261420673282"><ele>436.0</ele><time>2026-05-01T13:20:10Z</time></trkpt><trkpt lat="43.55017607613905" lon="5.925285030027694"><ele>435.4</ele><time>2026-05-01T13:20:11Z</time></trkpt><trkpt lat="43.550100519429535" lon="5.925284696572038"><ele>434.8</ele><time>2026-05-01T13:20:12Z</time></trkpt><trkpt lat="43.55001993382052" lon="5.925296871083386"><ele>434.19999999999993</ele><time>2026-05-01T13:20:13Z</time></trkpt><trkpt lat="43.54994667469335" lon="5.925351589212311"><ele>433.59999999999997</ele><time>2026-05-01T13:20:14Z</time></trkpt><trkpt lat="43.54986661872741" lon="5.9254476217871614"><ele>433.0</ele><time>2026-05-01T13:20:14.999Z</time></trkpt><trkpt lat="43.549787909439" lon="5.925587407111743"><ele>433.0</ele><time>2026-05-01T13:20:15.999Z</time></trkpt><trkpt lat="43.549716222632064" lon="5.925710421340981"><ele>432.99999999999994</ele><time>2026-05-01T13:20:16.999Z</time></trkpt><trkpt lat="43.54963446766516" lon="5.92579780763451"><ele>432.99999999999994</ele><time>2026-05-01T13:20:17.999Z</time></trkpt><trkpt lat="43.54954058775715" lon="5.925859669279477"><ele>433.0</ele><time>2026-05-01T13:20:18.999Z</time></trkpt><trkpt lat="43.54944739272999" lon="5.925903847595877"><ele>433.0</ele><time>2026-05-01T13:20:19.999Z</time></trkpt><trkpt lat="43.54936238564934" lon="5.925937770052515"><ele>432.71428571428567</ele><time>2026-05-01T13:20:20.999Z</time></trkpt><trkpt lat="43.5492929915719" lon="5.925952155506135"><ele>432.42857142857144</ele><time>2026-05-01T13:20:21.999Z</time></trkpt><trkpt lat="43.54922734958282" lon="5.9259940964680435"><ele>432.1428571428571</ele><time>2026-05-01T13:20:22.999Z</time></trkpt><trkpt lat="43.54917399272296" lon="5.926047284707962"><ele>431.85714285714283</ele><time>2026-05-01T13:20:24Z</time></trkpt><trkpt lat="43.54912447695995" lon="5.926113802379397"><ele>431.57142857142856</ele><time>2026-05-01T13:20:26Z</time></trkpt><trkpt lat="43.54910887840965" lon="5.926232523925996"><ele>431.2857142857143</ele><time>2026-05-01T13:27:02.999Z</time></trkpt><trkpt lat="43.549071674410605" lon="5.926332600995125"><ele>431.0</ele><time>2026-05-01T13:27:05.999Z</time></trkpt><trkpt lat="43.54901772185232" lon="5.926398922248966"><ele>430.99999999999994</ele><time>2026-05-01T13:27:08.999Z</time></trkpt><trkpt lat="43.54893953808158" lon="5.926371236208792"><ele>431.0</ele><time>2026-05-01T13:27:11.999Z</time></trkpt><trkpt lat="43.548860799574754" lon="5.926343388918405"><ele>431.0</ele><time>2026-05-01T13:27:13.999Z</time></trkpt><trkpt lat="43.54879204028975" lon="5.9262714056696"><ele>431.0</ele><time>2026-05-01T13:27:16.999Z</time></trkpt><trkpt lat="43.548733544821566" lon="5.926234685382555"><ele>430.99999999999994</ele><time>2026-05-01T13:27:18.999Z</time></trkpt><trkpt lat="43.54866246233242" lon="5.926196364401973"><ele>431.0</ele><time>2026-05-01T13:27:21.999Z</time></trkpt><trkpt lat="43.54862357008372" lon="5.926269205932584"><ele>429.99999999999994</ele><time>2026-05-01T13:27:28.999Z</time></trkpt><trkpt lat="43.548595781500325" lon="5.9263801082564855"><ele>429.0</ele><time>2026-05-01T13:27:30.999Z</time></trkpt><trkpt lat="43.54861075149676" lon="5.926479420904919"><ele>428.0</ele><time>2026-05-01T13:27:33.999Z</time></trkpt><trkpt lat="43.54853688896769" lon="5.926528486447655"><ele>427.0</ele><time>2026-05-01T13:27:35.999Z</time></trkpt><trkpt lat="43.548471809914254" lon="5.926564235736375"><ele>425.99999999999994</ele><time>2026-05-01T13:27:36.999Z</time></trkpt><trkpt lat="43.54840934622" lon="5.926608119722198"><ele>425.0</ele><time>2026-05-01T13:27:37.999Z</time></trkpt><trkpt lat="43.54834597617187" lon="5.92666660735958"><ele>425.3333333333333</ele><time>2026-05-01T13:27:39.999Z</time></trkpt><trkpt lat="43.54827435559309" lon="5.92674066067412"><ele>425.66666666666663</ele><time>2026-05-01T13:27:41.999Z</time></trkpt><trkpt lat="43.548203620417766" lon="5.92683134153302"><ele>426.0</ele><time>2026-05-01T13:27:43.999Z</time></trkpt><trkpt lat="43.548155835949586" lon="5.926899894614434"><ele>426.33333333333337</ele><time>2026-05-01T13:27:45.999Z</time></trkpt><trkpt lat="43.54807276723617" lon="5.9269893916224845"><ele>426.6666666666667</ele><time>2026-05-01T13:27:47.999Z</time></trkpt><trkpt lat="43.54801639364818" lon="5.9270543705995085"><ele>427.0</ele><time>2026-05-01T13:27:48.999Z</time></trkpt><trkpt lat="43.547966709243646" lon="5.927146530023105"><ele>427.00000000000006</ele><time>2026-05-01T13:27:50.999Z</time></trkpt><trkpt lat="43.54793500472961" lon="5.927224058134011"><ele>427.0</ele><time>2026-05-01T13:27:51.999Z</time></trkpt><trkpt lat="43.54790313166848" lon="5.927336417936838"><ele>427.0</ele><time>2026-05-01T13:27:53.999Z</time></trkpt><trkpt lat="43.547873531365674" lon="5.927416175664663"><ele>427.0</ele><time>2026-05-01T13:27:55.999Z</time></trkpt><trkpt lat="43.54785465198631" lon="5.927528388067731"><ele>427.00000000000006</ele><time>2026-05-01T13:27:57.999Z</time></trkpt><trkpt lat="43.54782540388876" lon="5.927607305899822"><ele>427.0</ele><time>2026-05-01T13:27:59.999Z</time></trkpt><trkpt lat="43.547770100570936" lon="5.927703230359507"><ele>425.83333333333337</ele><time>2026-05-01T13:28:01.999Z</time></trkpt><trkpt lat="43.54773086855097" lon="5.927774299686517"><ele>424.6666666666667</ele><time>2026-05-01T13:28:03.999Z</time></trkpt><trkpt lat="43.54766259060965" lon="5.927870289338052"><ele>423.5</ele><time>2026-05-01T13:28:05.999Z</time></trkpt><trkpt lat="43.54760877091578" lon="5.927933881019669"><ele>422.33333333333337</ele><time>2026-05-01T13:28:06.999Z</time></trkpt><trkpt lat="43.54755867001009" lon="5.928043705538126"><ele>421.1666666666667</ele><time>2026-05-01T13:28:08.999Z</time></trkpt><trkpt lat="43.54753518725296" lon="5.928124373950227"><ele>420.0</ele><time>2026-05-01T13:28:09.999Z</time></trkpt><trkpt lat="43.54749268756958" lon="5.928229485349143"><ele>420.0</ele><time>2026-05-01T13:28:10.999Z</time></trkpt><trkpt lat="43.54743153954374" lon="5.928360092622534"><ele>420.0</ele><time>2026-05-01T13:28:12.999Z</time></trkpt><trkpt lat="43.547369699864326" lon="5.928435564755754"><ele>420.0</ele><time>2026-05-01T13:28:14.999Z</time></trkpt><trkpt lat="43.5472621687374" lon="5.928512108817818"><ele>420.0</ele><time>2026-05-01T13:28:16.999Z</time></trkpt><trkpt lat="43.54717437132011" lon="5.928581748135661"><ele>420.0</ele><time>2026-05-01T13:28:18.999Z</time></trkpt><trkpt lat="43.547101798588784" lon="5.928648041403913"><ele>419.8</ele><time>2026-05-01T13:28:21.999Z</time></trkpt><trkpt lat="43.547080499224485" lon="5.928731426597029"><ele>419.6</ele><time>2026-05-01T13:28:25.999Z</time></trkpt><trkpt lat="43.54703318946686" lon="5.92885180197589"><ele>419.4</ele><time>2026-05-01T13:28:27.999Z</time></trkpt><trkpt lat="43.54697846028566" lon="5.929013001222317"><ele>419.2</ele><time>2026-05-01T13:28:29.999Z</time></trkpt><trkpt lat="43.5469524311805" lon="5.929128105163828"><ele>419.0</ele><time>2026-05-01T13:28:31.999Z</time></trkpt><trkpt lat="43.5469237365123" lon="5.929266053607548"><ele>416.66666666666663</ele><time>2026-05-01T13:28:33.999Z</time></trkpt><trkpt lat="43.546897668958465" lon="5.929365673877659"><ele>414.3333333333333</ele><time>2026-05-01T13:28:34.999Z</time></trkpt><trkpt lat="43.546883423738635" lon="5.929454134705753"><ele>412.0</ele><time>2026-05-01T13:28:35.999Z</time></trkpt><trkpt lat="43.54685408080542" lon="5.9295896430082236"><ele>409.66666666666663</ele><time>2026-05-01T13:28:37.999Z</time></trkpt><trkpt lat="43.54679893164731" lon="5.929697626447701"><ele>407.3333333333333</ele><time>2026-05-01T13:28:39.999Z</time></trkpt><trkpt lat="43.546731584628894" lon="5.9298005407984204"><ele>405.0</ele><time>2026-05-01T13:28:41.999Z</time></trkpt><trkpt lat="43.546692277181286" lon="5.929933934242518"><ele>404.0</ele><time>2026-05-01T13:28:43.999Z</time></trkpt><trkpt lat="43.54665794314385" lon="5.930121142010939"><ele>403.0</ele><time>2026-05-01T13:28:45.999Z</time></trkpt><trkpt lat="43.546624332596345" lon="5.930223736062867"><ele>402.0</ele><time>2026-05-01T13:28:46.999Z</time></trkpt><trkpt lat="43.54660851728066" lon="5.930317024244311"><ele>401.0</ele><time>2026-05-01T13:28:47.999Z</time></trkpt><trkpt lat="43.54658842655604" lon="5.930411928294739"><ele>400.0</ele><time>2026-05-01T13:28:48.999Z</time></trkpt><trkpt lat="43.54656742793581" lon="5.93049943294982"><ele>399.0</ele><time>2026-05-01T13:28:49.999Z</time></trkpt><trkpt lat="43.54655886800561" lon="5.930587273046316"><ele>399.0</ele><time>2026-05-01T13:28:50.999Z</time></trkpt><trkpt lat="43.546566188466414" lon="5.930687003327978"><ele>399.0</ele><time>2026-05-01T13:28:52.999Z</time></trkpt><trkpt lat="43.546564384276394" lon="5.930835087713054"><ele>399.0</ele><time>2026-05-01T13:28:54.999Z</time></trkpt><trkpt lat="43.54659110707386" lon="5.930982772157048"><ele>399.0</ele><time>2026-05-01T13:28:56.999Z</time></trkpt><trkpt lat="43.54658392923974" lon="5.931133964416942"><ele>399.0</ele><time>2026-05-01T13:28:58.999Z</time></trkpt><trkpt lat="43.54658146567954" lon="5.931283593646904"><ele>398.6</ele><time>2026-05-01T13:29:00.999Z</time></trkpt><trkpt lat="43.54651460640615" lon="5.931393056556122"><ele>398.2</ele><time>2026-05-01T13:29:02.999Z</time></trkpt><trkpt lat="43.54642751863866" lon="5.93148448448178"><ele>397.8</ele><time>2026-05-01T13:29:04.999Z</time></trkpt><trkpt lat="43.54637346917129" lon="5.931564281998864"><ele>397.40000000000003</ele><time>2026-05-01T13:29:06.999Z</time></trkpt><trkpt lat="43.54631273699717" lon="5.931634152878105"><ele>397.0</ele><time>2026-05-01T13:29:08.999Z</time></trkpt><trkpt lat="43.5462370799241" lon="5.931696661572173"><ele>393.6666666666667</ele><time>2026-05-01T13:29:09.999Z</time></trkpt><trkpt lat="43.54616440672334" lon="5.931755264313376"><ele>390.33333333333337</ele><time>2026-05-01T13:29:10.999Z</time></trkpt><trkpt lat="43.54610723195893" lon="5.931798956073835"><ele>387.0</ele><time>2026-05-01T13:29:11.999Z</time></trkpt><trkpt lat="43.54601567069214" lon="5.931881220226508"><ele>383.6666666666667</ele><time>2026-05-01T13:29:13.999Z</time></trkpt><trkpt lat="43.5459346482744" lon="5.931908464634743"><ele>380.33333333333337</ele><time>2026-05-01T13:29:15.999Z</time></trkpt><trkpt lat="43.54586153938389" lon="5.932001753212256"><ele>377.0</ele><time>2026-05-01T13:29:17.999Z</time></trkpt><trkpt lat="43.54586389809629" lon="5.932152873661394"><ele>377.0</ele><time>2026-05-01T13:29:19.999Z</time></trkpt><trkpt lat="43.54585372037485" lon="5.9322510833286675"><ele>377.0</ele><time>2026-05-01T13:29:20.999Z</time></trkpt><trkpt lat="43.545835036519584" lon="5.9323355288506034"><ele>377.0</ele><time>2026-05-01T13:29:21.999Z</time></trkpt><trkpt lat="43.54580317386525" lon="5.932461143527746"><ele>377.0</ele><time>2026-05-01T13:29:23.999Z</time></trkpt><trkpt lat="43.54574941979104" lon="5.932528619510214"><ele>377.0</ele><time>2026-05-01T13:29:25.999Z</time></trkpt><trkpt lat="43.54564251421621" lon="5.932599472324474"><ele>377.0</ele><time>2026-05-01T13:29:27.999Z</time></trkpt><trkpt lat="43.545572101140884" lon="5.93261723923194"><ele>378.33333333333337</ele><time>2026-05-01T13:29:28.999Z</time></trkpt><trkpt lat="43.545466556029616" lon="5.932647687678405"><ele>379.6666666666667</ele><time>2026-05-01T13:29:30.999Z</time></trkpt><trkpt lat="43.54537863225901" lon="5.932627480556448"><ele>381.0</ele><time>2026-05-01T13:29:32.999Z</time></trkpt><trkpt lat="43.54531138296125" lon="5.932707060673765"><ele>382.33333333333337</ele><time>2026-05-01T13:29:34.999Z</time></trkpt><trkpt lat="43.54527733559948" lon="5.9328365414400634"><ele>383.6666666666667</ele><time>2026-05-01T13:29:36.999Z</time></trkpt><trkpt lat="43.5452392044917" lon="5.932905948935599"><ele>385.0</ele><time>2026-05-01T13:29:37.999Z</time></trkpt><trkpt lat="43.545185858267466" lon="5.93295541930649"><ele>381.6666666666667</ele><time>2026-05-01T13:29:38.999Z</time></trkpt><trkpt lat="43.54509082362331" lon="5.932997314539026"><ele>378.33333333333337</ele><time>2026-05-01T13:29:40.999Z</time></trkpt><trkpt lat="43.54500286757015" lon="5.933019443965308"><ele>375.0</ele><time>2026-05-01T13:29:42.999Z</time></trkpt><trkpt lat="43.54496571764846" lon="5.933102646091425"><ele>371.6666666666667</ele><time>2026-05-01T13:29:45.999Z</time></trkpt><trkpt lat="43.544908569797435" lon="5.933153879263655"><ele>368.33333333333337</ele><time>2026-05-01T13:29:49.999Z</time></trkpt><trkpt lat="43.54485491284404" lon="5.933209520006102"><ele>365.0</ele><time>2026-05-01T13:29:51.999Z</time></trkpt><trkpt lat="43.544781205195804" lon="5.933224956637139"><ele>365.0</ele><time>2026-05-01T13:29:53.999Z</time></trkpt><trkpt lat="43.54467717172603" lon="5.933289632982466"><ele>365.0</ele><time>2026-05-01T13:29:55.999Z</time></trkpt><trkpt lat="43.54458813917527" lon="5.933330785363125"><ele>365.0</ele><time>2026-05-01T13:29:57.999Z</time></trkpt><trkpt lat="43.544471219505425" lon="5.933407068494789"><ele>365.0</ele><time>2026-05-01T13:29:59.999Z</time></trkpt><trkpt lat="43.54440436952764" lon="5.93344917453301"><ele>365.0</ele><time>2026-05-01T13:30:00.999Z</time></trkpt><trkpt lat="43.54429130091834" lon="5.933509902167519"><ele>362.0</ele><time>2026-05-01T13:30:02.999Z</time></trkpt><trkpt lat="43.54428570116597" lon="5.933620679360938"><ele>359.0</ele><time>2026-05-01T13:30:07.999Z</time></trkpt><trkpt lat="43.54427384264775" lon="5.933732370343933"><ele>356.0</ele><time>2026-05-01T13:30:17.999Z</time></trkpt><trkpt lat="43.54428986860466" lon="5.933851040674238"><ele>353.0</ele><time>2026-05-01T13:30:20.999Z</time></trkpt><trkpt lat="43.54427914379811" lon="5.933972956201734"><ele>350.0</ele><time>2026-05-01T13:30:22.999Z</time></trkpt><trkpt lat="43.54430172756276" lon="5.9340825857612876"><ele>347.0</ele><time>2026-05-01T13:30:24.999Z</time></trkpt><trkpt lat="43.54431359703902" lon="5.934208585194852"><ele>346.5</ele><time>2026-05-01T13:30:26.999Z</time></trkpt><trkpt lat="43.54432509257923" lon="5.934345885485598"><ele>346.0</ele><time>2026-05-01T13:30:29.999Z</time></trkpt><trkpt lat="43.54434004178149" lon="5.934444287487228"><ele>345.5</ele><time>2026-05-01T13:30:30.999Z</time></trkpt><trkpt lat="43.54436476169843" lon="5.934582921208874"><ele>345.0</ele><time>2026-05-01T13:30:32.999Z</time></trkpt><trkpt lat="43.54441269949538" lon="5.9346564513077835"><ele>344.5</ele><time>2026-05-01T13:30:34.999Z</time></trkpt><trkpt lat="43.544429943536414" lon="5.934770851295853"><ele>344.0</ele><time>2026-05-01T13:30:36.999Z</time></trkpt><trkpt lat="43.54444185885049" lon="5.93486646479668"><ele>344.0</ele><time>2026-05-01T13:30:39.999Z</time></trkpt><trkpt lat="43.54444434183554" lon="5.934963830082179"><ele>344.0</ele><time>2026-05-01T13:30:42.999Z</time></trkpt><trkpt lat="43.544446859370176" lon="5.935051529840263"><ele>344.0</ele><time>2026-05-01T13:30:51.998Z</time></trkpt><trkpt lat="43.54443810543935" lon="5.93513822521949"><ele>344.0</ele><time>2026-05-01T13:30:56.998Z</time></trkpt><trkpt lat="43.54445268303316" lon="5.935239708489538"><ele>344.0</ele><time>2026-05-01T13:30:59.999Z</time></trkpt><trkpt lat="43.54447618472787" lon="5.935385551204775"><ele>344.0</ele><time>2026-05-01T13:31:01.999Z</time></trkpt><trkpt lat="43.54448612854983" lon="5.935481160099185"><ele>343.2</ele><time>2026-05-01T13:31:02.999Z</time></trkpt><trkpt lat="43.5445302170095" lon="5.935598139818518"><ele>342.4</ele><time>2026-05-01T13:31:05.999Z</time></trkpt><trkpt lat="43.54454955226259" lon="5.935753567642454"><ele>341.6</ele><time>2026-05-01T13:31:07.999Z</time></trkpt><trkpt lat="43.544585740758876" lon="5.935874957942245"><ele>340.8</ele><time>2026-05-01T13:31:09.999Z</time></trkpt><trkpt lat="43.54460774014805" lon="5.9359724571879395"><ele>340.0</ele><time>2026-05-01T13:31:11.999Z</time></trkpt><trkpt lat="43.54463035694621" lon="5.93608991910859"><ele>341.3333333333333</ele><time>2026-05-01T13:31:13.999Z</time></trkpt><trkpt lat="43.544666936225646" lon="5.936170763879691"><ele>342.66666666666663</ele><time>2026-05-01T13:31:16.999Z</time></trkpt><trkpt lat="43.54472892926022" lon="5.93627578583842"><ele>344.0</ele><time>2026-05-01T13:31:18.999Z</time></trkpt><trkpt lat="43.54476489675935" lon="5.936414187613706"><ele>345.3333333333333</ele><time>2026-05-01T13:31:21.999Z</time></trkpt><trkpt lat="43.54477918305823" lon="5.936524996188448"><ele>346.6666666666667</ele><time>2026-05-01T13:31:23.999Z</time></trkpt><trkpt lat="43.54480106472453" lon="5.93663107670975"><ele>348.0</ele><time>2026-05-01T13:31:25.999Z</time></trkpt><trkpt lat="43.54481517623296" lon="5.936753868187755"><ele>348.0</ele><time>2026-05-01T13:31:28.999Z</time></trkpt><trkpt lat="43.544838458728485" lon="5.93685218302601"><ele>348.0</ele><time>2026-05-01T13:31:31.999Z</time></trkpt><trkpt lat="43.544849470615276" lon="5.936942472945697"><ele>348.0</ele><time>2026-05-01T13:31:33.999Z</time></trkpt><trkpt lat="43.54485472648823" lon="5.93703664527719"><ele>348.0</ele><time>2026-05-01T13:31:35.999Z</time></trkpt><trkpt lat="43.544889065874756" lon="5.9371098748643645"><ele>348.0</ele><time>2026-05-01T13:31:37.999Z</time></trkpt><trkpt lat="43.544875809305246" lon="5.937197948893575"><ele>348.0</ele><time>2026-05-01T13:31:39.999Z</time></trkpt><trkpt lat="43.54487579814557" lon="5.937355269856836"><ele>348.0</ele><time>2026-05-01T13:31:43.999Z</time></trkpt><trkpt lat="43.54489588468328" lon="5.9374547723493025"><ele>348.0</ele><time>2026-05-01T13:31:45.999Z</time></trkpt><trkpt lat="43.544910267688444" lon="5.937560008784532"><ele>348.0</ele><time>2026-05-01T13:31:48.999Z</time></trkpt><trkpt lat="43.5448521957406" lon="5.937683774454127"><ele>348.0</ele><time>2026-05-01T13:31:51.999Z</time></trkpt><trkpt lat="43.54483688651689" lon="5.93783885490073"><ele>348.0</ele><time>2026-05-01T13:31:53.999Z</time></trkpt><trkpt lat="43.54481415555031" lon="5.93793708985854"><ele>348.0</ele><time>2026-05-01T13:31:54.999Z</time></trkpt><trkpt lat="43.544630496751246" lon="5.937917529352665"><ele>347.0</ele><time>2026-05-01T13:31:55.999Z</time></trkpt><trkpt lat="43.54459368843169" lon="5.938047619638937"><ele>346.0</ele><time>2026-05-01T13:31:57.999Z</time></trkpt><trkpt lat="43.54456476872077" lon="5.938149829930633"><ele>345.0</ele><time>2026-05-01T13:31:59.999Z</time></trkpt><trkpt lat="43.54449917182617" lon="5.938194875998964"><ele>344.0</ele><time>2026-05-01T13:32:05.999Z</time></trkpt><trkpt lat="43.5443665666519" lon="5.938476432822169"><ele>340.0</ele><time>2026-05-01T13:32:23.999Z</time></trkpt><trkpt lat="43.544331778085976" lon="5.938650555676483"><ele>336.0</ele><time>2026-05-01T13:32:24.999Z</time></trkpt><trkpt lat="43.54429863133905" lon="5.938773968223095"><ele>332.0</ele><time>2026-05-01T13:32:25.999Z</time></trkpt><trkpt lat="43.54420534427012" lon="5.93893146594705"><ele>328.0</ele><time>2026-05-01T13:32:26.999Z</time></trkpt><trkpt lat="43.54408079908049" lon="5.939127255185407"><ele>327.5</ele><time>2026-05-01T13:32:27.999Z</time></trkpt><trkpt lat="43.54398692900964" lon="5.939289229413993"><ele>327.0</ele><time>2026-05-01T13:32:28.999Z</time></trkpt><trkpt lat="43.5439077394515" lon="5.9394387768506505"><ele>326.5</ele><time>2026-05-01T13:32:29.999Z</time></trkpt><trkpt lat="43.54384331773798" lon="5.939572722036997"><ele>326.0</ele><time>2026-05-01T13:32:30.999Z</time></trkpt><trkpt lat="43.543794232572075" lon="5.939684809233908"><ele>326.0</ele><time>2026-05-01T13:32:31.999Z</time></trkpt><trkpt lat="43.543788844272065" lon="5.9398374127825875"><ele>326.0</ele><time>2026-05-01T13:32:32.999Z</time></trkpt><trkpt lat="43.54385263403867" lon="5.940019754706595"><ele>326.0</ele><time>2026-05-01T13:32:33.999Z</time></trkpt><trkpt lat="43.543836588872125" lon="5.940202199916386"><ele>326.0</ele><time>2026-05-01T13:32:34.999Z</time></trkpt><trkpt lat="43.5438323123892" lon="5.9403886002759325"><ele>324.8</ele><time>2026-05-01T13:32:35.999Z</time></trkpt><trkpt lat="43.54383043885907" lon="5.9405497403161185"><ele>323.6</ele><time>2026-05-01T13:32:36.999Z</time></trkpt><trkpt lat="43.54383146853155" lon="5.940695412209782"><ele>322.4</ele><time>2026-05-01T13:32:37.999Z</time></trkpt><trkpt lat="43.54384044526655" lon="5.94081853764168"><ele>321.2</ele><time>2026-05-01T13:32:39Z</time></trkpt><trkpt lat="43.543842673273836" lon="5.940944477217581"><ele>320.0</ele><time>2026-05-01T13:32:40Z</time></trkpt><trkpt lat="43.5438771059565" lon="5.941064452842764"><ele>319.4</ele><time>2026-05-01T13:32:41Z</time></trkpt><trkpt lat="43.543909856071" lon="5.9411994355540205"><ele>318.8</ele><time>2026-05-01T13:32:42Z</time></trkpt><trkpt lat="43.54390059910184" lon="5.941363123069164"><ele>318.2</ele><time>2026-05-01T13:32:43Z</time></trkpt><trkpt lat="43.54390970758167" lon="5.941507424408887"><ele>317.6</ele><time>2026-05-01T13:32:44Z</time></trkpt><trkpt lat="43.54391195363818" lon="5.941634542347969"><ele>317.0</ele><time>2026-05-01T13:32:45Z</time></trkpt><trkpt lat="43.543881832839226" lon="5.941740471416791"><ele>316.6666666666667</ele><time>2026-05-01T13:32:46Z</time></trkpt><trkpt lat="43.54382590049034" lon="5.9418132632919765"><ele>316.33333333333337</ele><time>2026-05-01T13:32:47Z</time></trkpt><trkpt lat="43.54376574536354" lon="5.941900202787243"><ele>316.0</ele><time>2026-05-01T13:32:48Z</time></trkpt><trkpt lat="43.54371019976286" lon="5.9419959933054525"><ele>315.6666666666667</ele><time>2026-05-01T13:32:49Z</time></trkpt><trkpt lat="43.54365957605871" lon="5.942092408110798"><ele>315.3333333333333</ele><time>2026-05-01T13:32:50Z</time></trkpt><trkpt lat="43.54362207219104" lon="5.942174687635896"><ele>315.0</ele><time>2026-05-01T13:32:51Z</time></trkpt><trkpt lat="43.54357675058813" lon="5.942253119458683"><ele>313.75</ele><time>2026-05-01T13:32:53Z</time></trkpt><trkpt lat="43.543436441600974" lon="5.94217511268709"><ele>312.5</ele><time>2026-05-01T13:32:54Z</time></trkpt><trkpt lat="43.54333663347192" lon="5.942183590877227"><ele>311.25</ele><time>2026-05-01T13:32:55Z</time></trkpt><trkpt lat="43.54320784859031" lon="5.942221707233157"><ele>310.0</ele><time>2026-05-01T13:32:56Z</time></trkpt><trkpt lat="43.54304313339029" lon="5.942262549254407"><ele>310.66666666666663</ele><time>2026-05-01T13:32:57Z</time></trkpt><trkpt lat="43.542874584640195" lon="5.942302253799091"><ele>311.3333333333333</ele><time>2026-05-01T13:32:58Z</time></trkpt><trkpt lat="43.54270608419545" lon="5.942343413697593"><ele>312.0</ele><time>2026-05-01T13:32:59Z</time></trkpt><trkpt lat="43.54254739214758" lon="5.942384243657356"><ele>312.0</ele><time>2026-05-01T13:33:00Z</time></trkpt><trkpt lat="43.54240997011016" lon="5.942423011637798"><ele>312.0</ele><time>2026-05-01T13:33:01Z</time></trkpt><trkpt lat="43.54227886749555" lon="5.942458657038739"><ele>312.0</ele><time>2026-05-01T13:33:02Z</time></trkpt><trkpt lat="43.54215207908095" lon="5.942488354374444"><ele>312.0</ele><time>2026-05-01T13:33:03Z</time></trkpt><trkpt lat="43.542032155920054" lon="5.942515289484209"><ele>311.8333333333333</ele><time>2026-05-01T13:33:04Z</time></trkpt><trkpt lat="43.5419278216049" lon="5.942541461756307"><ele>311.6666666666667</ele><time>2026-05-01T13:33:05Z</time></trkpt><trkpt lat="43.5418449785045" lon="5.942541764384487"><ele>311.5</ele><time>2026-05-01T13:33:06Z</time></trkpt><trkpt lat="43.541780753078854" lon="5.9425567036784495"><ele>311.33333333333337</ele><time>2026-05-01T13:33:07Z</time></trkpt><trkpt lat="43.5417122737954" lon="5.942584060681331"><ele>311.1666666666667</ele><time>2026-05-01T13:33:10Z</time></trkpt><trkpt lat="43.541638776367854" lon="5.942589728478894"><ele>311.0</ele><time>2026-05-01T13:33:12Z</time></trkpt><trkpt lat="43.54156205073782" lon="5.942607575413116"><ele>312.25</ele><time>2026-05-01T13:33:13Z</time></trkpt><trkpt lat="43.54145780654515" lon="5.942631873725296"><ele>313.5</ele><time>2026-05-01T13:33:14Z</time></trkpt><trkpt lat="43.54133573547171" lon="5.942663393784648"><ele>314.75</ele><time>2026-05-01T13:33:15Z</time></trkpt><trkpt lat="43.54119816834348" lon="5.942698915086765"><ele>316.0</ele><time>2026-05-01T13:33:16Z</time></trkpt><trkpt lat="43.541034929307365" lon="5.942741065143617"><ele>316.0</ele><time>2026-05-01T13:33:17Z</time></trkpt><trkpt lat="43.540884987390726" lon="5.94279446841332"><ele>316.0</ele><time>2026-05-01T13:33:18Z</time></trkpt><trkpt lat="43.540771659116416" lon="5.942841658004085"><ele>316.0</ele><time>2026-05-01T13:33:19Z</time></trkpt><trkpt lat="43.5406777587696" lon="5.942889927283652"><ele>316.0</ele><time>2026-05-01T13:33:20Z</time></trkpt><trkpt lat="43.54057773326147" lon="5.942947464820647"><ele>324.0</ele><time>2026-05-01T13:33:21Z</time></trkpt><trkpt lat="43.5406238108057" lon="5.94392343095972"><ele>324.0</ele><time>2026-05-01T13:33:22Z</time></trkpt><trkpt lat="43.540583742036056" lon="5.944053831443522"><ele>324.0</ele><time>2026-05-01T13:33:23Z</time></trkpt><trkpt lat="43.54055149718325" lon="5.944171812344825"><ele>324.0</ele><time>2026-05-01T13:33:24Z</time></trkpt><trkpt lat="43.54051249943372" lon="5.944286748602278"><ele>324.0</ele><time>2026-05-01T13:33:25Z</time></trkpt><trkpt lat="43.54047302727544" lon="5.944406674544737"><ele>324.0</ele><time>2026-05-01T13:33:26Z</time></trkpt><trkpt lat="43.54043273262159" lon="5.944542900156913"><ele>324.2</ele><time>2026-05-01T13:33:27Z</time></trkpt><trkpt lat="43.540394186673645" lon="5.94464803341578"><ele>324.4</ele><time>2026-05-01T13:33:28Z</time></trkpt><trkpt lat="43.54034351060745" lon="5.944741823018034"><ele>324.6</ele><time>2026-05-01T13:33:29Z</time></trkpt><trkpt lat="43.5402838253675" lon="5.944802394816853"><ele>324.8</ele><time>2026-05-01T13:33:30Z</time></trkpt><trkpt lat="43.54017237114402" lon="5.944861269187745"><ele>325.0</ele><time>2026-05-01T13:33:32Z</time></trkpt><trkpt lat="43.54007100002436" lon="5.944896451555695"><ele>323.6</ele><time>2026-05-01T13:33:33Z</time></trkpt><trkpt lat="43.53996850559487" lon="5.944925127974359"><ele>322.2</ele><time>2026-05-01T13:33:34Z</time></trkpt><trkpt lat="43.53985984016616" lon="5.944958929259231"><ele>320.8</ele><time>2026-05-01T13:33:35Z</time></trkpt><trkpt lat="43.539766546575805" lon="5.944997609108185"><ele>319.4</ele><time>2026-05-01T13:33:36Z</time></trkpt><trkpt lat="43.539678925189854" lon="5.945020629912415"><ele>318.0</ele><time>2026-05-01T13:33:37Z</time></trkpt><trkpt lat="43.53958022131752" lon="5.945049853652067"><ele>317.2</ele><time>2026-05-01T13:33:38Z</time></trkpt><trkpt lat="43.53948426117044" lon="5.945086276551107"><ele>316.4</ele><time>2026-05-01T13:33:39Z</time></trkpt><trkpt lat="43.539379470263476" lon="5.945125208156199"><ele>315.59999999999997</ele><time>2026-05-01T13:33:40Z</time></trkpt><trkpt lat="43.53929285921542" lon="5.945157192725317"><ele>314.8</ele><time>2026-05-01T13:33:41Z</time></trkpt><trkpt lat="43.53921641398185" lon="5.945185613372327"><ele>314.0</ele><time>2026-05-01T13:33:42Z</time></trkpt><trkpt lat="43.539144518552575" lon="5.945205483844958"><ele>314.0</ele><time>2026-05-01T13:33:43Z</time></trkpt><trkpt lat="43.539080262025685" lon="5.945215377205301"><ele>314.0</ele><time>2026-05-01T13:33:44Z</time></trkpt><trkpt lat="43.539014452366764" lon="5.945238182070535"><ele>314.0</ele><time>2026-05-01T13:33:59Z</time></trkpt><trkpt lat="43.53900084606289" lon="5.945341152263022"><ele>314.0</ele><time>2026-05-01T13:34:00Z</time></trkpt><trkpt lat="43.538987645700665" lon="5.945463915372798"><ele>314.0</ele><time>2026-05-01T13:34:01Z</time></trkpt><trkpt lat="43.538968946404026" lon="5.94556687924056"><ele>314.0</ele><time>2026-05-01T13:34:02Z</time></trkpt><trkpt lat="43.53892244927339" lon="5.945654511857096"><ele>314.0</ele><time>2026-05-01T13:34:03Z</time></trkpt><trkpt lat="43.53885738751323" lon="5.945740616168853"><ele>314.0</ele><time>2026-05-01T13:34:04Z</time></trkpt><trkpt lat="43.538807366977856" lon="5.945816005916174"><ele>314.0</ele><time>2026-05-01T13:34:05Z</time></trkpt><trkpt lat="43.53874676840032" lon="5.945954937547596"><ele>314.0</ele><time>2026-05-01T13:34:07Z</time></trkpt><trkpt lat="43.5387060647417" lon="5.946122642579151"><ele>314.0</ele><time>2026-05-01T13:34:09Z</time></trkpt><trkpt lat="43.538614413364996" lon="5.946187626141378"><ele>314.4</ele><time>2026-05-01T13:34:11Z</time></trkpt><trkpt lat="43.53853558649327" lon="5.946209210986988"><ele>314.79999999999995</ele><time>2026-05-01T13:34:12Z</time></trkpt><trkpt lat="43.538416096892355" lon="5.9462297165734945"><ele>315.20000000000005</ele><time>2026-05-01T13:34:13Z</time></trkpt><trkpt lat="43.5382966244995" lon="5.946226208813496"><ele>315.6</ele><time>2026-05-01T13:34:14Z</time></trkpt><trkpt lat="43.53820888415609" lon="5.946156030279986"><ele>316.0</ele><time>2026-05-01T13:34:15Z</time></trkpt><trkpt lat="43.538112511133335" lon="5.946055697263198"><ele>316.0</ele><time>2026-05-01T13:34:17.001Z</time></trkpt><trkpt lat="43.538074630676014" lon="5.94596607525973"><ele>316.0</ele><time>2026-05-01T13:34:18.001Z</time></trkpt><trkpt lat="43.53804322742055" lon="5.945873012854585"><ele>316.0</ele><time>2026-05-01T13:34:19.001Z</time></trkpt><trkpt lat="43.5380098676249" lon="5.945778806636139"><ele>316.0</ele><time>2026-05-01T13:34:20.001Z</time></trkpt><trkpt lat="43.53796092079282" lon="5.9456417942715625"><ele>316.0</ele><time>2026-05-01T13:34:21.001Z</time></trkpt><trkpt lat="43.53789238387574" lon="5.945473538613051"><ele>313.25</ele><time>2026-05-01T13:34:22.001Z</time></trkpt><trkpt lat="43.537822477420676" lon="5.945320162299607"><ele>310.5</ele><time>2026-05-01T13:34:23.001Z</time></trkpt><trkpt lat="43.537745238206384" lon="5.9451858939702875"><ele>307.75</ele><time>2026-05-01T13:34:24.001Z</time></trkpt><trkpt lat="43.53768983155649" lon="5.945040367936873"><ele>305.0</ele><time>2026-05-01T13:34:25.001Z</time></trkpt><trkpt lat="43.537629780711306" lon="5.944898596860152"><ele>303.5</ele><time>2026-05-01T13:34:26.001Z</time></trkpt><trkpt lat="43.53756954915128" lon="5.944753146310438"><ele>302.0</ele><time>2026-05-01T13:34:27.001Z</time></trkpt><trkpt lat="43.53750807795671" lon="5.944607806586145"><ele>300.5</ele><time>2026-05-01T13:34:28.001Z</time></trkpt><trkpt lat="43.5374505200908" lon="5.944465658654967"><ele>299.0</ele><time>2026-05-01T13:34:29.001Z</time></trkpt><trkpt lat="43.537391431961005" lon="5.944320028451044"><ele>298.2</ele><time>2026-05-01T13:34:30.001Z</time></trkpt><trkpt lat="43.53732765464695" lon="5.9441978508524995"><ele>297.4</ele><time>2026-05-01T13:34:31.001Z</time></trkpt><trkpt lat="43.5372792494123" lon="5.944087858078393"><ele>296.6</ele><time>2026-05-01T13:34:32.001Z</time></trkpt><trkpt lat="43.53723483130509" lon="5.943991069981504"><ele>295.8</ele><time>2026-05-01T13:34:33.001Z</time></trkpt><trkpt lat="43.537176983004784" lon="5.943869515664231"><ele>295.0</ele><time>2026-05-01T13:34:35.001Z</time></trkpt><trkpt lat="43.53714442171067" lon="5.943785360083318"><ele>295.0</ele><time>2026-05-01T13:34:37.001Z</time></trkpt><trkpt lat="43.53711076597422" lon="5.943707151404728"><ele>295.0</ele><time>2026-05-01T13:34:42.001Z</time></trkpt><trkpt lat="43.536977267092915" lon="5.9437520378276245"><ele>295.0</ele><time>2026-05-01T13:34:43.001Z</time></trkpt><trkpt lat="43.53687472816268" lon="5.94377415876761"><ele>295.0</ele><time>2026-05-01T13:34:44.001Z</time></trkpt><trkpt lat="43.53674244822978" lon="5.943779341036192"><ele>295.0</ele><time>2026-05-01T13:34:45.001Z</time></trkpt><trkpt lat="43.536618493409094" lon="5.943804543207447"><ele>293.0</ele><time>2026-05-01T13:34:46.001Z</time></trkpt><trkpt lat="43.53649020278772" lon="5.943843648437796"><ele>291.0</ele><time>2026-05-01T13:34:47.001Z</time></trkpt><trkpt lat="43.53636236780736" lon="5.943864569294257"><ele>289.0</ele><time>2026-05-01T13:34:48.001Z</time></trkpt><trkpt lat="43.5362213105066" lon="5.943866316060836"><ele>287.0</ele><time>2026-05-01T13:34:49.001Z</time></trkpt><trkpt lat="43.53604956899042" lon="5.943890898346965"><ele>285.33333333333337</ele><time>2026-05-01T13:34:50.001Z</time></trkpt><trkpt lat="43.53587346777556" lon="5.943918118379415"><ele>283.6666666666667</ele><time>2026-05-01T13:34:51.001Z</time></trkpt><trkpt lat="43.53569741066247" lon="5.943980709347725"><ele>282.0</ele><time>2026-05-01T13:34:52.001Z</time></trkpt><trkpt lat="43.535508615755575" lon="5.944056528929238"><ele>280.6666666666667</ele><time>2026-05-01T13:34:53.001Z</time></trkpt><trkpt lat="43.5353461862103" lon="5.944172358768911"><ele>279.33333333333337</ele><time>2026-05-01T13:34:54.001Z</time></trkpt><trkpt lat="43.535196961052776" lon="5.944291537719656"><ele>278.0</ele><time>2026-05-01T13:34:55Z</time></trkpt><trkpt lat="43.535052862342525" lon="5.944413083321048"><ele>278.0</ele><time>2026-05-01T13:34:56Z</time></trkpt><trkpt lat="43.53489007074053" lon="5.9445306730582"><ele>278.0</ele><time>2026-05-01T13:34:57Z</time></trkpt><trkpt lat="43.53472751701431" lon="5.944669046212882"><ele>278.0</ele><time>2026-05-01T13:34:58Z</time></trkpt><trkpt lat="43.53458543904635" lon="5.944816563568904"><ele>278.0</ele><time>2026-05-01T13:34:59Z</time></trkpt><trkpt lat="43.53443176022324" lon="5.944920809427171"><ele>278.0</ele><time>2026-05-01T13:35:00Z</time></trkpt><trkpt lat="43.53429243202944" lon="5.945039412014909"><ele>278.0</ele><time>2026-05-01T13:35:01Z</time></trkpt><trkpt lat="43.53415815928426" lon="5.945153711109368"><ele>278.0</ele><time>2026-05-01T13:35:02Z</time></trkpt><trkpt lat="43.53400803727976" lon="5.945281501857768"><ele>278.0</ele><time>2026-05-01T13:35:03Z</time></trkpt><trkpt lat="43.533856267915326" lon="5.945436143999464"><ele>278.0</ele><time>2026-05-01T13:35:04Z</time></trkpt><trkpt lat="43.53368977032585" lon="5.945552336600924"><ele>277.6666666666667</ele><time>2026-05-01T13:35:05Z</time></trkpt><trkpt lat="43.53353788600265" lon="5.945681568609635"><ele>277.3333333333333</ele><time>2026-05-01T13:35:06Z</time></trkpt><trkpt lat="43.53340889037184" lon="5.945815798231573"><ele>277.0</ele><time>2026-05-01T13:35:07Z</time></trkpt><trkpt lat="43.53326685211903" lon="5.945923545811957"><ele>277.0</ele><time>2026-05-01T13:35:08Z</time></trkpt><trkpt lat="43.53311343796622" lon="5.946021601504981"><ele>277.0</ele><time>2026-05-01T13:35:09Z</time></trkpt><trkpt lat="43.53295128834796" lon="5.9461293116377725"><ele>277.0</ele><time>2026-05-01T13:35:10Z</time></trkpt><trkpt lat="43.532785344331785" lon="5.946235104905028"><ele>276.3333333333333</ele><time>2026-05-01T13:35:11Z</time></trkpt><trkpt lat="43.532618987972135" lon="5.946334498973047"><ele>275.6666666666667</ele><time>2026-05-01T13:35:12Z</time></trkpt><trkpt lat="43.53246222592578" lon="5.9464332698022515"><ele>275.0</ele><time>2026-05-01T13:35:13Z</time></trkpt><trkpt lat="43.532313274288605" lon="5.946539474550013"><ele>275.0</ele><time>2026-05-01T13:35:14Z</time></trkpt><trkpt lat="43.532172129610046" lon="5.946629520051719"><ele>275.0</ele><time>2026-05-01T13:35:15Z</time></trkpt><trkpt lat="43.532040125526336" lon="5.946704635677235"><ele>275.0</ele><time>2026-05-01T13:35:16Z</time></trkpt><trkpt lat="43.5319091239935" lon="5.946755084494258"><ele>275.0</ele><time>2026-05-01T13:35:17Z</time></trkpt><trkpt lat="43.531781221438614" lon="5.946776686004299"><ele>274.0</ele><time>2026-05-01T13:35:18Z</time></trkpt><trkpt lat="43.531656840147846" lon="5.946784845905351"><ele>273.0</ele><time>2026-05-01T13:35:19Z</time></trkpt><trkpt lat="43.53153074026441" lon="5.946771529117154"><ele>272.0</ele><time>2026-05-01T13:35:20Z</time></trkpt><trkpt lat="43.53139465963545" lon="5.946742665429889"><ele>271.0</ele><time>2026-05-01T13:35:21Z</time></trkpt><trkpt lat="43.531245126663194" lon="5.946705172383912"><ele>270.3333333333333</ele><time>2026-05-01T13:35:22Z</time></trkpt><trkpt lat="43.53108259899179" lon="5.94667236484689"><ele>269.6666666666667</ele><time>2026-05-01T13:35:23Z</time></trkpt><trkpt lat="43.53092526217975" lon="5.946644554102431"><ele>269.0</ele><time>2026-05-01T13:35:24Z</time></trkpt><trkpt lat="43.530791744369296" lon="5.94660616334315"><ele>269.0</ele><time>2026-05-01T13:35:25Z</time></trkpt><trkpt lat="43.530681605965356" lon="5.9465821648150845"><ele>269.0</ele><time>2026-05-01T13:35:26Z</time></trkpt><trkpt lat="43.53058254451403" lon="5.946562715657037"><ele>269.0</ele><time>2026-05-01T13:35:27Z</time></trkpt><trkpt lat="43.530482106174176" lon="5.946540664424752"><ele>269.0</ele><time>2026-05-01T13:35:28Z</time></trkpt><trkpt lat="43.53038293674309" lon="5.946517612403555"><ele>269.0</ele><time>2026-05-01T13:35:29Z</time></trkpt><trkpt lat="43.53028243502681" lon="5.946493871301921"><ele>268.25</ele><time>2026-05-01T13:35:30Z</time></trkpt><trkpt lat="43.53016368954738" lon="5.946466050667274"><ele>267.5</ele><time>2026-05-01T13:35:31Z</time></trkpt><trkpt lat="43.530027481724105" lon="5.946434906683612"><ele>266.75</ele><time>2026-05-01T13:35:32Z</time></trkpt><trkpt lat="43.529904163057466" lon="5.946407629621413"><ele>266.0</ele><time>2026-05-01T13:35:33Z</time></trkpt><trkpt lat="43.5297889219065" lon="5.946383914798562"><ele>266.0</ele><time>2026-05-01T13:35:34Z</time></trkpt><trkpt lat="43.529667437833076" lon="5.94635756798853"><ele>266.0</ele><time>2026-05-01T13:35:35Z</time></trkpt><trkpt lat="43.52952454059883" lon="5.946323340089723"><ele>266.0</ele><time>2026-05-01T13:35:36Z</time></trkpt><trkpt lat="43.52937556149745" lon="5.946287994464184"><ele>266.0</ele><time>2026-05-01T13:35:37Z</time></trkpt><trkpt lat="43.529242027690564" lon="5.946259789904969"><ele>265.2</ele><time>2026-05-01T13:35:38Z</time></trkpt><trkpt lat="43.529119123219246" lon="5.9462337149422035"><ele>264.40000000000003</ele><time>2026-05-01T13:35:39Z</time></trkpt><trkpt lat="43.529002811841885" lon="5.946209288481846"><ele>263.6</ele><time>2026-05-01T13:35:40Z</time></trkpt><trkpt lat="43.52890542441796" lon="5.946188385623543"><ele>262.8</ele><time>2026-05-01T13:35:41Z</time></trkpt><trkpt lat="43.528827037188265" lon="5.946169852240477"><ele>262.0</ele><time>2026-05-01T13:35:42Z</time></trkpt><trkpt lat="43.528746260839235" lon="5.946148401553207"><ele>262.4</ele><time>2026-05-01T13:35:43Z</time></trkpt><trkpt lat="43.5286628953251" lon="5.946126871592364"><ele>262.79999999999995</ele><time>2026-05-01T13:35:44Z</time></trkpt><trkpt lat="43.52856563630549" lon="5.946106270556147"><ele>263.2</ele><time>2026-05-01T13:35:45Z</time></trkpt><trkpt lat="43.52846378469613" lon="5.946083890770504"><ele>263.59999999999997</ele><time>2026-05-01T13:35:46Z</time></trkpt><trkpt lat="43.52836374988399" lon="5.946062151585896"><ele>264.0</ele><time>2026-05-01T13:35:47Z</time></trkpt><trkpt lat="43.528273321828294" lon="5.946038843056768"><ele>264.0</ele><time>2026-05-01T13:35:48Z</time></trkpt><trkpt lat="43.52818841323238" lon="5.946019285782446"><ele>264.0</ele><time>2026-05-01T13:35:49Z</time></trkpt><trkpt lat="43.52811653873353" lon="5.945998849764425"><ele>264.0</ele><time>2026-05-01T13:35:50Z</time></trkpt><trkpt lat="43.528047602168215" lon="5.9459805326788135"><ele>264.0</ele><time>2026-05-01T13:35:51Z</time></trkpt><trkpt lat="43.527951321988844" lon="5.945960798853999"><ele>264.0</ele><time>2026-05-01T13:35:53Z</time></trkpt><trkpt lat="43.52788189512672" lon="5.945944437065124"><ele>264.0</ele><time>2026-05-01T13:35:56.001Z</time></trkpt><trkpt lat="43.527813588774215" lon="5.945888099879929"><ele>264.5</ele><time>2026-05-01T13:35:59.001Z</time></trkpt><trkpt lat="43.52776275676454" lon="5.945733098182416"><ele>265.0</ele><time>2026-05-01T13:36:01.001Z</time></trkpt><trkpt lat="43.52772115231962" lon="5.945646367559817"><ele>265.5</ele><time>2026-05-01T13:36:02.001Z</time></trkpt><trkpt lat="43.52767645629649" lon="5.945560213872339"><ele>266.0</ele><time>2026-05-01T13:36:03.001Z</time></trkpt><trkpt lat="43.527633008838926" lon="5.945472763930901"><ele>266.5</ele><time>2026-05-01T13:36:04.001Z</time></trkpt><trkpt lat="43.52759346040281" lon="5.94538326517648"><ele>267.0</ele><time>2026-05-01T13:36:05.001Z</time></trkpt><trkpt lat="43.52755490919281" lon="5.945294286857471"><ele>267.0</ele><time>2026-05-01T13:36:06.001Z</time></trkpt><trkpt lat="43.52751659571626" lon="5.945208070533938"><ele>267.0</ele><time>2026-05-01T13:36:07.001Z</time></trkpt><trkpt lat="43.527480966306406" lon="5.945130110897445"><ele>267.0</ele><time>2026-05-01T13:36:08.001Z</time></trkpt><trkpt lat="43.527420859781" lon="5.944989358286249"><ele>267.0</ele><time>2026-05-01T13:36:10.001Z</time></trkpt><trkpt lat="43.52738343865067" lon="5.944905070422812"><ele>267.0</ele><time>2026-05-01T13:36:11.001Z</time></trkpt><trkpt lat="43.52734042707591" lon="5.944804549661888"><ele>267.0</ele><time>2026-05-01T13:36:12.001Z</time></trkpt><trkpt lat="43.52729898378357" lon="5.944705290754952"><ele>267.0</ele><time>2026-05-01T13:36:13.001Z</time></trkpt><trkpt lat="43.52726266344402" lon="5.94461523469621"><ele>267.0</ele><time>2026-05-01T13:36:14.001Z</time></trkpt><trkpt lat="43.5272244938" lon="5.944534306624158"><ele>267.0</ele><time>2026-05-01T13:36:15.001Z</time></trkpt><trkpt lat="43.527168320556676" lon="5.944421682991919"><ele>267.0</ele><time>2026-05-01T13:36:17.001Z</time></trkpt><trkpt lat="43.52713554357412" lon="5.944314588832776"><ele>267.0</ele><time>2026-05-01T13:36:19.001Z</time></trkpt><trkpt lat="43.5270988549896" lon="5.944234786607043"><ele>267.0</ele><time>2026-05-01T13:36:21.001Z</time></trkpt><trkpt lat="43.52702523481166" lon="5.944101544574737"><ele>266.2</ele><time>2026-05-01T13:36:24.001Z</time></trkpt><trkpt lat="43.526984778888135" lon="5.9439709430331495"><ele>265.4</ele><time>2026-05-01T13:36:25.001Z</time></trkpt><trkpt lat="43.526927264287195" lon="5.9438448165147975"><ele>264.6</ele><time>2026-05-01T13:36:26.001Z</time></trkpt><trkpt lat="43.52686724947684" lon="5.943715005888977"><ele>263.8</ele><time>2026-05-01T13:36:27.001Z</time></trkpt><trkpt lat="43.5267981810369" lon="5.943568682265384"><ele>263.0</ele><time>2026-05-01T13:36:28.001Z</time></trkpt><trkpt lat="43.52672434719112" lon="5.943408203754786"><ele>263.5</ele><time>2026-05-01T13:36:29.001Z</time></trkpt><trkpt lat="43.52664142247173" lon="5.94326705623783"><ele>264.0</ele><time>2026-05-01T13:36:30.001Z</time></trkpt><trkpt lat="43.52659070083832" lon="5.943117721832961"><ele>264.5</ele><time>2026-05-01T13:36:31.001Z</time></trkpt><trkpt lat="43.52652126478648" lon="5.943008985764841"><ele>265.0</ele><time>2026-05-01T13:36:32.001Z</time></trkpt><trkpt lat="43.5264861688089" lon="5.942888733752311"><ele>265.0</ele><time>2026-05-01T13:36:33.001Z</time></trkpt><trkpt lat="43.52642975731025" lon="5.942764189692428"><ele>265.0</ele><time>2026-05-01T13:36:34.001Z</time></trkpt><trkpt lat="43.52636633207722" lon="5.942624160929064"><ele>265.0</ele><time>2026-05-01T13:36:35.001Z</time></trkpt><trkpt lat="43.52629564367662" lon="5.942507506147158"><ele>265.0</ele><time>2026-05-01T13:36:36.001Z</time></trkpt><trkpt lat="43.52624437815003" lon="5.942390485498298"><ele>265.0</ele><time>2026-05-01T13:36:37.001Z</time></trkpt><trkpt lat="43.5262064662309" lon="5.942268446705523"><ele>265.0</ele><time>2026-05-01T13:36:38.001Z</time></trkpt><trkpt lat="43.52613668583721" lon="5.94215200767706"><ele>265.0</ele><time>2026-05-01T13:36:39.001Z</time></trkpt><trkpt lat="43.52607446083546" lon="5.9420013592410825"><ele>265.0</ele><time>2026-05-01T13:36:40.001Z</time></trkpt><trkpt lat="43.52600755480934" lon="5.941867247806686"><ele>265.0</ele><time>2026-05-01T13:36:41.001Z</time></trkpt><trkpt lat="43.525934566233076" lon="5.941744130115728"><ele>265.0</ele><time>2026-05-01T13:36:42.001Z</time></trkpt><trkpt lat="43.525844725654686" lon="5.9416198021004085"><ele>265.0</ele><time>2026-05-01T13:36:43.001Z</time></trkpt><trkpt lat="43.525739486144495" lon="5.941491331028986"><ele>265.0</ele><time>2026-05-01T13:36:44.001Z</time></trkpt><trkpt lat="43.525630180333515" lon="5.941374629021186"><ele>265.0</ele><time>2026-05-01T13:36:45.001Z</time></trkpt><trkpt lat="43.525528777791536" lon="5.941264929666316"><ele>265.0</ele><time>2026-05-01T13:36:46.001Z</time></trkpt><trkpt lat="43.52543181742395" lon="5.941158214739157"><ele>265.0</ele><time>2026-05-01T13:36:47.001Z</time></trkpt><trkpt lat="43.525332850662096" lon="5.941054236867777"><ele>265.0</ele><time>2026-05-01T13:36:48.001Z</time></trkpt><trkpt lat="43.525237157403794" lon="5.940950642669323"><ele>265.0</ele><time>2026-05-01T13:36:49.001Z</time></trkpt><trkpt lat="43.52515007262504" lon="5.940847081158777"><ele>264.6</ele><time>2026-05-01T13:36:50.001Z</time></trkpt><trkpt lat="43.52506755986999" lon="5.9407535270046665"><ele>264.2</ele><time>2026-05-01T13:36:51.001Z</time></trkpt><trkpt lat="43.524971327516326" lon="5.940651252422284"><ele>263.8</ele><time>2026-05-01T13:36:52.001Z</time></trkpt><trkpt lat="43.5248809428725" lon="5.940552824699658"><ele>263.4</ele><time>2026-05-01T13:36:53.001Z</time></trkpt><trkpt lat="43.524803441351494" lon="5.940463973591308"><ele>263.0</ele><time>2026-05-01T13:36:54.001Z</time></trkpt><trkpt lat="43.524728966748604" lon="5.9403679380615895"><ele>263.0</ele><time>2026-05-01T13:36:55.001Z</time></trkpt><trkpt lat="43.52466728713011" lon="5.940268628455364"><ele>263.0</ele><time>2026-05-01T13:36:56.001Z</time></trkpt><trkpt lat="43.52460772277193" lon="5.940167359953305"><ele>263.0</ele><time>2026-05-01T13:36:57.001Z</time></trkpt><trkpt lat="43.524541949229075" lon="5.940087561464774"><ele>263.0</ele><time>2026-05-01T13:36:58.001Z</time></trkpt><trkpt lat="43.52446866220729" lon="5.940030446894452"><ele>263.0</ele><time>2026-05-01T13:36:59.001Z</time></trkpt><trkpt lat="43.52439770629328" lon="5.939982880200413"><ele>263.0</ele><time>2026-05-01T13:37:00.001Z</time></trkpt><trkpt lat="43.52433587899542" lon="5.939926976129113"><ele>263.33333333333337</ele><time>2026-05-01T13:37:01Z</time></trkpt><trkpt lat="43.52426733233427" lon="5.939856158752226"><ele>263.6666666666667</ele><time>2026-05-01T13:37:02Z</time></trkpt><trkpt lat="43.52419880203965" lon="5.939790109178386"><ele>264.0</ele><time>2026-05-01T13:37:03Z</time></trkpt><trkpt lat="43.5241494907531" lon="5.9397139659960025"><ele>264.3333333333333</ele><time>2026-05-01T13:37:04Z</time></trkpt><trkpt lat="43.524058653497626" lon="5.939769270790322"><ele>264.66666666666663</ele><time>2026-05-01T13:37:05Z</time></trkpt><trkpt lat="43.52398285218728" lon="5.939784215993873"><ele>265.0</ele><time>2026-05-01T13:37:06Z</time></trkpt><trkpt lat="43.52389209097321" lon="5.93981350996737"><ele>265.0</ele><time>2026-05-01T13:37:07Z</time></trkpt><trkpt lat="43.523763490065235" lon="5.939853035778405"><ele>265.0</ele><time>2026-05-01T13:37:08Z</time></trkpt><trkpt lat="43.523600703188556" lon="5.939904917850646"><ele>265.0</ele><time>2026-05-01T13:37:09Z</time></trkpt><trkpt lat="43.5234212215434" lon="5.9399687232889935"><ele>265.66666666666663</ele><time>2026-05-01T13:37:10Z</time></trkpt><trkpt lat="43.52323240760251" lon="5.940036583940126"><ele>266.3333333333333</ele><time>2026-05-01T13:37:11Z</time></trkpt><trkpt lat="43.52302322865257" lon="5.940111763717553"><ele>267.0</ele><time>2026-05-01T13:37:12Z</time></trkpt><trkpt lat="43.5228202987077" lon="5.940184697927329"><ele>268.3333333333333</ele><time>2026-05-01T13:37:13Z</time></trkpt><trkpt lat="43.52261995443677" lon="5.940257255911112"><ele>269.66666666666663</ele><time>2026-05-01T13:37:14Z</time></trkpt><trkpt lat="43.522400252662784" lon="5.940335573312115"><ele>271.0</ele><time>2026-05-01T13:37:15Z</time></trkpt><trkpt lat="43.522166886728606" lon="5.940417854002725"><ele>273.3333333333333</ele><time>2026-05-01T13:37:16Z</time></trkpt><trkpt lat="43.52195806889763" lon="5.940491479335392"><ele>275.6666666666667</ele><time>2026-05-01T13:37:17Z</time></trkpt><trkpt lat="43.5217631352925" lon="5.940561366587091"><ele>278.0</ele><time>2026-05-01T13:37:18Z</time></trkpt><trkpt lat="43.521545735674415" lon="5.9406396140857645"><ele>278.0</ele><time>2026-05-01T13:37:19Z</time></trkpt><trkpt lat="43.52133923886081" lon="5.940711277266326"><ele>278.0</ele><time>2026-05-01T13:37:20Z</time></trkpt><trkpt lat="43.521164387691535" lon="5.94077195809123"><ele>278.0</ele><time>2026-05-01T13:37:21Z</time></trkpt><trkpt lat="43.52101482239444" lon="5.940824710337261"><ele>279.6666666666667</ele><time>2026-05-01T13:37:22Z</time></trkpt><trkpt lat="43.52085780345554" lon="5.940880308239513"><ele>281.3333333333333</ele><time>2026-05-01T13:37:23Z</time></trkpt><trkpt lat="43.520691560188695" lon="5.940940342372449"><ele>283.0</ele><time>2026-05-01T13:37:24Z</time></trkpt><trkpt lat="43.52054867744832" lon="5.940994905809081"><ele>283.3333333333333</ele><time>2026-05-01T13:37:25Z</time></trkpt><trkpt lat="43.52042452588604" lon="5.941039564537325"><ele>283.66666666666663</ele><time>2026-05-01T13:37:26Z</time></trkpt><trkpt lat="43.52032890618644" lon="5.9410597734452875"><ele>284.0</ele><time>2026-05-01T13:37:27Z</time></trkpt><trkpt lat="43.520240764930776" lon="5.941077337040101"><ele>284.3333333333333</ele><time>2026-05-01T13:37:28Z</time></trkpt><trkpt lat="43.520183974229134" lon="5.941031922401486"><ele>284.6666666666667</ele><time>2026-05-01T13:37:29Z</time></trkpt><trkpt lat="43.520117485379934" lon="5.941013068380081"><ele>285.0</ele><time>2026-05-01T13:37:30Z</time></trkpt><trkpt lat="43.520037354038394" lon="5.940953722929383"><ele>286.3333333333333</ele><time>2026-05-01T13:37:32Z</time></trkpt><trkpt lat="43.519973519346664" lon="5.9409271229365235"><ele>287.6666666666667</ele><time>2026-05-01T13:38:06.001Z</time></trkpt><trkpt lat="43.519905042044165" lon="5.940904649357294"><ele>289.0</ele><time>2026-05-01T13:38:08.001Z</time></trkpt><trkpt lat="43.51980076740761" lon="5.940833676907571"><ele>290.33333333333337</ele><time>2026-05-01T13:38:10.001Z</time></trkpt><trkpt lat="43.5197198783091" lon="5.9407935110667704"><ele>291.6666666666667</ele><time>2026-05-01T13:38:11.001Z</time></trkpt><trkpt lat="43.51962893223402" lon="5.940759162184448"><ele>293.0</ele><time>2026-05-01T13:38:12.001Z</time></trkpt><trkpt lat="43.51951869024846" lon="5.940739910764556"><ele>295.0</ele><time>2026-05-01T13:38:13.001Z</time></trkpt><trkpt lat="43.519401462449665" lon="5.9407442560953525"><ele>297.0</ele><time>2026-05-01T13:38:14.001Z</time></trkpt><trkpt lat="43.519278779087365" lon="5.9407569225093795"><ele>299.0</ele><time>2026-05-01T13:38:15.001Z</time></trkpt><trkpt lat="43.519154583038656" lon="5.940766122289584"><ele>301.0</ele><time>2026-05-01T13:38:16.001Z</time></trkpt><trkpt lat="43.51903162396983" lon="5.940751723445027"><ele>301.0</ele><time>2026-05-01T13:38:17.001Z</time></trkpt><trkpt lat="43.51889138761087" lon="5.940711151335653"><ele>301.0</ele><time>2026-05-01T13:38:18.001Z</time></trkpt><trkpt lat="43.51877539759553" lon="5.940676895535938"><ele>301.0</ele><time>2026-05-01T13:38:19.001Z</time></trkpt><trkpt lat="43.51866235905832" lon="5.940632207876437"><ele>301.0</ele><time>2026-05-01T13:38:20.001Z</time></trkpt><trkpt lat="43.51855436388585" lon="5.940609831001929"><ele>303.0</ele><time>2026-05-01T13:38:21.001Z</time></trkpt><trkpt lat="43.518448653477186" lon="5.94062334922851"><ele>305.0</ele><time>2026-05-01T13:38:22.001Z</time></trkpt><trkpt lat="43.518327870349744" lon="5.9406756370828875"><ele>307.0</ele><time>2026-05-01T13:38:23.001Z</time></trkpt><trkpt lat="43.5182086262119" lon="5.940741125841895"><ele>309.0</ele><time>2026-05-01T13:38:24.001Z</time></trkpt><trkpt lat="43.51810126707659" lon="5.940818840193952"><ele>309.25</ele><time>2026-05-01T13:38:25.001Z</time></trkpt><trkpt lat="43.51797740237462" lon="5.940908127492343"><ele>309.5</ele><time>2026-05-01T13:38:26.001Z</time></trkpt><trkpt lat="43.517860826080096" lon="5.940995054994359"><ele>309.75</ele><time>2026-05-01T13:38:27.001Z</time></trkpt><trkpt lat="43.517738503669236" lon="5.941082057294795"><ele>310.0</ele><time>2026-05-01T13:38:28.001Z</time></trkpt><trkpt lat="43.517625745705416" lon="5.941168465680538"><ele>311.8</ele><time>2026-05-01T13:38:29.001Z</time></trkpt><trkpt lat="43.517535713457896" lon="5.941245612366287"><ele>313.6</ele><time>2026-05-01T13:38:30.001Z</time></trkpt><trkpt lat="43.51744997879833" lon="5.941320138597017"><ele>315.4</ele><time>2026-05-01T13:38:31.001Z</time></trkpt><trkpt lat="43.517357264284925" lon="5.941372847147948"><ele>317.2</ele><time>2026-05-01T13:38:32.001Z</time></trkpt><trkpt lat="43.517265146555296" lon="5.941418385004717"><ele>319.0</ele><time>2026-05-01T13:38:33.001Z</time></trkpt><trkpt lat="43.51716754830315" lon="5.94145328237831"><ele>320.5</ele><time>2026-05-01T13:38:34.001Z</time></trkpt><trkpt lat="43.51705162083214" lon="5.941449450478167"><ele>322.0</ele><time>2026-05-01T13:38:35.001Z</time></trkpt><trkpt lat="43.516926200552106" lon="5.941457348031544"><ele>323.5</ele><time>2026-05-01T13:38:36.001Z</time></trkpt><trkpt lat="43.51680647762166" lon="5.941453579528255"><ele>325.0</ele><time>2026-05-01T13:38:37.001Z</time></trkpt><trkpt lat="43.51665893842832" lon="5.941458231218372"><ele>325.0</ele><time>2026-05-01T13:38:38.001Z</time></trkpt><trkpt lat="43.516518964931464" lon="5.941460202987387"><ele>325.0</ele><time>2026-05-01T13:38:39.001Z</time></trkpt><trkpt lat="43.51640015972646" lon="5.941468690593754"><ele>325.0</ele><time>2026-05-01T13:38:40.001Z</time></trkpt><trkpt lat="43.516297480597046" lon="5.941466989920497"><ele>325.0</ele><time>2026-05-01T13:38:41.001Z</time></trkpt><trkpt lat="43.516188996228024" lon="5.941449784954466"><ele>326.0</ele><time>2026-05-01T13:38:42.001Z</time></trkpt><trkpt lat="43.516089143935424" lon="5.941436796489817"><ele>327.0</ele><time>2026-05-01T13:38:43.001Z</time></trkpt><trkpt lat="43.51596987969846" lon="5.941416535820997"><ele>328.0</ele><time>2026-05-01T13:38:44.001Z</time></trkpt><trkpt lat="43.515871674305174" lon="5.941367667872194"><ele>329.0</ele><time>2026-05-01T13:38:45.001Z</time></trkpt><trkpt lat="43.51577839823305" lon="5.941326247600641"><ele>330.0</ele><time>2026-05-01T13:38:46.001Z</time></trkpt><trkpt lat="43.51568269204686" lon="5.941333855620137"><ele>330.0</ele><time>2026-05-01T13:38:47.001Z</time></trkpt><trkpt lat="43.5156009269945" lon="5.941383619878604"><ele>330.0</ele><time>2026-05-01T13:38:48.001Z</time></trkpt><trkpt lat="43.515490162249364" lon="5.9414523184789605"><ele>330.0</ele><time>2026-05-01T13:38:49.001Z</time></trkpt><trkpt lat="43.51537219248097" lon="5.941517270713106"><ele>330.0</ele><time>2026-05-01T13:38:50.001Z</time></trkpt><trkpt lat="43.5152769072536" lon="5.941573216851501"><ele>330.0</ele><time>2026-05-01T13:38:51.001Z</time></trkpt><trkpt lat="43.51518578890078" lon="5.941631253016343"><ele>330.3333333333333</ele><time>2026-05-01T13:38:52.001Z</time></trkpt><trkpt lat="43.51510716925138" lon="5.941666436568962"><ele>330.6666666666667</ele><time>2026-05-01T13:38:53.001Z</time></trkpt><trkpt lat="43.51502410971358" lon="5.94166400096216"><ele>331.0</ele><time>2026-05-01T13:38:54.001Z</time></trkpt><trkpt lat="43.514946251856365" lon="5.941644888021616"><ele>331.33333333333337</ele><time>2026-05-01T13:38:55.001Z</time></trkpt><trkpt lat="43.51487643321391" lon="5.941677436649829"><ele>331.6666666666667</ele><time>2026-05-01T13:38:57.001Z</time></trkpt><trkpt lat="43.514861920976855" lon="5.941799542512455"><ele>332.0</ele><time>2026-05-01T13:39:35.001Z</time></trkpt><trkpt lat="43.51486724347203" lon="5.94192332627153"><ele>332.0</ele><time>2026-05-01T13:39:37.001Z</time></trkpt><trkpt lat="43.51486911304074" lon="5.942027534043749"><ele>332.0</ele><time>2026-05-01T13:39:38.001Z</time></trkpt><trkpt lat="43.51486552006632" lon="5.942149767170532"><ele>332.0</ele><time>2026-05-01T13:39:39.001Z</time></trkpt><trkpt lat="43.51485932651853" lon="5.9422879023840505"><ele>332.0</ele><time>2026-05-01T13:39:40.001Z</time></trkpt><trkpt lat="43.51484883339074" lon="5.942428574161295"><ele>332.0</ele><time>2026-05-01T13:39:41.001Z</time></trkpt><trkpt lat="43.514839993274364" lon="5.942541711397601"><ele>332.33333333333337</ele><time>2026-05-01T13:39:42.001Z</time></trkpt><trkpt lat="43.51483341419182" lon="5.942654722005965"><ele>332.6666666666667</ele><time>2026-05-01T13:39:43.001Z</time></trkpt><trkpt lat="43.514835404725446" lon="5.9427618941443665"><ele>333.0</ele><time>2026-05-01T13:39:44.001Z</time></trkpt><trkpt lat="43.514843961166704" lon="5.942866761742318"><ele>333.3333333333333</ele><time>2026-05-01T13:39:45.001Z</time></trkpt><trkpt lat="43.51480470570136" lon="5.942988498687186"><ele>333.66666666666663</ele><time>2026-05-01T13:39:47.001Z</time></trkpt><trkpt lat="43.514742477883765" lon="5.943002826824319"><ele>334.0</ele><time>2026-05-01T13:39:48.001Z</time></trkpt><trkpt lat="43.514654051844474" lon="5.942980277965236"><ele>334.25</ele><time>2026-05-01T13:39:49.001Z</time></trkpt><trkpt lat="43.51453479535374" lon="5.942944798075345"><ele>334.5</ele><time>2026-05-01T13:39:50.001Z</time></trkpt><trkpt lat="43.51441900001216" lon="5.9428798552009665"><ele>334.75</ele><time>2026-05-01T13:39:51.001Z</time></trkpt><trkpt lat="43.514303298500344" lon="5.942808890835382"><ele>335.0</ele><time>2026-05-01T13:39:52.001Z</time></trkpt><trkpt lat="43.51420234494387" lon="5.942769242179864"><ele>335.0</ele><time>2026-05-01T13:39:53.001Z</time></trkpt><trkpt lat="43.51410140935428" lon="5.9427794581493165"><ele>335.0</ele><time>2026-05-01T13:39:54.001Z</time></trkpt><trkpt lat="43.51400524043401" lon="5.942825571760687"><ele>335.0</ele><time>2026-05-01T13:39:55.001Z</time></trkpt><trkpt lat="43.513900907773554" lon="5.94288356933849"><ele>335.0</ele><time>2026-05-01T13:39:56.001Z</time></trkpt><trkpt lat="43.51378956221064" lon="5.942915363998016"><ele>335.0</ele><time>2026-05-01T13:39:57.001Z</time></trkpt><trkpt lat="43.51366029782677" lon="5.94289559820076"><ele>333.25</ele><time>2026-05-01T13:39:58.001Z</time></trkpt><trkpt lat="43.5135079998352" lon="5.942886391107322"><ele>331.5</ele><time>2026-05-01T13:39:59.001Z</time></trkpt><trkpt lat="43.51336536123578" lon="5.942855758817443"><ele>329.75</ele><time>2026-05-01T13:40:00.001Z</time></trkpt><trkpt lat="43.51325760119047" lon="5.9428138873895"><ele>328.0</ele><time>2026-05-01T13:40:01.001Z</time></trkpt><trkpt lat="43.51314949735655" lon="5.942760411094703"><ele>328.0</ele><time>2026-05-01T13:40:02.001Z</time></trkpt><trkpt lat="43.51304963509956" lon="5.94270405646929"><ele>328.0</ele><time>2026-05-01T13:40:03.001Z</time></trkpt><trkpt lat="43.512950679514056" lon="5.94263930308588"><ele>328.0</ele><time>2026-05-01T13:40:04.001Z</time></trkpt><trkpt lat="43.51284403323078" lon="5.9425987806031575"><ele>328.0</ele><time>2026-05-01T13:40:05.001Z</time></trkpt><trkpt lat="43.512721589347365" lon="5.942599176802758"><ele>328.16666666666663</ele><time>2026-05-01T13:40:06.001Z</time></trkpt><trkpt lat="43.51261238390539" lon="5.942614198820021"><ele>328.3333333333333</ele><time>2026-05-01T13:40:07.001Z</time></trkpt><trkpt lat="43.51253033048687" lon="5.942630525103902"><ele>328.5</ele><time>2026-05-01T13:40:08.001Z</time></trkpt><trkpt lat="43.51246067350253" lon="5.942665794971935"><ele>328.6666666666667</ele><time>2026-05-01T13:40:09.001Z</time></trkpt><trkpt lat="43.512404075132416" lon="5.942730268918488"><ele>328.83333333333337</ele><time>2026-05-01T13:40:10.001Z</time></trkpt><trkpt lat="43.512350706754816" lon="5.94282637985389"><ele>329.0</ele><time>2026-05-01T13:40:11.001Z</time></trkpt><trkpt lat="43.51229882851723" lon="5.94290254162029"><ele>329.0</ele><time>2026-05-01T13:40:12.001Z</time></trkpt><trkpt lat="43.51222330846826" lon="5.942911899984675"><ele>329.0</ele><time>2026-05-01T13:40:14.001Z</time></trkpt><trkpt lat="43.51214948161859" lon="5.942874334933974"><ele>329.0</ele><time>2026-05-01T13:40:15.001Z</time></trkpt><trkpt lat="43.512079938943145" lon="5.942754054179679"><ele>329.0</ele><time>2026-05-01T13:40:16.001Z</time></trkpt><trkpt lat="43.51202333654166" lon="5.942613625209406"><ele>329.0</ele><time>2026-05-01T13:40:17.001Z</time></trkpt><trkpt lat="43.51196227283793" lon="5.942485281767261"><ele>330.5</ele><time>2026-05-01T13:40:18.001Z</time></trkpt><trkpt lat="43.51188112001926" lon="5.942353681493803"><ele>332.0</ele><time>2026-05-01T13:40:19.001Z</time></trkpt><trkpt lat="43.511781149816386" lon="5.9422280530117035"><ele>333.5</ele><time>2026-05-01T13:40:20.001Z</time></trkpt><trkpt lat="43.51168265890255" lon="5.942120404963005"><ele>335.0</ele><time>2026-05-01T13:40:21.001Z</time></trkpt><trkpt lat="43.51158656135131" lon="5.942026142103476"><ele>335.0</ele><time>2026-05-01T13:40:22.001Z</time></trkpt><trkpt lat="43.51148907968874" lon="5.941966111730163"><ele>335.0</ele><time>2026-05-01T13:40:23.001Z</time></trkpt><trkpt lat="43.511362438427966" lon="5.941912643496915"><ele>335.0</ele><time>2026-05-01T13:40:24.001Z</time></trkpt><trkpt lat="43.51121098542129" lon="5.941867014632838"><ele>335.0</ele><time>2026-05-01T13:40:25.001Z</time></trkpt><trkpt lat="43.5110599570859" lon="5.941808045453333"><ele>334.5</ele><time>2026-05-01T13:40:26.001Z</time></trkpt><trkpt lat="43.51092567556531" lon="5.941761656526861"><ele>334.0</ele><time>2026-05-01T13:40:27.001Z</time></trkpt><trkpt lat="43.51080652708166" lon="5.941711162098039"><ele>333.5</ele><time>2026-05-01T13:40:28.001Z</time></trkpt><trkpt lat="43.51067179783144" lon="5.94166483974969"><ele>333.0</ele><time>2026-05-01T13:40:29.001Z</time></trkpt><trkpt lat="43.510545321776334" lon="5.941623828038776"><ele>332.5</ele><time>2026-05-01T13:40:30.001Z</time></trkpt><trkpt lat="43.510419214457606" lon="5.941582217355555"><ele>332.0</ele><time>2026-05-01T13:40:31.001Z</time></trkpt><trkpt lat="43.51031009356422" lon="5.94154402587043"><ele>331.5</ele><time>2026-05-01T13:40:32.001Z</time></trkpt><trkpt lat="43.510215114584945" lon="5.941489306982267"><ele>331.0</ele><time>2026-05-01T13:40:33.001Z</time></trkpt><trkpt lat="43.51010380408872" lon="5.941398592027243"><ele>330.5</ele><time>2026-05-01T13:40:34.001Z</time></trkpt><trkpt lat="43.51000314123216" lon="5.9412983910754615"><ele>330.0</ele><time>2026-05-01T13:40:35.001Z</time></trkpt><trkpt lat="43.50990091562368" lon="5.941178501885388"><ele>329.5</ele><time>2026-05-01T13:40:36.001Z</time></trkpt><trkpt lat="43.50980908708272" lon="5.941018934496976"><ele>329.0</ele><time>2026-05-01T13:40:37.001Z</time></trkpt><trkpt lat="43.509738246925416" lon="5.940871610282698"><ele>329.0</ele><time>2026-05-01T13:40:38.001Z</time></trkpt><trkpt lat="43.50966421210113" lon="5.940729085299996"><ele>329.0</ele><time>2026-05-01T13:40:39.001Z</time></trkpt><trkpt lat="43.50957385759883" lon="5.94059522391153"><ele>329.0</ele><time>2026-05-01T13:40:40.001Z</time></trkpt><trkpt lat="43.50948464022598" lon="5.940454383880237"><ele>329.0</ele><time>2026-05-01T13:40:41.001Z</time></trkpt><trkpt lat="43.509403177916475" lon="5.940326204215109"><ele>328.75</ele><time>2026-05-01T13:40:42.001Z</time></trkpt><trkpt lat="43.50931081018063" lon="5.9401906590557445"><ele>328.5</ele><time>2026-05-01T13:40:43.001Z</time></trkpt><trkpt lat="43.50921530806119" lon="5.940046565021089"><ele>328.25</ele><time>2026-05-01T13:40:44.001Z</time></trkpt><trkpt lat="43.50913763945243" lon="5.939910223526392"><ele>328.0</ele><time>2026-05-01T13:40:45.001Z</time></trkpt><trkpt lat="43.50908155335675" lon="5.939765180454356"><ele>328.0</ele><time>2026-05-01T13:40:46.001Z</time></trkpt><trkpt lat="43.509036566062605" lon="5.9396349022782156"><ele>328.0</ele><time>2026-05-01T13:40:47.001Z</time></trkpt><trkpt lat="43.50898787098112" lon="5.939482748903455"><ele>328.0</ele><time>2026-05-01T13:40:48.001Z</time></trkpt><trkpt lat="43.50893606673372" lon="5.939330155574453"><ele>328.0</ele><time>2026-05-01T13:40:49.001Z</time></trkpt><trkpt lat="43.508871129691435" lon="5.93919054278982"><ele>328.25</ele><time>2026-05-01T13:40:50.001Z</time></trkpt><trkpt lat="43.508771437587015" lon="5.939056816641525"><ele>328.5</ele><time>2026-05-01T13:40:51.001Z</time></trkpt><trkpt lat="43.508661940188354" lon="5.938920617952413"><ele>328.75</ele><time>2026-05-01T13:40:52.001Z</time></trkpt><trkpt lat="43.50857243529115" lon="5.938803661000993"><ele>329.0</ele><time>2026-05-01T13:40:53.001Z</time></trkpt><trkpt lat="43.50847119624622" lon="5.938703716265385"><ele>329.75</ele><time>2026-05-01T13:40:54.001Z</time></trkpt><trkpt lat="43.50836940100885" lon="5.9386028101628385"><ele>330.5</ele><time>2026-05-01T13:40:55.001Z</time></trkpt><trkpt lat="43.50826735643208" lon="5.938471713977813"><ele>331.25</ele><time>2026-05-01T13:40:56.001Z</time></trkpt><trkpt lat="43.50816233326057" lon="5.93829983175281"><ele>332.0</ele><time>2026-05-01T13:40:57.001Z</time></trkpt><trkpt lat="43.50806004584639" lon="5.938133639831266"><ele>332.25</ele><time>2026-05-01T13:40:58.001Z</time></trkpt><trkpt lat="43.50795337903437" lon="5.937989344218809"><ele>332.5</ele><time>2026-05-01T13:40:59.001Z</time></trkpt><trkpt lat="43.50784406225677" lon="5.93785663990812"><ele>332.75</ele><time>2026-05-01T13:41:00.001Z</time></trkpt><trkpt lat="43.507744448260375" lon="5.937730997722889"><ele>333.0</ele><time>2026-05-01T13:41:01.001Z</time></trkpt><trkpt lat="43.50765048710898" lon="5.93759626521324"><ele>333.4</ele><time>2026-05-01T13:41:02.001Z</time></trkpt><trkpt lat="43.50757459818615" lon="5.9374686279147335"><ele>333.79999999999995</ele><time>2026-05-01T13:41:03.001Z</time></trkpt><trkpt lat="43.50751622882975" lon="5.937350459826205"><ele>334.2</ele><time>2026-05-01T13:41:04.001Z</time></trkpt><trkpt lat="43.507457151303214" lon="5.937241144989602"><ele>334.6</ele><time>2026-05-01T13:41:05.001Z</time></trkpt><trkpt lat="43.50741152174123" lon="5.937164065419288"><ele>335.0</ele><time>2026-05-01T13:41:06.001Z</time></trkpt><trkpt lat="43.50735602236448" lon="5.937084699657194"><ele>335.0</ele><time>2026-05-01T13:41:08.001Z</time></trkpt><trkpt lat="43.507243184470504" lon="5.937107858709979"><ele>335.0</ele><time>2026-05-01T13:41:11.001Z</time></trkpt><trkpt lat="43.50716161207137" lon="5.9370556170195306"><ele>335.0</ele><time>2026-05-01T13:41:13.001Z</time></trkpt><trkpt lat="43.50709508310347" lon="5.936994700425326"><ele>335.0</ele><time>2026-05-01T13:41:15.001Z</time></trkpt><trkpt lat="43.50702429704308" lon="5.93697212345731"><ele>335.0</ele><time>2026-05-01T13:41:16.001Z</time></trkpt><trkpt lat="43.50693740937781" lon="5.936949691980622"><ele>335.0</ele><time>2026-05-01T13:41:17.001Z</time></trkpt><trkpt lat="43.506854244184055" lon="5.9369545211803265"><ele>335.83333333333337</ele><time>2026-05-01T13:41:18Z</time></trkpt><trkpt lat="43.50678475577998" lon="5.936986209753958"><ele>336.6666666666667</ele><time>2026-05-01T13:41:19Z</time></trkpt><trkpt lat="43.50666833923493" lon="5.937020348940386"><ele>337.5</ele><time>2026-05-01T13:41:21Z</time></trkpt><trkpt lat="43.506619809282746" lon="5.93707977274878"><ele>338.3333333333333</ele><time>2026-05-01T13:41:22Z</time></trkpt><trkpt lat="43.50657028661871" lon="5.937156997655697"><ele>339.16666666666663</ele><time>2026-05-01T13:41:23Z</time></trkpt><trkpt lat="43.50651744420307" lon="5.937211446034477"><ele>340.0</ele><time>2026-05-01T13:41:24Z</time></trkpt><trkpt lat="43.50645499358468" lon="5.937230315393829"><ele>340.0</ele><time>2026-05-01T13:41:25Z</time></trkpt><trkpt lat="43.50637245177181" lon="5.937238173680062"><ele>340.0</ele><time>2026-05-01T13:41:26Z</time></trkpt><trkpt lat="43.50627384014389" lon="5.937215342802624"><ele>340.0</ele><time>2026-05-01T13:41:27.001Z</time></trkpt><trkpt lat="43.506158224882384" lon="5.937188033894099"><ele>340.0</ele><time>2026-05-01T13:41:28.001Z</time></trkpt><trkpt lat="43.50602727986099" lon="5.937187723870422"><ele>340.0</ele><time>2026-05-01T13:41:29.001Z</time></trkpt><trkpt lat="43.50592458062146" lon="5.937192679077417"><ele>340.66666666666663</ele><time>2026-05-01T13:41:30.001Z</time></trkpt><trkpt lat="43.505841891925286" lon="5.937203692508073"><ele>341.3333333333333</ele><time>2026-05-01T13:41:31.001Z</time></trkpt><trkpt lat="43.505773194744656" lon="5.937231531504442"><ele>342.0</ele><time>2026-05-01T13:41:32.001Z</time></trkpt><trkpt lat="43.50568424860085" lon="5.937302681298732"><ele>342.6666666666667</ele><time>2026-05-01T13:41:33.001Z</time></trkpt><trkpt lat="43.505600988460195" lon="5.937374465215429"><ele>343.33333333333337</ele><time>2026-05-01T13:41:34.001Z</time></trkpt><trkpt lat="43.5055359210398" lon="5.93741856217136"><ele>344.0</ele><time>2026-05-01T13:41:35.001Z</time></trkpt><trkpt lat="43.50546662658783" lon="5.937464031371354"><ele>344.2</ele><time>2026-05-01T13:41:37.001Z</time></trkpt><trkpt lat="43.50540025249797" lon="5.937476681868339"><ele>344.4</ele><time>2026-05-01T13:42:11.001Z</time></trkpt><trkpt lat="43.50530551334432" lon="5.93742371912901"><ele>344.6</ele><time>2026-05-01T13:42:13.001Z</time></trkpt><trkpt lat="43.50517189263977" lon="5.937389213385247"><ele>344.8</ele><time>2026-05-01T13:42:15.001Z</time></trkpt><trkpt lat="43.50503511046479" lon="5.937401043784816"><ele>345.0</ele><time>2026-05-01T13:42:16.001Z</time></trkpt><trkpt lat="43.50492127043499" lon="5.937400855610745"><ele>345.0</ele><time>2026-05-01T13:42:17.001Z</time></trkpt><trkpt lat="43.50483107133588" lon="5.937395644705813"><ele>345.0</ele><time>2026-05-01T13:42:18.001Z</time></trkpt><trkpt lat="43.504738709802126" lon="5.9374054103277905"><ele>345.0</ele><time>2026-05-01T13:42:19.001Z</time></trkpt><trkpt lat="43.50464974691366" lon="5.93742964779557"><ele>345.0</ele><time>2026-05-01T13:42:20.001Z</time></trkpt><trkpt lat="43.5045812227419" lon="5.937458423514565"><ele>345.0</ele><time>2026-05-01T13:42:21.001Z</time></trkpt><trkpt lat="43.504520993311054" lon="5.937509030258338"><ele>345.0</ele><time>2026-05-01T13:42:22.001Z</time></trkpt><trkpt lat="43.50439445349458" lon="5.937614926239679"><ele>345.2</ele><time>2026-05-01T13:42:24.001Z</time></trkpt><trkpt lat="43.50431633789524" lon="5.937677659081735"><ele>345.4</ele><time>2026-05-01T13:42:25.001Z</time></trkpt><trkpt lat="43.50424120088079" lon="5.93775859338299"><ele>345.6</ele><time>2026-05-01T13:42:26.001Z</time></trkpt><trkpt lat="43.50418173126498" lon="5.9378659509491545"><ele>345.8</ele><time>2026-05-01T13:42:27.001Z</time></trkpt><trkpt lat="43.504127989698425" lon="5.937966246650349"><ele>346.0</ele><time>2026-05-01T13:42:28.001Z</time></trkpt><trkpt lat="43.504090844456876" lon="5.938072677947679"><ele>346.0</ele><time>2026-05-01T13:42:29.001Z</time></trkpt><trkpt lat="43.50406058460561" lon="5.938156537800741"><ele>346.0</ele><time>2026-05-01T13:42:30.001Z</time></trkpt><trkpt lat="43.5040018531436" lon="5.938217809221415"><ele>346.0</ele><time>2026-05-01T13:42:31.001Z</time></trkpt><trkpt lat="43.50391392369208" lon="5.93828191804427"><ele>346.0</ele><time>2026-05-01T13:42:32.001Z</time></trkpt><trkpt lat="43.503841307016025" lon="5.938349574300391"><ele>346.0</ele><time>2026-05-01T13:42:33.001Z</time></trkpt><trkpt lat="43.50378462350027" lon="5.938417219933786"><ele>346.0</ele><time>2026-05-01T13:42:34.001Z</time></trkpt><trkpt lat="43.50373095280279" lon="5.938468719169393"><ele>346.3333333333333</ele><time>2026-05-01T13:42:35.001Z</time></trkpt><trkpt lat="43.50366933035292" lon="5.938627514827763"><ele>346.66666666666663</ele><time>2026-05-01T13:42:37.001Z</time></trkpt><trkpt lat="43.50365035186113" lon="5.938753734967004"><ele>347.0</ele><time>2026-05-01T13:42:38.001Z</time></trkpt><trkpt lat="43.50363838301818" lon="5.938854730385587"><ele>347.3333333333333</ele><time>2026-05-01T13:42:39.001Z</time></trkpt><trkpt lat="43.503619469547374" lon="5.938939264066496"><ele>347.6666666666667</ele><time>2026-05-01T13:42:40.001Z</time></trkpt><trkpt lat="43.5035737054447" lon="5.939006765479031"><ele>348.0</ele><time>2026-05-01T13:42:41.001Z</time></trkpt><trkpt lat="43.50349432088914" lon="5.939079515848829"><ele>348.0</ele><time>2026-05-01T13:42:42.001Z</time></trkpt><trkpt lat="43.503431947712905" lon="5.939163128697971"><ele>348.0</ele><time>2026-05-01T13:42:43.001Z</time></trkpt><trkpt lat="43.503370578081416" lon="5.939297496132732"><ele>348.0</ele><time>2026-05-01T13:42:44.001Z</time></trkpt><trkpt lat="43.50327471201007" lon="5.939486290658603"><ele>348.0</ele><time>2026-05-01T13:42:45.001Z</time></trkpt><trkpt lat="43.5031973621991" lon="5.939640411274242"><ele>349.0</ele><time>2026-05-01T13:42:46.001Z</time></trkpt><trkpt lat="43.50312216366861" lon="5.939755420635325"><ele>350.0</ele><time>2026-05-01T13:42:47.001Z</time></trkpt><trkpt lat="43.50303754833907" lon="5.9398717738453355"><ele>351.0</ele><time>2026-05-01T13:42:48.001Z</time></trkpt><trkpt lat="43.50297735754834" lon="5.939968779335504"><ele>352.0</ele><time>2026-05-01T13:42:49.001Z</time></trkpt><trkpt lat="43.50290540030379" lon="5.940036336258483"><ele>353.0</ele><time>2026-05-01T13:42:50.001Z</time></trkpt><trkpt lat="43.502812650159555" lon="5.940096410416255"><ele>353.2</ele><time>2026-05-01T13:42:51.001Z</time></trkpt><trkpt lat="43.502717170028504" lon="5.94017861926868"><ele>353.4</ele><time>2026-05-01T13:42:52.001Z</time></trkpt><trkpt lat="43.50263509076297" lon="5.940249327473653"><ele>353.59999999999997</ele><time>2026-05-01T13:42:53.001Z</time></trkpt><trkpt lat="43.50254110225945" lon="5.940298603561468"><ele>353.79999999999995</ele><time>2026-05-01T13:42:54.001Z</time></trkpt><trkpt lat="43.50242301026807" lon="5.940348268198172"><ele>354.0</ele><time>2026-05-01T13:42:55.001Z</time></trkpt><trkpt lat="43.50231244489558" lon="5.940415758400618"><ele>354.0</ele><time>2026-05-01T13:42:56.001Z</time></trkpt><trkpt lat="43.50224072878823" lon="5.940483901125984"><ele>354.0</ele><time>2026-05-01T13:42:57.001Z</time></trkpt><trkpt lat="43.50217703425864" lon="5.940523505851354"><ele>354.0</ele><time>2026-05-01T13:42:58.001Z</time></trkpt><trkpt lat="43.50210452247983" lon="5.940523733477829"><ele>354.0</ele><time>2026-05-01T13:42:59.001Z</time></trkpt><trkpt lat="43.50203426001499" lon="5.940519702940173"><ele>354.0</ele><time>2026-05-01T13:43:00.001Z</time></trkpt><trkpt lat="43.501938508642475" lon="5.9405205262407215"><ele>354.0</ele><time>2026-05-01T13:43:01.001Z</time></trkpt><trkpt lat="43.501835588696686" lon="5.940542846329225"><ele>354.2</ele><time>2026-05-01T13:43:02.001Z</time></trkpt><trkpt lat="43.50171804532725" lon="5.940567705687242"><ele>354.4</ele><time>2026-05-01T13:43:03.001Z</time></trkpt><trkpt lat="43.50160686553797" lon="5.940586643129458"><ele>354.6</ele><time>2026-05-01T13:43:04.001Z</time></trkpt><trkpt lat="43.50150752258911" lon="5.940602702730133"><ele>354.8</ele><time>2026-05-01T13:43:05.001Z</time></trkpt><trkpt lat="43.501437743405496" lon="5.940624793896653"><ele>355.0</ele><time>2026-05-01T13:43:06.001Z</time></trkpt><trkpt lat="43.501359567284" lon="5.940680489339827"><ele>355.0</ele><time>2026-05-01T13:43:07.001Z</time></trkpt><trkpt lat="43.50127533779169" lon="5.940724528608796"><ele>355.0</ele><time>2026-05-01T13:43:08.001Z</time></trkpt><trkpt lat="43.50118296864255" lon="5.940740891220036"><ele>355.0</ele><time>2026-05-01T13:43:09.001Z</time></trkpt><trkpt lat="43.501070056158106" lon="5.94074549384764"><ele>355.0</ele><time>2026-05-01T13:43:10.001Z</time></trkpt><trkpt lat="43.50093988426322" lon="5.94078029429051"><ele>355.0</ele><time>2026-05-01T13:43:11.001Z</time></trkpt><trkpt lat="43.500839354600984" lon="5.940802894850603"><ele>355.6</ele><time>2026-05-01T13:43:12.001Z</time></trkpt><trkpt lat="43.500737736849686" lon="5.9407935676175"><ele>356.2</ele><time>2026-05-01T13:43:13.001Z</time></trkpt><trkpt lat="43.500652344775645" lon="5.940791201235805"><ele>356.79999999999995</ele><time>2026-05-01T13:43:14.001Z</time></trkpt><trkpt lat="43.50055765734036" lon="5.940830965924468"><ele>357.4</ele><time>2026-05-01T13:43:15.001Z</time></trkpt><trkpt lat="43.50045723044497" lon="5.940882671648674"><ele>358.0</ele><time>2026-05-01T13:43:16.001Z</time></trkpt><trkpt lat="43.50034229507639" lon="5.940910840627712"><ele>356.0</ele><time>2026-05-01T13:43:17.001Z</time></trkpt><trkpt lat="43.50022849404301" lon="5.940910873289097"><ele>354.0</ele><time>2026-05-01T13:43:18.001Z</time></trkpt><trkpt lat="43.50014002064463" lon="5.940908326660623"><ele>352.0</ele><time>2026-05-01T13:43:19.001Z</time></trkpt><trkpt lat="43.500032090504504" lon="5.9409067533667015"><ele>350.0</ele><time>2026-05-01T13:43:21.001Z</time></trkpt><trkpt lat="43.499967488762515" lon="5.9409473852499035"><ele>348.0</ele><time>2026-05-01T13:43:22.001Z</time></trkpt><trkpt lat="43.499885424950875" lon="5.941003637838536"><ele>348.0</ele><time>2026-05-01T13:43:23.001Z</time></trkpt><trkpt lat="43.49980154494132" lon="5.941053450619716"><ele>348.0</ele><time>2026-05-01T13:43:24.001Z</time></trkpt><trkpt lat="43.49971052761189" lon="5.941074430368372"><ele>348.0</ele><time>2026-05-01T13:43:25.001Z</time></trkpt><trkpt lat="43.49964059263364" lon="5.941074969360262"><ele>348.0</ele><time>2026-05-01T13:43:26.001Z</time></trkpt><trkpt lat="43.49962088040502" lon="5.941161330995285"><ele>348.0</ele><time>2026-05-01T13:43:29.001Z</time></trkpt><trkpt lat="43.499572768338304" lon="5.9412381526120335"><ele>348.0</ele><time>2026-05-01T13:43:39Z</time></trkpt><trkpt lat="43.499526085405" lon="5.9413367976934275"><ele>348.0</ele><time>2026-05-01T13:43:41Z</time></trkpt><trkpt lat="43.499393836405126" lon="5.941380045189535"><ele>348.0</ele><time>2026-05-01T13:43:43Z</time></trkpt><trkpt lat="43.499333840454995" lon="5.941416352272168"><ele>348.0</ele><time>2026-05-01T13:43:44Z</time></trkpt><trkpt lat="43.49926206832634" lon="5.941527888289674"><ele>348.0</ele><time>2026-05-01T13:43:46Z</time></trkpt><trkpt lat="43.499163329090145" lon="5.941613678882838"><ele>348.0</ele><time>2026-05-01T13:43:48Z</time></trkpt><trkpt lat="43.499091658195596" lon="5.941629293518563"><ele>348.0</ele><time>2026-05-01T13:43:49Z</time></trkpt><trkpt lat="43.49899939540224" lon="5.94166503783121"><ele>348.0</ele><time>2026-05-01T13:43:50Z</time></trkpt><trkpt lat="43.498916084588295" lon="5.941686867476996"><ele>348.0</ele><time>2026-05-01T13:43:51Z</time></trkpt><trkpt lat="43.49884137182307" lon="5.941691768707023"><ele>348.0</ele><time>2026-05-01T13:43:52Z</time></trkpt><trkpt lat="43.49877559167021" lon="5.941700417338299"><ele>348.0</ele><time>2026-05-01T13:43:53Z</time></trkpt><trkpt lat="43.49871340039475" lon="5.941737324683054"><ele>348.0</ele><time>2026-05-01T13:43:54Z</time></trkpt><trkpt lat="43.498652400502024" lon="5.941785359735172"><ele>345.79999999999995</ele><time>2026-05-01T13:43:55Z</time></trkpt><trkpt lat="43.49855524678321" lon="5.941794990234901"><ele>343.6</ele><time>2026-05-01T13:43:57Z</time></trkpt><trkpt lat="43.4984695673658" lon="5.941858197354778"><ele>341.4</ele><time>2026-05-01T13:43:59Z</time></trkpt><trkpt lat="43.49837436160419" lon="5.941899387036435"><ele>339.20000000000005</ele><time>2026-05-01T13:44:00.999Z</time></trkpt><trkpt lat="43.498277308825095" lon="5.941896957773962"><ele>337.0</ele><time>2026-05-01T13:44:02.999Z</time></trkpt><trkpt lat="43.498210762769865" lon="5.941875848566422"><ele>337.0</ele><time>2026-05-01T13:44:03.999Z</time></trkpt><trkpt lat="43.498140479143785" lon="5.941875160899423"><ele>337.0</ele><time>2026-05-01T13:44:04.999Z</time></trkpt><trkpt lat="43.49805917010556" lon="5.941901466367757"><ele>337.0</ele><time>2026-05-01T13:44:05.999Z</time></trkpt><trkpt lat="43.49797687317608" lon="5.941934550328773"><ele>337.0</ele><time>2026-05-01T13:44:06.999Z</time></trkpt><trkpt lat="43.497900019287655" lon="5.941954187018669"><ele>337.0</ele><time>2026-05-01T13:44:07.999Z</time></trkpt><trkpt lat="43.497833067350804" lon="5.941975757708131"><ele>337.0</ele><time>2026-05-01T13:44:08.999Z</time></trkpt><trkpt lat="43.497778185867354" lon="5.942028891787598"><ele>337.3333333333333</ele><time>2026-05-01T13:44:09.999Z</time></trkpt><trkpt lat="43.49769779455384" lon="5.942112396138028"><ele>337.66666666666663</ele><time>2026-05-01T13:44:10.999Z</time></trkpt><trkpt lat="43.49763720054467" lon="5.942195726898774"><ele>338.0</ele><time>2026-05-01T13:44:11.999Z</time></trkpt><trkpt lat="43.49759473524669" lon="5.942277346692043"><ele>338.3333333333333</ele><time>2026-05-01T13:44:12.999Z</time></trkpt><trkpt lat="43.49754168619836" lon="5.94233196891449"><ele>338.6666666666667</ele><time>2026-05-01T13:44:13.999Z</time></trkpt><trkpt lat="43.497482082249164" lon="5.942368158605522"><ele>339.0</ele><time>2026-05-01T13:44:14.999Z</time></trkpt><trkpt lat="43.497444190992205" lon="5.942471153063756"><ele>336.4</ele><time>2026-05-01T13:44:16.999Z</time></trkpt><trkpt lat="43.49734702999387" lon="5.942569162088805"><ele>333.79999999999995</ele><time>2026-05-01T13:44:19.999Z</time></trkpt><trkpt lat="43.497287525862724" lon="5.942603639626519"><ele>331.20000000000005</ele><time>2026-05-01T13:44:20.999Z</time></trkpt><trkpt lat="43.497253769041485" lon="5.9427297384258395"><ele>328.6</ele><time>2026-05-01T13:44:22.999Z</time></trkpt><trkpt lat="43.497203837771096" lon="5.942853696579199"><ele>326.0</ele><time>2026-05-01T13:44:24.999Z</time></trkpt><trkpt lat="43.497172281885064" lon="5.942998426355585"><ele>326.0</ele><time>2026-05-01T13:44:26.999Z</time></trkpt><trkpt lat="43.49715199169214" lon="5.943094682872215"><ele>326.0</ele><time>2026-05-01T13:44:28.999Z</time></trkpt><trkpt lat="43.497124794805735" lon="5.943239391620126"><ele>326.0</ele><time>2026-05-01T13:44:30.999Z</time></trkpt><trkpt lat="43.49707451800315" lon="5.943365028436914"><ele>326.0</ele><time>2026-05-01T13:44:32.999Z</time></trkpt><trkpt lat="43.4970635207038" lon="5.943461085941326"><ele>326.0</ele><time>2026-05-01T13:44:33.999Z</time></trkpt><trkpt lat="43.49705105588044" lon="5.943596342092255"><ele>324.6666666666667</ele><time>2026-05-01T13:44:35.999Z</time></trkpt><trkpt lat="43.497099455697544" lon="5.943684428838409"><ele>323.33333333333337</ele><time>2026-05-01T13:44:38.999Z</time></trkpt><trkpt lat="43.49707493393502" lon="5.943822950752498"><ele>322.0</ele><time>2026-05-01T13:44:40.999Z</time></trkpt><trkpt lat="43.497028493311106" lon="5.943971555729419"><ele>320.6666666666667</ele><time>2026-05-01T13:44:42.999Z</time></trkpt><trkpt lat="43.49699106588425" lon="5.944068575849505"><ele>319.3333333333333</ele><time>2026-05-01T13:44:44.999Z</time></trkpt><trkpt lat="43.49694433472164" lon="5.944126997557992"><ele>318.0</ele><time>2026-05-01T13:50:11.001Z</time></trkpt><trkpt lat="43.49688372788127" lon="5.944160422830529"><ele>317.4285714285714</ele><time>2026-05-01T13:50:42Z</time></trkpt><trkpt lat="43.496858116096796" lon="5.944241567659613"><ele>316.8571428571429</ele><time>2026-05-01T13:50:44Z</time></trkpt><trkpt lat="43.496788249768066" lon="5.944196954731589"><ele>316.2857142857143</ele><time>2026-05-01T13:50:47Z</time></trkpt><trkpt lat="43.49671099555612" lon="5.944172859642583"><ele>315.71428571428567</ele><time>2026-05-01T13:50:52Z</time></trkpt><trkpt lat="43.49669083566728" lon="5.944085711603152"><ele>315.1428571428571</ele><time>2026-05-01T13:50:56Z</time></trkpt><trkpt lat="43.496623727649556" lon="5.944094040913838"><ele>314.57142857142856</ele><time>2026-05-01T13:50:59Z</time></trkpt><trkpt lat="43.496574755849245" lon="5.944148612464442"><ele>314.0</ele><time>2026-05-01T13:51:01Z</time></trkpt><trkpt lat="43.496511063209226" lon="5.944179843342594"><ele>313.33333333333337</ele><time>2026-05-01T13:51:03Z</time></trkpt><trkpt lat="43.49645713088353" lon="5.9442275412032"><ele>312.6666666666667</ele><time>2026-05-01T13:51:05Z</time></trkpt><trkpt lat="43.49638571225686" lon="5.94424029814933"><ele>312.0</ele><time>2026-05-01T13:51:08Z</time></trkpt><trkpt lat="43.49633584310081" lon="5.944295002012442"><ele>311.3333333333333</ele><time>2026-05-01T13:51:10Z</time></trkpt><trkpt lat="43.49626524656911" lon="5.944336267840304"><ele>310.66666666666663</ele><time>2026-05-01T13:51:13Z</time></trkpt><trkpt lat="43.49617244580047" lon="5.944364329772634"><ele>310.0</ele><time>2026-05-01T13:51:17Z</time></trkpt><trkpt lat="43.49610598401383" lon="5.944439190657448"><ele>307.2857142857143</ele><time>2026-05-01T13:51:19Z</time></trkpt><trkpt lat="43.49605038847463" lon="5.944499485532856"><ele>304.57142857142856</ele><time>2026-05-01T13:51:25Z</time></trkpt><trkpt lat="43.49597841315654" lon="5.944525208382205"><ele>301.85714285714283</ele><time>2026-05-01T13:51:28Z</time></trkpt><trkpt lat="43.495940485484425" lon="5.944605077251813"><ele>299.1428571428571</ele><time>2026-05-01T13:51:33Z</time></trkpt><trkpt lat="43.495901482671165" lon="5.944673421641509"><ele>296.4285714285714</ele><time>2026-05-01T13:51:36Z</time></trkpt><trkpt lat="43.495844008204756" lon="5.944763687470426"><ele>293.7142857142857</ele><time>2026-05-01T13:51:40Z</time></trkpt><trkpt lat="43.495812371210874" lon="5.9448529793366784"><ele>291.0</ele><time>2026-05-01T13:51:43.001Z</time></trkpt><trkpt lat="43.495788383024276" lon="5.944946036199855"><ele>291.0</ele><time>2026-05-01T13:51:46.001Z</time></trkpt><trkpt lat="43.49572576583449" lon="5.944999339870617"><ele>291.0</ele><time>2026-05-01T13:51:50.001Z</time></trkpt><trkpt lat="43.49568969372686" lon="5.945082171357747"><ele>291.0</ele><time>2026-05-01T13:51:53.001Z</time></trkpt><trkpt lat="43.49566152040276" lon="5.945161159161973"><ele>291.0</ele><time>2026-05-01T13:51:55.001Z</time></trkpt><trkpt lat="43.49563679504999" lon="5.945301686297399"><ele>291.0</ele><time>2026-05-01T13:51:58.001Z</time></trkpt><trkpt lat="43.49565724615161" lon="5.945409354852117"><ele>291.0</ele><time>2026-05-01T13:52:00.001Z</time></trkpt><trkpt lat="43.495652244193046" lon="5.945497215167305"><ele>288.5</ele><time>2026-05-01T13:52:02Z</time></trkpt><trkpt lat="43.49560955301715" lon="5.945618383729962"><ele>286.0</ele><time>2026-05-01T13:52:05Z</time></trkpt><trkpt lat="43.49559172118802" lon="5.945704929100157"><ele>283.5</ele><time>2026-05-01T13:52:06Z</time></trkpt><trkpt lat="43.495585366877755" lon="5.9457959253263075"><ele>281.0</ele><time>2026-05-01T13:52:08Z</time></trkpt><trkpt lat="43.495522413065046" lon="5.945822341340614"><ele>278.5</ele><time>2026-05-01T13:52:17Z</time></trkpt><trkpt lat="43.49545675581262" lon="5.9458986646668235"><ele>276.0</ele><time>2026-05-01T13:52:19Z</time></trkpt><trkpt lat="43.49541731569013" lon="5.945997545839617"><ele>275.2</ele><time>2026-05-01T13:52:20Z</time></trkpt><trkpt lat="43.495356601125046" lon="5.9461307950982105"><ele>274.40000000000003</ele><time>2026-05-01T13:52:22Z</time></trkpt><trkpt lat="43.49528354498329" lon="5.946179859186933"><ele>273.6</ele><time>2026-05-01T13:52:24Z</time></trkpt><trkpt lat="43.49521347444536" lon="5.946086733979115"><ele>272.8</ele><time>2026-05-01T13:52:26Z</time></trkpt><trkpt lat="43.49512289498229" lon="5.94594863208432"><ele>272.0</ele><time>2026-05-01T13:52:28Z</time></trkpt><trkpt lat="43.4950491178409" lon="5.94583050743394"><ele>272.0</ele><time>2026-05-01T13:52:29Z</time></trkpt><trkpt lat="43.494979698263116" lon="5.9457386989402625"><ele>272.0</ele><time>2026-05-01T13:52:30Z</time></trkpt><trkpt lat="43.494886598843166" lon="5.945650543180854"><ele>272.0</ele><time>2026-05-01T13:52:31Z</time></trkpt><trkpt lat="43.49476983170858" lon="5.945564191076945"><ele>272.0</ele><time>2026-05-01T13:52:32Z</time></trkpt><trkpt lat="43.49466696867718" lon="5.945482146677403"><ele>271.33333333333337</ele><time>2026-05-01T13:52:33Z</time></trkpt><trkpt lat="43.49457974706842" lon="5.945411893622726"><ele>270.6666666666667</ele><time>2026-05-01T13:52:34Z</time></trkpt><trkpt lat="43.49450406949742" lon="5.945336742498913"><ele>270.0</ele><time>2026-05-01T13:52:35Z</time></trkpt><trkpt lat="43.494446589229234" lon="5.945263453068147"><ele>269.3333333333333</ele><time>2026-05-01T13:52:36Z</time></trkpt><trkpt lat="43.494407497521536" lon="5.94518388566546"><ele>268.66666666666663</ele><time>2026-05-01T13:52:37Z</time></trkpt><trkpt lat="43.49437494726099" lon="5.945088300361435"><ele>268.0</ele><time>2026-05-01T13:52:38Z</time></trkpt><trkpt lat="43.49432080900335" lon="5.94495840012107"><ele>268.0</ele><time>2026-05-01T13:52:39Z</time></trkpt><trkpt lat="43.494245574765166" lon="5.944855320762612"><ele>268.0</ele><time>2026-05-01T13:52:40Z</time></trkpt><trkpt lat="43.49413924999476" lon="5.944775213120044"><ele>268.0</ele><time>2026-05-01T13:52:41Z</time></trkpt><trkpt lat="43.494030581183175" lon="5.944699320530909"><ele>268.0</ele><time>2026-05-01T13:52:42Z</time></trkpt><trkpt lat="43.49390403695697" lon="5.9446340042235715"><ele>268.0</ele><time>2026-05-01T13:52:43Z</time></trkpt><trkpt lat="43.49381874796151" lon="5.944537106797627"><ele>268.0</ele><time>2026-05-01T13:52:44Z</time></trkpt><trkpt lat="43.493724193811666" lon="5.944445835939851"><ele>268.0</ele><time>2026-05-01T13:52:45Z</time></trkpt><trkpt lat="43.49362018858604" lon="5.944400028045132"><ele>268.0</ele><time>2026-05-01T13:52:46Z</time></trkpt><trkpt lat="43.493523248635036" lon="5.9443393554300465"><ele>268.0</ele><time>2026-05-01T13:52:47Z</time></trkpt><trkpt lat="43.49342185257676" lon="5.944314680233118"><ele>267.75</ele><time>2026-05-01T13:52:48Z</time></trkpt><trkpt lat="43.493312082717836" lon="5.944308928524172"><ele>267.5</ele><time>2026-05-01T13:52:49Z</time></trkpt><trkpt lat="43.493184461443256" lon="5.9443292125077"><ele>267.25</ele><time>2026-05-01T13:52:50Z</time></trkpt><trkpt lat="43.493060636334825" lon="5.944354491091926"><ele>267.0</ele><time>2026-05-01T13:52:51Z</time></trkpt><trkpt lat="43.49294966862759" lon="5.944374086935041"><ele>267.8</ele><time>2026-05-01T13:52:52Z</time></trkpt><trkpt lat="43.4928513600756" lon="5.944373911330246"><ele>268.6</ele><time>2026-05-01T13:52:53Z</time></trkpt><trkpt lat="43.49275878492765" lon="5.944363613159218"><ele>269.40000000000003</ele><time>2026-05-01T13:52:54Z</time></trkpt><trkpt lat="43.492658228614935" lon="5.9443417212517575"><ele>270.2</ele><time>2026-05-01T13:52:55Z</time></trkpt><trkpt lat="43.49253691009772" lon="5.944303071620829"><ele>271.0</ele><time>2026-05-01T13:52:56Z</time></trkpt><trkpt lat="43.49242255962678" lon="5.944268092723556"><ele>271.0</ele><time>2026-05-01T13:52:57Z</time></trkpt><trkpt lat="43.49232451992109" lon="5.944242589738014"><ele>271.0</ele><time>2026-05-01T13:52:58Z</time></trkpt><trkpt lat="43.49223607457693" lon="5.9442262547847395"><ele>271.0</ele><time>2026-05-01T13:52:59Z</time></trkpt><trkpt lat="43.49217100314688" lon="5.944157872532436"><ele>271.0</ele><time>2026-05-01T13:53:00Z</time></trkpt><trkpt lat="43.49208740465359" lon="5.944065000069197"><ele>271.0</ele><time>2026-05-01T13:53:01Z</time></trkpt><trkpt lat="43.491995765914496" lon="5.943942728603162"><ele>271.25</ele><time>2026-05-01T13:53:02Z</time></trkpt><trkpt lat="43.49186856778117" lon="5.943844103690229"><ele>271.5</ele><time>2026-05-01T13:53:03Z</time></trkpt><trkpt lat="43.49175302994" lon="5.9437147127122945"><ele>271.75</ele><time>2026-05-01T13:53:04Z</time></trkpt><trkpt lat="43.49162272409079" lon="5.943620493917888"><ele>272.0</ele><time>2026-05-01T13:53:05Z</time></trkpt><trkpt lat="43.49149381448489" lon="5.943493613047483"><ele>272.0</ele><time>2026-05-01T13:53:06Z</time></trkpt><trkpt lat="43.49137196356143" lon="5.94338210439296"><ele>272.0</ele><time>2026-05-01T13:53:07Z</time></trkpt><trkpt lat="43.491265091936135" lon="5.9432947595358945"><ele>272.0</ele><time>2026-05-01T13:53:08Z</time></trkpt><trkpt lat="43.49116009718202" lon="5.94323671197629"><ele>272.0</ele><time>2026-05-01T13:53:09Z</time></trkpt><trkpt lat="43.49105414272095" lon="5.943190540364528"><ele>272.8</ele><time>2026-05-01T13:53:10Z</time></trkpt><trkpt lat="43.49094703341648" lon="5.94316100263251"><ele>273.6</ele><time>2026-05-01T13:53:11Z</time></trkpt><trkpt lat="43.49085007105949" lon="5.943126100291226"><ele>274.40000000000003</ele><time>2026-05-01T13:53:12Z</time></trkpt><trkpt lat="43.490755471929354" lon="5.943090121359793"><ele>275.2</ele><time>2026-05-01T13:53:13Z</time></trkpt><trkpt lat="43.490632125003714" lon="5.94304543663826"><ele>276.0</ele><time>2026-05-01T13:53:14Z</time></trkpt><trkpt lat="43.490527405920105" lon="5.942933525111035"><ele>276.25</ele><time>2026-05-01T13:53:15Z</time></trkpt><trkpt lat="43.49040852967573" lon="5.942829442647826"><ele>276.5</ele><time>2026-05-01T13:53:16Z</time></trkpt><trkpt lat="43.49029478183475" lon="5.942746415407408"><ele>276.75</ele><time>2026-05-01T13:53:17Z</time></trkpt><trkpt lat="43.490174267186674" lon="5.942691907212701"><ele>277.0</ele><time>2026-05-01T13:53:18Z</time></trkpt><trkpt lat="43.490036311919525" lon="5.9426766620424205"><ele>277.0</ele><time>2026-05-01T13:53:19Z</time></trkpt><trkpt lat="43.48989197300805" lon="5.942628440103121"><ele>277.0</ele><time>2026-05-01T13:53:20Z</time></trkpt><trkpt lat="43.48974248911513" lon="5.9425909721693415"><ele>277.0</ele><time>2026-05-01T13:53:21Z</time></trkpt><trkpt lat="43.489587923539816" lon="5.9425535616742"><ele>279.5</ele><time>2026-05-01T13:53:22Z</time></trkpt><trkpt lat="43.48946158214556" lon="5.942517086548203"><ele>282.0</ele><time>2026-05-01T13:53:23Z</time></trkpt><trkpt lat="43.4893481826261" lon="5.94249002057664"><ele>284.5</ele><time>2026-05-01T13:53:24Z</time></trkpt><trkpt lat="43.489229133887804" lon="5.942482035956058"><ele>287.0</ele><time>2026-05-01T13:53:25Z</time></trkpt><trkpt lat="43.48910257800239" lon="5.942491536716093"><ele>287.0</ele><time>2026-05-01T13:53:26Z</time></trkpt><trkpt lat="43.48898582898193" lon="5.942446948834733"><ele>287.0</ele><time>2026-05-01T13:53:27Z</time></trkpt><trkpt lat="43.48886613723602" lon="5.94241961672882"><ele>287.0</ele><time>2026-05-01T13:53:28Z</time></trkpt><trkpt lat="43.48874065598254" lon="5.942385756247338"><ele>287.0</ele><time>2026-05-01T13:53:29Z</time></trkpt><trkpt lat="43.48862969186027" lon="5.942350955667906"><ele>286.8</ele><time>2026-05-01T13:53:30Z</time></trkpt><trkpt lat="43.48853427263859" lon="5.942312965320846"><ele>286.6</ele><time>2026-05-01T13:53:31Z</time></trkpt><trkpt lat="43.48845094607737" lon="5.942266653703051"><ele>286.40000000000003</ele><time>2026-05-01T13:53:32Z</time></trkpt><trkpt lat="43.48835090807877" lon="5.94220184144846"><ele>286.2</ele><time>2026-05-01T13:53:33Z</time></trkpt><trkpt lat="43.488223808178155" lon="5.942145039801014"><ele>286.0</ele><time>2026-05-01T13:53:34Z</time></trkpt><trkpt lat="43.48808040089069" lon="5.942069575590287"><ele>286.0</ele><time>2026-05-01T13:53:35Z</time></trkpt><trkpt lat="43.48793321163566" lon="5.942014565525787"><ele>286.0</ele><time>2026-05-01T13:53:36Z</time></trkpt><trkpt lat="43.487778656494285" lon="5.941952941507794"><ele>286.0</ele><time>2026-05-01T13:53:37Z</time></trkpt><trkpt lat="43.48760850270812" lon="5.9418762659232405"><ele>287.0</ele><time>2026-05-01T13:53:38Z</time></trkpt><trkpt lat="43.48743474941632" lon="5.9418439371803515"><ele>288.0</ele><time>2026-05-01T13:53:39Z</time></trkpt><trkpt lat="43.48728828507517" lon="5.941797331398037"><ele>289.0</ele><time>2026-05-01T13:53:40Z</time></trkpt><trkpt lat="43.487143890318286" lon="5.941754379330871"><ele>291.5</ele><time>2026-05-01T13:53:41Z</time></trkpt><trkpt lat="43.486982910829504" lon="5.941700570651677"><ele>294.0</ele><time>2026-05-01T13:53:42Z</time></trkpt><trkpt lat="43.4868422797349" lon="5.941653615513425"><ele>296.5</ele><time>2026-05-01T13:53:43Z</time></trkpt><trkpt lat="43.48671230241804" lon="5.9416206409160655"><ele>299.0</ele><time>2026-05-01T13:53:44Z</time></trkpt><trkpt lat="43.4865782045369" lon="5.94158816034299"><ele>299.0</ele><time>2026-05-01T13:53:45Z</time></trkpt><trkpt lat="43.486446079733554" lon="5.941549557118242"><ele>299.0</ele><time>2026-05-01T13:53:46Z</time></trkpt><trkpt lat="43.48632979089277" lon="5.941509625403095"><ele>299.0</ele><time>2026-05-01T13:53:47Z</time></trkpt><trkpt lat="43.48623298117719" lon="5.941451455543252"><ele>299.0</ele><time>2026-05-01T13:53:48Z</time></trkpt><trkpt lat="43.48613306545534" lon="5.941410132464582"><ele>298.0</ele><time>2026-05-01T13:53:49Z</time></trkpt><trkpt lat="43.48603223538101" lon="5.9413629560286045"><ele>297.0</ele><time>2026-05-01T13:53:50Z</time></trkpt><trkpt lat="43.4859149438658" lon="5.941297417119585"><ele>296.0</ele><time>2026-05-01T13:53:51Z</time></trkpt><trkpt lat="43.485784982790115" lon="5.941217054591912"><ele>295.0</ele><time>2026-05-01T13:53:52Z</time></trkpt><trkpt lat="43.485681210537365" lon="5.941143810441068"><ele>295.0</ele><time>2026-05-01T13:53:53Z</time></trkpt><trkpt lat="43.485591900631086" lon="5.941064962032635"><ele>295.0</ele><time>2026-05-01T13:53:54Z</time></trkpt><trkpt lat="43.48549859018663" lon="5.940964845017753"><ele>295.0</ele><time>2026-05-01T13:53:55Z</time></trkpt><trkpt lat="43.48538941473496" lon="5.940828966397092"><ele>295.0</ele><time>2026-05-01T13:53:56Z</time></trkpt><trkpt lat="43.485271525545194" lon="5.940668518781643"><ele>295.0</ele><time>2026-05-01T13:53:57Z</time></trkpt><trkpt lat="43.485151474396424" lon="5.940514333079509"><ele>295.0</ele><time>2026-05-01T13:53:58Z</time></trkpt><trkpt lat="43.48504234090843" lon="5.9403804759338055"><ele>295.0</ele><time>2026-05-01T13:53:59Z</time></trkpt><trkpt lat="43.48493074998064" lon="5.940285911807889"><ele>295.0</ele><time>2026-05-01T13:54:00Z</time></trkpt><trkpt lat="43.48482873758343" lon="5.940181973449538"><ele>295.0</ele><time>2026-05-01T13:54:01Z</time></trkpt><trkpt lat="43.48472529128373" lon="5.940090512932163"><ele>295.0</ele><time>2026-05-01T13:54:02Z</time></trkpt><trkpt lat="43.484620136482995" lon="5.940008517178623"><ele>295.0</ele><time>2026-05-01T13:54:03Z</time></trkpt><trkpt lat="43.484527075181184" lon="5.93991465424969"><ele>295.0</ele><time>2026-05-01T13:54:04Z</time></trkpt><trkpt lat="43.48441424170742" lon="5.939852385887279"><ele>294.2</ele><time>2026-05-01T13:54:05Z</time></trkpt><trkpt lat="43.48431330323835" lon="5.939772819755722"><ele>293.4</ele><time>2026-05-01T13:54:06Z</time></trkpt><trkpt lat="43.48420255729084" lon="5.939738291681648"><ele>292.6</ele><time>2026-05-01T13:54:07Z</time></trkpt><trkpt lat="43.48409465564836" lon="5.939720665071022"><ele>291.8</ele><time>2026-05-01T13:54:08Z</time></trkpt><trkpt lat="43.48398882245295" lon="5.93971948781478"><ele>291.0</ele><time>2026-05-01T13:54:09Z</time></trkpt><trkpt lat="43.48387655133435" lon="5.9397563888118485"><ele>289.6</ele><time>2026-05-01T13:54:10Z</time></trkpt><trkpt lat="43.48375346209594" lon="5.939773860429974"><ele>288.20000000000005</ele><time>2026-05-01T13:54:11Z</time></trkpt><trkpt lat="43.483650049482314" lon="5.939800299912351"><ele>286.79999999999995</ele><time>2026-05-01T13:54:12Z</time></trkpt><trkpt lat="43.483573446738504" lon="5.939804197929009"><ele>285.4</ele><time>2026-05-01T13:54:13Z</time></trkpt><trkpt lat="43.48347364628812" lon="5.939754534009533"><ele>284.0</ele><time>2026-05-01T13:54:15Z</time></trkpt><trkpt lat="43.48341218211535" lon="5.93969804542096"><ele>284.0</ele><time>2026-05-01T13:54:16Z</time></trkpt><trkpt lat="43.483320460440765" lon="5.939636410336237"><ele>284.0</ele><time>2026-05-01T13:54:17Z</time></trkpt><trkpt lat="43.48322485609397" lon="5.9395191185745535"><ele>284.0</ele><time>2026-05-01T13:54:18Z</time></trkpt><trkpt lat="43.48312373713978" lon="5.93945016800979"><ele>284.0</ele><time>2026-05-01T13:54:19Z</time></trkpt><trkpt lat="43.483033220180275" lon="5.9393645180216685"><ele>285.0</ele><time>2026-05-01T13:54:20Z</time></trkpt><trkpt lat="43.48290548729219" lon="5.939315445175744"><ele>286.0</ele><time>2026-05-01T13:54:21Z</time></trkpt><trkpt lat="43.482784474743596" lon="5.939254412296594"><ele>287.0</ele><time>2026-05-01T13:54:22Z</time></trkpt><trkpt lat="43.4826854384947" lon="5.939170699385927"><ele>288.0</ele><time>2026-05-01T13:54:23Z</time></trkpt><trkpt lat="43.48258849653372" lon="5.939099901041325"><ele>288.0</ele><time>2026-05-01T13:54:24Z</time></trkpt><trkpt lat="43.482501094599584" lon="5.9390530699398045"><ele>288.0</ele><time>2026-05-01T13:54:25Z</time></trkpt><trkpt lat="43.48243168391127" lon="5.939012103027886"><ele>288.0</ele><time>2026-05-01T13:54:26Z</time></trkpt><trkpt lat="43.482313000338365" lon="5.938969332216658"><ele>288.0</ele><time>2026-05-01T13:54:28Z</time></trkpt><trkpt lat="43.482239637668144" lon="5.939026088765709"><ele>288.0</ele><time>2026-05-01T13:54:29Z</time></trkpt><trkpt lat="43.482177944542286" lon="5.9391011324972425"><ele>288.8</ele><time>2026-05-01T13:54:30Z</time></trkpt><trkpt lat="43.482096664813646" lon="5.939187781607319"><ele>289.6</ele><time>2026-05-01T13:54:31Z</time></trkpt><trkpt lat="43.48202535113152" lon="5.939291348102112"><ele>290.4</ele><time>2026-05-01T13:54:32Z</time></trkpt><trkpt lat="43.48197106990592" lon="5.939386157386876"><ele>291.2</ele><time>2026-05-01T13:54:33Z</time></trkpt><trkpt lat="43.48193743960246" lon="5.939483190958735"><ele>292.0</ele><time>2026-05-01T13:54:34Z</time></trkpt><trkpt lat="43.481829522704004" lon="5.939486968854677"><ele>292.0</ele><time>2026-05-01T13:54:36Z</time></trkpt><trkpt lat="43.48180014965001" lon="5.939389008298563"><ele>292.0</ele><time>2026-05-01T13:54:39Z</time></trkpt><trkpt lat="43.481788036130126" lon="5.93930233105724"><ele>292.0</ele><time>2026-05-01T13:54:40Z</time></trkpt><trkpt lat="43.48180555314246" lon="5.939167672841455"><ele>292.0</ele><time>2026-05-01T13:54:42Z</time></trkpt><trkpt lat="43.48180063647863" lon="5.9390481661769"><ele>292.0</ele><time>2026-05-01T13:54:44Z</time></trkpt><trkpt lat="43.481769968988665" lon="5.938902702500861"><ele>292.0</ele><time>2026-05-01T13:54:46Z</time></trkpt><trkpt lat="43.481741785388024" lon="5.938806681978017"><ele>292.0</ele><time>2026-05-01T13:54:47Z</time></trkpt><trkpt lat="43.48171895617322" lon="5.93867485028591"><ele>292.0</ele><time>2026-05-01T13:54:48Z</time></trkpt><trkpt lat="43.481708608512804" lon="5.938551490085537"><ele>292.0</ele><time>2026-05-01T13:54:49Z</time></trkpt><trkpt lat="43.48170420994241" lon="5.938450351956748"><ele>292.0</ele><time>2026-05-01T13:54:50Z</time></trkpt><trkpt lat="43.48170258540946" lon="5.938352284149627"><ele>292.0</ele><time>2026-05-01T13:54:52Z</time></trkpt><trkpt lat="43.48169391209584" lon="5.9382470335910025"><ele>292.0</ele><time>2026-05-01T13:54:56Z</time></trkpt><trkpt lat="43.481676832255445" lon="5.938039768930438"><ele>292.0</ele><time>2026-05-01T13:54:58Z</time></trkpt><trkpt lat="43.48168735057413" lon="5.937900584275236"><ele>292.0</ele><time>2026-05-01T13:54:59Z</time></trkpt><trkpt lat="43.48168182249847" lon="5.937802289168929"><ele>292.0</ele><time>2026-05-01T13:55:00Z</time></trkpt><trkpt lat="43.481286768903246" lon="5.937622796180729"><ele>294.6</ele><time>2026-05-01T13:55:02Z</time></trkpt><trkpt lat="43.48121488054357" lon="5.937519063483163"><ele>297.2</ele><time>2026-05-01T13:55:03Z</time></trkpt><trkpt lat="43.48116234921477" lon="5.937426903676025"><ele>299.8</ele><time>2026-05-01T13:55:04Z</time></trkpt><trkpt lat="43.48111585603825" lon="5.9373487968525"><ele>302.4</ele><time>2026-05-01T13:55:05Z</time></trkpt><trkpt lat="43.48107249506587" lon="5.937195843695179"><ele>305.0</ele><time>2026-05-01T13:55:07Z</time></trkpt><trkpt lat="43.481027750441534" lon="5.9371126568790356"><ele>305.0</ele><time>2026-05-01T13:55:08Z</time></trkpt><trkpt lat="43.48096312582303" lon="5.93705768586792"><ele>305.0</ele><time>2026-05-01T13:55:09Z</time></trkpt><trkpt lat="43.48088190575899" lon="5.937027545657426"><ele>305.0</ele><time>2026-05-01T13:55:10Z</time></trkpt><trkpt lat="43.48080047435673" lon="5.936992728329433"><ele>305.0</ele><time>2026-05-01T13:55:11Z</time></trkpt><trkpt lat="43.48070267159561" lon="5.936980534999939"><ele>305.0</ele><time>2026-05-01T13:55:12Z</time></trkpt><trkpt lat="43.48061801343937" lon="5.936958026894206"><ele>305.0</ele><time>2026-05-01T13:55:13Z</time></trkpt><trkpt lat="43.48052863176895" lon="5.93693115225609"><ele>305.0</ele><time>2026-05-01T13:55:14Z</time></trkpt><trkpt lat="43.480435918299996" lon="5.93691278839904"><ele>305.0</ele><time>2026-05-01T13:55:15Z</time></trkpt><trkpt lat="43.48034109682331" lon="5.936882927090345"><ele>305.0</ele><time>2026-05-01T13:55:16Z</time></trkpt><trkpt lat="43.48025932906705" lon="5.93683818004897"><ele>305.0</ele><time>2026-05-01T13:55:17Z</time></trkpt><trkpt lat="43.48018828817245" lon="5.936778273287015"><ele>305.0</ele><time>2026-05-01T13:55:18Z</time></trkpt><trkpt lat="43.48012097098736" lon="5.936702831297064"><ele>305.0</ele><time>2026-05-01T13:55:19Z</time></trkpt><trkpt lat="43.48006062243476" lon="5.936619057838005"><ele>304.6</ele><time>2026-05-01T13:55:20Z</time></trkpt><trkpt lat="43.48002417159765" lon="5.936542997578962"><ele>304.2</ele><time>2026-05-01T13:55:21Z</time></trkpt><trkpt lat="43.480005164533544" lon="5.936361383496115"><ele>303.8</ele><time>2026-05-01T13:55:23Z</time></trkpt><trkpt lat="43.480004874632776" lon="5.936185099718033"><ele>303.4</ele><time>2026-05-01T13:55:24Z</time></trkpt><trkpt lat="43.48000033432227" lon="5.936039471883899"><ele>303.0</ele><time>2026-05-01T13:55:25Z</time></trkpt><trkpt lat="43.47995299790102" lon="5.935950738115709"><ele>303.0</ele><time>2026-05-01T13:55:27Z</time></trkpt><trkpt lat="43.47990201515601" lon="5.935855637342748"><ele>303.0</ele><time>2026-05-01T13:55:29Z</time></trkpt><trkpt lat="43.47988658307075" lon="5.935766193535314"><ele>303.0</ele><time>2026-05-01T13:55:30Z</time></trkpt><trkpt lat="43.47984018120658" lon="5.935704270824511"><ele>303.0</ele><time>2026-05-01T13:55:31Z</time></trkpt><trkpt lat="43.47977249906452" lon="5.935664156632231"><ele>303.0</ele><time>2026-05-01T13:55:32Z</time></trkpt><trkpt lat="43.47968861707634" lon="5.935608404933125"><ele>303.0</ele><time>2026-05-01T13:55:33Z</time></trkpt><trkpt lat="43.479607556193045" lon="5.935566328482817"><ele>303.6666666666667</ele><time>2026-05-01T13:55:34Z</time></trkpt><trkpt lat="43.47951859735777" lon="5.935529890290746"><ele>304.3333333333333</ele><time>2026-05-01T13:55:35Z</time></trkpt><trkpt lat="43.47943676841816" lon="5.935507698657859"><ele>305.0</ele><time>2026-05-01T13:55:36Z</time></trkpt><trkpt lat="43.47936154786879" lon="5.9355120708788816"><ele>305.66666666666663</ele><time>2026-05-01T13:55:37Z</time></trkpt><trkpt lat="43.47929976650821" lon="5.935551891496669"><ele>306.3333333333333</ele><time>2026-05-01T13:55:38Z</time></trkpt><trkpt lat="43.47921682276723" lon="5.9356086605161815"><ele>307.0</ele><time>2026-05-01T13:55:39Z</time></trkpt><trkpt lat="43.47914464200848" lon="5.935632888587208"><ele>307.0</ele><time>2026-05-01T13:55:40Z</time></trkpt><trkpt lat="43.47907553112208" lon="5.935643155468187"><ele>307.0</ele><time>2026-05-01T13:55:41Z</time></trkpt><trkpt lat="43.47897974283596" lon="5.935602707703209"><ele>307.0</ele><time>2026-05-01T13:55:43Z</time></trkpt><trkpt lat="43.478926522542906" lon="5.935555463004046"><ele>307.0</ele><time>2026-05-01T13:55:44Z</time></trkpt><trkpt lat="43.47886228413235" lon="5.935545092749849"><ele>307.0</ele><time>2026-05-01T13:55:45Z</time></trkpt><trkpt lat="43.4787961080065" lon="5.935569405107156"><ele>307.0</ele><time>2026-05-01T13:55:46Z</time></trkpt><trkpt lat="43.47871098748795" lon="5.9356063391606675"><ele>306.66666666666663</ele><time>2026-05-01T13:55:47Z</time></trkpt><trkpt lat="43.478643502775554" lon="5.935599885229186"><ele>306.3333333333333</ele><time>2026-05-01T13:55:48Z</time></trkpt><trkpt lat="43.47860582264428" lon="5.935704004846911"><ele>306.0</ele><time>2026-05-01T13:55:51Z</time></trkpt><trkpt lat="43.478580142192406" lon="5.935798548858951"><ele>305.6666666666667</ele><time>2026-05-01T13:55:52Z</time></trkpt><trkpt lat="43.47854626244228" lon="5.935919454012443"><ele>305.33333333333337</ele><time>2026-05-01T13:55:53Z</time></trkpt><trkpt lat="43.47851915268021" lon="5.936035370076615"><ele>305.0</ele><time>2026-05-01T13:55:54Z</time></trkpt><trkpt lat="43.47844224705351" lon="5.9361412985183355"><ele>306.4</ele><time>2026-05-01T13:55:56Z</time></trkpt><trkpt lat="43.478355668308154" lon="5.936307916189629"><ele>307.8</ele><time>2026-05-01T13:55:58Z</time></trkpt><trkpt lat="43.47831375022151" lon="5.9364083968279"><ele>309.2</ele><time>2026-05-01T13:55:59Z</time></trkpt><trkpt lat="43.47829468874105" lon="5.936550864351042"><ele>310.6</ele><time>2026-05-01T13:56:01Z</time></trkpt><trkpt lat="43.478211106416346" lon="5.936614900606957"><ele>312.0</ele><time>2026-05-01T13:56:03Z</time></trkpt><trkpt lat="43.478142942578316" lon="5.936651596747158"><ele>312.0</ele><time>2026-05-01T13:56:04Z</time></trkpt><trkpt lat="43.47808740111332" lon="5.936711963907692"><ele>312.0</ele><time>2026-05-01T13:56:05Z</time></trkpt><trkpt lat="43.47804802749332" lon="5.936789124167505"><ele>312.0</ele><time>2026-05-01T13:56:06Z</time></trkpt><trkpt lat="43.47800406347084" lon="5.936876886836118"><ele>312.0</ele><time>2026-05-01T13:56:07Z</time></trkpt><trkpt lat="43.47796153294745" lon="5.936957504035415"><ele>312.0</ele><time>2026-05-01T13:56:08Z</time></trkpt><trkpt lat="43.47790813029818" lon="5.937024357701105"><ele>312.0</ele><time>2026-05-01T13:56:09Z</time></trkpt><trkpt lat="43.47783400940208" lon="5.937113190418558"><ele>312.6666666666667</ele><time>2026-05-01T13:56:10Z</time></trkpt><trkpt lat="43.47778346939866" lon="5.937186415932343"><ele>313.3333333333333</ele><time>2026-05-01T13:56:11Z</time></trkpt><trkpt lat="43.4777229676397" lon="5.937342453137401"><ele>314.0</ele><time>2026-05-01T13:56:13Z</time></trkpt><trkpt lat="43.4776847362395" lon="5.937428230150786"><ele>314.66666666666663</ele><time>2026-05-01T13:56:14Z</time></trkpt><trkpt lat="43.477646260982574" lon="5.937529791685804"><ele>315.3333333333333</ele><time>2026-05-01T13:56:15Z</time></trkpt><trkpt lat="43.47763367050376" lon="5.937625616146923"><ele>316.0</ele><time>2026-05-01T13:56:16Z</time></trkpt><trkpt lat="43.477643249484906" lon="5.937714479195069"><ele>318.0</ele><time>2026-05-01T13:56:17Z</time></trkpt><trkpt lat="43.47769453625449" lon="5.937802573690335"><ele>320.0</ele><time>2026-05-01T13:56:18Z</time></trkpt><trkpt lat="43.47772640427713" lon="5.9379135810337065"><ele>322.0</ele><time>2026-05-01T13:56:19Z</time></trkpt><trkpt lat="43.47778253299908" lon="5.938049531624816"><ele>324.0</ele><time>2026-05-01T13:56:20Z</time></trkpt><trkpt lat="43.47783213171718" lon="5.938175079079818"><ele>326.0</ele><time>2026-05-01T13:56:21Z</time></trkpt><trkpt lat="43.47786610868707" lon="5.938283713861891"><ele>326.6</ele><time>2026-05-01T13:56:22Z</time></trkpt><trkpt lat="43.47790214771038" lon="5.938434196366208"><ele>327.20000000000005</ele><time>2026-05-01T13:56:24Z</time></trkpt><trkpt lat="43.47787118008472" lon="5.938518618023201"><ele>327.79999999999995</ele><time>2026-05-01T13:56:25Z</time></trkpt><trkpt lat="43.477850239617" lon="5.93864857225456"><ele>328.4</ele><time>2026-05-01T13:56:26Z</time></trkpt><trkpt lat="43.47784980611236" lon="5.938790980374564"><ele>329.0</ele><time>2026-05-01T13:56:27Z</time></trkpt><trkpt lat="43.47782905724876" lon="5.93891483672096"><ele>329.0</ele><time>2026-05-01T13:56:28Z</time></trkpt><trkpt lat="43.47776303259353" lon="5.93905004462229"><ele>329.0</ele><time>2026-05-01T13:56:30Z</time></trkpt><trkpt lat="43.47767733640133" lon="5.93912262088649"><ele>329.0</ele><time>2026-05-01T13:56:32Z</time></trkpt><trkpt lat="43.47757840915085" lon="5.9391928756550785"><ele>329.0</ele><time>2026-05-01T13:56:34Z</time></trkpt><trkpt lat="43.47754397923291" lon="5.939277659051428"><ele>329.0</ele><time>2026-05-01T13:56:35Z</time></trkpt><trkpt lat="43.47749651039581" lon="5.939375301698521"><ele>328.79999999999995</ele><time>2026-05-01T13:56:36Z</time></trkpt><trkpt lat="43.47744600604911" lon="5.9394872904888585"><ele>328.59999999999997</ele><time>2026-05-01T13:56:37Z</time></trkpt><trkpt lat="43.477386929092205" lon="5.939598488480195"><ele>328.4</ele><time>2026-05-01T13:56:38Z</time></trkpt><trkpt lat="43.47732874920998" lon="5.939707251408564"><ele>328.2</ele><time>2026-05-01T13:56:39Z</time></trkpt><trkpt lat="43.47727072431396" lon="5.939806497730456"><ele>328.0</ele><time>2026-05-01T13:56:40Z</time></trkpt><trkpt lat="43.4772061894801" lon="5.939912852094728"><ele>328.0</ele><time>2026-05-01T13:56:41Z</time></trkpt><trkpt lat="43.47713897889609" lon="5.940019810089202"><ele>328.0</ele><time>2026-05-01T13:56:42Z</time></trkpt><trkpt lat="43.47707048369862" lon="5.940109679410822"><ele>328.0</ele><time>2026-05-01T13:56:43Z</time></trkpt><trkpt lat="43.4769793872663" lon="5.940155075172367"><ele>328.0</ele><time>2026-05-01T13:56:44Z</time></trkpt><trkpt lat="43.47690001160823" lon="5.940240314442652"><ele>328.0</ele><time>2026-05-01T13:56:45Z</time></trkpt><trkpt lat="43.47681161254526" lon="5.940326949182588"><ele>328.4</ele><time>2026-05-01T13:56:46Z</time></trkpt><trkpt lat="43.47674224623418" lon="5.940428379253425"><ele>328.79999999999995</ele><time>2026-05-01T13:56:47Z</time></trkpt><trkpt lat="43.47668226198541" lon="5.940521742658433"><ele>329.2</ele><time>2026-05-01T13:56:48Z</time></trkpt><trkpt lat="43.476621911939944" lon="5.940597405288643"><ele>329.6</ele><time>2026-05-01T13:56:49Z</time></trkpt><trkpt lat="43.47656166486145" lon="5.940677407570333"><ele>330.0</ele><time>2026-05-01T13:56:50Z</time></trkpt><trkpt lat="43.476477196164566" lon="5.94079729990723"><ele>329.75</ele><time>2026-05-01T13:56:51Z</time></trkpt><trkpt lat="43.47637043983067" lon="5.940948855527822"><ele>329.5</ele><time>2026-05-01T13:56:52Z</time></trkpt><trkpt lat="43.4762723778875" lon="5.941074880113425"><ele>329.25</ele><time>2026-05-01T13:56:53Z</time></trkpt><trkpt lat="43.47619771335461" lon="5.9411761693720315"><ele>329.0</ele><time>2026-05-01T13:56:54Z</time></trkpt><trkpt lat="43.476132559525674" lon="5.941280282028505"><ele>328.5</ele><time>2026-05-01T13:56:55Z</time></trkpt><trkpt lat="43.47606523192969" lon="5.941381281266188"><ele>328.0</ele><time>2026-05-01T13:56:56Z</time></trkpt><trkpt lat="43.475992256076665" lon="5.9414663663574565"><ele>327.5</ele><time>2026-05-01T13:56:57Z</time></trkpt><trkpt lat="43.47592380706852" lon="5.941538080338863"><ele>327.0</ele><time>2026-05-01T13:56:58Z</time></trkpt><trkpt lat="43.47587729186455" lon="5.941604102029561"><ele>326.5</ele><time>2026-05-01T13:56:59Z</time></trkpt><trkpt lat="43.47582015292725" lon="5.9417197560802935"><ele>326.0</ele><time>2026-05-01T13:57:01Z</time></trkpt><trkpt lat="43.47581681244337" lon="5.941824259574267"><ele>324.75</ele><time>2026-05-01T13:57:03Z</time></trkpt><trkpt lat="43.47578930998452" lon="5.941909052902998"><ele>323.5</ele><time>2026-05-01T13:57:04Z</time></trkpt><trkpt lat="43.475706183798586" lon="5.9420262760048335"><ele>322.25</ele><time>2026-05-01T13:57:05Z</time></trkpt><trkpt lat="43.47563835800714" lon="5.9421890926847585"><ele>321.0</ele><time>2026-05-01T13:57:06Z</time></trkpt><trkpt lat="43.475554308432514" lon="5.94232392632037"><ele>321.0</ele><time>2026-05-01T13:57:07Z</time></trkpt><trkpt lat="43.475483620532614" lon="5.942420580862356"><ele>321.0</ele><time>2026-05-01T13:57:08Z</time></trkpt><trkpt lat="43.475433743169816" lon="5.942497962927945"><ele>321.0</ele><time>2026-05-01T13:57:09Z</time></trkpt><trkpt lat="43.47540563896826" lon="5.942580847943221"><ele>321.0</ele><time>2026-05-01T13:57:10Z</time></trkpt><trkpt lat="43.475400286261156" lon="5.942689344389624"><ele>321.0</ele><time>2026-05-01T13:57:11Z</time></trkpt><trkpt lat="43.47541246338109" lon="5.942794048571219"><ele>321.0</ele><time>2026-05-01T13:57:12Z</time></trkpt><trkpt lat="43.47540475395776" lon="5.942884333231357"><ele>319.3333333333333</ele><time>2026-05-01T13:57:13Z</time></trkpt><trkpt lat="43.475369554251046" lon="5.942957585421898"><ele>317.6666666666667</ele><time>2026-05-01T13:57:14Z</time></trkpt><trkpt lat="43.47535848989676" lon="5.943099358503139"><ele>316.0</ele><time>2026-05-01T13:57:16Z</time></trkpt><trkpt lat="43.47538869983652" lon="5.943177153013906"><ele>314.33333333333337</ele><time>2026-05-01T13:57:17Z</time></trkpt><trkpt lat="43.47542470836877" lon="5.943270449183869"><ele>312.6666666666667</ele><time>2026-05-01T13:57:18Z</time></trkpt><trkpt lat="43.475430769403516" lon="5.943417208206231"><ele>311.0</ele><time>2026-05-01T13:57:20Z</time></trkpt><trkpt lat="43.475399534488815" lon="5.943510961687093"><ele>309.25</ele><time>2026-05-01T13:57:21Z</time></trkpt><trkpt lat="43.4753546796266" lon="5.943623137459771"><ele>307.5</ele><time>2026-05-01T13:57:22Z</time></trkpt><trkpt lat="43.47526554599283" lon="5.943746805690281"><ele>305.75</ele><time>2026-05-01T13:57:23Z</time></trkpt><trkpt lat="43.47515653730092" lon="5.943920310990789"><ele>304.0</ele><time>2026-05-01T13:57:24Z</time></trkpt><trkpt lat="43.475055468559525" lon="5.944125863892184"><ele>303.75</ele><time>2026-05-01T13:57:25Z</time></trkpt><trkpt lat="43.474962310788804" lon="5.94431377208474"><ele>303.5</ele><time>2026-05-01T13:57:26Z</time></trkpt><trkpt lat="43.474881915067314" lon="5.9444834985936"><ele>303.25</ele><time>2026-05-01T13:57:27Z</time></trkpt><trkpt lat="43.47480902454169" lon="5.9446248740748695"><ele>303.0</ele><time>2026-05-01T13:57:28Z</time></trkpt><trkpt lat="43.474745877295334" lon="5.944781469357961"><ele>303.0</ele><time>2026-05-01T13:57:29Z</time></trkpt><trkpt lat="43.4746772662702" lon="5.944925583119754"><ele>303.0</ele><time>2026-05-01T13:57:30Z</time></trkpt><trkpt lat="43.474604249755785" lon="5.945061910267219"><ele>303.0</ele><time>2026-05-01T13:57:31Z</time></trkpt><trkpt lat="43.47452303083001" lon="5.945177622824666"><ele>303.0</ele><time>2026-05-01T13:57:32Z</time></trkpt><trkpt lat="43.47445500640596" lon="5.9453065605937185"><ele>298.75</ele><time>2026-05-01T13:57:33Z</time></trkpt><trkpt lat="43.47437727460765" lon="5.945433652590059"><ele>294.5</ele><time>2026-05-01T13:57:34Z</time></trkpt><trkpt lat="43.47427328530536" lon="5.9455421781421345"><ele>290.25</ele><time>2026-05-01T13:57:35Z</time></trkpt><trkpt lat="43.474169540938604" lon="5.945714167372719"><ele>286.0</ele><time>2026-05-01T13:57:36Z</time></trkpt><trkpt lat="43.47406919511773" lon="5.945863469345949"><ele>289.0</ele><time>2026-05-01T13:57:37Z</time></trkpt><trkpt lat="43.47398086529236" lon="5.9459896282951785"><ele>292.0</ele><time>2026-05-01T13:57:38Z</time></trkpt><trkpt lat="43.47390239331047" lon="5.946106840574137"><ele>295.0</ele><time>2026-05-01T13:57:39Z</time></trkpt><trkpt lat="43.47382411876965" lon="5.946239446931183"><ele>298.0</ele><time>2026-05-01T13:57:40Z</time></trkpt><trkpt lat="43.47373944602845" lon="5.946364049309546"><ele>292.5</ele><time>2026-05-01T13:57:41Z</time></trkpt><trkpt lat="43.47364674321248" lon="5.946483252960511"><ele>287.0</ele><time>2026-05-01T13:57:42Z</time></trkpt><trkpt lat="43.47356384929912" lon="5.946580858329957"><ele>281.5</ele><time>2026-05-01T13:57:43Z</time></trkpt><trkpt lat="43.47348347857678" lon="5.9466908333735535"><ele>276.0</ele><time>2026-05-01T13:57:44Z</time></trkpt><trkpt lat="43.47341487700313" lon="5.946811146533714"><ele>276.0</ele><time>2026-05-01T13:57:45Z</time></trkpt><trkpt lat="43.4733519654059" lon="5.9469377274166355"><ele>276.0</ele><time>2026-05-01T13:57:46Z</time></trkpt><trkpt lat="43.47328000706513" lon="5.947052610157745"><ele>276.0</ele><time>2026-05-01T13:57:47Z</time></trkpt><trkpt lat="43.473203985491196" lon="5.947147754136009"><ele>276.0</ele><time>2026-05-01T13:57:48Z</time></trkpt><trkpt lat="43.47314117986926" lon="5.947226873693389"><ele>276.0</ele><time>2026-05-01T13:57:49Z</time></trkpt><trkpt lat="43.473098176771614" lon="5.947312068182146"><ele>276.0</ele><time>2026-05-01T13:57:50Z</time></trkpt><trkpt lat="43.47306961847944" lon="5.9474123378140575"><ele>276.0</ele><time>2026-05-01T13:57:51Z</time></trkpt><trkpt lat="43.47305450452336" lon="5.947545667515663"><ele>276.0</ele><time>2026-05-01T13:57:52Z</time></trkpt><trkpt lat="43.473042485866166" lon="5.947703373336831"><ele>276.0</ele><time>2026-05-01T13:57:53Z</time></trkpt><trkpt lat="43.4730254382838" lon="5.947896746082545"><ele>276.0</ele><time>2026-05-01T13:57:54Z</time></trkpt><trkpt lat="43.47299816706678" lon="5.948089617545095"><ele>275.5</ele><time>2026-05-01T13:57:55Z</time></trkpt><trkpt lat="43.47297646261721" lon="5.94829148600428"><ele>275.0</ele><time>2026-05-01T13:57:56Z</time></trkpt><trkpt lat="43.47295929654814" lon="5.948478814580622"><ele>274.5</ele><time>2026-05-01T13:57:57Z</time></trkpt><trkpt lat="43.47290664323432" lon="5.948633233984093"><ele>274.0</ele><time>2026-05-01T13:57:58Z</time></trkpt><trkpt lat="43.47284763631078" lon="5.94877314018157"><ele>271.75</ele><time>2026-05-01T13:57:59Z</time></trkpt><trkpt lat="43.472805224581954" lon="5.948956998812411"><ele>269.5</ele><time>2026-05-01T13:58:00Z</time></trkpt><trkpt lat="43.47276131465381" lon="5.949123058285511"><ele>267.25</ele><time>2026-05-01T13:58:01Z</time></trkpt><trkpt lat="43.47272321029055" lon="5.949277075387386"><ele>265.0</ele><time>2026-05-01T13:58:02Z</time></trkpt><trkpt lat="43.47267149489785" lon="5.949411744942024"><ele>264.8</ele><time>2026-05-01T13:58:03Z</time></trkpt><trkpt lat="43.47263475726334" lon="5.949551383711329"><ele>264.6</ele><time>2026-05-01T13:58:04Z</time></trkpt><trkpt lat="43.47259232547311" lon="5.949712665770516"><ele>264.4</ele><time>2026-05-01T13:58:05Z</time></trkpt><trkpt lat="43.47255223076543" lon="5.949857639645654"><ele>264.2</ele><time>2026-05-01T13:58:06Z</time></trkpt><trkpt lat="43.47251622249797" lon="5.949989291546125"><ele>264.0</ele><time>2026-05-01T13:58:07Z</time></trkpt><trkpt lat="43.472475764386544" lon="5.950111866446611"><ele>264.0</ele><time>2026-05-01T13:58:08Z</time></trkpt><trkpt lat="43.47248983508459" lon="5.950237101199429"><ele>264.0</ele><time>2026-05-01T13:58:09Z</time></trkpt><trkpt lat="43.47252390604084" lon="5.950341009606379"><ele>264.0</ele><time>2026-05-01T13:58:10Z</time></trkpt><trkpt lat="43.472555588696004" lon="5.950460492732908"><ele>264.0</ele><time>2026-05-01T13:58:12Z</time></trkpt><trkpt lat="43.47249424455238" lon="5.950539397668727"><ele>264.0</ele><time>2026-05-01T13:58:14Z</time></trkpt><trkpt lat="43.47244717071718" lon="5.9506239236205545"><ele>264.0</ele><time>2026-05-01T13:58:15Z</time></trkpt><trkpt lat="43.47239330639376" lon="5.950709236275105"><ele>264.0</ele><time>2026-05-01T13:58:16Z</time></trkpt><trkpt lat="43.472329586004676" lon="5.95080007459634"><ele>264.0</ele><time>2026-05-01T13:58:17Z</time></trkpt><trkpt lat="43.47226937266104" lon="5.950887497312383"><ele>264.0</ele><time>2026-05-01T13:58:18Z</time></trkpt><trkpt lat="43.472219519806195" lon="5.950974933735078"><ele>264.0</ele><time>2026-05-01T13:58:19Z</time></trkpt><trkpt lat="43.47218257104385" lon="5.95106642515622"><ele>264.0</ele><time>2026-05-01T13:58:20Z</time></trkpt><trkpt lat="43.4721543279683" lon="5.951170514653414"><ele>264.0</ele><time>2026-05-01T13:58:21Z</time></trkpt><trkpt lat="43.47212661523472" lon="5.95127518615113"><ele>263.5</ele><time>2026-05-01T13:58:22Z</time></trkpt><trkpt lat="43.47210387584405" lon="5.951390841104092"><ele>263.0</ele><time>2026-05-01T13:58:23Z</time></trkpt><trkpt lat="43.47208353059635" lon="5.951502027333329"><ele>262.5</ele><time>2026-05-01T13:58:24Z</time></trkpt><trkpt lat="43.47206221236934" lon="5.951598928333639"><ele>262.0</ele><time>2026-05-01T13:58:25Z</time></trkpt><trkpt lat="43.47203486035436" lon="5.951711524879549"><ele>261.5</ele><time>2026-05-01T13:58:26Z</time></trkpt><trkpt lat="43.47199079377846" lon="5.951848368117327"><ele>261.0</ele><time>2026-05-01T13:58:27Z</time></trkpt><trkpt lat="43.47195872315157" lon="5.951988908710265"><ele>262.0</ele><time>2026-05-01T13:58:28Z</time></trkpt><trkpt lat="43.47192896299221" lon="5.9521193240678985"><ele>263.0</ele><time>2026-05-01T13:58:29Z</time></trkpt><trkpt lat="43.47190300169293" lon="5.952234423262042"><ele>264.0</ele><time>2026-05-01T13:58:30Z</time></trkpt><trkpt lat="43.47188984932892" lon="5.95234976811501"><ele>265.0</ele><time>2026-05-01T13:58:31Z</time></trkpt><trkpt lat="43.47187299291888" lon="5.9524500763583434"><ele>266.0</ele><time>2026-05-01T13:58:32Z</time></trkpt><trkpt lat="43.471880965988355" lon="5.95258548116174"><ele>267.0</ele><time>2026-05-01T13:58:34Z</time></trkpt><trkpt lat="43.47198724596127" lon="5.9527287628773955"><ele>268.8333333333333</ele><time>2026-05-01T13:58:37Z</time></trkpt><trkpt lat="43.47206544240431" lon="5.952767285009021"><ele>270.6666666666667</ele><time>2026-05-01T13:58:38Z</time></trkpt><trkpt lat="43.472135851773" lon="5.952830725693158"><ele>272.5</ele><time>2026-05-01T13:58:39Z</time></trkpt><trkpt lat="43.47220070346618" lon="5.9528841972216355"><ele>274.33333333333337</ele><time>2026-05-01T13:58:40Z</time></trkpt><trkpt lat="43.47226227548704" lon="5.952943227257961"><ele>276.1666666666667</ele><time>2026-05-01T13:58:41Z</time></trkpt><trkpt lat="43.47231172284041" lon="5.95306109762777"><ele>278.0</ele><time>2026-05-01T13:58:43Z</time></trkpt><trkpt lat="43.47232658193403" lon="5.953184056756862"><ele>278.0</ele><time>2026-05-01T13:58:45Z</time></trkpt><trkpt lat="43.472330297615905" lon="5.9533333512713735"><ele>278.0</ele><time>2026-05-01T13:58:47Z</time></trkpt><trkpt lat="43.47228035227911" lon="5.953486171198483"><ele>278.0</ele><time>2026-05-01T13:58:49Z</time></trkpt><trkpt lat="43.4722181815115" lon="5.953535821831606"><ele>278.0</ele><time>2026-05-01T13:58:50Z</time></trkpt><trkpt lat="43.47217174537183" lon="5.953617006470865"><ele>278.0</ele><time>2026-05-01T13:58:51Z</time></trkpt><trkpt lat="43.47212527695794" lon="5.953692084577277"><ele>278.0</ele><time>2026-05-01T13:58:52Z</time></trkpt><trkpt lat="43.47208351410861" lon="5.953777128454656"><ele>278.0</ele><time>2026-05-01T13:58:53Z</time></trkpt><trkpt lat="43.4720411142276" lon="5.953877513127892"><ele>278.0</ele><time>2026-05-01T13:58:54Z</time></trkpt><trkpt lat="43.47199304446922" lon="5.953982958051882"><ele>278.0</ele><time>2026-05-01T13:58:55Z</time></trkpt><trkpt lat="43.47194563178021" lon="5.95408766473038"><ele>278.0</ele><time>2026-05-01T13:58:56Z</time></trkpt><trkpt lat="43.471900744021575" lon="5.954184606769061"><ele>278.0</ele><time>2026-05-01T13:58:57Z</time></trkpt><trkpt lat="43.47186755271376" lon="5.9542805805799555"><ele>278.0</ele><time>2026-05-01T13:58:58Z</time></trkpt><trkpt lat="43.47183367891633" lon="5.95437149746194"><ele>278.0</ele><time>2026-05-01T13:58:59Z</time></trkpt><trkpt lat="43.47179869308849" lon="5.954468969699852"><ele>278.0</ele><time>2026-05-01T13:59:00Z</time></trkpt><trkpt lat="43.471764778657146" lon="5.954577006697735"><ele>278.0</ele><time>2026-05-01T13:59:01Z</time></trkpt><trkpt lat="43.47173467159341" lon="5.954670236215297"><ele>278.0</ele><time>2026-05-01T13:59:02Z</time></trkpt><trkpt lat="43.471708022967746" lon="5.954752752497857"><ele>278.0</ele><time>2026-05-01T13:59:03Z</time></trkpt><trkpt lat="43.47165668951958" lon="5.95486309046541"><ele>278.0</ele><time>2026-05-01T13:59:05Z</time></trkpt><trkpt lat="43.47162428808314" lon="5.95495710497106"><ele>277.6666666666667</ele><time>2026-05-01T13:59:07Z</time></trkpt><trkpt lat="43.47159050407297" lon="5.955056789705918"><ele>277.33333333333337</ele><time>2026-05-01T13:59:10Z</time></trkpt><trkpt lat="43.471571342912945" lon="5.955157799199618"><ele>277.0</ele><time>2026-05-01T13:59:12Z</time></trkpt><trkpt lat="43.47153619252432" lon="5.9552516034703595"><ele>276.6666666666667</ele><time>2026-05-01T13:59:13Z</time></trkpt><trkpt lat="43.47149860251553" lon="5.955359844696142"><ele>276.3333333333333</ele><time>2026-05-01T13:59:14Z</time></trkpt><trkpt lat="43.471461179953714" lon="5.955466213401173"><ele>276.0</ele><time>2026-05-01T13:59:15Z</time></trkpt><trkpt lat="43.47142719992266" lon="5.955566050948686"><ele>276.0</ele><time>2026-05-01T13:59:16Z</time></trkpt><trkpt lat="43.471395109041424" lon="5.955661837014578"><ele>276.0</ele><time>2026-05-01T13:59:17Z</time></trkpt><trkpt lat="43.47135888988318" lon="5.955755930264516"><ele>276.0</ele><time>2026-05-01T13:59:18Z</time></trkpt><trkpt lat="43.471331929915486" lon="5.955848581894027"><ele>276.0</ele><time>2026-05-01T13:59:19Z</time></trkpt><trkpt lat="43.471298861045625" lon="5.955926769813657"><ele>276.0</ele><time>2026-05-01T13:59:20Z</time></trkpt><trkpt lat="43.47126638450471" lon="5.956009784439182"><ele>276.0</ele><time>2026-05-01T13:59:21Z</time></trkpt><trkpt lat="43.47123670203369" lon="5.956088773976914"><ele>276.0</ele><time>2026-05-01T13:59:22Z</time></trkpt><trkpt lat="43.4712019933424" lon="5.956166593009559"><ele>276.6666666666667</ele><time>2026-05-01T13:59:23Z</time></trkpt><trkpt lat="43.47116139145768" lon="5.956233812496318"><ele>277.3333333333333</ele><time>2026-05-01T13:59:24Z</time></trkpt><trkpt lat="43.471107214120934" lon="5.956355910765145"><ele>278.0</ele><time>2026-05-01T13:59:26Z</time></trkpt><trkpt lat="43.47104558469158" lon="5.956481421159214"><ele>278.66666666666663</ele><time>2026-05-01T13:59:28Z</time></trkpt><trkpt lat="43.47100367854218" lon="5.956561074418732"><ele>279.3333333333333</ele><time>2026-05-01T13:59:29Z</time></trkpt><trkpt lat="43.47096260326532" lon="5.9566395307893245"><ele>280.0</ele><time>2026-05-01T13:59:30Z</time></trkpt><trkpt lat="43.4709037743633" lon="5.956751450171731"><ele>280.0</ele><time>2026-05-01T13:59:32Z</time></trkpt><trkpt lat="43.4708615621616" lon="5.956822698959431"><ele>280.0</ele><time>2026-05-01T13:59:34Z</time></trkpt><trkpt lat="43.470764825131496" lon="5.956961604096315"><ele>280.0</ele><time>2026-05-01T13:59:36Z</time></trkpt><trkpt lat="43.470685115044816" lon="5.957056273472717"><ele>280.0</ele><time>2026-05-01T13:59:37Z</time></trkpt><trkpt lat="43.47059565049906" lon="5.957184615562725"><ele>280.0</ele><time>2026-05-01T13:59:38Z</time></trkpt><trkpt lat="43.47050778019363" lon="5.957306279968286"><ele>282.2</ele><time>2026-05-01T13:59:39Z</time></trkpt><trkpt lat="43.47043733749737" lon="5.957411001247908"><ele>284.4</ele><time>2026-05-01T13:59:40Z</time></trkpt><trkpt lat="43.47033733840531" lon="5.957498067903395"><ele>286.6</ele><time>2026-05-01T13:59:42Z</time></trkpt><trkpt lat="43.47022704859771" lon="5.957456399507995"><ele>288.8</ele><time>2026-05-01T13:59:44Z</time></trkpt><trkpt lat="43.47015366753123" lon="5.957472517837099"><ele>291.0</ele><time>2026-05-01T13:59:45Z</time></trkpt><trkpt lat="43.47006829080819" lon="5.957521875542228"><ele>290.0</ele><time>2026-05-01T13:59:45.999Z</time></trkpt><trkpt lat="43.46996220500204" lon="5.957592339614061"><ele>289.0</ele><time>2026-05-01T13:59:46.999Z</time></trkpt><trkpt lat="43.46985356394988" lon="5.957670127851029"><ele>288.0</ele><time>2026-05-01T13:59:47.999Z</time></trkpt><trkpt lat="43.469768250167995" lon="5.957753184331819"><ele>287.0</ele><time>2026-05-01T13:59:48.999Z</time></trkpt><trkpt lat="43.469698422216354" lon="5.957832913126762"><ele>286.0</ele><time>2026-05-01T13:59:49.999Z</time></trkpt><trkpt lat="43.46961845589178" lon="5.957886823143638"><ele>286.40000000000003</ele><time>2026-05-01T13:59:50.999Z</time></trkpt><trkpt lat="43.469516355156806" lon="5.957935075437507"><ele>286.8</ele><time>2026-05-01T13:59:51.999Z</time></trkpt><trkpt lat="43.469424996833865" lon="5.957963210931985"><ele>287.20000000000005</ele><time>2026-05-01T13:59:52.999Z</time></trkpt><trkpt lat="43.469348190385865" lon="5.95797929627669"><ele>287.6</ele><time>2026-05-01T13:59:53.999Z</time></trkpt><trkpt lat="43.469269087671535" lon="5.95795136250641"><ele>288.0</ele><time>2026-05-01T13:59:54.999Z</time></trkpt><trkpt lat="43.46917398249616" lon="5.957940961596311"><ele>288.0</ele><time>2026-05-01T13:59:55.999Z</time></trkpt><trkpt lat="43.469048482722414" lon="5.95790869733794"><ele>288.0</ele><time>2026-05-01T13:59:56.999Z</time></trkpt><trkpt lat="43.46891870586942" lon="5.957882633741602"><ele>288.0</ele><time>2026-05-01T13:59:57.999Z</time></trkpt><trkpt lat="43.468774236932205" lon="5.95787895769218"><ele>288.0</ele><time>2026-05-01T13:59:58.999Z</time></trkpt><trkpt lat="43.46863315924191" lon="5.957893133022513"><ele>287.75</ele><time>2026-05-01T13:59:59.999Z</time></trkpt><trkpt lat="43.46850962983795" lon="5.957897525395889"><ele>287.5</ele><time>2026-05-01T14:00:00.999Z</time></trkpt><trkpt lat="43.46839954442061" lon="5.957908170785697"><ele>287.25</ele><time>2026-05-01T14:00:01.999Z</time></trkpt><trkpt lat="43.46829150522617" lon="5.957940452456496"><ele>287.0</ele><time>2026-05-01T14:00:02.999Z</time></trkpt><trkpt lat="43.46819143596312" lon="5.957988728856106"><ele>287.0</ele><time>2026-05-01T14:00:03.999Z</time></trkpt><trkpt lat="43.468082009247546" lon="5.958067528742635"><ele>287.0</ele><time>2026-05-01T14:00:04.999Z</time></trkpt><trkpt lat="43.467980817123006" lon="5.958164175666092"><ele>287.0</ele><time>2026-05-01T14:00:05.999Z</time></trkpt><trkpt lat="43.46790336088428" lon="5.958261630779673"><ele>287.0</ele><time>2026-05-01T14:00:07Z</time></trkpt><trkpt lat="43.467851056903925" lon="5.9583445605634315"><ele>287.0</ele><time>2026-05-01T14:00:08Z</time></trkpt><trkpt lat="43.46776596559106" lon="5.958431721852486"><ele>288.5</ele><time>2026-05-01T14:00:10Z</time></trkpt><trkpt lat="43.467664748760036" lon="5.9585608817284275"><ele>290.0</ele><time>2026-05-01T14:00:12Z</time></trkpt><trkpt lat="43.46759530015566" lon="5.958644196616569"><ele>291.5</ele><time>2026-05-01T14:00:13Z</time></trkpt><trkpt lat="43.46753287961025" lon="5.958732651744741"><ele>293.0</ele><time>2026-05-01T14:00:14Z</time></trkpt><trkpt lat="43.46741037765954" lon="5.958862231129895"><ele>293.0</ele><time>2026-05-01T14:00:16Z</time></trkpt><trkpt lat="43.467351021355185" lon="5.958916466795125"><ele>293.0</ele><time>2026-05-01T14:00:17Z</time></trkpt><trkpt lat="43.467282684007294" lon="5.958952324078575"><ele>293.0</ele><time>2026-05-01T14:00:18Z</time></trkpt><trkpt lat="43.46720711452893" lon="5.958988576280219"><ele>293.0</ele><time>2026-05-01T14:00:19Z</time></trkpt><trkpt lat="43.46711777314605" lon="5.959015979386449"><ele>293.0</ele><time>2026-05-01T14:00:20Z</time></trkpt><trkpt lat="43.46703209525556" lon="5.959045103362439"><ele>293.0</ele><time>2026-05-01T14:00:21Z</time></trkpt><trkpt lat="43.46695589169423" lon="5.959069655769906"><ele>292.6666666666667</ele><time>2026-05-01T14:00:22Z</time></trkpt><trkpt lat="43.46689008996109" lon="5.9590871782495345"><ele>292.33333333333337</ele><time>2026-05-01T14:00:23Z</time></trkpt><trkpt lat="43.466780459485065" lon="5.959115332136108"><ele>292.0</ele><time>2026-05-01T14:00:25Z</time></trkpt><trkpt lat="43.46669799166936" lon="5.959117123955769"><ele>291.6666666666667</ele><time>2026-05-01T14:00:27Z</time></trkpt><trkpt lat="43.4666052546649" lon="5.959118483181477"><ele>291.3333333333333</ele><time>2026-05-01T14:00:29Z</time></trkpt><trkpt lat="43.46651810273412" lon="5.959118586353324"><ele>291.0</ele><time>2026-05-01T14:00:31Z</time></trkpt><trkpt lat="43.46642359356846" lon="5.9590747706355796"><ele>291.0</ele><time>2026-05-01T14:00:33Z</time></trkpt><trkpt lat="43.46633421422578" lon="5.958952234326061"><ele>291.0</ele><time>2026-05-01T14:00:35Z</time></trkpt><trkpt lat="43.46629713999073" lon="5.95886088064105"><ele>291.0</ele><time>2026-05-01T14:00:36Z</time></trkpt><trkpt lat="43.466263572268346" lon="5.958768195692683"><ele>291.0</ele><time>2026-05-01T14:00:37Z</time></trkpt><trkpt lat="43.4662344490096" lon="5.958668738899101"><ele>291.0</ele><time>2026-05-01T14:00:38Z</time></trkpt><trkpt lat="43.46622144834094" lon="5.958570265620746"><ele>291.0</ele><time>2026-05-01T14:00:39Z</time></trkpt><trkpt lat="43.466238715846224" lon="5.958473212678171"><ele>290.0</ele><time>2026-05-01T14:00:40Z</time></trkpt><trkpt lat="43.4662335998204" lon="5.958351157186368"><ele>289.0</ele><time>2026-05-01T14:00:41Z</time></trkpt><trkpt lat="43.46625385659875" lon="5.9581953179808975"><ele>288.0</ele><time>2026-05-01T14:00:42Z</time></trkpt><trkpt lat="43.466265929089275" lon="5.958045571008586"><ele>287.0</ele><time>2026-05-01T14:00:43Z</time></trkpt><trkpt lat="43.46626889877376" lon="5.9579157862394085"><ele>286.0</ele><time>2026-05-01T14:00:44Z</time></trkpt><trkpt lat="43.46626089404784" lon="5.957801162197054"><ele>285.99999999999994</ele><time>2026-05-01T14:00:45Z</time></trkpt><trkpt lat="43.46623692110294" lon="5.957708720827324"><ele>286.0</ele><time>2026-05-01T14:00:46Z</time></trkpt><trkpt lat="43.46618570669861" lon="5.957641682868228"><ele>286.0</ele><time>2026-05-01T14:00:47Z</time></trkpt><trkpt lat="43.46613596650629" lon="5.957578396115849"><ele>286.0</ele><time>2026-05-01T14:00:48Z</time></trkpt><trkpt lat="43.46607576658641" lon="5.9575471276020275"><ele>286.0</ele><time>2026-05-01T14:00:49Z</time></trkpt><trkpt lat="43.46600994533941" lon="5.9575536791640475"><ele>285.99999999999994</ele><time>2026-05-01T14:00:50Z</time></trkpt><trkpt lat="43.46594424040674" lon="5.9576313720262455"><ele>286.0</ele><time>2026-05-01T14:00:52Z</time></trkpt><trkpt lat="43.46582067714954" lon="5.957735692201578"><ele>286.0</ele><time>2026-05-01T14:00:54Z</time></trkpt><trkpt lat="43.46572383642921" lon="5.957795481604282"><ele>286.0</ele><time>2026-05-01T14:00:55Z</time></trkpt><trkpt lat="43.465659335766055" lon="5.957832998175988"><ele>286.0</ele><time>2026-05-01T14:00:56Z</time></trkpt><trkpt lat="43.46558027942877" lon="5.957856180785561"><ele>286.0</ele><time>2026-05-01T14:00:57Z</time></trkpt><trkpt lat="43.46551601932533" lon="5.957869263475524"><ele>286.0</ele><time>2026-05-01T14:00:58Z</time></trkpt><trkpt lat="43.465397937613815" lon="5.95786216904721"><ele>286.0</ele><time>2026-05-01T14:01:00Z</time></trkpt><trkpt lat="43.46530154566432" lon="5.9578530104222605"><ele>286.16666666666663</ele><time>2026-05-01T14:01:01Z</time></trkpt><trkpt lat="43.465231876385786" lon="5.957809439762194"><ele>286.3333333333333</ele><time>2026-05-01T14:01:02Z</time></trkpt><trkpt lat="43.46518597531528" lon="5.957732490525878"><ele>286.5</ele><time>2026-05-01T14:01:03Z</time></trkpt><trkpt lat="43.465111188358456" lon="5.957680857670082"><ele>286.6666666666667</ele><time>2026-05-01T14:01:04Z</time></trkpt><trkpt lat="43.46505511116616" lon="5.957632419971954"><ele>286.83333333333337</ele><time>2026-05-01T14:01:05Z</time></trkpt><trkpt lat="43.46496836534094" lon="5.95762316569561"><ele>287.0</ele><time>2026-05-01T14:01:07Z</time></trkpt><trkpt lat="43.46484048509444" lon="5.957582754034296"><ele>287.0</ele><time>2026-05-01T14:01:09Z</time></trkpt><trkpt lat="43.46475117954042" lon="5.957583058134565"><ele>287.0</ele><time>2026-05-01T14:01:10Z</time></trkpt><trkpt lat="43.4646872203908" lon="5.957585612385172"><ele>287.0</ele><time>2026-05-01T14:01:11Z</time></trkpt><trkpt lat="43.46458121656962" lon="5.957546251920775"><ele>287.0</ele><time>2026-05-01T14:01:13Z</time></trkpt><trkpt lat="43.464526179607404" lon="5.957492541308485"><ele>287.0</ele><time>2026-05-01T14:01:14Z</time></trkpt><trkpt lat="43.46447390869126" lon="5.957419366614205"><ele>287.0</ele><time>2026-05-01T14:01:15Z</time></trkpt><trkpt lat="43.464412312186376" lon="5.957350151569024"><ele>286.6</ele><time>2026-05-01T14:01:16Z</time></trkpt><trkpt lat="43.46433692164412" lon="5.957264434453362"><ele>286.2</ele><time>2026-05-01T14:01:17Z</time></trkpt><trkpt lat="43.46428203355347" lon="5.957182004772675"><ele>285.8</ele><time>2026-05-01T14:01:18Z</time></trkpt><trkpt lat="43.46419544200717" lon="5.957106119422259"><ele>285.4</ele><time>2026-05-01T14:01:20Z</time></trkpt><trkpt lat="43.46411481993445" lon="5.9571606624314"><ele>285.0</ele><time>2026-05-01T14:01:20.999Z</time></trkpt><trkpt lat="43.464046416689015" lon="5.957218938218299"><ele>285.0</ele><time>2026-05-01T14:01:21.999Z</time></trkpt><trkpt lat="43.4639599070082" lon="5.957257343080391"><ele>285.0</ele><time>2026-05-01T14:01:23.999Z</time></trkpt><trkpt lat="43.46387450454014" lon="5.957170009783766"><ele>285.0</ele><time>2026-05-01T14:01:25.999Z</time></trkpt><trkpt lat="43.463811117291186" lon="5.957033150509113"><ele>285.0</ele><time>2026-05-01T14:01:26.999Z</time></trkpt><trkpt lat="43.46372850977898" lon="5.956951385389754"><ele>285.0</ele><time>2026-05-01T14:01:27.999Z</time></trkpt><trkpt lat="43.4636516849515" lon="5.956869172742187"><ele>282.6666666666667</ele><time>2026-05-01T14:01:28.999Z</time></trkpt><trkpt lat="43.46353834007825" lon="5.95680356205194"><ele>280.33333333333337</ele><time>2026-05-01T14:01:29.999Z</time></trkpt><trkpt lat="43.46338860226417" lon="5.956708099172297"><ele>278.0</ele><time>2026-05-01T14:01:30.999Z</time></trkpt><trkpt lat="43.46323361241246" lon="5.956621315212885"><ele>275.33333333333337</ele><time>2026-05-01T14:01:31.999Z</time></trkpt><trkpt lat="43.46306482757339" lon="5.956519520933501"><ele>272.6666666666667</ele><time>2026-05-01T14:01:32.999Z</time></trkpt><trkpt lat="43.46290887146797" lon="5.956419059377896"><ele>270.0</ele><time>2026-05-01T14:01:33.999Z</time></trkpt><trkpt lat="43.46276478923912" lon="5.956354013890792"><ele>269.5</ele><time>2026-05-01T14:01:34.999Z</time></trkpt><trkpt lat="43.462628618978606" lon="5.956301332027215"><ele>269.0</ele><time>2026-05-01T14:01:35.999Z</time></trkpt><trkpt lat="43.462488976130025" lon="5.956273204189249"><ele>268.5</ele><time>2026-05-01T14:01:36.999Z</time></trkpt><trkpt lat="43.46233191758307" lon="5.956214119802863"><ele>268.0</ele><time>2026-05-01T14:01:37.999Z</time></trkpt><trkpt lat="43.46217902338256" lon="5.95616075814957"><ele>268.66666666666663</ele><time>2026-05-01T14:01:38.999Z</time></trkpt><trkpt lat="43.46202036691117" lon="5.956089024470138"><ele>269.3333333333333</ele><time>2026-05-01T14:01:39.999Z</time></trkpt><trkpt lat="43.461871677890734" lon="5.95601593858557"><ele>270.0</ele><time>2026-05-01T14:01:40.999Z</time></trkpt><trkpt lat="43.461737171462346" lon="5.955952416573211"><ele>270.0</ele><time>2026-05-01T14:01:41.999Z</time></trkpt><trkpt lat="43.46163797241833" lon="5.955903075471553"><ele>270.0</ele><time>2026-05-01T14:01:42.999Z</time></trkpt><trkpt lat="43.46155195802246" lon="5.955879300343927"><ele>270.0</ele><time>2026-05-01T14:01:43.999Z</time></trkpt><trkpt lat="43.46147131518168" lon="5.955805385778008"><ele>270.0</ele><time>2026-05-01T14:01:45.999Z</time></trkpt><trkpt lat="43.46139524088097" lon="5.955784912438345"><ele>270.0</ele><time>2026-05-01T14:01:48.999Z</time></trkpt><trkpt lat="43.461327908567355" lon="5.955803821264667"><ele>270.0</ele><time>2026-05-01T14:01:50.999Z</time></trkpt><trkpt lat="43.46128585879723" lon="5.955729379262475"><ele>273.0</ele><time>2026-05-01T14:01:51.999Z</time></trkpt><trkpt lat="43.46119275783042" lon="5.955694943803585"><ele>276.0</ele><time>2026-05-01T14:01:52.999Z</time></trkpt><trkpt lat="43.4610776231479" lon="5.955846979427811"><ele>279.0</ele><time>2026-05-01T14:01:53.999Z</time></trkpt><trkpt lat="43.46096118736899" lon="5.955870748656499"><ele>282.0</ele><time>2026-05-01T14:01:54.999Z</time></trkpt><trkpt lat="43.460869812406834" lon="5.95588311996956"><ele>282.3333333333333</ele><time>2026-05-01T14:01:55.999Z</time></trkpt><trkpt lat="43.460741119298554" lon="5.955488794631912"><ele>282.66666666666663</ele><time>2026-05-01T14:01:56.999Z</time></trkpt><trkpt lat="43.46065092761983" lon="5.955390891753687"><ele>283.0</ele><time>2026-05-01T14:01:57.999Z</time></trkpt><trkpt lat="43.46055582859953" lon="5.955294439080278"><ele>283.0</ele><time>2026-05-01T14:01:58.999Z</time></trkpt><trkpt lat="43.46047791480679" lon="5.955202801074879"><ele>283.0</ele><time>2026-05-01T14:01:59.999Z</time></trkpt><trkpt lat="43.460390259740805" lon="5.955115195486235"><ele>283.0</ele><time>2026-05-01T14:02:00.999Z</time></trkpt><trkpt lat="43.46030758487344" lon="5.955092815052861"><ele>283.0</ele><time>2026-05-01T14:02:01.999Z</time></trkpt><trkpt lat="43.460213809802" lon="5.955050209474037"><ele>283.0</ele><time>2026-05-01T14:02:02.999Z</time></trkpt><trkpt lat="43.46010688008063" lon="5.955022141981663"><ele>285.0</ele><time>2026-05-01T14:02:03.999Z</time></trkpt><trkpt lat="43.460026342286405" lon="5.955023041634351"><ele>287.0</ele><time>2026-05-01T14:02:04.999Z</time></trkpt><trkpt lat="43.459957689904996" lon="5.9550421212138485"><ele>289.0</ele><time>2026-05-01T14:02:05.999Z</time></trkpt><trkpt lat="43.45986710936102" lon="5.955090194109221"><ele>291.0</ele><time>2026-05-01T14:02:06.999Z</time></trkpt><trkpt lat="43.45978287090963" lon="5.955166224548061"><ele>293.0</ele><time>2026-05-01T14:02:07.999Z</time></trkpt><trkpt lat="43.45971632190174" lon="5.955239212533301"><ele>295.0</ele><time>2026-05-01T14:02:08.999Z</time></trkpt><trkpt lat="43.45965494140055" lon="5.955310939232193"><ele>296.8</ele><time>2026-05-01T14:02:09.999Z</time></trkpt><trkpt lat="43.45962011779128" lon="5.955395087978108"><ele>298.6</ele><time>2026-05-01T14:02:10.999Z</time></trkpt><trkpt lat="43.45957241381146" lon="5.955467400263617"><ele>300.4</ele><time>2026-05-01T14:02:11.999Z</time></trkpt><trkpt lat="43.45944629031945" lon="5.955528460278151"><ele>302.2</ele><time>2026-05-01T14:02:13.999Z</time></trkpt><trkpt lat="43.459342428101046" lon="5.955565311864722"><ele>304.0</ele><time>2026-05-01T14:02:14.999Z</time></trkpt><trkpt lat="43.459248983489104" lon="5.9555939353070855"><ele>304.4</ele><time>2026-05-01T14:02:15.999Z</time></trkpt><trkpt lat="43.45917457791478" lon="5.955587423433647"><ele>304.79999999999995</ele><time>2026-05-01T14:02:16.999Z</time></trkpt><trkpt lat="43.45907720911493" lon="5.95558086600594"><ele>305.20000000000005</ele><time>2026-05-01T14:02:17.999Z</time></trkpt><trkpt lat="43.458986218822034" lon="5.9556052667060335"><ele>305.6</ele><time>2026-05-01T14:02:18.999Z</time></trkpt><trkpt lat="43.45889509052118" lon="5.955622419288277"><ele>306.0</ele><time>2026-05-01T14:02:19.999Z</time></trkpt><trkpt lat="43.45876965498421" lon="5.955665034780248"><ele>303.75</ele><time>2026-05-01T14:02:20.999Z</time></trkpt><trkpt lat="43.45864013309033" lon="5.955746326263682"><ele>301.5</ele><time>2026-05-01T14:02:21.999Z</time></trkpt><trkpt lat="43.458520023782214" lon="5.9557940467639945"><ele>299.25</ele><time>2026-05-01T14:02:22.999Z</time></trkpt><trkpt lat="43.458419650111324" lon="5.955841442292786"><ele>297.0</ele><time>2026-05-01T14:02:23.999Z</time></trkpt><trkpt lat="43.45833429403552" lon="5.955900270524963"><ele>299.5</ele><time>2026-05-01T14:02:24.999Z</time></trkpt><trkpt lat="43.45823435262014" lon="5.955954669489383"><ele>302.0</ele><time>2026-05-01T14:02:25.999Z</time></trkpt><trkpt lat="43.4581102314667" lon="5.956003911355022"><ele>304.5</ele><time>2026-05-01T14:02:26.999Z</time></trkpt><trkpt lat="43.45799499004005" lon="5.95606770347971"><ele>307.0</ele><time>2026-05-01T14:02:27.999Z</time></trkpt><trkpt lat="43.457893215161995" lon="5.956115388147725"><ele>307.0</ele><time>2026-05-01T14:02:28.999Z</time></trkpt><trkpt lat="43.457778436573065" lon="5.956162176738715"><ele>307.0</ele><time>2026-05-01T14:02:29.999Z</time></trkpt><trkpt lat="43.457654773562595" lon="5.956207275530335"><ele>307.0</ele><time>2026-05-01T14:02:30.999Z</time></trkpt><trkpt lat="43.45754556678611" lon="5.956236291771928"><ele>307.0</ele><time>2026-05-01T14:02:31.999Z</time></trkpt><trkpt lat="43.457449993741946" lon="5.956256611817749"><ele>307.0</ele><time>2026-05-01T14:02:32.999Z</time></trkpt><trkpt lat="43.457349363014735" lon="5.9562767784441375"><ele>307.0</ele><time>2026-05-01T14:02:33.999Z</time></trkpt><trkpt lat="43.457243771019876" lon="5.956310054120038"><ele>307.0</ele><time>2026-05-01T14:02:34.999Z</time></trkpt><trkpt lat="43.457133085682344" lon="5.956342604942539"><ele>307.0</ele><time>2026-05-01T14:02:35.999Z</time></trkpt><trkpt lat="43.45702226509482" lon="5.956370985401188"><ele>307.0</ele><time>2026-05-01T14:02:36.999Z</time></trkpt><trkpt lat="43.456935696075234" lon="5.9563786473663125"><ele>306.8</ele><time>2026-05-01T14:02:37.999Z</time></trkpt><trkpt lat="43.45685666756282" lon="5.956409777305196"><ele>306.6</ele><time>2026-05-01T14:02:38.999Z</time></trkpt><trkpt lat="43.456776210338035" lon="5.956452914376375"><ele>306.40000000000003</ele><time>2026-05-01T14:02:39.999Z</time></trkpt><trkpt lat="43.45670451679157" lon="5.956538998356709"><ele>306.2</ele><time>2026-05-01T14:02:40.999Z</time></trkpt><trkpt lat="43.456627706849886" lon="5.95663219895514"><ele>306.0</ele><time>2026-05-01T14:02:41.999Z</time></trkpt><trkpt lat="43.4565440003475" lon="5.956727999877634"><ele>308.6</ele><time>2026-05-01T14:02:42.999Z</time></trkpt><trkpt lat="43.45645922100259" lon="5.9568028865329525"><ele>311.20000000000005</ele><time>2026-05-01T14:02:43.999Z</time></trkpt><trkpt lat="43.45638799076709" lon="5.9568497714537925"><ele>313.79999999999995</ele><time>2026-05-01T14:02:44.999Z</time></trkpt><trkpt lat="43.45629332530329" lon="5.956864818996059"><ele>316.4</ele><time>2026-05-01T14:02:45.999Z</time></trkpt><trkpt lat="43.45619640319508" lon="5.9568990510499376"><ele>319.0</ele><time>2026-05-01T14:02:46.999Z</time></trkpt><trkpt lat="43.45610940478418" lon="5.956926437007518"><ele>319.79999999999995</ele><time>2026-05-01T14:02:47.999Z</time></trkpt><trkpt lat="43.45602249932388" lon="5.956950912962758"><ele>320.59999999999997</ele><time>2026-05-01T14:02:48.999Z</time></trkpt><trkpt lat="43.45591027358802" lon="5.957041223521755"><ele>321.4</ele><time>2026-05-01T14:02:50.999Z</time></trkpt><trkpt lat="43.455837775889016" lon="5.957123689019498"><ele>322.2</ele><time>2026-05-01T14:02:51.999Z</time></trkpt><trkpt lat="43.45575938032423" lon="5.957222309288476"><ele>323.0</ele><time>2026-05-01T14:02:52.999Z</time></trkpt><trkpt lat="43.4557275658281" lon="5.957344758830775"><ele>323.0</ele><time>2026-05-01T14:02:53.999Z</time></trkpt><trkpt lat="43.45569907719825" lon="5.957442934011116"><ele>323.0</ele><time>2026-05-01T14:02:54.999Z</time></trkpt><trkpt lat="43.45562335702977" lon="5.957484124150938"><ele>323.0</ele><time>2026-05-01T14:02:56.999Z</time></trkpt><trkpt lat="43.45548140450006" lon="5.957450320612473"><ele>323.0</ele><time>2026-05-01T14:02:58.999Z</time></trkpt><trkpt lat="43.45538359474839" lon="5.957449040798955"><ele>323.0</ele><time>2026-05-01T14:02:59.999Z</time></trkpt><trkpt lat="43.45528330332035" lon="5.95747089061652"><ele>321.59999999999997</ele><time>2026-05-01T14:03:00.999Z</time></trkpt><trkpt lat="43.455187688693684" lon="5.957474074546344"><ele>320.2</ele><time>2026-05-01T14:03:01.999Z</time></trkpt><trkpt lat="43.455105342129706" lon="5.95746463227767"><ele>318.8</ele><time>2026-05-01T14:03:02.999Z</time></trkpt><trkpt lat="43.455019968662775" lon="5.957477226756887"><ele>317.4</ele><time>2026-05-01T14:03:03.999Z</time></trkpt><trkpt lat="43.45494107306002" lon="5.95748264573577"><ele>316.0</ele><time>2026-05-01T14:03:04.999Z</time></trkpt><trkpt lat="43.454811217776516" lon="5.957524867161044"><ele>316.16666666666663</ele><time>2026-05-01T14:03:06.999Z</time></trkpt><trkpt lat="43.45474454448915" lon="5.957568986978626"><ele>316.3333333333333</ele><time>2026-05-01T14:03:07.999Z</time></trkpt><trkpt lat="43.45467405131052" lon="5.957638031814735"><ele>316.5</ele><time>2026-05-01T14:03:08.999Z</time></trkpt><trkpt lat="43.454590930440496" lon="5.957721255306559"><ele>316.6666666666667</ele><time>2026-05-01T14:03:09.999Z</time></trkpt><trkpt lat="43.45452826434593" lon="5.957783363421055"><ele>316.83333333333337</ele><time>2026-05-01T14:03:10.999Z</time></trkpt><trkpt lat="43.45445537474566" lon="5.957833358308074"><ele>317.0</ele><time>2026-05-01T14:03:11.999Z</time></trkpt><trkpt lat="43.454400603287134" lon="5.957907376331681"><ele>317.0</ele><time>2026-05-01T14:03:12.999Z</time></trkpt><trkpt lat="43.454348558778605" lon="5.957978092058426"><ele>317.0</ele><time>2026-05-01T14:03:13.999Z</time></trkpt><trkpt lat="43.45429665415971" lon="5.958043525359291"><ele>317.0</ele><time>2026-05-01T14:03:14.999Z</time></trkpt><trkpt lat="43.45418892648933" lon="5.958096891159681"><ele>317.0</ele><time>2026-05-01T14:03:16.999Z</time></trkpt><trkpt lat="43.454067851208855" lon="5.958098543505524"><ele>317.0</ele><time>2026-05-01T14:03:18.999Z</time></trkpt><trkpt lat="43.4539542504433" lon="5.9580443682304445"><ele>317.0</ele><time>2026-05-01T14:03:20.999Z</time></trkpt><trkpt lat="43.45386268378989" lon="5.958030299672461"><ele>317.0</ele><time>2026-05-01T14:03:21.999Z</time></trkpt><trkpt lat="43.45375875314232" lon="5.958052895369459"><ele>317.0</ele><time>2026-05-01T14:03:22.999Z</time></trkpt><trkpt lat="43.453661953820266" lon="5.9580370945921555"><ele>317.0</ele><time>2026-05-01T14:03:23.999Z</time></trkpt><trkpt lat="43.4535710045126" lon="5.958047021135517"><ele>317.0</ele><time>2026-05-01T14:03:24.999Z</time></trkpt><trkpt lat="43.4534745583809" lon="5.958054335706009"><ele>318.6</ele><time>2026-05-01T14:03:25.999Z</time></trkpt><trkpt lat="43.45336912487693" lon="5.958039897413576"><ele>320.2</ele><time>2026-05-01T14:03:26.999Z</time></trkpt><trkpt lat="43.45328878121921" lon="5.958010485642324"><ele>321.8</ele><time>2026-05-01T14:03:27.999Z</time></trkpt><trkpt lat="43.453189112865495" lon="5.957958393138587"><ele>323.4</ele><time>2026-05-01T14:03:28.999Z</time></trkpt><trkpt lat="43.453068072017636" lon="5.9578980284893035"><ele>325.0</ele><time>2026-05-01T14:03:29.999Z</time></trkpt><trkpt lat="43.45296408374057" lon="5.957826641732091"><ele>324.8</ele><time>2026-05-01T14:03:30.999Z</time></trkpt><trkpt lat="43.452847693654334" lon="5.957764507347317"><ele>324.6</ele><time>2026-05-01T14:03:31.999Z</time></trkpt><trkpt lat="43.452741271955084" lon="5.957668666497493"><ele>324.4</ele><time>2026-05-01T14:03:32.999Z</time></trkpt><trkpt lat="43.45265298584314" lon="5.957603684981394"><ele>324.2</ele><time>2026-05-01T14:03:33.999Z</time></trkpt><trkpt lat="43.45257598152223" lon="5.95754028041862"><ele>324.0</ele><time>2026-05-01T14:03:34.999Z</time></trkpt><trkpt lat="43.45251212056226" lon="5.957496445229786"><ele>324.0</ele><time>2026-05-01T14:03:35.999Z</time></trkpt><trkpt lat="43.45241075551779" lon="5.957472150257459"><ele>324.0</ele><time>2026-05-01T14:03:37.999Z</time></trkpt><trkpt lat="43.45228683143536" lon="5.957509440481916"><ele>324.0</ele><time>2026-05-01T14:03:39.999Z</time></trkpt><trkpt lat="43.45217576460935" lon="5.957469691860701"><ele>324.0</ele><time>2026-05-01T14:03:41.999Z</time></trkpt><trkpt lat="43.45209906876699" lon="5.957514703079842"><ele>324.0</ele><time>2026-05-01T14:03:42.999Z</time></trkpt><trkpt lat="43.45200565320835" lon="5.957600484642365"><ele>324.8333333333333</ele><time>2026-05-01T14:03:44.999Z</time></trkpt><trkpt lat="43.45199671132038" lon="5.9577177889079"><ele>325.6666666666667</ele><time>2026-05-01T14:03:46.999Z</time></trkpt><trkpt lat="43.451971665394176" lon="5.957843193662307"><ele>326.5</ele><time>2026-05-01T14:03:50.999Z</time></trkpt><trkpt lat="43.45194658639785" lon="5.957951700703314"><ele>327.33333333333337</ele><time>2026-05-01T14:03:52.999Z</time></trkpt><trkpt lat="43.45191983819212" lon="5.958039578147645"><ele>328.1666666666667</ele><time>2026-05-01T14:03:53.999Z</time></trkpt><trkpt lat="43.451887953612186" lon="5.958154777654529"><ele>329.0</ele><time>2026-05-01T14:03:54.999Z</time></trkpt><trkpt lat="43.451853420061205" lon="5.958297919170084"><ele>328.0</ele><time>2026-05-01T14:03:55.999Z</time></trkpt><trkpt lat="43.45182112962936" lon="5.9584654707060345"><ele>327.0</ele><time>2026-05-01T14:03:56.999Z</time></trkpt><trkpt lat="43.45179692818865" lon="5.958611056552442"><ele>326.0</ele><time>2026-05-01T14:03:57.999Z</time></trkpt><trkpt lat="43.45177694102459" lon="5.958745476032187"><ele>325.0</ele><time>2026-05-01T14:03:58.999Z</time></trkpt><trkpt lat="43.45175839646597" lon="5.958874285065987"><ele>324.0</ele><time>2026-05-01T14:03:59.999Z</time></trkpt><trkpt lat="43.451745915640224" lon="5.9589840939981675"><ele>324.0</ele><time>2026-05-01T14:04:00.999Z</time></trkpt><trkpt lat="43.45173219165597" lon="5.95912861323778"><ele>324.0</ele><time>2026-05-01T14:04:01.999Z</time></trkpt><trkpt lat="43.4517232153252" lon="5.959285657868559"><ele>324.0</ele><time>2026-05-01T14:04:02.999Z</time></trkpt><trkpt lat="43.451713895870114" lon="5.959464781941319"><ele>324.0</ele><time>2026-05-01T14:04:03.999Z</time></trkpt><trkpt lat="43.45170232395921" lon="5.959633452635446"><ele>323.6</ele><time>2026-05-01T14:04:04.999Z</time></trkpt><trkpt lat="43.45169138133239" lon="5.95979070395565"><ele>323.2</ele><time>2026-05-01T14:04:05.999Z</time></trkpt><trkpt lat="43.45167950686296" lon="5.959938673743156"><ele>322.8</ele><time>2026-05-01T14:04:06.999Z</time></trkpt><trkpt lat="43.45166635392072" lon="5.960084099432213"><ele>322.40000000000003</ele><time>2026-05-01T14:04:07.999Z</time></trkpt><trkpt lat="43.45165265221332" lon="5.960217836917931"><ele>322.0</ele><time>2026-05-01T14:04:08.999Z</time></trkpt><trkpt lat="43.451638489506976" lon="5.960341525184444"><ele>321.8333333333333</ele><time>2026-05-01T14:04:09.999Z</time></trkpt><trkpt lat="43.45162383231211" lon="5.960445749038689"><ele>321.66666666666663</ele><time>2026-05-01T14:04:10.999Z</time></trkpt><trkpt lat="43.451603656205705" lon="5.96055496919709"><ele>321.5</ele><time>2026-05-01T14:04:11.999Z</time></trkpt><trkpt lat="43.45157123057481" lon="5.960672514608312"><ele>321.3333333333333</ele><time>2026-05-01T14:04:12.999Z</time></trkpt><trkpt lat="43.45153722889166" lon="5.960774715723177"><ele>321.1666666666667</ele><time>2026-05-01T14:04:13.999Z</time></trkpt><trkpt lat="43.45149571193623" lon="5.960889765423959"><ele>321.0</ele><time>2026-05-01T14:04:14.999Z</time></trkpt><trkpt lat="43.45145394468827" lon="5.960994979756026"><ele>322.0</ele><time>2026-05-01T14:04:15.999Z</time></trkpt><trkpt lat="43.45139973660846" lon="5.961127160750945"><ele>323.0</ele><time>2026-05-01T14:04:16.999Z</time></trkpt><trkpt lat="43.451361041854426" lon="5.961254164109432"><ele>324.0</ele><time>2026-05-01T14:04:17.999Z</time></trkpt><trkpt lat="43.45129325782603" lon="5.96136334406964"><ele>325.0</ele><time>2026-05-01T14:04:18.999Z</time></trkpt><trkpt lat="43.451183839827955" lon="5.961265571893876"><ele>326.0</ele><time>2026-05-01T14:04:19.999Z</time></trkpt><trkpt lat="43.45107794419809" lon="5.961318391243278"><ele>327.4</ele><time>2026-05-01T14:04:21.999Z</time></trkpt><trkpt lat="43.45098934452703" lon="5.961343922483447"><ele>328.8</ele><time>2026-05-01T14:04:23.999Z</time></trkpt><trkpt lat="43.450925782042574" lon="5.961361448827915"><ele>330.2</ele><time>2026-05-01T14:04:24.999Z</time></trkpt><trkpt lat="43.45083006519388" lon="5.961387841234309"><ele>331.59999999999997</ele><time>2026-05-01T14:04:26.999Z</time></trkpt><trkpt lat="43.45084509076248" lon="5.961500512242289"><ele>333.0</ele><time>2026-05-01T14:04:30.999Z</time></trkpt><trkpt lat="43.450879827487746" lon="5.96173121839404"><ele>333.0</ele><time>2026-05-01T14:04:31.999Z</time></trkpt><trkpt lat="43.45094711752272" lon="5.961665215883724"><ele>333.0</ele><time>2026-05-01T14:09:00.001Z</time></trkpt><trkpt lat="43.45100594216061" lon="5.961625315010846"><ele>333.0</ele><time>2026-05-01T14:09:02.001Z</time></trkpt><trkpt lat="43.45107979493868" lon="5.961605526249784"><ele>333.0</ele><time>2026-05-01T14:09:04.001Z</time></trkpt><trkpt lat="43.45113923362988" lon="5.96157059977527"><ele>333.0</ele><time>2026-05-01T14:09:06.001Z</time></trkpt><trkpt lat="43.45120566210749" lon="5.961497518959949"><ele>333.0</ele><time>2026-05-01T14:09:08.001Z</time></trkpt><trkpt lat="43.451265282480314" lon="5.961382323801068"><ele>331.59999999999997</ele><time>2026-05-01T14:09:10.001Z</time></trkpt><trkpt lat="43.4513433587942" lon="5.96126337586449"><ele>330.2</ele><time>2026-05-01T14:09:12.001Z</time></trkpt><trkpt lat="43.45140679101134" lon="5.961210741960585"><ele>328.8</ele><time>2026-05-01T14:09:14.001Z</time></trkpt><trkpt lat="43.45150832203693" lon="5.96135744989952"><ele>327.4</ele><time>2026-05-01T14:09:16.001Z</time></trkpt><trkpt lat="43.451573970939556" lon="5.9614508471461285"><ele>326.0</ele><time>2026-05-01T14:09:17.001Z</time></trkpt><trkpt lat="43.45165959172079" lon="5.961561925993992"><ele>326.0</ele><time>2026-05-01T14:09:18.001Z</time></trkpt><trkpt lat="43.4517407122699" lon="5.961654953183233"><ele>326.0</ele><time>2026-05-01T14:09:19.001Z</time></trkpt><trkpt lat="43.45180182865326" lon="5.9617105771769365"><ele>326.0</ele><time>2026-05-01T14:09:20.001Z</time></trkpt><trkpt lat="43.4517025037165" lon="5.961759497710416"><ele>326.0</ele><time>2026-05-01T14:10:26Z</time></trkpt><trkpt lat="43.4515625866223" lon="5.961801903101"><ele>326.0</ele><time>2026-05-01T14:10:28Z</time></trkpt><trkpt lat="43.451486628062725" lon="5.961830855505174"><ele>328.8</ele><time>2026-05-01T14:10:29Z</time></trkpt><trkpt lat="43.45139800303374" lon="5.961866424192637"><ele>331.6</ele><time>2026-05-01T14:10:30Z</time></trkpt><trkpt lat="43.45129529345626" lon="5.96190764575846"><ele>334.4</ele><time>2026-05-01T14:10:31Z</time></trkpt><trkpt lat="43.45118798959619" lon="5.961954281569083"><ele>337.2</ele><time>2026-05-01T14:10:32Z</time></trkpt><trkpt lat="43.45108450615138" lon="5.962002095416258"><ele>340.0</ele><time>2026-05-01T14:10:33Z</time></trkpt><trkpt lat="43.451007365284596" lon="5.962060443849987"><ele>340.5</ele><time>2026-05-01T14:10:34Z</time></trkpt><trkpt lat="43.45094178803219" lon="5.9620912431854896"><ele>341.0</ele><time>2026-05-01T14:10:35.001Z</time></trkpt><trkpt lat="43.45086389181172" lon="5.962131913828491"><ele>341.5</ele><time>2026-05-01T14:10:36.001Z</time></trkpt><trkpt lat="43.45077358455192" lon="5.962205681723646"><ele>342.0</ele><time>2026-05-01T14:10:38.001Z</time></trkpt><trkpt lat="43.450705814501745" lon="5.96228468604137"><ele>342.5</ele><time>2026-05-01T14:10:41.001Z</time></trkpt><trkpt lat="43.45066032922376" lon="5.962374914932237"><ele>343.0</ele><time>2026-05-01T14:10:43.001Z</time></trkpt><trkpt lat="43.450605664207195" lon="5.962489096025999"><ele>344.16666666666663</ele><time>2026-05-01T14:10:46.001Z</time></trkpt><trkpt lat="43.45056295900198" lon="5.962572970258067"><ele>345.3333333333333</ele><time>2026-05-01T14:10:47.001Z</time></trkpt><trkpt lat="43.45050879532354" lon="5.962697084458817"><ele>346.5</ele><time>2026-05-01T14:10:48.001Z</time></trkpt><trkpt lat="43.450461144228925" lon="5.9627670066265726"><ele>347.6666666666667</ele><time>2026-05-01T14:10:49.001Z</time></trkpt><trkpt lat="43.45042151136711" lon="5.962870486998763"><ele>348.83333333333337</ele><time>2026-05-01T14:10:50.001Z</time></trkpt><trkpt lat="43.45039254928663" lon="5.962959916593997"><ele>350.0</ele><time>2026-05-01T14:10:51.001Z</time></trkpt><trkpt lat="43.450397380177726" lon="5.963049388269182"><ele>350.2</ele><time>2026-05-01T14:10:52.001Z</time></trkpt><trkpt lat="43.45042702545499" lon="5.963248122012244"><ele>350.4</ele><time>2026-05-01T14:10:54Z</time></trkpt><trkpt lat="43.45040059854383" lon="5.963367863641089"><ele>350.6</ele><time>2026-05-01T14:10:55Z</time></trkpt><trkpt lat="43.4503763266156" lon="5.9634776201731095"><ele>350.8</ele><time>2026-05-01T14:10:56Z</time></trkpt><trkpt lat="43.45035622788622" lon="5.963619574314407"><ele>351.0</ele><time>2026-05-01T14:10:58Z</time></trkpt><trkpt lat="43.45031969441189" lon="5.963701403997469"><ele>351.0</ele><time>2026-05-01T14:11:00Z</time></trkpt><trkpt lat="43.450011607397464" lon="5.963557758993826"><ele>351.0</ele><time>2026-05-01T14:11:01Z</time></trkpt><trkpt lat="43.44997000327208" lon="5.963484249143673"><ele>351.0</ele><time>2026-05-01T14:11:02Z</time></trkpt><trkpt lat="43.449913590034726" lon="5.963389541998916"><ele>351.3333333333333</ele><time>2026-05-01T14:11:03Z</time></trkpt><trkpt lat="43.44982999530681" lon="5.963300928682594"><ele>351.6666666666667</ele><time>2026-05-01T14:11:04Z</time></trkpt><trkpt lat="43.44974491069847" lon="5.9632183124160205"><ele>352.0</ele><time>2026-05-01T14:11:05Z</time></trkpt><trkpt lat="43.44967797268967" lon="5.963180708792651"><ele>352.33333333333337</ele><time>2026-05-01T14:11:06Z</time></trkpt><trkpt lat="43.44960510856723" lon="5.96313128014178"><ele>352.6666666666667</ele><time>2026-05-01T14:11:07Z</time></trkpt><trkpt lat="43.449558245811936" lon="5.963064812526445"><ele>353.0</ele><time>2026-05-01T14:11:08Z</time></trkpt><trkpt lat="43.449510830607665" lon="5.96300039977726"><ele>353.59999999999997</ele><time>2026-05-01T14:11:09Z</time></trkpt><trkpt lat="43.449413882300625" lon="5.962930992388624"><ele>354.2</ele><time>2026-05-01T14:11:11Z</time></trkpt><trkpt lat="43.44934679704721" lon="5.962862672849331"><ele>354.8</ele><time>2026-05-01T14:11:13Z</time></trkpt><trkpt lat="43.44927815133235" lon="5.962820291975777"><ele>355.4</ele><time>2026-05-01T14:11:15Z</time></trkpt><trkpt lat="43.449203547962114" lon="5.962748740022455"><ele>356.0</ele><time>2026-05-01T14:11:17Z</time></trkpt><trkpt lat="43.44912273247527" lon="5.962678849744708"><ele>356.0</ele><time>2026-05-01T14:11:19Z</time></trkpt><trkpt lat="43.449063673168375" lon="5.962637226208644"><ele>356.0</ele><time>2026-05-01T14:11:20Z</time></trkpt><trkpt lat="43.44898932672553" lon="5.962606649220913"><ele>356.0</ele><time>2026-05-01T14:11:21Z</time></trkpt><trkpt lat="43.4489233786519" lon="5.962580542650055"><ele>356.0</ele><time>2026-05-01T14:11:22Z</time></trkpt><trkpt lat="43.44882707140709" lon="5.9625401715454345"><ele>356.0</ele><time>2026-05-01T14:11:23Z</time></trkpt><trkpt lat="43.44872764653455" lon="5.962539864372932"><ele>356.0</ele><time>2026-05-01T14:11:24Z</time></trkpt><trkpt lat="43.44863183245605" lon="5.962536450170576"><ele>356.1666666666667</ele><time>2026-05-01T14:11:25Z</time></trkpt><trkpt lat="43.448554294374354" lon="5.962538472256755"><ele>356.33333333333337</ele><time>2026-05-01T14:11:26Z</time></trkpt><trkpt lat="43.44846698770929" lon="5.962527849076391"><ele>356.5</ele><time>2026-05-01T14:11:27Z</time></trkpt><trkpt lat="43.44840384878881" lon="5.962537994343859"><ele>356.6666666666667</ele><time>2026-05-01T14:11:28Z</time></trkpt><trkpt lat="43.44833294432329" lon="5.962572470572125"><ele>356.8333333333333</ele><time>2026-05-01T14:11:29Z</time></trkpt><trkpt lat="43.448273731485095" lon="5.962617281666463"><ele>357.0</ele><time>2026-05-01T14:11:30Z</time></trkpt><trkpt lat="43.44815373068161" lon="5.962684619583128"><ele>356.3333333333333</ele><time>2026-05-01T14:11:32Z</time></trkpt><trkpt lat="43.44806413068385" lon="5.962716553936043"><ele>355.6666666666667</ele><time>2026-05-01T14:11:33Z</time></trkpt><trkpt lat="43.44798264368782" lon="5.962746372690129"><ele>355.0</ele><time>2026-05-01T14:11:34Z</time></trkpt><trkpt lat="43.44791048750403" lon="5.962753919188462"><ele>354.33333333333337</ele><time>2026-05-01T14:11:35Z</time></trkpt><trkpt lat="43.44778793516159" lon="5.96279426979807"><ele>353.6666666666667</ele><time>2026-05-01T14:11:37Z</time></trkpt><trkpt lat="43.44772247730973" lon="5.962809796754562"><ele>353.0</ele><time>2026-05-01T14:11:38Z</time></trkpt><trkpt lat="43.447605335917096" lon="5.962822220159461"><ele>351.33333333333337</ele><time>2026-05-01T14:11:40Z</time></trkpt><trkpt lat="43.447515201467745" lon="5.9628351525801255"><ele>349.6666666666667</ele><time>2026-05-01T14:11:42Z</time></trkpt><trkpt lat="43.44741190582935" lon="5.9628359375396105"><ele>348.0</ele><time>2026-05-01T14:11:44Z</time></trkpt><trkpt lat="43.447321780472905" lon="5.962872149232282"><ele>346.3333333333333</ele><time>2026-05-01T14:11:46Z</time></trkpt><trkpt lat="43.4472512142364" lon="5.962906333242036"><ele>344.66666666666663</ele><time>2026-05-01T14:11:48Z</time></trkpt><trkpt lat="43.447171786922446" lon="5.962937798499403"><ele>343.0</ele><time>2026-05-01T14:11:50Z</time></trkpt><trkpt lat="43.447110847429755" lon="5.962960899359079"><ele>342.5</ele><time>2026-05-01T14:11:51Z</time></trkpt><trkpt lat="43.44704503497005" lon="5.962995910543861"><ele>342.0</ele><time>2026-05-01T14:11:53Z</time></trkpt><trkpt lat="43.44695545367553" lon="5.963011085282878"><ele>341.5</ele><time>2026-05-01T14:11:56Z</time></trkpt><trkpt lat="43.4468970470543" lon="5.963069982391563"><ele>341.0</ele><time>2026-05-01T14:11:57Z</time></trkpt><trkpt lat="43.44684279625466" lon="5.963116153226083"><ele>340.5</ele><time>2026-05-01T14:11:58Z</time></trkpt><trkpt lat="43.446778583614304" lon="5.963115313120886"><ele>340.0</ele><time>2026-05-01T14:11:59Z</time></trkpt><trkpt lat="43.446686072373524" lon="5.963190572205172"><ele>340.0</ele><time>2026-05-01T14:12:01Z</time></trkpt><trkpt lat="43.44660677803548" lon="5.963223434948297"><ele>340.0</ele><time>2026-05-01T14:12:03Z</time></trkpt><trkpt lat="43.44652552939097" lon="5.963263545029842"><ele>340.0</ele><time>2026-05-01T14:12:05Z</time></trkpt><trkpt lat="43.44641834012578" lon="5.963306041484897"><ele>340.0</ele><time>2026-05-01T14:12:07Z</time></trkpt><trkpt lat="43.446309651594426" lon="5.9633411535121255"><ele>340.0</ele><time>2026-05-01T14:12:09Z</time></trkpt><trkpt lat="43.44621908073921" lon="5.963373568346763"><ele>341.8333333333333</ele><time>2026-05-01T14:12:11Z</time></trkpt><trkpt lat="43.44612494085575" lon="5.963426137034877"><ele>343.66666666666663</ele><time>2026-05-01T14:12:13Z</time></trkpt><trkpt lat="43.4460591912762" lon="5.963439501723352"><ele>345.5</ele><time>2026-05-01T14:12:14Z</time></trkpt><trkpt lat="43.445998698330314" lon="5.963473407555474"><ele>347.3333333333333</ele><time>2026-05-01T14:12:15Z</time></trkpt><trkpt lat="43.44592385660709" lon="5.9634885953972825"><ele>349.1666666666667</ele><time>2026-05-01T14:12:16Z</time></trkpt><trkpt lat="43.445824743089624" lon="5.963487085737764"><ele>351.0</ele><time>2026-05-01T14:12:17Z</time></trkpt><trkpt lat="43.445748889646474" lon="5.963497033223147"><ele>351.0</ele><time>2026-05-01T14:12:18Z</time></trkpt><trkpt lat="43.44567199439553" lon="5.963535705618806"><ele>351.0</ele><time>2026-05-01T14:12:19Z</time></trkpt><trkpt lat="43.44560813968008" lon="5.963562828375609"><ele>351.0</ele><time>2026-05-01T14:12:20Z</time></trkpt><trkpt lat="43.4455417256979" lon="5.963577289976868"><ele>351.0</ele><time>2026-05-01T14:12:21Z</time></trkpt><trkpt lat="43.445454871552705" lon="5.963575333278561"><ele>351.0</ele><time>2026-05-01T14:12:22Z</time></trkpt><trkpt lat="43.44536997947357" lon="5.963573981752335"><ele>351.0</ele><time>2026-05-01T14:12:23Z</time></trkpt><trkpt lat="43.44529058663903" lon="5.963585107537031"><ele>353.0</ele><time>2026-05-01T14:12:24Z</time></trkpt><trkpt lat="43.44522026183606" lon="5.96357563424869"><ele>355.0</ele><time>2026-05-01T14:12:25Z</time></trkpt><trkpt lat="43.44514025647839" lon="5.963575242413385"><ele>357.0</ele><time>2026-05-01T14:12:26Z</time></trkpt><trkpt lat="43.44505044664351" lon="5.963610624064356"><ele>359.0</ele><time>2026-05-01T14:12:27Z</time></trkpt><trkpt lat="43.44494338933361" lon="5.963662178589549"><ele>361.0</ele><time>2026-05-01T14:12:28Z</time></trkpt><trkpt lat="43.44485045344182" lon="5.963712543427419"><ele>361.0</ele><time>2026-05-01T14:12:29Z</time></trkpt><trkpt lat="43.444777679133246" lon="5.963768219263454"><ele>361.0</ele><time>2026-05-01T14:12:30Z</time></trkpt><trkpt lat="43.444719192480214" lon="5.9638329166024775"><ele>361.0</ele><time>2026-05-01T14:12:31Z</time></trkpt><trkpt lat="43.44464530196049" lon="5.963894524951739"><ele>361.0</ele><time>2026-05-01T14:12:32Z</time></trkpt><trkpt lat="43.444582177723504" lon="5.963941102785407"><ele>361.0</ele><time>2026-05-01T14:12:33Z</time></trkpt><trkpt lat="43.44445004799385" lon="5.963981477757548"><ele>362.0</ele><time>2026-05-01T14:12:35Z</time></trkpt><trkpt lat="43.44437500745851" lon="5.964010834796778"><ele>363.0</ele><time>2026-05-01T14:12:36Z</time></trkpt><trkpt lat="43.444277120866225" lon="5.964071104243865"><ele>364.0</ele><time>2026-05-01T14:12:37Z</time></trkpt><trkpt lat="43.44420800967597" lon="5.964116137920077"><ele>365.0</ele><time>2026-05-01T14:12:38Z</time></trkpt><trkpt lat="43.44408400041783" lon="5.964156260773862"><ele>366.0</ele><time>2026-05-01T14:12:40Z</time></trkpt><trkpt lat="43.44401522256737" lon="5.964188211571629"><ele>366.6</ele><time>2026-05-01T14:12:41Z</time></trkpt><trkpt lat="43.44389791829959" lon="5.96424470292368"><ele>367.20000000000005</ele><time>2026-05-01T14:12:43Z</time></trkpt><trkpt lat="43.443837368915574" lon="5.964272249884809"><ele>367.79999999999995</ele><time>2026-05-01T14:12:44Z</time></trkpt><trkpt lat="43.44371565555694" lon="5.964292660817266"><ele>368.4</ele><time>2026-05-01T14:12:46Z</time></trkpt><trkpt lat="43.443636672068436" lon="5.96429699402908"><ele>369.0</ele><time>2026-05-01T14:12:47Z</time></trkpt><trkpt lat="43.44355448281637" lon="5.964322880910795"><ele>369.0</ele><time>2026-05-01T14:12:48Z</time></trkpt><trkpt lat="43.44343893866851" lon="5.964390599151086"><ele>369.0</ele><time>2026-05-01T14:12:50Z</time></trkpt><trkpt lat="43.443370092627305" lon="5.964463874692041"><ele>369.0</ele><time>2026-05-01T14:12:51Z</time></trkpt><trkpt lat="43.44329975440856" lon="5.964529734790488"><ele>369.0</ele><time>2026-05-01T14:12:52Z</time></trkpt><trkpt lat="43.4432407170911" lon="5.964561352106227"><ele>369.0</ele><time>2026-05-01T14:12:53Z</time></trkpt><trkpt lat="43.44316886166338" lon="5.964615711411728"><ele>369.0</ele><time>2026-05-01T14:12:54Z</time></trkpt><trkpt lat="43.44307120243232" lon="5.9646537453119555"><ele>369.0</ele><time>2026-05-01T14:12:56Z</time></trkpt><trkpt lat="43.442996107544815" lon="5.964736545016622"><ele>369.0</ele><time>2026-05-01T14:12:58Z</time></trkpt><trkpt lat="43.44293462043897" lon="5.964778121221851"><ele>369.0</ele><time>2026-05-01T14:12:59Z</time></trkpt><trkpt lat="43.44286879218535" lon="5.964808982686457"><ele>369.0</ele><time>2026-05-01T14:13:00Z</time></trkpt><trkpt lat="43.44280567775041" lon="5.964833085534585"><ele>369.0</ele><time>2026-05-01T14:13:01Z</time></trkpt><trkpt lat="43.44274096338069" lon="5.9648786841164885"><ele>369.0</ele><time>2026-05-01T14:13:02Z</time></trkpt><trkpt lat="43.442653528415356" lon="5.96496838441067"><ele>369.8333333333333</ele><time>2026-05-01T14:13:04Z</time></trkpt><trkpt lat="43.44257414855243" lon="5.965018771542298"><ele>370.6666666666667</ele><time>2026-05-01T14:13:06Z</time></trkpt><trkpt lat="43.44251143248258" lon="5.965066590545405"><ele>371.5</ele><time>2026-05-01T14:13:07Z</time></trkpt><trkpt lat="43.442426320137116" lon="5.965154407400753"><ele>372.33333333333337</ele><time>2026-05-01T14:13:09Z</time></trkpt><trkpt lat="43.44237647593091" lon="5.9652285524775905"><ele>373.1666666666667</ele><time>2026-05-01T14:13:10Z</time></trkpt><trkpt lat="43.44232152127094" lon="5.965277122828765"><ele>374.0</ele><time>2026-05-01T14:13:11Z</time></trkpt><trkpt lat="43.44220336529282" lon="5.965333785740572"><ele>374.0</ele><time>2026-05-01T14:13:13Z</time></trkpt><trkpt lat="43.44214397454553" lon="5.965371898419172"><ele>374.0</ele><time>2026-05-01T14:13:14Z</time></trkpt><trkpt lat="43.44208482246524" lon="5.965419462459902"><ele>374.0</ele><time>2026-05-01T14:13:15Z</time></trkpt><trkpt lat="43.44200816674029" lon="5.965470781352656"><ele>374.0</ele><time>2026-05-01T14:13:17Z</time></trkpt><trkpt lat="43.441902918283084" lon="5.965538623107949"><ele>374.0</ele><time>2026-05-01T14:13:19Z</time></trkpt><trkpt lat="43.441853920211436" lon="5.965594345755289"><ele>374.0</ele><time>2026-05-01T14:13:20Z</time></trkpt><trkpt lat="43.4417672177326" lon="5.965677559514593"><ele>374.0</ele><time>2026-05-01T14:13:22Z</time></trkpt><trkpt lat="43.441694679692496" lon="5.965736324972868"><ele>374.0</ele><time>2026-05-01T14:13:24Z</time></trkpt><trkpt lat="43.44164002194712" lon="5.9658303768053855"><ele>374.0</ele><time>2026-05-01T14:13:26Z</time></trkpt><trkpt lat="43.44157689757742" lon="5.9659353126512435"><ele>374.0</ele><time>2026-05-01T14:13:28Z</time></trkpt><trkpt lat="43.44148806981999" lon="5.965980774215058"><ele>374.0</ele><time>2026-05-01T14:13:30Z</time></trkpt><trkpt lat="43.441388794771576" lon="5.966037921314139"><ele>372.79999999999995</ele><time>2026-05-01T14:13:32Z</time></trkpt><trkpt lat="43.44128055339956" lon="5.966102933205803"><ele>371.59999999999997</ele><time>2026-05-01T14:13:34Z</time></trkpt><trkpt lat="43.441227227112755" lon="5.9661746691902735"><ele>370.4</ele><time>2026-05-01T14:13:35Z</time></trkpt><trkpt lat="43.44116257939349" lon="5.966254151142539"><ele>369.2</ele><time>2026-05-01T14:13:36Z</time></trkpt><trkpt lat="43.441061539983835" lon="5.9663522111393394"><ele>368.0</ele><time>2026-05-01T14:13:38Z</time></trkpt><trkpt lat="43.44099186961688" lon="5.966429054856887"><ele>368.0</ele><time>2026-05-01T14:13:39Z</time></trkpt><trkpt lat="43.44091411442511" lon="5.966503719565491"><ele>368.0</ele><time>2026-05-01T14:13:40Z</time></trkpt><trkpt lat="43.440846576774305" lon="5.966560744094424"><ele>368.0</ele><time>2026-05-01T14:13:41Z</time></trkpt><trkpt lat="43.44079373041184" lon="5.96660869138357"><ele>368.0</ele><time>2026-05-01T14:13:42Z</time></trkpt><trkpt lat="43.44072319236122" lon="5.966672798037046"><ele>368.0</ele><time>2026-05-01T14:13:43Z</time></trkpt><trkpt lat="43.44064625547896" lon="5.96671911225289"><ele>368.0</ele><time>2026-05-01T14:13:44Z</time></trkpt><trkpt lat="43.440562689820716" lon="5.9668304373263386"><ele>367.79999999999995</ele><time>2026-05-01T14:13:46Z</time></trkpt><trkpt lat="43.44049452383731" lon="5.966942735998648"><ele>367.6</ele><time>2026-05-01T14:13:48Z</time></trkpt><trkpt lat="43.44043868185036" lon="5.967003819545475"><ele>367.4</ele><time>2026-05-01T14:13:49Z</time></trkpt><trkpt lat="43.440408476190264" lon="5.9670936490136945"><ele>367.20000000000005</ele><time>2026-05-01T14:13:50Z</time></trkpt><trkpt lat="43.440381386440315" lon="5.9672282366087614"><ele>367.0</ele><time>2026-05-01T14:13:51Z</time></trkpt><trkpt lat="43.440349693981425" lon="5.967357891155781"><ele>366.5</ele><time>2026-05-01T14:13:52Z</time></trkpt><trkpt lat="43.44033370684139" lon="5.967476964668996"><ele>366.0</ele><time>2026-05-01T14:13:53Z</time></trkpt><trkpt lat="43.44031940945604" lon="5.967580407913511"><ele>365.5</ele><time>2026-05-01T14:13:54Z</time></trkpt><trkpt lat="43.44028982326977" lon="5.967684608173685"><ele>365.0</ele><time>2026-05-01T14:13:55Z</time></trkpt><trkpt lat="43.440272347451454" lon="5.967794250768156"><ele>364.5</ele><time>2026-05-01T14:13:56Z</time></trkpt><trkpt lat="43.44025788775904" lon="5.967896476964449"><ele>364.0</ele><time>2026-05-01T14:13:57Z</time></trkpt><trkpt lat="43.44024958047868" lon="5.9680423389429125"><ele>363.79999999999995</ele><time>2026-05-01T14:13:59Z</time></trkpt><trkpt lat="43.44024017381317" lon="5.968203954939614"><ele>363.59999999999997</ele><time>2026-05-01T14:14:01Z</time></trkpt><trkpt lat="43.44021821467195" lon="5.968301418951028"><ele>363.4</ele><time>2026-05-01T14:14:02Z</time></trkpt><trkpt lat="43.44019204440974" lon="5.968437770082907"><ele>363.2</ele><time>2026-05-01T14:14:03Z</time></trkpt><trkpt lat="43.44017981150932" lon="5.968545105230773"><ele>363.0</ele><time>2026-05-01T14:14:04Z</time></trkpt><trkpt lat="43.44016052055642" lon="5.96864877250442"><ele>362.0</ele><time>2026-05-01T14:14:05Z</time></trkpt><trkpt lat="43.44014570495712" lon="5.968747842675455"><ele>361.0</ele><time>2026-05-01T14:14:06Z</time></trkpt><trkpt lat="43.44013449300628" lon="5.968842655574571"><ele>360.0</ele><time>2026-05-01T14:14:07Z</time></trkpt><trkpt lat="43.440121246555094" lon="5.968986472645688"><ele>359.0</ele><time>2026-05-01T14:14:09Z</time></trkpt><trkpt lat="43.44005482069892" lon="5.969045139569006"><ele>358.0</ele><time>2026-05-01T14:14:11Z</time></trkpt><trkpt lat="43.44002505604355" lon="5.969147600182634"><ele>357.0</ele><time>2026-05-01T14:14:13Z</time></trkpt><trkpt lat="43.43995930310278" lon="5.969202776414993"><ele>356.6</ele><time>2026-05-01T14:14:14Z</time></trkpt><trkpt lat="43.43987086986952" lon="5.969290594750719"><ele>356.20000000000005</ele><time>2026-05-01T14:14:15Z</time></trkpt><trkpt lat="43.43982631204881" lon="5.969374386364636"><ele>355.8</ele><time>2026-05-01T14:14:16Z</time></trkpt><trkpt lat="43.43976545080717" lon="5.969445477726771"><ele>355.4</ele><time>2026-05-01T14:14:18Z</time></trkpt><trkpt lat="43.43969039399861" lon="5.969578656791298"><ele>355.0</ele><time>2026-05-01T14:14:20Z</time></trkpt><trkpt lat="43.439639298345774" lon="5.969661856418226"><ele>356.16666666666663</ele><time>2026-05-01T14:14:22Z</time></trkpt><trkpt lat="43.43953651166351" lon="5.9696542008449685"><ele>357.3333333333333</ele><time>2026-05-01T14:14:24Z</time></trkpt><trkpt lat="43.43947611785793" lon="5.9697027053740745"><ele>358.5</ele><time>2026-05-01T14:21:47Z</time></trkpt><trkpt lat="43.43937578497026" lon="5.9696910730596"><ele>359.6666666666667</ele><time>2026-05-01T14:21:49Z</time></trkpt><trkpt lat="43.439301443954975" lon="5.969683752120737"><ele>360.83333333333337</ele><time>2026-05-01T14:21:50Z</time></trkpt><trkpt lat="43.43921784956467" lon="5.9696907354484"><ele>362.0</ele><time>2026-05-01T14:21:51Z</time></trkpt><trkpt lat="43.43913900664574" lon="5.969708004991391"><ele>362.0</ele><time>2026-05-01T14:21:52Z</time></trkpt><trkpt lat="43.43904627426145" lon="5.9697280730864835"><ele>362.0</ele><time>2026-05-01T14:21:53Z</time></trkpt><trkpt lat="43.43893128191894" lon="5.9697460898600285"><ele>362.0</ele><time>2026-05-01T14:21:54Z</time></trkpt><trkpt lat="43.438832521164386" lon="5.969751640203797"><ele>362.0</ele><time>2026-05-01T14:21:55Z</time></trkpt><trkpt lat="43.43873573830791" lon="5.969742013141549"><ele>362.0</ele><time>2026-05-01T14:21:56Z</time></trkpt><trkpt lat="43.43862868064224" lon="5.9697298102051555"><ele>362.1666666666667</ele><time>2026-05-01T14:21:57Z</time></trkpt><trkpt lat="43.43855362663248" lon="5.969719701422534"><ele>362.33333333333337</ele><time>2026-05-01T14:21:58Z</time></trkpt><trkpt lat="43.438475899026805" lon="5.969679684421791"><ele>362.5</ele><time>2026-05-01T14:21:59Z</time></trkpt><trkpt lat="43.43840976523338" lon="5.969615695382204"><ele>362.6666666666667</ele><time>2026-05-01T14:22:00Z</time></trkpt><trkpt lat="43.438331430679796" lon="5.969556928506826"><ele>362.8333333333333</ele><time>2026-05-01T14:22:01Z</time></trkpt><trkpt lat="43.438259012967535" lon="5.969528776424395"><ele>363.0</ele><time>2026-05-01T14:22:02Z</time></trkpt><trkpt lat="43.43816233254248" lon="5.9695194353802865"><ele>363.0</ele><time>2026-05-01T14:22:03Z</time></trkpt><trkpt lat="43.438059954430464" lon="5.9695228816079355"><ele>363.0</ele><time>2026-05-01T14:22:04Z</time></trkpt><trkpt lat="43.43794265351645" lon="5.9695145557410925"><ele>363.0</ele><time>2026-05-01T14:22:05Z</time></trkpt><trkpt lat="43.437837208120115" lon="5.96950728537371"><ele>363.0</ele><time>2026-05-01T14:22:06Z</time></trkpt><trkpt lat="43.437770222708814" lon="5.969495520421673"><ele>363.0</ele><time>2026-05-01T14:22:07Z</time></trkpt><trkpt lat="43.4376762316477" lon="5.969467577429936"><ele>362.0</ele><time>2026-05-01T14:22:09Z</time></trkpt><trkpt lat="43.437604015115575" lon="5.969445884847742"><ele>361.0</ele><time>2026-05-01T14:22:11Z</time></trkpt><trkpt lat="43.4375271354645" lon="5.969420468104306"><ele>360.0</ele><time>2026-05-01T14:22:13Z</time></trkpt><trkpt lat="43.43745030157161" lon="5.969411400578117"><ele>359.0</ele><time>2026-05-01T14:22:14Z</time></trkpt><trkpt lat="43.43736096610977" lon="5.969388628698881"><ele>358.0</ele><time>2026-05-01T14:22:15Z</time></trkpt><trkpt lat="43.437288279456396" lon="5.969352473063078"><ele>357.0</ele><time>2026-05-01T14:22:16Z</time></trkpt><trkpt lat="43.43721521295204" lon="5.969343802960759"><ele>356.6</ele><time>2026-05-01T14:22:17Z</time></trkpt><trkpt lat="43.43710501889272" lon="5.969343251319116"><ele>356.20000000000005</ele><time>2026-05-01T14:22:19Z</time></trkpt><trkpt lat="43.437020921943" lon="5.969373057271019"><ele>355.8</ele><time>2026-05-01T14:22:20Z</time></trkpt><trkpt lat="43.43691678342592" lon="5.9694090666230135"><ele>355.4</ele><time>2026-05-01T14:22:21Z</time></trkpt><trkpt lat="43.436823314789066" lon="5.969450400106704"><ele>355.0</ele><time>2026-05-01T14:22:22Z</time></trkpt><trkpt lat="43.436734048151514" lon="5.969480122661466"><ele>355.0</ele><time>2026-05-01T14:22:23Z</time></trkpt><trkpt lat="43.43664553484313" lon="5.969505967307424"><ele>355.0</ele><time>2026-05-01T14:22:24Z</time></trkpt><trkpt lat="43.43656575781037" lon="5.969501999065174"><ele>355.0</ele><time>2026-05-01T14:22:25Z</time></trkpt><trkpt lat="43.43650447314695" lon="5.969458592102857"><ele>355.0</ele><time>2026-05-01T14:22:26Z</time></trkpt><trkpt lat="43.4364489003124" lon="5.969410757917538"><ele>355.0</ele><time>2026-05-01T14:22:27Z</time></trkpt><trkpt lat="43.43634949707784" lon="5.969271748999241"><ele>355.0</ele><time>2026-05-01T14:22:29Z</time></trkpt><trkpt lat="43.43629255452664" lon="5.969199940672191"><ele>356.0</ele><time>2026-05-01T14:22:30Z</time></trkpt><trkpt lat="43.436214121503035" lon="5.969127828990029"><ele>357.0</ele><time>2026-05-01T14:22:31Z</time></trkpt><trkpt lat="43.43612111307372" lon="5.969028627641806"><ele>358.0</ele><time>2026-05-01T14:22:32Z</time></trkpt><trkpt lat="43.43605740599925" lon="5.968956550911707"><ele>359.0</ele><time>2026-05-01T14:22:33Z</time></trkpt><trkpt lat="43.43598421346573" lon="5.968874887726283"><ele>360.0</ele><time>2026-05-01T14:22:34Z</time></trkpt><trkpt lat="43.43591053117313" lon="5.968814027265348"><ele>360.0</ele><time>2026-05-01T14:22:35Z</time></trkpt><trkpt lat="43.43584069475822" lon="5.968747583433503"><ele>360.0</ele><time>2026-05-01T14:22:36Z</time></trkpt><trkpt lat="43.43579583972379" lon="5.968676935470794"><ele>360.0</ele><time>2026-05-01T14:22:37Z</time></trkpt><trkpt lat="43.43572907317952" lon="5.9685828483264585"><ele>360.0</ele><time>2026-05-01T14:22:38Z</time></trkpt><trkpt lat="43.435655142632406" lon="5.9685165246888605"><ele>360.0</ele><time>2026-05-01T14:22:39Z</time></trkpt><trkpt lat="43.435573212160264" lon="5.968431029236264"><ele>360.0</ele><time>2026-05-01T14:22:40Z</time></trkpt><trkpt lat="43.43550169378157" lon="5.968355260917915"><ele>360.5</ele><time>2026-05-01T14:22:41Z</time></trkpt><trkpt lat="43.43544151761802" lon="5.96828899517993"><ele>361.0</ele><time>2026-05-01T14:22:42Z</time></trkpt><trkpt lat="43.43538773773376" lon="5.968231050593162"><ele>361.5</ele><time>2026-05-01T14:22:43Z</time></trkpt><trkpt lat="43.43531890348204" lon="5.9681844860708795"><ele>362.0</ele><time>2026-05-01T14:22:44Z</time></trkpt><trkpt lat="43.43524290300617" lon="5.968103278427458"><ele>362.5</ele><time>2026-05-01T14:22:45Z</time></trkpt><trkpt lat="43.435133717170736" lon="5.968007994519932"><ele>363.0</ele><time>2026-05-01T14:22:47Z</time></trkpt><trkpt lat="43.43508920458986" lon="5.967936495975249"><ele>363.0</ele><time>2026-05-01T14:22:48Z</time></trkpt><trkpt lat="43.43503201022324" lon="5.967847987002363"><ele>363.0</ele><time>2026-05-01T14:22:49Z</time></trkpt><trkpt lat="43.43492768067426" lon="5.967727587023113"><ele>363.0</ele><time>2026-05-01T14:22:51Z</time></trkpt><trkpt lat="43.43486124600134" lon="5.9676367839812725"><ele>363.0</ele><time>2026-05-01T14:22:52Z</time></trkpt><trkpt lat="43.4347941711788" lon="5.967542261391717"><ele>363.0</ele><time>2026-05-01T14:22:54Z</time></trkpt><trkpt lat="43.4347105897205" lon="5.96742318471749"><ele>362.0</ele><time>2026-05-01T14:22:56Z</time></trkpt><trkpt lat="43.43465052618341" lon="5.967289562875174"><ele>361.0</ele><time>2026-05-01T14:22:58Z</time></trkpt><trkpt lat="43.434555285353035" lon="5.967185809694701"><ele>360.0</ele><time>2026-05-01T14:23:00Z</time></trkpt><trkpt lat="43.43441440534741" lon="5.967170626395815"><ele>359.0</ele><time>2026-05-01T14:23:02Z</time></trkpt><trkpt lat="43.43432740293494" lon="5.967137029153985"><ele>359.0</ele><time>2026-05-01T14:23:03Z</time></trkpt><trkpt lat="43.43426024928747" lon="5.967097642592295"><ele>359.0</ele><time>2026-05-01T14:23:04Z</time></trkpt><trkpt lat="43.43418329371398" lon="5.9670670876239775"><ele>359.0</ele><time>2026-05-01T14:23:05Z</time></trkpt><trkpt lat="43.434121063990666" lon="5.967040254862762"><ele>359.0</ele><time>2026-05-01T14:23:06Z</time></trkpt><trkpt lat="43.434014287239684" lon="5.966986815803036"><ele>359.0</ele><time>2026-05-01T14:23:08Z</time></trkpt><trkpt lat="43.43390136563186" lon="5.966958309115286"><ele>359.0</ele><time>2026-05-01T14:23:10Z</time></trkpt><trkpt lat="43.43383127430276" lon="5.96693225892211"><ele>358.83333333333337</ele><time>2026-05-01T14:23:11Z</time></trkpt><trkpt lat="43.43375155871008" lon="5.966892378488203"><ele>358.6666666666667</ele><time>2026-05-01T14:23:12Z</time></trkpt><trkpt lat="43.43368924444164" lon="5.966853204181397"><ele>358.5</ele><time>2026-05-01T14:23:13Z</time></trkpt><trkpt lat="43.43361899651059" lon="5.966831861613666"><ele>358.3333333333333</ele><time>2026-05-01T14:23:14Z</time></trkpt><trkpt lat="43.433515874394985" lon="5.966790202148221"><ele>358.16666666666663</ele><time>2026-05-01T14:23:16Z</time></trkpt><trkpt lat="43.433425225221875" lon="5.966724611140408"><ele>358.0</ele><time>2026-05-01T14:23:18Z</time></trkpt><trkpt lat="43.4333553678699" lon="5.966698947282052"><ele>358.0</ele><time>2026-05-01T14:23:20Z</time></trkpt><trkpt lat="43.4332863592187" lon="5.9667105136862295"><ele>358.0</ele><time>2026-05-01T14:23:22Z</time></trkpt><trkpt lat="43.433182723079085" lon="5.966682620865644"><ele>358.0</ele><time>2026-05-01T14:23:27Z</time></trkpt><trkpt lat="43.43310245172022" lon="5.96662060418103"><ele>358.0</ele><time>2026-05-01T14:23:29Z</time></trkpt><trkpt lat="43.433009011664005" lon="5.966472251920751"><ele>358.0</ele><time>2026-05-01T14:23:31Z</time></trkpt><trkpt lat="43.43295828583862" lon="5.9663646258267224"><ele>356.3333333333333</ele><time>2026-05-01T14:23:32Z</time></trkpt><trkpt lat="43.432910259613124" lon="5.9662805623683495"><ele>354.66666666666663</ele><time>2026-05-01T14:23:33Z</time></trkpt><trkpt lat="43.432842575225024" lon="5.966177317498567"><ele>353.0</ele><time>2026-05-01T14:23:35Z</time></trkpt><trkpt lat="43.43275514101637" lon="5.966150234487603"><ele>351.3333333333333</ele><time>2026-05-01T14:23:37Z</time></trkpt><trkpt lat="43.43268253837595" lon="5.966130734505907"><ele>349.6666666666667</ele><time>2026-05-01T14:23:38Z</time></trkpt><trkpt lat="43.432596926111096" lon="5.966140723542001"><ele>348.0</ele><time>2026-05-01T14:23:39Z</time></trkpt><trkpt lat="43.432530741900656" lon="5.966144098732639"><ele>348.0</ele><time>2026-05-01T14:23:40Z</time></trkpt><trkpt lat="43.43246771187906" lon="5.966145376293458"><ele>348.0</ele><time>2026-05-01T14:23:41Z</time></trkpt><trkpt lat="43.432347604958174" lon="5.966123412040212"><ele>348.0</ele><time>2026-05-01T14:23:43Z</time></trkpt><trkpt lat="43.432246851543994" lon="5.966056701304758"><ele>348.0</ele><time>2026-05-01T14:23:45Z</time></trkpt><trkpt lat="43.432147357318954" lon="5.965966924903019"><ele>348.0</ele><time>2026-05-01T14:23:47Z</time></trkpt><trkpt lat="43.43204859689259" lon="5.965860232414954"><ele>346.0</ele><time>2026-05-01T14:23:49Z</time></trkpt><trkpt lat="43.43196681811925" lon="5.96575991991197"><ele>344.0</ele><time>2026-05-01T14:23:51Z</time></trkpt><trkpt lat="43.431916441724155" lon="5.965690264147123"><ele>342.0</ele><time>2026-05-01T14:23:53Z</time></trkpt><trkpt lat="43.43186270717178" lon="5.965640412895021"><ele>340.0</ele><time>2026-05-01T14:23:54Z</time></trkpt><trkpt lat="43.431789535153584" lon="5.965671379082048"><ele>338.0</ele><time>2026-05-01T14:23:56Z</time></trkpt><trkpt lat="43.43169289434344" lon="5.965727268126234"><ele>336.0</ele><time>2026-05-01T14:23:58Z</time></trkpt><trkpt lat="43.43161913444373" lon="5.965774898263836"><ele>336.0</ele><time>2026-05-01T14:24:00Z</time></trkpt><trkpt lat="43.43153621171815" lon="5.965845242717902"><ele>336.0</ele><time>2026-05-01T14:24:02Z</time></trkpt><trkpt lat="43.431428388235254" lon="5.965892408498192"><ele>336.0</ele><time>2026-05-01T14:24:04Z</time></trkpt><trkpt lat="43.4313632156366" lon="5.965915457850591"><ele>336.0</ele><time>2026-05-01T14:24:06Z</time></trkpt><trkpt lat="43.43128359417773" lon="5.965963861979095"><ele>336.0</ele><time>2026-05-01T14:24:07Z</time></trkpt><trkpt lat="43.431204426531096" lon="5.966006183055158"><ele>336.0</ele><time>2026-05-01T14:24:08Z</time></trkpt><trkpt lat="43.43113052235844" lon="5.9660294626841575"><ele>336.0</ele><time>2026-05-01T14:24:09Z</time></trkpt><trkpt lat="43.43101887006602" lon="5.966094023625305"><ele>336.0</ele><time>2026-05-01T14:24:11Z</time></trkpt><trkpt lat="43.43094532672518" lon="5.966117008609962"><ele>336.0</ele><time>2026-05-01T14:24:12Z</time></trkpt><trkpt lat="43.43084743330888" lon="5.966165076872002"><ele>336.0</ele><time>2026-05-01T14:24:13Z</time></trkpt><trkpt lat="43.43076426876304" lon="5.966214017904953"><ele>336.0</ele><time>2026-05-01T14:24:14Z</time></trkpt><trkpt lat="43.43069001523775" lon="5.966245675632349"><ele>336.0</ele><time>2026-05-01T14:24:15Z</time></trkpt><trkpt lat="43.430626106210795" lon="5.966269570696408"><ele>336.0</ele><time>2026-05-01T14:24:16Z</time></trkpt><trkpt lat="43.43054251058965" lon="5.966357970351245"><ele>336.0</ele><time>2026-05-01T14:24:18Z</time></trkpt><trkpt lat="43.43047754743892" lon="5.9664015417495"><ele>336.0</ele><time>2026-05-01T14:24:19Z</time></trkpt><trkpt lat="43.430413089332625" lon="5.966428277666924"><ele>336.0</ele><time>2026-05-01T14:24:20Z</time></trkpt><trkpt lat="43.43028930008675" lon="5.966490375662873"><ele>335.0</ele><time>2026-05-01T14:24:22Z</time></trkpt><trkpt lat="43.43018003299363" lon="5.966572769327692"><ele>334.0</ele><time>2026-05-01T14:24:24Z</time></trkpt><trkpt lat="43.43011748370742" lon="5.9666039327995675"><ele>333.0</ele><time>2026-05-01T14:24:25Z</time></trkpt><trkpt lat="43.43006342162666" lon="5.96665586385473"><ele>332.0</ele><time>2026-05-01T14:24:27Z</time></trkpt><trkpt lat="43.429988408618335" lon="5.966694270430511"><ele>331.0</ele><time>2026-05-01T14:24:29Z</time></trkpt><trkpt lat="43.42993445939541" lon="5.966748312275076"><ele>330.0</ele><time>2026-05-01T14:24:30Z</time></trkpt><trkpt lat="43.42987566340342" lon="5.966807209355903"><ele>330.0</ele><time>2026-05-01T14:24:31Z</time></trkpt><trkpt lat="43.42978725786201" lon="5.966903932182009"><ele>330.0</ele><time>2026-05-01T14:24:33Z</time></trkpt><trkpt lat="43.429758479542365" lon="5.967039167930087"><ele>330.0</ele><time>2026-05-01T14:24:35Z</time></trkpt><trkpt lat="43.42970982965383" lon="5.9671699027177"><ele>330.0</ele><time>2026-05-01T14:24:37Z</time></trkpt><trkpt lat="43.42966334250605" lon="5.967295374683834"><ele>330.0</ele><time>2026-05-01T14:24:39Z</time></trkpt><trkpt lat="43.42963299844725" lon="5.967373537990057"><ele>328.2</ele><time>2026-05-01T14:24:40Z</time></trkpt><trkpt lat="43.42959719414151" lon="5.967470454108633"><ele>326.4</ele><time>2026-05-01T14:24:41Z</time></trkpt><trkpt lat="43.42954262405497" lon="5.967619971843865"><ele>324.6</ele><time>2026-05-01T14:24:43Z</time></trkpt><trkpt lat="43.42946639448786" lon="5.967713510721323"><ele>322.8</ele><time>2026-05-01T14:24:45Z</time></trkpt><trkpt lat="43.4293972921907" lon="5.967760396922559"><ele>321.0</ele><time>2026-05-01T14:24:46Z</time></trkpt><trkpt lat="43.42931425624091" lon="5.96781548730241"><ele>320.99999999999994</ele><time>2026-05-01T14:24:47Z</time></trkpt><trkpt lat="43.42923212233604" lon="5.967872526666993"><ele>321.0</ele><time>2026-05-01T14:24:48Z</time></trkpt><trkpt lat="43.42917110806686" lon="5.967927583892058"><ele>321.0</ele><time>2026-05-01T14:24:49Z</time></trkpt><trkpt lat="43.4291151838315" lon="5.9679763990000705"><ele>321.0</ele><time>2026-05-01T14:24:50Z</time></trkpt><trkpt lat="43.42905837023871" lon="5.96803523631418"><ele>321.0</ele><time>2026-05-01T14:24:51Z</time></trkpt><trkpt lat="43.428997926716114" lon="5.968090940939711"><ele>320.99999999999994</ele><time>2026-05-01T14:24:52Z</time></trkpt><trkpt lat="43.42894352526103" lon="5.968151001072857"><ele>321.0</ele><time>2026-05-01T14:24:53Z</time></trkpt><trkpt lat="43.42887345380355" lon="5.968264064021778"><ele>321.0</ele><time>2026-05-01T14:24:55Z</time></trkpt><trkpt lat="43.428848533886146" lon="5.968352652994664"><ele>321.0</ele><time>2026-05-01T14:24:56Z</time></trkpt><trkpt lat="43.42879791895163" lon="5.968479403945157"><ele>321.0</ele><time>2026-05-01T14:24:58Z</time></trkpt><trkpt lat="43.428773376436865" lon="5.968578969320994"><ele>321.0</ele><time>2026-05-01T14:25:00Z</time></trkpt><trkpt lat="43.42874645222461" lon="5.968681672711269"><ele>321.0</ele><time>2026-05-01T14:25:01Z</time></trkpt><trkpt lat="43.42870132477601" lon="5.968801327839672"><ele>321.0</ele><time>2026-05-01T14:25:02Z</time></trkpt><trkpt lat="43.42867926967333" lon="5.968902329628756"><ele>320.2</ele><time>2026-05-01T14:25:03Z</time></trkpt><trkpt lat="43.428653915319394" lon="5.9689822401753405"><ele>319.40000000000003</ele><time>2026-05-01T14:25:04Z</time></trkpt><trkpt lat="43.42860569169279" lon="5.96912144061123"><ele>318.6</ele><time>2026-05-01T14:25:06Z</time></trkpt><trkpt lat="43.42852870719681" lon="5.969268192498067"><ele>317.8</ele><time>2026-05-01T14:25:08Z</time></trkpt><trkpt lat="43.42849260289422" lon="5.969368387100546"><ele>317.0</ele><time>2026-05-01T14:25:09Z</time></trkpt><trkpt lat="43.42847915688339" lon="5.969461483120424"><ele>317.0</ele><time>2026-05-01T14:25:10Z</time></trkpt><trkpt lat="43.42843371048576" lon="5.969531983825573"><ele>317.0</ele><time>2026-05-01T14:25:11Z</time></trkpt><trkpt lat="43.4283738198389" lon="5.969616590123249"><ele>317.0</ele><time>2026-05-01T14:25:12Z</time></trkpt><trkpt lat="43.428329423403106" lon="5.969720326707642"><ele>317.0</ele><time>2026-05-01T14:25:13Z</time></trkpt><trkpt lat="43.4282922140753" lon="5.9698338615488025"><ele>317.0</ele><time>2026-05-01T14:25:14Z</time></trkpt><trkpt lat="43.428237339328234" lon="5.969964005871235"><ele>317.0</ele><time>2026-05-01T14:25:16Z</time></trkpt><trkpt lat="43.428154072435" lon="5.970055111195889"><ele>315.8</ele><time>2026-05-01T14:25:18Z</time></trkpt><trkpt lat="43.4280590445804" lon="5.970131192114972"><ele>314.6</ele><time>2026-05-01T14:25:20Z</time></trkpt><trkpt lat="43.427985375263084" lon="5.970189225118182"><ele>313.40000000000003</ele><time>2026-05-01T14:25:21Z</time></trkpt><trkpt lat="43.427915935609555" lon="5.970260640314155"><ele>312.2</ele><time>2026-05-01T14:25:22Z</time></trkpt><trkpt lat="43.427861820406406" lon="5.970355629688265"><ele>311.0</ele><time>2026-05-01T14:25:23Z</time></trkpt><trkpt lat="43.427789944672" lon="5.970464357447563"><ele>311.0</ele><time>2026-05-01T14:25:24Z</time></trkpt><trkpt lat="43.42773761184509" lon="5.970555925497319"><ele>311.0</ele><time>2026-05-01T14:25:25Z</time></trkpt><trkpt lat="43.42769911990794" lon="5.970640228044707"><ele>311.0</ele><time>2026-05-01T14:25:26Z</time></trkpt><trkpt lat="43.42761083198829" lon="5.970751870829611"><ele>311.0</ele><time>2026-05-01T14:25:28Z</time></trkpt><trkpt lat="43.42754313425763" lon="5.970852273799116"><ele>311.0</ele><time>2026-05-01T14:25:29Z</time></trkpt><trkpt lat="43.427477948515026" lon="5.970935353570685"><ele>311.2</ele><time>2026-05-01T14:25:30Z</time></trkpt><trkpt lat="43.427393495023644" lon="5.971062670944043"><ele>311.40000000000003</ele><time>2026-05-01T14:25:32Z</time></trkpt><trkpt lat="43.427361172112406" lon="5.971168120127733"><ele>311.6</ele><time>2026-05-01T14:25:34Z</time></trkpt><trkpt lat="43.42728415455199" lon="5.971224164104681"><ele>311.8</ele><time>2026-05-01T14:25:36Z</time></trkpt><trkpt lat="43.42720040179558" lon="5.971279937093128"><ele>312.0</ele><time>2026-05-01T14:25:38Z</time></trkpt><trkpt lat="43.427107143100905" lon="5.97139774675542"><ele>311.0</ele><time>2026-05-01T14:25:41Z</time></trkpt><trkpt lat="43.42704597617355" lon="5.971443381370705"><ele>310.0</ele><time>2026-05-01T14:25:42Z</time></trkpt><trkpt lat="43.42696485951938" lon="5.971448915788012"><ele>309.0</ele><time>2026-05-01T14:25:43Z</time></trkpt><trkpt lat="43.42688622168935" lon="5.971462744094012"><ele>308.0</ele><time>2026-05-01T14:25:44Z</time></trkpt><trkpt lat="43.42683018107031" lon="5.97151848418949"><ele>307.0</ele><time>2026-05-01T14:25:45Z</time></trkpt><trkpt lat="43.426798714170936" lon="5.971595830518069"><ele>306.0</ele><time>2026-05-01T14:25:46Z</time></trkpt><trkpt lat="43.42677587156417" lon="5.97168174175197"><ele>305.0</ele><time>2026-05-01T14:25:47Z</time></trkpt><trkpt lat="43.42674538634371" lon="5.971778370395386"><ele>304.83333333333337</ele><time>2026-05-01T14:25:48Z</time></trkpt><trkpt lat="43.42669866580778" lon="5.971879540455782"><ele>304.6666666666667</ele><time>2026-05-01T14:25:49Z</time></trkpt><trkpt lat="43.42663542773779" lon="5.971895163498115"><ele>304.5</ele><time>2026-05-01T14:25:52Z</time></trkpt><trkpt lat="43.42657408523251" lon="5.971960926597204"><ele>304.3333333333333</ele><time>2026-05-01T14:25:59Z</time></trkpt><trkpt lat="43.426547819547146" lon="5.9720905781864815"><ele>304.16666666666663</ele><time>2026-05-01T14:26:01Z</time></trkpt><trkpt lat="43.42650271225356" lon="5.972224887274044"><ele>304.0</ele><time>2026-05-01T14:26:03Z</time></trkpt><trkpt lat="43.42648062154949" lon="5.972374295928947"><ele>304.0</ele><time>2026-05-01T14:26:05Z</time></trkpt><trkpt lat="43.426457799735054" lon="5.972477034192311"><ele>304.0</ele><time>2026-05-01T14:26:06Z</time></trkpt><trkpt lat="43.42643158682297" lon="5.972569075310079"><ele>304.0</ele><time>2026-05-01T14:26:07Z</time></trkpt><trkpt lat="43.42639594143924" lon="5.972666331020105"><ele>304.0</ele><time>2026-05-01T14:26:08Z</time></trkpt><trkpt lat="43.42635074923507" lon="5.972785470692848"><ele>304.0</ele><time>2026-05-01T14:26:09Z</time></trkpt><trkpt lat="43.426311192285006" lon="5.972874212368058"><ele>304.0</ele><time>2026-05-01T14:26:10Z</time></trkpt><trkpt lat="43.426276772256735" lon="5.972949658624648"><ele>301.8333333333333</ele><time>2026-05-01T14:26:11Z</time></trkpt><trkpt lat="43.426246652453685" lon="5.973036130700774"><ele>299.66666666666663</ele><time>2026-05-01T14:26:12Z</time></trkpt><trkpt lat="43.42621360357044" lon="5.973122173093051"><ele>297.5</ele><time>2026-05-01T14:26:13Z</time></trkpt><trkpt lat="43.42618298447869" lon="5.973255407571202"><ele>295.3333333333333</ele><time>2026-05-01T14:26:15Z</time></trkpt><trkpt lat="43.42613007090578" lon="5.97337924527303"><ele>293.1666666666667</ele><time>2026-05-01T14:26:17Z</time></trkpt><trkpt lat="43.426092222430015" lon="5.973459114925264"><ele>291.0</ele><time>2026-05-01T14:26:18Z</time></trkpt><trkpt lat="43.426073791238686" lon="5.973600294947023"><ele>291.0</ele><time>2026-05-01T14:26:19Z</time></trkpt><trkpt lat="43.42606092653139" lon="5.973733747091827"><ele>291.0</ele><time>2026-05-01T14:26:20Z</time></trkpt><trkpt lat="43.42605924807368" lon="5.973825652977403"><ele>291.0</ele><time>2026-05-01T14:26:22Z</time></trkpt><trkpt lat="43.425978619517856" lon="5.973870500445091"><ele>291.0</ele><time>2026-05-01T14:26:24Z</time></trkpt><trkpt lat="43.42592219750925" lon="5.9740329646075105"><ele>291.0</ele><time>2026-05-01T14:26:26Z</time></trkpt><trkpt lat="43.42588908143273" lon="5.974116615857441"><ele>291.1666666666667</ele><time>2026-05-01T14:26:27Z</time></trkpt><trkpt lat="43.42590129428187" lon="5.974266270662716"><ele>291.3333333333333</ele><time>2026-05-01T14:26:29Z</time></trkpt><trkpt lat="43.42585310203494" lon="5.974349389801285"><ele>291.5</ele><time>2026-05-01T14:26:31Z</time></trkpt><trkpt lat="43.4257960426077" lon="5.974397193518761"><ele>291.66666666666663</ele><time>2026-05-01T14:26:34Z</time></trkpt><trkpt lat="43.425766024625176" lon="5.974479552467778"><ele>291.8333333333333</ele><time>2026-05-01T14:26:36Z</time></trkpt><trkpt lat="43.425731765294316" lon="5.97460527107927"><ele>292.0</ele><time>2026-05-01T14:26:38Z</time></trkpt><trkpt lat="43.42569134547542" lon="5.974729397496374"><ele>292.0</ele><time>2026-05-01T14:26:41Z</time></trkpt><trkpt lat="43.425618788349276" lon="5.9748218546188925"><ele>292.0</ele><time>2026-05-01T14:26:43Z</time></trkpt><trkpt lat="43.425563592591175" lon="5.974899712417016"><ele>292.0</ele><time>2026-05-01T14:26:44Z</time></trkpt><trkpt lat="43.4255172168997" lon="5.9749723904282845"><ele>292.0</ele><time>2026-05-01T14:26:45Z</time></trkpt><trkpt lat="43.42551254064714" lon="5.975084447391401"><ele>292.0</ele><time>2026-05-01T14:26:47Z</time></trkpt><trkpt lat="43.42542676422335" lon="5.975130451239808"><ele>292.0</ele><time>2026-05-01T14:26:49Z</time></trkpt><trkpt lat="43.42534817212394" lon="5.975195627129799"><ele>290.8333333333333</ele><time>2026-05-01T14:26:51Z</time></trkpt><trkpt lat="43.42528263517743" lon="5.975220573233247"><ele>289.66666666666663</ele><time>2026-05-01T14:26:53Z</time></trkpt><trkpt lat="43.425246467167746" lon="5.975131892082579"><ele>288.5</ele><time>2026-05-01T14:26:57Z</time></trkpt><trkpt lat="43.42523810505621" lon="5.974966752451824"><ele>287.3333333333333</ele><time>2026-05-01T14:26:59Z</time></trkpt><trkpt lat="43.42523030486777" lon="5.9748420793159465"><ele>286.1666666666667</ele><time>2026-05-01T14:27:00Z</time></trkpt><trkpt lat="43.425223794945396" lon="5.974716940967318"><ele>285.0</ele><time>2026-05-01T14:27:01Z</time></trkpt><trkpt lat="43.425215787183035" lon="5.974603502821722"><ele>285.0</ele><time>2026-05-01T14:27:02Z</time></trkpt><trkpt lat="43.425204562664796" lon="5.974485704348392"><ele>285.0</ele><time>2026-05-01T14:27:03Z</time></trkpt><trkpt lat="43.42519375256131" lon="5.974355062890537"><ele>285.0</ele><time>2026-05-01T14:27:04Z</time></trkpt><trkpt lat="43.42518350213956" lon="5.974183371567758"><ele>285.0</ele><time>2026-05-01T14:27:05Z</time></trkpt><trkpt lat="43.42517032993875" lon="5.97399533120748"><ele>285.0</ele><time>2026-05-01T14:27:06Z</time></trkpt><trkpt lat="43.42516735398157" lon="5.973838656070415"><ele>285.25</ele><time>2026-05-01T14:27:07Z</time></trkpt><trkpt lat="43.42516322502544" lon="5.973692439486801"><ele>285.5</ele><time>2026-05-01T14:27:08Z</time></trkpt><trkpt lat="43.425147408859814" lon="5.973547598910473"><ele>285.75</ele><time>2026-05-01T14:27:08.999Z</time></trkpt><trkpt lat="43.425108369156554" lon="5.973405706050341"><ele>286.0</ele><time>2026-05-01T14:27:09.999Z</time></trkpt><trkpt lat="43.4250637127501" lon="5.973234506658773"><ele>286.0</ele><time>2026-05-01T14:27:10.999Z</time></trkpt><trkpt lat="43.425025907101606" lon="5.973048098730405"><ele>286.0</ele><time>2026-05-01T14:27:11.999Z</time></trkpt><trkpt lat="43.42499121340986" lon="5.972821431190606"><ele>286.0</ele><time>2026-05-01T14:27:12.999Z</time></trkpt><trkpt lat="43.42496115432517" lon="5.972575027086741"><ele>286.0</ele><time>2026-05-01T14:27:13.999Z</time></trkpt><trkpt lat="43.42493904344604" lon="5.9723529601816825"><ele>286.0</ele><time>2026-05-01T14:27:14.999Z</time></trkpt><trkpt lat="43.42491677641839" lon="5.972163567242611"><ele>286.0</ele><time>2026-05-01T14:27:15.999Z</time></trkpt><trkpt lat="43.424888505021485" lon="5.971977173539559"><ele>286.0</ele><time>2026-05-01T14:27:16.999Z</time></trkpt><trkpt lat="43.42485731253717" lon="5.9717705677365"><ele>287.0</ele><time>2026-05-01T14:27:17.999Z</time></trkpt><trkpt lat="43.42482476995935" lon="5.971543873385456"><ele>288.0</ele><time>2026-05-01T14:27:18.999Z</time></trkpt><trkpt lat="43.42479875946156" lon="5.971353182380995"><ele>289.0</ele><time>2026-05-01T14:27:19.999Z</time></trkpt><trkpt lat="43.424787983953" lon="5.971187237936707"><ele>290.0</ele><time>2026-05-01T14:27:21Z</time></trkpt><trkpt lat="43.42477298849138" lon="5.971026805744773"><ele>290.75</ele><time>2026-05-01T14:27:22Z</time></trkpt><trkpt lat="43.424744297622404" lon="5.970853122377295"><ele>291.5</ele><time>2026-05-01T14:27:23Z</time></trkpt><trkpt lat="43.42472354326494" lon="5.970667814503694"><ele>292.25</ele><time>2026-05-01T14:27:24Z</time></trkpt><trkpt lat="43.42469945955158" lon="5.970506079332705"><ele>293.0</ele><time>2026-05-01T14:27:25Z</time></trkpt><trkpt lat="43.424682092402755" lon="5.970358690334386"><ele>293.0</ele><time>2026-05-01T14:27:26Z</time></trkpt><trkpt lat="43.4246668708694" lon="5.970230693263855"><ele>293.0</ele><time>2026-05-01T14:27:27Z</time></trkpt><trkpt lat="43.42466685187532" lon="5.97009299607906"><ele>293.0</ele><time>2026-05-01T14:27:28Z</time></trkpt><trkpt lat="43.42464266386646" lon="5.969951555278139"><ele>293.0</ele><time>2026-05-01T14:27:29Z</time></trkpt><trkpt lat="43.42463146346793" lon="5.9698048520685205"><ele>293.0</ele><time>2026-05-01T14:27:30Z</time></trkpt><trkpt lat="43.424617753219366" lon="5.969678840211522"><ele>292.6666666666667</ele><time>2026-05-01T14:27:31Z</time></trkpt><trkpt lat="43.42460702013136" lon="5.969546348753754"><ele>292.33333333333337</ele><time>2026-05-01T14:27:32Z</time></trkpt><trkpt lat="43.42459057909321" lon="5.96941298192289"><ele>292.0</ele><time>2026-05-01T14:27:33Z</time></trkpt><trkpt lat="43.42457845537357" lon="5.969300151416469"><ele>291.6666666666667</ele><time>2026-05-01T14:27:34Z</time></trkpt><trkpt lat="43.42457417137758" lon="5.969199262852643"><ele>291.3333333333333</ele><time>2026-05-01T14:27:35Z</time></trkpt><trkpt lat="43.42457165570025" lon="5.969108650406222"><ele>291.0</ele><time>2026-05-01T14:27:37Z</time></trkpt><trkpt lat="43.42445168049375" lon="5.969132768097705"><ele>291.0</ele><time>2026-05-01T14:27:39Z</time></trkpt><trkpt lat="43.424383311199534" lon="5.969134715940864"><ele>291.0</ele><time>2026-05-01T14:27:41Z</time></trkpt><trkpt lat="43.42429720425713" lon="5.969180540794081"><ele>291.0</ele><time>2026-05-01T14:27:44Z</time></trkpt><trkpt lat="43.42423112141324" lon="5.969179903140624"><ele>291.0</ele><time>2026-05-01T14:27:46Z</time></trkpt><trkpt lat="43.424158191155584" lon="5.969217118816167"><ele>291.0</ele><time>2026-05-01T14:27:47Z</time></trkpt><trkpt lat="43.424038041837505" lon="5.969237527602667"><ele>291.0</ele><time>2026-05-01T14:27:49Z</time></trkpt><trkpt lat="43.423955755121945" lon="5.969270819465167"><ele>291.0</ele><time>2026-05-01T14:27:51Z</time></trkpt><trkpt lat="43.423894072278216" lon="5.969293859774234"><ele>291.0</ele><time>2026-05-01T14:27:53Z</time></trkpt><trkpt lat="43.42385035695471" lon="5.9694466887991835"><ele>291.0</ele><time>2026-05-01T14:27:56Z</time></trkpt><trkpt lat="43.423875600836745" lon="5.969560843054923"><ele>291.0</ele><time>2026-05-01T14:27:57Z</time></trkpt><trkpt lat="43.42390781542581" lon="5.969712174924664"><ele>291.0</ele><time>2026-05-01T14:27:58Z</time></trkpt><trkpt lat="43.42393800126564" lon="5.969858917487461"><ele>291.25</ele><time>2026-05-01T14:27:59Z</time></trkpt><trkpt lat="43.42397508431891" lon="5.970039189506997"><ele>291.5</ele><time>2026-05-01T14:28:00Z</time></trkpt><trkpt lat="43.424018597016165" lon="5.970211243265827"><ele>291.75</ele><time>2026-05-01T14:28:01Z</time></trkpt><trkpt lat="43.42403394401569" lon="5.97035344531979"><ele>292.0</ele><time>2026-05-01T14:28:02Z</time></trkpt><trkpt lat="43.42407308774293" lon="5.970514376111156"><ele>292.0</ele><time>2026-05-01T14:28:03Z</time></trkpt><trkpt lat="43.42410237686537" lon="5.970713074289832"><ele>292.0</ele><time>2026-05-01T14:28:04Z</time></trkpt><trkpt lat="43.42412938018835" lon="5.970887401769184"><ele>292.0</ele><time>2026-05-01T14:28:05Z</time></trkpt><trkpt lat="43.424149893795274" lon="5.971051643396793"><ele>292.0</ele><time>2026-05-01T14:28:06Z</time></trkpt><trkpt lat="43.42417158270995" lon="5.971195183882182"><ele>292.0</ele><time>2026-05-01T14:28:07Z</time></trkpt><trkpt lat="43.42419464782995" lon="5.971334745967683"><ele>292.0</ele><time>2026-05-01T14:28:08Z</time></trkpt><trkpt lat="43.4242192976284" lon="5.971487988065085"><ele>292.0</ele><time>2026-05-01T14:28:09Z</time></trkpt><trkpt lat="43.424239656547265" lon="5.971630960617364"><ele>292.0</ele><time>2026-05-01T14:28:10Z</time></trkpt><trkpt lat="43.424266324077244" lon="5.971769309161694"><ele>292.0</ele><time>2026-05-01T14:28:11Z</time></trkpt><trkpt lat="43.424282776112136" lon="5.971892509481143"><ele>291.8</ele><time>2026-05-01T14:28:12Z</time></trkpt><trkpt lat="43.424306123642204" lon="5.972012305492431"><ele>291.6</ele><time>2026-05-01T14:28:13Z</time></trkpt><trkpt lat="43.42433062846911" lon="5.972156330756633"><ele>291.40000000000003</ele><time>2026-05-01T14:28:14Z</time></trkpt><trkpt lat="43.424363726959015" lon="5.9723077290807085"><ele>291.2</ele><time>2026-05-01T14:28:15Z</time></trkpt><trkpt lat="43.42439021388531" lon="5.972483422711423"><ele>291.0</ele><time>2026-05-01T14:28:16Z</time></trkpt><trkpt lat="43.424432584910036" lon="5.972680166157814"><ele>291.0</ele><time>2026-05-01T14:28:17Z</time></trkpt><trkpt lat="43.42446811470221" lon="5.9728573700208365"><ele>291.0</ele><time>2026-05-01T14:28:18Z</time></trkpt><trkpt lat="43.424497584700845" lon="5.97301306095509"><ele>291.0</ele><time>2026-05-01T14:28:19Z</time></trkpt><trkpt lat="43.42452091670418" lon="5.973171046676524"><ele>291.0</ele><time>2026-05-01T14:28:20Z</time></trkpt><trkpt lat="43.42455179128281" lon="5.973318114179359"><ele>290.40000000000003</ele><time>2026-05-01T14:28:21Z</time></trkpt><trkpt lat="43.424557495458764" lon="5.973462628421361"><ele>289.8</ele><time>2026-05-01T14:28:22Z</time></trkpt><trkpt lat="43.42457578025213" lon="5.973596928699131"><ele>289.20000000000005</ele><time>2026-05-01T14:28:23Z</time></trkpt><trkpt lat="43.42460612252297" lon="5.973717377844933"><ele>288.6</ele><time>2026-05-01T14:28:24Z</time></trkpt><trkpt lat="43.424615821637744" lon="5.973840288723241"><ele>288.0</ele><time>2026-05-01T14:28:25Z</time></trkpt><trkpt lat="43.42462771607304" lon="5.973964036645366"><ele>288.0</ele><time>2026-05-01T14:28:26Z</time></trkpt><trkpt lat="43.42463397244067" lon="5.974058209558535"><ele>288.0</ele><time>2026-05-01T14:28:27Z</time></trkpt><trkpt lat="43.42463102780208" lon="5.974201272849129"><ele>288.0</ele><time>2026-05-01T14:28:29Z</time></trkpt><trkpt lat="43.42464079591165" lon="5.974371726419042"><ele>288.0</ele><time>2026-05-01T14:28:31Z</time></trkpt><trkpt lat="43.4246816329257" lon="5.974489271741172"><ele>288.0</ele><time>2026-05-01T14:28:32Z</time></trkpt><trkpt lat="43.42468608170761" lon="5.974615112507432"><ele>287.4</ele><time>2026-05-01T14:28:33Z</time></trkpt><trkpt lat="43.4246795395839" lon="5.974731440573295"><ele>286.8</ele><time>2026-05-01T14:28:34Z</time></trkpt><trkpt lat="43.42482756046992" lon="5.974768216722343"><ele>286.2</ele><time>2026-05-01T14:28:35Z</time></trkpt><trkpt lat="43.424835391408315" lon="5.974863428212528"><ele>285.6</ele><time>2026-05-01T14:28:37Z</time></trkpt><trkpt lat="43.424846238023854" lon="5.97500291643133"><ele>285.0</ele><time>2026-05-01T14:28:39Z</time></trkpt><trkpt lat="43.42485544802535" lon="5.975117894893394"><ele>284.0</ele><time>2026-05-01T14:28:40Z</time></trkpt><trkpt lat="43.424361394052866" lon="5.9752693387621205"><ele>284.0</ele><time>2026-05-01T14:28:43Z</time></trkpt><trkpt lat="43.424286679748235" lon="5.975317544142621"><ele>284.0</ele><time>2026-05-01T14:28:44Z</time></trkpt><trkpt lat="43.42421219098889" lon="5.975397480901538"><ele>284.0</ele><time>2026-05-01T14:28:45Z</time></trkpt><trkpt lat="43.4241533012171" lon="5.975497631684374"><ele>284.0</ele><time>2026-05-01T14:28:46Z</time></trkpt><trkpt lat="43.42410203173349" lon="5.975627623455043"><ele>284.0</ele><time>2026-05-01T14:28:47Z</time></trkpt><trkpt lat="43.42405179316441" lon="5.975759979847546"><ele>283.83333333333337</ele><time>2026-05-01T14:28:48Z</time></trkpt><trkpt lat="43.42400102646615" lon="5.975896647543401"><ele>283.6666666666667</ele><time>2026-05-01T14:28:49Z</time></trkpt><trkpt lat="43.42397595318015" lon="5.976001486901153"><ele>283.5</ele><time>2026-05-01T14:28:50Z</time></trkpt><trkpt lat="43.423962779599336" lon="5.97614627872842"><ele>283.3333333333333</ele><time>2026-05-01T14:28:51Z</time></trkpt><trkpt lat="43.42394318231431" lon="5.976248530320873"><ele>283.16666666666663</ele><time>2026-05-01T14:28:52Z</time></trkpt><trkpt lat="43.42391955114951" lon="5.976345400489347"><ele>283.0</ele><time>2026-05-01T14:28:53Z</time></trkpt><trkpt lat="43.42388511969327" lon="5.976435718941204"><ele>283.0</ele><time>2026-05-01T14:28:54Z</time></trkpt><trkpt lat="43.42381409601098" lon="5.976549134853065"><ele>283.0</ele><time>2026-05-01T14:28:54.999Z</time></trkpt><trkpt lat="43.42373440542894" lon="5.976666949157409"><ele>283.0</ele><time>2026-05-01T14:28:55.999Z</time></trkpt><trkpt lat="43.42367457102651" lon="5.976746514695407"><ele>283.0</ele><time>2026-05-01T14:28:56.999Z</time></trkpt><trkpt lat="43.42361978878476" lon="5.976830572058561"><ele>283.0</ele><time>2026-05-01T14:28:57.999Z</time></trkpt><trkpt lat="43.42359460239387" lon="5.976915863821032"><ele>283.4</ele><time>2026-05-01T14:28:58.999Z</time></trkpt><trkpt lat="43.423569378265924" lon="5.977056105698736"><ele>283.8</ele><time>2026-05-01T14:28:59.999Z</time></trkpt><trkpt lat="43.42351910443881" lon="5.977207773479353"><ele>284.2</ele><time>2026-05-01T14:29:00.999Z</time></trkpt><trkpt lat="43.423468462004735" lon="5.977330158865129"><ele>284.6</ele><time>2026-05-01T14:29:01.999Z</time></trkpt><trkpt lat="43.42342590989757" lon="5.977437295056804"><ele>285.0</ele><time>2026-05-01T14:29:02.999Z</time></trkpt><trkpt lat="43.42337645228418" lon="5.9775335288650835"><ele>285.5</ele><time>2026-05-01T14:29:03.999Z</time></trkpt><trkpt lat="43.42332247955613" lon="5.977601733174342"><ele>286.0</ele><time>2026-05-01T14:29:04.999Z</time></trkpt><trkpt lat="43.42325741946131" lon="5.977642518846681"><ele>286.5</ele><time>2026-05-01T14:29:05.999Z</time></trkpt><trkpt lat="43.423135125798304" lon="5.977679572407888"><ele>287.0</ele><time>2026-05-01T14:29:07.999Z</time></trkpt><trkpt lat="43.42306201338866" lon="5.977694499019539"><ele>287.5</ele><time>2026-05-01T14:29:10.999Z</time></trkpt><trkpt lat="43.422960439472526" lon="5.977706789110743"><ele>288.0</ele><time>2026-05-01T14:29:14.999Z</time></trkpt><trkpt lat="43.42288103750303" lon="5.977686409499307"><ele>288.0</ele><time>2026-05-01T14:29:16.999Z</time></trkpt><trkpt lat="43.42278326640073" lon="5.97754271106893"><ele>288.0</ele><time>2026-05-01T14:29:18.999Z</time></trkpt><trkpt lat="43.42272237924508" lon="5.977497546806332"><ele>288.0</ele><time>2026-05-01T14:29:19.999Z</time></trkpt><trkpt lat="43.42266120216556" lon="5.977442677665017"><ele>288.0</ele><time>2026-05-01T14:29:20.999Z</time></trkpt><trkpt lat="43.4226022253782" lon="5.977392534742518"><ele>288.0</ele><time>2026-05-01T14:29:21.999Z</time></trkpt><trkpt lat="43.42253674601746" lon="5.977345536354485"><ele>288.0</ele><time>2026-05-01T14:29:22.999Z</time></trkpt><trkpt lat="43.42245666811841" lon="5.9772891854804415"><ele>288.5</ele><time>2026-05-01T14:29:23.999Z</time></trkpt><trkpt lat="43.42235628413061" lon="5.977270282221303"><ele>289.0</ele><time>2026-05-01T14:29:25.999Z</time></trkpt><trkpt lat="43.4222849017832" lon="5.977286111268504"><ele>289.5</ele><time>2026-05-01T14:29:27Z</time></trkpt><trkpt lat="43.42219324621594" lon="5.977282728672832"><ele>290.0</ele><time>2026-05-01T14:29:28Z</time></trkpt><trkpt lat="43.42210076486638" lon="5.97727153372169"><ele>290.5</ele><time>2026-05-01T14:29:29Z</time></trkpt><trkpt lat="43.4220280313682" lon="5.977254924895801"><ele>291.0</ele><time>2026-05-01T14:29:30Z</time></trkpt><trkpt lat="43.42195502218458" lon="5.9771979859223245"><ele>291.40000000000003</ele><time>2026-05-01T14:29:31Z</time></trkpt><trkpt lat="43.42184790393445" lon="5.977127696968044"><ele>291.8</ele><time>2026-05-01T14:29:32Z</time></trkpt><trkpt lat="43.421738122241834" lon="5.977066389484262"><ele>292.20000000000005</ele><time>2026-05-01T14:29:33Z</time></trkpt><trkpt lat="43.42167666329533" lon="5.977013329727422"><ele>292.6</ele><time>2026-05-01T14:29:34Z</time></trkpt><trkpt lat="43.42160943200709" lon="5.976980363991898"><ele>293.0</ele><time>2026-05-01T14:29:35Z</time></trkpt><trkpt lat="43.42154849068824" lon="5.976930192048951"><ele>293.0</ele><time>2026-05-01T14:29:36Z</time></trkpt><trkpt lat="43.421476796730985" lon="5.976889303795064"><ele>293.0</ele><time>2026-05-01T14:29:37Z</time></trkpt><trkpt lat="43.421399173706874" lon="5.976841063539946"><ele>293.0</ele><time>2026-05-01T14:29:38Z</time></trkpt><trkpt lat="43.42134045010141" lon="5.976800616985144"><ele>293.0</ele><time>2026-05-01T14:29:39Z</time></trkpt><trkpt lat="43.42127234834474" lon="5.976775643185285"><ele>293.0</ele><time>2026-05-01T14:29:40Z</time></trkpt><trkpt lat="43.42118481428234" lon="5.976739391789346"><ele>293.0</ele><time>2026-05-01T14:29:41Z</time></trkpt><trkpt lat="43.42109519799704" lon="5.976697975611692"><ele>294.2</ele><time>2026-05-01T14:29:42Z</time></trkpt><trkpt lat="43.42100619358004" lon="5.97666749477153"><ele>295.4</ele><time>2026-05-01T14:29:43Z</time></trkpt><trkpt lat="43.42093218201503" lon="5.976632116043278"><ele>296.59999999999997</ele><time>2026-05-01T14:29:44Z</time></trkpt><trkpt lat="43.42083020051395" lon="5.976594496309146"><ele>297.8</ele><time>2026-05-01T14:29:46Z</time></trkpt><trkpt lat="43.420700544271014" lon="5.976553898089451"><ele>299.0</ele><time>2026-05-01T14:29:48Z</time></trkpt><trkpt lat="43.42062304874354" lon="5.976514398716068"><ele>299.0</ele><time>2026-05-01T14:29:49Z</time></trkpt><trkpt lat="43.420548398911635" lon="5.976489164783768"><ele>299.0</ele><time>2026-05-01T14:29:50Z</time></trkpt><trkpt lat="43.42047480906276" lon="5.976452592165985"><ele>299.0</ele><time>2026-05-01T14:29:51Z</time></trkpt><trkpt lat="43.420359293451774" lon="5.9763941607784945"><ele>299.0</ele><time>2026-05-01T14:29:53Z</time></trkpt><trkpt lat="43.42031790122" lon="5.976305965274328"><ele>299.0</ele><time>2026-05-01T14:29:54Z</time></trkpt><trkpt lat="43.42024162871642" lon="5.976291777730136"><ele>299.0</ele><time>2026-05-01T14:29:56Z</time></trkpt><trkpt lat="43.420170589789564" lon="5.9763324925869155"><ele>299.8</ele><time>2026-05-01T14:29:58Z</time></trkpt><trkpt lat="43.42005166031001" lon="5.976286153237906"><ele>300.59999999999997</ele><time>2026-05-01T14:30:00Z</time></trkpt><trkpt lat="43.419970021787066" lon="5.9763224536734105"><ele>301.4</ele><time>2026-05-01T14:30:01Z</time></trkpt><trkpt lat="43.41990225161904" lon="5.976353971295306"><ele>302.2</ele><time>2026-05-01T14:30:02Z</time></trkpt><trkpt lat="43.41979974113594" lon="5.9763819601969415"><ele>303.0</ele><time>2026-05-01T14:30:04Z</time></trkpt><trkpt lat="43.41971614514411" lon="5.976366539239281"><ele>303.0</ele><time>2026-05-01T14:30:07Z</time></trkpt><trkpt lat="43.419704362460564" lon="5.976241624535827"><ele>303.0</ele><time>2026-05-01T14:30:09Z</time></trkpt><trkpt lat="43.419709257122804" lon="5.97614283081203"><ele>303.0</ele><time>2026-05-01T14:30:10Z</time></trkpt><trkpt lat="43.41969817445737" lon="5.976001958382883"><ele>303.0</ele><time>2026-05-01T14:30:11Z</time></trkpt><trkpt lat="43.41971402594956" lon="5.975852589004959"><ele>303.0</ele><time>2026-05-01T14:30:12Z</time></trkpt><trkpt lat="43.41969891899161" lon="5.975729365681264"><ele>302.6</ele><time>2026-05-01T14:30:13Z</time></trkpt><trkpt lat="43.41969067579502" lon="5.975631580075193"><ele>302.20000000000005</ele><time>2026-05-01T14:30:14Z</time></trkpt><trkpt lat="43.41968129065006" lon="5.975484443784341"><ele>301.8</ele><time>2026-05-01T14:30:16Z</time></trkpt><trkpt lat="43.41956952244992" lon="5.975382839868091"><ele>301.40000000000003</ele><time>2026-05-01T14:30:18Z</time></trkpt><trkpt lat="43.419503068356434" lon="5.975415321029019"><ele>301.0</ele><time>2026-05-01T14:30:19Z</time></trkpt><trkpt lat="43.41941220608875" lon="5.975566421911083"><ele>299.5</ele><time>2026-05-01T14:30:21Z</time></trkpt><trkpt lat="43.41930940197161" lon="5.97568192573336"><ele>298.0</ele><time>2026-05-01T14:30:22Z</time></trkpt><trkpt lat="43.41925427171406" lon="5.975800179080943"><ele>296.5</ele><time>2026-05-01T14:30:23Z</time></trkpt><trkpt lat="43.419182227588415" lon="5.975912274186734"><ele>295.0</ele><time>2026-05-01T14:30:24Z</time></trkpt><trkpt lat="43.41911039789047" lon="5.976025077425396"><ele>295.0</ele><time>2026-05-01T14:30:25Z</time></trkpt><trkpt lat="43.41904176927774" lon="5.976124128258721"><ele>295.0</ele><time>2026-05-01T14:30:26Z</time></trkpt><trkpt lat="43.41898952670426" lon="5.976208971649878"><ele>295.0</ele><time>2026-05-01T14:30:27Z</time></trkpt><trkpt lat="43.41892952650922" lon="5.9762481262475475"><ele>295.0</ele><time>2026-05-01T14:30:28Z</time></trkpt><trkpt lat="43.41884628797239" lon="5.976270762098682"><ele>295.0</ele><time>2026-05-01T14:30:30Z</time></trkpt><trkpt lat="43.41871197009633" lon="5.976250996511572"><ele>293.25</ele><time>2026-05-01T14:30:32Z</time></trkpt><trkpt lat="43.41859117265748" lon="5.976175059852677"><ele>291.5</ele><time>2026-05-01T14:30:33Z</time></trkpt><trkpt lat="43.418469977691984" lon="5.976120740567499"><ele>289.75</ele><time>2026-05-01T14:30:34Z</time></trkpt><trkpt lat="43.41836295984161" lon="5.976074983375563"><ele>288.0</ele><time>2026-05-01T14:30:35Z</time></trkpt><trkpt lat="43.41823950218564" lon="5.976022456165354"><ele>288.0</ele><time>2026-05-01T14:30:36Z</time></trkpt><trkpt lat="43.41810525458351" lon="5.975965874526924"><ele>288.0</ele><time>2026-05-01T14:30:37Z</time></trkpt><trkpt lat="43.417983136609394" lon="5.975916286023151"><ele>288.0</ele><time>2026-05-01T14:30:38Z</time></trkpt><trkpt lat="43.41786644093322" lon="5.975888863428954"><ele>288.0</ele><time>2026-05-01T14:30:39Z</time></trkpt><trkpt lat="43.41776260371755" lon="5.975844626442886"><ele>284.0</ele><time>2026-05-01T14:30:40Z</time></trkpt><trkpt lat="43.41767416288188" lon="5.9758108893582245"><ele>280.0</ele><time>2026-05-01T14:30:40.999Z</time></trkpt><trkpt lat="43.41760645849654" lon="5.9757801387301654"><ele>276.0</ele><time>2026-05-01T14:30:41.999Z</time></trkpt><trkpt lat="43.417473162089834" lon="5.975770909983828"><ele>272.0</ele><time>2026-05-01T14:30:43.999Z</time></trkpt><trkpt lat="43.417396314850194" lon="5.975766778494493"><ele>268.0</ele><time>2026-05-01T14:30:44.999Z</time></trkpt><trkpt lat="43.41731704289721" lon="5.975760465632443"><ele>268.0</ele><time>2026-05-01T14:30:45.999Z</time></trkpt><trkpt lat="43.41723848824448" lon="5.97573783110819"><ele>268.0</ele><time>2026-05-01T14:30:46.999Z</time></trkpt><trkpt lat="43.41714808279005" lon="5.97574701037371"><ele>268.0</ele><time>2026-05-01T14:30:47.999Z</time></trkpt><trkpt lat="43.41706888189972" lon="5.975556590215438"><ele>268.0</ele><time>2026-05-01T14:30:48.999Z</time></trkpt><trkpt lat="43.4169914864561" lon="5.975493175984177"><ele>268.0</ele><time>2026-05-01T14:30:49.999Z</time></trkpt><trkpt lat="43.416909601537085" lon="5.975435268283057"><ele>266.2</ele><time>2026-05-01T14:30:50.999Z</time></trkpt><trkpt lat="43.41682786622162" lon="5.975414927105303"><ele>264.4</ele><time>2026-05-01T14:30:51.999Z</time></trkpt><trkpt lat="43.41672997737468" lon="5.975370925991997"><ele>262.59999999999997</ele><time>2026-05-01T14:30:52.999Z</time></trkpt><trkpt lat="43.416626336941235" lon="5.975314445898677"><ele>260.8</ele><time>2026-05-01T14:30:53.999Z</time></trkpt><trkpt lat="43.416545627199554" lon="5.97526355424595"><ele>259.0</ele><time>2026-05-01T14:30:54.999Z</time></trkpt><trkpt lat="43.41645623272582" lon="5.975199894884739"><ele>259.0</ele><time>2026-05-01T14:30:55.999Z</time></trkpt><trkpt lat="43.41638468278021" lon="5.975107348510985"><ele>259.0</ele><time>2026-05-01T14:30:56.999Z</time></trkpt><trkpt lat="43.41629840995962" lon="5.975014563550288"><ele>259.0</ele><time>2026-05-01T14:30:57.999Z</time></trkpt><trkpt lat="43.41619556526612" lon="5.97492222712992"><ele>259.0</ele><time>2026-05-01T14:30:58.999Z</time></trkpt><trkpt lat="43.41608954800934" lon="5.974848998773693"><ele>259.0</ele><time>2026-05-01T14:30:59.999Z</time></trkpt><trkpt lat="43.41596880535992" lon="5.974771256324874"><ele>259.0</ele><time>2026-05-01T14:31:00.999Z</time></trkpt><trkpt lat="43.41585426496478" lon="5.974720174038971"><ele>259.0</ele><time>2026-05-01T14:31:01.999Z</time></trkpt><trkpt lat="43.415723105531534" lon="5.974695696610316"><ele>259.0</ele><time>2026-05-01T14:31:02.999Z</time></trkpt><trkpt lat="43.415597432823844" lon="5.9746895075740785"><ele>259.0</ele><time>2026-05-01T14:31:03.999Z</time></trkpt><trkpt lat="43.41548529006107" lon="5.974684705566752"><ele>259.4</ele><time>2026-05-01T14:31:04.999Z</time></trkpt><trkpt lat="43.41539279859377" lon="5.974674208723155"><ele>259.79999999999995</ele><time>2026-05-01T14:31:05.999Z</time></trkpt><trkpt lat="43.41529525565794" lon="5.974665252956623"><ele>260.20000000000005</ele><time>2026-05-01T14:31:06.999Z</time></trkpt><trkpt lat="43.4151790253573" lon="5.974655606427954"><ele>260.6</ele><time>2026-05-01T14:31:07.999Z</time></trkpt><trkpt lat="43.41506968053566" lon="5.974649602767753"><ele>261.0</ele><time>2026-05-01T14:31:08.999Z</time></trkpt><trkpt lat="43.41499639575188" lon="5.974609199176952"><ele>261.0</ele><time>2026-05-01T14:31:09.999Z</time></trkpt><trkpt lat="43.41493110983204" lon="5.974592798236939"><ele>261.0</ele><time>2026-05-01T14:31:10.999Z</time></trkpt><trkpt lat="43.41479293699055" lon="5.974581077475647"><ele>261.0</ele><time>2026-05-01T14:31:12.999Z</time></trkpt><trkpt lat="43.41468573659128" lon="5.974586520308812"><ele>261.0</ele><time>2026-05-01T14:31:13.999Z</time></trkpt><trkpt lat="43.41458339905473" lon="5.974599112980029"><ele>261.0</ele><time>2026-05-01T14:31:14.999Z</time></trkpt><trkpt lat="43.414497214687835" lon="5.974561082057582"><ele>260.0</ele><time>2026-05-01T14:31:15.999Z</time></trkpt><trkpt lat="43.414387775756246" lon="5.974534698900315"><ele>259.0</ele><time>2026-05-01T14:31:16.999Z</time></trkpt><trkpt lat="43.41424100367072" lon="5.974588272078326"><ele>258.0</ele><time>2026-05-01T14:31:17.999Z</time></trkpt><trkpt lat="43.41409953463303" lon="5.974575420414582"><ele>257.0</ele><time>2026-05-01T14:31:18.999Z</time></trkpt><trkpt lat="43.413974631425624" lon="5.974546545845105"><ele>257.0</ele><time>2026-05-01T14:31:19.999Z</time></trkpt><trkpt lat="43.41384271279996" lon="5.974510134464113"><ele>257.0</ele><time>2026-05-01T14:31:20.999Z</time></trkpt><trkpt lat="43.41370234226816" lon="5.974493970581781"><ele>257.0</ele><time>2026-05-01T14:31:21.999Z</time></trkpt><trkpt lat="43.41358656158701" lon="5.974473973851125"><ele>257.0</ele><time>2026-05-01T14:31:22.999Z</time></trkpt><trkpt lat="43.413477538613705" lon="5.974476318360349"><ele>256.6</ele><time>2026-05-01T14:31:23.999Z</time></trkpt><trkpt lat="43.41337374389502" lon="5.974479716113621"><ele>256.2</ele><time>2026-05-01T14:31:24.999Z</time></trkpt><trkpt lat="43.413279734690015" lon="5.974423678834319"><ele>255.8</ele><time>2026-05-01T14:31:25.999Z</time></trkpt><trkpt lat="43.41319592061912" lon="5.97437731003838"><ele>255.4</ele><time>2026-05-01T14:31:26.999Z</time></trkpt><trkpt lat="43.41311283358996" lon="5.9743303751356445"><ele>255.0</ele><time>2026-05-01T14:31:27.999Z</time></trkpt><trkpt lat="43.41307476349937" lon="5.974224599042659"><ele>255.25</ele><time>2026-05-01T14:31:28.999Z</time></trkpt><trkpt lat="43.41303667297394" lon="5.974095433014687"><ele>255.5</ele><time>2026-05-01T14:31:29.999Z</time></trkpt><trkpt lat="43.4129762062744" lon="5.973920268355758"><ele>255.75</ele><time>2026-05-01T14:31:30.999Z</time></trkpt><trkpt lat="43.41292738448252" lon="5.973745016818163"><ele>256.0</ele><time>2026-05-01T14:31:31.999Z</time></trkpt><trkpt lat="43.41288434634525" lon="5.973617109978289"><ele>256.66666666666663</ele><time>2026-05-01T14:31:33Z</time></trkpt><trkpt lat="43.41283686135272" lon="5.97353207333174"><ele>257.3333333333333</ele><time>2026-05-01T14:31:34Z</time></trkpt><trkpt lat="43.412780956542036" lon="5.973467091986004"><ele>258.0</ele><time>2026-05-01T14:31:35Z</time></trkpt><trkpt lat="43.41270643197483" lon="5.97343462670415"><ele>258.6666666666667</ele><time>2026-05-01T14:31:36Z</time></trkpt><trkpt lat="43.412619551089605" lon="5.973420162089781"><ele>259.33333333333337</ele><time>2026-05-01T14:31:37Z</time></trkpt><trkpt lat="43.412506551847166" lon="5.973415640359846"><ele>260.0</ele><time>2026-05-01T14:31:38Z</time></trkpt><trkpt lat="43.412402327942225" lon="5.973391550293061"><ele>260.0</ele><time>2026-05-01T14:31:39Z</time></trkpt><trkpt lat="43.412309237206486" lon="5.973380005668273"><ele>260.0</ele><time>2026-05-01T14:31:40Z</time></trkpt><trkpt lat="43.41221758037353" lon="5.973407822306779"><ele>260.0</ele><time>2026-05-01T14:31:41Z</time></trkpt><trkpt lat="43.41214412340858" lon="5.973470040733815"><ele>260.0</ele><time>2026-05-01T14:31:42Z</time></trkpt><trkpt lat="43.412063793642425" lon="5.9735290642381536"><ele>260.0</ele><time>2026-05-01T14:31:43Z</time></trkpt><trkpt lat="43.411995918943795" lon="5.973551995803522"><ele>260.0</ele><time>2026-05-01T14:31:44Z</time></trkpt><trkpt lat="43.41193029889369" lon="5.973525859815938"><ele>257.5</ele><time>2026-05-01T14:31:45Z</time></trkpt><trkpt lat="43.41183611074132" lon="5.973527860687363"><ele>255.0</ele><time>2026-05-01T14:31:46Z</time></trkpt><trkpt lat="43.41172403688069" lon="5.973489438223442"><ele>252.5</ele><time>2026-05-01T14:31:47Z</time></trkpt><trkpt lat="43.41159496174355" lon="5.973441391532263"><ele>250.0</ele><time>2026-05-01T14:31:48Z</time></trkpt><trkpt lat="43.41146324198031" lon="5.973382521017187"><ele>250.0</ele><time>2026-05-01T14:31:49Z</time></trkpt><trkpt lat="43.41134796964386" lon="5.973322944741744"><ele>250.0</ele><time>2026-05-01T14:31:50Z</time></trkpt><trkpt lat="43.411243498024334" lon="5.9732556412467055"><ele>250.0</ele><time>2026-05-01T14:31:51Z</time></trkpt><trkpt lat="43.411156213249065" lon="5.973175528942706"><ele>250.0</ele><time>2026-05-01T14:31:52Z</time></trkpt><trkpt lat="43.41108191479632" lon="5.973073419722959"><ele>250.0</ele><time>2026-05-01T14:31:53Z</time></trkpt><trkpt lat="43.41101103344558" lon="5.972980209030579"><ele>250.0</ele><time>2026-05-01T14:31:54Z</time></trkpt><trkpt lat="43.41092616222462" lon="5.972939174877386"><ele>250.0</ele><time>2026-05-01T14:31:55Z</time></trkpt><trkpt lat="43.41080782385477" lon="5.972911257249163"><ele>250.0</ele><time>2026-05-01T14:31:56Z</time></trkpt><trkpt lat="43.4106625159712" lon="5.9728824376781615"><ele>250.0</ele><time>2026-05-01T14:31:57Z</time></trkpt><trkpt lat="43.41052186055088" lon="5.972800358423391"><ele>249.75</ele><time>2026-05-01T14:31:58Z</time></trkpt><trkpt lat="43.41037364299182" lon="5.972729695445755"><ele>249.5</ele><time>2026-05-01T14:31:59Z</time></trkpt><trkpt lat="43.410246885034994" lon="5.972664396005011"><ele>249.25</ele><time>2026-05-01T14:32:00Z</time></trkpt><trkpt lat="43.41012731607271" lon="5.97259090024228"><ele>249.0</ele><time>2026-05-01T14:32:01Z</time></trkpt><trkpt lat="43.40998820485218" lon="5.972490718415334"><ele>249.0</ele><time>2026-05-01T14:32:02Z</time></trkpt><trkpt lat="43.40982106789078" lon="5.972389494014668"><ele>249.0</ele><time>2026-05-01T14:32:03Z</time></trkpt><trkpt lat="43.409673776703954" lon="5.972272034733517"><ele>249.0</ele><time>2026-05-01T14:32:04Z</time></trkpt><trkpt lat="43.409561594470055" lon="5.972183215554346"><ele>248.25</ele><time>2026-05-01T14:32:05Z</time></trkpt><trkpt lat="43.40948169377597" lon="5.9721207400260585"><ele>247.5</ele><time>2026-05-01T14:32:06Z</time></trkpt><trkpt lat="43.409402996046374" lon="5.972052340434719"><ele>246.75</ele><time>2026-05-01T14:32:07Z</time></trkpt><trkpt lat="43.40928311858262" lon="5.972026673183026"><ele>246.0</ele><time>2026-05-01T14:32:08Z</time></trkpt><trkpt lat="43.40912637114992" lon="5.9719986211807194"><ele>246.0</ele><time>2026-05-01T14:32:09Z</time></trkpt><trkpt lat="43.408951174803825" lon="5.971959645536825"><ele>246.0</ele><time>2026-05-01T14:32:10Z</time></trkpt><trkpt lat="43.40880269232873" lon="5.971928124382693"><ele>246.0</ele><time>2026-05-01T14:32:11Z</time></trkpt><trkpt lat="43.408659187436264" lon="5.971897992672134"><ele>246.25</ele><time>2026-05-01T14:32:12Z</time></trkpt><trkpt lat="43.40853303267368" lon="5.971864281814584"><ele>246.5</ele><time>2026-05-01T14:32:13Z</time></trkpt><trkpt lat="43.40841656841442" lon="5.971841663100691"><ele>246.75</ele><time>2026-05-01T14:32:14Z</time></trkpt><trkpt lat="43.40829847558538" lon="5.971810947984811"><ele>247.0</ele><time>2026-05-01T14:32:15Z</time></trkpt><trkpt lat="43.4082028785218" lon="5.971797237997718"><ele>247.0</ele><time>2026-05-01T14:32:16Z</time></trkpt><trkpt lat="43.408126029991756" lon="5.971777940910696"><ele>247.0</ele><time>2026-05-01T14:32:17Z</time></trkpt><trkpt lat="43.408053001339" lon="5.971776548730551"><ele>247.0</ele><time>2026-05-01T14:32:18Z</time></trkpt><trkpt lat="43.40798993421451" lon="5.971756656447515"><ele>247.0</ele><time>2026-05-01T14:32:20Z</time></trkpt><trkpt lat="43.4078988648108" lon="5.971744888975894"><ele>247.0</ele><time>2026-05-01T14:32:30.999Z</time></trkpt><trkpt lat="43.40775402292228" lon="5.971733506395473"><ele>246.6</ele><time>2026-05-01T14:32:32.999Z</time></trkpt><trkpt lat="43.40767822708354" lon="5.971741836720967"><ele>246.2</ele><time>2026-05-01T14:32:33.999Z</time></trkpt><trkpt lat="43.40757081061866" lon="5.971763526512833"><ele>245.8</ele><time>2026-05-01T14:32:34.999Z</time></trkpt><trkpt lat="43.40747137952579" lon="5.971798392402718"><ele>245.4</ele><time>2026-05-01T14:32:35.999Z</time></trkpt><trkpt lat="43.40733805943445" lon="5.971837783937448"><ele>245.0</ele><time>2026-05-01T14:32:36.999Z</time></trkpt><trkpt lat="43.40720857074418" lon="5.971859330227365"><ele>245.0</ele><time>2026-05-01T14:32:37.999Z</time></trkpt><trkpt lat="43.407070411502396" lon="5.971869560957245"><ele>245.0</ele><time>2026-05-01T14:32:38.999Z</time></trkpt><trkpt lat="43.40690473791517" lon="5.971884485486539"><ele>245.0</ele><time>2026-05-01T14:32:39.999Z</time></trkpt><trkpt lat="43.406714634819096" lon="5.971909905714647"><ele>245.0</ele><time>2026-05-01T14:32:40.999Z</time></trkpt><trkpt lat="43.4065461581755" lon="5.971932775812892"><ele>245.0</ele><time>2026-05-01T14:32:41.999Z</time></trkpt><trkpt lat="43.40639937406177" lon="5.971951697142844"><ele>245.0</ele><time>2026-05-01T14:32:42.999Z</time></trkpt><trkpt lat="43.406247907995024" lon="5.971949050475171"><ele>245.0</ele><time>2026-05-01T14:32:43.999Z</time></trkpt><trkpt lat="43.40609821664499" lon="5.971953320800911"><ele>245.0</ele><time>2026-05-01T14:32:44.999Z</time></trkpt><trkpt lat="43.40595789778979" lon="5.971976097374038"><ele>245.0</ele><time>2026-05-01T14:32:45.999Z</time></trkpt><trkpt lat="43.40583728570474" lon="5.972002764778445"><ele>245.0</ele><time>2026-05-01T14:32:46.999Z</time></trkpt><trkpt lat="43.40573589785539" lon="5.9720344896855915"><ele>245.0</ele><time>2026-05-01T14:32:47.999Z</time></trkpt><trkpt lat="43.40564630976359" lon="5.972073776873417"><ele>245.0</ele><time>2026-05-01T14:32:48.999Z</time></trkpt><trkpt lat="43.40556675710936" lon="5.972144204075904"><ele>245.0</ele><time>2026-05-01T14:32:49.999Z</time></trkpt><trkpt lat="43.40546572088386" lon="5.9722422670447575"><ele>245.0</ele><time>2026-05-01T14:32:50.999Z</time></trkpt><trkpt lat="43.40533418914758" lon="5.97236261433263"><ele>245.5</ele><time>2026-05-01T14:32:51.999Z</time></trkpt><trkpt lat="43.40521422188341" lon="5.972466515368913"><ele>246.0</ele><time>2026-05-01T14:32:52.999Z</time></trkpt><trkpt lat="43.405109396921745" lon="5.972560099936108"><ele>246.5</ele><time>2026-05-01T14:32:53.999Z</time></trkpt><trkpt lat="43.40502622567583" lon="5.972665289322123"><ele>247.0</ele><time>2026-05-01T14:32:54.999Z</time></trkpt><trkpt lat="43.40493876706269" lon="5.972752526132744"><ele>247.0</ele><time>2026-05-01T14:32:55.999Z</time></trkpt><trkpt lat="43.40485514062962" lon="5.9728356777079705"><ele>247.0</ele><time>2026-05-01T14:32:56.999Z</time></trkpt><trkpt lat="43.4047794172602" lon="5.972918704448962"><ele>247.0</ele><time>2026-05-01T14:32:57.999Z</time></trkpt><trkpt lat="43.40471106953507" lon="5.972988585272291"><ele>247.0</ele><time>2026-05-01T14:32:58.999Z</time></trkpt><trkpt lat="43.40462949337164" lon="5.973062632981163"><ele>247.0</ele><time>2026-05-01T14:32:59.999Z</time></trkpt><trkpt lat="43.40455841994868" lon="5.973132918848125"><ele>246.99999999999997</ele><time>2026-05-01T14:33:00.999Z</time></trkpt><trkpt lat="43.40451237850563" lon="5.973201989286594"><ele>247.0</ele><time>2026-05-01T14:33:01.999Z</time></trkpt><trkpt lat="43.404467605010176" lon="5.973293666926872"><ele>247.0</ele><time>2026-05-01T14:33:02.999Z</time></trkpt><trkpt lat="43.404421632780426" lon="5.97339748625686"><ele>247.0</ele><time>2026-05-01T14:33:04.999Z</time></trkpt><trkpt lat="43.40435956474231" lon="5.973444852893325"><ele>246.99999999999997</ele><time>2026-05-01T14:33:07.999Z</time></trkpt><trkpt lat="43.40426819763766" lon="5.973498973319404"><ele>247.0</ele><time>2026-05-01T14:33:09.999Z</time></trkpt><trkpt lat="43.40419240922258" lon="5.973531899915978"><ele>247.0</ele><time>2026-05-01T14:33:11.999Z</time></trkpt><trkpt lat="43.40410346927907" lon="5.9736112932901895"><ele>247.0</ele><time>2026-05-01T14:33:14.999Z</time></trkpt><trkpt lat="43.404022820099236" lon="5.973741327871895"><ele>247.0</ele><time>2026-05-01T14:33:16.999Z</time></trkpt><trkpt lat="43.40398139147154" lon="5.9738107359397015"><ele>247.0</ele><time>2026-05-01T14:33:17.999Z</time></trkpt><trkpt lat="43.40394915196633" lon="5.973898448691749"><ele>247.0</ele><time>2026-05-01T14:33:19.999Z</time></trkpt><trkpt lat="43.403849612517554" lon="5.9738198828913225"><ele>246.8</ele><time>2026-05-01T14:33:25.999Z</time></trkpt><trkpt lat="43.40379100090099" lon="5.973768549534189"><ele>246.6</ele><time>2026-05-01T14:33:26.999Z</time></trkpt><trkpt lat="43.40372045493472" lon="5.9737368972162805"><ele>246.40000000000003</ele><time>2026-05-01T14:33:27.999Z</time></trkpt><trkpt lat="43.40363521170976" lon="5.973733807529198"><ele>246.20000000000002</ele><time>2026-05-01T14:33:28.999Z</time></trkpt><trkpt lat="43.40351255145912" lon="5.973746724114499"><ele>246.0</ele><time>2026-05-01T14:33:29.999Z</time></trkpt><trkpt lat="43.403362491671395" lon="5.973766230994637"><ele>246.0</ele><time>2026-05-01T14:33:30.999Z</time></trkpt><trkpt lat="43.403193154070294" lon="5.973795188860887"><ele>246.0</ele><time>2026-05-01T14:33:31.999Z</time></trkpt><trkpt lat="43.403013304945425" lon="5.97382334341582"><ele>246.0</ele><time>2026-05-01T14:33:32.999Z</time></trkpt><trkpt lat="43.402878055058736" lon="5.973838007169749"><ele>246.0</ele><time>2026-05-01T14:33:33.999Z</time></trkpt><trkpt lat="43.40275893815472" lon="5.973819189026191"><ele>246.0</ele><time>2026-05-01T14:33:34.999Z</time></trkpt><trkpt lat="43.402649801559335" lon="5.973765659883804"><ele>246.0</ele><time>2026-05-01T14:33:35.999Z</time></trkpt><trkpt lat="43.40252261137864" lon="5.973679887857013"><ele>246.0</ele><time>2026-05-01T14:33:36.999Z</time></trkpt><trkpt lat="43.402391227986435" lon="5.973607595956177"><ele>246.0</ele><time>2026-05-01T14:33:37.999Z</time></trkpt><trkpt lat="43.402273171079386" lon="5.973564304658521"><ele>246.0</ele><time>2026-05-01T14:33:39Z</time></trkpt><trkpt lat="43.40216421829482" lon="5.973535356270977"><ele>246.0</ele><time>2026-05-01T14:33:40Z</time></trkpt><trkpt lat="43.40205689433969" lon="5.973495080523474"><ele>246.0</ele><time>2026-05-01T14:33:41Z</time></trkpt><trkpt lat="43.40195450167896" lon="5.973438281648628"><ele>245.60000000000002</ele><time>2026-05-01T14:33:42Z</time></trkpt><trkpt lat="43.40187043031045" lon="5.973396584688331"><ele>245.20000000000002</ele><time>2026-05-01T14:33:43Z</time></trkpt><trkpt lat="43.40175701822897" lon="5.973351035893438"><ele>244.79999999999998</ele><time>2026-05-01T14:33:44Z</time></trkpt><trkpt lat="43.40164107893004" lon="5.973316953934067"><ele>244.39999999999998</ele><time>2026-05-01T14:33:45Z</time></trkpt><trkpt lat="43.40152416087763" lon="5.9733027279163275"><ele>244.0</ele><time>2026-05-01T14:33:46Z</time></trkpt><trkpt lat="43.401409818725995" lon="5.973305378391826"><ele>244.79999999999998</ele><time>2026-05-01T14:33:47Z</time></trkpt><trkpt lat="43.40131319668741" lon="5.973306397250207"><ele>245.59999999999997</ele><time>2026-05-01T14:33:48Z</time></trkpt><trkpt lat="43.40122392709873" lon="5.973297050988771"><ele>246.4</ele><time>2026-05-01T14:33:49Z</time></trkpt><trkpt lat="43.40114721968964" lon="5.973299405131212"><ele>247.2</ele><time>2026-05-01T14:33:50Z</time></trkpt><trkpt lat="43.40106346457803" lon="5.973301364959588"><ele>248.0</ele><time>2026-05-01T14:33:51Z</time></trkpt><trkpt lat="43.40094446039843" lon="5.973270907781715"><ele>248.0</ele><time>2026-05-01T14:33:52Z</time></trkpt><trkpt lat="43.400806531380155" lon="5.973218488083894"><ele>248.0</ele><time>2026-05-01T14:33:53Z</time></trkpt><trkpt lat="43.400633856974274" lon="5.973139102633923"><ele>248.0</ele><time>2026-05-01T14:33:54Z</time></trkpt><trkpt lat="43.400477306920244" lon="5.973044057698982"><ele>247.75</ele><time>2026-05-01T14:33:55Z</time></trkpt><trkpt lat="43.400339171040955" lon="5.973000361274226"><ele>247.5</ele><time>2026-05-01T14:33:56Z</time></trkpt><trkpt lat="43.40021862882407" lon="5.972952075271617"><ele>247.25</ele><time>2026-05-01T14:33:57Z</time></trkpt><trkpt lat="43.40009200673559" lon="5.972916378645541"><ele>247.0</ele><time>2026-05-01T14:33:58Z</time></trkpt><trkpt lat="43.39993574492913" lon="5.972913983432236"><ele>247.0</ele><time>2026-05-01T14:33:59Z</time></trkpt><trkpt lat="43.399752680552616" lon="5.972947859070776"><ele>247.0</ele><time>2026-05-01T14:34:00Z</time></trkpt><trkpt lat="43.39954499713234" lon="5.973012488577858"><ele>247.0</ele><time>2026-05-01T14:34:01Z</time></trkpt><trkpt lat="43.39932333993208" lon="5.973091478792496"><ele>246.66666666666666</ele><time>2026-05-01T14:34:02Z</time></trkpt><trkpt lat="43.399119315308496" lon="5.97317119192339"><ele>246.33333333333331</ele><time>2026-05-01T14:34:03Z</time></trkpt><trkpt lat="43.39894676275535" lon="5.973242463191164"><ele>246.0</ele><time>2026-05-01T14:34:04Z</time></trkpt><trkpt lat="43.398834495449044" lon="5.973300588622293"><ele>247.66666666666666</ele><time>2026-05-01T14:34:05Z</time></trkpt><trkpt lat="43.39874683447825" lon="5.973370059827902"><ele>249.33333333333331</ele><time>2026-05-01T14:34:06Z</time></trkpt><trkpt lat="43.398676549307915" lon="5.973459803438317"><ele>251.0</ele><time>2026-05-01T14:34:07Z</time></trkpt><trkpt lat="43.39862787267342" lon="5.973560472478331"><ele>252.66666666666666</ele><time>2026-05-01T14:34:08Z</time></trkpt><trkpt lat="43.39857565310348" lon="5.9736409079808"><ele>254.33333333333331</ele><time>2026-05-01T14:34:09Z</time></trkpt><trkpt lat="43.398500607913704" lon="5.973698954387883"><ele>256.0</ele><time>2026-05-01T14:34:10Z</time></trkpt><trkpt lat="43.398396045579446" lon="5.973742358256844"><ele>256.0</ele><time>2026-05-01T14:34:11Z</time></trkpt><trkpt lat="43.3982607866869" lon="5.973779785160804"><ele>256.0</ele><time>2026-05-01T14:34:12Z</time></trkpt><trkpt lat="43.39812561475434" lon="5.973824383844918"><ele>256.0</ele><time>2026-05-01T14:34:13Z</time></trkpt><trkpt lat="43.398029202098456" lon="5.973860234723892"><ele>256.0</ele><time>2026-05-01T14:34:14Z</time></trkpt><trkpt lat="43.39789898809003" lon="5.9738729903283785"><ele>257.25</ele><time>2026-05-01T14:34:15Z</time></trkpt><trkpt lat="43.397720725089115" lon="5.973854970684084"><ele>258.5</ele><time>2026-05-01T14:34:16Z</time></trkpt><trkpt lat="43.397575003103064" lon="5.973856765982465"><ele>259.75</ele><time>2026-05-01T14:34:17Z</time></trkpt><trkpt lat="43.39747010356688" lon="5.973853332090733"><ele>261.0</ele><time>2026-05-01T14:34:18Z</time></trkpt><trkpt lat="43.39737901002966" lon="5.973828952578034"><ele>261.0</ele><time>2026-05-01T14:34:19Z</time></trkpt><trkpt lat="43.3972882129586" lon="5.973793934298135"><ele>261.0</ele><time>2026-05-01T14:34:20Z</time></trkpt><trkpt lat="43.397207653127" lon="5.9737350142643"><ele>261.0</ele><time>2026-05-01T14:34:21Z</time></trkpt><trkpt lat="43.397136212893834" lon="5.97369080462932"><ele>261.0</ele><time>2026-05-01T14:34:22Z</time></trkpt><trkpt lat="43.397069649711526" lon="5.973690519328708"><ele>261.0</ele><time>2026-05-01T14:34:24Z</time></trkpt><trkpt lat="43.39701393029275" lon="5.973737950588808"><ele>261.0</ele><time>2026-05-01T14:35:16.999Z</time></trkpt><trkpt lat="43.396946105330755" lon="5.973771980879569"><ele>260.8</ele><time>2026-05-01T14:35:18.999Z</time></trkpt><trkpt lat="43.396873811245186" lon="5.973799889872578"><ele>260.6</ele><time>2026-05-01T14:35:20.999Z</time></trkpt><trkpt lat="43.39675992832229" lon="5.973804283018237"><ele>260.4</ele><time>2026-05-01T14:35:23.999Z</time></trkpt><trkpt lat="43.39667645566186" lon="5.973770409936085"><ele>260.2</ele><time>2026-05-01T14:35:24.999Z</time></trkpt><trkpt lat="43.39658122786777" lon="5.973733653549756"><ele>260.0</ele><time>2026-05-01T14:35:25.999Z</time></trkpt><trkpt lat="43.39645534711971" lon="5.973709598852679"><ele>258.75</ele><time>2026-05-01T14:35:26.999Z</time></trkpt><trkpt lat="43.39631871672635" lon="5.973688276463898"><ele>257.5</ele><time>2026-05-01T14:35:27.999Z</time></trkpt><trkpt lat="43.39620594747676" lon="5.973688445537629"><ele>256.25</ele><time>2026-05-01T14:35:28.999Z</time></trkpt><trkpt lat="43.396108036944085" lon="5.973699187396704"><ele>255.0</ele><time>2026-05-01T14:35:29.999Z</time></trkpt><trkpt lat="43.39597616593079" lon="5.973720721702429"><ele>255.0</ele><time>2026-05-01T14:35:30.999Z</time></trkpt><trkpt lat="43.39584139768682" lon="5.973714390674851"><ele>255.0</ele><time>2026-05-01T14:35:31.999Z</time></trkpt><trkpt lat="43.395722812446174" lon="5.973699454560539"><ele>255.0</ele><time>2026-05-01T14:35:32.999Z</time></trkpt><trkpt lat="43.39562208380901" lon="5.9736846364190415"><ele>255.0</ele><time>2026-05-01T14:35:33.999Z</time></trkpt><trkpt lat="43.395536658173604" lon="5.973668491002547"><ele>255.0</ele><time>2026-05-01T14:35:34.999Z</time></trkpt><trkpt lat="43.39547057001196" lon="5.973653307041009"><ele>255.2</ele><time>2026-05-01T14:35:35.999Z</time></trkpt><trkpt lat="43.39537964354266" lon="5.973584453882049"><ele>255.4</ele><time>2026-05-01T14:35:37.999Z</time></trkpt><trkpt lat="43.39530920327106" lon="5.973521140433436"><ele>255.60000000000002</ele><time>2026-05-01T14:35:39.999Z</time></trkpt><trkpt lat="43.39525896011538" lon="5.973467989608511"><ele>255.8</ele><time>2026-05-01T14:35:43.999Z</time></trkpt><trkpt lat="43.395204871356405" lon="5.973405975715109"><ele>256.0</ele><time>2026-05-01T14:36:15Z</time></trkpt><trkpt lat="43.394931665028246" lon="5.97373425728042"><ele>256.0</ele><time>2026-05-01T14:36:17Z</time></trkpt><trkpt lat="43.39481916198332" lon="5.9738630317659585"><ele>256.0</ele><time>2026-05-01T14:36:18Z</time></trkpt><trkpt lat="43.39471855873129" lon="5.973966363612178"><ele>256.0</ele><time>2026-05-01T14:36:19Z</time></trkpt><trkpt lat="43.39460404227301" lon="5.974067775460014"><ele>256.0</ele><time>2026-05-01T14:36:20Z</time></trkpt><trkpt lat="43.39448329723494" lon="5.97415842358892"><ele>256.0</ele><time>2026-05-01T14:36:21Z</time></trkpt><trkpt lat="43.39434548333422" lon="5.974240906322667"><ele>256.0</ele><time>2026-05-01T14:36:22Z</time></trkpt><trkpt lat="43.39420218734381" lon="5.974322463171655"><ele>256.0</ele><time>2026-05-01T14:36:23Z</time></trkpt><trkpt lat="43.394072424037475" lon="5.974392091287122"><ele>256.0</ele><time>2026-05-01T14:36:24Z</time></trkpt><trkpt lat="43.39395090803605" lon="5.974454113081576"><ele>256.0</ele><time>2026-05-01T14:36:25Z</time></trkpt><trkpt lat="43.39383779431442" lon="5.974508019051133"><ele>256.0</ele><time>2026-05-01T14:36:26Z</time></trkpt><trkpt lat="43.39372568938866" lon="5.974567354939523"><ele>256.0</ele><time>2026-05-01T14:36:27Z</time></trkpt><trkpt lat="43.393606093054245" lon="5.974631232016086"><ele>256.0</ele><time>2026-05-01T14:36:28Z</time></trkpt><trkpt lat="43.39348364505256" lon="5.974694624250861"><ele>256.0</ele><time>2026-05-01T14:36:29Z</time></trkpt><trkpt lat="43.39335122517605" lon="5.974761129005703"><ele>256.0</ele><time>2026-05-01T14:36:30Z</time></trkpt><trkpt lat="43.39320138433066" lon="5.9748291417247845"><ele>256.0</ele><time>2026-05-01T14:36:31Z</time></trkpt><trkpt lat="43.39304022453164" lon="5.974909173163309"><ele>256.66666666666663</ele><time>2026-05-01T14:36:32Z</time></trkpt><trkpt lat="43.392862198781756" lon="5.974983708044119"><ele>257.3333333333333</ele><time>2026-05-01T14:36:33Z</time></trkpt><trkpt lat="43.39266648855984" lon="5.975080950557657"><ele>258.0</ele><time>2026-05-01T14:36:34Z</time></trkpt><trkpt lat="43.39246257076048" lon="5.975182271150804"><ele>258.0</ele><time>2026-05-01T14:36:35Z</time></trkpt><trkpt lat="43.39226540712451" lon="5.975278491102881"><ele>258.0</ele><time>2026-05-01T14:36:36Z</time></trkpt><trkpt lat="43.3920991348926" lon="5.97537798026847"><ele>258.0</ele><time>2026-05-01T14:36:37Z</time></trkpt><trkpt lat="43.39190115221078" lon="5.975475582394283"><ele>258.0</ele><time>2026-05-01T14:36:38Z</time></trkpt><trkpt lat="43.391697728166186" lon="5.975579113358238"><ele>258.0</ele><time>2026-05-01T14:36:39Z</time></trkpt><trkpt lat="43.39150498529529" lon="5.9756520428527145"><ele>258.0</ele><time>2026-05-01T14:36:40Z</time></trkpt><trkpt lat="43.39133603415067" lon="5.975735850716364"><ele>258.3333333333333</ele><time>2026-05-01T14:36:41Z</time></trkpt><trkpt lat="43.39118757066562" lon="5.975824315344531"><ele>258.66666666666663</ele><time>2026-05-01T14:36:42Z</time></trkpt><trkpt lat="43.391040588436006" lon="5.975898204225914"><ele>259.0</ele><time>2026-05-01T14:36:43Z</time></trkpt><trkpt lat="43.390899087487426" lon="5.975962707203522"><ele>259.0</ele><time>2026-05-01T14:36:44Z</time></trkpt><trkpt lat="43.39077359243349" lon="5.976024790596847"><ele>259.0</ele><time>2026-05-01T14:36:45Z</time></trkpt><trkpt lat="43.39065333625322" lon="5.976084947431627"><ele>259.0</ele><time>2026-05-01T14:36:46Z</time></trkpt><trkpt lat="43.39054192362066" lon="5.976134547928687"><ele>259.0</ele><time>2026-05-01T14:36:47Z</time></trkpt><trkpt lat="43.39043611712888" lon="5.9761852575596865"><ele>259.0</ele><time>2026-05-01T14:36:48Z</time></trkpt><trkpt lat="43.39033764092359" lon="5.97623535336523"><ele>259.0</ele><time>2026-05-01T14:36:49Z</time></trkpt><trkpt lat="43.39023201172579" lon="5.976286899193955"><ele>259.0</ele><time>2026-05-01T14:36:50Z</time></trkpt><trkpt lat="43.39011847555948" lon="5.976337644376542"><ele>259.0</ele><time>2026-05-01T14:36:51Z</time></trkpt><trkpt lat="43.39000425278406" lon="5.976388750426983"><ele>259.0</ele><time>2026-05-01T14:36:52Z</time></trkpt><trkpt lat="43.38987085201213" lon="5.9764391844126505"><ele>259.0</ele><time>2026-05-01T14:36:53Z</time></trkpt><trkpt lat="43.3897415463097" lon="5.976491417810897"><ele>259.0</ele><time>2026-05-01T14:36:54Z</time></trkpt><trkpt lat="43.38960985218602" lon="5.976551590690338"><ele>259.0</ele><time>2026-05-01T14:36:55Z</time></trkpt><trkpt lat="43.389471813657714" lon="5.976617725193341"><ele>260.75</ele><time>2026-05-01T14:36:56Z</time></trkpt><trkpt lat="43.38933939284039" lon="5.976688316677573"><ele>262.5</ele><time>2026-05-01T14:36:57Z</time></trkpt><trkpt lat="43.389206698131126" lon="5.976756705304363"><ele>264.25</ele><time>2026-05-01T14:36:58Z</time></trkpt><trkpt lat="43.38909389984218" lon="5.976816818376691"><ele>266.0</ele><time>2026-05-01T14:36:58.999Z</time></trkpt><trkpt lat="43.38900130812989" lon="5.976863796567748"><ele>266.0</ele><time>2026-05-01T14:36:59.999Z</time></trkpt><trkpt lat="43.3889260330751" lon="5.976904182569219"><ele>266.0</ele><time>2026-05-01T14:37:00.999Z</time></trkpt><trkpt lat="43.38883284439603" lon="5.976942188249756"><ele>266.0</ele><time>2026-05-01T14:37:02.999Z</time></trkpt><trkpt lat="43.38875470077648" lon="5.976958807400198"><ele>266.0</ele><time>2026-05-01T14:37:05.999Z</time></trkpt><trkpt lat="43.3886919604561" lon="5.976989249674359"><ele>266.0</ele><time>2026-05-01T14:37:07.999Z</time></trkpt><trkpt lat="43.388623715317415" lon="5.977027146571444"><ele>266.0</ele><time>2026-05-01T14:37:09.999Z</time></trkpt><trkpt lat="43.38855519641665" lon="5.977063713922647"><ele>266.2</ele><time>2026-05-01T14:37:10.999Z</time></trkpt><trkpt lat="43.38846419182" lon="5.977104380107275"><ele>266.40000000000003</ele><time>2026-05-01T14:37:11.999Z</time></trkpt><trkpt lat="43.38839442825585" lon="5.977127944770068"><ele>266.6</ele><time>2026-05-01T14:37:12.999Z</time></trkpt><trkpt lat="43.38831042615327" lon="5.977190796671613"><ele>266.8</ele><time>2026-05-01T14:37:14.999Z</time></trkpt><trkpt lat="43.388249933132336" lon="5.977221366004615"><ele>267.0</ele><time>2026-05-01T14:37:16.999Z</time></trkpt><trkpt lat="43.38810485026499" lon="5.97666237890943"><ele>267.3333333333333</ele><time>2026-05-01T14:37:17.999Z</time></trkpt><trkpt lat="43.388071919004005" lon="5.976570864899029"><ele>267.6666666666667</ele><time>2026-05-01T14:37:18.999Z</time></trkpt><trkpt lat="43.38795722627475" lon="5.976465979586778"><ele>268.0</ele><time>2026-05-01T14:37:20.999Z</time></trkpt><trkpt lat="43.38786811001913" lon="5.976434910981468"><ele>268.33333333333337</ele><time>2026-05-01T14:37:22.999Z</time></trkpt><trkpt lat="43.38780515874292" lon="5.976468776567225"><ele>268.6666666666667</ele><time>2026-05-01T14:37:24.999Z</time></trkpt><trkpt lat="43.387738145960675" lon="5.976489144911996"><ele>269.0</ele><time>2026-05-01T14:37:26.999Z</time></trkpt><trkpt lat="43.387666252591806" lon="5.976414640922846"><ele>270.0</ele><time>2026-05-01T14:37:28.999Z</time></trkpt><trkpt lat="43.387611747406574" lon="5.976328081269166"><ele>271.0</ele><time>2026-05-01T14:37:30.999Z</time></trkpt><trkpt lat="43.387595016283115" lon="5.976244277161979"><ele>272.0</ele><time>2026-05-01T14:37:47.999Z</time></trkpt><trkpt lat="43.38753122541339" lon="5.97623797876572"><ele>273.0</ele><time>2026-05-01T14:37:58Z</time></trkpt><trkpt lat="43.387446374845325" lon="5.976157357637655"><ele>274.0</ele><time>2026-05-01T14:39:03.999Z</time></trkpt><trkpt lat="43.38733140479912" lon="5.97609634593101"><ele>275.0</ele><time>2026-05-01T14:39:05.999Z</time></trkpt><trkpt lat="43.38725715813827" lon="5.976062147634164"><ele>275.0</ele><time>2026-05-01T14:39:06.999Z</time></trkpt><trkpt lat="43.38719786367371" lon="5.975949803908358"><ele>275.0</ele><time>2026-05-01T14:39:09Z</time></trkpt><trkpt lat="43.387180983492456" lon="5.975862409094284"><ele>275.0</ele><time>2026-05-01T14:39:10Z</time></trkpt><trkpt lat="43.38714363086012" lon="5.975750952466811"><ele>275.0</ele><time>2026-05-01T14:39:11Z</time></trkpt><trkpt lat="43.38711443090526" lon="5.975653703826928"><ele>275.0</ele><time>2026-05-01T14:39:12Z</time></trkpt><trkpt lat="43.387070831497574" lon="5.975583887254953"><ele>275.0</ele><time>2026-05-01T14:39:13Z</time></trkpt><trkpt lat="43.38701066642645" lon="5.975509463283863"><ele>275.4</ele><time>2026-05-01T14:39:14Z</time></trkpt><trkpt lat="43.38694049326612" lon="5.975378252971727"><ele>275.8</ele><time>2026-05-01T14:39:15Z</time></trkpt><trkpt lat="43.38688368922554" lon="5.975254181373133"><ele>276.2</ele><time>2026-05-01T14:39:16Z</time></trkpt><trkpt lat="43.386841789849306" lon="5.975161591137415"><ele>276.6</ele><time>2026-05-01T14:39:17Z</time></trkpt><trkpt lat="43.38680434352704" lon="5.975050968239088"><ele>277.0</ele><time>2026-05-01T14:39:18Z</time></trkpt><trkpt lat="43.386791906091794" lon="5.974944495143941"><ele>277.0</ele><time>2026-05-01T14:39:19Z</time></trkpt><trkpt lat="43.386771473453656" lon="5.97479447411754"><ele>277.0</ele><time>2026-05-01T14:39:20Z</time></trkpt><trkpt lat="43.38673597302565" lon="5.97464899593289"><ele>277.0</ele><time>2026-05-01T14:39:21Z</time></trkpt><trkpt lat="43.38670799978659" lon="5.974530033668323"><ele>277.0</ele><time>2026-05-01T14:39:22Z</time></trkpt><trkpt lat="43.38668537461389" lon="5.974429262807489"><ele>277.0</ele><time>2026-05-01T14:39:23Z</time></trkpt><trkpt lat="43.38667255986089" lon="5.974326663703067"><ele>277.0</ele><time>2026-05-01T14:39:24Z</time></trkpt><trkpt lat="43.38666653869841" lon="5.974236468637323"><ele>277.0</ele><time>2026-05-01T14:39:25Z</time></trkpt><trkpt lat="43.386665323688106" lon="5.974086808391074"><ele>277.0</ele><time>2026-05-01T14:39:26Z</time></trkpt><trkpt lat="43.38664022235393" lon="5.973939848625188"><ele>277.0</ele><time>2026-05-01T14:39:27Z</time></trkpt><trkpt lat="43.38661043305266" lon="5.973816566837773"><ele>277.0</ele><time>2026-05-01T14:39:28Z</time></trkpt><trkpt lat="43.38660637009883" lon="5.973709716033861"><ele>276.3333333333333</ele><time>2026-05-01T14:39:29Z</time></trkpt><trkpt lat="43.38661017266103" lon="5.973611625995527"><ele>275.66666666666663</ele><time>2026-05-01T14:39:30Z</time></trkpt><trkpt lat="43.38660724001461" lon="5.973503549508866"><ele>275.0</ele><time>2026-05-01T14:39:31Z</time></trkpt><trkpt lat="43.38657937819986" lon="5.9734156649241426"><ele>274.3333333333333</ele><time>2026-05-01T14:39:32Z</time></trkpt><trkpt lat="43.386540540038006" lon="5.97329637090389"><ele>273.6666666666667</ele><time>2026-05-01T14:39:33Z</time></trkpt><trkpt lat="43.386476892121195" lon="5.973166662230133"><ele>273.0</ele><time>2026-05-01T14:39:34Z</time></trkpt><trkpt lat="43.38640153169597" lon="5.973026400539352"><ele>272.8</ele><time>2026-05-01T14:39:35Z</time></trkpt><trkpt lat="43.38632862723916" lon="5.97289325785459"><ele>272.6</ele><time>2026-05-01T14:39:36Z</time></trkpt><trkpt lat="43.386279946677405" lon="5.97276071265316"><ele>272.4</ele><time>2026-05-01T14:39:37Z</time></trkpt><trkpt lat="43.38623765781073" lon="5.972645646413194"><ele>272.2</ele><time>2026-05-01T14:39:38Z</time></trkpt><trkpt lat="43.38619708756763" lon="5.972525383357619"><ele>272.0</ele><time>2026-05-01T14:39:39Z</time></trkpt><trkpt lat="43.38615788017182" lon="5.972404948289551"><ele>272.0</ele><time>2026-05-01T14:39:40Z</time></trkpt><trkpt lat="43.38611442595484" lon="5.972309471381305"><ele>272.0</ele><time>2026-05-01T14:39:41Z</time></trkpt><trkpt lat="43.3860517062359" lon="5.972211571369462"><ele>272.0</ele><time>2026-05-01T14:39:42Z</time></trkpt><trkpt lat="43.38596442048289" lon="5.9721153948665675"><ele>272.0</ele><time>2026-05-01T14:39:43Z</time></trkpt><trkpt lat="43.38587947402191" lon="5.972002025408842"><ele>272.0</ele><time>2026-05-01T14:39:44Z</time></trkpt><trkpt lat="43.38582414748479" lon="5.971906907300473"><ele>272.0</ele><time>2026-05-01T14:39:45Z</time></trkpt><trkpt lat="43.38579296365811" lon="5.971808215635811"><ele>272.0</ele><time>2026-05-01T14:39:46Z</time></trkpt><trkpt lat="43.38576800411348" lon="5.971708601704006"><ele>272.0</ele><time>2026-05-01T14:39:47Z</time></trkpt><trkpt lat="43.38575452779368" lon="5.971622739299616"><ele>272.0</ele><time>2026-05-01T14:39:48Z</time></trkpt><trkpt lat="43.38583064891337" lon="5.971456240106049"><ele>272.0</ele><time>2026-05-01T14:39:50Z</time></trkpt><trkpt lat="43.38588303947892" lon="5.971315156109675"><ele>271.6666666666667</ele><time>2026-05-01T14:39:51Z</time></trkpt><trkpt lat="43.385916251504106" lon="5.971174588123275"><ele>271.33333333333337</ele><time>2026-05-01T14:39:52Z</time></trkpt><trkpt lat="43.38595677626983" lon="5.9710780078373284"><ele>271.0</ele><time>2026-05-01T14:39:53Z</time></trkpt><trkpt lat="43.38599973230748" lon="5.971007851819399"><ele>270.6666666666667</ele><time>2026-05-01T14:39:54Z</time></trkpt><trkpt lat="43.38602319079445" lon="5.970924833369553"><ele>270.3333333333333</ele><time>2026-05-01T14:39:55Z</time></trkpt><trkpt lat="43.3860325677222" lon="5.970815097553055"><ele>270.0</ele><time>2026-05-01T14:39:56.001Z</time></trkpt><trkpt lat="43.38604317559574" lon="5.97071918155052"><ele>270.0</ele><time>2026-05-01T14:39:57.001Z</time></trkpt><trkpt lat="43.38607146296094" lon="5.9706215810788095"><ele>270.0</ele><time>2026-05-01T14:39:58.001Z</time></trkpt><trkpt lat="43.386111547462555" lon="5.9705301372222035"><ele>270.0</ele><time>2026-05-01T14:39:59.001Z</time></trkpt><trkpt lat="43.3861547382372" lon="5.9704505993847095"><ele>270.0</ele><time>2026-05-01T14:40:00.001Z</time></trkpt><trkpt lat="43.386209209668124" lon="5.97038708925993"><ele>270.0</ele><time>2026-05-01T14:40:01.001Z</time></trkpt><trkpt lat="43.38629847176594" lon="5.970302369527138"><ele>270.0</ele><time>2026-05-01T14:40:02.001Z</time></trkpt><trkpt lat="43.386407423806155" lon="5.970233046768719"><ele>269.6</ele><time>2026-05-01T14:40:03.001Z</time></trkpt><trkpt lat="43.386496377016066" lon="5.970172562119901"><ele>269.2</ele><time>2026-05-01T14:40:04.001Z</time></trkpt><trkpt lat="43.386561938822275" lon="5.970110270422535"><ele>268.8</ele><time>2026-05-01T14:40:05.001Z</time></trkpt><trkpt lat="43.38661118277522" lon="5.97000481403599"><ele>268.4</ele><time>2026-05-01T14:40:07.001Z</time></trkpt><trkpt lat="43.38666775201198" lon="5.9698863082121685"><ele>268.0</ele><time>2026-05-01T14:40:09.001Z</time></trkpt><trkpt lat="43.38674372679027" lon="5.969800706014666"><ele>268.0</ele><time>2026-05-01T14:40:11.001Z</time></trkpt><trkpt lat="43.38680670068568" lon="5.969766773280273"><ele>268.0</ele><time>2026-05-01T14:40:19.001Z</time></trkpt><trkpt lat="43.386878122996755" lon="5.969597889476988"><ele>268.0</ele><time>2026-05-01T14:40:21.001Z</time></trkpt><trkpt lat="43.386915511689075" lon="5.969432119740689"><ele>268.0</ele><time>2026-05-01T14:40:22.001Z</time></trkpt><trkpt lat="43.386950965683475" lon="5.969290920776773"><ele>268.0</ele><time>2026-05-01T14:40:23.001Z</time></trkpt><trkpt lat="43.38699139710449" lon="5.969182594243452"><ele>268.4</ele><time>2026-05-01T14:40:24.001Z</time></trkpt><trkpt lat="43.3870465955452" lon="5.96909806797368"><ele>268.8</ele><time>2026-05-01T14:40:29.001Z</time></trkpt><trkpt lat="43.38710774078829" lon="5.969059171020742"><ele>269.2</ele><time>2026-05-01T14:40:30.001Z</time></trkpt><trkpt lat="43.38719260732127" lon="5.969023251037357"><ele>269.6</ele><time>2026-05-01T14:40:31.001Z</time></trkpt><trkpt lat="43.38728964784576" lon="5.968988492041819"><ele>270.0</ele><time>2026-05-01T14:40:32.001Z</time></trkpt><trkpt lat="43.38741373485881" lon="5.968958391982504"><ele>268.6</ele><time>2026-05-01T14:40:33.001Z</time></trkpt><trkpt lat="43.3875255646169" lon="5.968925714574587"><ele>267.2</ele><time>2026-05-01T14:40:34.001Z</time></trkpt><trkpt lat="43.38762341434888" lon="5.968905248443775"><ele>265.8</ele><time>2026-05-01T14:40:35.001Z</time></trkpt><trkpt lat="43.38770771535075" lon="5.96887634598734"><ele>264.4</ele><time>2026-05-01T14:40:36.001Z</time></trkpt><trkpt lat="43.38777008037686" lon="5.968844915152055"><ele>263.0</ele><time>2026-05-01T14:40:37.001Z</time></trkpt><trkpt lat="43.38786246667482" lon="5.968842855298928"><ele>263.0</ele><time>2026-05-01T14:40:39.001Z</time></trkpt><trkpt lat="43.38791099839657" lon="5.968914755166454"><ele>263.0</ele><time>2026-05-01T14:40:41.001Z</time></trkpt><trkpt lat="43.387978831431134" lon="5.968901298039756"><ele>263.0</ele><time>2026-05-01T14:40:44.001Z</time></trkpt><trkpt lat="43.38805047418492" lon="5.968817465739723"><ele>263.0</ele><time>2026-05-01T14:40:46.001Z</time></trkpt><trkpt lat="43.38813588743229" lon="5.96877774584348"><ele>263.0</ele><time>2026-05-01T14:40:48.001Z</time></trkpt><trkpt lat="43.38820224098409" lon="5.968795459345477"><ele>263.0</ele><time>2026-05-01T14:40:49.001Z</time></trkpt><trkpt lat="43.388271455455595" lon="5.968811599762094"><ele>262.83333333333337</ele><time>2026-05-01T14:40:50Z</time></trkpt><trkpt lat="43.38833542062447" lon="5.968834116495261"><ele>262.6666666666667</ele><time>2026-05-01T14:40:51Z</time></trkpt><trkpt lat="43.388453616128665" lon="5.968824763342494"><ele>262.5</ele><time>2026-05-01T14:40:53Z</time></trkpt><trkpt lat="43.388560325715986" lon="5.968798614307167"><ele>262.3333333333333</ele><time>2026-05-01T14:40:55Z</time></trkpt><trkpt lat="43.38864119026409" lon="5.968779338843651"><ele>262.16666666666663</ele><time>2026-05-01T14:40:57Z</time></trkpt><trkpt lat="43.38867757624256" lon="5.968691944023717"><ele>262.0</ele><time>2026-05-01T14:41:00Z</time></trkpt><trkpt lat="43.38862089685595" lon="5.968652251595376"><ele>262.0</ele><time>2026-05-01T14:41:02Z</time></trkpt><trkpt lat="43.38851852788152" lon="5.968751513902966"><ele>262.0</ele><time>2026-05-01T14:41:04Z</time></trkpt><trkpt lat="43.38847149306914" lon="5.9688174533038865"><ele>262.0</ele><time>2026-05-01T14:41:05Z</time></trkpt><trkpt lat="43.38835338467783" lon="5.968849199975568"><ele>262.0</ele><time>2026-05-01T14:41:07Z</time></trkpt><trkpt lat="43.38828348672662" lon="5.968831838615366"><ele>262.0</ele><time>2026-05-01T14:41:08Z</time></trkpt><trkpt lat="43.38820012198259" lon="5.968811719157091"><ele>262.0</ele><time>2026-05-01T14:41:09Z</time></trkpt><trkpt lat="43.38811322965299" lon="5.968794519233847"><ele>262.0</ele><time>2026-05-01T14:41:10Z</time></trkpt><trkpt lat="43.38804925074899" lon="5.968811108889376"><ele>262.0</ele><time>2026-05-01T14:41:11Z</time></trkpt><trkpt lat="43.387995188592946" lon="5.96885583001548"><ele>262.0</ele><time>2026-05-01T14:41:12Z</time></trkpt><trkpt lat="43.38793619700295" lon="5.968894441222139"><ele>262.0</ele><time>2026-05-01T14:41:13Z</time></trkpt><trkpt lat="43.38786166315908" lon="5.968924128536424"><ele>262.0</ele><time>2026-05-01T14:41:15Z</time></trkpt><trkpt lat="43.3878145842943" lon="5.9688357824061"><ele>262.0</ele><time>2026-05-01T14:41:20Z</time></trkpt><trkpt lat="43.38770296789339" lon="5.96885832435155"><ele>262.2</ele><time>2026-05-01T14:41:22Z</time></trkpt><trkpt lat="43.38760864708784" lon="5.968900471408176"><ele>262.4</ele><time>2026-05-01T14:41:23Z</time></trkpt><trkpt lat="43.38753562334616" lon="5.968935548914637"><ele>262.6</ele><time>2026-05-01T14:41:24Z</time></trkpt><trkpt lat="43.38738888065013" lon="5.968961435563118"><ele>262.8</ele><time>2026-05-01T14:41:26Z</time></trkpt><trkpt lat="43.38727450415231" lon="5.968992970008692"><ele>263.0</ele><time>2026-05-01T14:41:27Z</time></trkpt><trkpt lat="43.38717282892418" lon="5.969020823124403"><ele>264.4</ele><time>2026-05-01T14:41:28Z</time></trkpt><trkpt lat="43.387093080954614" lon="5.969053587557637"><ele>265.8</ele><time>2026-05-01T14:41:29Z</time></trkpt><trkpt lat="43.38701068678505" lon="5.969129479980287"><ele>267.2</ele><time>2026-05-01T14:41:31Z</time></trkpt><trkpt lat="43.38695881459518" lon="5.9690511052421655"><ele>268.6</ele><time>2026-05-01T14:41:35Z</time></trkpt><trkpt lat="43.38696420094378" lon="5.968891930424518"><ele>270.0</ele><time>2026-05-01T14:41:37Z</time></trkpt><trkpt lat="43.38693817891272" lon="5.968776705150014"><ele>270.0</ele><time>2026-05-01T14:41:39Z</time></trkpt><trkpt lat="43.38687984507605" lon="5.968734532654299"><ele>270.0</ele><time>2026-05-01T14:41:40Z</time></trkpt><trkpt lat="43.38682264042295" lon="5.9686890809039355"><ele>270.0</ele><time>2026-05-01T14:41:41Z</time></trkpt><trkpt lat="43.38676699869149" lon="5.96864279920272"><ele>270.0</ele><time>2026-05-01T14:41:42Z</time></trkpt><trkpt lat="43.386663345299795" lon="5.968594563238439"><ele>270.0</ele><time>2026-05-01T14:41:44Z</time></trkpt><trkpt lat="43.386567962586405" lon="5.968518117613347"><ele>270.0</ele><time>2026-05-01T14:41:46Z</time></trkpt><trkpt lat="43.38649304374922" lon="5.968402743204642"><ele>270.4</ele><time>2026-05-01T14:41:48Z</time></trkpt><trkpt lat="43.386415801651495" lon="5.968286940392833"><ele>270.8</ele><time>2026-05-01T14:41:50Z</time></trkpt><trkpt lat="43.38632744859067" lon="5.968204943464096"><ele>271.2</ele><time>2026-05-01T14:41:52Z</time></trkpt><trkpt lat="43.38624177179028" lon="5.968146611690104"><ele>271.6</ele><time>2026-05-01T14:41:54Z</time></trkpt><trkpt lat="43.3861694442633" lon="5.968010547545255"><ele>272.0</ele><time>2026-05-01T14:41:56Z</time></trkpt><trkpt lat="43.386061115880615" lon="5.967966584663948"><ele>273.1666666666667</ele><time>2026-05-01T14:41:58Z</time></trkpt><trkpt lat="43.385990078511966" lon="5.967911358925756"><ele>274.33333333333337</ele><time>2026-05-01T14:42:00Z</time></trkpt><trkpt lat="43.38594357532933" lon="5.9678318642371435"><ele>275.5</ele><time>2026-05-01T14:42:01Z</time></trkpt><trkpt lat="43.38583449342891" lon="5.967802620163254"><ele>276.6666666666667</ele><time>2026-05-01T14:42:04.001Z</time></trkpt><trkpt lat="43.38575233210726" lon="5.967790184226842"><ele>277.8333333333333</ele><time>2026-05-01T14:42:06.001Z</time></trkpt><trkpt lat="43.385670316755714" lon="5.967786138810884"><ele>279.0</ele><time>2026-05-01T14:42:09.001Z</time></trkpt><trkpt lat="43.38559013261822" lon="5.967809190684808"><ele>279.8333333333333</ele><time>2026-05-01T14:42:12.001Z</time></trkpt><trkpt lat="43.385479180845145" lon="5.967813378777247"><ele>280.6666666666667</ele><time>2026-05-01T14:42:15.001Z</time></trkpt><trkpt lat="43.38540300858453" lon="5.9678321569895365"><ele>281.5</ele><time>2026-05-01T14:42:17.001Z</time></trkpt><trkpt lat="43.385346483895944" lon="5.967781583910163"><ele>282.33333333333337</ele><time>2026-05-01T14:42:19.001Z</time></trkpt><trkpt lat="43.38527321397841" lon="5.967738769755949"><ele>283.1666666666667</ele><time>2026-05-01T14:42:21.001Z</time></trkpt><trkpt lat="43.38518583410907" lon="5.967760022313274"><ele>284.0</ele><time>2026-05-01T14:42:24.001Z</time></trkpt><trkpt lat="43.38505889175796" lon="5.96780473943032"><ele>284.0</ele><time>2026-05-01T14:42:26Z</time></trkpt><trkpt lat="43.384972198950926" lon="5.967834049642423"><ele>284.0</ele><time>2026-05-01T14:42:27Z</time></trkpt><trkpt lat="43.38488234587453" lon="5.967870199557025"><ele>284.0</ele><time>2026-05-01T14:42:29Z</time></trkpt><trkpt lat="43.38480334565215" lon="5.967918337883852"><ele>284.0</ele><time>2026-05-01T14:42:31Z</time></trkpt><trkpt lat="43.38473896669847" lon="5.967982422918728"><ele>284.0</ele><time>2026-05-01T14:42:32Z</time></trkpt><trkpt lat="43.38468654646769" lon="5.968044845578353"><ele>284.0</ele><time>2026-05-01T14:42:33Z</time></trkpt><trkpt lat="43.384579785275854" lon="5.9680934844925275"><ele>285.33333333333337</ele><time>2026-05-01T14:42:36Z</time></trkpt><trkpt lat="43.38452464336313" lon="5.9681417988254335"><ele>286.6666666666667</ele><time>2026-05-01T14:42:37Z</time></trkpt><trkpt lat="43.38445237213738" lon="5.968250538671946"><ele>288.0</ele><time>2026-05-01T14:42:39Z</time></trkpt><trkpt lat="43.384372962801734" lon="5.968314908346409"><ele>289.3333333333333</ele><time>2026-05-01T14:42:41Z</time></trkpt><trkpt lat="43.384299161873145" lon="5.9683712517041485"><ele>290.66666666666663</ele><time>2026-05-01T14:42:43Z</time></trkpt><trkpt lat="43.38427966109958" lon="5.968491364194374"><ele>292.0</ele><time>2026-05-01T14:42:46Z</time></trkpt><trkpt lat="43.3842329443713" lon="5.968619546036217"><ele>292.0</ele><time>2026-05-01T14:42:48Z</time></trkpt><trkpt lat="43.38419450343657" lon="5.968715082277668"><ele>292.0</ele><time>2026-05-01T14:42:50Z</time></trkpt><trkpt lat="43.38413900286652" lon="5.968779529662047"><ele>292.0</ele><time>2026-05-01T14:42:52Z</time></trkpt><trkpt lat="43.38408669174784" lon="5.968849288522888"><ele>292.0</ele><time>2026-05-01T14:42:54Z</time></trkpt><trkpt lat="43.38402868169371" lon="5.968964014540979"><ele>292.0</ele><time>2026-05-01T14:42:56Z</time></trkpt><trkpt lat="43.38397038937715" lon="5.969078332564479"><ele>292.0</ele><time>2026-05-01T14:42:58Z</time></trkpt><trkpt lat="43.38395402114378" lon="5.9691922919081435"><ele>291.3333333333333</ele><time>2026-05-01T14:43:01Z</time></trkpt><trkpt lat="43.38392165135079" lon="5.969268611165779"><ele>290.66666666666663</ele><time>2026-05-01T14:43:03Z</time></trkpt><trkpt lat="43.38386549600312" lon="5.969334489348853"><ele>290.0</ele><time>2026-05-01T14:43:05Z</time></trkpt><trkpt lat="43.38380346468938" lon="5.969431835488266"><ele>289.3333333333333</ele><time>2026-05-01T14:43:07Z</time></trkpt><trkpt lat="43.38374970730127" lon="5.969480160993216"><ele>288.6666666666667</ele><time>2026-05-01T14:43:10Z</time></trkpt><trkpt lat="43.383711686854696" lon="5.969564881549098"><ele>288.0</ele><time>2026-05-01T14:43:11Z</time></trkpt><trkpt lat="43.383662705114794" lon="5.9696602070752425"><ele>289.8333333333333</ele><time>2026-05-01T14:43:12Z</time></trkpt><trkpt lat="43.38356423359636" lon="5.969744941411317"><ele>291.6666666666667</ele><time>2026-05-01T14:43:14Z</time></trkpt><trkpt lat="43.38350107412078" lon="5.969784460787536"><ele>293.5</ele><time>2026-05-01T14:43:15Z</time></trkpt><trkpt lat="43.38342261122411" lon="5.96983546271273"><ele>295.33333333333337</ele><time>2026-05-01T14:43:16Z</time></trkpt><trkpt lat="43.383365268720894" lon="5.969884312017959"><ele>297.1666666666667</ele><time>2026-05-01T14:43:17Z</time></trkpt><trkpt lat="43.383282661920624" lon="5.9699198357967385"><ele>299.0</ele><time>2026-05-01T14:43:19Z</time></trkpt><trkpt lat="43.38314080473808" lon="5.9699001229397854"><ele>299.0</ele><time>2026-05-01T14:43:21Z</time></trkpt><trkpt lat="43.383053344283624" lon="5.969887558882905"><ele>299.0</ele><time>2026-05-01T14:43:22Z</time></trkpt><trkpt lat="43.38298270005853" lon="5.9698610081223045"><ele>299.0</ele><time>2026-05-01T14:43:23Z</time></trkpt><trkpt lat="43.38287012436759" lon="5.9698212090836975"><ele>299.0</ele><time>2026-05-01T14:43:25Z</time></trkpt><trkpt lat="43.382790427997335" lon="5.969699660505986"><ele>299.0</ele><time>2026-05-01T14:43:27Z</time></trkpt><trkpt lat="43.38273673218601" lon="5.969616961924351"><ele>301.83333333333337</ele><time>2026-05-01T14:43:28Z</time></trkpt><trkpt lat="43.38268199614567" lon="5.969563917190424"><ele>304.6666666666667</ele><time>2026-05-01T14:43:29Z</time></trkpt><trkpt lat="43.382625402038805" lon="5.969516035717806"><ele>307.5</ele><time>2026-05-01T14:43:30Z</time></trkpt><trkpt lat="43.3825385311843" lon="5.969405247188033"><ele>310.3333333333333</ele><time>2026-05-01T14:43:32Z</time></trkpt><trkpt lat="43.38247659810987" lon="5.969324620194481"><ele>313.16666666666663</ele><time>2026-05-01T14:43:34Z</time></trkpt><trkpt lat="43.38238635815909" lon="5.96931620275008"><ele>316.0</ele><time>2026-05-01T14:43:36Z</time></trkpt><trkpt lat="43.38230328713771" lon="5.9693217406576125"><ele>316.0</ele><time>2026-05-01T14:43:37Z</time></trkpt><trkpt lat="43.382195424480344" lon="5.969316501271247"><ele>316.0</ele><time>2026-05-01T14:43:39Z</time></trkpt><trkpt lat="43.382089182303154" lon="5.969264323793988"><ele>316.0</ele><time>2026-05-01T14:43:41Z</time></trkpt><trkpt lat="43.3819577397613" lon="5.969246333363612"><ele>316.0</ele><time>2026-05-01T14:43:43Z</time></trkpt><trkpt lat="43.38188111492103" lon="5.969225863344466"><ele>316.0</ele><time>2026-05-01T14:43:44Z</time></trkpt><trkpt lat="43.381761204284956" lon="5.969200011293157"><ele>319.0</ele><time>2026-05-01T14:43:46Z</time></trkpt><trkpt lat="43.38168573624542" lon="5.969170617489278"><ele>322.0</ele><time>2026-05-01T14:43:48Z</time></trkpt><trkpt lat="43.38167350680963" lon="5.969068856365287"><ele>325.0</ele><time>2026-05-01T14:43:57Z</time></trkpt><trkpt lat="43.38165231313348" lon="5.968947978092138"><ele>328.0</ele><time>2026-05-01T14:43:59Z</time></trkpt><trkpt lat="43.38163933718226" lon="5.968845642470761"><ele>331.0</ele><time>2026-05-01T14:44:00Z</time></trkpt><trkpt lat="43.38162138290843" lon="5.968676910777994"><ele>334.0</ele><time>2026-05-01T14:44:02Z</time></trkpt><trkpt lat="43.381606363822456" lon="5.968524531981735"><ele>334.0</ele><time>2026-05-01T14:44:04Z</time></trkpt><trkpt lat="43.38157155924504" lon="5.96838260319431"><ele>334.0</ele><time>2026-05-01T14:44:06Z</time></trkpt><trkpt lat="43.381482212514626" lon="5.968283582932139"><ele>334.0</ele><time>2026-05-01T14:44:08Z</time></trkpt><trkpt lat="43.38145800429211" lon="5.968198131412499"><ele>334.0</ele><time>2026-05-01T14:44:10Z</time></trkpt><trkpt lat="43.381468270004824" lon="5.96806935204998"><ele>334.0</ele><time>2026-05-01T14:44:13Z</time></trkpt><trkpt lat="43.38144031934009" lon="5.967977093992845"><ele>335.16666666666663</ele><time>2026-05-01T14:44:15Z</time></trkpt><trkpt lat="43.381397383364764" lon="5.967893540929155"><ele>336.3333333333333</ele><time>2026-05-01T14:44:16Z</time></trkpt><trkpt lat="43.381348155469816" lon="5.967785321334555"><ele>337.5</ele><time>2026-05-01T14:44:18Z</time></trkpt><trkpt lat="43.38128617101658" lon="5.967692335105291"><ele>338.6666666666667</ele><time>2026-05-01T14:44:20Z</time></trkpt><trkpt lat="43.38126806702629" lon="5.9675987265003085"><ele>339.83333333333337</ele><time>2026-05-01T14:44:22Z</time></trkpt><trkpt lat="43.38119327579685" lon="5.967492236987456"><ele>341.0</ele><time>2026-05-01T14:44:25Z</time></trkpt><trkpt lat="43.38107110418035" lon="5.967421745618751"><ele>343.33333333333337</ele><time>2026-05-01T14:44:27Z</time></trkpt><trkpt lat="43.381001943794345" lon="5.967436514092456"><ele>345.6666666666667</ele><time>2026-05-01T14:44:29Z</time></trkpt><trkpt lat="43.38092246773606" lon="5.967428228635839"><ele>348.0</ele><time>2026-05-01T14:44:31Z</time></trkpt><trkpt lat="43.38083681513989" lon="5.967451986187051"><ele>350.3333333333333</ele><time>2026-05-01T14:44:32Z</time></trkpt><trkpt lat="43.38072504990703" lon="5.967487206634124"><ele>352.66666666666663</ele><time>2026-05-01T14:44:34Z</time></trkpt><trkpt lat="43.38066753950831" lon="5.967551153433908"><ele>355.0</ele><time>2026-05-01T14:44:37Z</time></trkpt><trkpt lat="43.38059104038291" lon="5.96761159956849"><ele>357.66666666666663</ele><time>2026-05-01T14:44:40Z</time></trkpt><trkpt lat="43.38050387966533" lon="5.967703262385583"><ele>360.3333333333333</ele><time>2026-05-01T14:44:42Z</time></trkpt><trkpt lat="43.38045043984592" lon="5.9677495910364895"><ele>363.0</ele><time>2026-05-01T14:44:43Z</time></trkpt><trkpt lat="43.380385947216304" lon="5.9678208100967645"><ele>365.6666666666667</ele><time>2026-05-01T14:44:45Z</time></trkpt><trkpt lat="43.38032072366628" lon="5.967914330526783"><ele>368.33333333333337</ele><time>2026-05-01T14:44:47Z</time></trkpt><trkpt lat="43.3802532515921" lon="5.968006620493515"><ele>371.0</ele><time>2026-05-01T14:44:49Z</time></trkpt><trkpt lat="43.380209876588246" lon="5.968112872068479"><ele>371.0</ele><time>2026-05-01T14:44:52Z</time></trkpt><trkpt lat="43.38015526609299" lon="5.968201820452812"><ele>371.0</ele><time>2026-05-01T14:44:54Z</time></trkpt><trkpt lat="43.380111287510886" lon="5.9683265677145805"><ele>371.0</ele><time>2026-05-01T14:44:56Z</time></trkpt><trkpt lat="43.380060978986066" lon="5.968501972999595"><ele>371.0</ele><time>2026-05-01T14:44:58Z</time></trkpt><trkpt lat="43.38003718209503" lon="5.968606047581205"><ele>371.0</ele><time>2026-05-01T14:45:00Z</time></trkpt><trkpt lat="43.380068984138056" lon="5.968712541978034"><ele>370.6666666666667</ele><time>2026-05-01T14:45:04Z</time></trkpt><trkpt lat="43.38006579500347" lon="5.968844647299055"><ele>370.33333333333337</ele><time>2026-05-01T14:45:08Z</time></trkpt><trkpt lat="43.38007690494531" lon="5.968934259882537"><ele>370.0</ele><time>2026-05-01T14:45:09Z</time></trkpt><trkpt lat="43.38004242880572" lon="5.969055206864896"><ele>369.6666666666667</ele><time>2026-05-01T14:45:11Z</time></trkpt><trkpt lat="43.37997909195136" lon="5.969110166198832"><ele>369.3333333333333</ele><time>2026-05-01T14:45:13Z</time></trkpt><trkpt lat="43.379946913606766" lon="5.96920658144647"><ele>369.0</ele><time>2026-05-01T14:45:15Z</time></trkpt><trkpt lat="43.37991869204941" lon="5.969334826863376"><ele>368.5</ele><time>2026-05-01T14:45:17Z</time></trkpt><trkpt lat="43.37988435347752" lon="5.969419075005454"><ele>368.0</ele><time>2026-05-01T14:45:19Z</time></trkpt><trkpt lat="43.3798014129405" lon="5.969439925712217"><ele>367.5</ele><time>2026-05-01T14:45:21Z</time></trkpt><trkpt lat="43.379716355207286" lon="5.969412772577653"><ele>367.0</ele><time>2026-05-01T14:45:23Z</time></trkpt><trkpt lat="43.379646357157775" lon="5.969435214926455"><ele>366.5</ele><time>2026-05-01T14:45:25Z</time></trkpt><trkpt lat="43.37960223992372" lon="5.969526343677631"><ele>366.0</ele><time>2026-05-01T14:45:27Z</time></trkpt><trkpt lat="43.3795312894114" lon="5.969615255914618"><ele>364.3333333333333</ele><time>2026-05-01T14:45:29Z</time></trkpt><trkpt lat="43.37949454383903" lon="5.969687867422186"><ele>362.6666666666667</ele><time>2026-05-01T14:45:31Z</time></trkpt><trkpt lat="43.37951356543222" lon="5.969780378102126"><ele>361.0</ele><time>2026-05-01T14:45:33Z</time></trkpt><trkpt lat="43.37946070459433" lon="5.969832043910362"><ele>359.33333333333337</ele><time>2026-05-01T14:45:35Z</time></trkpt><trkpt lat="43.37935154347545" lon="5.969840860194024"><ele>357.6666666666667</ele><time>2026-05-01T14:45:37Z</time></trkpt><trkpt lat="43.37924837224615" lon="5.969889941230606"><ele>356.0</ele><time>2026-05-01T14:45:38Z</time></trkpt><trkpt lat="43.3791752818219" lon="5.969941338518049"><ele>356.0</ele><time>2026-05-01T14:45:39Z</time></trkpt><trkpt lat="43.37911537731358" lon="5.969988313427451"><ele>356.0</ele><time>2026-05-01T14:45:40Z</time></trkpt><trkpt lat="43.37905456053579" lon="5.970028345311092"><ele>356.0</ele><time>2026-05-01T14:45:41Z</time></trkpt><trkpt lat="43.37895154923498" lon="5.970057174531315"><ele>356.0</ele><time>2026-05-01T14:45:43Z</time></trkpt><trkpt lat="43.378858266074644" lon="5.969938405782284"><ele>356.0</ele><time>2026-05-01T14:45:45Z</time></trkpt><trkpt lat="43.37883312962234" lon="5.969849668433962"><ele>356.0</ele><time>2026-05-01T14:45:46Z</time></trkpt><trkpt lat="43.3788365372555" lon="5.969731409096158"><ele>354.6</ele><time>2026-05-01T14:45:47Z</time></trkpt><trkpt lat="43.37883978649312" lon="5.969589022498656"><ele>353.20000000000005</ele><time>2026-05-01T14:45:48Z</time></trkpt><trkpt lat="43.37882328918097" lon="5.969396173798573"><ele>351.79999999999995</ele><time>2026-05-01T14:45:49Z</time></trkpt><trkpt lat="43.37880023754095" lon="5.969244783530526"><ele>350.4</ele><time>2026-05-01T14:45:50Z</time></trkpt><trkpt lat="43.3787860454207" lon="5.96915773588264"><ele>349.0</ele><time>2026-05-01T14:45:51Z</time></trkpt><trkpt lat="43.37871047525537" lon="5.969033019302425"><ele>349.0</ele><time>2026-05-01T14:45:53Z</time></trkpt><trkpt lat="43.37867025473573" lon="5.968965451487765"><ele>349.0</ele><time>2026-05-01T14:45:54Z</time></trkpt><trkpt lat="43.378599584919705" lon="5.9688517246882915"><ele>349.0</ele><time>2026-05-01T14:45:55Z</time></trkpt><trkpt lat="43.378529285652945" lon="5.968742425138522"><ele>349.0</ele><time>2026-05-01T14:45:56Z</time></trkpt><trkpt lat="43.378462810184175" lon="5.96866183606776"><ele>349.0</ele><time>2026-05-01T14:45:57Z</time></trkpt><trkpt lat="43.378380790342945" lon="5.968600312865404"><ele>349.0</ele><time>2026-05-01T14:45:58Z</time></trkpt><trkpt lat="43.378273406306015" lon="5.968547697485858"><ele>349.0</ele><time>2026-05-01T14:45:59Z</time></trkpt><trkpt lat="43.37816025115791" lon="5.968515178723855"><ele>349.0</ele><time>2026-05-01T14:46:00Z</time></trkpt><trkpt lat="43.37808298746767" lon="5.968496873821571"><ele>349.0</ele><time>2026-05-01T14:46:01Z</time></trkpt><trkpt lat="43.37800466450608" lon="5.968462938777101"><ele>349.0</ele><time>2026-05-01T14:46:03Z</time></trkpt><trkpt lat="43.37799377277315" lon="5.968377297570253"><ele>349.4</ele><time>2026-05-01T14:46:06Z</time></trkpt><trkpt lat="43.37800126987344" lon="5.968285767542885"><ele>349.79999999999995</ele><time>2026-05-01T14:46:07Z</time></trkpt><trkpt lat="43.378005644842666" lon="5.968169626952535"><ele>350.20000000000005</ele><time>2026-05-01T14:46:08Z</time></trkpt><trkpt lat="43.37798598788467" lon="5.9680637588631065"><ele>350.6</ele><time>2026-05-01T14:46:09Z</time></trkpt><trkpt lat="43.377944185467484" lon="5.967929297193913"><ele>351.0</ele><time>2026-05-01T14:46:10Z</time></trkpt><trkpt lat="43.37789929038705" lon="5.967781845226576"><ele>351.0</ele><time>2026-05-01T14:46:11Z</time></trkpt><trkpt lat="43.377850322964456" lon="5.967628427082259"><ele>351.0</ele><time>2026-05-01T14:46:12Z</time></trkpt><trkpt lat="43.37779829694879" lon="5.967466720889526"><ele>351.0</ele><time>2026-05-01T14:46:13Z</time></trkpt><trkpt lat="43.377759777741744" lon="5.967312086231415"><ele>351.0</ele><time>2026-05-01T14:46:14Z</time></trkpt><trkpt lat="43.377732773161334" lon="5.967159803293976"><ele>353.0</ele><time>2026-05-01T14:46:15Z</time></trkpt><trkpt lat="43.37771919510002" lon="5.967031362990369"><ele>355.0</ele><time>2026-05-01T14:46:16Z</time></trkpt><trkpt lat="43.37771192442975" lon="5.966895395146637"><ele>357.0</ele><time>2026-05-01T14:46:17Z</time></trkpt><trkpt lat="43.37770157162454" lon="5.966726759145956"><ele>359.0</ele><time>2026-05-01T14:46:18Z</time></trkpt><trkpt lat="43.37769583649293" lon="5.966539545367585"><ele>360.4</ele><time>2026-05-01T14:46:19Z</time></trkpt><trkpt lat="43.37770111727589" lon="5.9663985200358525"><ele>361.79999999999995</ele><time>2026-05-01T14:46:20Z</time></trkpt><trkpt lat="43.377696633740634" lon="5.966283841388011"><ele>363.20000000000005</ele><time>2026-05-01T14:46:21Z</time></trkpt><trkpt lat="43.37766585036129" lon="5.96616365876799"><ele>364.6</ele><time>2026-05-01T14:46:22Z</time></trkpt><trkpt lat="43.37762172295118" lon="5.96602491850442"><ele>366.0</ele><time>2026-05-01T14:46:23Z</time></trkpt><trkpt lat="43.37760584071951" lon="5.965916509759965"><ele>366.6</ele><time>2026-05-01T14:46:24Z</time></trkpt><trkpt lat="43.37759222373371" lon="5.96579544711677"><ele>367.20000000000005</ele><time>2026-05-01T14:46:25Z</time></trkpt><trkpt lat="43.377569083440534" lon="5.965660388614275"><ele>367.79999999999995</ele><time>2026-05-01T14:46:26Z</time></trkpt><trkpt lat="43.377524636558725" lon="5.965524264254894"><ele>368.4</ele><time>2026-05-01T14:46:27Z</time></trkpt><trkpt lat="43.37746998993195" lon="5.965409791024551"><ele>369.0</ele><time>2026-05-01T14:46:28Z</time></trkpt><trkpt lat="43.377391673098685" lon="5.965315009614274"><ele>369.0</ele><time>2026-05-01T14:46:29Z</time></trkpt><trkpt lat="43.377307193005386" lon="5.965211710591403"><ele>369.0</ele><time>2026-05-01T14:46:30Z</time></trkpt><trkpt lat="43.37723462751069" lon="5.965116261031711"><ele>369.0</ele><time>2026-05-01T14:46:31Z</time></trkpt><trkpt lat="43.37716268485886" lon="5.965014270266825"><ele>369.0</ele><time>2026-05-01T14:46:32Z</time></trkpt><trkpt lat="43.37709274685232" lon="5.964924615930994"><ele>369.0</ele><time>2026-05-01T14:46:33Z</time></trkpt><trkpt lat="43.377035224819956" lon="5.964844339377036"><ele>372.2</ele><time>2026-05-01T14:46:34Z</time></trkpt><trkpt lat="43.37697605486309" lon="5.964759570824865"><ele>375.4</ele><time>2026-05-01T14:46:35Z</time></trkpt><trkpt lat="43.37688394502728" lon="5.96465838545726"><ele>378.6</ele><time>2026-05-01T14:46:37Z</time></trkpt><trkpt lat="43.376832151346775" lon="5.964586126007566"><ele>381.8</ele><time>2026-05-01T14:46:38Z</time></trkpt><trkpt lat="43.37678031671565" lon="5.96447990147819"><ele>385.0</ele><time>2026-05-01T14:46:39Z</time></trkpt><trkpt lat="43.376723894858735" lon="5.964362394473845"><ele>385.00000000000006</ele><time>2026-05-01T14:46:40Z</time></trkpt><trkpt lat="43.37669728520188" lon="5.964270329166355"><ele>385.0</ele><time>2026-05-01T14:46:41Z</time></trkpt><trkpt lat="43.37666323866796" lon="5.964158158897829"><ele>385.0</ele><time>2026-05-01T14:46:42Z</time></trkpt><trkpt lat="43.376627526856105" lon="5.96406411097354"><ele>385.0</ele><time>2026-05-01T14:46:43Z</time></trkpt><trkpt lat="43.376599669392014" lon="5.963967047502187"><ele>385.00000000000006</ele><time>2026-05-01T14:46:44Z</time></trkpt><trkpt lat="43.376559961904185" lon="5.963849783876719"><ele>385.0</ele><time>2026-05-01T14:46:45Z</time></trkpt><trkpt lat="43.376527742661956" lon="5.96375996359753"><ele>386.8</ele><time>2026-05-01T14:46:46Z</time></trkpt><trkpt lat="43.376464801839546" lon="5.963608074800591"><ele>388.6</ele><time>2026-05-01T14:46:48Z</time></trkpt><trkpt lat="43.37643357216065" lon="5.963528427907523"><ele>390.4</ele><time>2026-05-01T14:46:49Z</time></trkpt><trkpt lat="43.376416872351875" lon="5.96337660445344"><ele>392.2</ele><time>2026-05-01T14:46:51Z</time></trkpt><trkpt lat="43.376435902189165" lon="5.963216344593312"><ele>394.0</ele><time>2026-05-01T14:46:53Z</time></trkpt><trkpt lat="43.37648472518438" lon="5.963100105102821"><ele>395.6666666666667</ele><time>2026-05-01T14:46:54Z</time></trkpt><trkpt lat="43.376545945187324" lon="5.962963249424043"><ele>397.33333333333337</ele><time>2026-05-01T14:46:55Z</time></trkpt><trkpt lat="43.37659142831785" lon="5.9628631033069786"><ele>399.0</ele><time>2026-05-01T14:46:56Z</time></trkpt><trkpt lat="43.37662439111792" lon="5.962765220209263"><ele>400.66666666666663</ele><time>2026-05-01T14:46:57Z</time></trkpt><trkpt lat="43.37664289617476" lon="5.9626739078035955"><ele>402.3333333333333</ele><time>2026-05-01T14:46:58Z</time></trkpt><trkpt lat="43.376645251077036" lon="5.962583560127039"><ele>404.0</ele><time>2026-05-01T14:46:59Z</time></trkpt><trkpt lat="43.37664560789116" lon="5.962448588354399"><ele>404.8333333333333</ele><time>2026-05-01T14:47:00Z</time></trkpt><trkpt lat="43.37662763064119" lon="5.9623233901066905"><ele>405.66666666666663</ele><time>2026-05-01T14:47:01Z</time></trkpt><trkpt lat="43.37658837675064" lon="5.962236499171643"><ele>406.5</ele><time>2026-05-01T14:47:02Z</time></trkpt><trkpt lat="43.37653779403196" lon="5.962162649796246"><ele>407.33333333333337</ele><time>2026-05-01T14:47:03Z</time></trkpt><trkpt lat="43.37648179241885" lon="5.962102141181061"><ele>408.1666666666667</ele><time>2026-05-01T14:47:04Z</time></trkpt><trkpt lat="43.37641422369103" lon="5.962045113165005"><ele>409.0</ele><time>2026-05-01T14:47:05Z</time></trkpt><trkpt lat="43.376323538315894" lon="5.961965518620313"><ele>410.0</ele><time>2026-05-01T14:47:06Z</time></trkpt><trkpt lat="43.376235686504955" lon="5.961887757473916"><ele>411.0</ele><time>2026-05-01T14:47:07Z</time></trkpt><trkpt lat="43.376181423017" lon="5.96182814292001"><ele>412.0</ele><time>2026-05-01T14:47:08Z</time></trkpt><trkpt lat="43.376126946966025" lon="5.961727027283984"><ele>413.0</ele><time>2026-05-01T14:47:09Z</time></trkpt><trkpt lat="43.3760619796241" lon="5.961572925843056"><ele>414.0</ele><time>2026-05-01T14:47:10Z</time></trkpt><trkpt lat="43.37598596689899" lon="5.9614444120412955"><ele>414.75</ele><time>2026-05-01T14:47:11Z</time></trkpt><trkpt lat="43.37590439052347" lon="5.961307464814388"><ele>415.5</ele><time>2026-05-01T14:47:12Z</time></trkpt><trkpt lat="43.37582169148773" lon="5.9611257632758505"><ele>416.25</ele><time>2026-05-01T14:47:13Z</time></trkpt><trkpt lat="43.3757517464185" lon="5.960946728076203"><ele>417.0</ele><time>2026-05-01T14:47:14Z</time></trkpt><trkpt lat="43.37569205830186" lon="5.960817897526358"><ele>417.20000000000005</ele><time>2026-05-01T14:47:15Z</time></trkpt><trkpt lat="43.375640524177875" lon="5.96071533140306"><ele>417.4</ele><time>2026-05-01T14:47:16Z</time></trkpt><trkpt lat="43.375604847448436" lon="5.960615451261088"><ele>417.6</ele><time>2026-05-01T14:47:17Z</time></trkpt><trkpt lat="43.37554802816133" lon="5.960474425148989"><ele>417.79999999999995</ele><time>2026-05-01T14:47:18Z</time></trkpt><trkpt lat="43.37545769619445" lon="5.960298079160129"><ele>418.0</ele><time>2026-05-01T14:47:19Z</time></trkpt><trkpt lat="43.37537568098927" lon="5.960130958320775"><ele>420.25</ele><time>2026-05-01T14:47:20Z</time></trkpt><trkpt lat="43.37530567959292" lon="5.959984169213953"><ele>422.5</ele><time>2026-05-01T14:47:21Z</time></trkpt><trkpt lat="43.37522932602074" lon="5.959843330706929"><ele>424.75</ele><time>2026-05-01T14:47:22Z</time></trkpt><trkpt lat="43.37515539357355" lon="5.959725039725095"><ele>427.0</ele><time>2026-05-01T14:47:23Z</time></trkpt><trkpt lat="43.3750833702394" lon="5.959603713190221"><ele>427.0</ele><time>2026-05-01T14:47:24Z</time></trkpt><trkpt lat="43.37501952368583" lon="5.959489499037451"><ele>427.00000000000006</ele><time>2026-05-01T14:47:25Z</time></trkpt><trkpt lat="43.37496130934534" lon="5.95939353056221"><ele>427.00000000000006</ele><time>2026-05-01T14:47:26Z</time></trkpt><trkpt lat="43.37490668829169" lon="5.959245212251992"><ele>427.0</ele><time>2026-05-01T14:47:28Z</time></trkpt><trkpt lat="43.374894450327844" lon="5.95915774868962"><ele>427.0</ele><time>2026-05-01T14:47:29Z</time></trkpt><trkpt lat="43.374790141750296" lon="5.959083960667561"><ele>428.20000000000005</ele><time>2026-05-01T14:47:31Z</time></trkpt><trkpt lat="43.374673410519684" lon="5.959026246423643"><ele>429.40000000000003</ele><time>2026-05-01T14:47:33Z</time></trkpt><trkpt lat="43.37458599984539" lon="5.95892043642369"><ele>430.59999999999997</ele><time>2026-05-01T14:47:35Z</time></trkpt><trkpt lat="43.374481261841346" lon="5.958834423903023"><ele>431.79999999999995</ele><time>2026-05-01T14:47:37Z</time></trkpt><trkpt lat="43.37441100840767" lon="5.958810397657079"><ele>433.0</ele><time>2026-05-01T14:47:38Z</time></trkpt><trkpt lat="43.3742978600764" lon="5.9588146483267606"><ele>433.00000000000006</ele><time>2026-05-01T14:47:40Z</time></trkpt><trkpt lat="43.37417127563106" lon="5.9587637601578445"><ele>433.0</ele><time>2026-05-01T14:47:42Z</time></trkpt><trkpt lat="43.37407916878743" lon="5.958715907324291"><ele>433.0</ele><time>2026-05-01T14:47:43Z</time></trkpt><trkpt lat="43.37401881617994" lon="5.958682407079793"><ele>433.0</ele><time>2026-05-01T14:47:44Z</time></trkpt><trkpt lat="43.373961138666985" lon="5.958628420670805"><ele>433.00000000000006</ele><time>2026-05-01T14:47:45Z</time></trkpt><trkpt lat="43.37389396466251" lon="5.958570961000726"><ele>433.0</ele><time>2026-05-01T14:47:46Z</time></trkpt><trkpt lat="43.37382558667098" lon="5.9584832987912195"><ele>433.79999999999995</ele><time>2026-05-01T14:47:47Z</time></trkpt><trkpt lat="43.37374345471555" lon="5.958402583409294"><ele>434.59999999999997</ele><time>2026-05-01T14:47:48Z</time></trkpt><trkpt lat="43.37366435804779" lon="5.958310178693488"><ele>435.40000000000003</ele><time>2026-05-01T14:47:49Z</time></trkpt><trkpt lat="43.373611002916945" lon="5.958238559413526"><ele>436.20000000000005</ele><time>2026-05-01T14:47:50Z</time></trkpt><trkpt lat="43.373554427570035" lon="5.958186324359193"><ele>437.0</ele><time>2026-05-01T14:47:51Z</time></trkpt><trkpt lat="43.37347439644863" lon="5.958092594909697"><ele>437.0</ele><time>2026-05-01T14:47:53Z</time></trkpt><trkpt lat="43.3734286316588" lon="5.958007980150228"><ele>437.00000000000006</ele><time>2026-05-01T14:47:55Z</time></trkpt><trkpt lat="43.373357966129035" lon="5.9578737723281145"><ele>437.00000000000006</ele><time>2026-05-01T14:48:04Z</time></trkpt><trkpt lat="43.37329455196674" lon="5.957820341517609"><ele>437.0</ele><time>2026-05-01T14:48:05Z</time></trkpt><trkpt lat="43.37323210165174" lon="5.957776475934421"><ele>437.0</ele><time>2026-05-01T14:48:06Z</time></trkpt><trkpt lat="43.3731440367007" lon="5.957665268762714"><ele>437.0</ele><time>2026-05-01T14:48:08Z</time></trkpt><trkpt lat="43.373098850183666" lon="5.957565273159838"><ele>437.00000000000006</ele><time>2026-05-01T14:48:09Z</time></trkpt><trkpt lat="43.3730307928426" lon="5.957435850309622"><ele>437.00000000000006</ele><time>2026-05-01T14:48:10Z</time></trkpt><trkpt lat="43.372951700461165" lon="5.957313430183561"><ele>437.0</ele><time>2026-05-01T14:48:11Z</time></trkpt><trkpt lat="43.37290028127298" lon="5.9572468043945035"><ele>437.0</ele><time>2026-05-01T14:48:12Z</time></trkpt><trkpt lat="43.37285261888794" lon="5.957146263564894"><ele>437.8333333333333</ele><time>2026-05-01T14:48:13Z</time></trkpt><trkpt lat="43.37279615288279" lon="5.957010809024837"><ele>438.66666666666663</ele><time>2026-05-01T14:48:14Z</time></trkpt><trkpt lat="43.37275154791925" lon="5.956907538270332"><ele>439.5</ele><time>2026-05-01T14:48:15Z</time></trkpt><trkpt lat="43.372718870267384" lon="5.956820132570528"><ele>440.33333333333337</ele><time>2026-05-01T14:48:16Z</time></trkpt><trkpt lat="43.37269309716868" lon="5.956728067083748"><ele>441.1666666666667</ele><time>2026-05-01T14:48:17Z</time></trkpt><trkpt lat="43.372666650800866" lon="5.956633180105018"><ele>442.0</ele><time>2026-05-01T14:48:18Z</time></trkpt><trkpt lat="43.37261886712637" lon="5.956491070915803"><ele>443.50000000000006</ele><time>2026-05-01T14:48:20Z</time></trkpt><trkpt lat="43.37261964036583" lon="5.956381656952846"><ele>445.0</ele><time>2026-05-01T14:48:21Z</time></trkpt><trkpt lat="43.372607880447994" lon="5.956262600156108"><ele>446.5</ele><time>2026-05-01T14:48:22Z</time></trkpt><trkpt lat="43.372617919069995" lon="5.9561286209978475"><ele>448.0</ele><time>2026-05-01T14:48:24Z</time></trkpt><trkpt lat="43.37265741395876" lon="5.9560445074894846"><ele>449.50000000000006</ele><time>2026-05-01T14:48:25Z</time></trkpt><trkpt lat="43.372702917805555" lon="5.9559137934638375"><ele>451.0</ele><time>2026-05-01T14:48:26Z</time></trkpt><trkpt lat="43.37271295508464" lon="5.955815747503977"><ele>452.4</ele><time>2026-05-01T14:48:27Z</time></trkpt><trkpt lat="43.37266742461389" lon="5.955733491479737"><ele>453.8</ele><time>2026-05-01T14:48:28Z</time></trkpt><trkpt lat="43.37258869661063" lon="5.955650021818373"><ele>455.19999999999993</ele><time>2026-05-01T14:48:29Z</time></trkpt><trkpt lat="43.37250526117148" lon="5.955552520336374"><ele>456.59999999999997</ele><time>2026-05-01T14:48:30Z</time></trkpt><trkpt lat="43.37244771999987" lon="5.955445245942296"><ele>458.0</ele><time>2026-05-01T14:48:31Z</time></trkpt><trkpt lat="43.37240178762099" lon="5.955337394671956"><ele>458.0</ele><time>2026-05-01T14:48:32Z</time></trkpt><trkpt lat="43.372335659515066" lon="5.955225118570398"><ele>457.99999999999994</ele><time>2026-05-01T14:48:33Z</time></trkpt><trkpt lat="43.37226215894208" lon="5.95512904837266"><ele>457.99999999999994</ele><time>2026-05-01T14:48:34Z</time></trkpt><trkpt lat="43.37219181145126" lon="5.955027820790302"><ele>458.0</ele><time>2026-05-01T14:48:35Z</time></trkpt><trkpt lat="43.37214155619159" lon="5.9549405671502225"><ele>458.0</ele><time>2026-05-01T14:48:36Z</time></trkpt><trkpt lat="43.37208604627879" lon="5.954856431703929"><ele>458.3333333333333</ele><time>2026-05-01T14:48:37Z</time></trkpt><trkpt lat="43.37204731873074" lon="5.954765329132459"><ele>458.66666666666663</ele><time>2026-05-01T14:48:38Z</time></trkpt><trkpt lat="43.37200630291372" lon="5.954674585987391"><ele>459.0</ele><time>2026-05-01T14:48:39Z</time></trkpt><trkpt lat="43.371953795043005" lon="5.954619441359217"><ele>459.33333333333337</ele><time>2026-05-01T14:48:40Z</time></trkpt><trkpt lat="43.37189925026126" lon="5.9545233511696605"><ele>459.6666666666667</ele><time>2026-05-01T14:48:42Z</time></trkpt><trkpt lat="43.371832168786796" lon="5.9544983076655145"><ele>460.0</ele><time>2026-05-01T14:48:50Z</time></trkpt><trkpt lat="43.3719066037905" lon="5.9545323806642765"><ele>460.0</ele><time>2026-05-01T14:49:48.999Z</time></trkpt><trkpt lat="43.37195935692691" lon="5.9546463831447305"><ele>460.0</ele><time>2026-05-01T14:49:51.999Z</time></trkpt><trkpt lat="43.37203422872048" lon="5.954736734904443"><ele>460.0</ele><time>2026-05-01T14:49:53.999Z</time></trkpt><trkpt lat="43.37209350371307" lon="5.954865265788452"><ele>460.0</ele><time>2026-05-01T14:49:55.999Z</time></trkpt><trkpt lat="43.372163048210524" lon="5.954976392466065"><ele>460.0</ele><time>2026-05-01T14:49:57.999Z</time></trkpt><trkpt lat="43.37225644187328" lon="5.955124332846971"><ele>459.6</ele><time>2026-05-01T14:49:59.999Z</time></trkpt><trkpt lat="43.3723040516296" lon="5.955214083040377"><ele>459.2</ele><time>2026-05-01T14:50:00.999Z</time></trkpt><trkpt lat="43.37239640632713" lon="5.955334819026468"><ele>458.79999999999995</ele><time>2026-05-01T14:50:02.999Z</time></trkpt><trkpt lat="43.37245679234102" lon="5.955471125573301"><ele>458.4</ele><time>2026-05-01T14:50:04.999Z</time></trkpt><trkpt lat="43.37249462922361" lon="5.955546113490527"><ele>458.0</ele><time>2026-05-01T14:50:05.999Z</time></trkpt><trkpt lat="43.37254540404072" lon="5.955612736647118"><ele>458.0</ele><time>2026-05-01T14:50:06.999Z</time></trkpt><trkpt lat="43.372617330452336" lon="5.955660500581776"><ele>457.99999999999994</ele><time>2026-05-01T14:50:08.999Z</time></trkpt><trkpt lat="43.372644568984285" lon="5.955536116251047"><ele>457.99999999999994</ele><time>2026-05-01T14:50:11.999Z</time></trkpt><trkpt lat="43.37266446376073" lon="5.955394720504956"><ele>458.0</ele><time>2026-05-01T14:50:13.999Z</time></trkpt><trkpt lat="43.372690160061566" lon="5.955268762369066"><ele>458.0</ele><time>2026-05-01T14:50:14.999Z</time></trkpt><trkpt lat="43.37271339005695" lon="5.95515629125376"><ele>458.0</ele><time>2026-05-01T14:50:15.999Z</time></trkpt><trkpt lat="43.37274031039023" lon="5.955063564831189"><ele>457.99999999999994</ele><time>2026-05-01T14:50:16.999Z</time></trkpt><trkpt lat="43.37281335459825" lon="5.954925948297072"><ele>457.99999999999994</ele><time>2026-05-01T14:50:18.999Z</time></trkpt><trkpt lat="43.37288964197967" lon="5.954863894318448"><ele>458.0</ele><time>2026-05-01T14:50:20.999Z</time></trkpt><trkpt lat="43.373026478794074" lon="5.954815265904667"><ele>458.0</ele><time>2026-05-01T14:50:22.999Z</time></trkpt><trkpt lat="43.37311740488383" lon="5.95479462467881"><ele>457.85714285714283</ele><time>2026-05-01T14:50:23.999Z</time></trkpt><trkpt lat="43.373190094172124" lon="5.954776258197388"><ele>457.7142857142858</ele><time>2026-05-01T14:50:24.999Z</time></trkpt><trkpt lat="43.37326619440887" lon="5.954755136156561"><ele>457.5714285714286</ele><time>2026-05-01T14:50:26Z</time></trkpt><trkpt lat="43.37333366875141" lon="5.954747659302905"><ele>457.42857142857144</ele><time>2026-05-01T14:50:27Z</time></trkpt><trkpt lat="43.37340787040694" lon="5.954745254703161"><ele>457.28571428571433</ele><time>2026-05-01T14:50:28Z</time></trkpt><trkpt lat="43.37346806619727" lon="5.954718595815624"><ele>457.1428571428572</ele><time>2026-05-01T14:50:29Z</time></trkpt><trkpt lat="43.37355252740071" lon="5.9547067190150536"><ele>457.00000000000006</ele><time>2026-05-01T14:50:39Z</time></trkpt><trkpt lat="43.37363131711483" lon="5.954780986998871"><ele>457.0</ele><time>2026-05-01T14:50:41Z</time></trkpt><trkpt lat="43.37367439448608" lon="5.954859701541187"><ele>457.00000000000006</ele><time>2026-05-01T14:50:43Z</time></trkpt><trkpt lat="43.37378999381853" lon="5.954873879825463"><ele>457.00000000000006</ele><time>2026-05-01T14:50:46Z</time></trkpt><trkpt lat="43.37390480198781" lon="5.954876222296552"><ele>457.0</ele><time>2026-05-01T14:50:48Z</time></trkpt><trkpt lat="43.37401318437388" lon="5.954870180603348"><ele>457.0</ele><time>2026-05-01T14:50:50Z</time></trkpt><trkpt lat="43.37411333114272" lon="5.954811423374842"><ele>457.4285714285715</ele><time>2026-05-01T14:50:52Z</time></trkpt><trkpt lat="43.374163564615664" lon="5.954756154946965"><ele>457.8571428571429</ele><time>2026-05-01T14:50:54Z</time></trkpt><trkpt lat="43.37422802738225" lon="5.954708331228556"><ele>458.2857142857143</ele><time>2026-05-01T14:50:57Z</time></trkpt><trkpt lat="43.37426972526342" lon="5.954638577355232"><ele>458.7142857142857</ele><time>2026-05-01T14:50:58Z</time></trkpt><trkpt lat="43.374275200558934" lon="5.954544791235657"><ele>459.1428571428571</ele><time>2026-05-01T14:51:00Z</time></trkpt><trkpt lat="43.374324484124436" lon="5.954463839108002"><ele>459.5714285714285</ele><time>2026-05-01T14:51:02Z</time></trkpt><trkpt lat="43.3743757797448" lon="5.954397024297412"><ele>459.99999999999994</ele><time>2026-05-01T14:51:03Z</time></trkpt><trkpt lat="43.374415828990514" lon="5.954328170071877"><ele>460.00000000000006</ele><time>2026-05-01T14:51:06Z</time></trkpt><trkpt lat="43.37449625251288" lon="5.954268140209923"><ele>460.0</ele><time>2026-05-01T14:51:08Z</time></trkpt><trkpt lat="43.374561175598544" lon="5.9542263728170415"><ele>460.0</ele><time>2026-05-01T14:51:10Z</time></trkpt><trkpt lat="43.37466950472904" lon="5.954192822898179"><ele>460.0</ele><time>2026-05-01T14:51:12Z</time></trkpt><trkpt lat="43.37474811204338" lon="5.954224505186804"><ele>460.00000000000006</ele><time>2026-05-01T14:51:15Z</time></trkpt><trkpt lat="43.37481819949347" lon="5.9542835260005855"><ele>460.0</ele><time>2026-05-01T14:51:18Z</time></trkpt><trkpt lat="43.37488751433099" lon="5.954400483196723"><ele>461.6666666666667</ele><time>2026-05-01T14:51:22Z</time></trkpt><trkpt lat="43.37494822210843" lon="5.95442345139188"><ele>463.33333333333337</ele><time>2026-05-01T14:51:25Z</time></trkpt><trkpt lat="43.37503394920012" lon="5.9544307141579855"><ele>465.0</ele><time>2026-05-01T14:51:27Z</time></trkpt><trkpt lat="43.37511624526053" lon="5.954433228192388"><ele>466.66666666666663</ele><time>2026-05-01T14:51:29Z</time></trkpt><trkpt lat="43.37521393503647" lon="5.954455246146711"><ele>468.3333333333333</ele><time>2026-05-01T14:51:31Z</time></trkpt><trkpt lat="43.37531947307302" lon="5.954450461745835"><ele>470.0</ele><time>2026-05-01T14:51:33Z</time></trkpt><trkpt lat="43.375414135394635" lon="5.9544166099707185"><ele>470.0</ele><time>2026-05-01T14:51:35Z</time></trkpt><trkpt lat="43.37549840360793" lon="5.954392488985698"><ele>469.99999999999994</ele><time>2026-05-01T14:51:38Z</time></trkpt><trkpt lat="43.375561051859215" lon="5.954425318090637"><ele>470.0</ele><time>2026-05-01T14:51:42Z</time></trkpt><trkpt lat="43.375620305341286" lon="5.954503527676615"><ele>470.0</ele><time>2026-05-01T14:51:46Z</time></trkpt><trkpt lat="43.37569489173537" lon="5.954500244443332"><ele>469.99999999999994</ele><time>2026-05-01T14:51:55Z</time></trkpt><trkpt lat="43.37575857830382" lon="5.954506789181583"><ele>470.0</ele><time>2026-05-01T14:52:22Z</time></trkpt><trkpt lat="43.37581129874741" lon="5.954445949572885"><ele>470.0</ele><time>2026-05-01T14:52:26Z</time></trkpt><trkpt lat="43.375860854728785" lon="5.954374234451457"><ele>470.3333333333333</ele><time>2026-05-01T14:52:29Z</time></trkpt><trkpt lat="43.37593892035329" lon="5.954367707492765"><ele>470.66666666666663</ele><time>2026-05-01T14:52:33Z</time></trkpt><trkpt lat="43.37599575059061" lon="5.954313636019028"><ele>471.0</ele><time>2026-05-01T14:52:36Z</time></trkpt><trkpt lat="43.37606917034171" lon="5.9542868158494455"><ele>471.33333333333337</ele><time>2026-05-01T14:52:41Z</time></trkpt><trkpt lat="43.376163901156445" lon="5.954207360330236"><ele>471.6666666666667</ele><time>2026-05-01T14:53:31Z</time></trkpt><trkpt lat="43.37622644904463" lon="5.954151291496766"><ele>472.0</ele><time>2026-05-01T14:53:45Z</time></trkpt><trkpt lat="43.37618516977138" lon="5.954066896456456"><ele>472.0</ele><time>2026-05-01T14:54:02Z</time></trkpt><trkpt lat="43.37623116376679" lon="5.954133114126305"><ele>472.0</ele><time>2026-05-01T14:56:18Z</time></trkpt><trkpt lat="43.3761693310028" lon="5.954187969902191"><ele>472.0</ele><time>2026-05-01T14:59:31Z</time></trkpt><trkpt lat="43.37610421818284" lon="5.954251355035932"><ele>472.0</ele><time>2026-05-01T14:59:34Z</time></trkpt><trkpt lat="43.37604097768854" lon="5.954254910880224"><ele>472.0</ele><time>2026-05-01T14:59:38Z</time></trkpt><trkpt lat="43.37597619728686" lon="5.95432496416262"><ele>472.0</ele><time>2026-05-01T14:59:41Z</time></trkpt><trkpt lat="43.375905834280125" lon="5.954330042291647"><ele>472.0</ele><time>2026-05-01T14:59:46Z</time></trkpt><trkpt lat="43.375846186347374" lon="5.954415295159581"><ele>472.00000000000006</ele><time>2026-05-01T14:59:50Z</time></trkpt><trkpt lat="43.37578710137554" lon="5.954491307716333"><ele>472.0</ele><time>2026-05-01T15:00:06Z</time></trkpt><trkpt lat="43.37569297817024" lon="5.954517010042577"><ele>472.0</ele><time>2026-05-01T15:00:35Z</time></trkpt><trkpt lat="43.37564033877339" lon="5.954458087385334"><ele>472.0</ele><time>2026-05-01T15:00:46Z</time></trkpt><trkpt lat="43.37556173661358" lon="5.954420918574051"><ele>472.00000000000006</ele><time>2026-05-01T15:00:50.999Z</time></trkpt><trkpt lat="43.37548718913341" lon="5.954433825975574"><ele>472.0</ele><time>2026-05-01T15:00:52.999Z</time></trkpt><trkpt lat="43.37541150868674" lon="5.954470988184375"><ele>471.71428571428567</ele><time>2026-05-01T15:00:55Z</time></trkpt><trkpt lat="43.37534192305277" lon="5.95448900720503"><ele>471.42857142857144</ele><time>2026-05-01T15:00:57Z</time></trkpt><trkpt lat="43.37526965837138" lon="5.9544935602176405"><ele>471.1428571428571</ele><time>2026-05-01T15:00:59Z</time></trkpt><trkpt lat="43.37520038827842" lon="5.95447023383665"><ele>470.85714285714283</ele><time>2026-05-01T15:01:01Z</time></trkpt><trkpt lat="43.37513262348096" lon="5.954480356667665"><ele>470.57142857142856</ele><time>2026-05-01T15:01:03Z</time></trkpt><trkpt lat="43.3750701214306" lon="5.954466950655936"><ele>470.2857142857143</ele><time>2026-05-01T15:01:05Z</time></trkpt><trkpt lat="43.375004300818055" lon="5.954477289425686"><ele>470.0</ele><time>2026-05-01T15:01:07Z</time></trkpt><trkpt lat="43.37494181894459" lon="5.954428948499322"><ele>469.99999999999994</ele><time>2026-05-01T15:01:16Z</time></trkpt><trkpt lat="43.37489625786387" lon="5.95435673867805"><ele>470.0</ele><time>2026-05-01T15:01:18Z</time></trkpt><trkpt lat="43.374836012288455" lon="5.954286511173703"><ele>470.0</ele><time>2026-05-01T15:01:21Z</time></trkpt><trkpt lat="43.374777529282035" lon="5.954227190110273"><ele>470.0</ele><time>2026-05-01T15:01:24Z</time></trkpt><trkpt lat="43.374713983000156" lon="5.954201643213004"><ele>469.99999999999994</ele><time>2026-05-01T15:01:27Z</time></trkpt><trkpt lat="43.37463216584285" lon="5.954231535951368"><ele>470.0</ele><time>2026-05-01T15:01:30Z</time></trkpt><trkpt lat="43.37455550106434" lon="5.954252809897193"><ele>468.3333333333333</ele><time>2026-05-01T15:01:33Z</time></trkpt><trkpt lat="43.37450603281452" lon="5.954307813547582"><ele>466.66666666666663</ele><time>2026-05-01T15:01:35Z</time></trkpt><trkpt lat="43.3744394449801" lon="5.954353573446827"><ele>465.0</ele><time>2026-05-01T15:01:38Z</time></trkpt><trkpt lat="43.374362228969915" lon="5.954446853786495"><ele>463.33333333333337</ele><time>2026-05-01T15:01:42Z</time></trkpt><trkpt lat="43.37430507147793" lon="5.954554430405515"><ele>461.6666666666667</ele><time>2026-05-01T15:01:44Z</time></trkpt><trkpt lat="43.37429658870749" lon="5.954649276395271"><ele>460.0</ele><time>2026-05-01T15:01:46Z</time></trkpt><trkpt lat="43.374248957726394" lon="5.9547129047280025"><ele>460.0</ele><time>2026-05-01T15:01:48Z</time></trkpt><trkpt lat="43.37418301001808" lon="5.95476753070107"><ele>460.0</ele><time>2026-05-01T15:01:51Z</time></trkpt><trkpt lat="43.37410928391681" lon="5.954835568180131"><ele>460.0</ele><time>2026-05-01T15:01:54Z</time></trkpt><trkpt lat="43.37404229809339" lon="5.954869198435778"><ele>460.0</ele><time>2026-05-01T15:01:55Z</time></trkpt><trkpt lat="43.37393987957022" lon="5.954864573816178"><ele>460.0</ele><time>2026-05-01T15:01:57Z</time></trkpt><trkpt lat="43.37382514909662" lon="5.9548632292128305"><ele>459.50000000000006</ele><time>2026-05-01T15:01:59Z</time></trkpt><trkpt lat="43.37373926026877" lon="5.954870068917988"><ele>459.0</ele><time>2026-05-01T15:02:01Z</time></trkpt><trkpt lat="43.373674694605" lon="5.954807345226268"><ele>458.5</ele><time>2026-05-01T15:02:03Z</time></trkpt><trkpt lat="43.37361641531463" lon="5.954723598221182"><ele>458.0</ele><time>2026-05-01T15:02:05Z</time></trkpt><trkpt lat="43.37353223260098" lon="5.954668430927828"><ele>457.50000000000006</ele><time>2026-05-01T15:02:07Z</time></trkpt><trkpt lat="43.37347248454091" lon="5.954732126169245"><ele>457.0</ele><time>2026-05-01T15:02:17Z</time></trkpt><trkpt lat="43.373412029308234" lon="5.954756897676029"><ele>457.0</ele><time>2026-05-01T15:02:18Z</time></trkpt><trkpt lat="43.37331492065019" lon="5.954748752429482"><ele>457.00000000000006</ele><time>2026-05-01T15:02:20Z</time></trkpt><trkpt lat="43.373242621371716" lon="5.954748453223457"><ele>457.00000000000006</ele><time>2026-05-01T15:02:21Z</time></trkpt><trkpt lat="43.37312373886165" lon="5.954793835752575"><ele>457.0</ele><time>2026-05-01T15:02:23Z</time></trkpt><trkpt lat="43.37301515256331" lon="5.95484275473459"><ele>457.0</ele><time>2026-05-01T15:02:24Z</time></trkpt><trkpt lat="43.372916892466066" lon="5.9548552996064155"><ele>457.0</ele><time>2026-05-01T15:02:25Z</time></trkpt><trkpt lat="43.37285129453445" lon="5.9548702686031225"><ele>457.00000000000006</ele><time>2026-05-01T15:02:25.999Z</time></trkpt><trkpt lat="43.37278648676598" lon="5.9549660066248675"><ele>457.00000000000006</ele><time>2026-05-01T15:02:27.999Z</time></trkpt><trkpt lat="43.37273160542585" lon="5.955091925950714"><ele>457.0</ele><time>2026-05-01T15:02:29.999Z</time></trkpt><trkpt lat="43.37270391898049" lon="5.955221518126349"><ele>457.0</ele><time>2026-05-01T15:02:30.999Z</time></trkpt><trkpt lat="43.3726693213723" lon="5.955382849628446"><ele>457.1666666666667</ele><time>2026-05-01T15:02:31.999Z</time></trkpt><trkpt lat="43.37264840185455" lon="5.955511267478079"><ele>457.33333333333337</ele><time>2026-05-01T15:02:32.999Z</time></trkpt><trkpt lat="43.372636402502415" lon="5.955608976104319"><ele>457.5</ele><time>2026-05-01T15:02:33.999Z</time></trkpt><trkpt lat="43.37254706347885" lon="5.955580002026242"><ele>457.66666666666663</ele><time>2026-05-01T15:02:43.999Z</time></trkpt><trkpt lat="43.37249166290354" lon="5.955504936505898"><ele>457.8333333333333</ele><time>2026-05-01T15:02:44.999Z</time></trkpt><trkpt lat="43.37243676314323" lon="5.955403886393253"><ele>458.0</ele><time>2026-05-01T15:02:45.999Z</time></trkpt><trkpt lat="43.37239154541324" lon="5.955308684068015"><ele>457.99999999999994</ele><time>2026-05-01T15:02:46.999Z</time></trkpt><trkpt lat="43.372348673808766" lon="5.955221998579316"><ele>458.0</ele><time>2026-05-01T15:02:47.999Z</time></trkpt><trkpt lat="43.372292291919834" lon="5.95515094549489"><ele>458.0</ele><time>2026-05-01T15:02:48.999Z</time></trkpt><trkpt lat="43.37222027131006" lon="5.955054208120847"><ele>458.0</ele><time>2026-05-01T15:02:49.999Z</time></trkpt><trkpt lat="43.37216178851246" lon="5.954970282116368"><ele>457.99999999999994</ele><time>2026-05-01T15:02:50.999Z</time></trkpt><trkpt lat="43.37211333439036" lon="5.954892259449409"><ele>458.0</ele><time>2026-05-01T15:02:51.999Z</time></trkpt><trkpt lat="43.37204667909588" lon="5.954754522784045"><ele>458.4</ele><time>2026-05-01T15:02:53.999Z</time></trkpt><trkpt lat="43.3720099347695" lon="5.954675099914493"><ele>458.79999999999995</ele><time>2026-05-01T15:02:54.999Z</time></trkpt><trkpt lat="43.37192160066995" lon="5.954564025555637"><ele>459.2</ele><time>2026-05-01T15:02:56.999Z</time></trkpt><trkpt lat="43.372029314269675" lon="5.954714398015336"><ele>459.6</ele><time>2026-05-01T15:03:20Z</time></trkpt><trkpt lat="43.37207905558035" lon="5.954788373639996"><ele>460.0</ele><time>2026-05-01T15:03:21Z</time></trkpt><trkpt lat="43.3721210060689" lon="5.954905225853008"><ele>460.00000000000006</ele><time>2026-05-01T15:03:23Z</time></trkpt><trkpt lat="43.37207085823907" lon="5.954993317326742"><ele>460.0</ele><time>2026-05-01T15:03:28Z</time></trkpt><trkpt lat="43.37200413991889" lon="5.954994815328123"><ele>460.0</ele><time>2026-05-01T15:03:29Z</time></trkpt><trkpt lat="43.371917493051484" lon="5.9549903052835536"><ele>460.0</ele><time>2026-05-01T15:03:30Z</time></trkpt><trkpt lat="43.371827774637445" lon="5.955007120522817"><ele>460.00000000000006</ele><time>2026-05-01T15:03:31Z</time></trkpt><trkpt lat="43.37173231798804" lon="5.955057966070056"><ele>460.0</ele><time>2026-05-01T15:03:33Z</time></trkpt><trkpt lat="43.37168969089277" lon="5.955145113366927"><ele>460.0</ele><time>2026-05-01T15:03:36Z</time></trkpt><trkpt lat="43.37160080997184" lon="5.955095883470158"><ele>460.0</ele><time>2026-05-01T15:03:39Z</time></trkpt><trkpt lat="43.37150652632994" lon="5.955159797823596"><ele>460.0</ele><time>2026-05-01T15:03:41Z</time></trkpt><trkpt lat="43.371425708316124" lon="5.955225770085414"><ele>460.0</ele><time>2026-05-01T15:03:42Z</time></trkpt><trkpt lat="43.371330802429355" lon="5.955310493606744"><ele>460.0</ele><time>2026-05-01T15:03:43Z</time></trkpt><trkpt lat="43.37124619570342" lon="5.955373714445639"><ele>460.00000000000006</ele><time>2026-05-01T15:03:44Z</time></trkpt><trkpt lat="43.371169518622246" lon="5.9554057470081805"><ele>460.0</ele><time>2026-05-01T15:03:45Z</time></trkpt><trkpt lat="43.371102622741695" lon="5.955433089974005"><ele>460.0</ele><time>2026-05-01T15:03:46Z</time></trkpt><trkpt lat="43.37104061600777" lon="5.955467284028198"><ele>460.0</ele><time>2026-05-01T15:03:47Z</time></trkpt><trkpt lat="43.37097892147915" lon="5.95551708065107"><ele>460.00000000000006</ele><time>2026-05-01T15:03:48Z</time></trkpt><trkpt lat="43.370865856133726" lon="5.955548120984817"><ele>460.0</ele><time>2026-05-01T15:03:50Z</time></trkpt><trkpt lat="43.370787255984276" lon="5.955543547990393"><ele>459.99999999999994</ele><time>2026-05-01T15:03:51Z</time></trkpt><trkpt lat="43.37072197159202" lon="5.955563385592469"><ele>460.0</ele><time>2026-05-01T15:03:52Z</time></trkpt><trkpt lat="43.37066106727714" lon="5.955599685475852"><ele>459.99999999999994</ele><time>2026-05-01T15:03:53Z</time></trkpt><trkpt lat="43.370599198503996" lon="5.95565195936818"><ele>459.99999999999994</ele><time>2026-05-01T15:03:54Z</time></trkpt><trkpt lat="43.37052626031427" lon="5.955706055629486"><ele>460.0</ele><time>2026-05-01T15:03:55Z</time></trkpt><trkpt lat="43.37046592653593" lon="5.955741420991824"><ele>459.99999999999994</ele><time>2026-05-01T15:03:56Z</time></trkpt><trkpt lat="43.370409395839346" lon="5.955782329744504"><ele>459.99999999999994</ele><time>2026-05-01T15:03:57Z</time></trkpt><trkpt lat="43.370352928308314" lon="5.955851600234077"><ele>459.1666666666667</ele><time>2026-05-01T15:03:58Z</time></trkpt><trkpt lat="43.37029688643835" lon="5.955963582799096"><ele>458.33333333333337</ele><time>2026-05-01T15:03:59Z</time></trkpt><trkpt lat="43.370235865504895" lon="5.95607446837336"><ele>457.5</ele><time>2026-05-01T15:04:00Z</time></trkpt><trkpt lat="43.370184514754754" lon="5.956174097491969"><ele>456.66666666666663</ele><time>2026-05-01T15:04:01Z</time></trkpt><trkpt lat="43.37012598497704" lon="5.956255272962358"><ele>455.8333333333333</ele><time>2026-05-01T15:04:02Z</time></trkpt><trkpt lat="43.37008162603106" lon="5.956328549658547"><ele>455.0</ele><time>2026-05-01T15:04:03Z</time></trkpt><trkpt lat="43.36999757529359" lon="5.956452601358604"><ele>454.99999999999994</ele><time>2026-05-01T15:04:04.999Z</time></trkpt><trkpt lat="43.36989912159027" lon="5.956521814866606"><ele>455.0</ele><time>2026-05-01T15:04:06.999Z</time></trkpt><trkpt lat="43.36982275568695" lon="5.956556889719944"><ele>455.0</ele><time>2026-05-01T15:04:08.999Z</time></trkpt><trkpt lat="43.36976058827702" lon="5.956574693210075"><ele>455.0</ele><time>2026-05-01T15:04:09.999Z</time></trkpt><trkpt lat="43.3696976902975" lon="5.95659611800429"><ele>454.99999999999994</ele><time>2026-05-01T15:04:10.999Z</time></trkpt><trkpt lat="43.36962145593083" lon="5.956604121958659"><ele>455.0</ele><time>2026-05-01T15:04:11.999Z</time></trkpt><trkpt lat="43.369505374481776" lon="5.956628707723322"><ele>453.4</ele><time>2026-05-01T15:04:13.999Z</time></trkpt><trkpt lat="43.36939131388443" lon="5.956649703916868"><ele>451.8</ele><time>2026-05-01T15:04:15.999Z</time></trkpt><trkpt lat="43.369279089557004" lon="5.956644973364481"><ele>450.20000000000005</ele><time>2026-05-01T15:04:17.999Z</time></trkpt><trkpt lat="43.36921520243289" lon="5.956642084678216"><ele>448.6</ele><time>2026-05-01T15:04:18.999Z</time></trkpt><trkpt lat="43.36914826551323" lon="5.956648690881366"><ele>447.0</ele><time>2026-05-01T15:04:19.999Z</time></trkpt><trkpt lat="43.36906445358007" lon="5.956744910681759"><ele>445.20000000000005</ele><time>2026-05-01T15:04:21.999Z</time></trkpt><trkpt lat="43.369001277326504" lon="5.956861477400882"><ele>443.40000000000003</ele><time>2026-05-01T15:04:23.999Z</time></trkpt><trkpt lat="43.36891824178681" lon="5.95691587728751"><ele>441.59999999999997</ele><time>2026-05-01T15:04:25.999Z</time></trkpt><trkpt lat="43.36882759183819" lon="5.956902483850053"><ele>439.79999999999995</ele><time>2026-05-01T15:04:27.999Z</time></trkpt><trkpt lat="43.36875349067918" lon="5.95679280038734"><ele>438.0</ele><time>2026-05-01T15:04:29.999Z</time></trkpt><trkpt lat="43.36864328926929" lon="5.956767062680926"><ele>438.0</ele><time>2026-05-01T15:04:31.999Z</time></trkpt><trkpt lat="43.368564883684805" lon="5.956758944487375"><ele>438.0</ele><time>2026-05-01T15:04:32.999Z</time></trkpt><trkpt lat="43.36849651315215" lon="5.956733904024453"><ele>438.0</ele><time>2026-05-01T15:04:33.999Z</time></trkpt><trkpt lat="43.36839007629482" lon="5.95675976062008"><ele>438.0</ele><time>2026-05-01T15:04:35.999Z</time></trkpt><trkpt lat="43.3683239959763" lon="5.956797074802468"><ele>438.0</ele><time>2026-05-01T15:04:36.999Z</time></trkpt><trkpt lat="43.36825843410221" lon="5.956812736245084"><ele>438.0</ele><time>2026-05-01T15:04:37.999Z</time></trkpt><trkpt lat="43.368165548099334" lon="5.956791511287097"><ele>438.0</ele><time>2026-05-01T15:04:39.999Z</time></trkpt><trkpt lat="43.368084751259964" lon="5.956754537682892"><ele>437.99999999999994</ele><time>2026-05-01T15:04:40.999Z</time></trkpt><trkpt lat="43.368002456418054" lon="5.956724053129001"><ele>437.99999999999994</ele><time>2026-05-01T15:04:41.999Z</time></trkpt><trkpt lat="43.36792136593571" lon="5.956693869768366"><ele>438.0</ele><time>2026-05-01T15:04:42.999Z</time></trkpt><trkpt lat="43.367814318704376" lon="5.956651865020872"><ele>438.0</ele><time>2026-05-01T15:04:43.999Z</time></trkpt><trkpt lat="43.367721600537514" lon="5.956613456675663"><ele>438.0</ele><time>2026-05-01T15:04:44.999Z</time></trkpt><trkpt lat="43.36762090089662" lon="5.956587159425286"><ele>438.0</ele><time>2026-05-01T15:04:45.999Z</time></trkpt><trkpt lat="43.36753019135313" lon="5.956568253296027"><ele>438.0</ele><time>2026-05-01T15:04:46.999Z</time></trkpt><trkpt lat="43.36745282618047" lon="5.956544331301669"><ele>438.0</ele><time>2026-05-01T15:04:47.999Z</time></trkpt><trkpt lat="43.36737353825381" lon="5.956502219132709"><ele>438.0</ele><time>2026-05-01T15:04:48.999Z</time></trkpt><trkpt lat="43.367316618757286" lon="5.956442073973004"><ele>438.0</ele><time>2026-05-01T15:04:49.999Z</time></trkpt><trkpt lat="43.367267177859105" lon="5.95636088833966"><ele>438.0</ele><time>2026-05-01T15:04:50.999Z</time></trkpt><trkpt lat="43.367209862209556" lon="5.9562615291374215"><ele>438.0</ele><time>2026-05-01T15:04:51.999Z</time></trkpt><trkpt lat="43.36715320223285" lon="5.956173052809388"><ele>438.0</ele><time>2026-05-01T15:04:52.999Z</time></trkpt><trkpt lat="43.36708482408113" lon="5.956084183831953"><ele>438.0</ele><time>2026-05-01T15:04:53.999Z</time></trkpt><trkpt lat="43.36703012542673" lon="5.956014772569042"><ele>438.0</ele><time>2026-05-01T15:04:54.999Z</time></trkpt><trkpt lat="43.366961185111116" lon="5.955951371746111"><ele>438.0</ele><time>2026-05-01T15:04:55.999Z</time></trkpt><trkpt lat="43.36689773104241" lon="5.955904505361898"><ele>436.5</ele><time>2026-05-01T15:04:56.999Z</time></trkpt><trkpt lat="43.36680860578561" lon="5.955833602367803"><ele>435.0</ele><time>2026-05-01T15:04:58.999Z</time></trkpt><trkpt lat="43.36675018134218" lon="5.9557724920538915"><ele>433.5</ele><time>2026-05-01T15:05:01.999Z</time></trkpt><trkpt lat="43.3666995567214" lon="5.955695652957524"><ele>432.0</ele><time>2026-05-01T15:05:04.999Z</time></trkpt><trkpt lat="43.366637258772556" lon="5.955649293367416"><ele>430.5</ele><time>2026-05-01T15:05:07Z</time></trkpt><trkpt lat="43.366649017368815" lon="5.9555594290938485"><ele>429.0</ele><time>2026-05-01T15:05:19Z</time></trkpt><trkpt lat="43.36672632339576" lon="5.955537358297924"><ele>429.0</ele><time>2026-05-01T15:05:21Z</time></trkpt><trkpt lat="43.36678418323788" lon="5.95548221958367"><ele>429.0</ele><time>2026-05-01T15:05:23Z</time></trkpt><trkpt lat="43.366792784140465" lon="5.95536637315633"><ele>429.0</ele><time>2026-05-01T15:05:25Z</time></trkpt><trkpt lat="43.3667659173895" lon="5.955258308368339"><ele>429.0</ele><time>2026-05-01T15:05:27Z</time></trkpt><trkpt lat="43.36673557944272" lon="5.955158894457031"><ele>429.0</ele><time>2026-05-01T15:05:29Z</time></trkpt><trkpt lat="43.36669213055092" lon="5.955079429331597"><ele>429.0</ele><time>2026-05-01T15:05:31Z</time></trkpt><trkpt lat="43.366645146346805" lon="5.954976340149264"><ele>427.8333333333333</ele><time>2026-05-01T15:05:34Z</time></trkpt><trkpt lat="43.36667889809286" lon="5.9548529892206075"><ele>426.66666666666663</ele><time>2026-05-01T15:05:36Z</time></trkpt><trkpt lat="43.36672119013429" lon="5.9547851005663555"><ele>425.5</ele><time>2026-05-01T15:05:38Z</time></trkpt><trkpt lat="43.36672356943275" lon="5.954614997821951"><ele>424.3333333333333</ele><time>2026-05-01T15:06:20.999Z</time></trkpt><trkpt lat="43.3667097317161" lon="5.954527537201461"><ele>423.16666666666663</ele><time>2026-05-01T15:06:21.999Z</time></trkpt><trkpt lat="43.36668703199611" lon="5.954413030765318"><ele>422.0</ele><time>2026-05-01T15:06:22.999Z</time></trkpt><trkpt lat="43.366661672098495" lon="5.954277282700166"><ele>422.0</ele><time>2026-05-01T15:06:23.999Z</time></trkpt><trkpt lat="43.36662702509737" lon="5.954141141101489"><ele>422.0</ele><time>2026-05-01T15:06:24.999Z</time></trkpt><trkpt lat="43.36658926646864" lon="5.954002437781004"><ele>422.0</ele><time>2026-05-01T15:06:25.999Z</time></trkpt><trkpt lat="43.3665584480653" lon="5.953866865846845"><ele>422.0</ele><time>2026-05-01T15:06:26.999Z</time></trkpt><trkpt lat="43.36652566889354" lon="5.9537104632220785"><ele>422.0</ele><time>2026-05-01T15:06:27.999Z</time></trkpt><trkpt lat="43.366488645778965" lon="5.953528859674012"><ele>421.0</ele><time>2026-05-01T15:06:28.999Z</time></trkpt><trkpt lat="43.36645787037488" lon="5.953348978500076"><ele>420.0</ele><time>2026-05-01T15:06:29.999Z</time></trkpt><trkpt lat="43.366438877058464" lon="5.953179291983506"><ele>419.0</ele><time>2026-05-01T15:06:30.999Z</time></trkpt><trkpt lat="43.366438232253124" lon="5.953017174602525"><ele>418.0</ele><time>2026-05-01T15:06:31.999Z</time></trkpt><trkpt lat="43.36644556416144" lon="5.952858301424448"><ele>418.0</ele><time>2026-05-01T15:06:32.999Z</time></trkpt><trkpt lat="43.366465906504196" lon="5.952708121685114"><ele>418.0</ele><time>2026-05-01T15:06:33.999Z</time></trkpt><trkpt lat="43.36649192464656" lon="5.952565990464051"><ele>418.0</ele><time>2026-05-01T15:06:34.999Z</time></trkpt><trkpt lat="43.366534604483455" lon="5.952436287807554"><ele>418.0</ele><time>2026-05-01T15:06:35.999Z</time></trkpt><trkpt lat="43.36659524150789" lon="5.952330753215474"><ele>418.0</ele><time>2026-05-01T15:06:36.999Z</time></trkpt><trkpt lat="43.36665820048609" lon="5.9522389382274214"><ele>417.59999999999997</ele><time>2026-05-01T15:06:37.999Z</time></trkpt><trkpt lat="43.366711529210676" lon="5.9521344729665095"><ele>417.2</ele><time>2026-05-01T15:06:38.999Z</time></trkpt><trkpt lat="43.366783222644266" lon="5.952023453356459"><ele>416.8</ele><time>2026-05-01T15:06:39.999Z</time></trkpt><trkpt lat="43.36685923386326" lon="5.951902564027613"><ele>416.4</ele><time>2026-05-01T15:06:40.999Z</time></trkpt><trkpt lat="43.36692758420009" lon="5.951795432860547"><ele>416.0</ele><time>2026-05-01T15:06:41.999Z</time></trkpt><trkpt lat="43.36698573253412" lon="5.951701257343869"><ele>415.66666666666663</ele><time>2026-05-01T15:06:42.999Z</time></trkpt><trkpt lat="43.36703856459578" lon="5.951616978244778"><ele>415.3333333333333</ele><time>2026-05-01T15:06:43.999Z</time></trkpt><trkpt lat="43.36708728220867" lon="5.951535671357932"><ele>415.0</ele><time>2026-05-01T15:06:44.999Z</time></trkpt><trkpt lat="43.36713141592017" lon="5.9514721446455034"><ele>414.66666666666663</ele><time>2026-05-01T15:06:45.999Z</time></trkpt><trkpt lat="43.36721576199972" lon="5.951367783524944"><ele>414.3333333333333</ele><time>2026-05-01T15:06:47.999Z</time></trkpt><trkpt lat="43.36730269155883" lon="5.9512897771277515"><ele>414.0</ele><time>2026-05-01T15:06:49.999Z</time></trkpt><trkpt lat="43.36736830623727" lon="5.951201945361453"><ele>415.1666666666667</ele><time>2026-05-01T15:06:51.999Z</time></trkpt><trkpt lat="43.36740214953155" lon="5.951119142318189"><ele>416.33333333333337</ele><time>2026-05-01T15:06:53.999Z</time></trkpt><trkpt lat="43.36744036209836" lon="5.95103084868424"><ele>417.5</ele><time>2026-05-01T15:06:56.999Z</time></trkpt><trkpt lat="43.3673932950819" lon="5.951124024869684"><ele>418.6666666666667</ele><time>2026-05-01T15:07:00.999Z</time></trkpt><trkpt lat="43.367339339364435" lon="5.951183806060254"><ele>419.83333333333337</ele><time>2026-05-01T15:07:01.999Z</time></trkpt><trkpt lat="43.367293498303496" lon="5.951271191468097"><ele>421.0</ele><time>2026-05-01T15:07:02.999Z</time></trkpt><trkpt lat="43.367225334465495" lon="5.951373679320618"><ele>420.0</ele><time>2026-05-01T15:07:03.999Z</time></trkpt><trkpt lat="43.367152470351364" lon="5.9514644295810815"><ele>419.0</ele><time>2026-05-01T15:07:04.999Z</time></trkpt><trkpt lat="43.36708268863637" lon="5.951556071612746"><ele>418.0</ele><time>2026-05-01T15:07:05.999Z</time></trkpt><trkpt lat="43.36701341785003" lon="5.951663260863638"><ele>417.0</ele><time>2026-05-01T15:07:06.999Z</time></trkpt><trkpt lat="43.36694162572018" lon="5.95177474662086"><ele>416.0</ele><time>2026-05-01T15:07:07.999Z</time></trkpt><trkpt lat="43.36687134616933" lon="5.951886393713771"><ele>416.0</ele><time>2026-05-01T15:07:08.999Z</time></trkpt><trkpt lat="43.36679057374945" lon="5.9520219011187585"><ele>416.0</ele><time>2026-05-01T15:07:09.999Z</time></trkpt><trkpt lat="43.36670944121184" lon="5.952154500004696"><ele>416.0</ele><time>2026-05-01T15:07:10.999Z</time></trkpt><trkpt lat="43.36663174313632" lon="5.952260536164131"><ele>416.0</ele><time>2026-05-01T15:07:11.999Z</time></trkpt><trkpt lat="43.366550016542476" lon="5.952349141526543"><ele>416.0</ele><time>2026-05-01T15:07:13Z</time></trkpt><trkpt lat="43.366498482773906" lon="5.952453136755319"><ele>416.0</ele><time>2026-05-01T15:07:14Z</time></trkpt><trkpt lat="43.366463633937634" lon="5.952538692575359"><ele>416.0</ele><time>2026-05-01T15:07:14.999Z</time></trkpt><trkpt lat="43.36636018173383" lon="5.952310719207289"><ele>416.0</ele><time>2026-05-01T15:07:22Z</time></trkpt><trkpt lat="43.366322968778675" lon="5.952149076746902"><ele>414.5</ele><time>2026-05-01T15:07:23Z</time></trkpt><trkpt lat="43.366264932438874" lon="5.951987859689285"><ele>413.0</ele><time>2026-05-01T15:07:24Z</time></trkpt><trkpt lat="43.36620229422829" lon="5.951852741609624"><ele>411.5</ele><time>2026-05-01T15:07:25Z</time></trkpt><trkpt lat="43.366150735191" lon="5.951728382771367"><ele>410.0</ele><time>2026-05-01T15:07:26Z</time></trkpt><trkpt lat="43.3661096962355" lon="5.9516031997843255"><ele>409.66666666666663</ele><time>2026-05-01T15:07:27Z</time></trkpt><trkpt lat="43.36606737620267" lon="5.951481954342974"><ele>409.3333333333333</ele><time>2026-05-01T15:07:28Z</time></trkpt><trkpt lat="43.36600959031404" lon="5.951387743255402"><ele>409.0</ele><time>2026-05-01T15:07:29Z</time></trkpt><trkpt lat="43.365939590132704" lon="5.951326477727576"><ele>408.66666666666663</ele><time>2026-05-01T15:07:30Z</time></trkpt><trkpt lat="43.3658590694068" lon="5.951250311763805"><ele>408.3333333333333</ele><time>2026-05-01T15:07:31Z</time></trkpt><trkpt lat="43.365803646185356" lon="5.951181289604397"><ele>408.0</ele><time>2026-05-01T15:07:32Z</time></trkpt><trkpt lat="43.36575595761915" lon="5.951087183501105"><ele>408.0</ele><time>2026-05-01T15:07:32.999Z</time></trkpt><trkpt lat="43.36569866022953" lon="5.950983187094645"><ele>408.0</ele><time>2026-05-01T15:07:33.999Z</time></trkpt><trkpt lat="43.36565031871473" lon="5.950890077176928"><ele>408.0</ele><time>2026-05-01T15:07:34.999Z</time></trkpt><trkpt lat="43.36561304078838" lon="5.9507994156806605"><ele>408.0</ele><time>2026-05-01T15:07:35.999Z</time></trkpt><trkpt lat="43.36559385221197" lon="5.95070455050324"><ele>408.0</ele><time>2026-05-01T15:07:36.999Z</time></trkpt><trkpt lat="43.365600567541705" lon="5.9506027007775755"><ele>408.0</ele><time>2026-05-01T15:07:37.999Z</time></trkpt><trkpt lat="43.36562740688601" lon="5.950517419462537"><ele>407.5</ele><time>2026-05-01T15:07:38.999Z</time></trkpt><trkpt lat="43.36566133496791" lon="5.950422283697913"><ele>407.0</ele><time>2026-05-01T15:07:39.999Z</time></trkpt><trkpt lat="43.36566851390068" lon="5.950336140295952"><ele>406.5</ele><time>2026-05-01T15:07:40.999Z</time></trkpt><trkpt lat="43.36565920796635" lon="5.950233997205976"><ele>406.0</ele><time>2026-05-01T15:07:41.999Z</time></trkpt><trkpt lat="43.36563761595897" lon="5.950092778951845"><ele>405.5</ele><time>2026-05-01T15:07:42.999Z</time></trkpt><trkpt lat="43.36562613761689" lon="5.9499564667214155"><ele>405.0</ele><time>2026-05-01T15:07:43.999Z</time></trkpt><trkpt lat="43.36561905368932" lon="5.94980613960272"><ele>404.1666666666667</ele><time>2026-05-01T15:07:44.999Z</time></trkpt><trkpt lat="43.36562957651093" lon="5.949689095393023"><ele>403.33333333333337</ele><time>2026-05-01T15:07:45.999Z</time></trkpt><trkpt lat="43.36564510658892" lon="5.949567316551367"><ele>402.5</ele><time>2026-05-01T15:07:46.999Z</time></trkpt><trkpt lat="43.365673173810826" lon="5.949458561339298"><ele>401.6666666666667</ele><time>2026-05-01T15:07:47.999Z</time></trkpt><trkpt lat="43.3657124144468" lon="5.94937340447531"><ele>400.83333333333337</ele><time>2026-05-01T15:07:48.999Z</time></trkpt><trkpt lat="43.365740817296384" lon="5.949285972053452"><ele>400.0</ele><time>2026-05-01T15:07:49.999Z</time></trkpt><trkpt lat="43.36575048577865" lon="5.949190826719302"><ele>399.5</ele><time>2026-05-01T15:07:50.999Z</time></trkpt><trkpt lat="43.365700698606645" lon="5.9490167720304745"><ele>399.0</ele><time>2026-05-01T15:07:52.999Z</time></trkpt><trkpt lat="43.36564449847175" lon="5.948922712138566"><ele>398.5</ele><time>2026-05-01T15:07:53.999Z</time></trkpt><trkpt lat="43.36555476691162" lon="5.948778638730697"><ele>398.0</ele><time>2026-05-01T15:07:54.999Z</time></trkpt><trkpt lat="43.36546785126372" lon="5.948616807749"><ele>397.8333333333333</ele><time>2026-05-01T15:07:55.999Z</time></trkpt><trkpt lat="43.36539771190257" lon="5.948472975119857"><ele>397.66666666666663</ele><time>2026-05-01T15:07:56.999Z</time></trkpt><trkpt lat="43.365361854741245" lon="5.948380296130944"><ele>397.5</ele><time>2026-05-01T15:07:57.999Z</time></trkpt><trkpt lat="43.36534291059587" lon="5.948283049800683"><ele>397.33333333333337</ele><time>2026-05-01T15:07:58.999Z</time></trkpt><trkpt lat="43.365357983268694" lon="5.948192113107408"><ele>397.1666666666667</ele><time>2026-05-01T15:07:59.999Z</time></trkpt><trkpt lat="43.3653757499902" lon="5.948090374512116"><ele>397.0</ele><time>2026-05-01T15:08:00.999Z</time></trkpt><trkpt lat="43.36537366868803" lon="5.947972467641078"><ele>396.8</ele><time>2026-05-01T15:08:01.999Z</time></trkpt><trkpt lat="43.365351813815835" lon="5.9478694824816"><ele>396.6</ele><time>2026-05-01T15:08:02.999Z</time></trkpt><trkpt lat="43.365308528386336" lon="5.947752633461396"><ele>396.40000000000003</ele><time>2026-05-01T15:08:03.999Z</time></trkpt><trkpt lat="43.36524562738745" lon="5.947607623994639"><ele>396.20000000000005</ele><time>2026-05-01T15:08:04.999Z</time></trkpt><trkpt lat="43.365160100066916" lon="5.947437941447116"><ele>396.0</ele><time>2026-05-01T15:08:05.999Z</time></trkpt><trkpt lat="43.36507095113393" lon="5.947244593506304"><ele>396.0</ele><time>2026-05-01T15:08:06.999Z</time></trkpt><trkpt lat="43.36499478449805" lon="5.947076330909208"><ele>396.0</ele><time>2026-05-01T15:08:07.999Z</time></trkpt><trkpt lat="43.36493982583451" lon="5.9469463777245695"><ele>396.0</ele><time>2026-05-01T15:08:08.999Z</time></trkpt><trkpt lat="43.36489603244708" lon="5.946837335438114"><ele>396.0</ele><time>2026-05-01T15:08:09.999Z</time></trkpt><trkpt lat="43.3648740892032" lon="5.94671676077069"><ele>396.0</ele><time>2026-05-01T15:08:11.999Z</time></trkpt><trkpt lat="43.364827637546156" lon="5.946636622813613"><ele>395.6666666666667</ele><time>2026-05-01T15:08:30.999Z</time></trkpt><trkpt lat="43.36478023036145" lon="5.94655671618617"><ele>395.33333333333337</ele><time>2026-05-01T15:08:31.999Z</time></trkpt><trkpt lat="43.364730135363835" lon="5.946465632312934"><ele>395.0</ele><time>2026-05-01T15:08:32.999Z</time></trkpt><trkpt lat="43.36467711848336" lon="5.946361129007335"><ele>394.6666666666667</ele><time>2026-05-01T15:08:33.999Z</time></trkpt><trkpt lat="43.364634200024426" lon="5.946253019028847"><ele>394.33333333333337</ele><time>2026-05-01T15:08:34.999Z</time></trkpt><trkpt lat="43.36460028495326" lon="5.946118715329859"><ele>394.0</ele><time>2026-05-01T15:08:35.999Z</time></trkpt><trkpt lat="43.36457421160544" lon="5.945998455298882"><ele>393.6</ele><time>2026-05-01T15:08:36.999Z</time></trkpt><trkpt lat="43.364544208270054" lon="5.9458718724326225"><ele>393.2</ele><time>2026-05-01T15:08:37.999Z</time></trkpt><trkpt lat="43.36452246126843" lon="5.945759291226796"><ele>392.8</ele><time>2026-05-01T15:08:38.999Z</time></trkpt><trkpt lat="43.36449557128695" lon="5.9456418995718545"><ele>392.40000000000003</ele><time>2026-05-01T15:08:39.999Z</time></trkpt><trkpt lat="43.36447358589804" lon="5.945526890725319"><ele>392.0</ele><time>2026-05-01T15:08:40.999Z</time></trkpt><trkpt lat="43.36444843333266" lon="5.945397439732515"><ele>391.99999999999994</ele><time>2026-05-01T15:08:41.999Z</time></trkpt><trkpt lat="43.36441362509282" lon="5.945296048584568"><ele>392.0</ele><time>2026-05-01T15:08:42.999Z</time></trkpt><trkpt lat="43.36436845397372" lon="5.945191675984252"><ele>392.0</ele><time>2026-05-01T15:08:43.999Z</time></trkpt><trkpt lat="43.36433136557589" lon="5.945111468499181"><ele>392.0</ele><time>2026-05-01T15:08:44.999Z</time></trkpt><trkpt lat="43.36429309008967" lon="5.944976705625703"><ele>391.99999999999994</ele><time>2026-05-01T15:08:45.999Z</time></trkpt><trkpt lat="43.36428607545289" lon="5.944847233126771"><ele>392.0</ele><time>2026-05-01T15:08:46.999Z</time></trkpt><trkpt lat="43.36427168448121" lon="5.94470681611731"><ele>391.49999999999994</ele><time>2026-05-01T15:08:47.999Z</time></trkpt><trkpt lat="43.364240395298154" lon="5.9446076351188175"><ele>391.0</ele><time>2026-05-01T15:08:48.999Z</time></trkpt><trkpt lat="43.36419144028919" lon="5.944551437424502"><ele>390.5</ele><time>2026-05-01T15:08:49.999Z</time></trkpt><trkpt lat="43.36408414758298" lon="5.944535121167705"><ele>390.0</ele><time>2026-05-01T15:08:51.999Z</time></trkpt><trkpt lat="43.36399769828355" lon="5.94452516756149"><ele>389.49999999999994</ele><time>2026-05-01T15:08:52.999Z</time></trkpt><trkpt lat="43.36392127563148" lon="5.944512042233527"><ele>389.0</ele><time>2026-05-01T15:08:53.999Z</time></trkpt><trkpt lat="43.36385699596191" lon="5.944495193899031"><ele>387.66666666666663</ele><time>2026-05-01T15:08:54.999Z</time></trkpt><trkpt lat="43.36379126007586" lon="5.94447414372216"><ele>386.3333333333333</ele><time>2026-05-01T15:08:55.999Z</time></trkpt><trkpt lat="43.3636876356218" lon="5.944366228034347"><ele>385.0</ele><time>2026-05-01T15:08:57.999Z</time></trkpt><trkpt lat="43.36363523886671" lon="5.944269288354215"><ele>383.66666666666663</ele><time>2026-05-01T15:08:58.999Z</time></trkpt><trkpt lat="43.3635793617845" lon="5.944173129482476"><ele>382.3333333333333</ele><time>2026-05-01T15:08:59.999Z</time></trkpt><trkpt lat="43.363529624481785" lon="5.944096873517817"><ele>381.0</ele><time>2026-05-01T15:09:00.999Z</time></trkpt><trkpt lat="43.36348583178869" lon="5.944023238599085"><ele>381.0</ele><time>2026-05-01T15:09:01.999Z</time></trkpt><trkpt lat="43.36344191384433" lon="5.9439533563112"><ele>381.0</ele><time>2026-05-01T15:09:02.999Z</time></trkpt><trkpt lat="43.36338965256243" lon="5.943879284710087"><ele>381.0</ele><time>2026-05-01T15:09:03.999Z</time></trkpt><trkpt lat="43.363336841192734" lon="5.943797539593126"><ele>381.0</ele><time>2026-05-01T15:09:04.999Z</time></trkpt><trkpt lat="43.363264499713324" lon="5.943681211007489"><ele>381.0</ele><time>2026-05-01T15:09:06.999Z</time></trkpt><trkpt lat="43.36318090198245" lon="5.943541866383531"><ele>381.0</ele><time>2026-05-01T15:09:08.999Z</time></trkpt><trkpt lat="43.36315737594057" lon="5.9434470764295035"><ele>381.0</ele><time>2026-05-01T15:09:09.999Z</time></trkpt><trkpt lat="43.36314108708538" lon="5.943342372996963"><ele>381.0</ele><time>2026-05-01T15:09:10.999Z</time></trkpt><trkpt lat="43.36313108982215" lon="5.943234216389777"><ele>381.0</ele><time>2026-05-01T15:09:11.999Z</time></trkpt><trkpt lat="43.36311987659307" lon="5.943144232752535"><ele>381.0</ele><time>2026-05-01T15:09:12.999Z</time></trkpt><trkpt lat="43.3631279671768" lon="5.942973511422752"><ele>381.0</ele><time>2026-05-01T15:09:14.999Z</time></trkpt><trkpt lat="43.363120901154495" lon="5.94282671762627"><ele>380.8333333333333</ele><time>2026-05-01T15:09:16.999Z</time></trkpt><trkpt lat="43.363086149158654" lon="5.942743784236981"><ele>380.6666666666667</ele><time>2026-05-01T15:09:17.999Z</time></trkpt><trkpt lat="43.36304340001094" lon="5.942645416833842"><ele>380.5</ele><time>2026-05-01T15:09:18.999Z</time></trkpt><trkpt lat="43.36298859794841" lon="5.942521306652459"><ele>380.33333333333337</ele><time>2026-05-01T15:09:19.999Z</time></trkpt><trkpt lat="43.36294626896435" lon="5.942419130412539"><ele>380.1666666666667</ele><time>2026-05-01T15:09:20.999Z</time></trkpt><trkpt lat="43.36290896300657" lon="5.9423301787326785"><ele>380.0</ele><time>2026-05-01T15:09:21.999Z</time></trkpt><trkpt lat="43.36288026656114" lon="5.942226240605191"><ele>378.8</ele><time>2026-05-01T15:09:22.999Z</time></trkpt><trkpt lat="43.3628866191741" lon="5.942108055996505"><ele>377.6</ele><time>2026-05-01T15:09:23.999Z</time></trkpt><trkpt lat="43.36287847551504" lon="5.941956163889417"><ele>376.4</ele><time>2026-05-01T15:09:24.999Z</time></trkpt><trkpt lat="43.362847447612495" lon="5.941809444450061"><ele>375.2</ele><time>2026-05-01T15:09:25.999Z</time></trkpt><trkpt lat="43.362795632744685" lon="5.9416492003358305"><ele>374.0</ele><time>2026-05-01T15:09:26.999Z</time></trkpt><trkpt lat="43.362759593077016" lon="5.941504987844541"><ele>374.0</ele><time>2026-05-01T15:09:27.999Z</time></trkpt><trkpt lat="43.36275038977728" lon="5.9413640687504365"><ele>374.0</ele><time>2026-05-01T15:09:28.999Z</time></trkpt><trkpt lat="43.3627588884908" lon="5.941231417909222"><ele>374.0</ele><time>2026-05-01T15:09:29.999Z</time></trkpt><trkpt lat="43.36277155508418" lon="5.941111995397236"><ele>374.0</ele><time>2026-05-01T15:09:30.999Z</time></trkpt><trkpt lat="43.3627907680551" lon="5.940999732436835"><ele>374.0</ele><time>2026-05-01T15:09:31.999Z</time></trkpt><trkpt lat="43.36279206839259" lon="5.940864616933703"><ele>373.6</ele><time>2026-05-01T15:09:32.999Z</time></trkpt><trkpt lat="43.362774054726266" lon="5.9407320369466134"><ele>373.2</ele><time>2026-05-01T15:09:33.999Z</time></trkpt><trkpt lat="43.36275132480123" lon="5.94061305923315"><ele>372.8</ele><time>2026-05-01T15:09:34.999Z</time></trkpt><trkpt lat="43.362726367248186" lon="5.940496942443426"><ele>372.40000000000003</ele><time>2026-05-01T15:09:35.999Z</time></trkpt><trkpt lat="43.36269882362395" lon="5.9403595143862775"><ele>372.0</ele><time>2026-05-01T15:09:36.999Z</time></trkpt><trkpt lat="43.36267312795736" lon="5.940210095367766"><ele>372.0</ele><time>2026-05-01T15:09:37.999Z</time></trkpt><trkpt lat="43.362652659145766" lon="5.940073774501106"><ele>372.0</ele><time>2026-05-01T15:09:38.999Z</time></trkpt><trkpt lat="43.36264275592881" lon="5.939949992710139"><ele>372.0</ele><time>2026-05-01T15:09:39.999Z</time></trkpt><trkpt lat="43.362635394304164" lon="5.939830618353978"><ele>372.0</ele><time>2026-05-01T15:09:40.999Z</time></trkpt><trkpt lat="43.36262193691002" lon="5.939713610978187"><ele>372.0</ele><time>2026-05-01T15:09:41.999Z</time></trkpt><trkpt lat="43.36259841402076" lon="5.939590677030746"><ele>372.0</ele><time>2026-05-01T15:09:42.999Z</time></trkpt><trkpt lat="43.36258323651356" lon="5.939481780403699"><ele>372.0</ele><time>2026-05-01T15:09:43.999Z</time></trkpt><trkpt lat="43.36258772970696" lon="5.9393673499010715"><ele>372.0</ele><time>2026-05-01T15:09:44.999Z</time></trkpt><trkpt lat="43.36260344051517" lon="5.939218963836701"><ele>372.0</ele><time>2026-05-01T15:09:45.999Z</time></trkpt><trkpt lat="43.362602164660494" lon="5.939056868454899"><ele>372.0</ele><time>2026-05-01T15:09:46.999Z</time></trkpt><trkpt lat="43.36260584266677" lon="5.93895426213664"><ele>371.8</ele><time>2026-05-01T15:09:47.999Z</time></trkpt><trkpt lat="43.362624099819044" lon="5.938831414812475"><ele>371.6</ele><time>2026-05-01T15:09:49.999Z</time></trkpt><trkpt lat="43.362595732391036" lon="5.938749461225317"><ele>371.40000000000003</ele><time>2026-05-01T15:09:52.999Z</time></trkpt><trkpt lat="43.36250679766251" lon="5.938686864993314"><ele>371.20000000000005</ele><time>2026-05-01T15:09:54.999Z</time></trkpt><trkpt lat="43.36246466268484" lon="5.938592281606116"><ele>371.0</ele><time>2026-05-01T15:09:56.999Z</time></trkpt><trkpt lat="43.36247312492382" lon="5.938428876080086"><ele>371.0</ele><time>2026-05-01T15:09:58.999Z</time></trkpt><trkpt lat="43.36245743501674" lon="5.938333963696845"><ele>371.0</ele><time>2026-05-01T15:09:59.999Z</time></trkpt><trkpt lat="43.3624165390234" lon="5.938251789764445"><ele>371.0</ele><time>2026-05-01T15:10:00.999Z</time></trkpt><trkpt lat="43.362366838064126" lon="5.938119681041917"><ele>371.0</ele><time>2026-05-01T15:10:02.999Z</time></trkpt><trkpt lat="43.36234953124396" lon="5.937981948482341"><ele>371.0</ele><time>2026-05-01T15:10:04.999Z</time></trkpt><trkpt lat="43.36229558487135" lon="5.93788799601421"><ele>371.0</ele><time>2026-05-01T15:10:06.999Z</time></trkpt><trkpt lat="43.362207363042" lon="5.9378186495957666"><ele>371.6666666666667</ele><time>2026-05-01T15:10:08.999Z</time></trkpt><trkpt lat="43.3621483608723" lon="5.937772397485492"><ele>372.33333333333337</ele><time>2026-05-01T15:10:09.999Z</time></trkpt><trkpt lat="43.36209223511894" lon="5.9376841167643555"><ele>373.0</ele><time>2026-05-01T15:10:10.999Z</time></trkpt><trkpt lat="43.362048937859875" lon="5.937589355230204"><ele>373.6666666666667</ele><time>2026-05-01T15:10:11.999Z</time></trkpt><trkpt lat="43.362013011685626" lon="5.937507090424251"><ele>374.3333333333333</ele><time>2026-05-01T15:10:12.999Z</time></trkpt><trkpt lat="43.361961900516455" lon="5.93741006450005"><ele>375.0</ele><time>2026-05-01T15:10:13.999Z</time></trkpt><trkpt lat="43.36189965854022" lon="5.937288401141155"><ele>375.0</ele><time>2026-05-01T15:10:14.999Z</time></trkpt><trkpt lat="43.36186269295424" lon="5.9371779284449016"><ele>375.0</ele><time>2026-05-01T15:10:15.999Z</time></trkpt><trkpt lat="43.36184989143761" lon="5.937081250092768"><ele>375.0</ele><time>2026-05-01T15:10:16.999Z</time></trkpt><trkpt lat="43.36183648112136" lon="5.936969199300668"><ele>375.0</ele><time>2026-05-01T15:10:17.999Z</time></trkpt><trkpt lat="43.361786288656454" lon="5.9368250380273535"><ele>375.0</ele><time>2026-05-01T15:10:19.999Z</time></trkpt><trkpt lat="43.361701715849904" lon="5.936743387756916"><ele>375.0</ele><time>2026-05-01T15:10:21.999Z</time></trkpt><trkpt lat="43.36157182611685" lon="5.936717255836894"><ele>375.0</ele><time>2026-05-01T15:10:23.999Z</time></trkpt><trkpt lat="43.36147482098711" lon="5.93671417357576"><ele>375.0</ele><time>2026-05-01T15:10:24.999Z</time></trkpt><trkpt lat="43.36140647113496" lon="5.936728596214957"><ele>375.0</ele><time>2026-05-01T15:10:25.999Z</time></trkpt><trkpt lat="43.361327411960986" lon="5.936734265249764"><ele>375.0</ele><time>2026-05-01T15:10:27.999Z</time></trkpt><trkpt lat="43.361250574554354" lon="5.936694091491553"><ele>375.0</ele><time>2026-05-01T15:10:30.999Z</time></trkpt><trkpt lat="43.361250947558275" lon="5.936784553855795"><ele>375.0</ele><time>2026-05-01T15:10:48.999Z</time></trkpt><trkpt lat="43.361356185750864" lon="5.936782763481462"><ele>375.0</ele><time>2026-05-01T15:10:50.999Z</time></trkpt><trkpt lat="43.361443620063056" lon="5.93676178160358"><ele>375.0</ele><time>2026-05-01T15:10:51.999Z</time></trkpt><trkpt lat="43.36153370345089" lon="5.936734309365918"><ele>375.0</ele><time>2026-05-01T15:10:52.999Z</time></trkpt><trkpt lat="43.36161913789123" lon="5.936730155746179"><ele>375.0</ele><time>2026-05-01T15:10:53.999Z</time></trkpt><trkpt lat="43.36168487544895" lon="5.936745654191298"><ele>375.0</ele><time>2026-05-01T15:10:54.999Z</time></trkpt><trkpt lat="43.361780647080934" lon="5.93680931629819"><ele>375.0</ele><time>2026-05-01T15:10:56.999Z</time></trkpt><trkpt lat="43.36183761678647" lon="5.936956929346791"><ele>375.0</ele><time>2026-05-01T15:10:58.999Z</time></trkpt><trkpt lat="43.36185850983758" lon="5.937067989365643"><ele>375.0</ele><time>2026-05-01T15:10:59.999Z</time></trkpt><trkpt lat="43.36187957917904" lon="5.937205776944541"><ele>375.0</ele><time>2026-05-01T15:11:00.999Z</time></trkpt><trkpt lat="43.36191725961421" lon="5.937341300925853"><ele>375.0</ele><time>2026-05-01T15:11:01.999Z</time></trkpt><trkpt lat="43.36196626899681" lon="5.937452621468215"><ele>375.0</ele><time>2026-05-01T15:11:02.999Z</time></trkpt><trkpt lat="43.36202269742123" lon="5.9375445059502745"><ele>375.0</ele><time>2026-05-01T15:11:03.999Z</time></trkpt><trkpt lat="43.362080396440334" lon="5.937641359090443"><ele>375.0</ele><time>2026-05-01T15:11:04.999Z</time></trkpt><trkpt lat="43.36213076691415" lon="5.937730684547777"><ele>375.0</ele><time>2026-05-01T15:11:05.999Z</time></trkpt><trkpt lat="43.36218241375659" lon="5.937808639206441"><ele>375.0</ele><time>2026-05-01T15:11:06.999Z</time></trkpt><trkpt lat="43.36224123886307" lon="5.937861558107361"><ele>374.2</ele><time>2026-05-01T15:11:07.999Z</time></trkpt><trkpt lat="43.36230044165231" lon="5.93789166763393"><ele>373.4</ele><time>2026-05-01T15:11:08.999Z</time></trkpt><trkpt lat="43.36241557286768" lon="5.937921576831288"><ele>372.6</ele><time>2026-05-01T15:11:10.999Z</time></trkpt><trkpt lat="43.36250617034122" lon="5.937922521982421"><ele>371.8</ele><time>2026-05-01T15:11:12.999Z</time></trkpt><trkpt lat="43.36255787353661" lon="5.937872982275884"><ele>371.0</ele><time>2026-05-01T15:11:14.999Z</time></trkpt><trkpt lat="43.36263527878328" lon="5.9376680315285055"><ele>371.0</ele><time>2026-05-01T15:11:16.999Z</time></trkpt><trkpt lat="43.362664404027846" lon="5.937578522375338"><ele>371.0</ele><time>2026-05-01T15:11:17.999Z</time></trkpt><trkpt lat="43.36269464349279" lon="5.937478567640789"><ele>371.0</ele><time>2026-05-01T15:11:19.999Z</time></trkpt><trkpt lat="43.36269086166194" lon="5.937388496090323"><ele>371.0</ele><time>2026-05-01T15:11:20.999Z</time></trkpt><trkpt lat="43.362658161549085" lon="5.937263859421115"><ele>371.0</ele><time>2026-05-01T15:11:21.999Z</time></trkpt><trkpt lat="43.36262471760139" lon="5.93711447396041"><ele>371.0</ele><time>2026-05-01T15:11:22.999Z</time></trkpt><trkpt lat="43.36260970588426" lon="5.936972712562037"><ele>371.0</ele><time>2026-05-01T15:11:23.999Z</time></trkpt><trkpt lat="43.362617803549156" lon="5.936854418769247"><ele>371.0</ele><time>2026-05-01T15:11:24.999Z</time></trkpt><trkpt lat="43.362632224709714" lon="5.936735886225424"><ele>371.0</ele><time>2026-05-01T15:11:25.999Z</time></trkpt><trkpt lat="43.36261959140721" lon="5.936633568833178"><ele>371.0</ele><time>2026-05-01T15:11:26.999Z</time></trkpt><trkpt lat="43.362585120396815" lon="5.93655371526446"><ele>371.0</ele><time>2026-05-01T15:11:27.999Z</time></trkpt><trkpt lat="43.36253470215087" lon="5.9364921438067855"><ele>371.0</ele><time>2026-05-01T15:11:28.999Z</time></trkpt><trkpt lat="43.36247514957694" lon="5.936424255471656"><ele>370.83333333333337</ele><time>2026-05-01T15:11:29.999Z</time></trkpt><trkpt lat="43.36241993293996" lon="5.936350008425312"><ele>370.6666666666667</ele><time>2026-05-01T15:11:30.999Z</time></trkpt><trkpt lat="43.362341416687755" lon="5.936262177941617"><ele>370.5</ele><time>2026-05-01T15:11:32.999Z</time></trkpt><trkpt lat="43.362363157883514" lon="5.936174023830975"><ele>370.3333333333333</ele><time>2026-05-01T15:11:35.999Z</time></trkpt><trkpt lat="43.36243676814257" lon="5.93612179057857"><ele>370.16666666666663</ele><time>2026-05-01T15:11:37.999Z</time></trkpt><trkpt lat="43.36248865498139" lon="5.936011506544669"><ele>370.0</ele><time>2026-05-01T15:11:39.999Z</time></trkpt><trkpt lat="43.36251228969439" lon="5.935914013071246"><ele>369.8</ele><time>2026-05-01T15:11:40.999Z</time></trkpt><trkpt lat="43.36252802302529" lon="5.935774716158297"><ele>369.6</ele><time>2026-05-01T15:11:41.999Z</time></trkpt><trkpt lat="43.362534452691236" lon="5.935653681517088"><ele>369.4</ele><time>2026-05-01T15:11:42.999Z</time></trkpt><trkpt lat="43.36254361593821" lon="5.935489677787698"><ele>369.2</ele><time>2026-05-01T15:11:43.999Z</time></trkpt><trkpt lat="43.3625547578745" lon="5.935322261824962"><ele>369.0</ele><time>2026-05-01T15:11:44.999Z</time></trkpt><trkpt lat="43.362578059569046" lon="5.935176179251346"><ele>369.0</ele><time>2026-05-01T15:11:45.999Z</time></trkpt><trkpt lat="43.36259185092426" lon="5.935073502840549"><ele>369.0</ele><time>2026-05-01T15:11:46.999Z</time></trkpt><trkpt lat="43.36260535966238" lon="5.93496422757316"><ele>369.0</ele><time>2026-05-01T15:11:47.999Z</time></trkpt><trkpt lat="43.36262211296404" lon="5.934831660008932"><ele>369.0</ele><time>2026-05-01T15:11:48.999Z</time></trkpt><trkpt lat="43.36265004553324" lon="5.934673719439898"><ele>369.0</ele><time>2026-05-01T15:11:49.999Z</time></trkpt><trkpt lat="43.36267623500006" lon="5.934509204623273"><ele>368.79999999999995</ele><time>2026-05-01T15:11:50.999Z</time></trkpt><trkpt lat="43.3627020555468" lon="5.9343723245985345"><ele>368.59999999999997</ele><time>2026-05-01T15:11:51.999Z</time></trkpt><trkpt lat="43.36271963056267" lon="5.93426321401216"><ele>368.4</ele><time>2026-05-01T15:11:52.999Z</time></trkpt><trkpt lat="43.362729629356515" lon="5.9341596669813095"><ele>368.2</ele><time>2026-05-01T15:11:53.999Z</time></trkpt><trkpt lat="43.36273090745826" lon="5.934015498157471"><ele>368.0</ele><time>2026-05-01T15:11:54.999Z</time></trkpt><trkpt lat="43.362721640605564" lon="5.933863555319197"><ele>367.6666666666667</ele><time>2026-05-01T15:11:55.999Z</time></trkpt><trkpt lat="43.36271969449769" lon="5.9337409051487535"><ele>367.33333333333337</ele><time>2026-05-01T15:11:56.999Z</time></trkpt><trkpt lat="43.36271349225561" lon="5.933628301552688"><ele>367.0</ele><time>2026-05-01T15:11:57.999Z</time></trkpt><trkpt lat="43.362693829709066" lon="5.933523663698959"><ele>366.6666666666667</ele><time>2026-05-01T15:11:58.999Z</time></trkpt><trkpt lat="43.362664629827435" lon="5.933415893946098"><ele>366.3333333333333</ele><time>2026-05-01T15:11:59.999Z</time></trkpt><trkpt lat="43.3626637874007" lon="5.933315253366396"><ele>366.0</ele><time>2026-05-01T15:12:00.999Z</time></trkpt><trkpt lat="43.36267961764999" lon="5.933148844457409"><ele>366.0</ele><time>2026-05-01T15:12:01.999Z</time></trkpt><trkpt lat="43.36269048116059" lon="5.932970662559309"><ele>366.0</ele><time>2026-05-01T15:12:02.999Z</time></trkpt><trkpt lat="43.36269294538786" lon="5.932817728206244"><ele>366.0</ele><time>2026-05-01T15:12:03.999Z</time></trkpt><trkpt lat="43.3626970369069" lon="5.932676620963301"><ele>366.0</ele><time>2026-05-01T15:12:04.999Z</time></trkpt><trkpt lat="43.362706790578564" lon="5.93254105062033"><ele>366.0</ele><time>2026-05-01T15:12:05.999Z</time></trkpt><trkpt lat="43.36273626973214" lon="5.932407761433669"><ele>366.0</ele><time>2026-05-01T15:12:06.999Z</time></trkpt><trkpt lat="43.36277263884345" lon="5.932276311622759"><ele>366.0</ele><time>2026-05-01T15:12:07.999Z</time></trkpt><trkpt lat="43.36279611576553" lon="5.932147204311597"><ele>366.0</ele><time>2026-05-01T15:12:08.999Z</time></trkpt><trkpt lat="43.362821267192274" lon="5.932003285797333"><ele>366.0</ele><time>2026-05-01T15:12:09.999Z</time></trkpt><trkpt lat="43.36284543419103" lon="5.931861923868002"><ele>366.0</ele><time>2026-05-01T15:12:10.999Z</time></trkpt><trkpt lat="43.36288354963353" lon="5.93172973810933"><ele>366.6</ele><time>2026-05-01T15:12:11.999Z</time></trkpt><trkpt lat="43.362921684469484" lon="5.931598308090631"><ele>367.20000000000005</ele><time>2026-05-01T15:12:12.999Z</time></trkpt><trkpt lat="43.36292754630048" lon="5.931469090117221"><ele>367.79999999999995</ele><time>2026-05-01T15:12:13.999Z</time></trkpt><trkpt lat="43.36291380960222" lon="5.931359962280854"><ele>368.4</ele><time>2026-05-01T15:12:14.999Z</time></trkpt><trkpt lat="43.362899136555164" lon="5.931243970576594"><ele>369.0</ele><time>2026-05-01T15:12:15.999Z</time></trkpt><trkpt lat="43.36289075806759" lon="5.931109347333068"><ele>369.0</ele><time>2026-05-01T15:12:16.999Z</time></trkpt><trkpt lat="43.36288979049584" lon="5.930989814508589"><ele>369.0</ele><time>2026-05-01T15:12:17.999Z</time></trkpt><trkpt lat="43.362886973884855" lon="5.930890166361407"><ele>369.0</ele><time>2026-05-01T15:12:18.999Z</time></trkpt><trkpt lat="43.362888801474085" lon="5.930767781640444"><ele>369.0</ele><time>2026-05-01T15:12:19.999Z</time></trkpt><trkpt lat="43.36290391325214" lon="5.9306823419305905"><ele>369.0</ele><time>2026-05-01T15:12:20.999Z</time></trkpt><trkpt lat="43.3629818654891" lon="5.930631960259071"><ele>369.0</ele><time>2026-05-01T15:12:22.999Z</time></trkpt><trkpt lat="43.36307160923721" lon="5.930485772999374"><ele>368.79999999999995</ele><time>2026-05-01T15:12:24.999Z</time></trkpt><trkpt lat="43.363112576701646" lon="5.93036945897259"><ele>368.59999999999997</ele><time>2026-05-01T15:12:25.999Z</time></trkpt><trkpt lat="43.36312742770361" lon="5.930254859306186"><ele>368.4</ele><time>2026-05-01T15:12:26.999Z</time></trkpt><trkpt lat="43.36313738182076" lon="5.930107923054588"><ele>368.2</ele><time>2026-05-01T15:12:28.999Z</time></trkpt><trkpt lat="43.36308791349489" lon="5.930011597501834"><ele>368.0</ele><time>2026-05-01T15:12:31.999Z</time></trkpt><trkpt lat="43.3630641834342" lon="5.929900434818256"><ele>368.0</ele><time>2026-05-01T15:12:33.999Z</time></trkpt><trkpt lat="43.36306625815107" lon="5.9297785396767875"><ele>368.0</ele><time>2026-05-01T15:12:35.999Z</time></trkpt><trkpt lat="43.362978191593" lon="5.92971668757062"><ele>368.0</ele><time>2026-05-01T15:12:37.999Z</time></trkpt><trkpt lat="43.362929181128386" lon="5.929596572166541"><ele>368.0</ele><time>2026-05-01T15:12:39.999Z</time></trkpt><trkpt lat="43.36292912481596" lon="5.92948003298288"><ele>368.0</ele><time>2026-05-01T15:12:40.999Z</time></trkpt><trkpt lat="43.362940406670596" lon="5.929379373980233"><ele>368.0</ele><time>2026-05-01T15:12:41.999Z</time></trkpt><trkpt lat="43.36296413624184" lon="5.929276671509933"><ele>367.79999999999995</ele><time>2026-05-01T15:12:42.999Z</time></trkpt><trkpt lat="43.36299189070338" lon="5.929151974583919"><ele>367.6</ele><time>2026-05-01T15:12:43.999Z</time></trkpt><trkpt lat="43.3630208903232" lon="5.929050684566646"><ele>367.4</ele><time>2026-05-01T15:12:44.999Z</time></trkpt><trkpt lat="43.363045614816336" lon="5.928900376966945"><ele>367.20000000000005</ele><time>2026-05-01T15:12:46.999Z</time></trkpt><trkpt lat="43.363110513610245" lon="5.928813952824387"><ele>367.0</ele><time>2026-05-01T15:12:49.999Z</time></trkpt><trkpt lat="43.36319825656671" lon="5.928715710625233"><ele>367.0</ele><time>2026-05-01T15:12:52Z</time></trkpt><trkpt lat="43.36324479509114" lon="5.928590552128535"><ele>367.0</ele><time>2026-05-01T15:12:53Z</time></trkpt><trkpt lat="43.36328689813754" lon="5.928486216781224"><ele>367.0</ele><time>2026-05-01T15:12:54Z</time></trkpt><trkpt lat="43.36332694938032" lon="5.9283730472683835"><ele>367.0</ele><time>2026-05-01T15:12:55Z</time></trkpt><trkpt lat="43.363346910999475" lon="5.928278270786344"><ele>367.0</ele><time>2026-05-01T15:12:56Z</time></trkpt><trkpt lat="43.363363028552435" lon="5.928178906271455"><ele>367.0</ele><time>2026-05-01T15:12:57Z</time></trkpt><trkpt lat="43.36338247153728" lon="5.928049837898307"><ele>366.8333333333333</ele><time>2026-05-01T15:12:58Z</time></trkpt><trkpt lat="43.36341737405295" lon="5.927917900419205"><ele>366.66666666666663</ele><time>2026-05-01T15:12:59Z</time></trkpt><trkpt lat="43.3634721430096" lon="5.927823518431288"><ele>366.5</ele><time>2026-05-01T15:13:00Z</time></trkpt><trkpt lat="43.363527199007464" lon="5.9277447721443055"><ele>366.3333333333333</ele><time>2026-05-01T15:13:01Z</time></trkpt><trkpt lat="43.363552187043354" lon="5.927660413058029"><ele>366.1666666666667</ele><time>2026-05-01T15:13:02Z</time></trkpt><trkpt lat="43.363539307261206" lon="5.92755043625749"><ele>366.0</ele><time>2026-05-01T15:13:04Z</time></trkpt><trkpt lat="43.363490652767545" lon="5.927469870329247"><ele>365.6</ele><time>2026-05-01T15:13:21Z</time></trkpt><trkpt lat="43.36339353461191" lon="5.927460032100687"><ele>365.20000000000005</ele><time>2026-05-01T15:13:23Z</time></trkpt><trkpt lat="43.363304977892575" lon="5.9274132056759035"><ele>364.79999999999995</ele><time>2026-05-01T15:13:25Z</time></trkpt><trkpt lat="43.3632601271822" lon="5.927349402633098"><ele>364.4</ele><time>2026-05-01T15:13:26Z</time></trkpt><trkpt lat="43.3632312940059" lon="5.927213912804737"><ele>364.0</ele><time>2026-05-01T15:13:28Z</time></trkpt><trkpt lat="43.363249323321696" lon="5.927001008267295"><ele>364.0</ele><time>2026-05-01T15:13:30Z</time></trkpt><trkpt lat="43.363266525076035" lon="5.926848802714841"><ele>364.0</ele><time>2026-05-01T15:13:31Z</time></trkpt><trkpt lat="43.363300406145875" lon="5.926707089372826"><ele>364.0</ele><time>2026-05-01T15:13:32Z</time></trkpt><trkpt lat="43.36333772422912" lon="5.926565203398803"><ele>364.0</ele><time>2026-05-01T15:13:33Z</time></trkpt><trkpt lat="43.36339522490765" lon="5.9264129648759125"><ele>364.25</ele><time>2026-05-01T15:13:34Z</time></trkpt><trkpt lat="43.363463435650225" lon="5.926267985336625"><ele>364.5</ele><time>2026-05-01T15:13:35Z</time></trkpt><trkpt lat="43.36349894424395" lon="5.926121070526523"><ele>364.75</ele><time>2026-05-01T15:13:36Z</time></trkpt><trkpt lat="43.36351415199685" lon="5.925984670812412"><ele>365.0</ele><time>2026-05-01T15:13:37Z</time></trkpt><trkpt lat="43.36351722635706" lon="5.925809532940935"><ele>365.0</ele><time>2026-05-01T15:13:38Z</time></trkpt><trkpt lat="43.36352045741044" lon="5.9256534654331805"><ele>365.0</ele><time>2026-05-01T15:13:39Z</time></trkpt><trkpt lat="43.36352959025414" lon="5.9255192429828725"><ele>365.0</ele><time>2026-05-01T15:13:40Z</time></trkpt><trkpt lat="43.363545748558096" lon="5.925357972247802"><ele>365.0</ele><time>2026-05-01T15:13:41Z</time></trkpt><trkpt lat="43.363557971405356" lon="5.925202413232563"><ele>365.0</ele><time>2026-05-01T15:13:42Z</time></trkpt><trkpt lat="43.363577873707534" lon="5.925038341854362"><ele>364.8</ele><time>2026-05-01T15:13:43Z</time></trkpt><trkpt lat="43.36358619631126" lon="5.924874927643759"><ele>364.6</ele><time>2026-05-01T15:13:44Z</time></trkpt><trkpt lat="43.363592207963734" lon="5.9247265063648324"><ele>364.4</ele><time>2026-05-01T15:13:45Z</time></trkpt><trkpt lat="43.36360410190019" lon="5.924594506050626"><ele>364.2</ele><time>2026-05-01T15:13:46Z</time></trkpt><trkpt lat="43.36362717621022" lon="5.924457214912164"><ele>364.0</ele><time>2026-05-01T15:13:47Z</time></trkpt><trkpt lat="43.363659089775744" lon="5.924279948947172"><ele>364.0</ele><time>2026-05-01T15:13:48Z</time></trkpt><trkpt lat="43.36368965765736" lon="5.924108712517393"><ele>364.0</ele><time>2026-05-01T15:13:49Z</time></trkpt><trkpt lat="43.363721577291" lon="5.923965070144186"><ele>364.0</ele><time>2026-05-01T15:13:50Z</time></trkpt><trkpt lat="43.36374851277091" lon="5.923829921897206"><ele>364.0</ele><time>2026-05-01T15:13:51Z</time></trkpt><trkpt lat="43.36377437551327" lon="5.923687347325242"><ele>364.0</ele><time>2026-05-01T15:13:52Z</time></trkpt><trkpt lat="43.363805474149416" lon="5.923518549361413"><ele>364.0</ele><time>2026-05-01T15:13:53Z</time></trkpt><trkpt lat="43.36383803375403" lon="5.923366664190846"><ele>364.0</ele><time>2026-05-01T15:13:54Z</time></trkpt><trkpt lat="43.36387090815287" lon="5.923239326240242"><ele>364.0</ele><time>2026-05-01T15:13:55Z</time></trkpt><trkpt lat="43.36389843705982" lon="5.923135503547121"><ele>364.0</ele><time>2026-05-01T15:13:56Z</time></trkpt><trkpt lat="43.36393426534222" lon="5.923014159096118"><ele>364.0</ele><time>2026-05-01T15:13:57Z</time></trkpt><trkpt lat="43.3639594336421" lon="5.922874421913965"><ele>364.2</ele><time>2026-05-01T15:13:58Z</time></trkpt><trkpt lat="43.36397047648401" lon="5.922730125801215"><ele>364.4</ele><time>2026-05-01T15:13:59Z</time></trkpt><trkpt lat="43.36397557517344" lon="5.922599632029356"><ele>364.6</ele><time>2026-05-01T15:14:00Z</time></trkpt><trkpt lat="43.363959473321344" lon="5.92248885774067"><ele>364.8</ele><time>2026-05-01T15:14:01Z</time></trkpt><trkpt lat="43.363922513430914" lon="5.922353229273002"><ele>365.0</ele><time>2026-05-01T15:14:02Z</time></trkpt><trkpt lat="43.36388356496283" lon="5.922202617227105"><ele>365.0</ele><time>2026-05-01T15:14:03Z</time></trkpt><trkpt lat="43.36383552315736" lon="5.9220422811424145"><ele>365.0</ele><time>2026-05-01T15:14:04Z</time></trkpt><trkpt lat="43.363799288991295" lon="5.921891665897165"><ele>365.0</ele><time>2026-05-01T15:14:05Z</time></trkpt><trkpt lat="43.363775579454995" lon="5.921758223286457"><ele>365.0</ele><time>2026-05-01T15:14:06Z</time></trkpt><trkpt lat="43.363762826347774" lon="5.921626663161219"><ele>365.0</ele><time>2026-05-01T15:14:07Z</time></trkpt><trkpt lat="43.36376037986891" lon="5.921485785599226"><ele>364.75</ele><time>2026-05-01T15:14:08Z</time></trkpt><trkpt lat="43.36375896751161" lon="5.921294401667165"><ele>364.5</ele><time>2026-05-01T15:14:09Z</time></trkpt><trkpt lat="43.36376409965859" lon="5.921119637820453"><ele>364.25</ele><time>2026-05-01T15:14:10Z</time></trkpt><trkpt lat="43.363766275981284" lon="5.920973535049955"><ele>364.0</ele><time>2026-05-01T15:14:11Z</time></trkpt><trkpt lat="43.363768752925864" lon="5.92083711189907"><ele>364.0</ele><time>2026-05-01T15:14:12Z</time></trkpt><trkpt lat="43.363778164230794" lon="5.920718102226266"><ele>364.0</ele><time>2026-05-01T15:14:13Z</time></trkpt><trkpt lat="43.36379599024152" lon="5.920575246056852"><ele>364.0</ele><time>2026-05-01T15:14:14Z</time></trkpt><trkpt lat="43.36383704371955" lon="5.920444514644407"><ele>364.0</ele><time>2026-05-01T15:14:15Z</time></trkpt><trkpt lat="43.36386833598494" lon="5.920312537425728"><ele>364.0</ele><time>2026-05-01T15:14:16Z</time></trkpt><trkpt lat="43.363881522916515" lon="5.920184973362155"><ele>363.79999999999995</ele><time>2026-05-01T15:14:17Z</time></trkpt><trkpt lat="43.36391360520759" lon="5.920077604010311"><ele>363.59999999999997</ele><time>2026-05-01T15:14:18Z</time></trkpt><trkpt lat="43.3639401237675" lon="5.919973930081332"><ele>363.4</ele><time>2026-05-01T15:14:19Z</time></trkpt><trkpt lat="43.363953741287894" lon="5.919868052232075"><ele>363.2</ele><time>2026-05-01T15:14:20Z</time></trkpt><trkpt lat="43.363948217076924" lon="5.919734085251531"><ele>363.0</ele><time>2026-05-01T15:14:21Z</time></trkpt><trkpt lat="43.36396166820204" lon="5.9195746363217845"><ele>362.25</ele><time>2026-05-01T15:14:22Z</time></trkpt><trkpt lat="43.36396945612341" lon="5.919420570687769"><ele>361.5</ele><time>2026-05-01T15:14:23Z</time></trkpt><trkpt lat="43.3639983568036" lon="5.91927646675093"><ele>360.75</ele><time>2026-05-01T15:14:24Z</time></trkpt><trkpt lat="43.36400134236525" lon="5.919115522348492"><ele>360.0</ele><time>2026-05-01T15:14:25Z</time></trkpt><trkpt lat="43.36403210215205" lon="5.918967708452881"><ele>359.5</ele><time>2026-05-01T15:14:26Z</time></trkpt><trkpt lat="43.364052362371496" lon="5.918820317072499"><ele>359.0</ele><time>2026-05-01T15:14:27Z</time></trkpt><trkpt lat="43.364079078865615" lon="5.918649712155138"><ele>358.5</ele><time>2026-05-01T15:14:28Z</time></trkpt><trkpt lat="43.36409793707717" lon="5.9184699995066214"><ele>358.0</ele><time>2026-05-01T15:14:29Z</time></trkpt><trkpt lat="43.36415380530102" lon="5.918306981440957"><ele>359.0</ele><time>2026-05-01T15:14:30Z</time></trkpt><trkpt lat="43.364169877319" lon="5.918166178825456"><ele>360.0</ele><time>2026-05-01T15:14:31Z</time></trkpt><trkpt lat="43.36419675936147" lon="5.918015078365121"><ele>361.0</ele><time>2026-05-01T15:14:32Z</time></trkpt><trkpt lat="43.364204137255726" lon="5.917857449962592"><ele>362.0</ele><time>2026-05-01T15:14:33Z</time></trkpt><trkpt lat="43.36427498254968" lon="5.917716230129365"><ele>362.0</ele><time>2026-05-01T15:14:34Z</time></trkpt><trkpt lat="43.36427891646905" lon="5.917537750845673"><ele>362.0</ele><time>2026-05-01T15:14:35Z</time></trkpt><trkpt lat="43.36429934879054" lon="5.917391681340279"><ele>362.0</ele><time>2026-05-01T15:14:36Z</time></trkpt><trkpt lat="43.36432328814788" lon="5.917234245217528"><ele>362.0</ele><time>2026-05-01T15:14:37Z</time></trkpt><trkpt lat="43.3643523697473" lon="5.917091983861529"><ele>362.0</ele><time>2026-05-01T15:14:38Z</time></trkpt><trkpt lat="43.36438684865866" lon="5.916955471238143"><ele>362.0</ele><time>2026-05-01T15:14:39Z</time></trkpt><trkpt lat="43.36441476774174" lon="5.9168240676311585"><ele>362.0</ele><time>2026-05-01T15:14:40Z</time></trkpt><trkpt lat="43.36443083468699" lon="5.91668243218668"><ele>362.0</ele><time>2026-05-01T15:14:41Z</time></trkpt><trkpt lat="43.3644623540492" lon="5.916553472105859"><ele>362.0</ele><time>2026-05-01T15:14:42Z</time></trkpt><trkpt lat="43.36450054895046" lon="5.916402712090959"><ele>361.8</ele><time>2026-05-01T15:14:43Z</time></trkpt><trkpt lat="43.3645330803267" lon="5.916223444887772"><ele>361.6</ele><time>2026-05-01T15:14:44Z</time></trkpt><trkpt lat="43.36455783903233" lon="5.916072978911604"><ele>361.40000000000003</ele><time>2026-05-01T15:14:45Z</time></trkpt><trkpt lat="43.36458225058497" lon="5.915963731885294"><ele>361.20000000000005</ele><time>2026-05-01T15:14:46Z</time></trkpt><trkpt lat="43.36459608457252" lon="5.915837292633241"><ele>361.0</ele><time>2026-05-01T15:14:47Z</time></trkpt><trkpt lat="43.36463331600078" lon="5.915710898825246"><ele>361.20000000000005</ele><time>2026-05-01T15:14:48Z</time></trkpt><trkpt lat="43.36473156926849" lon="5.915615935035601"><ele>361.40000000000003</ele><time>2026-05-01T15:14:49Z</time></trkpt><trkpt lat="43.36478354474303" lon="5.915469235127967"><ele>361.6</ele><time>2026-05-01T15:14:50Z</time></trkpt><trkpt lat="43.36482109870814" lon="5.915326121173895"><ele>361.8</ele><time>2026-05-01T15:14:51Z</time></trkpt><trkpt lat="43.36483840347423" lon="5.915208754454729"><ele>362.0</ele><time>2026-05-01T15:14:52Z</time></trkpt><trkpt lat="43.36486284576506" lon="5.915108867074456"><ele>362.40000000000003</ele><time>2026-05-01T15:14:53Z</time></trkpt><trkpt lat="43.36487982896668" lon="5.914997539249382"><ele>362.8</ele><time>2026-05-01T15:14:54Z</time></trkpt><trkpt lat="43.36487458695465" lon="5.914899903556796"><ele>363.2</ele><time>2026-05-01T15:14:55Z</time></trkpt><trkpt lat="43.364857820698255" lon="5.914802449069033"><ele>363.6</ele><time>2026-05-01T15:14:57Z</time></trkpt><trkpt lat="43.364855738527915" lon="5.9147158279761145"><ele>364.0</ele><time>2026-05-01T15:15:00Z</time></trkpt><trkpt lat="43.36472363139787" lon="5.914496374133883"><ele>364.0</ele><time>2026-05-01T15:15:02Z</time></trkpt><trkpt lat="43.36473981292638" lon="5.91440784778424"><ele>364.0</ele><time>2026-05-01T15:15:03Z</time></trkpt><trkpt lat="43.36475958160388" lon="5.9143137372886905"><ele>364.0</ele><time>2026-05-01T15:15:05Z</time></trkpt><trkpt lat="43.364778698710346" lon="5.914222728601197"><ele>364.0</ele><time>2026-05-01T15:15:08Z</time></trkpt><trkpt lat="43.36479867807715" lon="5.914127615075983"><ele>364.0</ele><time>2026-05-01T15:15:12Z</time></trkpt><trkpt lat="43.36513538464555" lon="5.914285483318238"><ele>364.2</ele><time>2026-05-01T15:15:41Z</time></trkpt><trkpt lat="43.36521890596607" lon="5.9141753604691205"><ele>364.4</ele><time>2026-05-01T15:16:06Z</time></trkpt><trkpt lat="43.365309602295525" lon="5.914152928953522"><ele>364.6</ele><time>2026-05-01T15:16:08Z</time></trkpt><trkpt lat="43.365402289421404" lon="5.9141986216361495"><ele>364.8</ele><time>2026-05-01T15:16:10Z</time></trkpt><trkpt lat="43.36549742140682" lon="5.914232007257061"><ele>365.0</ele><time>2026-05-01T15:16:12Z</time></trkpt><trkpt lat="43.36556628991807" lon="5.9142787224801445"><ele>365.6666666666667</ele><time>2026-05-01T15:16:14Z</time></trkpt><trkpt lat="43.365632812245835" lon="5.9143429085040085"><ele>366.33333333333337</ele><time>2026-05-01T15:16:16Z</time></trkpt><trkpt lat="43.36576681612834" lon="5.914350118024361"><ele>367.0</ele><time>2026-05-01T15:16:18Z</time></trkpt><trkpt lat="43.365840755224696" lon="5.914370808424647"><ele>367.6666666666667</ele><time>2026-05-01T15:16:20Z</time></trkpt><trkpt lat="43.365886640304964" lon="5.914456811549908"><ele>368.3333333333333</ele><time>2026-05-01T15:16:25Z</time></trkpt><trkpt lat="43.36591695437004" lon="5.91454926377307"><ele>369.0</ele><time>2026-05-01T15:16:26Z</time></trkpt><trkpt lat="43.36601544655902" lon="5.914676367354916"><ele>369.0</ele><time>2026-05-01T15:16:28Z</time></trkpt><trkpt lat="43.366102104590134" lon="5.914744263679015"><ele>369.0</ele><time>2026-05-01T15:16:29Z</time></trkpt><trkpt lat="43.3661938415859" lon="5.914821305306814"><ele>369.0</ele><time>2026-05-01T15:16:30Z</time></trkpt><trkpt lat="43.36627468247994" lon="5.914869378479252"><ele>369.0</ele><time>2026-05-01T15:16:31Z</time></trkpt><trkpt lat="43.36634682416559" lon="5.9149118755372765"><ele>369.0</ele><time>2026-05-01T15:16:32Z</time></trkpt><trkpt lat="43.36640517396917" lon="5.914950043038823"><ele>369.0</ele><time>2026-05-01T15:16:33Z</time></trkpt><trkpt lat="43.36646733297382" lon="5.9149680696011835"><ele>369.79999999999995</ele><time>2026-05-01T15:16:34Z</time></trkpt><trkpt lat="43.36657567543243" lon="5.915018171734267"><ele>370.59999999999997</ele><time>2026-05-01T15:16:36Z</time></trkpt><trkpt lat="43.366653533902976" lon="5.915093697224039"><ele>371.4</ele><time>2026-05-01T15:16:38Z</time></trkpt><trkpt lat="43.366754905299075" lon="5.915130872581803"><ele>372.2</ele><time>2026-05-01T15:16:40Z</time></trkpt><trkpt lat="43.3668353554109" lon="5.915148429000376"><ele>373.0</ele><time>2026-05-01T15:16:41Z</time></trkpt><trkpt lat="43.36694833747936" lon="5.915133693065592"><ele>373.0</ele><time>2026-05-01T15:16:42Z</time></trkpt><trkpt lat="43.36705718333959" lon="5.915100716351625"><ele>373.0</ele><time>2026-05-01T15:16:43Z</time></trkpt><trkpt lat="43.367148230772834" lon="5.915040290984884"><ele>373.0</ele><time>2026-05-01T15:16:44Z</time></trkpt><trkpt lat="43.367214078988034" lon="5.9149883169216135"><ele>373.0</ele><time>2026-05-01T15:16:45Z</time></trkpt><trkpt lat="43.36727831739912" lon="5.9149234596016855"><ele>373.0</ele><time>2026-05-01T15:16:46Z</time></trkpt><trkpt lat="43.36736129549388" lon="5.914855303815929"><ele>374.3333333333333</ele><time>2026-05-01T15:16:47Z</time></trkpt><trkpt lat="43.36743668873337" lon="5.914820207519917"><ele>375.66666666666663</ele><time>2026-05-01T15:16:48Z</time></trkpt><trkpt lat="43.367517521021796" lon="5.914825223463448"><ele>377.0</ele><time>2026-05-01T15:16:49Z</time></trkpt><trkpt lat="43.36760036868398" lon="5.914853174279099"><ele>378.3333333333333</ele><time>2026-05-01T15:16:50Z</time></trkpt><trkpt lat="43.36766965719245" lon="5.914910856076667"><ele>379.6666666666667</ele><time>2026-05-01T15:16:51Z</time></trkpt><trkpt lat="43.36773511358618" lon="5.914998931957344"><ele>381.0</ele><time>2026-05-01T15:16:52Z</time></trkpt><trkpt lat="43.36778461858876" lon="5.915117741516909"><ele>381.20000000000005</ele><time>2026-05-01T15:16:53Z</time></trkpt><trkpt lat="43.36784912346144" lon="5.9152720402934476"><ele>381.40000000000003</ele><time>2026-05-01T15:16:54Z</time></trkpt><trkpt lat="43.36790341247187" lon="5.915387385402831"><ele>381.6</ele><time>2026-05-01T15:16:55Z</time></trkpt><trkpt lat="43.36798070397876" lon="5.915481692606562"><ele>381.8</ele><time>2026-05-01T15:16:56Z</time></trkpt><trkpt lat="43.368068916864125" lon="5.915535481619439"><ele>382.0</ele><time>2026-05-01T15:16:57Z</time></trkpt><trkpt lat="43.36815361761718" lon="5.915568414236849"><ele>383.20000000000005</ele><time>2026-05-01T15:16:58Z</time></trkpt><trkpt lat="43.368249793440576" lon="5.915584157249632"><ele>384.4</ele><time>2026-05-01T15:16:59Z</time></trkpt><trkpt lat="43.368368898462755" lon="5.915621340220065"><ele>385.6</ele><time>2026-05-01T15:17:00Z</time></trkpt><trkpt lat="43.36848889859421" lon="5.915673557654567"><ele>386.79999999999995</ele><time>2026-05-01T15:17:01Z</time></trkpt><trkpt lat="43.36857896983336" lon="5.915700293278513"><ele>388.0</ele><time>2026-05-01T15:17:02Z</time></trkpt><trkpt lat="43.36866252627866" lon="5.915714624186609"><ele>388.0</ele><time>2026-05-01T15:17:03Z</time></trkpt><trkpt lat="43.368731452939805" lon="5.915710380342037"><ele>388.0</ele><time>2026-05-01T15:17:04Z</time></trkpt><trkpt lat="43.3688035201411" lon="5.915652282641503"><ele>388.0</ele><time>2026-05-01T15:17:06Z</time></trkpt><trkpt lat="43.368796322148796" lon="5.915521443856414"><ele>388.0</ele><time>2026-05-01T15:17:08Z</time></trkpt><trkpt lat="43.3687530152834" lon="5.915387888142046"><ele>388.0</ele><time>2026-05-01T15:17:10Z</time></trkpt><trkpt lat="43.368742011530095" lon="5.915255979930043"><ele>388.0</ele><time>2026-05-01T15:17:12Z</time></trkpt><trkpt lat="43.36876690474523" lon="5.915106014195399"><ele>388.0</ele><time>2026-05-01T15:17:14Z</time></trkpt><trkpt lat="43.36879885964079" lon="5.914976793406952"><ele>388.0</ele><time>2026-05-01T15:17:15Z</time></trkpt><trkpt lat="43.36883665057731" lon="5.91480162285527"><ele>388.0</ele><time>2026-05-01T15:17:16Z</time></trkpt><trkpt lat="43.36886978419606" lon="5.91460638675229"><ele>388.4</ele><time>2026-05-01T15:17:17Z</time></trkpt><trkpt lat="43.36888695015107" lon="5.914451506398032"><ele>388.79999999999995</ele><time>2026-05-01T15:17:18Z</time></trkpt><trkpt lat="43.368902665419405" lon="5.91430862030675"><ele>389.2</ele><time>2026-05-01T15:17:19Z</time></trkpt><trkpt lat="43.36891999914403" lon="5.914174877147886"><ele>389.6</ele><time>2026-05-01T15:17:20Z</time></trkpt><trkpt lat="43.3689469892521" lon="5.9140482468766375"><ele>390.0</ele><time>2026-05-01T15:17:21Z</time></trkpt><trkpt lat="43.368970402693584" lon="5.913944445168413"><ele>390.3333333333333</ele><time>2026-05-01T15:17:22Z</time></trkpt><trkpt lat="43.36898257623099" lon="5.913812819197448"><ele>390.66666666666663</ele><time>2026-05-01T15:17:24Z</time></trkpt><trkpt lat="43.368926149841656" lon="5.913716557119409"><ele>391.0</ele><time>2026-05-01T15:17:26Z</time></trkpt><trkpt lat="43.368872059238726" lon="5.9136521134234075"><ele>391.3333333333333</ele><time>2026-05-01T15:17:27Z</time></trkpt><trkpt lat="43.368841620112256" lon="5.91355932780627"><ele>391.66666666666663</ele><time>2026-05-01T15:17:28Z</time></trkpt><trkpt lat="43.36881273648993" lon="5.9134605736929515"><ele>392.0</ele><time>2026-05-01T15:17:29Z</time></trkpt><trkpt lat="43.36878332746812" lon="5.913376199712229"><ele>390.85714285714283</ele><time>2026-05-01T15:17:30Z</time></trkpt><trkpt lat="43.36875780951564" lon="5.913296065349148"><ele>389.7142857142857</ele><time>2026-05-01T15:17:31Z</time></trkpt><trkpt lat="43.36867693085061" lon="5.9132664209348444"><ele>388.57142857142856</ele><time>2026-05-01T15:17:36Z</time></trkpt><trkpt lat="43.36861132664443" lon="5.913287685178844"><ele>387.42857142857144</ele><time>2026-05-01T15:17:38Z</time></trkpt><trkpt lat="43.368549012359324" lon="5.913234395308597"><ele>386.2857142857143</ele><time>2026-05-01T15:17:40Z</time></trkpt><trkpt lat="43.36849475410519" lon="5.9131627110375815"><ele>385.1428571428571</ele><time>2026-05-01T15:17:43Z</time></trkpt><trkpt lat="43.36850350824897" lon="5.913046941221474"><ele>384.0</ele><time>2026-05-01T15:17:45Z</time></trkpt><trkpt lat="43.36851002598361" lon="5.912921491575039"><ele>384.0</ele><time>2026-05-01T15:17:47Z</time></trkpt><trkpt lat="43.36851769626822" lon="5.912834645730335"><ele>384.0</ele><time>2026-05-01T15:17:48Z</time></trkpt><trkpt lat="43.368557437380474" lon="5.9127022128856925"><ele>384.0</ele><time>2026-05-01T15:17:50Z</time></trkpt><trkpt lat="43.3685572559861" lon="5.912590880059666"><ele>384.0</ele><time>2026-05-01T15:17:52Z</time></trkpt><trkpt lat="43.36848266597808" lon="5.9125053857962016"><ele>384.0</ele><time>2026-05-01T15:17:54Z</time></trkpt><trkpt lat="43.368490015148026" lon="5.912357765429179"><ele>384.0</ele><time>2026-05-01T15:17:58Z</time></trkpt><trkpt lat="43.3684628647373" lon="5.9122463465274055"><ele>384.0</ele><time>2026-05-01T15:18:00Z</time></trkpt><trkpt lat="43.36851522900244" lon="5.912143301451614"><ele>384.0</ele><time>2026-05-01T15:18:02Z</time></trkpt><trkpt lat="43.36857244129839" lon="5.912039688876229"><ele>384.0</ele><time>2026-05-01T15:18:04Z</time></trkpt><trkpt lat="43.36853396340726" lon="5.911951259232644"><ele>384.0</ele><time>2026-05-01T15:18:06Z</time></trkpt><trkpt lat="43.368468808056974" lon="5.911865475466861"><ele>384.0</ele><time>2026-05-01T15:18:08Z</time></trkpt><trkpt lat="43.36850453451411" lon="5.911728078730646"><ele>384.0</ele><time>2026-05-01T15:18:10Z</time></trkpt><trkpt lat="43.368532983699794" lon="5.911628303262481"><ele>384.0</ele><time>2026-05-01T15:18:11Z</time></trkpt><trkpt lat="43.36855822994217" lon="5.91151595785917"><ele>384.0</ele><time>2026-05-01T15:18:13Z</time></trkpt><trkpt lat="43.36862062292704" lon="5.911448018438741"><ele>384.0</ele><time>2026-05-01T15:18:15Z</time></trkpt><trkpt lat="43.36859864053883" lon="5.911364182191205"><ele>384.0</ele><time>2026-05-01T15:18:17Z</time></trkpt><trkpt lat="43.36865429242144" lon="5.911276270278496"><ele>384.0</ele><time>2026-05-01T15:18:21Z</time></trkpt><trkpt lat="43.3687187207166" lon="5.9112488608221625"><ele>384.0</ele><time>2026-05-01T15:18:23Z</time></trkpt><trkpt lat="43.36869345369358" lon="5.911118640707118"><ele>384.0</ele><time>2026-05-01T15:18:26Z</time></trkpt><trkpt lat="43.36872212857293" lon="5.910982492448791"><ele>384.0</ele><time>2026-05-01T15:18:28Z</time></trkpt><trkpt lat="43.368751696015416" lon="5.910899371499584"><ele>384.0</ele><time>2026-05-01T15:18:30Z</time></trkpt><trkpt lat="43.36876573349465" lon="5.910803459725815"><ele>384.0</ele><time>2026-05-01T15:18:32Z</time></trkpt><trkpt lat="43.3688262881574" lon="5.910699458576498"><ele>384.0</ele><time>2026-05-01T15:18:34Z</time></trkpt><trkpt lat="43.36887982324834" lon="5.910626568773454"><ele>383.4</ele><time>2026-05-01T15:18:39Z</time></trkpt><trkpt lat="43.36888801284086" lon="5.910487768436663"><ele>382.79999999999995</ele><time>2026-05-01T15:18:41Z</time></trkpt><trkpt lat="43.36894147248613" lon="5.910367996444554"><ele>382.20000000000005</ele><time>2026-05-01T15:18:43Z</time></trkpt><trkpt lat="43.36899120763377" lon="5.9102758706471255"><ele>381.6</ele><time>2026-05-01T15:18:45Z</time></trkpt><trkpt lat="43.368978757893686" lon="5.910133142031444"><ele>381.0</ele><time>2026-05-01T15:18:47Z</time></trkpt><trkpt lat="43.36897401002334" lon="5.910040271001726"><ele>381.0</ele><time>2026-05-01T15:18:48Z</time></trkpt><trkpt lat="43.368984708408185" lon="5.909901017350948"><ele>381.0</ele><time>2026-05-01T15:18:50Z</time></trkpt><trkpt lat="43.368995675176514" lon="5.9097764824591446"><ele>381.0</ele><time>2026-05-01T15:18:52Z</time></trkpt><trkpt lat="43.36901245833031" lon="5.9096287963107885"><ele>381.0</ele><time>2026-05-01T15:18:55Z</time></trkpt><trkpt lat="43.36902125164452" lon="5.909541489779779"><ele>381.0</ele><time>2026-05-01T15:18:56Z</time></trkpt><trkpt lat="43.36904531382059" lon="5.909422292548275"><ele>381.0</ele><time>2026-05-01T15:18:58Z</time></trkpt><trkpt lat="43.36908060383263" lon="5.909312352224287"><ele>381.0</ele><time>2026-05-01T15:19:00Z</time></trkpt><trkpt lat="43.36911112425705" lon="5.909191701402035"><ele>381.0</ele><time>2026-05-01T15:19:02Z</time></trkpt><trkpt lat="43.36911050529094" lon="5.909096806024933"><ele>381.0</ele><time>2026-05-01T15:19:03Z</time></trkpt><trkpt lat="43.369106092948876" lon="5.908975750604398"><ele>381.0</ele><time>2026-05-01T15:19:04Z</time></trkpt><trkpt lat="43.369112135208105" lon="5.908883236134385"><ele>381.0</ele><time>2026-05-01T15:19:05Z</time></trkpt><trkpt lat="43.369163214547754" lon="5.908763849875473"><ele>382.20000000000005</ele><time>2026-05-01T15:19:07Z</time></trkpt><trkpt lat="43.369206157877876" lon="5.9085907601452545"><ele>383.40000000000003</ele><time>2026-05-01T15:19:09Z</time></trkpt><trkpt lat="43.3692288795935" lon="5.90850766011517"><ele>384.6</ele><time>2026-05-01T15:19:10Z</time></trkpt><trkpt lat="43.369254596079934" lon="5.908424791534769"><ele>385.8</ele><time>2026-05-01T15:19:11Z</time></trkpt><trkpt lat="43.369302748329126" lon="5.908275100859735"><ele>387.0</ele><time>2026-05-01T15:19:13Z</time></trkpt><trkpt lat="43.36935193626184" lon="5.908176754327017"><ele>387.8</ele><time>2026-05-01T15:19:15Z</time></trkpt><trkpt lat="43.36940964219904" lon="5.908063663395501"><ele>388.6</ele><time>2026-05-01T15:19:17Z</time></trkpt><trkpt lat="43.369528463239895" lon="5.9079912660448475"><ele>389.40000000000003</ele><time>2026-05-01T15:19:19Z</time></trkpt><trkpt lat="43.36962014449815" lon="5.907959845120081"><ele>390.20000000000005</ele><time>2026-05-01T15:19:20Z</time></trkpt><trkpt lat="43.3697051496129" lon="5.907934280928532"><ele>391.0</ele><time>2026-05-01T15:19:21Z</time></trkpt><trkpt lat="43.36979041506769" lon="5.90790213172225"><ele>391.6</ele><time>2026-05-01T15:19:22Z</time></trkpt><trkpt lat="43.36987496724913" lon="5.907878380690707"><ele>392.20000000000005</ele><time>2026-05-01T15:19:23Z</time></trkpt><trkpt lat="43.369960242071926" lon="5.9078534866290076"><ele>392.79999999999995</ele><time>2026-05-01T15:19:24Z</time></trkpt><trkpt lat="43.37005260214859" lon="5.907809909996808"><ele>393.4</ele><time>2026-05-01T15:19:25Z</time></trkpt><trkpt lat="43.37016061071328" lon="5.907746696234195"><ele>394.0</ele><time>2026-05-01T15:19:26Z</time></trkpt><trkpt lat="43.37025302885906" lon="5.907678722209432"><ele>394.0</ele><time>2026-05-01T15:19:27Z</time></trkpt><trkpt lat="43.37033333145995" lon="5.907601919158645"><ele>394.0</ele><time>2026-05-01T15:19:28Z</time></trkpt><trkpt lat="43.37042836550523" lon="5.907501998630316"><ele>394.0</ele><time>2026-05-01T15:19:29Z</time></trkpt><trkpt lat="43.37053108590019" lon="5.907395812948037"><ele>394.0</ele><time>2026-05-01T15:19:30Z</time></trkpt><trkpt lat="43.3706246261649" lon="5.907298860523804"><ele>394.75</ele><time>2026-05-01T15:19:31Z</time></trkpt><trkpt lat="43.370711390088715" lon="5.907204447564727"><ele>395.5</ele><time>2026-05-01T15:19:32Z</time></trkpt><trkpt lat="43.37079016658882" lon="5.907117157324457"><ele>396.25</ele><time>2026-05-01T15:19:33Z</time></trkpt><trkpt lat="43.37086698638365" lon="5.9070416150490646"><ele>397.0</ele><time>2026-05-01T15:19:34Z</time></trkpt><trkpt lat="43.371020618135994" lon="5.906887689545104"><ele>397.0</ele><time>2026-05-01T15:19:36Z</time></trkpt><trkpt lat="43.37109326145087" lon="5.906816746631074"><ele>397.0</ele><time>2026-05-01T15:19:37Z</time></trkpt><trkpt lat="43.3711681028299" lon="5.906742473133843"><ele>397.0</ele><time>2026-05-01T15:19:38Z</time></trkpt><trkpt lat="43.371250573848734" lon="5.9066516202601305"><ele>397.0</ele><time>2026-05-01T15:19:39Z</time></trkpt><trkpt lat="43.371325353328146" lon="5.906559683083945"><ele>397.0</ele><time>2026-05-01T15:19:40Z</time></trkpt><trkpt lat="43.37139403580482" lon="5.906466249444423"><ele>397.0</ele><time>2026-05-01T15:19:41Z</time></trkpt><trkpt lat="43.37147285367681" lon="5.906353944953256"><ele>397.0</ele><time>2026-05-01T15:19:42Z</time></trkpt><trkpt lat="43.37157310108186" lon="5.906212954255896"><ele>397.0</ele><time>2026-05-01T15:19:43Z</time></trkpt><trkpt lat="43.37166374195184" lon="5.906073443928407"><ele>397.0</ele><time>2026-05-01T15:19:44Z</time></trkpt><trkpt lat="43.371757115528595" lon="5.905919857109415"><ele>397.0</ele><time>2026-05-01T15:19:45Z</time></trkpt><trkpt lat="43.37185552620365" lon="5.905748394126865"><ele>397.0</ele><time>2026-05-01T15:19:46Z</time></trkpt><trkpt lat="43.37196670181719" lon="5.9055774252341795"><ele>397.0</ele><time>2026-05-01T15:19:47Z</time></trkpt><trkpt lat="43.37207695162624" lon="5.905420334753639"><ele>397.0</ele><time>2026-05-01T15:19:48Z</time></trkpt><trkpt lat="43.37217422092069" lon="5.905277184662343"><ele>397.0</ele><time>2026-05-01T15:19:49Z</time></trkpt><trkpt lat="43.372258121064945" lon="5.905159063356038"><ele>397.0</ele><time>2026-05-01T15:19:50Z</time></trkpt><trkpt lat="43.37232130210471" lon="5.90505003436331"><ele>397.0</ele><time>2026-05-01T15:19:51Z</time></trkpt><trkpt lat="43.372388847194756" lon="5.904950688087969"><ele>398.8</ele><time>2026-05-01T15:19:52Z</time></trkpt><trkpt lat="43.37246970899622" lon="5.90484766865937"><ele>400.6</ele><time>2026-05-01T15:19:53Z</time></trkpt><trkpt lat="43.37255523545228" lon="5.90476035582655"><ele>402.40000000000003</ele><time>2026-05-01T15:19:54Z</time></trkpt><trkpt lat="43.37262362638465" lon="5.904670099963808"><ele>404.20000000000005</ele><time>2026-05-01T15:19:55Z</time></trkpt><trkpt lat="43.37268048208189" lon="5.904580183851146"><ele>406.0</ele><time>2026-05-01T15:19:56Z</time></trkpt><trkpt lat="43.37274016879245" lon="5.904480509482091"><ele>406.00000000000006</ele><time>2026-05-01T15:19:57Z</time></trkpt><trkpt lat="43.372796129464874" lon="5.9043832105630285"><ele>406.0</ele><time>2026-05-01T15:19:58Z</time></trkpt><trkpt lat="43.37284878454291" lon="5.9042738274274935"><ele>406.0</ele><time>2026-05-01T15:19:59Z</time></trkpt><trkpt lat="43.372890806844154" lon="5.904173050969417"><ele>406.0</ele><time>2026-05-01T15:20:00Z</time></trkpt><trkpt lat="43.37292136608315" lon="5.90409177346188"><ele>406.00000000000006</ele><time>2026-05-01T15:20:01Z</time></trkpt><trkpt lat="43.37296567342833" lon="5.904003414601576"><ele>406.0</ele><time>2026-05-01T15:20:02Z</time></trkpt><trkpt lat="43.37303753955691" lon="5.903863510834028"><ele>409.5</ele><time>2026-05-01T15:20:04Z</time></trkpt><trkpt lat="43.37345845145147" lon="5.904053810631996"><ele>413.0</ele><time>2026-05-01T15:20:05Z</time></trkpt><trkpt lat="43.37351282665061" lon="5.904008253344"><ele>413.0</ele><time>2026-05-01T15:20:06Z</time></trkpt><trkpt lat="43.373578180610146" lon="5.903957623640549"><ele>413.0</ele><time>2026-05-01T15:20:07Z</time></trkpt><trkpt lat="43.37366595356001" lon="5.903837584741747"><ele>413.0</ele><time>2026-05-01T15:20:09Z</time></trkpt><trkpt lat="43.37370148143162" lon="5.903740020226264"><ele>413.0</ele><time>2026-05-01T15:20:10Z</time></trkpt><trkpt lat="43.37373219183001" lon="5.903627150042953"><ele>413.0</ele><time>2026-05-01T15:20:11Z</time></trkpt><trkpt lat="43.373773103149354" lon="5.903522700299906"><ele>413.0</ele><time>2026-05-01T15:20:12Z</time></trkpt><trkpt lat="43.37382549786966" lon="5.9034432630850056"><ele>413.0</ele><time>2026-05-01T15:20:13Z</time></trkpt><trkpt lat="43.373852134282764" lon="5.903315081546039"><ele>413.0</ele><time>2026-05-01T15:20:15Z</time></trkpt><trkpt lat="43.373859740373" lon="5.903158836589146"><ele>413.0</ele><time>2026-05-01T15:20:17Z</time></trkpt><trkpt lat="43.373864708578054" lon="5.903050864755782"><ele>413.0</ele><time>2026-05-01T15:20:18Z</time></trkpt><trkpt lat="43.373866951465914" lon="5.902922911602755"><ele>414.8333333333333</ele><time>2026-05-01T15:20:19Z</time></trkpt><trkpt lat="43.37388294429695" lon="5.902791475184361"><ele>416.66666666666663</ele><time>2026-05-01T15:20:20Z</time></trkpt><trkpt lat="43.37391884820744" lon="5.902690098062859"><ele>418.5</ele><time>2026-05-01T15:20:21Z</time></trkpt><trkpt lat="43.37396962138854" lon="5.902596273650538"><ele>420.33333333333337</ele><time>2026-05-01T15:20:22Z</time></trkpt><trkpt lat="43.374025670049065" lon="5.902524105935217"><ele>422.1666666666667</ele><time>2026-05-01T15:20:23Z</time></trkpt><trkpt lat="43.37409147712341" lon="5.902409853784572"><ele>424.0</ele><time>2026-05-01T15:20:24Z</time></trkpt><trkpt lat="43.37414300368211" lon="5.902296000312701"><ele>424.6</ele><time>2026-05-01T15:20:25Z</time></trkpt><trkpt lat="43.37419552469284" lon="5.902184682884825"><ele>425.2</ele><time>2026-05-01T15:20:26Z</time></trkpt><trkpt lat="43.37425186740577" lon="5.902090105776846"><ele>425.80000000000007</ele><time>2026-05-01T15:20:27Z</time></trkpt><trkpt lat="43.37430045805101" lon="5.902023478188765"><ele>426.40000000000003</ele><time>2026-05-01T15:20:28Z</time></trkpt><trkpt lat="43.37436359586797" lon="5.901956363407866"><ele>427.0</ele><time>2026-05-01T15:20:29Z</time></trkpt><trkpt lat="43.37444385031034" lon="5.901775393879331"><ele>427.40000000000003</ele><time>2026-05-01T15:20:31Z</time></trkpt><trkpt lat="43.37449350933926" lon="5.9016577534297125"><ele>427.80000000000007</ele><time>2026-05-01T15:20:32Z</time></trkpt><trkpt lat="43.37452226709344" lon="5.901539989078681"><ele>428.2</ele><time>2026-05-01T15:20:33Z</time></trkpt><trkpt lat="43.37454653793744" lon="5.9014237931749545"><ele>428.6</ele><time>2026-05-01T15:20:34Z</time></trkpt><trkpt lat="43.37458124736402" lon="5.901298478806033"><ele>429.0</ele><time>2026-05-01T15:20:35Z</time></trkpt><trkpt lat="43.37461655628147" lon="5.90119951984888"><ele>429.0</ele><time>2026-05-01T15:20:36Z</time></trkpt><trkpt lat="43.3746650108585" lon="5.901104362234435"><ele>429.0</ele><time>2026-05-01T15:20:37Z</time></trkpt><trkpt lat="43.374726845602176" lon="5.90098089143603"><ele>429.0</ele><time>2026-05-01T15:20:38Z</time></trkpt><trkpt lat="43.37479808532577" lon="5.900888691143065"><ele>429.0</ele><time>2026-05-01T15:20:39Z</time></trkpt><trkpt lat="43.374867414904365" lon="5.900828926380739"><ele>429.0</ele><time>2026-05-01T15:20:40Z</time></trkpt><trkpt lat="43.37494388554607" lon="5.900773021675983"><ele>430.4</ele><time>2026-05-01T15:20:41Z</time></trkpt><trkpt lat="43.37501987364607" lon="5.900696814719106"><ele>431.79999999999995</ele><time>2026-05-01T15:20:42Z</time></trkpt><trkpt lat="43.375116265065124" lon="5.9005980301110865"><ele>433.20000000000005</ele><time>2026-05-01T15:20:43Z</time></trkpt><trkpt lat="43.375202458613494" lon="5.900509183573796"><ele>434.6</ele><time>2026-05-01T15:20:44Z</time></trkpt><trkpt lat="43.37527742148139" lon="5.900459153354122"><ele>436.0</ele><time>2026-05-01T15:20:45Z</time></trkpt><trkpt lat="43.37536518799707" lon="5.900435454319201"><ele>436.00000000000006</ele><time>2026-05-01T15:20:46Z</time></trkpt><trkpt lat="43.37545511730892" lon="5.900422452976837"><ele>436.0</ele><time>2026-05-01T15:20:47Z</time></trkpt><trkpt lat="43.375555062482036" lon="5.900388150134071"><ele>436.0</ele><time>2026-05-01T15:20:48Z</time></trkpt><trkpt lat="43.3756377994218" lon="5.900337200339351"><ele>436.0</ele><time>2026-05-01T15:20:49Z</time></trkpt><trkpt lat="43.37570115363316" lon="5.900318386198285"><ele>436.00000000000006</ele><time>2026-05-01T15:20:50Z</time></trkpt><trkpt lat="43.37575380150094" lon="5.900257984892611"><ele>436.0</ele><time>2026-05-01T15:20:53Z</time></trkpt><trkpt lat="43.37584596066951" lon="5.900234520905537"><ele>437.1666666666667</ele><time>2026-05-01T15:21:22Z</time></trkpt><trkpt lat="43.37592606516125" lon="5.9001813662787645"><ele>438.33333333333337</ele><time>2026-05-01T15:21:24Z</time></trkpt><trkpt lat="43.37600539038891" lon="5.900104444097762"><ele>439.5</ele><time>2026-05-01T15:21:26Z</time></trkpt><trkpt lat="43.37607098101633" lon="5.900029485622775"><ele>440.66666666666663</ele><time>2026-05-01T15:21:27Z</time></trkpt><trkpt lat="43.3761231407817" lon="5.899960282628476"><ele>441.8333333333333</ele><time>2026-05-01T15:21:28Z</time></trkpt><trkpt lat="43.37617679310479" lon="5.899888938728885"><ele>443.0</ele><time>2026-05-01T15:21:29Z</time></trkpt><trkpt lat="43.37624377664747" lon="5.899818630808284"><ele>443.2</ele><time>2026-05-01T15:21:30Z</time></trkpt><trkpt lat="43.37632061929199" lon="5.899752954643852"><ele>443.4</ele><time>2026-05-01T15:21:31Z</time></trkpt><trkpt lat="43.37640631041453" lon="5.899686224592762"><ele>443.59999999999997</ele><time>2026-05-01T15:21:32Z</time></trkpt><trkpt lat="43.37647702736351" lon="5.899631880281786"><ele>443.79999999999995</ele><time>2026-05-01T15:21:33Z</time></trkpt><trkpt lat="43.376576269605906" lon="5.899559209272544"><ele>444.0</ele><time>2026-05-01T15:21:35Z</time></trkpt><trkpt lat="43.37666185933358" lon="5.899496775154762"><ele>444.79999999999995</ele><time>2026-05-01T15:21:37Z</time></trkpt><trkpt lat="43.376730395598194" lon="5.899438776550133"><ele>445.59999999999997</ele><time>2026-05-01T15:21:39Z</time></trkpt><trkpt lat="43.37681341389354" lon="5.899360747534087"><ele>446.4</ele><time>2026-05-01T15:21:42Z</time></trkpt><trkpt lat="43.37687407268784" lon="5.899292624783127"><ele>447.2</ele><time>2026-05-01T15:21:44Z</time></trkpt><trkpt lat="43.37695854203273" lon="5.899191059244443"><ele>448.0</ele><time>2026-05-01T15:21:46Z</time></trkpt><trkpt lat="43.37701961433275" lon="5.899115916862441"><ele>448.4</ele><time>2026-05-01T15:21:48Z</time></trkpt><trkpt lat="43.37711360394964" lon="5.8989953365196355"><ele>448.79999999999995</ele><time>2026-05-01T15:21:50Z</time></trkpt><trkpt lat="43.37719518655164" lon="5.898894740351389"><ele>449.2</ele><time>2026-05-01T15:21:52Z</time></trkpt><trkpt lat="43.37726720855099" lon="5.89881203702725"><ele>449.6</ele><time>2026-05-01T15:21:54Z</time></trkpt><trkpt lat="43.37735432801526" lon="5.898714101608359"><ele>450.0</ele><time>2026-05-01T15:21:56Z</time></trkpt><trkpt lat="43.377407356113615" lon="5.898655359067879"><ele>449.3333333333333</ele><time>2026-05-01T15:21:57Z</time></trkpt><trkpt lat="43.37745744803243" lon="5.898599869355658"><ele>448.66666666666663</ele><time>2026-05-01T15:21:58Z</time></trkpt><trkpt lat="43.377508552994485" lon="5.8985432573007435"><ele>448.0</ele><time>2026-05-01T15:21:59Z</time></trkpt><trkpt lat="43.37755822171284" lon="5.898488236291178"><ele>447.3333333333333</ele><time>2026-05-01T15:22:00Z</time></trkpt><trkpt lat="43.37763814053296" lon="5.898399705392074"><ele>446.66666666666663</ele><time>2026-05-01T15:22:02Z</time></trkpt><trkpt lat="43.377717872503304" lon="5.898311381483962"><ele>446.0</ele><time>2026-05-01T15:22:04Z</time></trkpt><trkpt lat="43.377807679002025" lon="5.898211897459499"><ele>446.0</ele><time>2026-05-01T15:22:06Z</time></trkpt><trkpt lat="43.37790577332213" lon="5.898101823991594"><ele>446.0</ele><time>2026-05-01T15:22:08Z</time></trkpt><trkpt lat="43.3779799541378" lon="5.898018390332013"><ele>446.0</ele><time>2026-05-01T15:22:10Z</time></trkpt><trkpt lat="43.37804883095917" lon="5.8979409222326185"><ele>446.0</ele><time>2026-05-01T15:22:12Z</time></trkpt><trkpt lat="43.378153503441496" lon="5.897821236813732"><ele>446.0</ele><time>2026-05-01T15:22:14Z</time></trkpt><trkpt lat="43.37821704379363" lon="5.897748467991183"><ele>445.6</ele><time>2026-05-01T15:22:15Z</time></trkpt><trkpt lat="43.37827256538524" lon="5.897683870312132"><ele>445.20000000000005</ele><time>2026-05-01T15:22:16Z</time></trkpt><trkpt lat="43.378346821408265" lon="5.897595375448428"><ele>444.79999999999995</ele><time>2026-05-01T15:22:18Z</time></trkpt><trkpt lat="43.37841199485944" lon="5.897517704771309"><ele>444.4</ele><time>2026-05-01T15:22:20Z</time></trkpt><trkpt lat="43.378506407132285" lon="5.897405188646523"><ele>444.0</ele><time>2026-05-01T15:22:22Z</time></trkpt><trkpt lat="43.37857190082409" lon="5.897328805316353"><ele>444.0</ele><time>2026-05-01T15:22:23Z</time></trkpt><trkpt lat="43.37863998098854" lon="5.8972526013049915"><ele>444.0</ele><time>2026-05-01T15:22:24Z</time></trkpt><trkpt lat="43.37869831152823" lon="5.897189898586921"><ele>444.0</ele><time>2026-05-01T15:22:25Z</time></trkpt><trkpt lat="43.37879455808226" lon="5.897086730444177"><ele>444.0</ele><time>2026-05-01T15:22:27Z</time></trkpt><trkpt lat="43.378889891463736" lon="5.8969761928292055"><ele>444.0</ele><time>2026-05-01T15:22:29Z</time></trkpt><trkpt lat="43.37894638443207" lon="5.896909326783602"><ele>444.2</ele><time>2026-05-01T15:22:30Z</time></trkpt><trkpt lat="43.379038097537645" lon="5.89679501245846"><ele>444.4</ele><time>2026-05-01T15:22:32Z</time></trkpt><trkpt lat="43.379099647228394" lon="5.8967079632699795"><ele>444.6</ele><time>2026-05-01T15:22:33Z</time></trkpt><trkpt lat="43.37915826148784" lon="5.896607692793917"><ele>444.8</ele><time>2026-05-01T15:22:35Z</time></trkpt><trkpt lat="43.379202234890634" lon="5.896514805086333"><ele>445.0</ele><time>2026-05-01T15:22:36Z</time></trkpt><trkpt lat="43.37924652373396" lon="5.896411101771596"><ele>445.2</ele><time>2026-05-01T15:22:37Z</time></trkpt><trkpt lat="43.37928164737516" lon="5.896328858723341"><ele>445.4</ele><time>2026-05-01T15:22:38Z</time></trkpt><trkpt lat="43.37931455550844" lon="5.896245603225221"><ele>445.6</ele><time>2026-05-01T15:22:39Z</time></trkpt><trkpt lat="43.379371390034194" lon="5.896085947215813"><ele>445.8</ele><time>2026-05-01T15:22:41Z</time></trkpt><trkpt lat="43.37942685902841" lon="5.895923292193298"><ele>446.0</ele><time>2026-05-01T15:22:43Z</time></trkpt><trkpt lat="43.379458017535384" lon="5.89582552604526"><ele>446.4</ele><time>2026-05-01T15:22:44Z</time></trkpt><trkpt lat="43.37950282910856" lon="5.8956800066981145"><ele>446.8</ele><time>2026-05-01T15:22:46Z</time></trkpt><trkpt lat="43.3795485140308" lon="5.895534157185879"><ele>447.19999999999993</ele><time>2026-05-01T15:22:48Z</time></trkpt><trkpt lat="43.37958858350488" lon="5.8954113313102"><ele>447.59999999999997</ele><time>2026-05-01T15:22:50Z</time></trkpt><trkpt lat="43.37962420802225" lon="5.895303560132182"><ele>448.0</ele><time>2026-05-01T15:22:51Z</time></trkpt><trkpt lat="43.379659810652726" lon="5.895196422882122"><ele>445.79999999999995</ele><time>2026-05-01T15:22:52Z</time></trkpt><trkpt lat="43.37970834909882" lon="5.895050358590276"><ele>443.59999999999997</ele><time>2026-05-01T15:22:54Z</time></trkpt><trkpt lat="43.37975985881711" lon="5.8948888932642"><ele>441.40000000000003</ele><time>2026-05-01T15:22:56Z</time></trkpt><trkpt lat="43.37979294770635" lon="5.894782718709146"><ele>439.20000000000005</ele><time>2026-05-01T15:22:57Z</time></trkpt><trkpt lat="43.37983793478477" lon="5.894649177041372"><ele>437.0</ele><time>2026-05-01T15:22:59Z</time></trkpt><trkpt lat="43.37987462053102" lon="5.8945736430345415"><ele>436.99999999999994</ele><time>2026-05-01T15:23:00Z</time></trkpt><trkpt lat="43.37990212627074" lon="5.894480511665858"><ele>437.0</ele><time>2026-05-01T15:23:05Z</time></trkpt><trkpt lat="43.37987782022943" lon="5.894395509578958"><ele>437.0</ele><time>2026-05-01T15:23:15Z</time></trkpt><trkpt lat="43.379849758400404" lon="5.894246991841614"><ele>437.0</ele><time>2026-05-01T15:23:17Z</time></trkpt><trkpt lat="43.379819155587676" lon="5.894139229636223"><ele>436.99999999999994</ele><time>2026-05-01T15:23:18Z</time></trkpt><trkpt lat="43.379800169440024" lon="5.894031996859984"><ele>437.0</ele><time>2026-05-01T15:23:19Z</time></trkpt><trkpt lat="43.37980185220445" lon="5.893920073058869"><ele>436.66666666666663</ele><time>2026-05-01T15:23:20Z</time></trkpt><trkpt lat="43.379798077063406" lon="5.8938205789095965"><ele>436.3333333333333</ele><time>2026-05-01T15:23:21Z</time></trkpt><trkpt lat="43.37979517877797" lon="5.893701444780981"><ele>436.0</ele><time>2026-05-01T15:23:22Z</time></trkpt><trkpt lat="43.379780488166425" lon="5.8935918894282775"><ele>435.66666666666663</ele><time>2026-05-01T15:23:23Z</time></trkpt><trkpt lat="43.37976157662325" lon="5.89349468653181"><ele>435.3333333333333</ele><time>2026-05-01T15:23:24Z</time></trkpt><trkpt lat="43.37973257908011" lon="5.893372084184913"><ele>435.0</ele><time>2026-05-01T15:23:25Z</time></trkpt><trkpt lat="43.37972397148687" lon="5.893239356947243"><ele>434.8333333333333</ele><time>2026-05-01T15:23:26Z</time></trkpt><trkpt lat="43.379724805958794" lon="5.893122194607285"><ele>434.66666666666663</ele><time>2026-05-01T15:23:27Z</time></trkpt><trkpt lat="43.37973367511528" lon="5.893019646611593"><ele>434.5</ele><time>2026-05-01T15:23:28Z</time></trkpt><trkpt lat="43.37975088049798" lon="5.892896759050118"><ele>434.3333333333333</ele><time>2026-05-01T15:23:29Z</time></trkpt><trkpt lat="43.379761037839764" lon="5.892772638161566"><ele>434.16666666666663</ele><time>2026-05-01T15:23:30Z</time></trkpt><trkpt lat="43.379763384834696" lon="5.892680780812889"><ele>434.0</ele><time>2026-05-01T15:23:31Z</time></trkpt><trkpt lat="43.37978553501297" lon="5.892569926082898"><ele>434.49999999999994</ele><time>2026-05-01T15:23:32Z</time></trkpt><trkpt lat="43.37980293848299" lon="5.892452125379324"><ele>435.0</ele><time>2026-05-01T15:23:33Z</time></trkpt><trkpt lat="43.37981028097418" lon="5.892350283573451"><ele>435.5</ele><time>2026-05-01T15:23:34Z</time></trkpt><trkpt lat="43.379814069935975" lon="5.892232691402973"><ele>436.0</ele><time>2026-05-01T15:23:35Z</time></trkpt><trkpt lat="43.37980924841406" lon="5.892119822169253"><ele>436.49999999999994</ele><time>2026-05-01T15:23:36Z</time></trkpt><trkpt lat="43.37981221240432" lon="5.891973141077168"><ele>437.0</ele><time>2026-05-01T15:23:38Z</time></trkpt><trkpt lat="43.37982538031133" lon="5.891867240732702"><ele>437.8</ele><time>2026-05-01T15:23:39Z</time></trkpt><trkpt lat="43.37982428566666" lon="5.891736941736725"><ele>438.6</ele><time>2026-05-01T15:23:40Z</time></trkpt><trkpt lat="43.37983945534275" lon="5.891604636439935"><ele>439.40000000000003</ele><time>2026-05-01T15:23:41Z</time></trkpt><trkpt lat="43.37985385385515" lon="5.8914748871143106"><ele>440.20000000000005</ele><time>2026-05-01T15:23:42Z</time></trkpt><trkpt lat="43.379857083381594" lon="5.891314565640793"><ele>441.0</ele><time>2026-05-01T15:23:43Z</time></trkpt><trkpt lat="43.37985588731348" lon="5.891174322520551"><ele>441.0</ele><time>2026-05-01T15:23:44Z</time></trkpt><trkpt lat="43.37984246224808" lon="5.891082223629191"><ele>441.0</ele><time>2026-05-01T15:23:45Z</time></trkpt><trkpt lat="43.37986753802942" lon="5.890955457346035"><ele>441.0</ele><time>2026-05-01T15:23:47Z</time></trkpt><trkpt lat="43.37983698373981" lon="5.890822293532437"><ele>441.0</ele><time>2026-05-01T15:23:49Z</time></trkpt><trkpt lat="43.37977839149983" lon="5.89077098575388"><ele>441.0</ele><time>2026-05-01T15:23:50Z</time></trkpt><trkpt lat="43.37971050794278" lon="5.890711312712509"><ele>441.0</ele><time>2026-05-01T15:23:51Z</time></trkpt><trkpt lat="43.379624167219795" lon="5.890605979231552"><ele>441.6</ele><time>2026-05-01T15:23:53Z</time></trkpt><trkpt lat="43.37955713550433" lon="5.89052808272569"><ele>442.20000000000005</ele><time>2026-05-01T15:23:55Z</time></trkpt><trkpt lat="43.37957755427705" lon="5.8904206088950435"><ele>442.79999999999995</ele><time>2026-05-01T15:23:57Z</time></trkpt><trkpt lat="43.37960517546511" lon="5.890261922974186"><ele>443.4</ele><time>2026-05-01T15:23:59Z</time></trkpt><trkpt lat="43.37953619112701" lon="5.890185902534146"><ele>444.0</ele><time>2026-05-01T15:24:01Z</time></trkpt><trkpt lat="43.37950475380233" lon="5.8900831679728745"><ele>444.0</ele><time>2026-05-01T15:24:03Z</time></trkpt><trkpt lat="43.37953362180944" lon="5.8899335067114835"><ele>444.0</ele><time>2026-05-01T15:24:05Z</time></trkpt><trkpt lat="43.379504068180275" lon="5.889849819707403"><ele>444.0</ele><time>2026-05-01T15:24:07Z</time></trkpt><trkpt lat="43.379517849080784" lon="5.889756755108011"><ele>444.0</ele><time>2026-05-01T15:24:14Z</time></trkpt><trkpt lat="43.37953066328813" lon="5.889654163627162"><ele>444.0</ele><time>2026-05-01T15:24:17Z</time></trkpt><trkpt lat="43.3795729501961" lon="5.889578591642001"><ele>444.0</ele><time>2026-05-01T15:24:20Z</time></trkpt><trkpt lat="43.37961668717082" lon="5.889504152326488"><ele>444.0</ele><time>2026-05-01T15:24:22Z</time></trkpt><trkpt lat="43.37966027447705" lon="5.889431001056852"><ele>444.0</ele><time>2026-05-01T15:24:24Z</time></trkpt><trkpt lat="43.37971358580121" lon="5.889349156350838"><ele>444.0</ele><time>2026-05-01T15:24:27Z</time></trkpt><trkpt lat="43.37976119639096" lon="5.889216731148901"><ele>444.0</ele><time>2026-05-01T15:24:29Z</time></trkpt><trkpt lat="43.37980852147579" lon="5.889097080819613"><ele>444.0</ele><time>2026-05-01T15:24:31Z</time></trkpt><trkpt lat="43.379824697649326" lon="5.888990264776256"><ele>444.0</ele><time>2026-05-01T15:24:33Z</time></trkpt><trkpt lat="43.37983162890026" lon="5.888867097317874"><ele>440.1666666666667</ele><time>2026-05-01T15:24:36Z</time></trkpt><trkpt lat="43.37984210937078" lon="5.888765190462883"><ele>436.33333333333337</ele><time>2026-05-01T15:24:40Z</time></trkpt><trkpt lat="43.379863354142664" lon="5.888673204762495"><ele>432.5</ele><time>2026-05-01T15:24:49Z</time></trkpt><trkpt lat="43.379883099174634" lon="5.888550215166063"><ele>428.6666666666667</ele><time>2026-05-01T15:24:52Z</time></trkpt><trkpt lat="43.379872451136535" lon="5.8884380599659325"><ele>424.83333333333337</ele><time>2026-05-01T15:24:55Z</time></trkpt><trkpt lat="43.379921558062755" lon="5.888322114030662"><ele>421.0</ele><time>2026-05-01T15:24:57Z</time></trkpt><trkpt lat="43.38000316928282" lon="5.88829318675767"><ele>419.83333333333337</ele><time>2026-05-01T15:24:59Z</time></trkpt><trkpt lat="43.38009529175832" lon="5.88833185353584"><ele>418.6666666666667</ele><time>2026-05-01T15:25:01Z</time></trkpt><trkpt lat="43.380172534728295" lon="5.888338352233154"><ele>417.5</ele><time>2026-05-01T15:25:02Z</time></trkpt><trkpt lat="43.3802446971066" lon="5.888339528980162"><ele>416.33333333333337</ele><time>2026-05-01T15:25:03Z</time></trkpt><trkpt lat="43.38031221788473" lon="5.888357520905596"><ele>415.1666666666667</ele><time>2026-05-01T15:25:04Z</time></trkpt><trkpt lat="43.380383044002144" lon="5.88837723680781"><ele>414.0</ele><time>2026-05-01T15:25:05Z</time></trkpt><trkpt lat="43.380456115598804" lon="5.8883955490934"><ele>413.2</ele><time>2026-05-01T15:25:06Z</time></trkpt><trkpt lat="43.38051862577672" lon="5.888416057103106"><ele>412.4</ele><time>2026-05-01T15:25:07Z</time></trkpt><trkpt lat="43.38061552987882" lon="5.8884700857492644"><ele>411.6</ele><time>2026-05-01T15:25:09Z</time></trkpt><trkpt lat="43.380740256837655" lon="5.8884541806346675"><ele>410.8</ele><time>2026-05-01T15:25:11Z</time></trkpt><trkpt lat="43.38086142340967" lon="5.888452718201402"><ele>410.0</ele><time>2026-05-01T15:25:13Z</time></trkpt><trkpt lat="43.38096719619959" lon="5.888522842389522"><ele>410.0</ele><time>2026-05-01T15:25:15Z</time></trkpt><trkpt lat="43.38110261815616" lon="5.888523435486404"><ele>410.0</ele><time>2026-05-01T15:25:17Z</time></trkpt><trkpt lat="43.38117242490135" lon="5.888524242759567"><ele>410.0</ele><time>2026-05-01T15:25:18Z</time></trkpt><trkpt lat="43.381252382952766" lon="5.88845204581982"><ele>410.0</ele><time>2026-05-01T15:25:20Z</time></trkpt><trkpt lat="43.38130402964983" lon="5.888351957221983"><ele>410.0</ele><time>2026-05-01T15:25:21Z</time></trkpt><trkpt lat="43.381367582529066" lon="5.888263424056816"><ele>407.4</ele><time>2026-05-01T15:25:22Z</time></trkpt><trkpt lat="43.38145590586259" lon="5.888161658683202"><ele>404.8</ele><time>2026-05-01T15:25:23Z</time></trkpt><trkpt lat="43.38152593525481" lon="5.888070466567149"><ele>402.20000000000005</ele><time>2026-05-01T15:25:24Z</time></trkpt><trkpt lat="43.38159104440694" lon="5.888001724390147"><ele>399.6</ele><time>2026-05-01T15:25:25Z</time></trkpt><trkpt lat="43.381658200962455" lon="5.887964549731145"><ele>397.0</ele><time>2026-05-01T15:25:26Z</time></trkpt><trkpt lat="43.381745976186664" lon="5.887924062127257"><ele>397.0</ele><time>2026-05-01T15:25:27Z</time></trkpt><trkpt lat="43.381818576315354" lon="5.887908308553394"><ele>397.0</ele><time>2026-05-01T15:25:28Z</time></trkpt><trkpt lat="43.381907744544534" lon="5.88790396861651"><ele>397.0</ele><time>2026-05-01T15:25:29Z</time></trkpt><trkpt lat="43.38202051262858" lon="5.887895005480978"><ele>397.0</ele><time>2026-05-01T15:25:30Z</time></trkpt><trkpt lat="43.382147339560056" lon="5.887866925374272"><ele>397.0</ele><time>2026-05-01T15:25:31Z</time></trkpt><trkpt lat="43.382296830885046" lon="5.8878274971404645"><ele>396.0</ele><time>2026-05-01T15:25:32Z</time></trkpt><trkpt lat="43.38241508244966" lon="5.887804738569632"><ele>395.0</ele><time>2026-05-01T15:25:33Z</time></trkpt><trkpt lat="43.382512763962964" lon="5.887809459834255"><ele>394.0</ele><time>2026-05-01T15:25:34Z</time></trkpt><trkpt lat="43.38259115957329" lon="5.887833055826328"><ele>393.0</ele><time>2026-05-01T15:25:35Z</time></trkpt><trkpt lat="43.382657757796125" lon="5.887876796749257"><ele>392.0</ele><time>2026-05-01T15:25:36Z</time></trkpt><trkpt lat="43.38272349024875" lon="5.887940323210129"><ele>392.0</ele><time>2026-05-01T15:25:37Z</time></trkpt><trkpt lat="43.38280408147178" lon="5.8880250791077104"><ele>392.0</ele><time>2026-05-01T15:25:38Z</time></trkpt><trkpt lat="43.382883627719444" lon="5.888079994548858"><ele>392.0</ele><time>2026-05-01T15:25:39Z</time></trkpt><trkpt lat="43.382949628125544" lon="5.888102603482441"><ele>392.0</ele><time>2026-05-01T15:25:40Z</time></trkpt><trkpt lat="43.3830158312804" lon="5.888092608565335"><ele>392.0</ele><time>2026-05-01T15:25:41Z</time></trkpt><trkpt lat="43.38311182585014" lon="5.887971028534949"><ele>391.66666666666663</ele><time>2026-05-01T15:25:43Z</time></trkpt><trkpt lat="43.383173896230836" lon="5.887900044155956"><ele>391.3333333333333</ele><time>2026-05-01T15:25:44Z</time></trkpt><trkpt lat="43.38324684760187" lon="5.887846503970802"><ele>391.0</ele><time>2026-05-01T15:25:45Z</time></trkpt><trkpt lat="43.38333457340961" lon="5.887782410222449"><ele>390.66666666666663</ele><time>2026-05-01T15:25:46Z</time></trkpt><trkpt lat="43.383429143948824" lon="5.887741109024009"><ele>390.3333333333333</ele><time>2026-05-01T15:25:48Z</time></trkpt><trkpt lat="43.3834962350604" lon="5.887737886048776"><ele>390.0</ele><time>2026-05-01T15:25:49Z</time></trkpt><trkpt lat="43.38356969306609" lon="5.8877393175929775"><ele>390.0</ele><time>2026-05-01T15:25:50Z</time></trkpt><trkpt lat="43.38365404205875" lon="5.88775896890553"><ele>390.0</ele><time>2026-05-01T15:25:51Z</time></trkpt><trkpt lat="43.38372311652822" lon="5.88776269338417"><ele>390.0</ele><time>2026-05-01T15:25:52Z</time></trkpt><trkpt lat="43.383797289665445" lon="5.887770047965096"><ele>390.0</ele><time>2026-05-01T15:25:53Z</time></trkpt><trkpt lat="43.38388150124247" lon="5.887797047390108"><ele>390.0</ele><time>2026-05-01T15:25:55Z</time></trkpt><trkpt lat="43.38397745639299" lon="5.887916250857382"><ele>390.0</ele><time>2026-05-01T15:26:45Z</time></trkpt><trkpt lat="43.384046856528606" lon="5.887973170294442"><ele>390.2</ele><time>2026-05-01T15:26:46Z</time></trkpt><trkpt lat="43.38413665414853" lon="5.888025872109844"><ele>390.4</ele><time>2026-05-01T15:26:47Z</time></trkpt><trkpt lat="43.38423633967301" lon="5.888085343899279"><ele>390.6</ele><time>2026-05-01T15:26:48Z</time></trkpt><trkpt lat="43.384323196606296" lon="5.888138749564512"><ele>390.8</ele><time>2026-05-01T15:26:49Z</time></trkpt><trkpt lat="43.3843937013128" lon="5.888199411011471"><ele>391.0</ele><time>2026-05-01T15:26:50Z</time></trkpt><trkpt lat="43.38445390686344" lon="5.888252524656678"><ele>391.00000000000006</ele><time>2026-05-01T15:26:51Z</time></trkpt><trkpt lat="43.38451573525881" lon="5.888311746283522"><ele>391.0</ele><time>2026-05-01T15:26:52Z</time></trkpt><trkpt lat="43.38457608870391" lon="5.888356141955101"><ele>391.0</ele><time>2026-05-01T15:26:53Z</time></trkpt><trkpt lat="43.38465941097568" lon="5.8884007068102715"><ele>391.0</ele><time>2026-05-01T15:26:54Z</time></trkpt><trkpt lat="43.384737954195074" lon="5.888429263972204"><ele>391.00000000000006</ele><time>2026-05-01T15:26:55Z</time></trkpt><trkpt lat="43.38481291701173" lon="5.8884450373421595"><ele>391.0</ele><time>2026-05-01T15:26:56Z</time></trkpt><trkpt lat="43.38488491393285" lon="5.888453331517347"><ele>390.33333333333337</ele><time>2026-05-01T15:26:57Z</time></trkpt><trkpt lat="43.3849553013353" lon="5.888429545007264"><ele>389.6666666666667</ele><time>2026-05-01T15:26:58Z</time></trkpt><trkpt lat="43.38503574781564" lon="5.888392311688281"><ele>389.0</ele><time>2026-05-01T15:26:59Z</time></trkpt><trkpt lat="43.38510583696722" lon="5.888373070072477"><ele>388.33333333333337</ele><time>2026-05-01T15:27:00Z</time></trkpt><trkpt lat="43.385168956226494" lon="5.888347705319683"><ele>387.6666666666667</ele><time>2026-05-01T15:27:01Z</time></trkpt><trkpt lat="43.38528853750344" lon="5.888355163441311"><ele>387.0</ele><time>2026-05-01T15:27:03Z</time></trkpt><trkpt lat="43.3853593943443" lon="5.888400857733904"><ele>386.8333333333333</ele><time>2026-05-01T15:27:04Z</time></trkpt><trkpt lat="43.385440333131754" lon="5.888447202903498"><ele>386.66666666666663</ele><time>2026-05-01T15:27:05Z</time></trkpt><trkpt lat="43.38550415607413" lon="5.888487255008651"><ele>386.5</ele><time>2026-05-01T15:27:06Z</time></trkpt><trkpt lat="43.38556363085741" lon="5.888539315253373"><ele>386.3333333333333</ele><time>2026-05-01T15:27:07Z</time></trkpt><trkpt lat="43.38554559111077" lon="5.888724643676657"><ele>386.16666666666663</ele><time>2026-05-01T15:27:09Z</time></trkpt><trkpt lat="43.38557567648764" lon="5.888830080900576"><ele>386.0</ele><time>2026-05-01T15:27:11Z</time></trkpt><trkpt lat="43.3856211107026" lon="5.888916046843929"><ele>385.4</ele><time>2026-05-01T15:27:12Z</time></trkpt><trkpt lat="43.385700230883764" lon="5.888958474064582"><ele>384.8</ele><time>2026-05-01T15:27:13Z</time></trkpt><trkpt lat="43.385802158285856" lon="5.889049748660471"><ele>384.2</ele><time>2026-05-01T15:27:15Z</time></trkpt><trkpt lat="43.38587056609408" lon="5.889175411050556"><ele>383.59999999999997</ele><time>2026-05-01T15:27:17Z</time></trkpt><trkpt lat="43.385990777804395" lon="5.889203527688742"><ele>383.0</ele><time>2026-05-01T15:27:19Z</time></trkpt><trkpt lat="43.38606359299091" lon="5.889204245001479"><ele>383.0</ele><time>2026-05-01T15:27:20Z</time></trkpt><trkpt lat="43.386140963729524" lon="5.889212630747175"><ele>383.0</ele><time>2026-05-01T15:27:21Z</time></trkpt><trkpt lat="43.38622180548737" lon="5.889223052394966"><ele>383.0</ele><time>2026-05-01T15:27:22Z</time></trkpt><trkpt lat="43.386299912223414" lon="5.8892323620145355"><ele>383.0</ele><time>2026-05-01T15:27:23Z</time></trkpt><trkpt lat="43.38636223271117" lon="5.889276083432731"><ele>383.0</ele><time>2026-05-01T15:27:24Z</time></trkpt><trkpt lat="43.38642536706201" lon="5.889305165688244"><ele>383.0</ele><time>2026-05-01T15:27:25Z</time></trkpt><trkpt lat="43.38651216936531" lon="5.8893932453610764"><ele>382.42857142857144</ele><time>2026-05-01T15:27:27Z</time></trkpt><trkpt lat="43.38656359342833" lon="5.889449206855675"><ele>381.85714285714283</ele><time>2026-05-01T15:27:28Z</time></trkpt><trkpt lat="43.38663318816233" lon="5.8894779312998375"><ele>381.28571428571433</ele><time>2026-05-01T15:27:29Z</time></trkpt><trkpt lat="43.38669947442546" lon="5.889500416793391"><ele>380.7142857142857</ele><time>2026-05-01T15:27:30Z</time></trkpt><trkpt lat="43.38676392621613" lon="5.889517603811741"><ele>380.14285714285717</ele><time>2026-05-01T15:27:31Z</time></trkpt><trkpt lat="43.38684573791777" lon="5.889534862795933"><ele>379.5714285714286</ele><time>2026-05-01T15:27:32Z</time></trkpt><trkpt lat="43.386902338616494" lon="5.889586097466174"><ele>379.0</ele><time>2026-05-01T15:27:33Z</time></trkpt><trkpt lat="43.38696019887086" lon="5.889620633219352"><ele>379.0</ele><time>2026-05-01T15:27:34Z</time></trkpt><trkpt lat="43.387044597911746" lon="5.889684349709421"><ele>379.0</ele><time>2026-05-01T15:27:35Z</time></trkpt><trkpt lat="43.38715316132614" lon="5.889684733518128"><ele>379.0</ele><time>2026-05-01T15:27:37Z</time></trkpt><trkpt lat="43.38721985280428" lon="5.889694082758099"><ele>379.0</ele><time>2026-05-01T15:27:38Z</time></trkpt><trkpt lat="43.38732823208439" lon="5.889718222795658"><ele>379.0</ele><time>2026-05-01T15:27:40Z</time></trkpt><trkpt lat="43.387404562434895" lon="5.889737448626404"><ele>378.2</ele><time>2026-05-01T15:27:41Z</time></trkpt><trkpt lat="43.38751684869372" lon="5.88976573090342"><ele>377.4</ele><time>2026-05-01T15:27:42Z</time></trkpt><trkpt lat="43.38763700464758" lon="5.88979276903434"><ele>376.6</ele><time>2026-05-01T15:27:43Z</time></trkpt><trkpt lat="43.387740588162636" lon="5.889815916096989"><ele>375.8</ele><time>2026-05-01T15:27:44Z</time></trkpt><trkpt lat="43.38784504305975" lon="5.8898392578813334"><ele>375.0</ele><time>2026-05-01T15:27:45Z</time></trkpt><trkpt lat="43.387960797715735" lon="5.889865124738136"><ele>374.2</ele><time>2026-05-01T15:27:46Z</time></trkpt><trkpt lat="43.38809281059852" lon="5.889894624703855"><ele>373.4</ele><time>2026-05-01T15:27:47Z</time></trkpt><trkpt lat="43.3882074656664" lon="5.889918473516609"><ele>372.6</ele><time>2026-05-01T15:27:48Z</time></trkpt><trkpt lat="43.3883101331433" lon="5.88993735904367"><ele>371.8</ele><time>2026-05-01T15:27:49Z</time></trkpt><trkpt lat="43.38840387829302" lon="5.889954878293617"><ele>371.0</ele><time>2026-05-01T15:27:50Z</time></trkpt><trkpt lat="43.388486606683756" lon="5.889970338712057"><ele>371.0</ele><time>2026-05-01T15:27:51Z</time></trkpt><trkpt lat="43.38856470933146" lon="5.88998493639293"><ele>371.0</ele><time>2026-05-01T15:27:52Z</time></trkpt><trkpt lat="43.388637265340535" lon="5.889998495829474"><ele>371.0</ele><time>2026-05-01T15:27:53Z</time></trkpt><trkpt lat="43.38876415032307" lon="5.8900222088949254"><ele>371.0</ele><time>2026-05-01T15:27:55Z</time></trkpt><trkpt lat="43.388863495005594" lon="5.8900302623790335"><ele>371.0</ele><time>2026-05-01T15:27:56Z</time></trkpt><trkpt lat="43.38897633824331" lon="5.890042944244498"><ele>371.20000000000005</ele><time>2026-05-01T15:27:57Z</time></trkpt><trkpt lat="43.38907954738218" lon="5.890054543362964"><ele>371.40000000000003</ele><time>2026-05-01T15:27:58Z</time></trkpt><trkpt lat="43.38916387683229" lon="5.890064520074245"><ele>371.6</ele><time>2026-05-01T15:27:59Z</time></trkpt><trkpt lat="43.38924094154653" lon="5.8900726299571895"><ele>371.8</ele><time>2026-05-01T15:28:00Z</time></trkpt><trkpt lat="43.38931676466254" lon="5.890080865887284"><ele>372.0</ele><time>2026-05-01T15:28:02Z</time></trkpt><trkpt lat="43.3892013218071" lon="5.890094407949066"><ele>371.6666666666667</ele><time>2026-05-01T15:28:06Z</time></trkpt><trkpt lat="43.38913837522856" lon="5.890124856437778"><ele>371.3333333333333</ele><time>2026-05-01T15:28:07Z</time></trkpt><trkpt lat="43.38909535253814" lon="5.890226044041997"><ele>371.0</ele><time>2026-05-01T15:28:09Z</time></trkpt><trkpt lat="43.38904347178241" lon="5.890327145446497"><ele>370.66666666666663</ele><time>2026-05-01T15:28:10Z</time></trkpt><trkpt lat="43.389029352266256" lon="5.890456729746293"><ele>370.3333333333333</ele><time>2026-05-01T15:28:11Z</time></trkpt><trkpt lat="43.38900876013177" lon="5.890573587742068"><ele>370.0</ele><time>2026-05-01T15:28:12Z</time></trkpt><trkpt lat="43.38902480826764" lon="5.890713493754004"><ele>370.0</ele><time>2026-05-01T15:28:14Z</time></trkpt><trkpt lat="43.38904222304646" lon="5.890804537001049"><ele>370.0</ele><time>2026-05-01T15:28:15Z</time></trkpt><trkpt lat="43.38914079546442" lon="5.890897450463162"><ele>370.0</ele><time>2026-05-01T15:28:17Z</time></trkpt><trkpt lat="43.389228111606805" lon="5.89092190447264"><ele>370.0</ele><time>2026-05-01T15:28:18Z</time></trkpt><trkpt lat="43.38931244655519" lon="5.8909317030173645"><ele>370.0</ele><time>2026-05-01T15:28:19Z</time></trkpt><trkpt lat="43.389406472193784" lon="5.8909837019304145"><ele>370.8</ele><time>2026-05-01T15:28:21Z</time></trkpt><trkpt lat="43.38940252706743" lon="5.891128802532624"><ele>371.6</ele><time>2026-05-01T15:28:23Z</time></trkpt><trkpt lat="43.38948376385266" lon="5.891154927868809"><ele>372.4</ele><time>2026-05-01T15:28:24Z</time></trkpt><trkpt lat="43.38958693775628" lon="5.891250594744085"><ele>373.2</ele><time>2026-05-01T15:28:26Z</time></trkpt><trkpt lat="43.38967854783563" lon="5.891290115342156"><ele>374.0</ele><time>2026-05-01T15:28:27Z</time></trkpt><trkpt lat="43.389758646006364" lon="5.891305104901401"><ele>374.1428571428571</ele><time>2026-05-01T15:28:28Z</time></trkpt><trkpt lat="43.38984019059225" lon="5.891285120673906"><ele>374.28571428571433</ele><time>2026-05-01T15:28:29Z</time></trkpt><trkpt lat="43.38990892778962" lon="5.891257022345541"><ele>374.42857142857144</ele><time>2026-05-01T15:28:30Z</time></trkpt><trkpt lat="43.38998004909201" lon="5.891250853611919"><ele>374.57142857142856</ele><time>2026-05-01T15:28:31Z</time></trkpt><trkpt lat="43.39005954150658" lon="5.891241345863288"><ele>374.71428571428567</ele><time>2026-05-01T15:28:32Z</time></trkpt><trkpt lat="43.390129803493906" lon="5.891234137475237"><ele>374.8571428571429</ele><time>2026-05-01T15:28:33Z</time></trkpt><trkpt lat="43.39020018469721" lon="5.89122865546943"><ele>375.0</ele><time>2026-05-01T15:28:34Z</time></trkpt><trkpt lat="43.39029575774993" lon="5.891210931201847"><ele>375.0</ele><time>2026-05-01T15:28:35Z</time></trkpt><trkpt lat="43.39037781398693" lon="5.8912131910142005"><ele>375.0</ele><time>2026-05-01T15:28:36Z</time></trkpt><trkpt lat="43.390446712180754" lon="5.8912226345658345"><ele>375.0</ele><time>2026-05-01T15:28:37Z</time></trkpt><trkpt lat="43.39059487592132" lon="5.891299489557518"><ele>375.0</ele><time>2026-05-01T15:28:39Z</time></trkpt><trkpt lat="43.39069809240152" lon="5.891330226024097"><ele>375.0</ele><time>2026-05-01T15:28:40Z</time></trkpt><trkpt lat="43.39077736681878" lon="5.891345330133957"><ele>374.4</ele><time>2026-05-01T15:28:41Z</time></trkpt><trkpt lat="43.3908467695945" lon="5.891321459813382"><ele>373.8</ele><time>2026-05-01T15:28:42Z</time></trkpt><trkpt lat="43.39092582561078" lon="5.891252626886957"><ele>373.20000000000005</ele><time>2026-05-01T15:28:43Z</time></trkpt><trkpt lat="43.3910121072096" lon="5.891200386338647"><ele>372.6</ele><time>2026-05-01T15:28:44Z</time></trkpt><trkpt lat="43.391125884789986" lon="5.891163952692841"><ele>372.0</ele><time>2026-05-01T15:28:46Z</time></trkpt><trkpt lat="43.39122156776697" lon="5.891184078304349"><ele>372.0</ele><time>2026-05-01T15:28:48Z</time></trkpt><trkpt lat="43.391277830889905" lon="5.891238862711653"><ele>372.0</ele><time>2026-05-01T15:28:49Z</time></trkpt><trkpt lat="43.39135009515816" lon="5.891325655553269"><ele>372.0</ele><time>2026-05-01T15:28:50Z</time></trkpt><trkpt lat="43.39146095789005" lon="5.891450351170427"><ele>372.0</ele><time>2026-05-01T15:28:51Z</time></trkpt><trkpt lat="43.39155186169701" lon="5.891560621450226"><ele>372.0</ele><time>2026-05-01T15:28:52Z</time></trkpt><trkpt lat="43.39161282901871" lon="5.891639675252251"><ele>371.8</ele><time>2026-05-01T15:28:53Z</time></trkpt><trkpt lat="43.39166640986305" lon="5.89170228030908"><ele>371.6</ele><time>2026-05-01T15:28:54Z</time></trkpt><trkpt lat="43.39175287572763" lon="5.8918459630350455"><ele>371.40000000000003</ele><time>2026-05-01T15:28:56Z</time></trkpt><trkpt lat="43.39181779678545" lon="5.891955571028944"><ele>371.20000000000005</ele><time>2026-05-01T15:28:57Z</time></trkpt><trkpt lat="43.39186317241755" lon="5.892035609984567"><ele>371.0</ele><time>2026-05-01T15:28:58Z</time></trkpt><trkpt lat="43.39192861030994" lon="5.892127576704249"><ele>371.0</ele><time>2026-05-01T15:29:00Z</time></trkpt><trkpt lat="43.392029980986656" lon="5.89210365473602"><ele>371.0</ele><time>2026-05-01T15:29:04Z</time></trkpt><trkpt lat="43.39205551068174" lon="5.8919666341118715"><ele>371.0</ele><time>2026-05-01T15:29:06Z</time></trkpt><trkpt lat="43.39208991320293" lon="5.891796226131064"><ele>371.0</ele><time>2026-05-01T15:29:08Z</time></trkpt><trkpt lat="43.392110519316645" lon="5.89171052698999"><ele>371.0</ele><time>2026-05-01T15:29:09Z</time></trkpt><trkpt lat="43.3921429115942" lon="5.891620551153812"><ele>370.83333333333337</ele><time>2026-05-01T15:29:10Z</time></trkpt><trkpt lat="43.39218257020657" lon="5.891536772443319"><ele>370.6666666666667</ele><time>2026-05-01T15:29:11Z</time></trkpt><trkpt lat="43.39221303016317" lon="5.891460356224297"><ele>370.5</ele><time>2026-05-01T15:29:12Z</time></trkpt><trkpt lat="43.39226892156052" lon="5.891332660142367"><ele>370.3333333333333</ele><time>2026-05-01T15:29:14Z</time></trkpt><trkpt lat="43.392302493957665" lon="5.891238099391854"><ele>370.16666666666663</ele><time>2026-05-01T15:29:17Z</time></trkpt><trkpt lat="43.392322347821285" lon="5.891135728823179"><ele>370.0</ele><time>2026-05-01T15:29:18Z</time></trkpt><trkpt lat="43.39235524168395" lon="5.891018850019914"><ele>369.4</ele><time>2026-05-01T15:29:19Z</time></trkpt><trkpt lat="43.39239632877116" lon="5.890892114089189"><ele>368.8</ele><time>2026-05-01T15:29:20Z</time></trkpt><trkpt lat="43.392450986626216" lon="5.890760257950925"><ele>368.20000000000005</ele><time>2026-05-01T15:29:21Z</time></trkpt><trkpt lat="43.392517803424454" lon="5.890626795075017"><ele>367.6</ele><time>2026-05-01T15:29:22Z</time></trkpt><trkpt lat="43.39257811404842" lon="5.890486741634656"><ele>367.0</ele><time>2026-05-01T15:29:23Z</time></trkpt><trkpt lat="43.3926434242074" lon="5.890372239743533"><ele>367.0</ele><time>2026-05-01T15:29:24Z</time></trkpt><trkpt lat="43.392692788969676" lon="5.89027351667338"><ele>367.0</ele><time>2026-05-01T15:29:25Z</time></trkpt><trkpt lat="43.39273869015697" lon="5.890187731423773"><ele>367.0</ele><time>2026-05-01T15:29:26Z</time></trkpt><trkpt lat="43.39279602091467" lon="5.890123570221187"><ele>367.0</ele><time>2026-05-01T15:29:27Z</time></trkpt><trkpt lat="43.39284984820186" lon="5.8900562300465635"><ele>367.0</ele><time>2026-05-01T15:29:28Z</time></trkpt><trkpt lat="43.392881439060034" lon="5.889961260539831"><ele>367.0</ele><time>2026-05-01T15:29:29Z</time></trkpt><trkpt lat="43.39290851525308" lon="5.889839544736968"><ele>366.20000000000005</ele><time>2026-05-01T15:29:31Z</time></trkpt><trkpt lat="43.39289916063154" lon="5.889729098429026"><ele>365.4</ele><time>2026-05-01T15:29:34Z</time></trkpt><trkpt lat="43.392933439719066" lon="5.889639524371266"><ele>364.6</ele><time>2026-05-01T15:29:35Z</time></trkpt><trkpt lat="43.39285200827559" lon="5.889403614830893"><ele>363.79999999999995</ele><time>2026-05-01T15:29:36Z</time></trkpt><trkpt lat="43.39289918140481" lon="5.889315402069229"><ele>363.0</ele><time>2026-05-01T15:29:37Z</time></trkpt><trkpt lat="43.39294359819626" lon="5.88923485780117"><ele>362.2</ele><time>2026-05-01T15:29:38Z</time></trkpt><trkpt lat="43.39298106599446" lon="5.889163536972175"><ele>361.4</ele><time>2026-05-01T15:29:39Z</time></trkpt><trkpt lat="43.39304692392788" lon="5.889018048348582"><ele>360.59999999999997</ele><time>2026-05-01T15:29:41Z</time></trkpt><trkpt lat="43.39308976807271" lon="5.88891653600869"><ele>359.79999999999995</ele><time>2026-05-01T15:29:43Z</time></trkpt><trkpt lat="43.39314293428325" lon="5.888789411105645"><ele>359.0</ele><time>2026-05-01T15:29:45Z</time></trkpt><trkpt lat="43.39318494543203" lon="5.888688310556948"><ele>359.0</ele><time>2026-05-01T15:29:46Z</time></trkpt><trkpt lat="43.393217764984975" lon="5.888607551546507"><ele>359.0</ele><time>2026-05-01T15:29:47Z</time></trkpt><trkpt lat="43.3932738234237" lon="5.888467429065607"><ele>359.0</ele><time>2026-05-01T15:29:49Z</time></trkpt><trkpt lat="43.39330484276385" lon="5.888386521254197"><ele>359.0</ele><time>2026-05-01T15:29:50Z</time></trkpt><trkpt lat="43.39334191593358" lon="5.888286791152684"><ele>359.0</ele><time>2026-05-01T15:29:51Z</time></trkpt><trkpt lat="43.393397361612465" lon="5.8881230210195605"><ele>358.83333333333337</ele><time>2026-05-01T15:29:53Z</time></trkpt><trkpt lat="43.39342744969965" lon="5.888028145852762"><ele>358.6666666666667</ele><time>2026-05-01T15:29:54Z</time></trkpt><trkpt lat="43.39345844713766" lon="5.887930403406451"><ele>358.5</ele><time>2026-05-01T15:29:55Z</time></trkpt><trkpt lat="43.393499768364606" lon="5.887822558317495"><ele>358.3333333333333</ele><time>2026-05-01T15:29:56Z</time></trkpt><trkpt lat="43.39354027434443" lon="5.887730864843511"><ele>358.16666666666663</ele><time>2026-05-01T15:29:57Z</time></trkpt><trkpt lat="43.393600143274035" lon="5.887607486671077"><ele>358.0</ele><time>2026-05-01T15:29:59Z</time></trkpt><trkpt lat="43.393662762650905" lon="5.887490565353174"><ele>357.59999999999997</ele><time>2026-05-01T15:30:01Z</time></trkpt><trkpt lat="43.39373073396987" lon="5.887371120721151"><ele>357.2</ele><time>2026-05-01T15:30:03Z</time></trkpt><trkpt lat="43.3938067726438" lon="5.887264273181468"><ele>356.8</ele><time>2026-05-01T15:30:04Z</time></trkpt><trkpt lat="43.39386597028123" lon="5.887203455184675"><ele>356.4</ele><time>2026-05-01T15:30:05Z</time></trkpt><trkpt lat="43.393964611063815" lon="5.887107621908357"><ele>356.0</ele><time>2026-05-01T15:30:07Z</time></trkpt><trkpt lat="43.394039513337844" lon="5.887049629875201"><ele>355.6</ele><time>2026-05-01T15:30:10Z</time></trkpt><trkpt lat="43.39410161730519" lon="5.886933439231197"><ele>355.20000000000005</ele><time>2026-05-01T15:30:13Z</time></trkpt><trkpt lat="43.39417194152871" lon="5.886877300996281"><ele>354.79999999999995</ele><time>2026-05-01T15:30:14Z</time></trkpt><trkpt lat="43.394276456087134" lon="5.886793308133136"><ele>354.4</ele><time>2026-05-01T15:30:15Z</time></trkpt><trkpt lat="43.39439214233624" lon="5.8866985467499555"><ele>354.0</ele><time>2026-05-01T15:30:16Z</time></trkpt><trkpt lat="43.394535968151025" lon="5.886581254239486"><ele>351.6666666666667</ele><time>2026-05-01T15:30:17Z</time></trkpt><trkpt lat="43.39469598247603" lon="5.88643812982903"><ele>349.33333333333337</ele><time>2026-05-01T15:30:18Z</time></trkpt><trkpt lat="43.39487109123001" lon="5.886274817864516"><ele>347.0</ele><time>2026-05-01T15:30:19Z</time></trkpt><trkpt lat="43.39503348865343" lon="5.886119323925376"><ele>347.0</ele><time>2026-05-01T15:30:20Z</time></trkpt><trkpt lat="43.39516880153584" lon="5.885998981771109"><ele>347.0</ele><time>2026-05-01T15:30:21Z</time></trkpt><trkpt lat="43.39529403215876" lon="5.885893042396215"><ele>347.0</ele><time>2026-05-01T15:30:22Z</time></trkpt><trkpt lat="43.395413912046436" lon="5.885791203088621"><ele>347.0</ele><time>2026-05-01T15:30:23Z</time></trkpt><trkpt lat="43.395524436319214" lon="5.8857009772444995"><ele>347.5</ele><time>2026-05-01T15:30:24Z</time></trkpt><trkpt lat="43.39562513471873" lon="5.885614307153447"><ele>348.0</ele><time>2026-05-01T15:30:25Z</time></trkpt><trkpt lat="43.3957239681503" lon="5.885529099132836"><ele>348.5</ele><time>2026-05-01T15:30:26Z</time></trkpt><trkpt lat="43.395827199849634" lon="5.885465953803256"><ele>349.0</ele><time>2026-05-01T15:30:27Z</time></trkpt><trkpt lat="43.39593832576478" lon="5.8853564125723725"><ele>349.0</ele><time>2026-05-01T15:30:28Z</time></trkpt><trkpt lat="43.396066671546066" lon="5.885273968820554"><ele>349.0</ele><time>2026-05-01T15:30:29Z</time></trkpt><trkpt lat="43.3961967885574" lon="5.885197782460812"><ele>349.0</ele><time>2026-05-01T15:30:30Z</time></trkpt><trkpt lat="43.39632125915421" lon="5.885123700342071"><ele>349.0</ele><time>2026-05-01T15:30:31Z</time></trkpt><trkpt lat="43.39644278959863" lon="5.885059391819605"><ele>348.25</ele><time>2026-05-01T15:30:32Z</time></trkpt><trkpt lat="43.396566701740795" lon="5.885001195981064"><ele>347.5</ele><time>2026-05-01T15:30:33Z</time></trkpt><trkpt lat="43.396705552511115" lon="5.884945858632622"><ele>346.75</ele><time>2026-05-01T15:30:34Z</time></trkpt><trkpt lat="43.39684191190443" lon="5.884875626700888"><ele>346.0</ele><time>2026-05-01T15:30:35Z</time></trkpt><trkpt lat="43.39696917910209" lon="5.884795032243411"><ele>346.0</ele><time>2026-05-01T15:30:36Z</time></trkpt><trkpt lat="43.39708456017259" lon="5.884722796983056"><ele>346.0</ele><time>2026-05-01T15:30:37Z</time></trkpt><trkpt lat="43.39718631860398" lon="5.884655983541099"><ele>346.0</ele><time>2026-05-01T15:30:38Z</time></trkpt><trkpt lat="43.39728445324839" lon="5.884592518619347"><ele>346.0</ele><time>2026-05-01T15:30:39Z</time></trkpt><trkpt lat="43.39737776033982" lon="5.884537368178837"><ele>346.0</ele><time>2026-05-01T15:30:40Z</time></trkpt><trkpt lat="43.39746560914594" lon="5.8844838294866095"><ele>344.5</ele><time>2026-05-01T15:30:41Z</time></trkpt><trkpt lat="43.39755573353251" lon="5.884430769794709"><ele>343.0</ele><time>2026-05-01T15:30:42Z</time></trkpt><trkpt lat="43.397669937253795" lon="5.884381100491776"><ele>341.5</ele><time>2026-05-01T15:30:43Z</time></trkpt><trkpt lat="43.39779615272432" lon="5.884349977909629"><ele>340.0</ele><time>2026-05-01T15:30:44Z</time></trkpt><trkpt lat="43.397910545028516" lon="5.884335642481216"><ele>340.4</ele><time>2026-05-01T15:30:45Z</time></trkpt><trkpt lat="43.39801908700555" lon="5.884319736277029"><ele>340.8</ele><time>2026-05-01T15:30:46Z</time></trkpt><trkpt lat="43.3981223315745" lon="5.884299132960336"><ele>341.20000000000005</ele><time>2026-05-01T15:30:47Z</time></trkpt><trkpt lat="43.39821297303036" lon="5.884276409181824"><ele>341.6</ele><time>2026-05-01T15:30:48Z</time></trkpt><trkpt lat="43.39829598319048" lon="5.884260561847249"><ele>342.0</ele><time>2026-05-01T15:30:49Z</time></trkpt><trkpt lat="43.398363872473226" lon="5.884254854186192"><ele>342.20000000000005</ele><time>2026-05-01T15:30:50Z</time></trkpt><trkpt lat="43.39845628814242" lon="5.8842738813400635"><ele>342.4</ele><time>2026-05-01T15:30:52Z</time></trkpt><trkpt lat="43.3985310188908" lon="5.884270380240334"><ele>342.6</ele><time>2026-05-01T15:31:02Z</time></trkpt><trkpt lat="43.39855664724626" lon="5.884426608815253"><ele>342.79999999999995</ele><time>2026-05-01T15:31:03Z</time></trkpt><trkpt lat="43.398571545173226" lon="5.884557895819388"><ele>343.0</ele><time>2026-05-01T15:31:04Z</time></trkpt><trkpt lat="43.39859178574987" lon="5.884719306509229"><ele>343.0</ele><time>2026-05-01T15:31:05Z</time></trkpt><trkpt lat="43.39861747484932" lon="5.884907426621297"><ele>343.0</ele><time>2026-05-01T15:31:06Z</time></trkpt><trkpt lat="43.398648210146646" lon="5.885113183454655"><ele>343.0</ele><time>2026-05-01T15:31:07Z</time></trkpt><trkpt lat="43.39868725629412" lon="5.88533675399862"><ele>341.0</ele><time>2026-05-01T15:31:08Z</time></trkpt><trkpt lat="43.39873087584998" lon="5.8855243702323"><ele>339.0</ele><time>2026-05-01T15:31:09Z</time></trkpt><trkpt lat="43.39878365555459" lon="5.8857333494390955"><ele>337.0</ele><time>2026-05-01T15:31:10Z</time></trkpt><trkpt lat="43.39884093096957" lon="5.885928824474365"><ele>336.25</ele><time>2026-05-01T15:31:11Z</time></trkpt><trkpt lat="43.39890435519258" lon="5.886107463958086"><ele>335.5</ele><time>2026-05-01T15:31:12Z</time></trkpt><trkpt lat="43.39897104514966" lon="5.8862747089777825"><ele>334.75</ele><time>2026-05-01T15:31:13Z</time></trkpt><trkpt lat="43.39903423438868" lon="5.886433957548738"><ele>334.0</ele><time>2026-05-01T15:31:14Z</time></trkpt><trkpt lat="43.39909650757282" lon="5.886582686953794"><ele>334.0</ele><time>2026-05-01T15:31:15Z</time></trkpt><trkpt lat="43.3991612687087" lon="5.886719197697315"><ele>334.0</ele><time>2026-05-01T15:31:16Z</time></trkpt><trkpt lat="43.39922095543705" lon="5.886844543495701"><ele>334.0</ele><time>2026-05-01T15:31:17Z</time></trkpt><trkpt lat="43.39927856324839" lon="5.886961034359086"><ele>334.0</ele><time>2026-05-01T15:31:18Z</time></trkpt><trkpt lat="43.39933342686531" lon="5.8870737232030805"><ele>334.0</ele><time>2026-05-01T15:31:19Z</time></trkpt><trkpt lat="43.39938725999768" lon="5.887178119452872"><ele>333.79999999999995</ele><time>2026-05-01T15:31:20Z</time></trkpt><trkpt lat="43.399438495438744" lon="5.887272550239192"><ele>333.59999999999997</ele><time>2026-05-01T15:31:21Z</time></trkpt><trkpt lat="43.399489228435634" lon="5.8873567166794905"><ele>333.4</ele><time>2026-05-01T15:31:22Z</time></trkpt><trkpt lat="43.39952214880329" lon="5.8874470089184685"><ele>333.2</ele><time>2026-05-01T15:31:23Z</time></trkpt><trkpt lat="43.39957397518951" lon="5.8875269063598274"><ele>333.0</ele><time>2026-05-01T15:31:25Z</time></trkpt><trkpt lat="43.39969084354611" lon="5.887428905087346"><ele>333.1666666666667</ele><time>2026-05-01T15:31:27Z</time></trkpt><trkpt lat="43.399639427372975" lon="5.887327809239113"><ele>333.3333333333333</ele><time>2026-05-01T15:31:28Z</time></trkpt><trkpt lat="43.399571419116896" lon="5.887170650769228"><ele>333.5</ele><time>2026-05-01T15:31:30Z</time></trkpt><trkpt lat="43.399531774709544" lon="5.887080240180479"><ele>333.66666666666663</ele><time>2026-05-01T15:31:31Z</time></trkpt><trkpt lat="43.399513956843265" lon="5.886985547621876"><ele>333.8333333333333</ele><time>2026-05-01T15:31:32Z</time></trkpt><trkpt lat="43.39952331682844" lon="5.8868883057014285"><ele>334.0</ele><time>2026-05-01T15:31:33Z</time></trkpt><trkpt lat="43.39955587679467" lon="5.886752855998289"><ele>334.0</ele><time>2026-05-01T15:31:35Z</time></trkpt><trkpt lat="43.39960348976554" lon="5.886672729670887"><ele>334.0</ele><time>2026-05-01T15:31:37Z</time></trkpt><trkpt lat="43.399634951900325" lon="5.886569297217128"><ele>334.0</ele><time>2026-05-01T15:31:38Z</time></trkpt><trkpt lat="43.399680261445575" lon="5.886420341034782"><ele>334.0</ele><time>2026-05-01T15:31:39Z</time></trkpt><trkpt lat="43.39972995614725" lon="5.886264917002636"><ele>334.0</ele><time>2026-05-01T15:31:40Z</time></trkpt><trkpt lat="43.399773516065125" lon="5.886138840277738"><ele>333.5</ele><time>2026-05-01T15:31:41Z</time></trkpt><trkpt lat="43.399829464914205" lon="5.885985501634441"><ele>333.0</ele><time>2026-05-01T15:31:42Z</time></trkpt><trkpt lat="43.3999039484261" lon="5.885792484434729"><ele>332.5</ele><time>2026-05-01T15:31:43Z</time></trkpt><trkpt lat="43.39997112252124" lon="5.885621847732059"><ele>332.0</ele><time>2026-05-01T15:31:44Z</time></trkpt><trkpt lat="43.40002777936857" lon="5.885477927199396"><ele>331.8</ele><time>2026-05-01T15:31:45Z</time></trkpt><trkpt lat="43.40006968374117" lon="5.885370030859399"><ele>331.6</ele><time>2026-05-01T15:31:46Z</time></trkpt><trkpt lat="43.40010309009442" lon="5.885285713908626"><ele>331.40000000000003</ele><time>2026-05-01T15:31:47Z</time></trkpt><trkpt lat="43.40014498633904" lon="5.885190430536181"><ele>331.20000000000005</ele><time>2026-05-01T15:31:48Z</time></trkpt><trkpt lat="43.4002006964916" lon="5.885068144207378"><ele>331.0</ele><time>2026-05-01T15:31:49Z</time></trkpt><trkpt lat="43.40027024638615" lon="5.884928091041259"><ele>331.0</ele><time>2026-05-01T15:31:50Z</time></trkpt><trkpt lat="43.400357856263575" lon="5.88476584688688"><ele>331.0</ele><time>2026-05-01T15:31:51Z</time></trkpt><trkpt lat="43.40046351723382" lon="5.884587144584"><ele>331.0</ele><time>2026-05-01T15:31:52Z</time></trkpt><trkpt lat="43.40059211340216" lon="5.884376832376126"><ele>333.3333333333333</ele><time>2026-05-01T15:31:53Z</time></trkpt><trkpt lat="43.400728933814335" lon="5.8841558571341"><ele>335.6666666666667</ele><time>2026-05-01T15:31:54Z</time></trkpt><trkpt lat="43.400842484422355" lon="5.8839724644846205"><ele>338.0</ele><time>2026-05-01T15:31:55Z</time></trkpt><trkpt lat="43.4009484949415" lon="5.88380124959961"><ele>338.0</ele><time>2026-05-01T15:31:56Z</time></trkpt><trkpt lat="43.401048061371256" lon="5.883639412928979"><ele>338.0</ele><time>2026-05-01T15:31:57Z</time></trkpt><trkpt lat="43.40113989620867" lon="5.883489618927662"><ele>338.0</ele><time>2026-05-01T15:31:58Z</time></trkpt><trkpt lat="43.40124525626479" lon="5.883313067658796"><ele>336.0</ele><time>2026-05-01T15:31:59Z</time></trkpt><trkpt lat="43.40136082396438" lon="5.883118376292734"><ele>334.0</ele><time>2026-05-01T15:32:00Z</time></trkpt><trkpt lat="43.401459874179736" lon="5.882948947505274"><ele>332.0</ele><time>2026-05-01T15:32:01Z</time></trkpt><trkpt lat="43.40154890611038" lon="5.882795960885545"><ele>332.0</ele><time>2026-05-01T15:32:02Z</time></trkpt><trkpt lat="43.40163388378093" lon="5.882649940641311"><ele>332.0</ele><time>2026-05-01T15:32:03Z</time></trkpt><trkpt lat="43.40172009380469" lon="5.8824980193676994"><ele>332.0</ele><time>2026-05-01T15:32:04Z</time></trkpt><trkpt lat="43.40179629314399" lon="5.882356847015524"><ele>332.0</ele><time>2026-05-01T15:32:05Z</time></trkpt><trkpt lat="43.40190440896323" lon="5.882202372126449"><ele>332.5</ele><time>2026-05-01T15:32:06Z</time></trkpt><trkpt lat="43.40201212557182" lon="5.882056373652481"><ele>333.0</ele><time>2026-05-01T15:32:07Z</time></trkpt><trkpt lat="43.402100173597354" lon="5.881915318037457"><ele>333.5</ele><time>2026-05-01T15:32:08Z</time></trkpt><trkpt lat="43.40218681569892" lon="5.881764613233059"><ele>334.0</ele><time>2026-05-01T15:32:09Z</time></trkpt><trkpt lat="43.402286539249594" lon="5.88158697457339"><ele>334.0</ele><time>2026-05-01T15:32:10Z</time></trkpt><trkpt lat="43.40240402812098" lon="5.881377690319515"><ele>334.0</ele><time>2026-05-01T15:32:11Z</time></trkpt><trkpt lat="43.40253535996205" lon="5.8811643107522125"><ele>334.0</ele><time>2026-05-01T15:32:12Z</time></trkpt><trkpt lat="43.40266097396051" lon="5.880982806437273"><ele>334.3333333333333</ele><time>2026-05-01T15:32:13Z</time></trkpt><trkpt lat="43.40277501289002" lon="5.880823534046051"><ele>334.6666666666667</ele><time>2026-05-01T15:32:14Z</time></trkpt><trkpt lat="43.40288697371022" lon="5.880667225525177"><ele>335.0</ele><time>2026-05-01T15:32:15Z</time></trkpt><trkpt lat="43.40298114737993" lon="5.88051787421845"><ele>335.0</ele><time>2026-05-01T15:32:16Z</time></trkpt><trkpt lat="43.4030638496011" lon="5.8803732444135175"><ele>335.0</ele><time>2026-05-01T15:32:17Z</time></trkpt><trkpt lat="43.4031420055594" lon="5.8802322526371995"><ele>335.0</ele><time>2026-05-01T15:32:18Z</time></trkpt><trkpt lat="43.40321191050204" lon="5.880101971193189"><ele>335.0</ele><time>2026-05-01T15:32:19Z</time></trkpt><trkpt lat="43.403279567677984" lon="5.879965957516595"><ele>334.0</ele><time>2026-05-01T15:32:20Z</time></trkpt><trkpt lat="43.403344853482544" lon="5.879824588702858"><ele>333.0</ele><time>2026-05-01T15:32:21Z</time></trkpt><trkpt lat="43.403403317844706" lon="5.879670668039488"><ele>332.0</ele><time>2026-05-01T15:32:22Z</time></trkpt><trkpt lat="43.40345148835251" lon="5.879505326670823"><ele>331.0</ele><time>2026-05-01T15:32:23Z</time></trkpt><trkpt lat="43.40349807475388" lon="5.8793472767614405"><ele>331.0</ele><time>2026-05-01T15:32:24Z</time></trkpt><trkpt lat="43.403540392034806" lon="5.8791895343290514"><ele>331.0</ele><time>2026-05-01T15:32:25Z</time></trkpt><trkpt lat="43.40357581943754" lon="5.879040262301051"><ele>331.0</ele><time>2026-05-01T15:32:26Z</time></trkpt><trkpt lat="43.40360243539302" lon="5.878905058564026"><ele>331.0</ele><time>2026-05-01T15:32:27Z</time></trkpt><trkpt lat="43.403624078664706" lon="5.878775288649938"><ele>331.0</ele><time>2026-05-01T15:32:28Z</time></trkpt><trkpt lat="43.40364378985702" lon="5.878615568356312"><ele>331.75</ele><time>2026-05-01T15:32:29Z</time></trkpt><trkpt lat="43.403658008985445" lon="5.878423303765736"><ele>332.5</ele><time>2026-05-01T15:32:30Z</time></trkpt><trkpt lat="43.403662988845575" lon="5.878251445857897"><ele>333.25</ele><time>2026-05-01T15:32:31Z</time></trkpt><trkpt lat="43.40366609028473" lon="5.8781058385484455"><ele>334.0</ele><time>2026-05-01T15:32:32Z</time></trkpt><trkpt lat="43.40366873401474" lon="5.877981713408368"><ele>334.0</ele><time>2026-05-01T15:32:33Z</time></trkpt><trkpt lat="43.40366723826431" lon="5.877884875420212"><ele>334.0</ele><time>2026-05-01T15:32:34Z</time></trkpt><trkpt lat="43.40366692418898" lon="5.877753220122915"><ele>334.0</ele><time>2026-05-01T15:32:37Z</time></trkpt><trkpt lat="43.4036918184384" lon="5.877672384390854"><ele>334.0</ele><time>2026-05-01T15:32:38Z</time></trkpt><trkpt lat="43.40370241818325" lon="5.877560022895326"><ele>334.0</ele><time>2026-05-01T15:32:39Z</time></trkpt><trkpt lat="43.403703881432286" lon="5.877413345125773"><ele>334.0</ele><time>2026-05-01T15:32:40Z</time></trkpt><trkpt lat="43.40371554194198" lon="5.877277370236518"><ele>334.0</ele><time>2026-05-01T15:32:41Z</time></trkpt><trkpt lat="43.40375061933823" lon="5.87718589385852"><ele>334.0</ele><time>2026-05-01T15:32:42Z</time></trkpt><trkpt lat="43.403800554419036" lon="5.877099371549599"><ele>334.0</ele><time>2026-05-01T15:32:43Z</time></trkpt><trkpt lat="43.40385670277668" lon="5.877028417053762"><ele>334.0</ele><time>2026-05-01T15:32:44Z</time></trkpt><trkpt lat="43.4039334809366" lon="5.8769520565468945"><ele>334.0</ele><time>2026-05-01T15:32:45Z</time></trkpt><trkpt lat="43.40399617542063" lon="5.87691094077344"><ele>334.0</ele><time>2026-05-01T15:32:46Z</time></trkpt><trkpt lat="43.40408240468756" lon="5.876852041598893"><ele>334.0</ele><time>2026-05-01T15:32:48Z</time></trkpt><trkpt lat="43.40405015428263" lon="5.876757892853491"><ele>334.0</ele><time>2026-05-01T15:32:51Z</time></trkpt><trkpt lat="43.40389828456533" lon="5.8767542676334354"><ele>334.0</ele><time>2026-05-01T15:32:53Z</time></trkpt><trkpt lat="43.403800880309284" lon="5.8768306945625435"><ele>334.0</ele><time>2026-05-01T15:32:54Z</time></trkpt><trkpt lat="43.40371981625402" lon="5.876910000701724"><ele>334.0</ele><time>2026-05-01T15:32:55Z</time></trkpt><trkpt lat="43.40367081555675" lon="5.876974317952062"><ele>334.0</ele><time>2026-05-01T15:32:56Z</time></trkpt><trkpt lat="43.4036093354549" lon="5.876953263032014"><ele>334.0</ele><time>2026-05-01T15:32:58Z</time></trkpt><trkpt lat="43.403562363512165" lon="5.8768481158804935"><ele>334.0</ele><time>2026-05-01T15:32:59Z</time></trkpt><trkpt lat="43.40358900461918" lon="5.876675626360681"><ele>334.0</ele><time>2026-05-01T15:33:01Z</time></trkpt><trkpt lat="43.40355264771925" lon="5.876559672149055"><ele>334.0</ele><time>2026-05-01T15:33:02Z</time></trkpt><trkpt lat="43.4035180634086" lon="5.876391835923281"><ele>334.2</ele><time>2026-05-01T15:33:03Z</time></trkpt><trkpt lat="43.40350542701997" lon="5.87620954638338"><ele>334.4</ele><time>2026-05-01T15:33:04Z</time></trkpt><trkpt lat="43.40346983649974" lon="5.876053828188769"><ele>334.6</ele><time>2026-05-01T15:33:05Z</time></trkpt><trkpt lat="43.40346270658487" lon="5.875915148805542"><ele>334.8</ele><time>2026-05-01T15:33:06Z</time></trkpt><trkpt lat="43.40344278831925" lon="5.875816532086915"><ele>335.0</ele><time>2026-05-01T15:33:07Z</time></trkpt><trkpt lat="43.40342018138209" lon="5.875686321946259"><ele>335.33333333333337</ele><time>2026-05-01T15:33:08Z</time></trkpt><trkpt lat="43.40341736962276" lon="5.875560048305725"><ele>335.6666666666667</ele><time>2026-05-01T15:33:09Z</time></trkpt><trkpt lat="43.40339861921144" lon="5.875435941430084"><ele>336.0</ele><time>2026-05-01T15:33:10Z</time></trkpt><trkpt lat="43.40337147076323" lon="5.875327656569576"><ele>336.3333333333333</ele><time>2026-05-01T15:33:11Z</time></trkpt><trkpt lat="43.40335344177518" lon="5.875217760530573"><ele>336.66666666666663</ele><time>2026-05-01T15:33:12Z</time></trkpt><trkpt lat="43.403343476388095" lon="5.875113701994416"><ele>337.0</ele><time>2026-05-01T15:33:13Z</time></trkpt><trkpt lat="43.40332905745569" lon="5.875020028019358"><ele>337.3333333333333</ele><time>2026-05-01T15:33:14Z</time></trkpt><trkpt lat="43.40331736410827" lon="5.874932780695596"><ele>337.66666666666663</ele><time>2026-05-01T15:33:15Z</time></trkpt><trkpt lat="43.40329698645272" lon="5.874776809050956"><ele>338.0</ele><time>2026-05-01T15:33:17Z</time></trkpt><trkpt lat="43.40328080294641" lon="5.87468939514305"><ele>338.3333333333333</ele><time>2026-05-01T15:33:19Z</time></trkpt><trkpt lat="43.40326190590512" lon="5.874573005690834"><ele>338.6666666666667</ele><time>2026-05-01T15:33:34Z</time></trkpt><trkpt lat="43.40322185019303" lon="5.874483612575594"><ele>339.0</ele><time>2026-05-01T15:33:35Z</time></trkpt><trkpt lat="43.40321808938274" lon="5.87435530822074"><ele>339.0</ele><time>2026-05-01T15:33:36Z</time></trkpt><trkpt lat="43.40320802725493" lon="5.874247148990865"><ele>339.0</ele><time>2026-05-01T15:33:37Z</time></trkpt><trkpt lat="43.40318907757742" lon="5.87415320162414"><ele>339.0</ele><time>2026-05-01T15:33:38Z</time></trkpt><trkpt lat="43.40319873924224" lon="5.874065032637729"><ele>339.0</ele><time>2026-05-01T15:33:39Z</time></trkpt><trkpt lat="43.4031755855099" lon="5.873922950428958"><ele>339.0</ele><time>2026-05-01T15:33:40Z</time></trkpt><trkpt lat="43.40317413761968" lon="5.873749534471914"><ele>339.0</ele><time>2026-05-01T15:33:41Z</time></trkpt><trkpt lat="43.4031618243783" lon="5.873567090488892"><ele>339.4</ele><time>2026-05-01T15:33:42Z</time></trkpt><trkpt lat="43.403153433516515" lon="5.873423069139676"><ele>339.79999999999995</ele><time>2026-05-01T15:33:43Z</time></trkpt><trkpt lat="43.40314638100631" lon="5.87329052664019"><ele>340.20000000000005</ele><time>2026-05-01T15:33:44Z</time></trkpt><trkpt lat="43.403140058834744" lon="5.873174346778184"><ele>340.6</ele><time>2026-05-01T15:33:45Z</time></trkpt><trkpt lat="43.40313315952465" lon="5.873041055533124"><ele>341.0</ele><time>2026-05-01T15:33:46Z</time></trkpt><trkpt lat="43.40313195436686" lon="5.872894241352304"><ele>341.0</ele><time>2026-05-01T15:33:47Z</time></trkpt><trkpt lat="43.40313758333776" lon="5.87273277425873"><ele>341.0</ele><time>2026-05-01T15:33:48Z</time></trkpt><trkpt lat="43.40313249765814" lon="5.8725785380995035"><ele>341.0</ele><time>2026-05-01T15:33:49Z</time></trkpt><trkpt lat="43.403132079423315" lon="5.872446005627607"><ele>341.0</ele><time>2026-05-01T15:33:50Z</time></trkpt><trkpt lat="43.40312943287361" lon="5.872315887998418"><ele>341.0</ele><time>2026-05-01T15:33:51Z</time></trkpt><trkpt lat="43.40312227769238" lon="5.87219365789881"><ele>341.20000000000005</ele><time>2026-05-01T15:33:52Z</time></trkpt><trkpt lat="43.40311515477159" lon="5.87202525985252"><ele>341.40000000000003</ele><time>2026-05-01T15:33:53Z</time></trkpt><trkpt lat="43.40310137234127" lon="5.871867018010816"><ele>341.6</ele><time>2026-05-01T15:33:54Z</time></trkpt><trkpt lat="43.403103759547264" lon="5.871719581055307"><ele>341.8</ele><time>2026-05-01T15:33:55Z</time></trkpt><trkpt lat="43.40308883165864" lon="5.871587946254794"><ele>342.0</ele><time>2026-05-01T15:33:56Z</time></trkpt><trkpt lat="43.40308304719222" lon="5.871453360799239"><ele>341.5</ele><time>2026-05-01T15:33:57Z</time></trkpt><trkpt lat="43.403077439991" lon="5.871313767428584"><ele>341.0</ele><time>2026-05-01T15:33:58Z</time></trkpt><trkpt lat="43.403071475875" lon="5.871145288802773"><ele>340.5</ele><time>2026-05-01T15:33:59Z</time></trkpt><trkpt lat="43.4030805811517" lon="5.870938035764396"><ele>340.0</ele><time>2026-05-01T15:34:00Z</time></trkpt><trkpt lat="43.403087264290185" lon="5.870748892130759"><ele>339.5</ele><time>2026-05-01T15:34:01Z</time></trkpt><trkpt lat="43.403095051093636" lon="5.870575218825635"><ele>339.0</ele><time>2026-05-01T15:34:02Z</time></trkpt><trkpt lat="43.40309537617532" lon="5.870411487817279"><ele>338.5</ele><time>2026-05-01T15:34:03Z</time></trkpt><trkpt lat="43.40308681775865" lon="5.870267873515419"><ele>338.0</ele><time>2026-05-01T15:34:04Z</time></trkpt><trkpt lat="43.403059489716625" lon="5.870134266547561"><ele>338.1666666666667</ele><time>2026-05-01T15:34:05Z</time></trkpt><trkpt lat="43.40305116637601" lon="5.870006794391236"><ele>338.33333333333337</ele><time>2026-05-01T15:34:06Z</time></trkpt><trkpt lat="43.403062286000186" lon="5.869918201918225"><ele>338.5</ele><time>2026-05-01T15:34:07Z</time></trkpt><trkpt lat="43.40306452466204" lon="5.869826978535185"><ele>338.6666666666667</ele><time>2026-05-01T15:34:08Z</time></trkpt><trkpt lat="43.40306281656236" lon="5.869724724238834"><ele>338.8333333333333</ele><time>2026-05-01T15:34:09Z</time></trkpt><trkpt lat="43.403081657803355" lon="5.869617498281717"><ele>339.0</ele><time>2026-05-01T15:34:11Z</time></trkpt><trkpt lat="43.40291763844974" lon="5.869565575938122"><ele>337.6</ele><time>2026-05-01T15:34:20Z</time></trkpt><trkpt lat="43.40284616155191" lon="5.869571671521113"><ele>336.2</ele><time>2026-05-01T15:34:21Z</time></trkpt><trkpt lat="43.40276314744619" lon="5.869572201348875"><ele>334.8</ele><time>2026-05-01T15:34:23Z</time></trkpt><trkpt lat="43.40272993749941" lon="5.869468942957131"><ele>333.40000000000003</ele><time>2026-05-01T15:34:26Z</time></trkpt><trkpt lat="43.402741360861306" lon="5.869328113955905"><ele>332.0</ele><time>2026-05-01T15:34:28Z</time></trkpt><trkpt lat="43.402799199906646" lon="5.869149201261737"><ele>332.0</ele><time>2026-05-01T15:34:30Z</time></trkpt><trkpt lat="43.402825123514624" lon="5.86899229257988"><ele>332.0</ele><time>2026-05-01T15:34:31Z</time></trkpt><trkpt lat="43.402847044735765" lon="5.868843677152169"><ele>332.0</ele><time>2026-05-01T15:34:32Z</time></trkpt><trkpt lat="43.40286088098318" lon="5.868728895407241"><ele>332.0</ele><time>2026-05-01T15:34:33Z</time></trkpt><trkpt lat="43.40287636005317" lon="5.868626572996664"><ele>332.0</ele><time>2026-05-01T15:34:34Z</time></trkpt><trkpt lat="43.40288830542355" lon="5.86853326095901"><ele>332.0</ele><time>2026-05-01T15:34:35Z</time></trkpt><trkpt lat="43.4029196134992" lon="5.868376409473321"><ele>332.0</ele><time>2026-05-01T15:34:37Z</time></trkpt><trkpt lat="43.40295727219215" lon="5.868261349343531"><ele>332.0</ele><time>2026-05-01T15:34:39Z</time></trkpt><trkpt lat="43.40299835573283" lon="5.868120785089641"><ele>332.0</ele><time>2026-05-01T15:34:41Z</time></trkpt><trkpt lat="43.40304208487172" lon="5.867948493358882"><ele>333.0</ele><time>2026-05-01T15:34:43Z</time></trkpt><trkpt lat="43.403063844482716" lon="5.867855370211984"><ele>334.0</ele><time>2026-05-01T15:34:44Z</time></trkpt><trkpt lat="43.40309206431128" lon="5.867761219266793"><ele>335.0</ele><time>2026-05-01T15:34:45Z</time></trkpt><trkpt lat="43.4031295911194" lon="5.867661337119275"><ele>336.0</ele><time>2026-05-01T15:34:46Z</time></trkpt><trkpt lat="43.4031717881083" lon="5.8675500312407545"><ele>337.0</ele><time>2026-05-01T15:34:47Z</time></trkpt><trkpt lat="43.40321033389161" lon="5.867445268789523"><ele>338.0</ele><time>2026-05-01T15:34:48Z</time></trkpt><trkpt lat="43.40324836542352" lon="5.867345607253477"><ele>338.0</ele><time>2026-05-01T15:34:49Z</time></trkpt><trkpt lat="43.403281982917854" lon="5.867228631751585"><ele>338.0</ele><time>2026-05-01T15:34:50Z</time></trkpt><trkpt lat="43.40333903687041" lon="5.867107697070816"><ele>338.0</ele><time>2026-05-01T15:34:51Z</time></trkpt><trkpt lat="43.40339042781694" lon="5.866985864053788"><ele>338.0</ele><time>2026-05-01T15:34:52Z</time></trkpt><trkpt lat="43.40344270929814" lon="5.866879874082015"><ele>338.0</ele><time>2026-05-01T15:34:53Z</time></trkpt><trkpt lat="43.40350621823331" lon="5.866779056174668"><ele>337.2</ele><time>2026-05-01T15:34:54Z</time></trkpt><trkpt lat="43.403556941323686" lon="5.866661848464044"><ele>336.4</ele><time>2026-05-01T15:34:55Z</time></trkpt><trkpt lat="43.40361506687525" lon="5.86656387083348"><ele>335.59999999999997</ele><time>2026-05-01T15:34:56Z</time></trkpt><trkpt lat="43.40368277794389" lon="5.866447057336177"><ele>334.79999999999995</ele><time>2026-05-01T15:34:57Z</time></trkpt><trkpt lat="43.40375912639162" lon="5.866334982173691"><ele>334.0</ele><time>2026-05-01T15:34:58Z</time></trkpt><trkpt lat="43.40382830538205" lon="5.8662403065857855"><ele>334.4</ele><time>2026-05-01T15:34:59Z</time></trkpt><trkpt lat="43.40390353691354" lon="5.8661426097988665"><ele>334.79999999999995</ele><time>2026-05-01T15:35:00Z</time></trkpt><trkpt lat="43.40397998660931" lon="5.866043740665424"><ele>335.20000000000005</ele><time>2026-05-01T15:35:01Z</time></trkpt><trkpt lat="43.404055242566216" lon="5.865950107453844"><ele>335.6</ele><time>2026-05-01T15:35:02Z</time></trkpt><trkpt lat="43.40414563659662" lon="5.865840645227688"><ele>336.0</ele><time>2026-05-01T15:35:03Z</time></trkpt><trkpt lat="43.404225505309384" lon="5.865746148778819"><ele>336.0</ele><time>2026-05-01T15:35:04Z</time></trkpt><trkpt lat="43.40429395072563" lon="5.865666052136057"><ele>336.0</ele><time>2026-05-01T15:35:05Z</time></trkpt><trkpt lat="43.404347836424584" lon="5.865603503305482"><ele>336.0</ele><time>2026-05-01T15:35:06Z</time></trkpt><trkpt lat="43.4043798651242" lon="5.865528863684903"><ele>336.0</ele><time>2026-05-01T15:35:07Z</time></trkpt><trkpt lat="43.40444070291468" lon="5.865431029618723"><ele>336.0</ele><time>2026-05-01T15:35:09Z</time></trkpt><trkpt lat="43.40451546863362" lon="5.8653652302093136"><ele>336.0</ele><time>2026-05-01T15:35:12Z</time></trkpt><trkpt lat="43.40468244275075" lon="5.865565464266855"><ele>335.6</ele><time>2026-05-01T15:35:14Z</time></trkpt><trkpt lat="43.404773110992544" lon="5.865618376664081"><ele>335.20000000000005</ele><time>2026-05-01T15:35:17Z</time></trkpt><trkpt lat="43.40483144959511" lon="5.865657356478129"><ele>334.79999999999995</ele><time>2026-05-01T15:35:18Z</time></trkpt><trkpt lat="43.404924365378065" lon="5.865715874854908"><ele>334.4</ele><time>2026-05-01T15:35:19Z</time></trkpt><trkpt lat="43.40504140940242" lon="5.865788192063813"><ele>334.0</ele><time>2026-05-01T15:35:20Z</time></trkpt><trkpt lat="43.40515511765493" lon="5.865853904571668"><ele>334.0</ele><time>2026-05-01T15:35:21Z</time></trkpt><trkpt lat="43.405256129089416" lon="5.865937199735913"><ele>334.0</ele><time>2026-05-01T15:35:22Z</time></trkpt><trkpt lat="43.40536680216944" lon="5.866029713908922"><ele>334.0</ele><time>2026-05-01T15:35:23Z</time></trkpt><trkpt lat="43.40547602293628" lon="5.866124662613075"><ele>334.0</ele><time>2026-05-01T15:35:24Z</time></trkpt><trkpt lat="43.40558336336167" lon="5.866214375103862"><ele>333.79999999999995</ele><time>2026-05-01T15:35:25Z</time></trkpt><trkpt lat="43.405690354227204" lon="5.866297402240215"><ele>333.59999999999997</ele><time>2026-05-01T15:35:26Z</time></trkpt><trkpt lat="43.40578465309515" lon="5.86637492976038"><ele>333.4</ele><time>2026-05-01T15:35:27Z</time></trkpt><trkpt lat="43.40588106589856" lon="5.866440820149014"><ele>333.2</ele><time>2026-05-01T15:35:28Z</time></trkpt><trkpt lat="43.4059647810163" lon="5.866519016885767"><ele>333.0</ele><time>2026-05-01T15:35:29Z</time></trkpt><trkpt lat="43.40605141974075" lon="5.866612889056013"><ele>333.0</ele><time>2026-05-01T15:35:30Z</time></trkpt><trkpt lat="43.406124612522696" lon="5.866727568397602"><ele>333.0</ele><time>2026-05-01T15:35:31Z</time></trkpt><trkpt lat="43.4062150741198" lon="5.866865652428815"><ele>333.0</ele><time>2026-05-01T15:35:32Z</time></trkpt><trkpt lat="43.406323011943726" lon="5.8670318217281645"><ele>333.0</ele><time>2026-05-01T15:35:33Z</time></trkpt><trkpt lat="43.40643941335656" lon="5.86719879301254"><ele>332.0</ele><time>2026-05-01T15:35:34Z</time></trkpt><trkpt lat="43.4065324376847" lon="5.867335797406071"><ele>331.0</ele><time>2026-05-01T15:35:35Z</time></trkpt><trkpt lat="43.40659569873087" lon="5.867435137132281"><ele>330.0</ele><time>2026-05-01T15:35:36Z</time></trkpt><trkpt lat="43.40666511908184" lon="5.867500924452535"><ele>329.0</ele><time>2026-05-01T15:35:37Z</time></trkpt><trkpt lat="43.406742717226976" lon="5.867529132475916"><ele>328.0</ele><time>2026-05-01T15:35:38Z</time></trkpt><trkpt lat="43.406849306130695" lon="5.867454384470992"><ele>328.0</ele><time>2026-05-01T15:35:40Z</time></trkpt><trkpt lat="43.40690460688805" lon="5.867361773443211"><ele>328.0</ele><time>2026-05-01T15:35:41Z</time></trkpt><trkpt lat="43.40700231345455" lon="5.867257869130895"><ele>328.0</ele><time>2026-05-01T15:35:42Z</time></trkpt><trkpt lat="43.407113643042905" lon="5.8671621495145585"><ele>328.0</ele><time>2026-05-01T15:35:43Z</time></trkpt><trkpt lat="43.40718540437233" lon="5.8670812922463025"><ele>328.0</ele><time>2026-05-01T15:35:44Z</time></trkpt><trkpt lat="43.40724115659058" lon="5.8670108154179745"><ele>328.2</ele><time>2026-05-01T15:35:45Z</time></trkpt><trkpt lat="43.40732804599699" lon="5.866979801040071"><ele>328.4</ele><time>2026-05-01T15:35:47Z</time></trkpt><trkpt lat="43.407409786463546" lon="5.866925699362255"><ele>328.59999999999997</ele><time>2026-05-01T15:35:49Z</time></trkpt><trkpt lat="43.40751957516634" lon="5.8668716838290385"><ele>328.79999999999995</ele><time>2026-05-01T15:35:51Z</time></trkpt><trkpt lat="43.40761595968051" lon="5.866822403206953"><ele>329.0</ele><time>2026-05-01T15:35:52Z</time></trkpt><trkpt lat="43.40774118004447" lon="5.866759628578933"><ele>327.5</ele><time>2026-05-01T15:35:53Z</time></trkpt><trkpt lat="43.40785405726994" lon="5.866733980231671"><ele>326.0</ele><time>2026-05-01T15:35:54Z</time></trkpt><trkpt lat="43.407982419969976" lon="5.866730814442498"><ele>324.5</ele><time>2026-05-01T15:35:55Z</time></trkpt><trkpt lat="43.40815265705235" lon="5.866720631556802"><ele>323.0</ele><time>2026-05-01T15:35:56Z</time></trkpt><trkpt lat="43.40831136350087" lon="5.8666969551025865"><ele>322.75</ele><time>2026-05-01T15:35:57Z</time></trkpt><trkpt lat="43.408440659009145" lon="5.8666664584573205"><ele>322.5</ele><time>2026-05-01T15:35:58Z</time></trkpt><trkpt lat="43.40854384099698" lon="5.866624760633072"><ele>322.25</ele><time>2026-05-01T15:35:59Z</time></trkpt><trkpt lat="43.40863394811474" lon="5.866540630122121"><ele>322.0</ele><time>2026-05-01T15:36:00Z</time></trkpt><trkpt lat="43.40872483978946" lon="5.866469718460659"><ele>322.0</ele><time>2026-05-01T15:36:01Z</time></trkpt><trkpt lat="43.40882202237614" lon="5.866438697821517"><ele>322.0</ele><time>2026-05-01T15:36:02Z</time></trkpt><trkpt lat="43.40893768120628" lon="5.866425664938745"><ele>322.0</ele><time>2026-05-01T15:36:03Z</time></trkpt><trkpt lat="43.40906113168446" lon="5.8664063580802015"><ele>322.0</ele><time>2026-05-01T15:36:04Z</time></trkpt><trkpt lat="43.409167179536375" lon="5.866386479199346"><ele>322.0</ele><time>2026-05-01T15:36:05Z</time></trkpt><trkpt lat="43.409238355788695" lon="5.866369800658016"><ele>322.0</ele><time>2026-05-01T15:36:06Z</time></trkpt><trkpt lat="43.409337212304244" lon="5.866413195193928"><ele>322.0</ele><time>2026-05-01T15:36:08Z</time></trkpt><trkpt lat="43.409389999030324" lon="5.866480545642369"><ele>322.0</ele><time>2026-05-01T15:36:09Z</time></trkpt><trkpt lat="43.40944362365308" lon="5.866568297872932"><ele>322.0</ele><time>2026-05-01T15:36:10Z</time></trkpt><trkpt lat="43.40950261107529" lon="5.866690523505965"><ele>322.0</ele><time>2026-05-01T15:36:11Z</time></trkpt><trkpt lat="43.40956433169684" lon="5.8667936512398935"><ele>321.75</ele><time>2026-05-01T15:36:12Z</time></trkpt><trkpt lat="43.409639134950595" lon="5.866917036394055"><ele>321.5</ele><time>2026-05-01T15:36:13Z</time></trkpt><trkpt lat="43.40972570268823" lon="5.867056320171333"><ele>321.25</ele><time>2026-05-01T15:36:14Z</time></trkpt><trkpt lat="43.40978555371271" lon="5.86718090630048"><ele>321.0</ele><time>2026-05-01T15:36:15Z</time></trkpt><trkpt lat="43.409829085408305" lon="5.867302070076016"><ele>321.0</ele><time>2026-05-01T15:36:16Z</time></trkpt><trkpt lat="43.40986840331997" lon="5.867413932748814"><ele>321.0</ele><time>2026-05-01T15:36:17Z</time></trkpt><trkpt lat="43.40992152840494" lon="5.867498094303298"><ele>321.0</ele><time>2026-05-01T15:36:18Z</time></trkpt><trkpt lat="43.40999808194845" lon="5.8675597652393625"><ele>321.0</ele><time>2026-05-01T15:36:19Z</time></trkpt><trkpt lat="43.41007914033955" lon="5.867589857513044"><ele>321.0</ele><time>2026-05-01T15:36:20Z</time></trkpt><trkpt lat="43.41015049199895" lon="5.867611481651903"><ele>321.0</ele><time>2026-05-01T15:36:21Z</time></trkpt><trkpt lat="43.410237444011294" lon="5.8676287818732"><ele>321.8</ele><time>2026-05-01T15:36:22Z</time></trkpt><trkpt lat="43.41033777714403" lon="5.867632314951773"><ele>322.6</ele><time>2026-05-01T15:36:23Z</time></trkpt><trkpt lat="43.410456747026906" lon="5.8676518006962946"><ele>323.4</ele><time>2026-05-01T15:36:24Z</time></trkpt><trkpt lat="43.410566484194284" lon="5.867666103736113"><ele>324.2</ele><time>2026-05-01T15:36:25Z</time></trkpt><trkpt lat="43.410664555618986" lon="5.867677936382661"><ele>325.0</ele><time>2026-05-01T15:36:26Z</time></trkpt><trkpt lat="43.41075447137423" lon="5.867704606867775"><ele>324.0</ele><time>2026-05-01T15:36:27Z</time></trkpt><trkpt lat="43.41083665111273" lon="5.867728433454792"><ele>323.0</ele><time>2026-05-01T15:36:28Z</time></trkpt><trkpt lat="43.41091847210792" lon="5.867729073457795"><ele>322.0</ele><time>2026-05-01T15:36:29Z</time></trkpt><trkpt lat="43.41097962501623" lon="5.867658922230949"><ele>321.0</ele><time>2026-05-01T15:36:30Z</time></trkpt><trkpt lat="43.410999070177475" lon="5.867535427967089"><ele>320.0</ele><time>2026-05-01T15:36:31Z</time></trkpt><trkpt lat="43.4109864255587" lon="5.867389489510538"><ele>319.0</ele><time>2026-05-01T15:36:32Z</time></trkpt><trkpt lat="43.41097754567054" lon="5.867218153911342"><ele>319.0</ele><time>2026-05-01T15:36:33Z</time></trkpt><trkpt lat="43.41097861689846" lon="5.867071683804255"><ele>319.0</ele><time>2026-05-01T15:36:34Z</time></trkpt><trkpt lat="43.41099632258007" lon="5.8669449661276385"><ele>319.0</ele><time>2026-05-01T15:36:35Z</time></trkpt><trkpt lat="43.411033619734916" lon="5.86683276482819"><ele>319.0</ele><time>2026-05-01T15:36:36Z</time></trkpt><trkpt lat="43.41110282399063" lon="5.866749282998544"><ele>319.0</ele><time>2026-05-01T15:36:37Z</time></trkpt><trkpt lat="43.41120599543161" lon="5.866712818173535"><ele>320.25</ele><time>2026-05-01T15:36:38Z</time></trkpt><trkpt lat="43.41133786239822" lon="5.866633880995144"><ele>321.5</ele><time>2026-05-01T15:36:39Z</time></trkpt><trkpt lat="43.4114768805315" lon="5.866533595557622"><ele>322.75</ele><time>2026-05-01T15:36:40Z</time></trkpt><trkpt lat="43.41160820380219" lon="5.866461290834911"><ele>324.0</ele><time>2026-05-01T15:36:41Z</time></trkpt><trkpt lat="43.411725486151475" lon="5.866433494992517"><ele>324.0</ele><time>2026-05-01T15:36:42Z</time></trkpt><trkpt lat="43.41182199202755" lon="5.866411703033042"><ele>324.0</ele><time>2026-05-01T15:36:43Z</time></trkpt><trkpt lat="43.411919330879286" lon="5.866422228455577"><ele>324.0</ele><time>2026-05-01T15:36:44Z</time></trkpt><trkpt lat="43.41200735474447" lon="5.866501196913112"><ele>324.0</ele><time>2026-05-01T15:36:45Z</time></trkpt><trkpt lat="43.412099450461156" lon="5.866630766879723"><ele>324.0</ele><time>2026-05-01T15:36:46Z</time></trkpt><trkpt lat="43.41217012151452" lon="5.866839911475096"><ele>323.3333333333333</ele><time>2026-05-01T15:36:47Z</time></trkpt><trkpt lat="43.41226802439473" lon="5.867077049405532"><ele>322.66666666666663</ele><time>2026-05-01T15:36:48Z</time></trkpt><trkpt lat="43.41237184639835" lon="5.867320342490779"><ele>322.0</ele><time>2026-05-01T15:36:49Z</time></trkpt><trkpt lat="43.41248585995423" lon="5.8675792203259975"><ele>322.5</ele><time>2026-05-01T15:36:50Z</time></trkpt><trkpt lat="43.412585725219294" lon="5.867776585552722"><ele>323.0</ele><time>2026-05-01T15:36:51Z</time></trkpt><trkpt lat="43.41264641961957" lon="5.8679329470873896"><ele>323.5</ele><time>2026-05-01T15:36:52Z</time></trkpt><trkpt lat="43.41269624838841" lon="5.868054137258704"><ele>324.0</ele><time>2026-05-01T15:36:53Z</time></trkpt><trkpt lat="43.412739224839164" lon="5.868147016227218"><ele>324.0</ele><time>2026-05-01T15:36:54Z</time></trkpt><trkpt lat="43.41278461464244" lon="5.8682512898995665"><ele>324.0</ele><time>2026-05-01T15:36:56Z</time></trkpt><trkpt lat="43.41284313217363" lon="5.868340063622748"><ele>324.0</ele><time>2026-05-01T15:37:04Z</time></trkpt><trkpt lat="43.41290261027563" lon="5.868422204121794"><ele>324.0</ele><time>2026-05-01T15:37:05Z</time></trkpt><trkpt lat="43.41295982153899" lon="5.868487698043963"><ele>324.0</ele><time>2026-05-01T15:37:06Z</time></trkpt><trkpt lat="43.4130880226452" lon="5.868259944754912"><ele>323.8333333333333</ele><time>2026-05-01T15:37:11Z</time></trkpt><trkpt lat="43.413173314515454" lon="5.868147534066989"><ele>323.6666666666667</ele><time>2026-05-01T15:37:13Z</time></trkpt><trkpt lat="43.413227505986725" lon="5.868080648411901"><ele>323.5</ele><time>2026-05-01T15:37:14Z</time></trkpt><trkpt lat="43.413289692162074" lon="5.867981439996254"><ele>323.33333333333337</ele><time>2026-05-01T15:37:15Z</time></trkpt><trkpt lat="43.413345273377615" lon="5.867936693024348"><ele>323.1666666666667</ele><time>2026-05-01T15:37:16Z</time></trkpt><trkpt lat="43.413418460722" lon="5.867911202320167"><ele>323.0</ele><time>2026-05-01T15:37:17Z</time></trkpt><trkpt lat="43.41351032809484" lon="5.867908034568237"><ele>323.0</ele><time>2026-05-01T15:37:18Z</time></trkpt><trkpt lat="43.41361599927615" lon="5.867904466177882"><ele>323.0</ele><time>2026-05-01T15:37:19Z</time></trkpt><trkpt lat="43.413709505855415" lon="5.867878838384535"><ele>323.0</ele><time>2026-05-01T15:37:20Z</time></trkpt><trkpt lat="43.41378443246373" lon="5.867835706979997"><ele>323.0</ele><time>2026-05-01T15:37:21Z</time></trkpt><trkpt lat="43.413860681210444" lon="5.86777637549614"><ele>323.0</ele><time>2026-05-01T15:37:22Z</time></trkpt><trkpt lat="43.413917625574925" lon="5.86771252216807"><ele>323.0</ele><time>2026-05-01T15:37:23Z</time></trkpt><trkpt lat="43.41393791150382" lon="5.8675884659719655"><ele>324.83333333333337</ele><time>2026-05-01T15:37:25Z</time></trkpt><trkpt lat="43.41394266118817" lon="5.8675004740002406"><ele>326.6666666666667</ele><time>2026-05-01T15:37:26Z</time></trkpt><trkpt lat="43.41395193585626" lon="5.867373683580687"><ele>328.5</ele><time>2026-05-01T15:37:27Z</time></trkpt><trkpt lat="43.41399976334074" lon="5.867286178073927"><ele>330.3333333333333</ele><time>2026-05-01T15:37:28Z</time></trkpt><trkpt lat="43.41406245531432" lon="5.867213561447766"><ele>332.16666666666663</ele><time>2026-05-01T15:37:29Z</time></trkpt><trkpt lat="43.41413671950825" lon="5.8671465465926556"><ele>334.0</ele><time>2026-05-01T15:37:30Z</time></trkpt><trkpt lat="43.41420082942243" lon="5.867117106548969"><ele>334.0</ele><time>2026-05-01T15:37:31Z</time></trkpt><trkpt lat="43.41428281452371" lon="5.867023548873932"><ele>334.0</ele><time>2026-05-01T15:37:33Z</time></trkpt><trkpt lat="43.41440158391737" lon="5.866976702731033"><ele>334.0</ele><time>2026-05-01T15:37:35Z</time></trkpt><trkpt lat="43.41447516636197" lon="5.86694776369119"><ele>334.0</ele><time>2026-05-01T15:37:36Z</time></trkpt><trkpt lat="43.41453848636699" lon="5.866937623074018"><ele>334.0</ele><time>2026-05-01T15:37:39Z</time></trkpt><trkpt lat="43.41460050719776" lon="5.866998302781317"><ele>334.0</ele><time>2026-05-01T15:37:43Z</time></trkpt><trkpt lat="43.41470133261083" lon="5.867022304440023"><ele>334.3333333333333</ele><time>2026-05-01T15:37:44Z</time></trkpt><trkpt lat="43.414785412440445" lon="5.86701508972525"><ele>334.66666666666663</ele><time>2026-05-01T15:37:45Z</time></trkpt><trkpt lat="43.414855087880085" lon="5.866968960714355"><ele>335.0</ele><time>2026-05-01T15:37:46Z</time></trkpt><trkpt lat="43.41492995093207" lon="5.866918369130734"><ele>335.3333333333333</ele><time>2026-05-01T15:37:47Z</time></trkpt><trkpt lat="43.41499007717056" lon="5.866891950454372"><ele>335.6666666666667</ele><time>2026-05-01T15:37:48Z</time></trkpt><trkpt lat="43.415061236669764" lon="5.866878632423769"><ele>336.0</ele><time>2026-05-01T15:37:49Z</time></trkpt><trkpt lat="43.41514203004601" lon="5.866867557573938"><ele>336.0</ele><time>2026-05-01T15:37:50Z</time></trkpt><trkpt lat="43.41521827628004" lon="5.866868845381035"><ele>336.0</ele><time>2026-05-01T15:37:51Z</time></trkpt><trkpt lat="43.415280431917346" lon="5.866891889137791"><ele>336.0</ele><time>2026-05-01T15:37:52Z</time></trkpt><trkpt lat="43.415378238017624" lon="5.866925854797848"><ele>336.0</ele><time>2026-05-01T15:37:53Z</time></trkpt><trkpt lat="43.41547740190657" lon="5.866941291671932"><ele>336.0</ele><time>2026-05-01T15:37:54Z</time></trkpt><trkpt lat="43.41556379191537" lon="5.866940415596174"><ele>336.0</ele><time>2026-05-01T15:37:55Z</time></trkpt><trkpt lat="43.415641030082035" lon="5.866946984217803"><ele>336.5</ele><time>2026-05-01T15:37:56Z</time></trkpt><trkpt lat="43.41570309560808" lon="5.866929280413332"><ele>337.0</ele><time>2026-05-01T15:37:57Z</time></trkpt><trkpt lat="43.41581267838527" lon="5.866922459278553"><ele>337.5</ele><time>2026-05-01T15:37:59Z</time></trkpt><trkpt lat="43.41588290855344" lon="5.866954994484848"><ele>338.0</ele><time>2026-05-01T15:38:00Z</time></trkpt><trkpt lat="43.415966716261586" lon="5.867019249852736"><ele>338.5</ele><time>2026-05-01T15:38:01Z</time></trkpt><trkpt lat="43.41605544625991" lon="5.867076153083727"><ele>339.0</ele><time>2026-05-01T15:38:02Z</time></trkpt><trkpt lat="43.4161581039691" lon="5.867105139031139"><ele>339.0</ele><time>2026-05-01T15:38:03Z</time></trkpt><trkpt lat="43.416265461612795" lon="5.867138091685207"><ele>339.0</ele><time>2026-05-01T15:38:04Z</time></trkpt><trkpt lat="43.41635532784593" lon="5.867155297948017"><ele>339.0</ele><time>2026-05-01T15:38:05Z</time></trkpt><trkpt lat="43.41644168921243" lon="5.867191475745417"><ele>339.0</ele><time>2026-05-01T15:38:06Z</time></trkpt><trkpt lat="43.4165498429541" lon="5.867272139668428"><ele>339.0</ele><time>2026-05-01T15:38:07Z</time></trkpt><trkpt lat="43.41664630798069" lon="5.867344112984724"><ele>338.4</ele><time>2026-05-01T15:38:08Z</time></trkpt><trkpt lat="43.41668931909913" lon="5.867411240576551"><ele>337.79999999999995</ele><time>2026-05-01T15:38:09Z</time></trkpt><trkpt lat="43.41670385788055" lon="5.867508189183761"><ele>337.20000000000005</ele><time>2026-05-01T15:38:10Z</time></trkpt><trkpt lat="43.41674063196578" lon="5.867661623602368"><ele>336.6</ele><time>2026-05-01T15:38:11Z</time></trkpt><trkpt lat="43.41677289597215" lon="5.86778441728869"><ele>336.0</ele><time>2026-05-01T15:38:12Z</time></trkpt><trkpt lat="43.41685557617482" lon="5.867914050285308"><ele>335.5</ele><time>2026-05-01T15:38:14Z</time></trkpt><trkpt lat="43.416938146167666" lon="5.86794538374348"><ele>335.0</ele><time>2026-05-01T15:38:15Z</time></trkpt><trkpt lat="43.417018211078016" lon="5.867947430024291"><ele>334.5</ele><time>2026-05-01T15:38:16Z</time></trkpt><trkpt lat="43.41707964023953" lon="5.867919559902158"><ele>334.0</ele><time>2026-05-01T15:38:17Z</time></trkpt><trkpt lat="43.41711328851751" lon="5.8678384760854945"><ele>333.5</ele><time>2026-05-01T15:38:18Z</time></trkpt><trkpt lat="43.41716057807997" lon="5.867736694232733"><ele>333.0</ele><time>2026-05-01T15:38:19Z</time></trkpt><trkpt lat="43.4172155117291" lon="5.867690278734514"><ele>332.79999999999995</ele><time>2026-05-01T15:38:20Z</time></trkpt><trkpt lat="43.41727388968436" lon="5.867560963923413"><ele>332.6</ele><time>2026-05-01T15:38:22Z</time></trkpt><trkpt lat="43.41729813887932" lon="5.867471932024774"><ele>332.4</ele><time>2026-05-01T15:38:22.999Z</time></trkpt><trkpt lat="43.417327558753705" lon="5.8672948898099095"><ele>332.20000000000005</ele><time>2026-05-01T15:38:23.999Z</time></trkpt><trkpt lat="43.41734270221704" lon="5.867108780178631"><ele>332.0</ele><time>2026-05-01T15:38:24.999Z</time></trkpt><trkpt lat="43.417371680000166" lon="5.866984827147251"><ele>332.0</ele><time>2026-05-01T15:38:25.999Z</time></trkpt><trkpt lat="43.417423702930044" lon="5.86688790234777"><ele>332.0</ele><time>2026-05-01T15:38:26.999Z</time></trkpt><trkpt lat="43.41748454213256" lon="5.86680655158718"><ele>332.0</ele><time>2026-05-01T15:38:27.999Z</time></trkpt><trkpt lat="43.417546582047244" lon="5.86674107998581"><ele>332.0</ele><time>2026-05-01T15:38:28.999Z</time></trkpt><trkpt lat="43.417586506014736" lon="5.866652186337772"><ele>332.0</ele><time>2026-05-01T15:38:29.999Z</time></trkpt><trkpt lat="43.41761448863151" lon="5.866564736520624"><ele>332.0</ele><time>2026-05-01T15:38:30.999Z</time></trkpt><trkpt lat="43.417645757350726" lon="5.866480282816883"><ele>331.5</ele><time>2026-05-01T15:38:31.999Z</time></trkpt><trkpt lat="43.417674806970474" lon="5.8663745381340675"><ele>331.0</ele><time>2026-05-01T15:38:32.999Z</time></trkpt><trkpt lat="43.417699105169795" lon="5.86626173440965"><ele>330.5</ele><time>2026-05-01T15:38:33.999Z</time></trkpt><trkpt lat="43.417730785232024" lon="5.866156554995776"><ele>330.0</ele><time>2026-05-01T15:38:34.999Z</time></trkpt><trkpt lat="43.417773938680746" lon="5.866064027067831"><ele>329.5</ele><time>2026-05-01T15:38:35.999Z</time></trkpt><trkpt lat="43.41783150917362" lon="5.865998740379521"><ele>329.0</ele><time>2026-05-01T15:38:36.999Z</time></trkpt><trkpt lat="43.41791378446596" lon="5.865983292875533"><ele>327.5</ele><time>2026-05-01T15:38:38.999Z</time></trkpt><trkpt lat="43.41796080704567" lon="5.86577884628652"><ele>326.0</ele><time>2026-05-01T15:38:40.999Z</time></trkpt><trkpt lat="43.41800064668555" lon="5.865669062133036"><ele>324.5</ele><time>2026-05-01T15:38:41.999Z</time></trkpt><trkpt lat="43.418076344950734" lon="5.865582533705984"><ele>323.0</ele><time>2026-05-01T15:38:43.999Z</time></trkpt><trkpt lat="43.41818575714304" lon="5.865581825765834"><ele>323.0</ele><time>2026-05-01T15:38:45.999Z</time></trkpt><trkpt lat="43.41825888853474" lon="5.865433819541257"><ele>323.0</ele><time>2026-05-01T15:38:47.999Z</time></trkpt><trkpt lat="43.41830612425936" lon="5.865293830097102"><ele>323.0</ele><time>2026-05-01T15:38:48.999Z</time></trkpt><trkpt lat="43.41834501619289" lon="5.8651571003512535"><ele>323.0</ele><time>2026-05-01T15:38:49.999Z</time></trkpt><trkpt lat="43.41837467569903" lon="5.865026539944552"><ele>323.0</ele><time>2026-05-01T15:38:50.999Z</time></trkpt><trkpt lat="43.41841538024189" lon="5.864895923503373"><ele>321.79999999999995</ele><time>2026-05-01T15:38:51.999Z</time></trkpt><trkpt lat="43.41845298439727" lon="5.864767648908496"><ele>320.59999999999997</ele><time>2026-05-01T15:38:52.999Z</time></trkpt><trkpt lat="43.41849030287055" lon="5.864647678660012"><ele>319.4</ele><time>2026-05-01T15:38:54Z</time></trkpt><trkpt lat="43.418522553161544" lon="5.864528120625096"><ele>318.2</ele><time>2026-05-01T15:38:56Z</time></trkpt><trkpt lat="43.41847532705022" lon="5.8644177936430015"><ele>317.0</ele><time>2026-05-01T15:39:05Z</time></trkpt><trkpt lat="43.41844569636704" lon="5.864330228866979"><ele>317.0</ele><time>2026-05-01T15:39:06Z</time></trkpt><trkpt lat="43.418371519260546" lon="5.864227347480374"><ele>317.0</ele><time>2026-05-01T15:39:08Z</time></trkpt><trkpt lat="43.418269815355686" lon="5.864295523689142"><ele>317.0</ele><time>2026-05-01T15:39:10Z</time></trkpt><trkpt lat="43.41818192240671" lon="5.864374828001882"><ele>317.0</ele><time>2026-05-01T15:39:11Z</time></trkpt><trkpt lat="43.41805640119923" lon="5.864468784129353"><ele>316.25</ele><time>2026-05-01T15:39:12Z</time></trkpt><trkpt lat="43.417904251634916" lon="5.864567681191285"><ele>315.5</ele><time>2026-05-01T15:39:13Z</time></trkpt><trkpt lat="43.41778925247562" lon="5.864619278877076"><ele>314.75</ele><time>2026-05-01T15:39:14Z</time></trkpt><trkpt lat="43.41768371975541" lon="5.864650937813934"><ele>314.0</ele><time>2026-05-01T15:39:15Z</time></trkpt><trkpt lat="43.41757405562079" lon="5.864664629738944"><ele>314.0</ele><time>2026-05-01T15:39:16Z</time></trkpt><trkpt lat="43.41745999223291" lon="5.864696596802027"><ele>314.0</ele><time>2026-05-01T15:39:17Z</time></trkpt><trkpt lat="43.417353738188076" lon="5.8647358980258915"><ele>314.0</ele><time>2026-05-01T15:39:18Z</time></trkpt><trkpt lat="43.41722591029568" lon="5.864770446815872"><ele>314.0</ele><time>2026-05-01T15:39:19Z</time></trkpt><trkpt lat="43.41710923307713" lon="5.864801755883127"><ele>313.8</ele><time>2026-05-01T15:39:20Z</time></trkpt><trkpt lat="43.41701077405388" lon="5.864818251608549"><ele>313.59999999999997</ele><time>2026-05-01T15:39:21Z</time></trkpt><trkpt lat="43.416912284771506" lon="5.8648059311766065"><ele>313.4</ele><time>2026-05-01T15:39:22Z</time></trkpt><trkpt lat="43.41679766054194" lon="5.864806079846882"><ele>313.2</ele><time>2026-05-01T15:39:23Z</time></trkpt><trkpt lat="43.41670322949726" lon="5.8648291941933355"><ele>313.0</ele><time>2026-05-01T15:39:24Z</time></trkpt><trkpt lat="43.416632363127555" lon="5.864878988855956"><ele>313.0</ele><time>2026-05-01T15:39:25Z</time></trkpt><trkpt lat="43.41655344803692" lon="5.864928388011049"><ele>313.0</ele><time>2026-05-01T15:39:27Z</time></trkpt><trkpt lat="43.41654547308728" lon="5.864832276441349"><ele>313.0</ele><time>2026-05-01T15:39:29Z</time></trkpt><trkpt lat="43.41645413127691" lon="5.864708667262089"><ele>313.0</ele><time>2026-05-01T15:39:33Z</time></trkpt><trkpt lat="43.416379880658276" lon="5.864608570062185"><ele>313.0</ele><time>2026-05-01T15:39:34Z</time></trkpt><trkpt lat="43.4163129044512" lon="5.864536954183158"><ele>313.4</ele><time>2026-05-01T15:39:35Z</time></trkpt><trkpt lat="43.41620342233445" lon="5.864486900056867"><ele>313.8</ele><time>2026-05-01T15:39:37Z</time></trkpt><trkpt lat="43.41612294904982" lon="5.864465083129376"><ele>314.2</ele><time>2026-05-01T15:39:38Z</time></trkpt><trkpt lat="43.41605466619131" lon="5.864466911142142"><ele>314.6</ele><time>2026-05-01T15:39:39Z</time></trkpt><trkpt lat="43.41596437947806" lon="5.864547346233081"><ele>315.0</ele><time>2026-05-01T15:39:41Z</time></trkpt><trkpt lat="43.41586151537897" lon="5.86451827219007"><ele>315.0</ele><time>2026-05-01T15:39:43Z</time></trkpt><trkpt lat="43.41575990862673" lon="5.8645048610145585"><ele>315.0</ele><time>2026-05-01T15:39:45Z</time></trkpt><trkpt lat="43.415667814989234" lon="5.864559912288443"><ele>315.0</ele><time>2026-05-01T15:39:47Z</time></trkpt><trkpt lat="43.41557788577499" lon="5.864494026468439"><ele>315.0</ele><time>2026-05-01T15:39:49Z</time></trkpt><trkpt lat="43.41551990788418" lon="5.864408782976438"><ele>315.0</ele><time>2026-05-01T15:39:50Z</time></trkpt><trkpt lat="43.415436441165674" lon="5.864319643288232"><ele>314.8333333333333</ele><time>2026-05-01T15:39:50.999Z</time></trkpt><trkpt lat="43.41538790653094" lon="5.864231194426873"><ele>314.6666666666667</ele><time>2026-05-01T15:39:51.999Z</time></trkpt><trkpt lat="43.415380760892525" lon="5.864133997521437"><ele>314.5</ele><time>2026-05-01T15:39:52.999Z</time></trkpt><trkpt lat="43.41541361704597" lon="5.864036577267151"><ele>314.33333333333337</ele><time>2026-05-01T15:39:53.999Z</time></trkpt><trkpt lat="43.41547225635842" lon="5.863932153515217"><ele>314.1666666666667</ele><time>2026-05-01T15:39:54.999Z</time></trkpt><trkpt lat="43.4155287355335" lon="5.863829067541539"><ele>314.0</ele><time>2026-05-01T15:39:55.999Z</time></trkpt><trkpt lat="43.41564637913188" lon="5.8637888301839975"><ele>314.0</ele><time>2026-05-01T15:39:57.999Z</time></trkpt><trkpt lat="43.415738897390256" lon="5.863807251061442"><ele>314.0</ele><time>2026-05-01T15:39:58.999Z</time></trkpt><trkpt lat="43.41584723029462" lon="5.863841839521437"><ele>314.0</ele><time>2026-05-01T15:39:59.999Z</time></trkpt><trkpt lat="43.41594390368871" lon="5.863899310461844"><ele>314.0</ele><time>2026-05-01T15:40:00.999Z</time></trkpt><trkpt lat="43.416071331847824" lon="5.863976714175123"><ele>314.0</ele><time>2026-05-01T15:40:01.999Z</time></trkpt><trkpt lat="43.41616902645935" lon="5.8640412971236175"><ele>314.0</ele><time>2026-05-01T15:40:02.999Z</time></trkpt><trkpt lat="43.41622821141403" lon="5.864081568135234"><ele>314.0</ele><time>2026-05-01T15:40:03.999Z</time></trkpt><trkpt lat="43.41630978753383" lon="5.864099638561559"><ele>314.0</ele><time>2026-05-01T15:40:05.999Z</time></trkpt><trkpt lat="43.416278032540575" lon="5.863995266175109"><ele>314.0</ele><time>2026-05-01T15:40:08.999Z</time></trkpt><trkpt lat="43.41621828457313" lon="5.863935576507608"><ele>314.0</ele><time>2026-05-01T15:40:09.999Z</time></trkpt><trkpt lat="43.416132679443265" lon="5.863835668176998"><ele>314.0</ele><time>2026-05-01T15:40:10.999Z</time></trkpt><trkpt lat="43.41604283502261" lon="5.863690252619259"><ele>314.0</ele><time>2026-05-01T15:40:11.999Z</time></trkpt><trkpt lat="43.41593207077874" lon="5.863500955055879"><ele>314.0</ele><time>2026-05-01T15:40:12.999Z</time></trkpt><trkpt lat="43.41584187742309" lon="5.863333703054808"><ele>314.0</ele><time>2026-05-01T15:40:13.999Z</time></trkpt><trkpt lat="43.415755137799806" lon="5.863152938751989"><ele>313.59999999999997</ele><time>2026-05-01T15:40:14.999Z</time></trkpt><trkpt lat="43.41568414057302" lon="5.863006576819139"><ele>313.2</ele><time>2026-05-01T15:40:15.999Z</time></trkpt><trkpt lat="43.41562191835208" lon="5.8628914071084"><ele>312.79999999999995</ele><time>2026-05-01T15:40:16.999Z</time></trkpt><trkpt lat="43.415568020996204" lon="5.862782108880963"><ele>312.4</ele><time>2026-05-01T15:40:17.999Z</time></trkpt><trkpt lat="43.41552380881669" lon="5.862704167810247"><ele>312.0</ele><time>2026-05-01T15:40:18.999Z</time></trkpt><trkpt lat="43.415456846482165" lon="5.862635071778053"><ele>314.8</ele><time>2026-05-01T15:40:20.999Z</time></trkpt><trkpt lat="43.41533816104202" lon="5.862674518463061"><ele>317.6</ele><time>2026-05-01T15:40:22.999Z</time></trkpt><trkpt lat="43.41525650046681" lon="5.862684566137254"><ele>320.40000000000003</ele><time>2026-05-01T15:40:23.999Z</time></trkpt><trkpt lat="43.41517002432096" lon="5.862685302466015"><ele>323.2</ele><time>2026-05-01T15:40:24.999Z</time></trkpt><trkpt lat="43.41510018046793" lon="5.86270325059734"><ele>326.0</ele><time>2026-05-01T15:40:25.999Z</time></trkpt><trkpt lat="43.41498549168085" lon="5.862739518662686"><ele>326.0</ele><time>2026-05-01T15:40:27.999Z</time></trkpt><trkpt lat="43.41491171180411" lon="5.862802025027008"><ele>326.0</ele><time>2026-05-01T15:40:29.999Z</time></trkpt><trkpt lat="43.414863057395365" lon="5.862864511396893"><ele>326.0</ele><time>2026-05-01T15:40:31.999Z</time></trkpt><trkpt lat="43.414870806158866" lon="5.862989499350506"><ele>326.0</ele><time>2026-05-01T15:40:33.999Z</time></trkpt><trkpt lat="43.41488193947917" lon="5.863102296043852"><ele>326.0</ele><time>2026-05-01T15:40:35.999Z</time></trkpt><trkpt lat="43.41481428338237" lon="5.863139957523219"><ele>326.0</ele><time>2026-05-01T15:40:39.999Z</time></trkpt><trkpt lat="43.41471523604972" lon="5.863126869014551"><ele>328.0</ele><time>2026-05-01T15:40:41.999Z</time></trkpt><trkpt lat="43.41463393249085" lon="5.863094812481855"><ele>330.0</ele><time>2026-05-01T15:40:44.999Z</time></trkpt><trkpt lat="43.414580173027076" lon="5.86302231693238"><ele>332.0</ele><time>2026-05-01T15:40:50Z</time></trkpt><trkpt lat="43.41454810592601" lon="5.862924592031869"><ele>334.0</ele><time>2026-05-01T15:40:52Z</time></trkpt><trkpt lat="43.41451758534201" lon="5.862774532515349"><ele>336.0</ele><time>2026-05-01T15:40:54Z</time></trkpt><trkpt lat="43.414495783656" lon="5.86266805353088"><ele>338.0</ele><time>2026-05-01T15:40:56Z</time></trkpt><trkpt lat="43.414480140305955" lon="5.862570588739319"><ele>338.0</ele><time>2026-05-01T15:41:07Z</time></trkpt><trkpt lat="43.4145632714373" lon="5.8625936142672215"><ele>338.0</ele><time>2026-05-01T15:41:13Z</time></trkpt><trkpt lat="43.41465429719975" lon="5.862629728560946"><ele>338.0</ele><time>2026-05-01T15:41:16Z</time></trkpt><trkpt lat="43.41475389939805" lon="5.86264655993124"><ele>338.0</ele><time>2026-05-01T15:41:18Z</time></trkpt><trkpt lat="43.4148482256426" lon="5.862602539245729"><ele>338.0</ele><time>2026-05-01T15:41:20Z</time></trkpt><trkpt lat="43.41492036451411" lon="5.86248646333427"><ele>337.33333333333337</ele><time>2026-05-01T15:41:22Z</time></trkpt><trkpt lat="43.4149740794463" lon="5.862386888890548"><ele>336.6666666666667</ele><time>2026-05-01T15:41:23Z</time></trkpt><trkpt lat="43.41502358751698" lon="5.862305000360254"><ele>336.0</ele><time>2026-05-01T15:41:24Z</time></trkpt><trkpt lat="43.415068354731986" lon="5.862233257913471"><ele>335.3333333333333</ele><time>2026-05-01T15:41:25Z</time></trkpt><trkpt lat="43.41514053059198" lon="5.862107857058961"><ele>334.66666666666663</ele><time>2026-05-01T15:41:27Z</time></trkpt><trkpt lat="43.415178611119025" lon="5.861988397828173"><ele>334.0</ele><time>2026-05-01T15:41:29Z</time></trkpt><trkpt lat="43.415216776875575" lon="5.861862303986931"><ele>335.25</ele><time>2026-05-01T15:41:31Z</time></trkpt><trkpt lat="43.41526219137764" lon="5.86171792402441"><ele>336.5</ele><time>2026-05-01T15:41:33Z</time></trkpt><trkpt lat="43.41529977876908" lon="5.861560587079038"><ele>337.75</ele><time>2026-05-01T15:41:35Z</time></trkpt><trkpt lat="43.415351885126164" lon="5.861420017790023"><ele>339.0</ele><time>2026-05-01T15:41:37Z</time></trkpt><trkpt lat="43.41539656749062" lon="5.861276957000853"><ele>339.0</ele><time>2026-05-01T15:41:39Z</time></trkpt><trkpt lat="43.41545427108616" lon="5.8611034393240615"><ele>339.0</ele><time>2026-05-01T15:41:41Z</time></trkpt><trkpt lat="43.41548652886246" lon="5.861017558343618"><ele>339.0</ele><time>2026-05-01T15:41:42Z</time></trkpt><trkpt lat="43.41553891147268" lon="5.860860761949172"><ele>339.0</ele><time>2026-05-01T15:41:44Z</time></trkpt><trkpt lat="43.41559384217626" lon="5.8607218447570295"><ele>339.0</ele><time>2026-05-01T15:41:46Z</time></trkpt><trkpt lat="43.41562921731385" lon="5.860591571890092"><ele>335.3333333333333</ele><time>2026-05-01T15:41:48Z</time></trkpt><trkpt lat="43.41564551023881" lon="5.860507273109182"><ele>331.6666666666667</ele><time>2026-05-01T15:41:49Z</time></trkpt><trkpt lat="43.41566917999462" lon="5.8603552471085765"><ele>328.0</ele><time>2026-05-01T15:41:51Z</time></trkpt><trkpt lat="43.41567891395578" lon="5.860238668419639"><ele>324.33333333333337</ele><time>2026-05-01T15:41:52Z</time></trkpt><trkpt lat="43.41568858198817" lon="5.860146896563538"><ele>320.6666666666667</ele><time>2026-05-01T15:41:53Z</time></trkpt><trkpt lat="43.41569826318369" lon="5.860030080764161"><ele>317.0</ele><time>2026-05-01T15:41:55Z</time></trkpt><trkpt lat="43.41572058166903" lon="5.859945577994001"><ele>316.6</ele><time>2026-05-01T15:41:57Z</time></trkpt><trkpt lat="43.41576230432402" lon="5.859837837647795"><ele>316.2</ele><time>2026-05-01T15:41:59Z</time></trkpt><trkpt lat="43.41583699179643" lon="5.859744118801957"><ele>315.8</ele><time>2026-05-01T15:42:01Z</time></trkpt><trkpt lat="43.415881343498526" lon="5.85963603588447"><ele>315.4</ele><time>2026-05-01T15:42:03Z</time></trkpt><trkpt lat="43.415869680551" lon="5.859499845391692"><ele>315.0</ele><time>2026-05-01T15:42:12.999Z</time></trkpt><trkpt lat="43.41585653143847" lon="5.859328578846676"><ele>314.4</ele><time>2026-05-01T15:42:14.999Z</time></trkpt><trkpt lat="43.41592484700736" lon="5.859205867065666"><ele>313.8</ele><time>2026-05-01T15:42:16.999Z</time></trkpt><trkpt lat="43.415989378867145" lon="5.859121684253999"><ele>313.2</ele><time>2026-05-01T15:42:18.999Z</time></trkpt><trkpt lat="43.41607776809231" lon="5.859043750910827"><ele>312.6</ele><time>2026-05-01T15:42:20.999Z</time></trkpt><trkpt lat="43.41613276130868" lon="5.858979482277187"><ele>312.0</ele><time>2026-05-01T15:42:21.999Z</time></trkpt><trkpt lat="43.41620644207201" lon="5.858937670242769"><ele>312.0</ele><time>2026-05-01T15:42:22.999Z</time></trkpt><trkpt lat="43.41630741299862" lon="5.858873956044003"><ele>312.0</ele><time>2026-05-01T15:42:23.999Z</time></trkpt><trkpt lat="43.41641161318653" lon="5.858812843806393"><ele>312.0</ele><time>2026-05-01T15:42:24.999Z</time></trkpt><trkpt lat="43.41648955065055" lon="5.858772318587112"><ele>312.0</ele><time>2026-05-01T15:42:25.999Z</time></trkpt><trkpt lat="43.416559271079755" lon="5.858768452087208"><ele>312.0</ele><time>2026-05-01T15:42:26.999Z</time></trkpt><trkpt lat="43.416605171651526" lon="5.858829826245528"><ele>312.0</ele><time>2026-05-01T15:42:27.999Z</time></trkpt><trkpt lat="43.41665960204288" lon="5.858891030941726"><ele>312.0</ele><time>2026-05-01T15:42:28.999Z</time></trkpt><trkpt lat="43.416744675211014" lon="5.858972163018684"><ele>312.0</ele><time>2026-05-01T15:42:29.999Z</time></trkpt><trkpt lat="43.416818640491186" lon="5.85903256135223"><ele>312.0</ele><time>2026-05-01T15:42:30.999Z</time></trkpt><trkpt lat="43.41689189267629" lon="5.85909501608078"><ele>312.0</ele><time>2026-05-01T15:42:32.999Z</time></trkpt><trkpt lat="43.41684623190669" lon="5.859626172974758"><ele>312.5</ele><time>2026-05-01T15:42:34.999Z</time></trkpt><trkpt lat="43.41685966404359" lon="5.8598614360709975"><ele>313.0</ele><time>2026-05-01T15:42:35.999Z</time></trkpt><trkpt lat="43.41688368925616" lon="5.860030543634936"><ele>313.5</ele><time>2026-05-01T15:42:36.999Z</time></trkpt><trkpt lat="43.41694531219236" lon="5.860149998461738"><ele>314.0</ele><time>2026-05-01T15:42:37.999Z</time></trkpt><trkpt lat="43.41703672348467" lon="5.860282376606096"><ele>314.6666666666667</ele><time>2026-05-01T15:42:38.999Z</time></trkpt><trkpt lat="43.41715508582633" lon="5.8604013258618455"><ele>315.3333333333333</ele><time>2026-05-01T15:42:39.999Z</time></trkpt><trkpt lat="43.41729671516967" lon="5.860523582640416"><ele>316.0</ele><time>2026-05-01T15:42:40.999Z</time></trkpt><trkpt lat="43.417467389480784" lon="5.860619666594485"><ele>316.0</ele><time>2026-05-01T15:42:41.999Z</time></trkpt><trkpt lat="43.41764237681511" lon="5.860713040180082"><ele>316.0</ele><time>2026-05-01T15:42:42.999Z</time></trkpt><trkpt lat="43.417796826906965" lon="5.860839053011556"><ele>316.0</ele><time>2026-05-01T15:42:43.999Z</time></trkpt><trkpt lat="43.41791100093756" lon="5.860946781169086"><ele>318.5</ele><time>2026-05-01T15:42:44.999Z</time></trkpt><trkpt lat="43.41804393647493" lon="5.861006997408112"><ele>321.0</ele><time>2026-05-01T15:42:45.999Z</time></trkpt><trkpt lat="43.41817484163655" lon="5.861045771356609"><ele>323.5</ele><time>2026-05-01T15:42:46.999Z</time></trkpt><trkpt lat="43.418287897623436" lon="5.861072746660206"><ele>326.0</ele><time>2026-05-01T15:42:47.999Z</time></trkpt><trkpt lat="43.41836159096215" lon="5.861116338227416"><ele>326.0</ele><time>2026-05-01T15:42:48.999Z</time></trkpt><trkpt lat="43.418396448842806" lon="5.861191170424908"><ele>326.0</ele><time>2026-05-01T15:42:49.999Z</time></trkpt><trkpt lat="43.418389571727296" lon="5.8613531793326015"><ele>326.0</ele><time>2026-05-01T15:42:51.999Z</time></trkpt><trkpt lat="43.41845845193221" lon="5.86139749490018"><ele>326.0</ele><time>2026-05-01T15:42:53.999Z</time></trkpt><trkpt lat="43.41853341254573" lon="5.861345822439219"><ele>326.0</ele><time>2026-05-01T15:43:17Z</time></trkpt><trkpt lat="43.418608072061254" lon="5.8613154131691525"><ele>326.0</ele><time>2026-05-01T15:43:18Z</time></trkpt><trkpt lat="43.41870501200477" lon="5.861260496648278"><ele>326.0</ele><time>2026-05-01T15:43:19Z</time></trkpt><trkpt lat="43.418787913326426" lon="5.861211075317014"><ele>326.0</ele><time>2026-05-01T15:43:20Z</time></trkpt><trkpt lat="43.41885170157475" lon="5.861164616477135"><ele>326.0</ele><time>2026-05-01T15:43:21Z</time></trkpt><trkpt lat="43.418977017641765" lon="5.861190611087775"><ele>326.0</ele><time>2026-05-01T15:43:23Z</time></trkpt><trkpt lat="43.41907430691341" lon="5.861248377893623"><ele>326.0</ele><time>2026-05-01T15:43:25Z</time></trkpt><trkpt lat="43.41914596170929" lon="5.861235305952641"><ele>326.83333333333337</ele><time>2026-05-01T15:43:26Z</time></trkpt><trkpt lat="43.41921007743578" lon="5.861153873979241"><ele>327.6666666666667</ele><time>2026-05-01T15:43:28Z</time></trkpt><trkpt lat="43.419215706358365" lon="5.861050067955407"><ele>328.5</ele><time>2026-05-01T15:43:31Z</time></trkpt><trkpt lat="43.4192265069506" lon="5.860945637801958"><ele>329.3333333333333</ele><time>2026-05-01T15:43:33Z</time></trkpt><trkpt lat="43.419285941701574" lon="5.860872731916543"><ele>330.16666666666663</ele><time>2026-05-01T15:43:36Z</time></trkpt><trkpt lat="43.419301971372164" lon="5.860782176833334"><ele>331.0</ele><time>2026-05-01T15:43:37Z</time></trkpt><trkpt lat="43.419303919278754" lon="5.860628049931776"><ele>332.0</ele><time>2026-05-01T15:43:38Z</time></trkpt><trkpt lat="43.41932398729601" lon="5.860463340018239"><ele>333.0</ele><time>2026-05-01T15:43:39Z</time></trkpt><trkpt lat="43.419354900783866" lon="5.860300731720408"><ele>334.0</ele><time>2026-05-01T15:43:40Z</time></trkpt><trkpt lat="43.41937425647377" lon="5.860146678634455"><ele>335.0</ele><time>2026-05-01T15:43:41Z</time></trkpt><trkpt lat="43.41938412861318" lon="5.86000054913279"><ele>335.33333333333337</ele><time>2026-05-01T15:43:42Z</time></trkpt><trkpt lat="43.41940568787921" lon="5.859866139230792"><ele>335.6666666666667</ele><time>2026-05-01T15:43:43Z</time></trkpt><trkpt lat="43.419426552687405" lon="5.859752460155924"><ele>336.0</ele><time>2026-05-01T15:43:44Z</time></trkpt><trkpt lat="43.41943449040289" lon="5.8596469991609395"><ele>336.3333333333333</ele><time>2026-05-01T15:43:45Z</time></trkpt><trkpt lat="43.419440951387884" lon="5.859526079591529"><ele>336.66666666666663</ele><time>2026-05-01T15:43:47Z</time></trkpt><trkpt lat="43.41944975925802" lon="5.859391031349275"><ele>337.0</ele><time>2026-05-01T15:44:08Z</time></trkpt><trkpt lat="43.41946768860779" lon="5.859296869969544"><ele>336.6</ele><time>2026-05-01T15:44:08.999Z</time></trkpt><trkpt lat="43.41949179778062" lon="5.859178082446756"><ele>336.20000000000005</ele><time>2026-05-01T15:44:09.999Z</time></trkpt><trkpt lat="43.41950520391947" lon="5.859084181818295"><ele>335.8</ele><time>2026-05-01T15:44:10.999Z</time></trkpt><trkpt lat="43.41955920307598" lon="5.858954985091126"><ele>335.4</ele><time>2026-05-01T15:44:12.999Z</time></trkpt><trkpt lat="43.41960073899893" lon="5.8588406599719365"><ele>335.0</ele><time>2026-05-01T15:44:14.999Z</time></trkpt><trkpt lat="43.41962847777334" lon="5.858696166933476"><ele>335.0</ele><time>2026-05-01T15:44:16.999Z</time></trkpt><trkpt lat="43.419634302347994" lon="5.8585644158189165"><ele>335.0</ele><time>2026-05-01T15:44:18.999Z</time></trkpt><trkpt lat="43.419660029948915" lon="5.85846708145219"><ele>335.0</ele><time>2026-05-01T15:44:20.999Z</time></trkpt><trkpt lat="43.41968154303048" lon="5.858381765244268"><ele>335.0</ele><time>2026-05-01T15:44:22.999Z</time></trkpt><trkpt lat="43.419699284748745" lon="5.858283107069341"><ele>335.0</ele><time>2026-05-01T15:44:25.999Z</time></trkpt><trkpt lat="43.41974575763708" lon="5.8581917071985385"><ele>335.0</ele><time>2026-05-01T15:44:29.999Z</time></trkpt><trkpt lat="43.41978714653902" lon="5.858090295442001"><ele>335.6666666666667</ele><time>2026-05-01T15:44:31.999Z</time></trkpt><trkpt lat="43.419853948019785" lon="5.8580984001149305"><ele>336.33333333333337</ele><time>2026-05-01T15:44:46.999Z</time></trkpt><trkpt lat="43.41994729476059" lon="5.858186981698604"><ele>337.0</ele><time>2026-05-01T15:44:48.999Z</time></trkpt><trkpt lat="43.420019046501345" lon="5.858235885534954"><ele>337.6666666666667</ele><time>2026-05-01T15:44:49.999Z</time></trkpt><trkpt lat="43.420085771645894" lon="5.858274253049791"><ele>338.3333333333333</ele><time>2026-05-01T15:44:50.999Z</time></trkpt><trkpt lat="43.420184147276075" lon="5.858315097710925"><ele>339.0</ele><time>2026-05-01T15:44:51.999Z</time></trkpt><trkpt lat="43.42027424205185" lon="5.858355209162018"><ele>339.0</ele><time>2026-05-01T15:44:52.999Z</time></trkpt><trkpt lat="43.420368754072165" lon="5.858389745153065"><ele>339.0</ele><time>2026-05-01T15:44:53.999Z</time></trkpt><trkpt lat="43.42044577228514" lon="5.858413901137443"><ele>339.0</ele><time>2026-05-01T15:44:54.999Z</time></trkpt><trkpt lat="43.42051911047382" lon="5.858443485164279"><ele>339.0</ele><time>2026-05-01T15:44:55.999Z</time></trkpt><trkpt lat="43.42060226238462" lon="5.85848944456814"><ele>339.0</ele><time>2026-05-01T15:44:56.999Z</time></trkpt><trkpt lat="43.42070681758129" lon="5.858526328927369"><ele>338.4</ele><time>2026-05-01T15:44:57.999Z</time></trkpt><trkpt lat="43.420809768805235" lon="5.858560397182251"><ele>337.79999999999995</ele><time>2026-05-01T15:44:58.999Z</time></trkpt><trkpt lat="43.42089234364779" lon="5.8586024302325646"><ele>337.20000000000005</ele><time>2026-05-01T15:44:59.999Z</time></trkpt><trkpt lat="43.42096748845193" lon="5.858632669888121"><ele>336.6</ele><time>2026-05-01T15:45:01Z</time></trkpt><trkpt lat="43.421046948893974" lon="5.8586586565028185"><ele>336.0</ele><time>2026-05-01T15:45:02Z</time></trkpt><trkpt lat="43.4211403351422" lon="5.858692850511994"><ele>336.0</ele><time>2026-05-01T15:45:03Z</time></trkpt><trkpt lat="43.421225547260846" lon="5.858706942886726"><ele>336.0</ele><time>2026-05-01T15:45:04Z</time></trkpt><trkpt lat="43.42132850508163" lon="5.858720100565125"><ele>336.0</ele><time>2026-05-01T15:45:05Z</time></trkpt><trkpt lat="43.42141671636019" lon="5.8587524763665275"><ele>336.0</ele><time>2026-05-01T15:45:06Z</time></trkpt><trkpt lat="43.42149414747303" lon="5.858792519931302"><ele>336.0</ele><time>2026-05-01T15:45:07Z</time></trkpt><trkpt lat="43.421562764293824" lon="5.858806421368688"><ele>336.0</ele><time>2026-05-01T15:45:08Z</time></trkpt><trkpt lat="43.42165721958859" lon="5.858850472905434"><ele>336.1666666666667</ele><time>2026-05-01T15:45:10Z</time></trkpt><trkpt lat="43.42176619176908" lon="5.85884882464335"><ele>336.3333333333333</ele><time>2026-05-01T15:45:12Z</time></trkpt><trkpt lat="43.42183343500989" lon="5.858837744494347"><ele>336.5</ele><time>2026-05-01T15:45:13Z</time></trkpt><trkpt lat="43.42190116637043" lon="5.858827188698738"><ele>336.66666666666663</ele><time>2026-05-01T15:45:14Z</time></trkpt><trkpt lat="43.42198692544271" lon="5.858847269885191"><ele>336.8333333333333</ele><time>2026-05-01T15:45:15Z</time></trkpt><trkpt lat="43.422082267906525" lon="5.858863840863487"><ele>337.0</ele><time>2026-05-01T15:45:17Z</time></trkpt><trkpt lat="43.4221804770735" lon="5.8588127965236065"><ele>337.0</ele><time>2026-05-01T15:45:19Z</time></trkpt><trkpt lat="43.42224504474125" lon="5.858791911781717"><ele>337.0</ele><time>2026-05-01T15:45:20Z</time></trkpt><trkpt lat="43.42232473348909" lon="5.858773146148769"><ele>337.0</ele><time>2026-05-01T15:45:21Z</time></trkpt><trkpt lat="43.42240252318964" lon="5.858756053481333"><ele>337.0</ele><time>2026-05-01T15:45:22Z</time></trkpt><trkpt lat="43.42253035910471" lon="5.858703625197226"><ele>337.0</ele><time>2026-05-01T15:45:24Z</time></trkpt><trkpt lat="43.422595449636084" lon="5.858689753503906"><ele>337.0</ele><time>2026-05-01T15:45:25Z</time></trkpt><trkpt lat="43.42267777835756" lon="5.85866863663621"><ele>337.0</ele><time>2026-05-01T15:45:26Z</time></trkpt><trkpt lat="43.422783734048956" lon="5.858605186627909"><ele>337.0</ele><time>2026-05-01T15:45:27Z</time></trkpt><trkpt lat="43.422877038882355" lon="5.858547611287526"><ele>337.0</ele><time>2026-05-01T15:45:28Z</time></trkpt><trkpt lat="43.422957843753665" lon="5.8584939414364126"><ele>337.0</ele><time>2026-05-01T15:45:29Z</time></trkpt><trkpt lat="43.42302140294085" lon="5.858464882517985"><ele>337.0</ele><time>2026-05-01T15:45:30Z</time></trkpt><trkpt lat="43.4230939721369" lon="5.858421346726358"><ele>337.40000000000003</ele><time>2026-05-01T15:45:31Z</time></trkpt><trkpt lat="43.42316699275424" lon="5.858348865569075"><ele>337.8</ele><time>2026-05-01T15:45:32Z</time></trkpt><trkpt lat="43.42324645959875" lon="5.858286652189642"><ele>338.2</ele><time>2026-05-01T15:45:33Z</time></trkpt><trkpt lat="43.42331553234553" lon="5.858263049197525"><ele>338.6</ele><time>2026-05-01T15:45:34Z</time></trkpt><trkpt lat="43.42343037695779" lon="5.858176166383101"><ele>339.0</ele><time>2026-05-01T15:45:36Z</time></trkpt><trkpt lat="43.42352657611641" lon="5.858107309462737"><ele>339.0</ele><time>2026-05-01T15:45:37Z</time></trkpt><trkpt lat="43.423606425493645" lon="5.858051281256307"><ele>339.0</ele><time>2026-05-01T15:45:38Z</time></trkpt><trkpt lat="43.42367868433838" lon="5.857999752577312"><ele>339.0</ele><time>2026-05-01T15:45:39Z</time></trkpt><trkpt lat="43.423741876104444" lon="5.8579708924432925"><ele>339.0</ele><time>2026-05-01T15:45:40Z</time></trkpt><trkpt lat="43.42380273825122" lon="5.857948213383257"><ele>339.0</ele><time>2026-05-01T15:45:41Z</time></trkpt><trkpt lat="43.42391217370804" lon="5.857890345179751"><ele>339.0</ele><time>2026-05-01T15:45:43Z</time></trkpt><trkpt lat="43.42399279901704" lon="5.857865929146029"><ele>338.6</ele><time>2026-05-01T15:45:45Z</time></trkpt><trkpt lat="43.424067903805316" lon="5.85793906511505"><ele>338.2</ele><time>2026-05-01T15:45:47Z</time></trkpt><trkpt lat="43.424108058964904" lon="5.858081783985272"><ele>337.8</ele><time>2026-05-01T15:45:49Z</time></trkpt><trkpt lat="43.42411269912348" lon="5.85817019981872"><ele>337.40000000000003</ele><time>2026-05-01T15:45:50Z</time></trkpt><trkpt lat="43.42413938158791" lon="5.85826673570415"><ele>337.0</ele><time>2026-05-01T15:45:52Z</time></trkpt><trkpt lat="43.4242579301218" lon="5.8582123318716395"><ele>337.0</ele><time>2026-05-01T15:45:53Z</time></trkpt><trkpt lat="43.424335016612986" lon="5.858218829270705"><ele>337.0</ele><time>2026-05-01T15:45:54Z</time></trkpt><trkpt lat="43.42440331625335" lon="5.858111683139732"><ele>337.0</ele><time>2026-05-01T15:45:55Z</time></trkpt><trkpt lat="43.424495998826366" lon="5.858055130748493"><ele>337.0</ele><time>2026-05-01T15:45:56Z</time></trkpt><trkpt lat="43.42459309615987" lon="5.85800615347126"><ele>337.0</ele><time>2026-05-01T15:45:57Z</time></trkpt><trkpt lat="43.42467557553857" lon="5.857964540874624"><ele>336.40000000000003</ele><time>2026-05-01T15:45:58Z</time></trkpt><trkpt lat="43.42475724202023" lon="5.857923338455643"><ele>335.8</ele><time>2026-05-01T15:45:59Z</time></trkpt><trkpt lat="43.424850010014346" lon="5.857876535145469"><ele>335.2</ele><time>2026-05-01T15:46:00Z</time></trkpt><trkpt lat="43.424947291894966" lon="5.857803148490295"><ele>334.6</ele><time>2026-05-01T15:46:01Z</time></trkpt><trkpt lat="43.425053906647946" lon="5.8577529902304395"><ele>334.0</ele><time>2026-05-01T15:46:02Z</time></trkpt><trkpt lat="43.4251605148705" lon="5.85769064202373"><ele>334.0</ele><time>2026-05-01T15:46:03Z</time></trkpt><trkpt lat="43.42527066308331" lon="5.85762594209216"><ele>334.0</ele><time>2026-05-01T15:46:03.999Z</time></trkpt><trkpt lat="43.4254040299002" lon="5.857571991457126"><ele>334.0</ele><time>2026-05-01T15:46:04.999Z</time></trkpt><trkpt lat="43.425530592606904" lon="5.857480413438027"><ele>334.0</ele><time>2026-05-01T15:46:05.999Z</time></trkpt><trkpt lat="43.42564732645386" lon="5.857411052455711"><ele>334.75</ele><time>2026-05-01T15:46:06.999Z</time></trkpt><trkpt lat="43.42575194696649" lon="5.8573515488974826"><ele>335.5</ele><time>2026-05-01T15:46:07.999Z</time></trkpt><trkpt lat="43.42585784962417" lon="5.857334539695573"><ele>336.25</ele><time>2026-05-01T15:46:08.999Z</time></trkpt><trkpt lat="43.42597259518105" lon="5.8572949630467415"><ele>337.0</ele><time>2026-05-01T15:46:09.999Z</time></trkpt><trkpt lat="43.42611392506959" lon="5.857290898952736"><ele>337.0</ele><time>2026-05-01T15:46:10.999Z</time></trkpt><trkpt lat="43.4262775609447" lon="5.857264711405513"><ele>337.0</ele><time>2026-05-01T15:46:11.999Z</time></trkpt><trkpt lat="43.426468770891496" lon="5.85722872708902"><ele>337.0</ele><time>2026-05-01T15:46:12.999Z</time></trkpt><trkpt lat="43.42665447065033" lon="5.85719501897234"><ele>337.0</ele><time>2026-05-01T15:46:13.999Z</time></trkpt><trkpt lat="43.42681805236764" lon="5.857172173789535"><ele>337.0</ele><time>2026-05-01T15:46:14.999Z</time></trkpt><trkpt lat="43.42696474330652" lon="5.857156678914125"><ele>337.0</ele><time>2026-05-01T15:46:15.999Z</time></trkpt><trkpt lat="43.427102309874996" lon="5.85714626912807"><ele>337.0</ele><time>2026-05-01T15:46:17Z</time></trkpt><trkpt lat="43.427237375282445" lon="5.857154830063171"><ele>337.0</ele><time>2026-05-01T15:46:18Z</time></trkpt><trkpt lat="43.42740276755278" lon="5.857176210009542"><ele>337.0</ele><time>2026-05-01T15:46:19Z</time></trkpt><trkpt lat="43.42758131425195" lon="5.857210597493661"><ele>337.0</ele><time>2026-05-01T15:46:20Z</time></trkpt><trkpt lat="43.42776883974279" lon="5.857244372514489"><ele>337.0</ele><time>2026-05-01T15:46:21Z</time></trkpt><trkpt lat="43.427942227822655" lon="5.857271085228817"><ele>337.0</ele><time>2026-05-01T15:46:22Z</time></trkpt><trkpt lat="43.428092966639944" lon="5.857295110740448"><ele>337.0</ele><time>2026-05-01T15:46:23Z</time></trkpt><trkpt lat="43.428229906974536" lon="5.857300950721001"><ele>337.0</ele><time>2026-05-01T15:46:24Z</time></trkpt><trkpt lat="43.42833865022923" lon="5.857330514863429"><ele>337.0</ele><time>2026-05-01T15:46:25Z</time></trkpt><trkpt lat="43.428412072328946" lon="5.857370847994427"><ele>337.0</ele><time>2026-05-01T15:46:26Z</time></trkpt><trkpt lat="43.42850052340124" lon="5.857372864499944"><ele>337.0</ele><time>2026-05-01T15:46:29Z</time></trkpt><trkpt lat="43.42857078983625" lon="5.857201356114982"><ele>337.0</ele><time>2026-05-01T15:46:31Z</time></trkpt><trkpt lat="43.42861091750438" lon="5.857117637360309"><ele>337.0</ele><time>2026-05-01T15:46:32Z</time></trkpt><trkpt lat="43.428655659252414" lon="5.8570248246151015"><ele>337.0</ele><time>2026-05-01T15:46:33Z</time></trkpt><trkpt lat="43.42869191037082" lon="5.856915600379365"><ele>337.0</ele><time>2026-05-01T15:46:34Z</time></trkpt><trkpt lat="43.42874423370411" lon="5.8568312432946845"><ele>337.0</ele><time>2026-05-01T15:46:35Z</time></trkpt><trkpt lat="43.42879594892103" lon="5.856738388442386"><ele>337.0</ele><time>2026-05-01T15:46:36Z</time></trkpt><trkpt lat="43.428856416512126" lon="5.856623118563142"><ele>337.0</ele><time>2026-05-01T15:46:37Z</time></trkpt><trkpt lat="43.42892750707601" lon="5.856493961779043"><ele>337.20000000000005</ele><time>2026-05-01T15:46:38Z</time></trkpt><trkpt lat="43.42902319596932" lon="5.856382365552222"><ele>337.4</ele><time>2026-05-01T15:46:39Z</time></trkpt><trkpt lat="43.42909665272118" lon="5.856277916017688"><ele>337.6</ele><time>2026-05-01T15:46:40Z</time></trkpt><trkpt lat="43.4291926449262" lon="5.856226978548253"><ele>337.79999999999995</ele><time>2026-05-01T15:46:41Z</time></trkpt><trkpt lat="43.42926990435491" lon="5.856132076323071"><ele>338.0</ele><time>2026-05-01T15:46:42Z</time></trkpt><trkpt lat="43.429376241497195" lon="5.856042078132903"><ele>338.25</ele><time>2026-05-01T15:46:43Z</time></trkpt><trkpt lat="43.42950431078214" lon="5.855928313187898"><ele>338.5</ele><time>2026-05-01T15:46:44Z</time></trkpt><trkpt lat="43.42961916155732" lon="5.8558219435362595"><ele>338.75</ele><time>2026-05-01T15:46:45Z</time></trkpt><trkpt lat="43.42972770556739" lon="5.855715882069264"><ele>339.0</ele><time>2026-05-01T15:46:46Z</time></trkpt><trkpt lat="43.42983059821228" lon="5.855629867881346"><ele>339.0</ele><time>2026-05-01T15:46:47Z</time></trkpt><trkpt lat="43.42993209988512" lon="5.855536462137759"><ele>339.0</ele><time>2026-05-01T15:46:48Z</time></trkpt><trkpt lat="43.43003848727158" lon="5.855428634150843"><ele>339.0</ele><time>2026-05-01T15:46:49Z</time></trkpt><trkpt lat="43.430147341235234" lon="5.85530121460994"><ele>339.0</ele><time>2026-05-01T15:46:50Z</time></trkpt><trkpt lat="43.430231922890925" lon="5.855174026030626"><ele>338.25</ele><time>2026-05-01T15:46:51Z</time></trkpt><trkpt lat="43.43031280874646" lon="5.8550395078802"><ele>337.5</ele><time>2026-05-01T15:46:52Z</time></trkpt><trkpt lat="43.43039298970031" lon="5.85490021092683"><ele>336.75</ele><time>2026-05-01T15:46:53Z</time></trkpt><trkpt lat="43.43050669057374" lon="5.854757750708343"><ele>336.0</ele><time>2026-05-01T15:46:54Z</time></trkpt><trkpt lat="43.43059306131189" lon="5.85458781263496"><ele>336.0</ele><time>2026-05-01T15:46:55Z</time></trkpt><trkpt lat="43.43068759604211" lon="5.854460052394003"><ele>336.0</ele><time>2026-05-01T15:46:56Z</time></trkpt><trkpt lat="43.43076600449511" lon="5.854330477184799"><ele>336.0</ele><time>2026-05-01T15:46:57Z</time></trkpt><trkpt lat="43.43084011346393" lon="5.854204347163903"><ele>336.0</ele><time>2026-05-01T15:46:58Z</time></trkpt><trkpt lat="43.43090597424143" lon="5.854086921236946"><ele>336.8333333333333</ele><time>2026-05-01T15:46:59Z</time></trkpt><trkpt lat="43.4309795942637" lon="5.8539846933013"><ele>337.6666666666667</ele><time>2026-05-01T15:47:00Z</time></trkpt><trkpt lat="43.43104070209626" lon="5.8538883949648595"><ele>338.5</ele><time>2026-05-01T15:47:01Z</time></trkpt><trkpt lat="43.43109886697627" lon="5.853808226622427"><ele>339.33333333333337</ele><time>2026-05-01T15:47:02Z</time></trkpt><trkpt lat="43.43115105857993" lon="5.853726676098009"><ele>340.1666666666667</ele><time>2026-05-01T15:47:03Z</time></trkpt><trkpt lat="43.43121129520084" lon="5.853685490475982"><ele>341.0</ele><time>2026-05-01T15:47:04Z</time></trkpt><trkpt lat="43.43127061935581" lon="5.853626451586352"><ele>340.4</ele><time>2026-05-01T15:47:06Z</time></trkpt><trkpt lat="43.43138442013706" lon="5.8537461804608135"><ele>339.8</ele><time>2026-05-01T15:47:07.001Z</time></trkpt><trkpt lat="43.43145509535549" lon="5.853816266948438"><ele>339.2</ele><time>2026-05-01T15:47:08.001Z</time></trkpt><trkpt lat="43.43154363994624" lon="5.853891100009355"><ele>338.59999999999997</ele><time>2026-05-01T15:47:09.001Z</time></trkpt><trkpt lat="43.43164525186639" lon="5.853963420735713"><ele>338.0</ele><time>2026-05-01T15:47:10.001Z</time></trkpt><trkpt lat="43.43175636317668" lon="5.854035614281061"><ele>338.0</ele><time>2026-05-01T15:47:11.001Z</time></trkpt><trkpt lat="43.431879181048615" lon="5.854099308740099"><ele>338.0</ele><time>2026-05-01T15:47:12.001Z</time></trkpt><trkpt lat="43.43200604688159" lon="5.854154271855351"><ele>338.0</ele><time>2026-05-01T15:47:13.001Z</time></trkpt><trkpt lat="43.43214147629017" lon="5.854212444805818"><ele>338.0</ele><time>2026-05-01T15:47:14.001Z</time></trkpt><trkpt lat="43.43227947577409" lon="5.854269741300694"><ele>338.5</ele><time>2026-05-01T15:47:15.001Z</time></trkpt><trkpt lat="43.432425585959926" lon="5.854327421596631"><ele>339.0</ele><time>2026-05-01T15:47:16.001Z</time></trkpt><trkpt lat="43.43256732498975" lon="5.85438538124404"><ele>339.5</ele><time>2026-05-01T15:47:17.001Z</time></trkpt><trkpt lat="43.43269723864815" lon="5.854439243085901"><ele>340.0</ele><time>2026-05-01T15:47:18.001Z</time></trkpt><trkpt lat="43.43282221271966" lon="5.854491769004477"><ele>340.0</ele><time>2026-05-01T15:47:19.001Z</time></trkpt><trkpt lat="43.43293486660155" lon="5.854538298067603"><ele>340.0</ele><time>2026-05-01T15:47:20.001Z</time></trkpt><trkpt lat="43.43304052714967" lon="5.85458611384917"><ele>340.0</ele><time>2026-05-01T15:47:21.001Z</time></trkpt><trkpt lat="43.433139177603216" lon="5.854630225076964"><ele>340.0</ele><time>2026-05-01T15:47:22.001Z</time></trkpt><trkpt lat="43.43322898167882" lon="5.8546664942129345"><ele>340.0</ele><time>2026-05-01T15:47:23.001Z</time></trkpt><trkpt lat="43.433318198221805" lon="5.854703319031911"><ele>340.66666666666663</ele><time>2026-05-01T15:47:24.001Z</time></trkpt><trkpt lat="43.433403014326274" lon="5.854741958626874"><ele>341.3333333333333</ele><time>2026-05-01T15:47:25.001Z</time></trkpt><trkpt lat="43.43348094214188" lon="5.854774724022134"><ele>342.0</ele><time>2026-05-01T15:47:26.001Z</time></trkpt><trkpt lat="43.43354956848272" lon="5.854805270685145"><ele>342.6666666666667</ele><time>2026-05-01T15:47:27.001Z</time></trkpt><trkpt lat="43.43361597452761" lon="5.85483560197545"><ele>343.33333333333337</ele><time>2026-05-01T15:47:28.001Z</time></trkpt><trkpt lat="43.43373682723283" lon="5.854890928166518"><ele>344.0</ele><time>2026-05-01T15:47:30.001Z</time></trkpt><trkpt lat="43.4338075125718" lon="5.854920690072907"><ele>344.33333333333337</ele><time>2026-05-01T15:47:31.001Z</time></trkpt><trkpt lat="43.433880050694334" lon="5.8549506924447385"><ele>344.6666666666667</ele><time>2026-05-01T15:47:32.001Z</time></trkpt><trkpt lat="43.43394853914514" lon="5.854986763103984"><ele>345.0</ele><time>2026-05-01T15:47:33.001Z</time></trkpt><trkpt lat="43.43401416373462" lon="5.855017421873775"><ele>345.3333333333333</ele><time>2026-05-01T15:47:34.001Z</time></trkpt><trkpt lat="43.43411385669734" lon="5.855059233944765"><ele>345.66666666666663</ele><time>2026-05-01T15:47:36.001Z</time></trkpt><trkpt lat="43.43418673189672" lon="5.855097130249634"><ele>346.0</ele><time>2026-05-01T15:47:38Z</time></trkpt><trkpt lat="43.43424969777873" lon="5.85512446145015"><ele>346.0</ele><time>2026-05-01T15:47:41Z</time></trkpt><trkpt lat="43.43431435955582" lon="5.855112300610061"><ele>346.0</ele><time>2026-05-01T15:50:07Z</time></trkpt><trkpt lat="43.43439218759054" lon="5.855156300746988"><ele>346.0</ele><time>2026-05-01T15:50:08Z</time></trkpt><trkpt lat="43.43448399246895" lon="5.855204308579521"><ele>346.0</ele><time>2026-05-01T15:50:09Z</time></trkpt><trkpt lat="43.43456047228483" lon="5.855244287535756"><ele>346.0</ele><time>2026-05-01T15:50:10Z</time></trkpt><trkpt lat="43.43464276126457" lon="5.8552825538557505"><ele>346.0</ele><time>2026-05-01T15:50:11Z</time></trkpt><trkpt lat="43.43475002494776" lon="5.85533223043506"><ele>347.0</ele><time>2026-05-01T15:50:12Z</time></trkpt><trkpt lat="43.43486433691313" lon="5.855386223632681"><ele>348.0</ele><time>2026-05-01T15:50:13Z</time></trkpt><trkpt lat="43.434976517425056" lon="5.855440193172816"><ele>349.0</ele><time>2026-05-01T15:50:14Z</time></trkpt><trkpt lat="43.43507532766445" lon="5.855484263839965"><ele>350.0</ele><time>2026-05-01T15:50:15Z</time></trkpt><trkpt lat="43.435176491796625" lon="5.8555266977153"><ele>351.0</ele><time>2026-05-01T15:50:16Z</time></trkpt><trkpt lat="43.43540452418458" lon="5.855592529064556"><ele>351.20000000000005</ele><time>2026-05-01T15:50:18Z</time></trkpt><trkpt lat="43.43551146478558" lon="5.855591369525952"><ele>351.40000000000003</ele><time>2026-05-01T15:50:19Z</time></trkpt><trkpt lat="43.43560698101689" lon="5.8555705068408175"><ele>351.6</ele><time>2026-05-01T15:50:20Z</time></trkpt><trkpt lat="43.43569106228613" lon="5.855539692676056"><ele>351.8</ele><time>2026-05-01T15:50:21Z</time></trkpt><trkpt lat="43.435769300348824" lon="5.85550479540681"><ele>352.0</ele><time>2026-05-01T15:50:22Z</time></trkpt><trkpt lat="43.43583979377993" lon="5.855463455384589"><ele>352.0</ele><time>2026-05-01T15:50:23Z</time></trkpt><trkpt lat="43.4359082768572" lon="5.855432706634829"><ele>352.0</ele><time>2026-05-01T15:50:24Z</time></trkpt><trkpt lat="43.43597505098046" lon="5.855436728121397"><ele>352.0</ele><time>2026-05-01T15:50:26Z</time></trkpt><trkpt lat="43.43606980234613" lon="5.855498204728237"><ele>352.0</ele><time>2026-05-01T15:50:29Z</time></trkpt><trkpt lat="43.43612454658012" lon="5.855579561131731"><ele>352.0</ele><time>2026-05-01T15:50:30Z</time></trkpt><trkpt lat="43.43619481616449" lon="5.8556735504996835"><ele>352.0</ele><time>2026-05-01T15:50:31Z</time></trkpt><trkpt lat="43.436280137163095" lon="5.855769875367747"><ele>352.25</ele><time>2026-05-01T15:50:32Z</time></trkpt><trkpt lat="43.436374362703084" lon="5.855882987098247"><ele>352.5</ele><time>2026-05-01T15:50:33Z</time></trkpt><trkpt lat="43.436480088751445" lon="5.856019381753713"><ele>352.75</ele><time>2026-05-01T15:50:34Z</time></trkpt><trkpt lat="43.43658345540508" lon="5.856146492218503"><ele>353.0</ele><time>2026-05-01T15:50:35Z</time></trkpt><trkpt lat="43.436696904712534" lon="5.8562841296651555"><ele>352.25</ele><time>2026-05-01T15:50:36Z</time></trkpt><trkpt lat="43.436802414185486" lon="5.856418104860548"><ele>351.5</ele><time>2026-05-01T15:50:37Z</time></trkpt><trkpt lat="43.43690103647242" lon="5.856544751923705"><ele>350.75</ele><time>2026-05-01T15:50:38Z</time></trkpt><trkpt lat="43.43699142033826" lon="5.856668961343667"><ele>350.0</ele><time>2026-05-01T15:50:39Z</time></trkpt><trkpt lat="43.43707294257225" lon="5.856794327482775"><ele>349.6</ele><time>2026-05-01T15:50:40Z</time></trkpt><trkpt lat="43.43714692685735" lon="5.856916795523995"><ele>349.2</ele><time>2026-05-01T15:50:41Z</time></trkpt><trkpt lat="43.43722156353319" lon="5.857023695644417"><ele>348.79999999999995</ele><time>2026-05-01T15:50:42Z</time></trkpt><trkpt lat="43.437298498976496" lon="5.8571031976654595"><ele>348.4</ele><time>2026-05-01T15:50:43Z</time></trkpt><trkpt lat="43.4373662551786" lon="5.857156471340164"><ele>348.0</ele><time>2026-05-01T15:50:44Z</time></trkpt><trkpt lat="43.437426962095365" lon="5.857214559616219"><ele>348.0</ele><time>2026-05-01T15:50:45Z</time></trkpt><trkpt lat="43.43748398756261" lon="5.8572826451233615"><ele>348.0</ele><time>2026-05-01T15:50:46Z</time></trkpt><trkpt lat="43.437546856857026" lon="5.857348995446622"><ele>348.0</ele><time>2026-05-01T15:50:47Z</time></trkpt><trkpt lat="43.437615518157884" lon="5.857381545042546"><ele>348.0</ele><time>2026-05-01T15:50:48Z</time></trkpt><trkpt lat="43.43769450465182" lon="5.8574055518741925"><ele>348.0</ele><time>2026-05-01T15:50:49Z</time></trkpt><trkpt lat="43.43777179779606" lon="5.857320278785782"><ele>348.0</ele><time>2026-05-01T15:50:50Z</time></trkpt><trkpt lat="43.437844532684075" lon="5.857234284080145"><ele>348.0</ele><time>2026-05-01T15:50:51Z</time></trkpt><trkpt lat="43.43792089170479" lon="5.85714023438191"><ele>348.0</ele><time>2026-05-01T15:50:52Z</time></trkpt><trkpt lat="43.43800607527188" lon="5.85709560054701"><ele>348.0</ele><time>2026-05-01T15:50:53Z</time></trkpt><trkpt lat="43.438100849644094" lon="5.85709524861474"><ele>348.0</ele><time>2026-05-01T15:50:54Z</time></trkpt><trkpt lat="43.4382076071976" lon="5.857120064691372"><ele>348.0</ele><time>2026-05-01T15:50:55Z</time></trkpt><trkpt lat="43.438328573364906" lon="5.857169807748688"><ele>347.75</ele><time>2026-05-01T15:50:56Z</time></trkpt><trkpt lat="43.438456391079775" lon="5.857235724337405"><ele>347.5</ele><time>2026-05-01T15:50:57Z</time></trkpt><trkpt lat="43.438580388571545" lon="5.857295750318669"><ele>347.25</ele><time>2026-05-01T15:50:58Z</time></trkpt><trkpt lat="43.43869894022171" lon="5.857348778737935"><ele>347.0</ele><time>2026-05-01T15:50:59Z</time></trkpt><trkpt lat="43.43881676079901" lon="5.857390964316271"><ele>347.0</ele><time>2026-05-01T15:51:00Z</time></trkpt><trkpt lat="43.438929659546694" lon="5.857431147230958"><ele>347.0</ele><time>2026-05-01T15:51:01Z</time></trkpt><trkpt lat="43.43903807463693" lon="5.857471825462245"><ele>347.0</ele><time>2026-05-01T15:51:02Z</time></trkpt><trkpt lat="43.439144886632775" lon="5.85751545890594"><ele>347.0</ele><time>2026-05-01T15:51:03Z</time></trkpt><trkpt lat="43.43924072768767" lon="5.857550030036624"><ele>347.0</ele><time>2026-05-01T15:51:04Z</time></trkpt><trkpt lat="43.43932142357375" lon="5.8575768150496135"><ele>347.0</ele><time>2026-05-01T15:51:05Z</time></trkpt><trkpt lat="43.439383801001846" lon="5.857600659902482"><ele>347.0</ele><time>2026-05-01T15:51:06Z</time></trkpt><trkpt lat="43.439456843722326" lon="5.857628823763463"><ele>347.0</ele><time>2026-05-01T15:51:09Z</time></trkpt><trkpt lat="43.43950888104111" lon="5.8574687941298595"><ele>347.0</ele><time>2026-05-01T15:51:16Z</time></trkpt><trkpt lat="43.43951254560248" lon="5.857363285810803"><ele>347.0</ele><time>2026-05-01T15:51:19Z</time></trkpt><trkpt lat="43.439543233045455" lon="5.857259106047977"><ele>347.0</ele><time>2026-05-01T15:51:23Z</time></trkpt><trkpt lat="43.439590665406556" lon="5.857082822058019"><ele>347.0</ele><time>2026-05-01T15:51:25Z</time></trkpt><trkpt lat="43.439617482134196" lon="5.856997564732464"><ele>347.0</ele><time>2026-05-01T15:51:26Z</time></trkpt><trkpt lat="43.439645425454366" lon="5.856913447135747"><ele>347.0</ele><time>2026-05-01T15:51:27Z</time></trkpt><trkpt lat="43.439655468676385" lon="5.856819459998101"><ele>347.0</ele><time>2026-05-01T15:51:28Z</time></trkpt><trkpt lat="43.43966058066155" lon="5.856706868490597"><ele>347.0</ele><time>2026-05-01T15:51:29Z</time></trkpt><trkpt lat="43.43965057965639" lon="5.856588317238981"><ele>347.0</ele><time>2026-05-01T15:51:30Z</time></trkpt><trkpt lat="43.439660896194" lon="5.856443718424745"><ele>345.6666666666667</ele><time>2026-05-01T15:51:31Z</time></trkpt><trkpt lat="43.43967679661106" lon="5.856242603045664"><ele>344.3333333333333</ele><time>2026-05-01T15:51:32Z</time></trkpt><trkpt lat="43.439703285806374" lon="5.856011790063365"><ele>343.0</ele><time>2026-05-01T15:51:33Z</time></trkpt><trkpt lat="43.43973146819431" lon="5.855787842674349"><ele>343.0</ele><time>2026-05-01T15:51:34Z</time></trkpt><trkpt lat="43.43976984555115" lon="5.8555809536111045"><ele>343.0</ele><time>2026-05-01T15:51:35Z</time></trkpt><trkpt lat="43.439818378515234" lon="5.8553693444651955"><ele>343.0</ele><time>2026-05-01T15:51:36Z</time></trkpt><trkpt lat="43.43987519908971" lon="5.855157784916703"><ele>345.0</ele><time>2026-05-01T15:51:37Z</time></trkpt><trkpt lat="43.439932380899364" lon="5.854921101666012"><ele>347.0</ele><time>2026-05-01T15:51:38Z</time></trkpt><trkpt lat="43.439955488885964" lon="5.854710714622726"><ele>349.0</ele><time>2026-05-01T15:51:39Z</time></trkpt><trkpt lat="43.43994108301069" lon="5.854506551238844"><ele>349.0</ele><time>2026-05-01T15:51:40Z</time></trkpt><trkpt lat="43.43993316877874" lon="5.854311933987868"><ele>349.0</ele><time>2026-05-01T15:51:41Z</time></trkpt><trkpt lat="43.43997774214769" lon="5.854139135332875"><ele>349.0</ele><time>2026-05-01T15:51:42Z</time></trkpt><trkpt lat="43.44001601529676" lon="5.853974328378133"><ele>349.0</ele><time>2026-05-01T15:51:43Z</time></trkpt><trkpt lat="43.44004247588542" lon="5.8538166907283635"><ele>349.5</ele><time>2026-05-01T15:51:44Z</time></trkpt><trkpt lat="43.44005579466859" lon="5.85367689797576"><ele>350.0</ele><time>2026-05-01T15:51:45Z</time></trkpt><trkpt lat="43.440068921963935" lon="5.853521662277131"><ele>350.5</ele><time>2026-05-01T15:51:46Z</time></trkpt><trkpt lat="43.44007156890843" lon="5.8533436651265855"><ele>351.0</ele><time>2026-05-01T15:51:47Z</time></trkpt><trkpt lat="43.439975310182525" lon="5.853198466823474"><ele>352.0</ele><time>2026-05-01T15:51:48Z</time></trkpt><trkpt lat="43.4399933805397" lon="5.853049646544596"><ele>353.0</ele><time>2026-05-01T15:51:49Z</time></trkpt><trkpt lat="43.44002725970883" lon="5.852879296981696"><ele>354.0</ele><time>2026-05-01T15:51:50Z</time></trkpt><trkpt lat="43.440056805958186" lon="5.852722332701671"><ele>355.0</ele><time>2026-05-01T15:51:51Z</time></trkpt><trkpt lat="43.44004499843067" lon="5.852613776688243"><ele>356.0</ele><time>2026-05-01T15:51:52Z</time></trkpt><trkpt lat="43.43997748039803" lon="5.852542668331496"><ele>358.0</ele><time>2026-05-01T15:51:53Z</time></trkpt><trkpt lat="43.4398838995711" lon="5.852483774090353"><ele>360.0</ele><time>2026-05-01T15:51:54Z</time></trkpt><trkpt lat="43.439768561410524" lon="5.852447673346989"><ele>362.0</ele><time>2026-05-01T15:51:55Z</time></trkpt><trkpt lat="43.439643075845474" lon="5.852363777764974"><ele>364.0</ele><time>2026-05-01T15:51:56Z</time></trkpt><trkpt lat="43.439513794094296" lon="5.852278279249664"><ele>365.3333333333333</ele><time>2026-05-01T15:51:57Z</time></trkpt><trkpt lat="43.43938468661468" lon="5.852196400233819"><ele>366.6666666666667</ele><time>2026-05-01T15:51:58Z</time></trkpt><trkpt lat="43.43920536993368" lon="5.85208030898709"><ele>368.0</ele><time>2026-05-01T15:51:59Z</time></trkpt><trkpt lat="43.43904637399884" lon="5.851978717094798"><ele>368.0</ele><time>2026-05-01T15:52:00Z</time></trkpt><trkpt lat="43.438963113429324" lon="5.851921223728846"><ele>368.0</ele><time>2026-05-01T15:52:01Z</time></trkpt><trkpt lat="43.438868738140904" lon="5.8519318501288335"><ele>368.0</ele><time>2026-05-01T15:52:03Z</time></trkpt><trkpt lat="43.43884519468166" lon="5.85205215073217"><ele>368.0</ele><time>2026-05-01T15:52:04Z</time></trkpt><trkpt lat="43.438835010014735" lon="5.852171286077788"><ele>368.0</ele><time>2026-05-01T15:52:05Z</time></trkpt><trkpt lat="43.43882051489345" lon="5.852328473775379"><ele>368.0</ele><time>2026-05-01T15:52:06Z</time></trkpt><trkpt lat="43.438778991599946" lon="5.852470870813104"><ele>361.0</ele><time>2026-05-01T15:52:07Z</time></trkpt><trkpt lat="43.438760547747435" lon="5.852556469836903"><ele>361.0</ele><time>2026-05-01T15:52:08Z</time></trkpt><trkpt lat="43.43872235912587" lon="5.8526360853946215"><ele>353.0</ele><time>2026-05-01T15:52:40Z</time></trkpt></trkseg></trk></gpx>